<?xml version="1.0"?>
<gpx
 version="1.1"
 creator="Satmap Active 20"
 xmlns:xsi="http://www.w3.org/2001/XMLSchema-instance"
 xmlns="http://www.topografix.com/GPX/1/1"
 xmlns:satmap="http://www.satmap.com/updates/xmlschemas/GpxExtensions/v2/GpxExtensions_v2.xsd"
 xsi:schemaLocation="http://www.topografix.com/GPX/1/1 http://www.topografix.com/GPX/1/1/gpx.xsd">
<metadata>
<time>2022-03-19T09:24:51Z</time>
<extensions>
<satmap:platform>43</satmap:platform>
<satmap:software version="3.12.831">SM15.exe</satmap:software>
<satmap:username>Jim Grant</satmap:username>
<satmap:network_ids>
<satmap:network_id type="wifi">00-23-A7-EC-D5-78</satmap:network_id>
<satmap:network_id type="bluetooth">80-BB-EB-D7-5B-7C</satmap:network_id>
</satmap:network_ids>
<satmap:snap_type>simple</satmap:snap_type>
</extensions>
</metadata>
<trk>
<name>2022-03-19_0925</name>
<desc>Track 1</desc>
<number>1</number>
<trkseg>
<trkpt lat="53.345557" lon="-1.816412"><ele>422</ele><time>2022-03-19T09:24:51Z</time><name>PT1</name></trkpt>
<trkpt lat="53.345559" lon="-1.816414"><ele>422</ele><time>2022-03-19T09:25:04Z</time><name>PT2</name></trkpt>
<trkpt lat="53.345563" lon="-1.816415"><ele>421</ele><time>2022-03-19T09:25:06Z</time><name>PT3</name></trkpt>
<trkpt lat="53.345558" lon="-1.816417"><ele>421</ele><time>2022-03-19T09:25:07Z</time><name>PT4</name></trkpt>
<trkpt lat="53.345557" lon="-1.816411"><ele>421</ele><time>2022-03-19T09:25:07Z</time><name>PT5</name></trkpt>
<trkpt lat="53.345556" lon="-1.816411"><ele>420</ele><time>2022-03-19T09:25:09Z</time><name>PT6</name></trkpt>
<trkpt lat="53.345555" lon="-1.816416"><ele>421</ele><time>2022-03-19T09:25:10Z</time><name>PT7</name></trkpt>
<trkpt lat="53.345555" lon="-1.816417"><ele>421</ele><time>2022-03-19T09:25:10Z</time><name>PT8</name></trkpt>
<trkpt lat="53.345542" lon="-1.816415"><ele>422</ele><time>2022-03-19T09:25:12Z</time><name>PT9</name></trkpt>
<trkpt lat="53.345531" lon="-1.816421"><ele>422</ele><time>2022-03-19T09:25:13Z</time><name>PT10</name></trkpt>
<trkpt lat="53.345523" lon="-1.816430"><ele>423</ele><time>2022-03-19T09:25:13Z</time><name>PT11</name></trkpt>
<trkpt lat="53.345513" lon="-1.816429"><ele>423</ele><time>2022-03-19T09:25:58Z</time><name>PT12</name></trkpt>
<trkpt lat="53.345513" lon="-1.816430"><ele>424</ele><time>2022-03-19T09:25:58Z</time><name>PT13</name></trkpt>
<trkpt lat="53.345513" lon="-1.816425"><ele>423</ele><time>2022-03-19T09:26:00Z</time><name>PT14</name></trkpt>
<trkpt lat="53.345513" lon="-1.816424"><ele>424</ele><time>2022-03-19T09:26:01Z</time><name>PT15</name></trkpt>
<trkpt lat="53.345510" lon="-1.816420"><ele>424</ele><time>2022-03-19T09:26:01Z</time><name>PT16</name></trkpt>
<trkpt lat="53.345504" lon="-1.816424"><ele>425</ele><time>2022-03-19T09:26:25Z</time><name>PT17</name></trkpt>
<trkpt lat="53.345500" lon="-1.816427"><ele>425</ele><time>2022-03-19T09:26:25Z</time><name>PT18</name></trkpt>
<trkpt lat="53.345499" lon="-1.816419"><ele>424</ele><time>2022-03-19T09:26:27Z</time><name>PT19</name></trkpt>
<trkpt lat="53.345496" lon="-1.816420"><ele>424</ele><time>2022-03-19T09:26:28Z</time><name>PT20</name></trkpt>
<trkpt lat="53.345495" lon="-1.816418"><ele>424</ele><time>2022-03-19T09:26:30Z</time><name>PT21</name></trkpt>
<trkpt lat="53.345492" lon="-1.816416"><ele>424</ele><time>2022-03-19T09:26:31Z</time><name>PT22</name></trkpt>
<trkpt lat="53.345496" lon="-1.816412"><ele>424</ele><time>2022-03-19T09:26:31Z</time><name>PT23</name></trkpt>
<trkpt lat="53.345494" lon="-1.816418"><ele>424</ele><time>2022-03-19T09:26:33Z</time><name>PT24</name></trkpt>
<trkpt lat="53.345502" lon="-1.816424"><ele>424</ele><time>2022-03-19T09:26:34Z</time><name>PT25</name></trkpt>
<trkpt lat="53.345504" lon="-1.816427"><ele>424</ele><time>2022-03-19T09:26:34Z</time><name>PT26</name></trkpt>
<trkpt lat="53.345518" lon="-1.816434"><ele>424</ele><time>2022-03-19T09:26:36Z</time><name>PT27</name></trkpt>
<trkpt lat="53.345522" lon="-1.816434"><ele>424</ele><time>2022-03-19T09:26:37Z</time><name>PT28</name></trkpt>
<trkpt lat="53.345528" lon="-1.816436"><ele>423</ele><time>2022-03-19T09:26:37Z</time><name>PT29</name></trkpt>
<trkpt lat="53.345530" lon="-1.816437"><ele>423</ele><time>2022-03-19T09:26:39Z</time><name>PT30</name></trkpt>
<trkpt lat="53.345535" lon="-1.816441"><ele>423</ele><time>2022-03-19T09:26:40Z</time><name>PT31</name></trkpt>
<trkpt lat="53.345533" lon="-1.816441"><ele>423</ele><time>2022-03-19T09:26:41Z</time><name>PT32</name></trkpt>
<trkpt lat="53.345531" lon="-1.816444"><ele>423</ele><time>2022-03-19T09:26:42Z</time><name>PT33</name></trkpt>
<trkpt lat="53.345532" lon="-1.816442"><ele>424</ele><time>2022-03-19T09:27:25Z</time><name>PT34</name></trkpt>
<trkpt lat="53.345544" lon="-1.816452"><ele>424</ele><time>2022-03-19T09:27:28Z</time><name>PT35</name></trkpt>
<trkpt lat="53.345537" lon="-1.816456"><ele>424</ele><time>2022-03-19T09:27:36Z</time><name>PT36</name></trkpt>
<trkpt lat="53.345518" lon="-1.816452"><ele>424</ele><time>2022-03-19T09:27:40Z</time><name>PT37</name></trkpt>
<trkpt lat="53.345520" lon="-1.816458"><ele>425</ele><time>2022-03-19T09:27:43Z</time><name>PT38</name></trkpt>
<trkpt lat="53.345524" lon="-1.816438"><ele>425</ele><time>2022-03-19T09:27:47Z</time><name>PT39</name></trkpt>
<trkpt lat="53.345517" lon="-1.816421"><ele>425</ele><time>2022-03-19T09:27:51Z</time><name>PT40</name></trkpt>
<trkpt lat="53.345506" lon="-1.816427"><ele>425</ele><time>2022-03-19T09:29:04Z</time><name>PT41</name></trkpt>
<trkpt lat="53.345515" lon="-1.816422"><ele>424</ele><time>2022-03-19T09:29:07Z</time><name>PT42</name></trkpt>
<trkpt lat="53.345524" lon="-1.816422"><ele>424</ele><time>2022-03-19T09:29:25Z</time><name>PT43</name></trkpt>
<trkpt lat="53.345521" lon="-1.816430"><ele>423</ele><time>2022-03-19T09:29:29Z</time><name>PT44</name></trkpt>
<trkpt lat="53.345527" lon="-1.816425"><ele>423</ele><time>2022-03-19T09:30:04Z</time><name>PT45</name></trkpt>
<trkpt lat="53.345533" lon="-1.816421"><ele>423</ele><time>2022-03-19T09:30:15Z</time><name>PT46</name></trkpt>
<trkpt lat="53.345534" lon="-1.816408"><ele>422</ele><time>2022-03-19T09:30:25Z</time><name>PT47</name></trkpt>
<trkpt lat="53.345532" lon="-1.816422"><ele>423</ele><time>2022-03-19T09:30:28Z</time><name>PT48</name></trkpt>
<trkpt lat="53.345535" lon="-1.816423"><ele>422</ele><time>2022-03-19T09:30:58Z</time><name>PT49</name></trkpt>
<trkpt lat="53.345535" lon="-1.816420"><ele>422</ele><time>2022-03-19T09:31:00Z</time><name>PT50</name></trkpt>
<trkpt lat="53.345536" lon="-1.816421"><ele>422</ele><time>2022-03-19T09:31:01Z</time><name>PT51</name></trkpt>
<trkpt lat="53.345540" lon="-1.816412"><ele>423</ele><time>2022-03-19T09:31:02Z</time><name>PT52</name></trkpt>
<trkpt lat="53.345543" lon="-1.816413"><ele>423</ele><time>2022-03-19T09:31:03Z</time><name>PT53</name></trkpt>
<trkpt lat="53.345546" lon="-1.816407"><ele>423</ele><time>2022-03-19T09:31:10Z</time><name>PT54</name></trkpt>
<trkpt lat="53.345552" lon="-1.816410"><ele>423</ele><time>2022-03-19T09:31:10Z</time><name>PT55</name></trkpt>
<trkpt lat="53.345556" lon="-1.816410"><ele>423</ele><time>2022-03-19T09:31:12Z</time><name>PT56</name></trkpt>
<trkpt lat="53.345557" lon="-1.816403"><ele>423</ele><time>2022-03-19T09:31:13Z</time><name>PT57</name></trkpt>
<trkpt lat="53.345548" lon="-1.816400"><ele>423</ele><time>2022-03-19T09:31:13Z</time><name>PT58</name></trkpt>
<trkpt lat="53.345551" lon="-1.816398"><ele>423</ele><time>2022-03-19T09:31:15Z</time><name>PT59</name></trkpt>
<trkpt lat="53.345555" lon="-1.816394"><ele>423</ele><time>2022-03-19T09:31:16Z</time><name>PT60</name></trkpt>
<trkpt lat="53.345560" lon="-1.816386"><ele>423</ele><time>2022-03-19T09:31:16Z</time><name>PT61</name></trkpt>
<trkpt lat="53.345553" lon="-1.816372"><ele>423</ele><time>2022-03-19T09:31:18Z</time><name>PT62</name></trkpt>
<trkpt lat="53.345540" lon="-1.816402"><ele>423</ele><time>2022-03-19T09:31:19Z</time><name>PT63</name></trkpt>
<trkpt lat="53.345539" lon="-1.816404"><ele>423</ele><time>2022-03-19T09:31:19Z</time><name>PT64</name></trkpt>
<trkpt lat="53.345547" lon="-1.816404"><ele>422</ele><time>2022-03-19T09:31:21Z</time><name>PT65</name></trkpt>
<trkpt lat="53.345547" lon="-1.816403"><ele>422</ele><time>2022-03-19T09:31:22Z</time><name>PT66</name></trkpt>
<trkpt lat="53.345551" lon="-1.816407"><ele>423</ele><time>2022-03-19T09:31:23Z</time><name>PT67</name></trkpt>
<trkpt lat="53.345555" lon="-1.816411"><ele>423</ele><time>2022-03-19T09:31:24Z</time><name>PT68</name></trkpt>
<trkpt lat="53.345559" lon="-1.816411"><ele>422</ele><time>2022-03-19T09:31:25Z</time><name>PT69</name></trkpt>
<trkpt lat="53.345563" lon="-1.816419"><ele>422</ele><time>2022-03-19T09:31:25Z</time><name>PT70</name></trkpt>
<trkpt lat="53.345574" lon="-1.816426"><ele>419</ele><time>2022-03-19T09:31:27Z</time><name>PT71</name></trkpt>
<trkpt lat="53.345577" lon="-1.816431"><ele>420</ele><time>2022-03-19T09:31:28Z</time><name>PT72</name></trkpt>
<trkpt lat="53.345584" lon="-1.816430"><ele>419</ele><time>2022-03-19T09:31:28Z</time><name>PT73</name></trkpt>
<trkpt lat="53.345578" lon="-1.816430"><ele>419</ele><time>2022-03-19T09:31:30Z</time><name>PT74</name></trkpt>
<trkpt lat="53.345577" lon="-1.816436"><ele>418</ele><time>2022-03-19T09:31:31Z</time><name>PT75</name></trkpt>
<trkpt lat="53.345578" lon="-1.816436"><ele>418</ele><time>2022-03-19T09:31:31Z</time><name>PT76</name></trkpt>
<trkpt lat="53.345580" lon="-1.816440"><ele>418</ele><time>2022-03-19T09:31:33Z</time><name>PT77</name></trkpt>
<trkpt lat="53.345579" lon="-1.816440"><ele>417</ele><time>2022-03-19T09:31:34Z</time><name>PT78</name></trkpt>
<trkpt lat="53.345580" lon="-1.816438"><ele>417</ele><time>2022-03-19T09:31:34Z</time><name>PT79</name></trkpt>
<trkpt lat="53.345579" lon="-1.816436"><ele>418</ele><time>2022-03-19T09:31:36Z</time><name>PT80</name></trkpt>
<trkpt lat="53.345578" lon="-1.816435"><ele>417</ele><time>2022-03-19T09:31:37Z</time><name>PT81</name></trkpt>
<trkpt lat="53.345579" lon="-1.816437"><ele>418</ele><time>2022-03-19T09:31:37Z</time><name>PT82</name></trkpt>
<trkpt lat="53.345571" lon="-1.816445"><ele>418</ele><time>2022-03-19T09:32:10Z</time><name>PT83</name></trkpt>
<trkpt lat="53.345567" lon="-1.816453"><ele>418</ele><time>2022-03-19T09:32:10Z</time><name>PT84</name></trkpt>
<trkpt lat="53.345561" lon="-1.816464"><ele>418</ele><time>2022-03-19T09:32:12Z</time><name>PT85</name></trkpt>
<trkpt lat="53.345558" lon="-1.816475"><ele>418</ele><time>2022-03-19T09:32:13Z</time><name>PT86</name></trkpt>
<trkpt lat="53.345552" lon="-1.816479"><ele>418</ele><time>2022-03-19T09:32:13Z</time><name>PT87</name></trkpt>
<trkpt lat="53.345548" lon="-1.816481"><ele>419</ele><time>2022-03-19T09:32:15Z</time><name>PT88</name></trkpt>
<trkpt lat="53.345547" lon="-1.816486"><ele>419</ele><time>2022-03-19T09:32:16Z</time><name>PT89</name></trkpt>
<trkpt lat="53.345551" lon="-1.816482"><ele>419</ele><time>2022-03-19T09:32:19Z</time><name>PT90</name></trkpt>
<trkpt lat="53.345558" lon="-1.816464"><ele>420</ele><time>2022-03-19T09:32:19Z</time><name>PT91</name></trkpt>
<trkpt lat="53.345574" lon="-1.816448"><ele>419</ele><time>2022-03-19T09:32:21Z</time><name>PT92</name></trkpt>
<trkpt lat="53.345580" lon="-1.816444"><ele>420</ele><time>2022-03-19T09:32:22Z</time><name>PT93</name></trkpt>
<trkpt lat="53.345579" lon="-1.816439"><ele>419</ele><time>2022-03-19T09:32:22Z</time><name>PT94</name></trkpt>
<trkpt lat="53.345575" lon="-1.816428"><ele>419</ele><time>2022-03-19T09:32:24Z</time><name>PT95</name></trkpt>
<trkpt lat="53.345575" lon="-1.816425"><ele>420</ele><time>2022-03-19T09:32:25Z</time><name>PT96</name></trkpt>
<trkpt lat="53.345578" lon="-1.816427"><ele>420</ele><time>2022-03-19T09:32:25Z</time><name>PT97</name></trkpt>
<trkpt lat="53.345566" lon="-1.816450"><ele>421</ele><time>2022-03-19T09:32:27Z</time><name>PT98</name></trkpt>
<trkpt lat="53.345558" lon="-1.816447"><ele>421</ele><time>2022-03-19T09:32:28Z</time><name>PT99</name></trkpt>
<trkpt lat="53.345557" lon="-1.816451"><ele>421</ele><time>2022-03-19T09:32:28Z</time><name>PT100</name></trkpt>
<trkpt lat="53.345555" lon="-1.816452"><ele>421</ele><time>2022-03-19T09:32:30Z</time><name>PT101</name></trkpt>
<trkpt lat="53.345533" lon="-1.816439"><ele>422</ele><time>2022-03-19T09:33:04Z</time><name>PT102</name></trkpt>
<trkpt lat="53.345528" lon="-1.816450"><ele>423</ele><time>2022-03-19T09:33:07Z</time><name>PT103</name></trkpt>
<trkpt lat="53.345528" lon="-1.816456"><ele>423</ele><time>2022-03-19T09:33:10Z</time><name>PT104</name></trkpt>
<trkpt lat="53.345541" lon="-1.816443"><ele>424</ele><time>2022-03-19T09:33:15Z</time><name>PT105</name></trkpt>
<trkpt lat="53.345538" lon="-1.816455"><ele>424</ele><time>2022-03-19T09:33:18Z</time><name>PT106</name></trkpt>
<trkpt lat="53.345536" lon="-1.816461"><ele>425</ele><time>2022-03-19T09:33:55Z</time><name>PT107</name></trkpt>
<trkpt lat="53.345535" lon="-1.816462"><ele>425</ele><time>2022-03-19T09:34:00Z</time><name>PT108</name></trkpt>
<trkpt lat="53.345538" lon="-1.816462"><ele>424</ele><time>2022-03-19T09:34:19Z</time><name>PT109</name></trkpt>
<trkpt lat="53.345527" lon="-1.816459"><ele>424</ele><time>2022-03-19T09:34:22Z</time><name>PT110</name></trkpt>
<trkpt lat="53.345527" lon="-1.816459"><ele>424</ele><time>2022-03-19T09:34:25Z</time><name>PT111</name></trkpt>
<trkpt lat="53.345529" lon="-1.816450"><ele>424</ele><time>2022-03-19T09:34:40Z</time><name>PT112</name></trkpt>
<trkpt lat="53.345533" lon="-1.816446"><ele>423</ele><time>2022-03-19T09:34:43Z</time><name>PT113</name></trkpt>
<trkpt lat="53.345543" lon="-1.816466"><ele>423</ele><time>2022-03-19T09:34:46Z</time><name>PT114</name></trkpt>
<trkpt lat="53.345546" lon="-1.816452"><ele>424</ele><time>2022-03-19T09:34:57Z</time><name>PT115</name></trkpt>
<trkpt lat="53.345543" lon="-1.816447"><ele>424</ele><time>2022-03-19T09:35:25Z</time><name>PT116</name></trkpt>
<trkpt lat="53.345537" lon="-1.816450"><ele>424</ele><time>2022-03-19T09:35:28Z</time><name>PT117</name></trkpt>
<trkpt lat="53.345540" lon="-1.816439"><ele>425</ele><time>2022-03-19T09:35:36Z</time><name>PT118</name></trkpt>
<trkpt lat="53.345541" lon="-1.816429"><ele>424</ele><time>2022-03-19T09:35:40Z</time><name>PT119</name></trkpt>
<trkpt lat="53.345542" lon="-1.816420"><ele>425</ele><time>2022-03-19T09:35:47Z</time><name>PT120</name></trkpt>
<trkpt lat="53.345541" lon="-1.816422"><ele>425</ele><time>2022-03-19T09:35:51Z</time><name>PT121</name></trkpt>
<trkpt lat="53.345542" lon="-1.816413"><ele>424</ele><time>2022-03-19T09:36:22Z</time><name>PT122</name></trkpt>
<trkpt lat="53.345539" lon="-1.816419"><ele>424</ele><time>2022-03-19T09:36:42Z</time><name>PT123</name></trkpt>
<trkpt lat="53.345544" lon="-1.816437"><ele>422</ele><time>2022-03-19T09:36:45Z</time><name>PT124</name></trkpt>
<trkpt lat="53.345553" lon="-1.816448"><ele>423</ele><time>2022-03-19T09:36:49Z</time><name>PT125</name></trkpt>
<trkpt lat="53.345555" lon="-1.816449"><ele>423</ele><time>2022-03-19T09:37:00Z</time><name>PT126</name></trkpt>
<trkpt lat="53.345555" lon="-1.816447"><ele>423</ele><time>2022-03-19T09:37:01Z</time><name>PT127</name></trkpt>
<trkpt lat="53.345555" lon="-1.816444"><ele>423</ele><time>2022-03-19T09:37:01Z</time><name>PT128</name></trkpt>
<trkpt lat="53.345556" lon="-1.816444"><ele>423</ele><time>2022-03-19T09:37:03Z</time><name>PT129</name></trkpt>
<trkpt lat="53.345553" lon="-1.816442"><ele>423</ele><time>2022-03-19T09:39:00Z</time><name>PT130</name></trkpt>
<trkpt lat="53.345553" lon="-1.816447"><ele>423</ele><time>2022-03-19T09:39:01Z</time><name>PT131</name></trkpt>
<trkpt lat="53.345548" lon="-1.816451"><ele>423</ele><time>2022-03-19T09:39:01Z</time><name>PT132</name></trkpt>
<trkpt lat="53.345544" lon="-1.816454"><ele>423</ele><time>2022-03-19T09:39:03Z</time><name>PT133</name></trkpt>
<trkpt lat="53.345540" lon="-1.816454"><ele>423</ele><time>2022-03-19T09:39:04Z</time><name>PT134</name></trkpt>
<trkpt lat="53.345536" lon="-1.816453"><ele>423</ele><time>2022-03-19T09:39:04Z</time><name>PT135</name></trkpt>
<trkpt lat="53.345536" lon="-1.816451"><ele>423</ele><time>2022-03-19T09:39:06Z</time><name>PT136</name></trkpt>
<trkpt lat="53.345531" lon="-1.816451"><ele>424</ele><time>2022-03-19T09:39:16Z</time><name>PT137</name></trkpt>
<trkpt lat="53.345529" lon="-1.816449"><ele>424</ele><time>2022-03-19T09:39:18Z</time><name>PT138</name></trkpt>
<trkpt lat="53.345530" lon="-1.816447"><ele>424</ele><time>2022-03-19T09:39:19Z</time><name>PT139</name></trkpt>
<trkpt lat="53.345529" lon="-1.816449"><ele>423</ele><time>2022-03-19T09:39:19Z</time><name>PT140</name></trkpt>
<trkpt lat="53.345531" lon="-1.816446"><ele>424</ele><time>2022-03-19T09:39:34Z</time><name>PT141</name></trkpt>
<trkpt lat="53.345524" lon="-1.816450"><ele>424</ele><time>2022-03-19T09:39:34Z</time><name>PT142</name></trkpt>
<trkpt lat="53.345527" lon="-1.816442"><ele>424</ele><time>2022-03-19T09:39:39Z</time><name>PT143</name></trkpt>
<trkpt lat="53.345531" lon="-1.816430"><ele>424</ele><time>2022-03-19T09:39:40Z</time><name>PT144</name></trkpt>
<trkpt lat="53.345535" lon="-1.816415"><ele>423</ele><time>2022-03-19T09:39:40Z</time><name>PT145</name></trkpt>
<trkpt lat="53.345543" lon="-1.816404"><ele>423</ele><time>2022-03-19T09:39:42Z</time><name>PT146</name></trkpt>
<trkpt lat="53.345549" lon="-1.816395"><ele>423</ele><time>2022-03-19T09:39:43Z</time><name>PT147</name></trkpt>
<trkpt lat="53.345547" lon="-1.816384"><ele>422</ele><time>2022-03-19T09:39:43Z</time><name>PT148</name></trkpt>
<trkpt lat="53.345551" lon="-1.816366"><ele>422</ele><time>2022-03-19T09:39:45Z</time><name>PT149</name></trkpt>
<trkpt lat="53.345553" lon="-1.816353"><ele>422</ele><time>2022-03-19T09:39:46Z</time><name>PT150</name></trkpt>
<trkpt lat="53.345553" lon="-1.816334"><ele>422</ele><time>2022-03-19T09:39:46Z</time><name>PT151</name></trkpt>
<trkpt lat="53.345557" lon="-1.816327"><ele>421</ele><time>2022-03-19T09:39:48Z</time><name>PT152</name></trkpt>
<trkpt lat="53.345557" lon="-1.816312"><ele>422</ele><time>2022-03-19T09:39:49Z</time><name>PT153</name></trkpt>
<trkpt lat="53.345560" lon="-1.816302"><ele>421</ele><time>2022-03-19T09:39:49Z</time><name>PT154</name></trkpt>
<trkpt lat="53.345562" lon="-1.816289"><ele>420</ele><time>2022-03-19T09:39:51Z</time><name>PT155</name></trkpt>
<trkpt lat="53.345562" lon="-1.816269"><ele>421</ele><time>2022-03-19T09:39:52Z</time><name>PT156</name></trkpt>
<trkpt lat="53.345564" lon="-1.816256"><ele>420</ele><time>2022-03-19T09:39:52Z</time><name>PT157</name></trkpt>
<trkpt lat="53.345563" lon="-1.816239"><ele>420</ele><time>2022-03-19T09:39:54Z</time><name>PT158</name></trkpt>
<trkpt lat="53.345565" lon="-1.816229"><ele>419</ele><time>2022-03-19T09:39:55Z</time><name>PT159</name></trkpt>
<trkpt lat="53.345562" lon="-1.816211"><ele>419</ele><time>2022-03-19T09:39:55Z</time><name>PT160</name></trkpt>
<trkpt lat="53.345564" lon="-1.816193"><ele>420</ele><time>2022-03-19T09:39:57Z</time><name>PT161</name></trkpt>
<trkpt lat="53.345561" lon="-1.816161"><ele>421</ele><time>2022-03-19T09:39:58Z</time><name>PT162</name></trkpt>
<trkpt lat="53.345558" lon="-1.816140"><ele>421</ele><time>2022-03-19T09:39:58Z</time><name>PT163</name></trkpt>
<trkpt lat="53.345555" lon="-1.816121"><ele>421</ele><time>2022-03-19T09:40:00Z</time><name>PT164</name></trkpt>
<trkpt lat="53.345553" lon="-1.816105"><ele>421</ele><time>2022-03-19T09:40:01Z</time><name>PT165</name></trkpt>
<trkpt lat="53.345551" lon="-1.816084"><ele>421</ele><time>2022-03-19T09:40:01Z</time><name>PT166</name></trkpt>
<trkpt lat="53.345553" lon="-1.816071"><ele>420</ele><time>2022-03-19T09:40:03Z</time><name>PT167</name></trkpt>
<trkpt lat="53.345554" lon="-1.816058"><ele>420</ele><time>2022-03-19T09:40:04Z</time><name>PT168</name></trkpt>
<trkpt lat="53.345561" lon="-1.816053"><ele>419</ele><time>2022-03-19T09:40:05Z</time><name>PT169</name></trkpt>
<trkpt lat="53.345563" lon="-1.816034"><ele>419</ele><time>2022-03-19T09:40:06Z</time><name>PT170</name></trkpt>
<trkpt lat="53.345569" lon="-1.816022"><ele>418</ele><time>2022-03-19T09:40:07Z</time><name>PT171</name></trkpt>
<trkpt lat="53.345574" lon="-1.816007"><ele>418</ele><time>2022-03-19T09:40:07Z</time><name>PT172</name></trkpt>
<trkpt lat="53.345580" lon="-1.815995"><ele>417</ele><time>2022-03-19T09:40:09Z</time><name>PT173</name></trkpt>
<trkpt lat="53.345585" lon="-1.815983"><ele>416</ele><time>2022-03-19T09:40:10Z</time><name>PT174</name></trkpt>
<trkpt lat="53.345590" lon="-1.815968"><ele>416</ele><time>2022-03-19T09:40:10Z</time><name>PT175</name></trkpt>
<trkpt lat="53.345597" lon="-1.815953"><ele>416</ele><time>2022-03-19T09:40:12Z</time><name>PT176</name></trkpt>
<trkpt lat="53.345600" lon="-1.815940"><ele>416</ele><time>2022-03-19T09:40:13Z</time><name>PT177</name></trkpt>
<trkpt lat="53.345612" lon="-1.815938"><ele>415</ele><time>2022-03-19T09:40:13Z</time><name>PT178</name></trkpt>
<trkpt lat="53.345625" lon="-1.815933"><ele>415</ele><time>2022-03-19T09:40:15Z</time><name>PT179</name></trkpt>
<trkpt lat="53.345637" lon="-1.815934"><ele>415</ele><time>2022-03-19T09:40:16Z</time><name>PT180</name></trkpt>
<trkpt lat="53.345644" lon="-1.815916"><ele>416</ele><time>2022-03-19T09:40:16Z</time><name>PT181</name></trkpt>
<trkpt lat="53.345639" lon="-1.815866"><ele>415</ele><time>2022-03-19T09:40:21Z</time><name>PT182</name></trkpt>
<trkpt lat="53.345673" lon="-1.815852"><ele>414</ele><time>2022-03-19T09:40:25Z</time><name>PT183</name></trkpt>
<trkpt lat="53.345678" lon="-1.815811"><ele>417</ele><time>2022-03-19T09:40:28Z</time><name>PT184</name></trkpt>
<trkpt lat="53.345733" lon="-1.815820"><ele>415</ele><time>2022-03-19T09:40:31Z</time><name>PT185</name></trkpt>
<trkpt lat="53.345763" lon="-1.815810"><ele>413</ele><time>2022-03-19T09:40:34Z</time><name>PT186</name></trkpt>
<trkpt lat="53.345796" lon="-1.815802"><ele>413</ele><time>2022-03-19T09:40:37Z</time><name>PT187</name></trkpt>
<trkpt lat="53.345824" lon="-1.815777"><ele>412</ele><time>2022-03-19T09:40:41Z</time><name>PT188</name></trkpt>
<trkpt lat="53.345871" lon="-1.815763"><ele>411</ele><time>2022-03-19T09:40:45Z</time><name>PT189</name></trkpt>
<trkpt lat="53.345901" lon="-1.815737"><ele>412</ele><time>2022-03-19T09:40:48Z</time><name>PT190</name></trkpt>
<trkpt lat="53.345940" lon="-1.815658"><ele>416</ele><time>2022-03-19T09:40:52Z</time><name>PT191</name></trkpt>
<trkpt lat="53.345980" lon="-1.815641"><ele>418</ele><time>2022-03-19T09:40:55Z</time><name>PT192</name></trkpt>
<trkpt lat="53.346005" lon="-1.815560"><ele>424</ele><time>2022-03-19T09:40:58Z</time><name>PT193</name></trkpt>
<trkpt lat="53.346031" lon="-1.815556"><ele>425</ele><time>2022-03-19T09:41:03Z</time><name>PT194</name></trkpt>
<trkpt lat="53.346063" lon="-1.815555"><ele>425</ele><time>2022-03-19T09:41:06Z</time><name>PT195</name></trkpt>
<trkpt lat="53.346074" lon="-1.815508"><ele>428</ele><time>2022-03-19T09:41:10Z</time><name>PT196</name></trkpt>
<trkpt lat="53.346090" lon="-1.815484"><ele>428</ele><time>2022-03-19T09:41:13Z</time><name>PT197</name></trkpt>
<trkpt lat="53.346130" lon="-1.815481"><ele>427</ele><time>2022-03-19T09:41:16Z</time><name>PT198</name></trkpt>
<trkpt lat="53.346154" lon="-1.815455"><ele>428</ele><time>2022-03-19T09:41:21Z</time><name>PT199</name></trkpt>
<trkpt lat="53.346191" lon="-1.815434"><ele>427</ele><time>2022-03-19T09:41:25Z</time><name>PT200</name></trkpt>
<trkpt lat="53.346213" lon="-1.815424"><ele>427</ele><time>2022-03-19T09:41:28Z</time><name>PT201</name></trkpt>
<trkpt lat="53.346238" lon="-1.815420"><ele>428</ele><time>2022-03-19T09:41:31Z</time><name>PT202</name></trkpt>
<trkpt lat="53.346279" lon="-1.815392"><ele>431</ele><time>2022-03-19T09:41:35Z</time><name>PT203</name></trkpt>
<trkpt lat="53.346306" lon="-1.815354"><ele>433</ele><time>2022-03-19T09:41:39Z</time><name>PT204</name></trkpt>
<trkpt lat="53.346333" lon="-1.815312"><ele>437</ele><time>2022-03-19T09:41:43Z</time><name>PT205</name></trkpt>
<trkpt lat="53.346354" lon="-1.815317"><ele>436</ele><time>2022-03-19T09:41:46Z</time><name>PT206</name></trkpt>
<trkpt lat="53.346360" lon="-1.815297"><ele>437</ele><time>2022-03-19T09:41:49Z</time><name>PT207</name></trkpt>
<trkpt lat="53.346391" lon="-1.815297"><ele>438</ele><time>2022-03-19T09:41:54Z</time><name>PT208</name></trkpt>
<trkpt lat="53.346427" lon="-1.815301"><ele>438</ele><time>2022-03-19T09:41:57Z</time><name>PT209</name></trkpt>
<trkpt lat="53.346472" lon="-1.815315"><ele>440</ele><time>2022-03-19T09:42:00Z</time><name>PT210</name></trkpt>
<trkpt lat="53.346510" lon="-1.815324"><ele>439</ele><time>2022-03-19T09:42:04Z</time><name>PT211</name></trkpt>
<trkpt lat="53.346561" lon="-1.815290"><ele>438</ele><time>2022-03-19T09:42:07Z</time><name>PT212</name></trkpt>
<trkpt lat="53.346586" lon="-1.815275"><ele>438</ele><time>2022-03-19T09:42:10Z</time><name>PT213</name></trkpt>
<trkpt lat="53.346628" lon="-1.815265"><ele>437</ele><time>2022-03-19T09:42:13Z</time><name>PT214</name></trkpt>
<trkpt lat="53.346658" lon="-1.815237"><ele>437</ele><time>2022-03-19T09:42:16Z</time><name>PT215</name></trkpt>
<trkpt lat="53.346680" lon="-1.815213"><ele>439</ele><time>2022-03-19T09:42:21Z</time><name>PT216</name></trkpt>
<trkpt lat="53.346705" lon="-1.815211"><ele>441</ele><time>2022-03-19T09:42:25Z</time><name>PT217</name></trkpt>
<trkpt lat="53.346735" lon="-1.815188"><ele>440</ele><time>2022-03-19T09:42:28Z</time><name>PT218</name></trkpt>
<trkpt lat="53.346753" lon="-1.815134"><ele>440</ele><time>2022-03-19T09:42:33Z</time><name>PT219</name></trkpt>
<trkpt lat="53.346760" lon="-1.815097"><ele>439</ele><time>2022-03-19T09:42:36Z</time><name>PT220</name></trkpt>
<trkpt lat="53.346774" lon="-1.815073"><ele>439</ele><time>2022-03-19T09:42:39Z</time><name>PT221</name></trkpt>
<trkpt lat="53.346796" lon="-1.815021"><ele>439</ele><time>2022-03-19T09:42:43Z</time><name>PT222</name></trkpt>
<trkpt lat="53.346808" lon="-1.814978"><ele>438</ele><time>2022-03-19T09:42:46Z</time><name>PT223</name></trkpt>
<trkpt lat="53.346816" lon="-1.814915"><ele>439</ele><time>2022-03-19T09:42:49Z</time><name>PT224</name></trkpt>
<trkpt lat="53.346827" lon="-1.814892"><ele>437</ele><time>2022-03-19T09:42:54Z</time><name>PT225</name></trkpt>
<trkpt lat="53.346834" lon="-1.814854"><ele>435</ele><time>2022-03-19T09:42:57Z</time><name>PT226</name></trkpt>
<trkpt lat="53.346848" lon="-1.814766"><ele>437</ele><time>2022-03-19T09:43:01Z</time><name>PT227</name></trkpt>
<trkpt lat="53.346856" lon="-1.814716"><ele>437</ele><time>2022-03-19T09:43:04Z</time><name>PT228</name></trkpt>
<trkpt lat="53.346866" lon="-1.814666"><ele>438</ele><time>2022-03-19T09:43:07Z</time><name>PT229</name></trkpt>
<trkpt lat="53.346885" lon="-1.814591"><ele>440</ele><time>2022-03-19T09:43:10Z</time><name>PT230</name></trkpt>
<trkpt lat="53.346899" lon="-1.814546"><ele>441</ele><time>2022-03-19T09:43:13Z</time><name>PT231</name></trkpt>
<trkpt lat="53.346907" lon="-1.814509"><ele>442</ele><time>2022-03-19T09:43:16Z</time><name>PT232</name></trkpt>
<trkpt lat="53.346918" lon="-1.814486"><ele>443</ele><time>2022-03-19T09:43:19Z</time><name>PT233</name></trkpt>
<trkpt lat="53.346934" lon="-1.814463"><ele>444</ele><time>2022-03-19T09:43:24Z</time><name>PT234</name></trkpt>
<trkpt lat="53.346957" lon="-1.814417"><ele>444</ele><time>2022-03-19T09:43:28Z</time><name>PT235</name></trkpt>
<trkpt lat="53.346973" lon="-1.814374"><ele>445</ele><time>2022-03-19T09:43:31Z</time><name>PT236</name></trkpt>
<trkpt lat="53.346993" lon="-1.814319"><ele>445</ele><time>2022-03-19T09:43:34Z</time><name>PT237</name></trkpt>
<trkpt lat="53.347007" lon="-1.814272"><ele>445</ele><time>2022-03-19T09:43:37Z</time><name>PT238</name></trkpt>
<trkpt lat="53.347020" lon="-1.814231"><ele>445</ele><time>2022-03-19T09:43:41Z</time><name>PT239</name></trkpt>
<trkpt lat="53.347042" lon="-1.814178"><ele>446</ele><time>2022-03-19T09:43:45Z</time><name>PT240</name></trkpt>
<trkpt lat="53.347053" lon="-1.814109"><ele>446</ele><time>2022-03-19T09:43:49Z</time><name>PT241</name></trkpt>
<trkpt lat="53.347083" lon="-1.814053"><ele>447</ele><time>2022-03-19T09:43:52Z</time><name>PT242</name></trkpt>
<trkpt lat="53.347107" lon="-1.813997"><ele>447</ele><time>2022-03-19T09:43:57Z</time><name>PT243</name></trkpt>
<trkpt lat="53.347123" lon="-1.813968"><ele>447</ele><time>2022-03-19T09:44:00Z</time><name>PT244</name></trkpt>
<trkpt lat="53.347145" lon="-1.813936"><ele>448</ele><time>2022-03-19T09:44:04Z</time><name>PT245</name></trkpt>
<trkpt lat="53.347159" lon="-1.813910"><ele>448</ele><time>2022-03-19T09:44:07Z</time><name>PT246</name></trkpt>
<trkpt lat="53.347177" lon="-1.813872"><ele>450</ele><time>2022-03-19T09:44:10Z</time><name>PT247</name></trkpt>
<trkpt lat="53.347196" lon="-1.813826"><ele>452</ele><time>2022-03-19T09:44:13Z</time><name>PT248</name></trkpt>
<trkpt lat="53.347215" lon="-1.813796"><ele>452</ele><time>2022-03-19T09:44:16Z</time><name>PT249</name></trkpt>
<trkpt lat="53.347237" lon="-1.813761"><ele>453</ele><time>2022-03-19T09:44:19Z</time><name>PT250</name></trkpt>
<trkpt lat="53.347258" lon="-1.813730"><ele>452</ele><time>2022-03-19T09:44:24Z</time><name>PT251</name></trkpt>
<trkpt lat="53.347275" lon="-1.813725"><ele>452</ele><time>2022-03-19T09:44:27Z</time><name>PT252</name></trkpt>
<trkpt lat="53.347288" lon="-1.813695"><ele>454</ele><time>2022-03-19T09:44:31Z</time><name>PT253</name></trkpt>
<trkpt lat="53.347290" lon="-1.813690"><ele>454</ele><time>2022-03-19T09:44:34Z</time><name>PT254</name></trkpt>
<trkpt lat="53.347311" lon="-1.813673"><ele>455</ele><time>2022-03-19T09:44:41Z</time><name>PT255</name></trkpt>
<trkpt lat="53.347350" lon="-1.813675"><ele>455</ele><time>2022-03-19T09:44:45Z</time><name>PT256</name></trkpt>
<trkpt lat="53.347379" lon="-1.813654"><ele>456</ele><time>2022-03-19T09:44:49Z</time><name>PT257</name></trkpt>
<trkpt lat="53.347410" lon="-1.813646"><ele>458</ele><time>2022-03-19T09:44:52Z</time><name>PT258</name></trkpt>
<trkpt lat="53.347438" lon="-1.813625"><ele>459</ele><time>2022-03-19T09:44:55Z</time><name>PT259</name></trkpt>
<trkpt lat="53.347459" lon="-1.813614"><ele>460</ele><time>2022-03-19T09:44:59Z</time><name>PT260</name></trkpt>
<trkpt lat="53.347481" lon="-1.813599"><ele>461</ele><time>2022-03-19T09:45:02Z</time><name>PT261</name></trkpt>
<trkpt lat="53.347510" lon="-1.813578"><ele>462</ele><time>2022-03-19T09:45:06Z</time><name>PT262</name></trkpt>
<trkpt lat="53.347523" lon="-1.813564"><ele>462</ele><time>2022-03-19T09:45:09Z</time><name>PT263</name></trkpt>
<trkpt lat="53.347541" lon="-1.813565"><ele>462</ele><time>2022-03-19T09:45:12Z</time><name>PT264</name></trkpt>
<trkpt lat="53.347573" lon="-1.813573"><ele>462</ele><time>2022-03-19T09:45:15Z</time><name>PT265</name></trkpt>
<trkpt lat="53.347599" lon="-1.813568"><ele>462</ele><time>2022-03-19T09:45:18Z</time><name>PT266</name></trkpt>
<trkpt lat="53.347619" lon="-1.813562"><ele>462</ele><time>2022-03-19T09:45:22Z</time><name>PT267</name></trkpt>
<trkpt lat="53.347631" lon="-1.813547"><ele>463</ele><time>2022-03-19T09:45:29Z</time><name>PT268</name></trkpt>
<trkpt lat="53.347665" lon="-1.813525"><ele>463</ele><time>2022-03-19T09:45:33Z</time><name>PT269</name></trkpt>
<trkpt lat="53.347682" lon="-1.813506"><ele>463</ele><time>2022-03-19T09:45:36Z</time><name>PT270</name></trkpt>
<trkpt lat="53.347708" lon="-1.813476"><ele>463</ele><time>2022-03-19T09:45:40Z</time><name>PT271</name></trkpt>
<trkpt lat="53.347715" lon="-1.813441"><ele>465</ele><time>2022-03-19T09:45:43Z</time><name>PT272</name></trkpt>
<trkpt lat="53.347728" lon="-1.813393"><ele>466</ele><time>2022-03-19T09:45:47Z</time><name>PT273</name></trkpt>
<trkpt lat="53.347741" lon="-1.813355"><ele>468</ele><time>2022-03-19T09:45:51Z</time><name>PT274</name></trkpt>
<trkpt lat="53.347744" lon="-1.813319"><ele>469</ele><time>2022-03-19T09:45:54Z</time><name>PT275</name></trkpt>
<trkpt lat="53.347752" lon="-1.813277"><ele>469</ele><time>2022-03-19T09:45:58Z</time><name>PT276</name></trkpt>
<trkpt lat="53.347761" lon="-1.813234"><ele>469</ele><time>2022-03-19T09:46:01Z</time><name>PT277</name></trkpt>
<trkpt lat="53.347775" lon="-1.813201"><ele>470</ele><time>2022-03-19T09:46:04Z</time><name>PT278</name></trkpt>
<trkpt lat="53.347787" lon="-1.813163"><ele>471</ele><time>2022-03-19T09:46:07Z</time><name>PT279</name></trkpt>
<trkpt lat="53.347804" lon="-1.813133"><ele>471</ele><time>2022-03-19T09:46:12Z</time><name>PT280</name></trkpt>
<trkpt lat="53.347816" lon="-1.813105"><ele>472</ele><time>2022-03-19T09:46:21Z</time><name>PT281</name></trkpt>
<trkpt lat="53.347847" lon="-1.813055"><ele>474</ele><time>2022-03-19T09:46:25Z</time><name>PT282</name></trkpt>
<trkpt lat="53.347868" lon="-1.813022"><ele>475</ele><time>2022-03-19T09:46:28Z</time><name>PT283</name></trkpt>
<trkpt lat="53.347901" lon="-1.812987"><ele>476</ele><time>2022-03-19T09:46:31Z</time><name>PT284</name></trkpt>
<trkpt lat="53.347926" lon="-1.812958"><ele>476</ele><time>2022-03-19T09:46:35Z</time><name>PT285</name></trkpt>
<trkpt lat="53.347948" lon="-1.812931"><ele>477</ele><time>2022-03-19T09:46:38Z</time><name>PT286</name></trkpt>
<trkpt lat="53.347972" lon="-1.812878"><ele>478</ele><time>2022-03-19T09:46:42Z</time><name>PT287</name></trkpt>
<trkpt lat="53.347997" lon="-1.812833"><ele>481</ele><time>2022-03-19T09:46:46Z</time><name>PT288</name></trkpt>
<trkpt lat="53.348021" lon="-1.812800"><ele>482</ele><time>2022-03-19T09:46:50Z</time><name>PT289</name></trkpt>
<trkpt lat="53.348038" lon="-1.812778"><ele>482</ele><time>2022-03-19T09:46:53Z</time><name>PT290</name></trkpt>
<trkpt lat="53.348061" lon="-1.812745"><ele>483</ele><time>2022-03-19T09:46:57Z</time><name>PT291</name></trkpt>
<trkpt lat="53.348085" lon="-1.812709"><ele>484</ele><time>2022-03-19T09:47:01Z</time><name>PT292</name></trkpt>
<trkpt lat="53.348103" lon="-1.812682"><ele>485</ele><time>2022-03-19T09:47:04Z</time><name>PT293</name></trkpt>
<trkpt lat="53.348119" lon="-1.812649"><ele>487</ele><time>2022-03-19T09:47:08Z</time><name>PT294</name></trkpt>
<trkpt lat="53.348132" lon="-1.812619"><ele>487</ele><time>2022-03-19T09:47:11Z</time><name>PT295</name></trkpt>
<trkpt lat="53.348149" lon="-1.812580"><ele>488</ele><time>2022-03-19T09:47:15Z</time><name>PT296</name></trkpt>
<trkpt lat="53.348158" lon="-1.812544"><ele>488</ele><time>2022-03-19T09:47:18Z</time><name>PT297</name></trkpt>
<trkpt lat="53.348168" lon="-1.812513"><ele>489</ele><time>2022-03-19T09:47:21Z</time><name>PT298</name></trkpt>
<trkpt lat="53.348188" lon="-1.812493"><ele>490</ele><time>2022-03-19T09:47:24Z</time><name>PT299</name></trkpt>
<trkpt lat="53.348202" lon="-1.812449"><ele>491</ele><time>2022-03-19T09:47:28Z</time><name>PT300</name></trkpt>
<trkpt lat="53.348216" lon="-1.812418"><ele>491</ele><time>2022-03-19T09:47:31Z</time><name>PT301</name></trkpt>
<trkpt lat="53.348234" lon="-1.812382"><ele>493</ele><time>2022-03-19T09:47:34Z</time><name>PT302</name></trkpt>
<trkpt lat="53.348236" lon="-1.812372"><ele>493</ele><time>2022-03-19T09:47:35Z</time><name>PT303</name></trkpt>
<trkpt lat="53.348237" lon="-1.812364"><ele>493</ele><time>2022-03-19T09:47:36Z</time><name>PT304</name></trkpt>
<trkpt lat="53.348242" lon="-1.812354"><ele>493</ele><time>2022-03-19T09:47:37Z</time><name>PT305</name></trkpt>
<trkpt lat="53.348242" lon="-1.812347"><ele>493</ele><time>2022-03-19T09:47:38Z</time><name>PT306</name></trkpt>
<trkpt lat="53.348245" lon="-1.812337"><ele>493</ele><time>2022-03-19T09:47:39Z</time><name>PT307</name></trkpt>
<trkpt lat="53.348246" lon="-1.812327"><ele>493</ele><time>2022-03-19T09:47:40Z</time><name>PT308</name></trkpt>
<trkpt lat="53.348248" lon="-1.812320"><ele>493</ele><time>2022-03-19T09:47:41Z</time><name>PT309</name></trkpt>
<trkpt lat="53.348251" lon="-1.812310"><ele>493</ele><time>2022-03-19T09:47:42Z</time><name>PT310</name></trkpt>
<trkpt lat="53.348256" lon="-1.812298"><ele>494</ele><time>2022-03-19T09:47:43Z</time><name>PT311</name></trkpt>
<trkpt lat="53.348260" lon="-1.812289"><ele>494</ele><time>2022-03-19T09:47:44Z</time><name>PT312</name></trkpt>
<trkpt lat="53.348264" lon="-1.812278"><ele>494</ele><time>2022-03-19T09:47:45Z</time><name>PT313</name></trkpt>
<trkpt lat="53.348269" lon="-1.812270"><ele>494</ele><time>2022-03-19T09:47:46Z</time><name>PT314</name></trkpt>
<trkpt lat="53.348273" lon="-1.812265"><ele>494</ele><time>2022-03-19T09:47:47Z</time><name>PT315</name></trkpt>
<trkpt lat="53.348277" lon="-1.812255"><ele>494</ele><time>2022-03-19T09:47:48Z</time><name>PT316</name></trkpt>
<trkpt lat="53.348279" lon="-1.812242"><ele>494</ele><time>2022-03-19T09:47:49Z</time><name>PT317</name></trkpt>
<trkpt lat="53.348280" lon="-1.812230"><ele>494</ele><time>2022-03-19T09:47:49Z</time><name>PT318</name></trkpt>
<trkpt lat="53.348282" lon="-1.812217"><ele>494</ele><time>2022-03-19T09:47:51Z</time><name>PT319</name></trkpt>
<trkpt lat="53.348286" lon="-1.812206"><ele>494</ele><time>2022-03-19T09:47:52Z</time><name>PT320</name></trkpt>
<trkpt lat="53.348289" lon="-1.812197"><ele>495</ele><time>2022-03-19T09:47:53Z</time><name>PT321</name></trkpt>
<trkpt lat="53.348293" lon="-1.812187"><ele>495</ele><time>2022-03-19T09:47:54Z</time><name>PT322</name></trkpt>
<trkpt lat="53.348299" lon="-1.812179"><ele>495</ele><time>2022-03-19T09:47:55Z</time><name>PT323</name></trkpt>
<trkpt lat="53.348303" lon="-1.812170"><ele>495</ele><time>2022-03-19T09:47:55Z</time><name>PT324</name></trkpt>
<trkpt lat="53.348307" lon="-1.812163"><ele>495</ele><time>2022-03-19T09:47:57Z</time><name>PT325</name></trkpt>
<trkpt lat="53.348311" lon="-1.812154"><ele>495</ele><time>2022-03-19T09:47:58Z</time><name>PT326</name></trkpt>
<trkpt lat="53.348314" lon="-1.812144"><ele>495</ele><time>2022-03-19T09:47:59Z</time><name>PT327</name></trkpt>
<trkpt lat="53.348318" lon="-1.812133"><ele>496</ele><time>2022-03-19T09:48:00Z</time><name>PT328</name></trkpt>
<trkpt lat="53.348322" lon="-1.812122"><ele>496</ele><time>2022-03-19T09:48:01Z</time><name>PT329</name></trkpt>
<trkpt lat="53.348326" lon="-1.812113"><ele>496</ele><time>2022-03-19T09:48:02Z</time><name>PT330</name></trkpt>
<trkpt lat="53.348330" lon="-1.812104"><ele>496</ele><time>2022-03-19T09:48:03Z</time><name>PT331</name></trkpt>
<trkpt lat="53.348336" lon="-1.812094"><ele>496</ele><time>2022-03-19T09:48:04Z</time><name>PT332</name></trkpt>
<trkpt lat="53.348341" lon="-1.812081"><ele>497</ele><time>2022-03-19T09:48:05Z</time><name>PT333</name></trkpt>
<trkpt lat="53.348344" lon="-1.812071"><ele>497</ele><time>2022-03-19T09:48:06Z</time><name>PT334</name></trkpt>
<trkpt lat="53.348345" lon="-1.812054"><ele>497</ele><time>2022-03-19T09:48:07Z</time><name>PT335</name></trkpt>
<trkpt lat="53.348348" lon="-1.812043"><ele>497</ele><time>2022-03-19T09:48:08Z</time><name>PT336</name></trkpt>
<trkpt lat="53.348350" lon="-1.812031"><ele>497</ele><time>2022-03-19T09:48:09Z</time><name>PT337</name></trkpt>
<trkpt lat="53.348356" lon="-1.812018"><ele>497</ele><time>2022-03-19T09:48:10Z</time><name>PT338</name></trkpt>
<trkpt lat="53.348361" lon="-1.812005"><ele>498</ele><time>2022-03-19T09:48:11Z</time><name>PT339</name></trkpt>
<trkpt lat="53.348368" lon="-1.811993"><ele>498</ele><time>2022-03-19T09:48:12Z</time><name>PT340</name></trkpt>
<trkpt lat="53.348374" lon="-1.811985"><ele>498</ele><time>2022-03-19T09:48:13Z</time><name>PT341</name></trkpt>
<trkpt lat="53.348378" lon="-1.811970"><ele>498</ele><time>2022-03-19T09:48:14Z</time><name>PT342</name></trkpt>
<trkpt lat="53.348384" lon="-1.811961"><ele>499</ele><time>2022-03-19T09:48:15Z</time><name>PT343</name></trkpt>
<trkpt lat="53.348389" lon="-1.811956"><ele>499</ele><time>2022-03-19T09:48:16Z</time><name>PT344</name></trkpt>
<trkpt lat="53.348393" lon="-1.811945"><ele>499</ele><time>2022-03-19T09:48:17Z</time><name>PT345</name></trkpt>
<trkpt lat="53.348397" lon="-1.811938"><ele>499</ele><time>2022-03-19T09:48:18Z</time><name>PT346</name></trkpt>
<trkpt lat="53.348401" lon="-1.811930"><ele>499</ele><time>2022-03-19T09:48:19Z</time><name>PT347</name></trkpt>
<trkpt lat="53.348407" lon="-1.811923"><ele>499</ele><time>2022-03-19T09:48:20Z</time><name>PT348</name></trkpt>
<trkpt lat="53.348409" lon="-1.811919"><ele>499</ele><time>2022-03-19T09:48:21Z</time><name>PT349</name></trkpt>
<trkpt lat="53.348415" lon="-1.811910"><ele>499</ele><time>2022-03-19T09:48:22Z</time><name>PT350</name></trkpt>
<trkpt lat="53.348423" lon="-1.811901"><ele>499</ele><time>2022-03-19T09:48:23Z</time><name>PT351</name></trkpt>
<trkpt lat="53.348428" lon="-1.811891"><ele>500</ele><time>2022-03-19T09:48:24Z</time><name>PT352</name></trkpt>
<trkpt lat="53.348433" lon="-1.811876"><ele>500</ele><time>2022-03-19T09:48:25Z</time><name>PT353</name></trkpt>
<trkpt lat="53.348439" lon="-1.811864"><ele>500</ele><time>2022-03-19T09:48:26Z</time><name>PT354</name></trkpt>
<trkpt lat="53.348445" lon="-1.811857"><ele>500</ele><time>2022-03-19T09:48:27Z</time><name>PT355</name></trkpt>
<trkpt lat="53.348452" lon="-1.811843"><ele>500</ele><time>2022-03-19T09:48:28Z</time><name>PT356</name></trkpt>
<trkpt lat="53.348457" lon="-1.811836"><ele>500</ele><time>2022-03-19T09:48:29Z</time><name>PT357</name></trkpt>
<trkpt lat="53.348461" lon="-1.811831"><ele>500</ele><time>2022-03-19T09:48:30Z</time><name>PT358</name></trkpt>
<trkpt lat="53.348467" lon="-1.811817"><ele>500</ele><time>2022-03-19T09:48:31Z</time><name>PT359</name></trkpt>
<trkpt lat="53.348473" lon="-1.811807"><ele>500</ele><time>2022-03-19T09:48:32Z</time><name>PT360</name></trkpt>
<trkpt lat="53.348479" lon="-1.811800"><ele>500</ele><time>2022-03-19T09:48:33Z</time><name>PT361</name></trkpt>
<trkpt lat="53.348485" lon="-1.811786"><ele>501</ele><time>2022-03-19T09:48:34Z</time><name>PT362</name></trkpt>
<trkpt lat="53.348497" lon="-1.811777"><ele>500</ele><time>2022-03-19T09:48:35Z</time><name>PT363</name></trkpt>
<trkpt lat="53.348502" lon="-1.811769"><ele>501</ele><time>2022-03-19T09:48:36Z</time><name>PT364</name></trkpt>
<trkpt lat="53.348510" lon="-1.811759"><ele>501</ele><time>2022-03-19T09:48:37Z</time><name>PT365</name></trkpt>
<trkpt lat="53.348515" lon="-1.811751"><ele>501</ele><time>2022-03-19T09:48:38Z</time><name>PT366</name></trkpt>
<trkpt lat="53.348520" lon="-1.811736"><ele>502</ele><time>2022-03-19T09:48:39Z</time><name>PT367</name></trkpt>
<trkpt lat="53.348525" lon="-1.811729"><ele>502</ele><time>2022-03-19T09:48:40Z</time><name>PT368</name></trkpt>
<trkpt lat="53.348533" lon="-1.811719"><ele>502</ele><time>2022-03-19T09:48:41Z</time><name>PT369</name></trkpt>
<trkpt lat="53.348536" lon="-1.811708"><ele>503</ele><time>2022-03-19T09:48:42Z</time><name>PT370</name></trkpt>
<trkpt lat="53.348542" lon="-1.811700"><ele>503</ele><time>2022-03-19T09:48:43Z</time><name>PT371</name></trkpt>
<trkpt lat="53.348548" lon="-1.811691"><ele>504</ele><time>2022-03-19T09:48:44Z</time><name>PT372</name></trkpt>
<trkpt lat="53.348551" lon="-1.811684"><ele>504</ele><time>2022-03-19T09:48:45Z</time><name>PT373</name></trkpt>
<trkpt lat="53.348553" lon="-1.811679"><ele>504</ele><time>2022-03-19T09:48:46Z</time><name>PT374</name></trkpt>
<trkpt lat="53.348558" lon="-1.811673"><ele>504</ele><time>2022-03-19T09:48:47Z</time><name>PT375</name></trkpt>
<trkpt lat="53.348561" lon="-1.811669"><ele>504</ele><time>2022-03-19T09:48:48Z</time><name>PT376</name></trkpt>
<trkpt lat="53.348563" lon="-1.811665"><ele>503</ele><time>2022-03-19T09:48:49Z</time><name>PT377</name></trkpt>
<trkpt lat="53.348567" lon="-1.811660"><ele>504</ele><time>2022-03-19T09:48:50Z</time><name>PT378</name></trkpt>
<trkpt lat="53.348573" lon="-1.811655"><ele>504</ele><time>2022-03-19T09:48:51Z</time><name>PT379</name></trkpt>
<trkpt lat="53.348576" lon="-1.811644"><ele>504</ele><time>2022-03-19T09:48:52Z</time><name>PT380</name></trkpt>
<trkpt lat="53.348580" lon="-1.811636"><ele>505</ele><time>2022-03-19T09:48:53Z</time><name>PT381</name></trkpt>
<trkpt lat="53.348586" lon="-1.811630"><ele>505</ele><time>2022-03-19T09:48:54Z</time><name>PT382</name></trkpt>
<trkpt lat="53.348589" lon="-1.811623"><ele>506</ele><time>2022-03-19T09:48:55Z</time><name>PT383</name></trkpt>
<trkpt lat="53.348596" lon="-1.811616"><ele>506</ele><time>2022-03-19T09:48:55Z</time><name>PT384</name></trkpt>
<trkpt lat="53.348601" lon="-1.811612"><ele>506</ele><time>2022-03-19T09:48:57Z</time><name>PT385</name></trkpt>
<trkpt lat="53.348605" lon="-1.811605"><ele>506</ele><time>2022-03-19T09:48:58Z</time><name>PT386</name></trkpt>
<trkpt lat="53.348610" lon="-1.811599"><ele>507</ele><time>2022-03-19T09:48:59Z</time><name>PT387</name></trkpt>
<trkpt lat="53.348612" lon="-1.811593"><ele>507</ele><time>2022-03-19T09:49:00Z</time><name>PT388</name></trkpt>
<trkpt lat="53.348617" lon="-1.811587"><ele>507</ele><time>2022-03-19T09:49:01Z</time><name>PT389</name></trkpt>
<trkpt lat="53.348622" lon="-1.811582"><ele>507</ele><time>2022-03-19T09:49:02Z</time><name>PT390</name></trkpt>
<trkpt lat="53.348627" lon="-1.811573"><ele>507</ele><time>2022-03-19T09:49:03Z</time><name>PT391</name></trkpt>
<trkpt lat="53.348633" lon="-1.811563"><ele>508</ele><time>2022-03-19T09:49:04Z</time><name>PT392</name></trkpt>
<trkpt lat="53.348636" lon="-1.811553"><ele>507</ele><time>2022-03-19T09:49:05Z</time><name>PT393</name></trkpt>
<trkpt lat="53.348640" lon="-1.811542"><ele>507</ele><time>2022-03-19T09:49:06Z</time><name>PT394</name></trkpt>
<trkpt lat="53.348643" lon="-1.811534"><ele>507</ele><time>2022-03-19T09:49:07Z</time><name>PT395</name></trkpt>
<trkpt lat="53.348647" lon="-1.811525"><ele>507</ele><time>2022-03-19T09:49:07Z</time><name>PT396</name></trkpt>
<trkpt lat="53.348652" lon="-1.811514"><ele>507</ele><time>2022-03-19T09:49:09Z</time><name>PT397</name></trkpt>
<trkpt lat="53.348657" lon="-1.811502"><ele>507</ele><time>2022-03-19T09:49:10Z</time><name>PT398</name></trkpt>
<trkpt lat="53.348662" lon="-1.811488"><ele>508</ele><time>2022-03-19T09:49:11Z</time><name>PT399</name></trkpt>
<trkpt lat="53.348665" lon="-1.811479"><ele>508</ele><time>2022-03-19T09:49:12Z</time><name>PT400</name></trkpt>
<trkpt lat="53.348669" lon="-1.811467"><ele>508</ele><time>2022-03-19T09:49:13Z</time><name>PT401</name></trkpt>
<trkpt lat="53.348674" lon="-1.811455"><ele>509</ele><time>2022-03-19T09:49:14Z</time><name>PT402</name></trkpt>
<trkpt lat="53.348677" lon="-1.811447"><ele>510</ele><time>2022-03-19T09:49:15Z</time><name>PT403</name></trkpt>
<trkpt lat="53.348681" lon="-1.811442"><ele>510</ele><time>2022-03-19T09:49:16Z</time><name>PT404</name></trkpt>
<trkpt lat="53.348685" lon="-1.811429"><ele>510</ele><time>2022-03-19T09:49:17Z</time><name>PT405</name></trkpt>
<trkpt lat="53.348689" lon="-1.811420"><ele>510</ele><time>2022-03-19T09:49:18Z</time><name>PT406</name></trkpt>
<trkpt lat="53.348691" lon="-1.811410"><ele>510</ele><time>2022-03-19T09:49:19Z</time><name>PT407</name></trkpt>
<trkpt lat="53.348691" lon="-1.811399"><ele>510</ele><time>2022-03-19T09:49:20Z</time><name>PT408</name></trkpt>
<trkpt lat="53.348691" lon="-1.811391"><ele>510</ele><time>2022-03-19T09:49:21Z</time><name>PT409</name></trkpt>
<trkpt lat="53.348691" lon="-1.811382"><ele>510</ele><time>2022-03-19T09:49:22Z</time><name>PT410</name></trkpt>
<trkpt lat="53.348693" lon="-1.811370"><ele>510</ele><time>2022-03-19T09:49:23Z</time><name>PT411</name></trkpt>
<trkpt lat="53.348691" lon="-1.811358"><ele>510</ele><time>2022-03-19T09:49:24Z</time><name>PT412</name></trkpt>
<trkpt lat="53.348692" lon="-1.811347"><ele>511</ele><time>2022-03-19T09:49:25Z</time><name>PT413</name></trkpt>
<trkpt lat="53.348695" lon="-1.811335"><ele>511</ele><time>2022-03-19T09:49:26Z</time><name>PT414</name></trkpt>
<trkpt lat="53.348696" lon="-1.811327"><ele>511</ele><time>2022-03-19T09:49:27Z</time><name>PT415</name></trkpt>
<trkpt lat="53.348698" lon="-1.811318"><ele>510</ele><time>2022-03-19T09:49:28Z</time><name>PT416</name></trkpt>
<trkpt lat="53.348699" lon="-1.811309"><ele>510</ele><time>2022-03-19T09:49:29Z</time><name>PT417</name></trkpt>
<trkpt lat="53.348701" lon="-1.811301"><ele>511</ele><time>2022-03-19T09:49:30Z</time><name>PT418</name></trkpt>
<trkpt lat="53.348705" lon="-1.811291"><ele>510</ele><time>2022-03-19T09:49:31Z</time><name>PT419</name></trkpt>
<trkpt lat="53.348709" lon="-1.811281"><ele>511</ele><time>2022-03-19T09:49:32Z</time><name>PT420</name></trkpt>
<trkpt lat="53.348711" lon="-1.811270"><ele>511</ele><time>2022-03-19T09:49:33Z</time><name>PT421</name></trkpt>
<trkpt lat="53.348715" lon="-1.811257"><ele>511</ele><time>2022-03-19T09:49:34Z</time><name>PT422</name></trkpt>
<trkpt lat="53.348717" lon="-1.811246"><ele>512</ele><time>2022-03-19T09:49:34Z</time><name>PT423</name></trkpt>
<trkpt lat="53.348719" lon="-1.811230"><ele>512</ele><time>2022-03-19T09:49:36Z</time><name>PT424</name></trkpt>
<trkpt lat="53.348722" lon="-1.811217"><ele>512</ele><time>2022-03-19T09:49:37Z</time><name>PT425</name></trkpt>
<trkpt lat="53.348725" lon="-1.811203"><ele>512</ele><time>2022-03-19T09:49:38Z</time><name>PT426</name></trkpt>
<trkpt lat="53.348729" lon="-1.811187"><ele>512</ele><time>2022-03-19T09:49:39Z</time><name>PT427</name></trkpt>
<trkpt lat="53.348733" lon="-1.811167"><ele>513</ele><time>2022-03-19T09:49:40Z</time><name>PT428</name></trkpt>
<trkpt lat="53.348738" lon="-1.811144"><ele>513</ele><time>2022-03-19T09:49:41Z</time><name>PT429</name></trkpt>
<trkpt lat="53.348744" lon="-1.811131"><ele>513</ele><time>2022-03-19T09:49:42Z</time><name>PT430</name></trkpt>
<trkpt lat="53.348749" lon="-1.811116"><ele>513</ele><time>2022-03-19T09:49:43Z</time><name>PT431</name></trkpt>
<trkpt lat="53.348754" lon="-1.811097"><ele>514</ele><time>2022-03-19T09:49:44Z</time><name>PT432</name></trkpt>
<trkpt lat="53.348757" lon="-1.811079"><ele>514</ele><time>2022-03-19T09:49:45Z</time><name>PT433</name></trkpt>
<trkpt lat="53.348760" lon="-1.811066"><ele>513</ele><time>2022-03-19T09:49:46Z</time><name>PT434</name></trkpt>
<trkpt lat="53.348761" lon="-1.811049"><ele>513</ele><time>2022-03-19T09:49:47Z</time><name>PT435</name></trkpt>
<trkpt lat="53.348763" lon="-1.811030"><ele>513</ele><time>2022-03-19T09:49:48Z</time><name>PT436</name></trkpt>
<trkpt lat="53.348767" lon="-1.811011"><ele>513</ele><time>2022-03-19T09:49:49Z</time><name>PT437</name></trkpt>
<trkpt lat="53.348769" lon="-1.810991"><ele>513</ele><time>2022-03-19T09:49:50Z</time><name>PT438</name></trkpt>
<trkpt lat="53.348768" lon="-1.810978"><ele>513</ele><time>2022-03-19T09:49:51Z</time><name>PT439</name></trkpt>
<trkpt lat="53.348768" lon="-1.810962"><ele>514</ele><time>2022-03-19T09:49:52Z</time><name>PT440</name></trkpt>
<trkpt lat="53.348768" lon="-1.810944"><ele>514</ele><time>2022-03-19T09:49:53Z</time><name>PT441</name></trkpt>
<trkpt lat="53.348769" lon="-1.810926"><ele>514</ele><time>2022-03-19T09:49:54Z</time><name>PT442</name></trkpt>
<trkpt lat="53.348771" lon="-1.810905"><ele>514</ele><time>2022-03-19T09:49:55Z</time><name>PT443</name></trkpt>
<trkpt lat="53.348773" lon="-1.810886"><ele>514</ele><time>2022-03-19T09:49:56Z</time><name>PT444</name></trkpt>
<trkpt lat="53.348775" lon="-1.810862"><ele>514</ele><time>2022-03-19T09:49:57Z</time><name>PT445</name></trkpt>
<trkpt lat="53.348775" lon="-1.810843"><ele>514</ele><time>2022-03-19T09:49:58Z</time><name>PT446</name></trkpt>
<trkpt lat="53.348780" lon="-1.810824"><ele>514</ele><time>2022-03-19T09:49:59Z</time><name>PT447</name></trkpt>
<trkpt lat="53.348785" lon="-1.810806"><ele>514</ele><time>2022-03-19T09:50:00Z</time><name>PT448</name></trkpt>
<trkpt lat="53.348787" lon="-1.810789"><ele>515</ele><time>2022-03-19T09:50:01Z</time><name>PT449</name></trkpt>
<trkpt lat="53.348789" lon="-1.810769"><ele>515</ele><time>2022-03-19T09:50:02Z</time><name>PT450</name></trkpt>
<trkpt lat="53.348794" lon="-1.810751"><ele>515</ele><time>2022-03-19T09:50:03Z</time><name>PT451</name></trkpt>
<trkpt lat="53.348809" lon="-1.810694"><ele>515</ele><time>2022-03-19T09:50:07Z</time><name>PT452</name></trkpt>
<trkpt lat="53.348828" lon="-1.810643"><ele>516</ele><time>2022-03-19T09:50:11Z</time><name>PT453</name></trkpt>
<trkpt lat="53.348853" lon="-1.810589"><ele>516</ele><time>2022-03-19T09:50:15Z</time><name>PT454</name></trkpt>
<trkpt lat="53.348870" lon="-1.810542"><ele>517</ele><time>2022-03-19T09:50:18Z</time><name>PT455</name></trkpt>
<trkpt lat="53.348902" lon="-1.810487"><ele>516</ele><time>2022-03-19T09:50:22Z</time><name>PT456</name></trkpt>
<trkpt lat="53.348923" lon="-1.810438"><ele>517</ele><time>2022-03-19T09:50:25Z</time><name>PT457</name></trkpt>
<trkpt lat="53.348950" lon="-1.810382"><ele>517</ele><time>2022-03-19T09:50:29Z</time><name>PT458</name></trkpt>
<trkpt lat="53.348975" lon="-1.810338"><ele>518</ele><time>2022-03-19T09:50:32Z</time><name>PT459</name></trkpt>
<trkpt lat="53.349001" lon="-1.810282"><ele>518</ele><time>2022-03-19T09:50:36Z</time><name>PT460</name></trkpt>
<trkpt lat="53.349019" lon="-1.810237"><ele>518</ele><time>2022-03-19T09:50:39Z</time><name>PT461</name></trkpt>
<trkpt lat="53.349035" lon="-1.810199"><ele>518</ele><time>2022-03-19T09:50:42Z</time><name>PT462</name></trkpt>
<trkpt lat="53.349050" lon="-1.810148"><ele>519</ele><time>2022-03-19T09:50:45Z</time><name>PT463</name></trkpt>
<trkpt lat="53.349074" lon="-1.810088"><ele>519</ele><time>2022-03-19T09:50:49Z</time><name>PT464</name></trkpt>
<trkpt lat="53.349084" lon="-1.810048"><ele>520</ele><time>2022-03-19T09:50:52Z</time><name>PT465</name></trkpt>
<trkpt lat="53.349102" lon="-1.810006"><ele>519</ele><time>2022-03-19T09:50:56Z</time><name>PT466</name></trkpt>
<trkpt lat="53.349120" lon="-1.809978"><ele>520</ele><time>2022-03-19T09:50:59Z</time><name>PT467</name></trkpt>
<trkpt lat="53.349139" lon="-1.809944"><ele>520</ele><time>2022-03-19T09:51:02Z</time><name>PT468</name></trkpt>
<trkpt lat="53.349154" lon="-1.809908"><ele>521</ele><time>2022-03-19T09:51:05Z</time><name>PT469</name></trkpt>
<trkpt lat="53.349172" lon="-1.809861"><ele>522</ele><time>2022-03-19T09:51:09Z</time><name>PT470</name></trkpt>
<trkpt lat="53.349189" lon="-1.809828"><ele>523</ele><time>2022-03-19T09:51:12Z</time><name>PT471</name></trkpt>
<trkpt lat="53.349204" lon="-1.809800"><ele>523</ele><time>2022-03-19T09:51:15Z</time><name>PT472</name></trkpt>
<trkpt lat="53.349214" lon="-1.809761"><ele>523</ele><time>2022-03-19T09:51:19Z</time><name>PT473</name></trkpt>
<trkpt lat="53.349212" lon="-1.809745"><ele>522</ele><time>2022-03-19T09:51:23Z</time><name>PT474</name></trkpt>
<trkpt lat="53.349213" lon="-1.809740"><ele>522</ele><time>2022-03-19T09:51:26Z</time><name>PT475</name></trkpt>
<trkpt lat="53.349212" lon="-1.809741"><ele>522</ele><time>2022-03-19T09:51:41Z</time><name>PT476</name></trkpt>
<trkpt lat="53.349211" lon="-1.809769"><ele>522</ele><time>2022-03-19T09:51:44Z</time><name>PT477</name></trkpt>
<trkpt lat="53.349210" lon="-1.809766"><ele>522</ele><time>2022-03-19T09:51:48Z</time><name>PT478</name></trkpt>
<trkpt lat="53.349216" lon="-1.809740"><ele>522</ele><time>2022-03-19T09:51:55Z</time><name>PT479</name></trkpt>
<trkpt lat="53.349217" lon="-1.809730"><ele>521</ele><time>2022-03-19T09:51:56Z</time><name>PT480</name></trkpt>
<trkpt lat="53.349221" lon="-1.809716"><ele>521</ele><time>2022-03-19T09:51:57Z</time><name>PT481</name></trkpt>
<trkpt lat="53.349223" lon="-1.809706"><ele>522</ele><time>2022-03-19T09:51:58Z</time><name>PT482</name></trkpt>
<trkpt lat="53.349225" lon="-1.809695"><ele>522</ele><time>2022-03-19T09:51:59Z</time><name>PT483</name></trkpt>
<trkpt lat="53.349226" lon="-1.809684"><ele>522</ele><time>2022-03-19T09:52:00Z</time><name>PT484</name></trkpt>
<trkpt lat="53.349228" lon="-1.809677"><ele>522</ele><time>2022-03-19T09:52:01Z</time><name>PT485</name></trkpt>
<trkpt lat="53.349226" lon="-1.809670"><ele>523</ele><time>2022-03-19T09:52:02Z</time><name>PT486</name></trkpt>
<trkpt lat="53.349227" lon="-1.809668"><ele>523</ele><time>2022-03-19T09:52:03Z</time><name>PT487</name></trkpt>
<trkpt lat="53.349228" lon="-1.809669"><ele>523</ele><time>2022-03-19T09:52:04Z</time><name>PT488</name></trkpt>
<trkpt lat="53.349227" lon="-1.809672"><ele>523</ele><time>2022-03-19T09:52:36Z</time><name>PT489</name></trkpt>
<trkpt lat="53.349226" lon="-1.809671"><ele>523</ele><time>2022-03-19T09:52:37Z</time><name>PT490</name></trkpt>
<trkpt lat="53.349226" lon="-1.809668"><ele>523</ele><time>2022-03-19T09:52:38Z</time><name>PT491</name></trkpt>
<trkpt lat="53.349226" lon="-1.809665"><ele>522</ele><time>2022-03-19T09:52:39Z</time><name>PT492</name></trkpt>
<trkpt lat="53.349228" lon="-1.809662"><ele>522</ele><time>2022-03-19T09:52:40Z</time><name>PT493</name></trkpt>
<trkpt lat="53.349230" lon="-1.809654"><ele>522</ele><time>2022-03-19T09:52:41Z</time><name>PT494</name></trkpt>
<trkpt lat="53.349230" lon="-1.809651"><ele>522</ele><time>2022-03-19T09:52:42Z</time><name>PT495</name></trkpt>
<trkpt lat="53.349233" lon="-1.809645"><ele>522</ele><time>2022-03-19T09:52:43Z</time><name>PT496</name></trkpt>
<trkpt lat="53.349232" lon="-1.809634"><ele>522</ele><time>2022-03-19T09:52:46Z</time><name>PT497</name></trkpt>
<trkpt lat="53.349231" lon="-1.809631"><ele>523</ele><time>2022-03-19T09:52:47Z</time><name>PT498</name></trkpt>
<trkpt lat="53.349234" lon="-1.809625"><ele>523</ele><time>2022-03-19T09:53:07Z</time><name>PT499</name></trkpt>
<trkpt lat="53.349241" lon="-1.809621"><ele>523</ele><time>2022-03-19T09:53:08Z</time><name>PT500</name></trkpt>
<trkpt lat="53.349247" lon="-1.809614"><ele>523</ele><time>2022-03-19T09:53:09Z</time><name>PT501</name></trkpt>
<trkpt lat="53.349255" lon="-1.809604"><ele>523</ele><time>2022-03-19T09:53:10Z</time><name>PT502</name></trkpt>
<trkpt lat="53.349259" lon="-1.809595"><ele>522</ele><time>2022-03-19T09:53:11Z</time><name>PT503</name></trkpt>
<trkpt lat="53.349264" lon="-1.809584"><ele>522</ele><time>2022-03-19T09:53:12Z</time><name>PT504</name></trkpt>
<trkpt lat="53.349267" lon="-1.809575"><ele>522</ele><time>2022-03-19T09:53:13Z</time><name>PT505</name></trkpt>
<trkpt lat="53.349270" lon="-1.809562"><ele>522</ele><time>2022-03-19T09:53:14Z</time><name>PT506</name></trkpt>
<trkpt lat="53.349278" lon="-1.809550"><ele>522</ele><time>2022-03-19T09:53:15Z</time><name>PT507</name></trkpt>
<trkpt lat="53.349285" lon="-1.809537"><ele>522</ele><time>2022-03-19T09:53:16Z</time><name>PT508</name></trkpt>
<trkpt lat="53.349295" lon="-1.809531"><ele>522</ele><time>2022-03-19T09:53:17Z</time><name>PT509</name></trkpt>
<trkpt lat="53.349305" lon="-1.809526"><ele>522</ele><time>2022-03-19T09:53:18Z</time><name>PT510</name></trkpt>
<trkpt lat="53.349315" lon="-1.809522"><ele>522</ele><time>2022-03-19T09:53:19Z</time><name>PT511</name></trkpt>
<trkpt lat="53.349325" lon="-1.809517"><ele>522</ele><time>2022-03-19T09:53:20Z</time><name>PT512</name></trkpt>
<trkpt lat="53.349333" lon="-1.809511"><ele>522</ele><time>2022-03-19T09:53:21Z</time><name>PT513</name></trkpt>
<trkpt lat="53.349340" lon="-1.809504"><ele>522</ele><time>2022-03-19T09:53:22Z</time><name>PT514</name></trkpt>
<trkpt lat="53.349348" lon="-1.809498"><ele>522</ele><time>2022-03-19T09:53:23Z</time><name>PT515</name></trkpt>
<trkpt lat="53.349357" lon="-1.809494"><ele>522</ele><time>2022-03-19T09:53:24Z</time><name>PT516</name></trkpt>
<trkpt lat="53.349368" lon="-1.809486"><ele>522</ele><time>2022-03-19T09:53:25Z</time><name>PT517</name></trkpt>
<trkpt lat="53.349377" lon="-1.809478"><ele>522</ele><time>2022-03-19T09:53:26Z</time><name>PT518</name></trkpt>
<trkpt lat="53.349387" lon="-1.809471"><ele>522</ele><time>2022-03-19T09:53:27Z</time><name>PT519</name></trkpt>
<trkpt lat="53.349397" lon="-1.809465"><ele>521</ele><time>2022-03-19T09:53:28Z</time><name>PT520</name></trkpt>
<trkpt lat="53.349408" lon="-1.809457"><ele>521</ele><time>2022-03-19T09:53:29Z</time><name>PT521</name></trkpt>
<trkpt lat="53.349416" lon="-1.809452"><ele>521</ele><time>2022-03-19T09:53:30Z</time><name>PT522</name></trkpt>
<trkpt lat="53.349423" lon="-1.809450"><ele>521</ele><time>2022-03-19T09:53:31Z</time><name>PT523</name></trkpt>
<trkpt lat="53.349434" lon="-1.809445"><ele>521</ele><time>2022-03-19T09:53:32Z</time><name>PT524</name></trkpt>
<trkpt lat="53.349445" lon="-1.809439"><ele>521</ele><time>2022-03-19T09:53:33Z</time><name>PT525</name></trkpt>
<trkpt lat="53.349455" lon="-1.809431"><ele>521</ele><time>2022-03-19T09:53:34Z</time><name>PT526</name></trkpt>
<trkpt lat="53.349464" lon="-1.809422"><ele>521</ele><time>2022-03-19T09:53:35Z</time><name>PT527</name></trkpt>
<trkpt lat="53.349474" lon="-1.809415"><ele>521</ele><time>2022-03-19T09:53:36Z</time><name>PT528</name></trkpt>
<trkpt lat="53.349486" lon="-1.809413"><ele>520</ele><time>2022-03-19T09:53:37Z</time><name>PT529</name></trkpt>
<trkpt lat="53.349495" lon="-1.809409"><ele>520</ele><time>2022-03-19T09:53:38Z</time><name>PT530</name></trkpt>
<trkpt lat="53.349504" lon="-1.809406"><ele>520</ele><time>2022-03-19T09:53:39Z</time><name>PT531</name></trkpt>
<trkpt lat="53.349512" lon="-1.809405"><ele>520</ele><time>2022-03-19T09:53:40Z</time><name>PT532</name></trkpt>
<trkpt lat="53.349520" lon="-1.809402"><ele>520</ele><time>2022-03-19T09:53:41Z</time><name>PT533</name></trkpt>
<trkpt lat="53.349530" lon="-1.809398"><ele>520</ele><time>2022-03-19T09:53:42Z</time><name>PT534</name></trkpt>
<trkpt lat="53.349538" lon="-1.809388"><ele>519</ele><time>2022-03-19T09:53:43Z</time><name>PT535</name></trkpt>
<trkpt lat="53.349547" lon="-1.809381"><ele>519</ele><time>2022-03-19T09:53:44Z</time><name>PT536</name></trkpt>
<trkpt lat="53.349557" lon="-1.809377"><ele>519</ele><time>2022-03-19T09:53:45Z</time><name>PT537</name></trkpt>
<trkpt lat="53.349566" lon="-1.809371"><ele>519</ele><time>2022-03-19T09:53:46Z</time><name>PT538</name></trkpt>
<trkpt lat="53.349574" lon="-1.809361"><ele>519</ele><time>2022-03-19T09:53:47Z</time><name>PT539</name></trkpt>
<trkpt lat="53.349582" lon="-1.809352"><ele>519</ele><time>2022-03-19T09:53:48Z</time><name>PT540</name></trkpt>
<trkpt lat="53.349590" lon="-1.809344"><ele>518</ele><time>2022-03-19T09:53:49Z</time><name>PT541</name></trkpt>
<trkpt lat="53.349599" lon="-1.809338"><ele>518</ele><time>2022-03-19T09:53:50Z</time><name>PT542</name></trkpt>
<trkpt lat="53.349609" lon="-1.809327"><ele>518</ele><time>2022-03-19T09:53:51Z</time><name>PT543</name></trkpt>
<trkpt lat="53.349620" lon="-1.809316"><ele>518</ele><time>2022-03-19T09:53:52Z</time><name>PT544</name></trkpt>
<trkpt lat="53.349630" lon="-1.809308"><ele>518</ele><time>2022-03-19T09:53:53Z</time><name>PT545</name></trkpt>
<trkpt lat="53.349640" lon="-1.809301"><ele>518</ele><time>2022-03-19T09:53:54Z</time><name>PT546</name></trkpt>
<trkpt lat="53.349652" lon="-1.809295"><ele>518</ele><time>2022-03-19T09:53:55Z</time><name>PT547</name></trkpt>
<trkpt lat="53.349660" lon="-1.809292"><ele>518</ele><time>2022-03-19T09:53:56Z</time><name>PT548</name></trkpt>
<trkpt lat="53.349668" lon="-1.809287"><ele>518</ele><time>2022-03-19T09:53:57Z</time><name>PT549</name></trkpt>
<trkpt lat="53.349677" lon="-1.809282"><ele>517</ele><time>2022-03-19T09:53:58Z</time><name>PT550</name></trkpt>
<trkpt lat="53.349687" lon="-1.809276"><ele>517</ele><time>2022-03-19T09:53:59Z</time><name>PT551</name></trkpt>
<trkpt lat="53.349699" lon="-1.809271"><ele>517</ele><time>2022-03-19T09:54:00Z</time><name>PT552</name></trkpt>
<trkpt lat="53.349710" lon="-1.809269"><ele>517</ele><time>2022-03-19T09:54:01Z</time><name>PT553</name></trkpt>
<trkpt lat="53.349722" lon="-1.809263"><ele>518</ele><time>2022-03-19T09:54:02Z</time><name>PT554</name></trkpt>
<trkpt lat="53.349735" lon="-1.809256"><ele>518</ele><time>2022-03-19T09:54:03Z</time><name>PT555</name></trkpt>
<trkpt lat="53.349747" lon="-1.809248"><ele>517</ele><time>2022-03-19T09:54:04Z</time><name>PT556</name></trkpt>
<trkpt lat="53.349757" lon="-1.809240"><ele>517</ele><time>2022-03-19T09:54:05Z</time><name>PT557</name></trkpt>
<trkpt lat="53.349770" lon="-1.809234"><ele>517</ele><time>2022-03-19T09:54:06Z</time><name>PT558</name></trkpt>
<trkpt lat="53.349782" lon="-1.809227"><ele>517</ele><time>2022-03-19T09:54:07Z</time><name>PT559</name></trkpt>
<trkpt lat="53.349793" lon="-1.809223"><ele>517</ele><time>2022-03-19T09:54:08Z</time><name>PT560</name></trkpt>
<trkpt lat="53.349805" lon="-1.809219"><ele>517</ele><time>2022-03-19T09:54:09Z</time><name>PT561</name></trkpt>
<trkpt lat="53.349817" lon="-1.809215"><ele>517</ele><time>2022-03-19T09:54:10Z</time><name>PT562</name></trkpt>
<trkpt lat="53.349829" lon="-1.809212"><ele>517</ele><time>2022-03-19T09:54:11Z</time><name>PT563</name></trkpt>
<trkpt lat="53.349840" lon="-1.809209"><ele>517</ele><time>2022-03-19T09:54:12Z</time><name>PT564</name></trkpt>
<trkpt lat="53.349849" lon="-1.809204"><ele>517</ele><time>2022-03-19T09:54:13Z</time><name>PT565</name></trkpt>
<trkpt lat="53.349857" lon="-1.809199"><ele>517</ele><time>2022-03-19T09:54:14Z</time><name>PT566</name></trkpt>
<trkpt lat="53.349867" lon="-1.809192"><ele>516</ele><time>2022-03-19T09:54:15Z</time><name>PT567</name></trkpt>
<trkpt lat="53.349876" lon="-1.809181"><ele>516</ele><time>2022-03-19T09:54:16Z</time><name>PT568</name></trkpt>
<trkpt lat="53.349885" lon="-1.809168"><ele>516</ele><time>2022-03-19T09:54:17Z</time><name>PT569</name></trkpt>
<trkpt lat="53.349895" lon="-1.809158"><ele>516</ele><time>2022-03-19T09:54:18Z</time><name>PT570</name></trkpt>
<trkpt lat="53.349904" lon="-1.809148"><ele>515</ele><time>2022-03-19T09:54:19Z</time><name>PT571</name></trkpt>
<trkpt lat="53.349914" lon="-1.809140"><ele>515</ele><time>2022-03-19T09:54:20Z</time><name>PT572</name></trkpt>
<trkpt lat="53.349926" lon="-1.809133"><ele>515</ele><time>2022-03-19T09:54:21Z</time><name>PT573</name></trkpt>
<trkpt lat="53.349936" lon="-1.809129"><ele>515</ele><time>2022-03-19T09:54:22Z</time><name>PT574</name></trkpt>
<trkpt lat="53.349947" lon="-1.809123"><ele>515</ele><time>2022-03-19T09:54:23Z</time><name>PT575</name></trkpt>
<trkpt lat="53.349960" lon="-1.809118"><ele>515</ele><time>2022-03-19T09:54:24Z</time><name>PT576</name></trkpt>
<trkpt lat="53.349972" lon="-1.809117"><ele>515</ele><time>2022-03-19T09:54:25Z</time><name>PT577</name></trkpt>
<trkpt lat="53.349982" lon="-1.809110"><ele>515</ele><time>2022-03-19T09:54:26Z</time><name>PT578</name></trkpt>
<trkpt lat="53.349992" lon="-1.809106"><ele>514</ele><time>2022-03-19T09:54:27Z</time><name>PT579</name></trkpt>
<trkpt lat="53.350006" lon="-1.809104"><ele>514</ele><time>2022-03-19T09:54:28Z</time><name>PT580</name></trkpt>
<trkpt lat="53.350020" lon="-1.809099"><ele>515</ele><time>2022-03-19T09:54:29Z</time><name>PT581</name></trkpt>
<trkpt lat="53.350032" lon="-1.809093"><ele>515</ele><time>2022-03-19T09:54:30Z</time><name>PT582</name></trkpt>
<trkpt lat="53.350042" lon="-1.809088"><ele>514</ele><time>2022-03-19T09:54:31Z</time><name>PT583</name></trkpt>
<trkpt lat="53.350053" lon="-1.809083"><ele>514</ele><time>2022-03-19T09:54:32Z</time><name>PT584</name></trkpt>
<trkpt lat="53.350063" lon="-1.809076"><ele>514</ele><time>2022-03-19T09:54:33Z</time><name>PT585</name></trkpt>
<trkpt lat="53.350072" lon="-1.809071"><ele>514</ele><time>2022-03-19T09:54:34Z</time><name>PT586</name></trkpt>
<trkpt lat="53.350086" lon="-1.809067"><ele>514</ele><time>2022-03-19T09:54:35Z</time><name>PT587</name></trkpt>
<trkpt lat="53.350098" lon="-1.809064"><ele>514</ele><time>2022-03-19T09:54:36Z</time><name>PT588</name></trkpt>
<trkpt lat="53.350110" lon="-1.809061"><ele>514</ele><time>2022-03-19T09:54:37Z</time><name>PT589</name></trkpt>
<trkpt lat="53.350120" lon="-1.809058"><ele>514</ele><time>2022-03-19T09:54:38Z</time><name>PT590</name></trkpt>
<trkpt lat="53.350132" lon="-1.809055"><ele>514</ele><time>2022-03-19T09:54:39Z</time><name>PT591</name></trkpt>
<trkpt lat="53.350143" lon="-1.809048"><ele>513</ele><time>2022-03-19T09:54:40Z</time><name>PT592</name></trkpt>
<trkpt lat="53.350156" lon="-1.809041"><ele>513</ele><time>2022-03-19T09:54:41Z</time><name>PT593</name></trkpt>
<trkpt lat="53.350169" lon="-1.809036"><ele>513</ele><time>2022-03-19T09:54:42Z</time><name>PT594</name></trkpt>
<trkpt lat="53.350182" lon="-1.809033"><ele>513</ele><time>2022-03-19T09:54:43Z</time><name>PT595</name></trkpt>
<trkpt lat="53.350193" lon="-1.809028"><ele>513</ele><time>2022-03-19T09:54:44Z</time><name>PT596</name></trkpt>
<trkpt lat="53.350204" lon="-1.809022"><ele>513</ele><time>2022-03-19T09:54:45Z</time><name>PT597</name></trkpt>
<trkpt lat="53.350215" lon="-1.809013"><ele>513</ele><time>2022-03-19T09:54:46Z</time><name>PT598</name></trkpt>
<trkpt lat="53.350229" lon="-1.809005"><ele>513</ele><time>2022-03-19T09:54:47Z</time><name>PT599</name></trkpt>
<trkpt lat="53.350240" lon="-1.808998"><ele>512</ele><time>2022-03-19T09:54:48Z</time><name>PT600</name></trkpt>
<trkpt lat="53.350252" lon="-1.808993"><ele>513</ele><time>2022-03-19T09:54:49Z</time><name>PT601</name></trkpt>
<trkpt lat="53.350266" lon="-1.808988"><ele>512</ele><time>2022-03-19T09:54:50Z</time><name>PT602</name></trkpt>
<trkpt lat="53.350275" lon="-1.808986"><ele>512</ele><time>2022-03-19T09:54:51Z</time><name>PT603</name></trkpt>
<trkpt lat="53.350284" lon="-1.808983"><ele>512</ele><time>2022-03-19T09:54:52Z</time><name>PT604</name></trkpt>
<trkpt lat="53.350296" lon="-1.808978"><ele>512</ele><time>2022-03-19T09:54:53Z</time><name>PT605</name></trkpt>
<trkpt lat="53.350309" lon="-1.808974"><ele>512</ele><time>2022-03-19T09:54:54Z</time><name>PT606</name></trkpt>
<trkpt lat="53.350321" lon="-1.808970"><ele>512</ele><time>2022-03-19T09:54:55Z</time><name>PT607</name></trkpt>
<trkpt lat="53.350334" lon="-1.808966"><ele>513</ele><time>2022-03-19T09:54:56Z</time><name>PT608</name></trkpt>
<trkpt lat="53.350348" lon="-1.808963"><ele>513</ele><time>2022-03-19T09:54:57Z</time><name>PT609</name></trkpt>
<trkpt lat="53.350362" lon="-1.808959"><ele>513</ele><time>2022-03-19T09:54:58Z</time><name>PT610</name></trkpt>
<trkpt lat="53.350374" lon="-1.808956"><ele>512</ele><time>2022-03-19T09:54:59Z</time><name>PT611</name></trkpt>
<trkpt lat="53.350383" lon="-1.808953"><ele>512</ele><time>2022-03-19T09:55:00Z</time><name>PT612</name></trkpt>
<trkpt lat="53.350395" lon="-1.808951"><ele>512</ele><time>2022-03-19T09:55:01Z</time><name>PT613</name></trkpt>
<trkpt lat="53.350406" lon="-1.808947"><ele>512</ele><time>2022-03-19T09:55:02Z</time><name>PT614</name></trkpt>
<trkpt lat="53.350419" lon="-1.808943"><ele>512</ele><time>2022-03-19T09:55:03Z</time><name>PT615</name></trkpt>
<trkpt lat="53.350430" lon="-1.808939"><ele>512</ele><time>2022-03-19T09:55:04Z</time><name>PT616</name></trkpt>
<trkpt lat="53.350443" lon="-1.808935"><ele>512</ele><time>2022-03-19T09:55:05Z</time><name>PT617</name></trkpt>
<trkpt lat="53.350456" lon="-1.808930"><ele>511</ele><time>2022-03-19T09:55:06Z</time><name>PT618</name></trkpt>
<trkpt lat="53.350466" lon="-1.808925"><ele>511</ele><time>2022-03-19T09:55:07Z</time><name>PT619</name></trkpt>
<trkpt lat="53.350475" lon="-1.808918"><ele>511</ele><time>2022-03-19T09:55:08Z</time><name>PT620</name></trkpt>
<trkpt lat="53.350486" lon="-1.808913"><ele>511</ele><time>2022-03-19T09:55:09Z</time><name>PT621</name></trkpt>
<trkpt lat="53.350496" lon="-1.808907"><ele>510</ele><time>2022-03-19T09:55:10Z</time><name>PT622</name></trkpt>
<trkpt lat="53.350506" lon="-1.808901"><ele>510</ele><time>2022-03-19T09:55:11Z</time><name>PT623</name></trkpt>
<trkpt lat="53.350517" lon="-1.808896"><ele>510</ele><time>2022-03-19T09:55:12Z</time><name>PT624</name></trkpt>
<trkpt lat="53.350528" lon="-1.808891"><ele>510</ele><time>2022-03-19T09:55:13Z</time><name>PT625</name></trkpt>
<trkpt lat="53.350538" lon="-1.808886"><ele>510</ele><time>2022-03-19T09:55:14Z</time><name>PT626</name></trkpt>
<trkpt lat="53.350547" lon="-1.808882"><ele>510</ele><time>2022-03-19T09:55:15Z</time><name>PT627</name></trkpt>
<trkpt lat="53.350558" lon="-1.808877"><ele>510</ele><time>2022-03-19T09:55:16Z</time><name>PT628</name></trkpt>
<trkpt lat="53.350568" lon="-1.808871"><ele>510</ele><time>2022-03-19T09:55:17Z</time><name>PT629</name></trkpt>
<trkpt lat="53.350578" lon="-1.808867"><ele>509</ele><time>2022-03-19T09:55:18Z</time><name>PT630</name></trkpt>
<trkpt lat="53.350589" lon="-1.808864"><ele>509</ele><time>2022-03-19T09:55:19Z</time><name>PT631</name></trkpt>
<trkpt lat="53.350599" lon="-1.808858"><ele>508</ele><time>2022-03-19T09:55:20Z</time><name>PT632</name></trkpt>
<trkpt lat="53.350610" lon="-1.808852"><ele>509</ele><time>2022-03-19T09:55:21Z</time><name>PT633</name></trkpt>
<trkpt lat="53.350622" lon="-1.808844"><ele>508</ele><time>2022-03-19T09:55:22Z</time><name>PT634</name></trkpt>
<trkpt lat="53.350633" lon="-1.808838"><ele>508</ele><time>2022-03-19T09:55:23Z</time><name>PT635</name></trkpt>
<trkpt lat="53.350643" lon="-1.808831"><ele>509</ele><time>2022-03-19T09:55:24Z</time><name>PT636</name></trkpt>
<trkpt lat="53.350651" lon="-1.808823"><ele>508</ele><time>2022-03-19T09:55:25Z</time><name>PT637</name></trkpt>
<trkpt lat="53.350659" lon="-1.808813"><ele>509</ele><time>2022-03-19T09:55:26Z</time><name>PT638</name></trkpt>
<trkpt lat="53.350667" lon="-1.808803"><ele>508</ele><time>2022-03-19T09:55:27Z</time><name>PT639</name></trkpt>
<trkpt lat="53.350677" lon="-1.808794"><ele>508</ele><time>2022-03-19T09:55:28Z</time><name>PT640</name></trkpt>
<trkpt lat="53.350686" lon="-1.808788"><ele>507</ele><time>2022-03-19T09:55:29Z</time><name>PT641</name></trkpt>
<trkpt lat="53.350695" lon="-1.808786"><ele>507</ele><time>2022-03-19T09:55:30Z</time><name>PT642</name></trkpt>
<trkpt lat="53.350706" lon="-1.808783"><ele>507</ele><time>2022-03-19T09:55:31Z</time><name>PT643</name></trkpt>
<trkpt lat="53.350716" lon="-1.808783"><ele>507</ele><time>2022-03-19T09:55:32Z</time><name>PT644</name></trkpt>
<trkpt lat="53.350727" lon="-1.808779"><ele>506</ele><time>2022-03-19T09:55:33Z</time><name>PT645</name></trkpt>
<trkpt lat="53.350738" lon="-1.808772"><ele>506</ele><time>2022-03-19T09:55:34Z</time><name>PT646</name></trkpt>
<trkpt lat="53.350750" lon="-1.808763"><ele>506</ele><time>2022-03-19T09:55:35Z</time><name>PT647</name></trkpt>
<trkpt lat="53.350761" lon="-1.808755"><ele>506</ele><time>2022-03-19T09:55:36Z</time><name>PT648</name></trkpt>
<trkpt lat="53.350771" lon="-1.808750"><ele>506</ele><time>2022-03-19T09:55:37Z</time><name>PT649</name></trkpt>
<trkpt lat="53.350781" lon="-1.808741"><ele>506</ele><time>2022-03-19T09:55:38Z</time><name>PT650</name></trkpt>
<trkpt lat="53.350791" lon="-1.808731"><ele>505</ele><time>2022-03-19T09:55:39Z</time><name>PT651</name></trkpt>
<trkpt lat="53.350800" lon="-1.808725"><ele>505</ele><time>2022-03-19T09:55:40Z</time><name>PT652</name></trkpt>
<trkpt lat="53.350808" lon="-1.808718"><ele>504</ele><time>2022-03-19T09:55:41Z</time><name>PT653</name></trkpt>
<trkpt lat="53.350819" lon="-1.808711"><ele>504</ele><time>2022-03-19T09:55:42Z</time><name>PT654</name></trkpt>
<trkpt lat="53.350829" lon="-1.808706"><ele>504</ele><time>2022-03-19T09:55:43Z</time><name>PT655</name></trkpt>
<trkpt lat="53.350839" lon="-1.808700"><ele>504</ele><time>2022-03-19T09:55:44Z</time><name>PT656</name></trkpt>
<trkpt lat="53.350849" lon="-1.808696"><ele>503</ele><time>2022-03-19T09:55:45Z</time><name>PT657</name></trkpt>
<trkpt lat="53.350859" lon="-1.808693"><ele>503</ele><time>2022-03-19T09:55:46Z</time><name>PT658</name></trkpt>
<trkpt lat="53.350869" lon="-1.808689"><ele>503</ele><time>2022-03-19T09:55:47Z</time><name>PT659</name></trkpt>
<trkpt lat="53.350881" lon="-1.808685"><ele>503</ele><time>2022-03-19T09:55:48Z</time><name>PT660</name></trkpt>
<trkpt lat="53.350894" lon="-1.808682"><ele>503</ele><time>2022-03-19T09:55:49Z</time><name>PT661</name></trkpt>
<trkpt lat="53.350904" lon="-1.808675"><ele>503</ele><time>2022-03-19T09:55:50Z</time><name>PT662</name></trkpt>
<trkpt lat="53.350915" lon="-1.808669"><ele>502</ele><time>2022-03-19T09:55:51Z</time><name>PT663</name></trkpt>
<trkpt lat="53.350924" lon="-1.808666"><ele>502</ele><time>2022-03-19T09:55:52Z</time><name>PT664</name></trkpt>
<trkpt lat="53.350935" lon="-1.808660"><ele>502</ele><time>2022-03-19T09:55:53Z</time><name>PT665</name></trkpt>
<trkpt lat="53.350945" lon="-1.808655"><ele>501</ele><time>2022-03-19T09:55:54Z</time><name>PT666</name></trkpt>
<trkpt lat="53.350955" lon="-1.808650"><ele>501</ele><time>2022-03-19T09:55:55Z</time><name>PT667</name></trkpt>
<trkpt lat="53.350966" lon="-1.808645"><ele>501</ele><time>2022-03-19T09:55:56Z</time><name>PT668</name></trkpt>
<trkpt lat="53.350978" lon="-1.808640"><ele>500</ele><time>2022-03-19T09:55:57Z</time><name>PT669</name></trkpt>
<trkpt lat="53.350989" lon="-1.808634"><ele>500</ele><time>2022-03-19T09:55:58Z</time><name>PT670</name></trkpt>
<trkpt lat="53.350999" lon="-1.808627"><ele>499</ele><time>2022-03-19T09:55:59Z</time><name>PT671</name></trkpt>
<trkpt lat="53.351012" lon="-1.808619"><ele>499</ele><time>2022-03-19T09:56:00Z</time><name>PT672</name></trkpt>
<trkpt lat="53.351024" lon="-1.808611"><ele>499</ele><time>2022-03-19T09:56:01Z</time><name>PT673</name></trkpt>
<trkpt lat="53.351034" lon="-1.808604"><ele>499</ele><time>2022-03-19T09:56:02Z</time><name>PT674</name></trkpt>
<trkpt lat="53.351046" lon="-1.808598"><ele>499</ele><time>2022-03-19T09:56:03Z</time><name>PT675</name></trkpt>
<trkpt lat="53.351057" lon="-1.808593"><ele>499</ele><time>2022-03-19T09:56:04Z</time><name>PT676</name></trkpt>
<trkpt lat="53.351069" lon="-1.808590"><ele>499</ele><time>2022-03-19T09:56:05Z</time><name>PT677</name></trkpt>
<trkpt lat="53.351082" lon="-1.808584"><ele>499</ele><time>2022-03-19T09:56:06Z</time><name>PT678</name></trkpt>
<trkpt lat="53.351093" lon="-1.808577"><ele>499</ele><time>2022-03-19T09:56:07Z</time><name>PT679</name></trkpt>
<trkpt lat="53.351104" lon="-1.808568"><ele>499</ele><time>2022-03-19T09:56:08Z</time><name>PT680</name></trkpt>
<trkpt lat="53.351113" lon="-1.808562"><ele>499</ele><time>2022-03-19T09:56:09Z</time><name>PT681</name></trkpt>
<trkpt lat="53.351124" lon="-1.808557"><ele>499</ele><time>2022-03-19T09:56:10Z</time><name>PT682</name></trkpt>
<trkpt lat="53.351135" lon="-1.808555"><ele>499</ele><time>2022-03-19T09:56:11Z</time><name>PT683</name></trkpt>
<trkpt lat="53.351147" lon="-1.808552"><ele>499</ele><time>2022-03-19T09:56:12Z</time><name>PT684</name></trkpt>
<trkpt lat="53.351161" lon="-1.808550"><ele>499</ele><time>2022-03-19T09:56:13Z</time><name>PT685</name></trkpt>
<trkpt lat="53.351176" lon="-1.808548"><ele>499</ele><time>2022-03-19T09:56:14Z</time><name>PT686</name></trkpt>
<trkpt lat="53.351191" lon="-1.808543"><ele>499</ele><time>2022-03-19T09:56:15Z</time><name>PT687</name></trkpt>
<trkpt lat="53.351201" lon="-1.808536"><ele>499</ele><time>2022-03-19T09:56:16Z</time><name>PT688</name></trkpt>
<trkpt lat="53.351213" lon="-1.808531"><ele>499</ele><time>2022-03-19T09:56:17Z</time><name>PT689</name></trkpt>
<trkpt lat="53.351226" lon="-1.808526"><ele>499</ele><time>2022-03-19T09:56:18Z</time><name>PT690</name></trkpt>
<trkpt lat="53.351238" lon="-1.808522"><ele>499</ele><time>2022-03-19T09:56:19Z</time><name>PT691</name></trkpt>
<trkpt lat="53.351250" lon="-1.808519"><ele>499</ele><time>2022-03-19T09:56:20Z</time><name>PT692</name></trkpt>
<trkpt lat="53.351262" lon="-1.808515"><ele>499</ele><time>2022-03-19T09:56:21Z</time><name>PT693</name></trkpt>
<trkpt lat="53.351276" lon="-1.808511"><ele>499</ele><time>2022-03-19T09:56:22Z</time><name>PT694</name></trkpt>
<trkpt lat="53.351287" lon="-1.808506"><ele>499</ele><time>2022-03-19T09:56:23Z</time><name>PT695</name></trkpt>
<trkpt lat="53.351332" lon="-1.808484"><ele>499</ele><time>2022-03-19T09:56:27Z</time><name>PT696</name></trkpt>
<trkpt lat="53.351368" lon="-1.808473"><ele>498</ele><time>2022-03-19T09:56:30Z</time><name>PT697</name></trkpt>
<trkpt lat="53.351396" lon="-1.808462"><ele>498</ele><time>2022-03-19T09:56:33Z</time><name>PT698</name></trkpt>
<trkpt lat="53.351420" lon="-1.808456"><ele>498</ele><time>2022-03-19T09:56:36Z</time><name>PT699</name></trkpt>
<trkpt lat="53.351469" lon="-1.808438"><ele>498</ele><time>2022-03-19T09:56:40Z</time><name>PT700</name></trkpt>
<trkpt lat="53.351507" lon="-1.808428"><ele>498</ele><time>2022-03-19T09:56:43Z</time><name>PT701</name></trkpt>
<trkpt lat="53.351545" lon="-1.808409"><ele>498</ele><time>2022-03-19T09:56:46Z</time><name>PT702</name></trkpt>
<trkpt lat="53.351594" lon="-1.808395"><ele>500</ele><time>2022-03-19T09:56:50Z</time><name>PT703</name></trkpt>
<trkpt lat="53.351628" lon="-1.808379"><ele>499</ele><time>2022-03-19T09:56:53Z</time><name>PT704</name></trkpt>
<trkpt lat="53.351656" lon="-1.808373"><ele>499</ele><time>2022-03-19T09:56:56Z</time><name>PT705</name></trkpt>
<trkpt lat="53.351683" lon="-1.808374"><ele>498</ele><time>2022-03-19T09:57:00Z</time><name>PT706</name></trkpt>
<trkpt lat="53.351710" lon="-1.808361"><ele>497</ele><time>2022-03-19T09:57:03Z</time><name>PT707</name></trkpt>
<trkpt lat="53.351740" lon="-1.808356"><ele>497</ele><time>2022-03-19T09:57:06Z</time><name>PT708</name></trkpt>
<trkpt lat="53.351771" lon="-1.808353"><ele>496</ele><time>2022-03-19T09:57:10Z</time><name>PT709</name></trkpt>
<trkpt lat="53.351804" lon="-1.808354"><ele>496</ele><time>2022-03-19T09:57:13Z</time><name>PT710</name></trkpt>
<trkpt lat="53.351853" lon="-1.808350"><ele>495</ele><time>2022-03-19T09:57:17Z</time><name>PT711</name></trkpt>
<trkpt lat="53.351899" lon="-1.808338"><ele>493</ele><time>2022-03-19T09:57:21Z</time><name>PT712</name></trkpt>
<trkpt lat="53.351939" lon="-1.808306"><ele>493</ele><time>2022-03-19T09:57:25Z</time><name>PT713</name></trkpt>
<trkpt lat="53.351971" lon="-1.808279"><ele>492</ele><time>2022-03-19T09:57:29Z</time><name>PT714</name></trkpt>
<trkpt lat="53.351995" lon="-1.808242"><ele>491</ele><time>2022-03-19T09:57:33Z</time><name>PT715</name></trkpt>
<trkpt lat="53.352025" lon="-1.808210"><ele>491</ele><time>2022-03-19T09:57:37Z</time><name>PT716</name></trkpt>
<trkpt lat="53.352056" lon="-1.808179"><ele>490</ele><time>2022-03-19T09:57:41Z</time><name>PT717</name></trkpt>
<trkpt lat="53.352082" lon="-1.808144"><ele>489</ele><time>2022-03-19T09:57:45Z</time><name>PT718</name></trkpt>
<trkpt lat="53.352099" lon="-1.808119"><ele>489</ele><time>2022-03-19T09:57:48Z</time><name>PT719</name></trkpt>
<trkpt lat="53.352119" lon="-1.808095"><ele>488</ele><time>2022-03-19T09:57:51Z</time><name>PT720</name></trkpt>
<trkpt lat="53.352136" lon="-1.808072"><ele>488</ele><time>2022-03-19T09:57:54Z</time><name>PT721</name></trkpt>
<trkpt lat="53.352166" lon="-1.808052"><ele>487</ele><time>2022-03-19T09:57:58Z</time><name>PT722</name></trkpt>
<trkpt lat="53.352192" lon="-1.808031"><ele>486</ele><time>2022-03-19T09:58:02Z</time><name>PT723</name></trkpt>
<trkpt lat="53.352213" lon="-1.808021"><ele>485</ele><time>2022-03-19T09:58:05Z</time><name>PT724</name></trkpt>
<trkpt lat="53.352235" lon="-1.808008"><ele>485</ele><time>2022-03-19T09:58:08Z</time><name>PT725</name></trkpt>
<trkpt lat="53.352253" lon="-1.807999"><ele>484</ele><time>2022-03-19T09:58:11Z</time><name>PT726</name></trkpt>
<trkpt lat="53.352267" lon="-1.807988"><ele>484</ele><time>2022-03-19T09:58:14Z</time><name>PT727</name></trkpt>
<trkpt lat="53.352284" lon="-1.807951"><ele>482</ele><time>2022-03-19T09:58:18Z</time><name>PT728</name></trkpt>
<trkpt lat="53.352298" lon="-1.807931"><ele>482</ele><time>2022-03-19T09:58:21Z</time><name>PT729</name></trkpt>
<trkpt lat="53.352320" lon="-1.807899"><ele>481</ele><time>2022-03-19T09:58:25Z</time><name>PT730</name></trkpt>
<trkpt lat="53.352344" lon="-1.807860"><ele>480</ele><time>2022-03-19T09:58:29Z</time><name>PT731</name></trkpt>
<trkpt lat="53.352366" lon="-1.807834"><ele>479</ele><time>2022-03-19T09:58:32Z</time><name>PT732</name></trkpt>
<trkpt lat="53.352396" lon="-1.807821"><ele>479</ele><time>2022-03-19T09:58:36Z</time><name>PT733</name></trkpt>
<trkpt lat="53.352422" lon="-1.807799"><ele>478</ele><time>2022-03-19T09:58:39Z</time><name>PT734</name></trkpt>
<trkpt lat="53.352449" lon="-1.807776"><ele>477</ele><time>2022-03-19T09:58:42Z</time><name>PT735</name></trkpt>
<trkpt lat="53.352468" lon="-1.807761"><ele>477</ele><time>2022-03-19T09:58:44Z</time><name>PT736</name></trkpt>
<trkpt lat="53.352478" lon="-1.807756"><ele>477</ele><time>2022-03-19T09:58:45Z</time><name>PT737</name></trkpt>
<trkpt lat="53.352487" lon="-1.807748"><ele>477</ele><time>2022-03-19T09:58:46Z</time><name>PT738</name></trkpt>
<trkpt lat="53.352495" lon="-1.807733"><ele>477</ele><time>2022-03-19T09:58:47Z</time><name>PT739</name></trkpt>
<trkpt lat="53.352511" lon="-1.807710"><ele>477</ele><time>2022-03-19T09:58:48Z</time><name>PT740</name></trkpt>
<trkpt lat="53.352515" lon="-1.807701"><ele>477</ele><time>2022-03-19T09:58:49Z</time><name>PT741</name></trkpt>
<trkpt lat="53.352524" lon="-1.807690"><ele>476</ele><time>2022-03-19T09:58:50Z</time><name>PT742</name></trkpt>
<trkpt lat="53.352532" lon="-1.807685"><ele>475</ele><time>2022-03-19T09:58:51Z</time><name>PT743</name></trkpt>
<trkpt lat="53.352539" lon="-1.807677"><ele>475</ele><time>2022-03-19T09:58:52Z</time><name>PT744</name></trkpt>
<trkpt lat="53.352547" lon="-1.807667"><ele>475</ele><time>2022-03-19T09:58:53Z</time><name>PT745</name></trkpt>
<trkpt lat="53.352557" lon="-1.807659"><ele>475</ele><time>2022-03-19T09:58:54Z</time><name>PT746</name></trkpt>
<trkpt lat="53.352564" lon="-1.807652"><ele>474</ele><time>2022-03-19T09:58:55Z</time><name>PT747</name></trkpt>
<trkpt lat="53.352569" lon="-1.807643"><ele>475</ele><time>2022-03-19T09:58:56Z</time><name>PT748</name></trkpt>
<trkpt lat="53.352578" lon="-1.807635"><ele>475</ele><time>2022-03-19T09:58:57Z</time><name>PT749</name></trkpt>
<trkpt lat="53.352589" lon="-1.807626"><ele>475</ele><time>2022-03-19T09:58:58Z</time><name>PT750</name></trkpt>
<trkpt lat="53.352598" lon="-1.807618"><ele>474</ele><time>2022-03-19T09:58:59Z</time><name>PT751</name></trkpt>
<trkpt lat="53.352604" lon="-1.807606"><ele>474</ele><time>2022-03-19T09:59:00Z</time><name>PT752</name></trkpt>
<trkpt lat="53.352612" lon="-1.807599"><ele>474</ele><time>2022-03-19T09:59:01Z</time><name>PT753</name></trkpt>
<trkpt lat="53.352619" lon="-1.807594"><ele>474</ele><time>2022-03-19T09:59:02Z</time><name>PT754</name></trkpt>
<trkpt lat="53.352628" lon="-1.807587"><ele>474</ele><time>2022-03-19T09:59:03Z</time><name>PT755</name></trkpt>
<trkpt lat="53.352641" lon="-1.807575"><ele>474</ele><time>2022-03-19T09:59:04Z</time><name>PT756</name></trkpt>
<trkpt lat="53.352652" lon="-1.807566"><ele>474</ele><time>2022-03-19T09:59:05Z</time><name>PT757</name></trkpt>
<trkpt lat="53.352662" lon="-1.807560"><ele>474</ele><time>2022-03-19T09:59:06Z</time><name>PT758</name></trkpt>
<trkpt lat="53.352672" lon="-1.807555"><ele>474</ele><time>2022-03-19T09:59:07Z</time><name>PT759</name></trkpt>
<trkpt lat="53.352683" lon="-1.807548"><ele>473</ele><time>2022-03-19T09:59:08Z</time><name>PT760</name></trkpt>
<trkpt lat="53.352688" lon="-1.807541"><ele>473</ele><time>2022-03-19T09:59:09Z</time><name>PT761</name></trkpt>
<trkpt lat="53.352696" lon="-1.807532"><ele>472</ele><time>2022-03-19T09:59:10Z</time><name>PT762</name></trkpt>
<trkpt lat="53.352704" lon="-1.807521"><ele>472</ele><time>2022-03-19T09:59:11Z</time><name>PT763</name></trkpt>
<trkpt lat="53.352712" lon="-1.807512"><ele>472</ele><time>2022-03-19T09:59:12Z</time><name>PT764</name></trkpt>
<trkpt lat="53.352721" lon="-1.807504"><ele>472</ele><time>2022-03-19T09:59:12Z</time><name>PT765</name></trkpt>
<trkpt lat="53.352728" lon="-1.807494"><ele>472</ele><time>2022-03-19T09:59:14Z</time><name>PT766</name></trkpt>
<trkpt lat="53.352735" lon="-1.807483"><ele>471</ele><time>2022-03-19T09:59:15Z</time><name>PT767</name></trkpt>
<trkpt lat="53.352745" lon="-1.807473"><ele>471</ele><time>2022-03-19T09:59:16Z</time><name>PT768</name></trkpt>
<trkpt lat="53.352757" lon="-1.807459"><ele>471</ele><time>2022-03-19T09:59:17Z</time><name>PT769</name></trkpt>
<trkpt lat="53.352763" lon="-1.807447"><ele>470</ele><time>2022-03-19T09:59:18Z</time><name>PT770</name></trkpt>
<trkpt lat="53.352772" lon="-1.807434"><ele>471</ele><time>2022-03-19T09:59:18Z</time><name>PT771</name></trkpt>
<trkpt lat="53.352782" lon="-1.807426"><ele>471</ele><time>2022-03-19T09:59:20Z</time><name>PT772</name></trkpt>
<trkpt lat="53.352793" lon="-1.807414"><ele>471</ele><time>2022-03-19T09:59:21Z</time><name>PT773</name></trkpt>
<trkpt lat="53.352800" lon="-1.807400"><ele>470</ele><time>2022-03-19T09:59:22Z</time><name>PT774</name></trkpt>
<trkpt lat="53.352811" lon="-1.807383"><ele>470</ele><time>2022-03-19T09:59:23Z</time><name>PT775</name></trkpt>
<trkpt lat="53.352819" lon="-1.807373"><ele>470</ele><time>2022-03-19T09:59:24Z</time><name>PT776</name></trkpt>
<trkpt lat="53.352827" lon="-1.807363"><ele>470</ele><time>2022-03-19T09:59:25Z</time><name>PT777</name></trkpt>
<trkpt lat="53.352837" lon="-1.807356"><ele>470</ele><time>2022-03-19T09:59:26Z</time><name>PT778</name></trkpt>
<trkpt lat="53.352847" lon="-1.807347"><ele>470</ele><time>2022-03-19T09:59:27Z</time><name>PT779</name></trkpt>
<trkpt lat="53.352855" lon="-1.807340"><ele>470</ele><time>2022-03-19T09:59:28Z</time><name>PT780</name></trkpt>
<trkpt lat="53.352865" lon="-1.807331"><ele>469</ele><time>2022-03-19T09:59:29Z</time><name>PT781</name></trkpt>
<trkpt lat="53.352873" lon="-1.807321"><ele>469</ele><time>2022-03-19T09:59:30Z</time><name>PT782</name></trkpt>
<trkpt lat="53.352882" lon="-1.807313"><ele>469</ele><time>2022-03-19T09:59:31Z</time><name>PT783</name></trkpt>
<trkpt lat="53.352888" lon="-1.807304"><ele>468</ele><time>2022-03-19T09:59:32Z</time><name>PT784</name></trkpt>
<trkpt lat="53.352895" lon="-1.807292"><ele>468</ele><time>2022-03-19T09:59:33Z</time><name>PT785</name></trkpt>
<trkpt lat="53.352900" lon="-1.807285"><ele>468</ele><time>2022-03-19T09:59:34Z</time><name>PT786</name></trkpt>
<trkpt lat="53.352908" lon="-1.807278"><ele>468</ele><time>2022-03-19T09:59:35Z</time><name>PT787</name></trkpt>
<trkpt lat="53.352917" lon="-1.807269"><ele>468</ele><time>2022-03-19T09:59:36Z</time><name>PT788</name></trkpt>
<trkpt lat="53.352925" lon="-1.807261"><ele>468</ele><time>2022-03-19T09:59:37Z</time><name>PT789</name></trkpt>
<trkpt lat="53.352935" lon="-1.807254"><ele>468</ele><time>2022-03-19T09:59:38Z</time><name>PT790</name></trkpt>
<trkpt lat="53.352946" lon="-1.807247"><ele>468</ele><time>2022-03-19T09:59:39Z</time><name>PT791</name></trkpt>
<trkpt lat="53.352958" lon="-1.807240"><ele>467</ele><time>2022-03-19T09:59:40Z</time><name>PT792</name></trkpt>
<trkpt lat="53.352969" lon="-1.807230"><ele>467</ele><time>2022-03-19T09:59:41Z</time><name>PT793</name></trkpt>
<trkpt lat="53.352979" lon="-1.807222"><ele>467</ele><time>2022-03-19T09:59:42Z</time><name>PT794</name></trkpt>
<trkpt lat="53.352987" lon="-1.807214"><ele>466</ele><time>2022-03-19T09:59:43Z</time><name>PT795</name></trkpt>
<trkpt lat="53.352996" lon="-1.807206"><ele>466</ele><time>2022-03-19T09:59:44Z</time><name>PT796</name></trkpt>
<trkpt lat="53.353005" lon="-1.807200"><ele>466</ele><time>2022-03-19T09:59:45Z</time><name>PT797</name></trkpt>
<trkpt lat="53.353012" lon="-1.807195"><ele>466</ele><time>2022-03-19T09:59:46Z</time><name>PT798</name></trkpt>
<trkpt lat="53.353020" lon="-1.807185"><ele>465</ele><time>2022-03-19T09:59:47Z</time><name>PT799</name></trkpt>
<trkpt lat="53.353032" lon="-1.807172"><ele>465</ele><time>2022-03-19T09:59:48Z</time><name>PT800</name></trkpt>
<trkpt lat="53.353042" lon="-1.807168"><ele>465</ele><time>2022-03-19T09:59:49Z</time><name>PT801</name></trkpt>
<trkpt lat="53.353053" lon="-1.807162"><ele>465</ele><time>2022-03-19T09:59:50Z</time><name>PT802</name></trkpt>
<trkpt lat="53.353066" lon="-1.807153"><ele>464</ele><time>2022-03-19T09:59:51Z</time><name>PT803</name></trkpt>
<trkpt lat="53.353075" lon="-1.807144"><ele>464</ele><time>2022-03-19T09:59:52Z</time><name>PT804</name></trkpt>
<trkpt lat="53.353085" lon="-1.807133"><ele>464</ele><time>2022-03-19T09:59:53Z</time><name>PT805</name></trkpt>
<trkpt lat="53.353095" lon="-1.807123"><ele>464</ele><time>2022-03-19T09:59:54Z</time><name>PT806</name></trkpt>
<trkpt lat="53.353108" lon="-1.807113"><ele>464</ele><time>2022-03-19T09:59:55Z</time><name>PT807</name></trkpt>
<trkpt lat="53.353118" lon="-1.807106"><ele>464</ele><time>2022-03-19T09:59:56Z</time><name>PT808</name></trkpt>
<trkpt lat="53.353129" lon="-1.807100"><ele>464</ele><time>2022-03-19T09:59:57Z</time><name>PT809</name></trkpt>
<trkpt lat="53.353140" lon="-1.807094"><ele>464</ele><time>2022-03-19T09:59:58Z</time><name>PT810</name></trkpt>
<trkpt lat="53.353153" lon="-1.807085"><ele>464</ele><time>2022-03-19T09:59:59Z</time><name>PT811</name></trkpt>
<trkpt lat="53.353166" lon="-1.807079"><ele>464</ele><time>2022-03-19T10:00:00Z</time><name>PT812</name></trkpt>
<trkpt lat="53.353174" lon="-1.807076"><ele>464</ele><time>2022-03-19T10:00:00Z</time><name>PT813</name></trkpt>
<trkpt lat="53.353184" lon="-1.807069"><ele>463</ele><time>2022-03-19T10:00:02Z</time><name>PT814</name></trkpt>
<trkpt lat="53.353193" lon="-1.807065"><ele>463</ele><time>2022-03-19T10:00:03Z</time><name>PT815</name></trkpt>
<trkpt lat="53.353203" lon="-1.807055"><ele>463</ele><time>2022-03-19T10:00:04Z</time><name>PT816</name></trkpt>
<trkpt lat="53.353212" lon="-1.807049"><ele>462</ele><time>2022-03-19T10:00:05Z</time><name>PT817</name></trkpt>
<trkpt lat="53.353223" lon="-1.807043"><ele>462</ele><time>2022-03-19T10:00:06Z</time><name>PT818</name></trkpt>
<trkpt lat="53.353232" lon="-1.807035"><ele>462</ele><time>2022-03-19T10:00:07Z</time><name>PT819</name></trkpt>
<trkpt lat="53.353240" lon="-1.807029"><ele>462</ele><time>2022-03-19T10:00:08Z</time><name>PT820</name></trkpt>
<trkpt lat="53.353252" lon="-1.807018"><ele>462</ele><time>2022-03-19T10:00:09Z</time><name>PT821</name></trkpt>
<trkpt lat="53.353261" lon="-1.807010"><ele>462</ele><time>2022-03-19T10:00:10Z</time><name>PT822</name></trkpt>
<trkpt lat="53.353267" lon="-1.807005"><ele>461</ele><time>2022-03-19T10:00:11Z</time><name>PT823</name></trkpt>
<trkpt lat="53.353275" lon="-1.806999"><ele>461</ele><time>2022-03-19T10:00:12Z</time><name>PT824</name></trkpt>
<trkpt lat="53.353284" lon="-1.806993"><ele>461</ele><time>2022-03-19T10:00:13Z</time><name>PT825</name></trkpt>
<trkpt lat="53.353294" lon="-1.806988"><ele>461</ele><time>2022-03-19T10:00:14Z</time><name>PT826</name></trkpt>
<trkpt lat="53.353305" lon="-1.806983"><ele>461</ele><time>2022-03-19T10:00:15Z</time><name>PT827</name></trkpt>
<trkpt lat="53.353316" lon="-1.806977"><ele>461</ele><time>2022-03-19T10:00:16Z</time><name>PT828</name></trkpt>
<trkpt lat="53.353326" lon="-1.806970"><ele>461</ele><time>2022-03-19T10:00:17Z</time><name>PT829</name></trkpt>
<trkpt lat="53.353335" lon="-1.806966"><ele>461</ele><time>2022-03-19T10:00:18Z</time><name>PT830</name></trkpt>
<trkpt lat="53.353346" lon="-1.806961"><ele>461</ele><time>2022-03-19T10:00:19Z</time><name>PT831</name></trkpt>
<trkpt lat="53.353360" lon="-1.806956"><ele>461</ele><time>2022-03-19T10:00:20Z</time><name>PT832</name></trkpt>
<trkpt lat="53.353370" lon="-1.806950"><ele>461</ele><time>2022-03-19T10:00:21Z</time><name>PT833</name></trkpt>
<trkpt lat="53.353383" lon="-1.806941"><ele>461</ele><time>2022-03-19T10:00:22Z</time><name>PT834</name></trkpt>
<trkpt lat="53.353393" lon="-1.806930"><ele>461</ele><time>2022-03-19T10:00:23Z</time><name>PT835</name></trkpt>
<trkpt lat="53.353404" lon="-1.806922"><ele>460</ele><time>2022-03-19T10:00:24Z</time><name>PT836</name></trkpt>
<trkpt lat="53.353415" lon="-1.806916"><ele>460</ele><time>2022-03-19T10:00:24Z</time><name>PT837</name></trkpt>
<trkpt lat="53.353427" lon="-1.806907"><ele>460</ele><time>2022-03-19T10:00:26Z</time><name>PT838</name></trkpt>
<trkpt lat="53.353436" lon="-1.806901"><ele>460</ele><time>2022-03-19T10:00:27Z</time><name>PT839</name></trkpt>
<trkpt lat="53.353446" lon="-1.806895"><ele>460</ele><time>2022-03-19T10:00:27Z</time><name>PT840</name></trkpt>
<trkpt lat="53.353454" lon="-1.806888"><ele>459</ele><time>2022-03-19T10:00:29Z</time><name>PT841</name></trkpt>
<trkpt lat="53.353460" lon="-1.806880"><ele>459</ele><time>2022-03-19T10:00:30Z</time><name>PT842</name></trkpt>
<trkpt lat="53.353469" lon="-1.806870"><ele>459</ele><time>2022-03-19T10:00:31Z</time><name>PT843</name></trkpt>
<trkpt lat="53.353478" lon="-1.806861"><ele>459</ele><time>2022-03-19T10:00:32Z</time><name>PT844</name></trkpt>
<trkpt lat="53.353487" lon="-1.806851"><ele>459</ele><time>2022-03-19T10:00:33Z</time><name>PT845</name></trkpt>
<trkpt lat="53.353498" lon="-1.806844"><ele>458</ele><time>2022-03-19T10:00:34Z</time><name>PT846</name></trkpt>
<trkpt lat="53.353508" lon="-1.806839"><ele>458</ele><time>2022-03-19T10:00:35Z</time><name>PT847</name></trkpt>
<trkpt lat="53.353519" lon="-1.806835"><ele>458</ele><time>2022-03-19T10:00:36Z</time><name>PT848</name></trkpt>
<trkpt lat="53.353529" lon="-1.806828"><ele>458</ele><time>2022-03-19T10:00:36Z</time><name>PT849</name></trkpt>
<trkpt lat="53.353538" lon="-1.806823"><ele>458</ele><time>2022-03-19T10:00:38Z</time><name>PT850</name></trkpt>
<trkpt lat="53.353547" lon="-1.806816"><ele>458</ele><time>2022-03-19T10:00:39Z</time><name>PT851</name></trkpt>
<trkpt lat="53.353557" lon="-1.806807"><ele>457</ele><time>2022-03-19T10:00:40Z</time><name>PT852</name></trkpt>
<trkpt lat="53.353566" lon="-1.806798"><ele>457</ele><time>2022-03-19T10:00:41Z</time><name>PT853</name></trkpt>
<trkpt lat="53.353575" lon="-1.806794"><ele>457</ele><time>2022-03-19T10:00:42Z</time><name>PT854</name></trkpt>
<trkpt lat="53.353586" lon="-1.806786"><ele>457</ele><time>2022-03-19T10:00:43Z</time><name>PT855</name></trkpt>
<trkpt lat="53.353617" lon="-1.806756"><ele>456</ele><time>2022-03-19T10:00:46Z</time><name>PT856</name></trkpt>
<trkpt lat="53.353652" lon="-1.806736"><ele>455</ele><time>2022-03-19T10:00:50Z</time><name>PT857</name></trkpt>
<trkpt lat="53.353688" lon="-1.806707"><ele>453</ele><time>2022-03-19T10:00:54Z</time><name>PT858</name></trkpt>
<trkpt lat="53.353715" lon="-1.806693"><ele>453</ele><time>2022-03-19T10:00:57Z</time><name>PT859</name></trkpt>
<trkpt lat="53.353748" lon="-1.806656"><ele>452</ele><time>2022-03-19T10:01:01Z</time><name>PT860</name></trkpt>
<trkpt lat="53.353786" lon="-1.806630"><ele>452</ele><time>2022-03-19T10:01:05Z</time><name>PT861</name></trkpt>
<trkpt lat="53.353815" lon="-1.806610"><ele>451</ele><time>2022-03-19T10:01:08Z</time><name>PT862</name></trkpt>
<trkpt lat="53.353848" lon="-1.806583"><ele>450</ele><time>2022-03-19T10:01:12Z</time><name>PT863</name></trkpt>
<trkpt lat="53.353881" lon="-1.806544"><ele>449</ele><time>2022-03-19T10:01:15Z</time><name>PT864</name></trkpt>
<trkpt lat="53.353924" lon="-1.806509"><ele>449</ele><time>2022-03-19T10:01:19Z</time><name>PT865</name></trkpt>
<trkpt lat="53.353955" lon="-1.806484"><ele>450</ele><time>2022-03-19T10:01:22Z</time><name>PT866</name></trkpt>
<trkpt lat="53.353987" lon="-1.806461"><ele>449</ele><time>2022-03-19T10:01:25Z</time><name>PT867</name></trkpt>
<trkpt lat="53.354019" lon="-1.806433"><ele>448</ele><time>2022-03-19T10:01:28Z</time><name>PT868</name></trkpt>
<trkpt lat="53.354063" lon="-1.806395"><ele>450</ele><time>2022-03-19T10:01:32Z</time><name>PT869</name></trkpt>
<trkpt lat="53.354089" lon="-1.806364"><ele>448</ele><time>2022-03-19T10:01:35Z</time><name>PT870</name></trkpt>
<trkpt lat="53.354132" lon="-1.806322"><ele>448</ele><time>2022-03-19T10:01:39Z</time><name>PT871</name></trkpt>
<trkpt lat="53.354159" lon="-1.806295"><ele>447</ele><time>2022-03-19T10:01:42Z</time><name>PT872</name></trkpt>
<trkpt lat="53.354195" lon="-1.806259"><ele>447</ele><time>2022-03-19T10:01:46Z</time><name>PT873</name></trkpt>
<trkpt lat="53.354227" lon="-1.806228"><ele>447</ele><time>2022-03-19T10:01:49Z</time><name>PT874</name></trkpt>
<trkpt lat="53.354269" lon="-1.806188"><ele>446</ele><time>2022-03-19T10:01:53Z</time><name>PT875</name></trkpt>
<trkpt lat="53.354294" lon="-1.806166"><ele>445</ele><time>2022-03-19T10:01:56Z</time><name>PT876</name></trkpt>
<trkpt lat="53.354335" lon="-1.806131"><ele>444</ele><time>2022-03-19T10:02:00Z</time><name>PT877</name></trkpt>
<trkpt lat="53.354366" lon="-1.806108"><ele>443</ele><time>2022-03-19T10:02:03Z</time><name>PT878</name></trkpt>
<trkpt lat="53.354394" lon="-1.806076"><ele>443</ele><time>2022-03-19T10:02:06Z</time><name>PT879</name></trkpt>
<trkpt lat="53.354436" lon="-1.806041"><ele>442</ele><time>2022-03-19T10:02:10Z</time><name>PT880</name></trkpt>
<trkpt lat="53.354471" lon="-1.806016"><ele>442</ele><time>2022-03-19T10:02:13Z</time><name>PT881</name></trkpt>
<trkpt lat="53.354513" lon="-1.805964"><ele>442</ele><time>2022-03-19T10:02:17Z</time><name>PT882</name></trkpt>
<trkpt lat="53.354540" lon="-1.805930"><ele>442</ele><time>2022-03-19T10:02:20Z</time><name>PT883</name></trkpt>
<trkpt lat="53.354572" lon="-1.805897"><ele>441</ele><time>2022-03-19T10:02:23Z</time><name>PT884</name></trkpt>
<trkpt lat="53.354599" lon="-1.805866"><ele>441</ele><time>2022-03-19T10:02:26Z</time><name>PT885</name></trkpt>
<trkpt lat="53.354628" lon="-1.805832"><ele>441</ele><time>2022-03-19T10:02:29Z</time><name>PT886</name></trkpt>
<trkpt lat="53.354671" lon="-1.805791"><ele>440</ele><time>2022-03-19T10:02:33Z</time><name>PT887</name></trkpt>
<trkpt lat="53.354717" lon="-1.805748"><ele>440</ele><time>2022-03-19T10:02:36Z</time><name>PT888</name></trkpt>
<trkpt lat="53.354745" lon="-1.805721"><ele>439</ele><time>2022-03-19T10:02:40Z</time><name>PT889</name></trkpt>
<trkpt lat="53.354780" lon="-1.805701"><ele>439</ele><time>2022-03-19T10:02:43Z</time><name>PT890</name></trkpt>
<trkpt lat="53.354813" lon="-1.805678"><ele>439</ele><time>2022-03-19T10:02:46Z</time><name>PT891</name></trkpt>
<trkpt lat="53.354855" lon="-1.805659"><ele>439</ele><time>2022-03-19T10:02:50Z</time><name>PT892</name></trkpt>
<trkpt lat="53.354888" lon="-1.805640"><ele>438</ele><time>2022-03-19T10:02:53Z</time><name>PT893</name></trkpt>
<trkpt lat="53.354914" lon="-1.805625"><ele>438</ele><time>2022-03-19T10:02:56Z</time><name>PT894</name></trkpt>
<trkpt lat="53.354954" lon="-1.805613"><ele>437</ele><time>2022-03-19T10:03:00Z</time><name>PT895</name></trkpt>
<trkpt lat="53.354996" lon="-1.805590"><ele>437</ele><time>2022-03-19T10:03:04Z</time><name>PT896</name></trkpt>
<trkpt lat="53.355031" lon="-1.805556"><ele>436</ele><time>2022-03-19T10:03:08Z</time><name>PT897</name></trkpt>
<trkpt lat="53.355072" lon="-1.805512"><ele>435</ele><time>2022-03-19T10:03:12Z</time><name>PT898</name></trkpt>
<trkpt lat="53.355103" lon="-1.805480"><ele>435</ele><time>2022-03-19T10:03:15Z</time><name>PT899</name></trkpt>
<trkpt lat="53.355137" lon="-1.805431"><ele>434</ele><time>2022-03-19T10:03:19Z</time><name>PT900</name></trkpt>
<trkpt lat="53.355170" lon="-1.805383"><ele>434</ele><time>2022-03-19T10:03:23Z</time><name>PT901</name></trkpt>
<trkpt lat="53.355196" lon="-1.805339"><ele>434</ele><time>2022-03-19T10:03:26Z</time><name>PT902</name></trkpt>
<trkpt lat="53.355232" lon="-1.805275"><ele>434</ele><time>2022-03-19T10:03:30Z</time><name>PT903</name></trkpt>
<trkpt lat="53.355260" lon="-1.805233"><ele>433</ele><time>2022-03-19T10:03:33Z</time><name>PT904</name></trkpt>
<trkpt lat="53.355282" lon="-1.805193"><ele>433</ele><time>2022-03-19T10:03:36Z</time><name>PT905</name></trkpt>
<trkpt lat="53.355316" lon="-1.805144"><ele>432</ele><time>2022-03-19T10:03:40Z</time><name>PT906</name></trkpt>
<trkpt lat="53.355342" lon="-1.805102"><ele>432</ele><time>2022-03-19T10:03:43Z</time><name>PT907</name></trkpt>
<trkpt lat="53.355372" lon="-1.805049"><ele>431</ele><time>2022-03-19T10:03:47Z</time><name>PT908</name></trkpt>
<trkpt lat="53.355403" lon="-1.804994"><ele>431</ele><time>2022-03-19T10:03:51Z</time><name>PT909</name></trkpt>
<trkpt lat="53.355424" lon="-1.804943"><ele>430</ele><time>2022-03-19T10:03:54Z</time><name>PT910</name></trkpt>
<trkpt lat="53.355453" lon="-1.804889"><ele>429</ele><time>2022-03-19T10:03:59Z</time><name>PT911</name></trkpt>
<trkpt lat="53.355488" lon="-1.804822"><ele>429</ele><time>2022-03-19T10:04:03Z</time><name>PT912</name></trkpt>
<trkpt lat="53.355513" lon="-1.804780"><ele>429</ele><time>2022-03-19T10:04:06Z</time><name>PT913</name></trkpt>
<trkpt lat="53.355549" lon="-1.804729"><ele>428</ele><time>2022-03-19T10:04:10Z</time><name>PT914</name></trkpt>
<trkpt lat="53.355575" lon="-1.804694"><ele>428</ele><time>2022-03-19T10:04:13Z</time><name>PT915</name></trkpt>
<trkpt lat="53.355609" lon="-1.804650"><ele>428</ele><time>2022-03-19T10:04:17Z</time><name>PT916</name></trkpt>
<trkpt lat="53.355638" lon="-1.804635"><ele>429</ele><time>2022-03-19T10:04:20Z</time><name>PT917</name></trkpt>
<trkpt lat="53.355658" lon="-1.804630"><ele>429</ele><time>2022-03-19T10:04:23Z</time><name>PT918</name></trkpt>
<trkpt lat="53.355679" lon="-1.804596"><ele>428</ele><time>2022-03-19T10:04:27Z</time><name>PT919</name></trkpt>
<trkpt lat="53.355701" lon="-1.804548"><ele>428</ele><time>2022-03-19T10:04:31Z</time><name>PT920</name></trkpt>
<trkpt lat="53.355721" lon="-1.804509"><ele>428</ele><time>2022-03-19T10:04:34Z</time><name>PT921</name></trkpt>
<trkpt lat="53.355749" lon="-1.804450"><ele>427</ele><time>2022-03-19T10:04:38Z</time><name>PT922</name></trkpt>
<trkpt lat="53.355764" lon="-1.804406"><ele>427</ele><time>2022-03-19T10:04:41Z</time><name>PT923</name></trkpt>
<trkpt lat="53.355798" lon="-1.804351"><ele>427</ele><time>2022-03-19T10:04:45Z</time><name>PT924</name></trkpt>
<trkpt lat="53.355822" lon="-1.804284"><ele>426</ele><time>2022-03-19T10:04:48Z</time><name>PT925</name></trkpt>
<trkpt lat="53.355852" lon="-1.804215"><ele>426</ele><time>2022-03-19T10:04:53Z</time><name>PT926</name></trkpt>
<trkpt lat="53.355871" lon="-1.804157"><ele>426</ele><time>2022-03-19T10:04:56Z</time><name>PT927</name></trkpt>
<trkpt lat="53.355900" lon="-1.804092"><ele>425</ele><time>2022-03-19T10:05:00Z</time><name>PT928</name></trkpt>
<trkpt lat="53.355917" lon="-1.804037"><ele>424</ele><time>2022-03-19T10:05:03Z</time><name>PT929</name></trkpt>
<trkpt lat="53.355948" lon="-1.803965"><ele>424</ele><time>2022-03-19T10:05:07Z</time><name>PT930</name></trkpt>
<trkpt lat="53.355969" lon="-1.803912"><ele>423</ele><time>2022-03-19T10:05:10Z</time><name>PT931</name></trkpt>
<trkpt lat="53.355990" lon="-1.803842"><ele>423</ele><time>2022-03-19T10:05:14Z</time><name>PT932</name></trkpt>
<trkpt lat="53.356015" lon="-1.803785"><ele>422</ele><time>2022-03-19T10:05:17Z</time><name>PT933</name></trkpt>
<trkpt lat="53.356043" lon="-1.803717"><ele>422</ele><time>2022-03-19T10:05:21Z</time><name>PT934</name></trkpt>
<trkpt lat="53.356054" lon="-1.803691"><ele>421</ele><time>2022-03-19T10:05:23Z</time><name>PT935</name></trkpt>
<trkpt lat="53.356060" lon="-1.803684"><ele>421</ele><time>2022-03-19T10:05:24Z</time><name>PT936</name></trkpt>
<trkpt lat="53.356072" lon="-1.803658"><ele>421</ele><time>2022-03-19T10:05:25Z</time><name>PT937</name></trkpt>
<trkpt lat="53.356081" lon="-1.803641"><ele>422</ele><time>2022-03-19T10:05:26Z</time><name>PT938</name></trkpt>
<trkpt lat="53.356086" lon="-1.803616"><ele>422</ele><time>2022-03-19T10:05:27Z</time><name>PT939</name></trkpt>
<trkpt lat="53.356096" lon="-1.803597"><ele>422</ele><time>2022-03-19T10:05:28Z</time><name>PT940</name></trkpt>
<trkpt lat="53.356103" lon="-1.803580"><ele>422</ele><time>2022-03-19T10:05:29Z</time><name>PT941</name></trkpt>
<trkpt lat="53.356109" lon="-1.803563"><ele>422</ele><time>2022-03-19T10:05:30Z</time><name>PT942</name></trkpt>
<trkpt lat="53.356116" lon="-1.803547"><ele>421</ele><time>2022-03-19T10:05:31Z</time><name>PT943</name></trkpt>
<trkpt lat="53.356122" lon="-1.803528"><ele>421</ele><time>2022-03-19T10:05:32Z</time><name>PT944</name></trkpt>
<trkpt lat="53.356129" lon="-1.803510"><ele>421</ele><time>2022-03-19T10:05:33Z</time><name>PT945</name></trkpt>
<trkpt lat="53.356137" lon="-1.803496"><ele>421</ele><time>2022-03-19T10:05:34Z</time><name>PT946</name></trkpt>
<trkpt lat="53.356145" lon="-1.803480"><ele>421</ele><time>2022-03-19T10:05:35Z</time><name>PT947</name></trkpt>
<trkpt lat="53.356152" lon="-1.803463"><ele>421</ele><time>2022-03-19T10:05:36Z</time><name>PT948</name></trkpt>
<trkpt lat="53.356159" lon="-1.803447"><ele>421</ele><time>2022-03-19T10:05:37Z</time><name>PT949</name></trkpt>
<trkpt lat="53.356170" lon="-1.803431"><ele>420</ele><time>2022-03-19T10:05:38Z</time><name>PT950</name></trkpt>
<trkpt lat="53.356181" lon="-1.803413"><ele>420</ele><time>2022-03-19T10:05:39Z</time><name>PT951</name></trkpt>
<trkpt lat="53.356190" lon="-1.803387"><ele>420</ele><time>2022-03-19T10:05:39Z</time><name>PT952</name></trkpt>
<trkpt lat="53.356197" lon="-1.803372"><ele>420</ele><time>2022-03-19T10:05:41Z</time><name>PT953</name></trkpt>
<trkpt lat="53.356204" lon="-1.803359"><ele>420</ele><time>2022-03-19T10:05:42Z</time><name>PT954</name></trkpt>
<trkpt lat="53.356212" lon="-1.803345"><ele>420</ele><time>2022-03-19T10:05:42Z</time><name>PT955</name></trkpt>
<trkpt lat="53.356220" lon="-1.803330"><ele>420</ele><time>2022-03-19T10:05:44Z</time><name>PT956</name></trkpt>
<trkpt lat="53.356227" lon="-1.803312"><ele>419</ele><time>2022-03-19T10:05:45Z</time><name>PT957</name></trkpt>
<trkpt lat="53.356233" lon="-1.803298"><ele>419</ele><time>2022-03-19T10:05:45Z</time><name>PT958</name></trkpt>
<trkpt lat="53.356239" lon="-1.803280"><ele>419</ele><time>2022-03-19T10:05:47Z</time><name>PT959</name></trkpt>
<trkpt lat="53.356246" lon="-1.803262"><ele>419</ele><time>2022-03-19T10:05:48Z</time><name>PT960</name></trkpt>
<trkpt lat="53.356254" lon="-1.803251"><ele>418</ele><time>2022-03-19T10:05:49Z</time><name>PT961</name></trkpt>
<trkpt lat="53.356263" lon="-1.803237"><ele>417</ele><time>2022-03-19T10:05:50Z</time><name>PT962</name></trkpt>
<trkpt lat="53.356268" lon="-1.803218"><ele>417</ele><time>2022-03-19T10:05:51Z</time><name>PT963</name></trkpt>
<trkpt lat="53.356274" lon="-1.803201"><ele>417</ele><time>2022-03-19T10:05:52Z</time><name>PT964</name></trkpt>
<trkpt lat="53.356278" lon="-1.803183"><ele>417</ele><time>2022-03-19T10:05:53Z</time><name>PT965</name></trkpt>
<trkpt lat="53.356282" lon="-1.803160"><ele>417</ele><time>2022-03-19T10:05:54Z</time><name>PT966</name></trkpt>
<trkpt lat="53.356287" lon="-1.803142"><ele>417</ele><time>2022-03-19T10:05:55Z</time><name>PT967</name></trkpt>
<trkpt lat="53.356294" lon="-1.803124"><ele>417</ele><time>2022-03-19T10:05:56Z</time><name>PT968</name></trkpt>
<trkpt lat="53.356303" lon="-1.803104"><ele>417</ele><time>2022-03-19T10:05:57Z</time><name>PT969</name></trkpt>
<trkpt lat="53.356312" lon="-1.803085"><ele>417</ele><time>2022-03-19T10:05:58Z</time><name>PT970</name></trkpt>
<trkpt lat="53.356320" lon="-1.803070"><ele>417</ele><time>2022-03-19T10:05:59Z</time><name>PT971</name></trkpt>
<trkpt lat="53.356326" lon="-1.803052"><ele>417</ele><time>2022-03-19T10:06:00Z</time><name>PT972</name></trkpt>
<trkpt lat="53.356334" lon="-1.803032"><ele>417</ele><time>2022-03-19T10:06:01Z</time><name>PT973</name></trkpt>
<trkpt lat="53.356342" lon="-1.803015"><ele>417</ele><time>2022-03-19T10:06:02Z</time><name>PT974</name></trkpt>
<trkpt lat="53.356348" lon="-1.802998"><ele>417</ele><time>2022-03-19T10:06:03Z</time><name>PT975</name></trkpt>
<trkpt lat="53.356354" lon="-1.802977"><ele>416</ele><time>2022-03-19T10:06:04Z</time><name>PT976</name></trkpt>
<trkpt lat="53.356361" lon="-1.802956"><ele>416</ele><time>2022-03-19T10:06:05Z</time><name>PT977</name></trkpt>
<trkpt lat="53.356366" lon="-1.802936"><ele>416</ele><time>2022-03-19T10:06:06Z</time><name>PT978</name></trkpt>
<trkpt lat="53.356372" lon="-1.802918"><ele>416</ele><time>2022-03-19T10:06:07Z</time><name>PT979</name></trkpt>
<trkpt lat="53.356379" lon="-1.802900"><ele>416</ele><time>2022-03-19T10:06:08Z</time><name>PT980</name></trkpt>
<trkpt lat="53.356385" lon="-1.802883"><ele>416</ele><time>2022-03-19T10:06:09Z</time><name>PT981</name></trkpt>
<trkpt lat="53.356392" lon="-1.802864"><ele>416</ele><time>2022-03-19T10:06:10Z</time><name>PT982</name></trkpt>
<trkpt lat="53.356399" lon="-1.802843"><ele>416</ele><time>2022-03-19T10:06:11Z</time><name>PT983</name></trkpt>
<trkpt lat="53.356405" lon="-1.802824"><ele>415</ele><time>2022-03-19T10:06:12Z</time><name>PT984</name></trkpt>
<trkpt lat="53.356411" lon="-1.802807"><ele>416</ele><time>2022-03-19T10:06:12Z</time><name>PT985</name></trkpt>
<trkpt lat="53.356419" lon="-1.802788"><ele>416</ele><time>2022-03-19T10:06:14Z</time><name>PT986</name></trkpt>
<trkpt lat="53.356425" lon="-1.802769"><ele>415</ele><time>2022-03-19T10:06:15Z</time><name>PT987</name></trkpt>
<trkpt lat="53.356430" lon="-1.802753"><ele>415</ele><time>2022-03-19T10:06:15Z</time><name>PT988</name></trkpt>
<trkpt lat="53.356435" lon="-1.802734"><ele>415</ele><time>2022-03-19T10:06:17Z</time><name>PT989</name></trkpt>
<trkpt lat="53.356442" lon="-1.802714"><ele>415</ele><time>2022-03-19T10:06:18Z</time><name>PT990</name></trkpt>
<trkpt lat="53.356448" lon="-1.802695"><ele>415</ele><time>2022-03-19T10:06:19Z</time><name>PT991</name></trkpt>
<trkpt lat="53.356453" lon="-1.802676"><ele>415</ele><time>2022-03-19T10:06:20Z</time><name>PT992</name></trkpt>
<trkpt lat="53.356458" lon="-1.802660"><ele>415</ele><time>2022-03-19T10:06:21Z</time><name>PT993</name></trkpt>
<trkpt lat="53.356464" lon="-1.802641"><ele>415</ele><time>2022-03-19T10:06:22Z</time><name>PT994</name></trkpt>
<trkpt lat="53.356471" lon="-1.802620"><ele>415</ele><time>2022-03-19T10:06:23Z</time><name>PT995</name></trkpt>
<trkpt lat="53.356477" lon="-1.802601"><ele>415</ele><time>2022-03-19T10:06:24Z</time><name>PT996</name></trkpt>
<trkpt lat="53.356484" lon="-1.802585"><ele>415</ele><time>2022-03-19T10:06:25Z</time><name>PT997</name></trkpt>
<trkpt lat="53.356491" lon="-1.802569"><ele>415</ele><time>2022-03-19T10:06:26Z</time><name>PT998</name></trkpt>
<trkpt lat="53.356497" lon="-1.802551"><ele>415</ele><time>2022-03-19T10:06:27Z</time><name>PT999</name></trkpt>
<trkpt lat="53.356501" lon="-1.802535"><ele>414</ele><time>2022-03-19T10:06:28Z</time><name>PT1000</name></trkpt>
<trkpt lat="53.356505" lon="-1.802519"><ele>415</ele><time>2022-03-19T10:06:29Z</time><name>PT1001</name></trkpt>
<trkpt lat="53.356511" lon="-1.802502"><ele>414</ele><time>2022-03-19T10:06:30Z</time><name>PT1002</name></trkpt>
<trkpt lat="53.356516" lon="-1.802486"><ele>414</ele><time>2022-03-19T10:06:31Z</time><name>PT1003</name></trkpt>
<trkpt lat="53.356522" lon="-1.802470"><ele>414</ele><time>2022-03-19T10:06:32Z</time><name>PT1004</name></trkpt>
<trkpt lat="53.356527" lon="-1.802454"><ele>414</ele><time>2022-03-19T10:06:33Z</time><name>PT1005</name></trkpt>
<trkpt lat="53.356533" lon="-1.802439"><ele>414</ele><time>2022-03-19T10:06:34Z</time><name>PT1006</name></trkpt>
<trkpt lat="53.356536" lon="-1.802431"><ele>413</ele><time>2022-03-19T10:06:35Z</time><name>PT1007</name></trkpt>
<trkpt lat="53.356542" lon="-1.802420"><ele>413</ele><time>2022-03-19T10:06:36Z</time><name>PT1008</name></trkpt>
<trkpt lat="53.356550" lon="-1.802399"><ele>414</ele><time>2022-03-19T10:06:37Z</time><name>PT1009</name></trkpt>
<trkpt lat="53.356558" lon="-1.802378"><ele>413</ele><time>2022-03-19T10:06:38Z</time><name>PT1010</name></trkpt>
<trkpt lat="53.356566" lon="-1.802359"><ele>413</ele><time>2022-03-19T10:06:39Z</time><name>PT1011</name></trkpt>
<trkpt lat="53.356572" lon="-1.802343"><ele>413</ele><time>2022-03-19T10:06:40Z</time><name>PT1012</name></trkpt>
<trkpt lat="53.356579" lon="-1.802323"><ele>414</ele><time>2022-03-19T10:06:41Z</time><name>PT1013</name></trkpt>
<trkpt lat="53.356585" lon="-1.802306"><ele>413</ele><time>2022-03-19T10:06:42Z</time><name>PT1014</name></trkpt>
<trkpt lat="53.356590" lon="-1.802289"><ele>413</ele><time>2022-03-19T10:06:43Z</time><name>PT1015</name></trkpt>
<trkpt lat="53.356596" lon="-1.802270"><ele>413</ele><time>2022-03-19T10:06:44Z</time><name>PT1016</name></trkpt>
<trkpt lat="53.356599" lon="-1.802252"><ele>413</ele><time>2022-03-19T10:06:45Z</time><name>PT1017</name></trkpt>
<trkpt lat="53.356604" lon="-1.802234"><ele>413</ele><time>2022-03-19T10:06:46Z</time><name>PT1018</name></trkpt>
<trkpt lat="53.356611" lon="-1.802213"><ele>413</ele><time>2022-03-19T10:06:47Z</time><name>PT1019</name></trkpt>
<trkpt lat="53.356620" lon="-1.802195"><ele>412</ele><time>2022-03-19T10:06:48Z</time><name>PT1020</name></trkpt>
<trkpt lat="53.356626" lon="-1.802178"><ele>412</ele><time>2022-03-19T10:06:49Z</time><name>PT1021</name></trkpt>
<trkpt lat="53.356634" lon="-1.802156"><ele>413</ele><time>2022-03-19T10:06:50Z</time><name>PT1022</name></trkpt>
<trkpt lat="53.356640" lon="-1.802138"><ele>412</ele><time>2022-03-19T10:06:51Z</time><name>PT1023</name></trkpt>
<trkpt lat="53.356646" lon="-1.802117"><ele>412</ele><time>2022-03-19T10:06:52Z</time><name>PT1024</name></trkpt>
<trkpt lat="53.356651" lon="-1.802097"><ele>412</ele><time>2022-03-19T10:06:53Z</time><name>PT1025</name></trkpt>
<trkpt lat="53.356658" lon="-1.802077"><ele>412</ele><time>2022-03-19T10:06:54Z</time><name>PT1026</name></trkpt>
<trkpt lat="53.356663" lon="-1.802056"><ele>412</ele><time>2022-03-19T10:06:55Z</time><name>PT1027</name></trkpt>
<trkpt lat="53.356666" lon="-1.802033"><ele>412</ele><time>2022-03-19T10:06:56Z</time><name>PT1028</name></trkpt>
<trkpt lat="53.356671" lon="-1.802014"><ele>411</ele><time>2022-03-19T10:06:57Z</time><name>PT1029</name></trkpt>
<trkpt lat="53.356676" lon="-1.801995"><ele>412</ele><time>2022-03-19T10:06:58Z</time><name>PT1030</name></trkpt>
<trkpt lat="53.356682" lon="-1.801974"><ele>411</ele><time>2022-03-19T10:06:59Z</time><name>PT1031</name></trkpt>
<trkpt lat="53.356686" lon="-1.801954"><ele>411</ele><time>2022-03-19T10:07:00Z</time><name>PT1032</name></trkpt>
<trkpt lat="53.356689" lon="-1.801933"><ele>411</ele><time>2022-03-19T10:07:00Z</time><name>PT1033</name></trkpt>
<trkpt lat="53.356691" lon="-1.801911"><ele>411</ele><time>2022-03-19T10:07:02Z</time><name>PT1034</name></trkpt>
<trkpt lat="53.356692" lon="-1.801893"><ele>411</ele><time>2022-03-19T10:07:03Z</time><name>PT1035</name></trkpt>
<trkpt lat="53.356694" lon="-1.801873"><ele>411</ele><time>2022-03-19T10:07:03Z</time><name>PT1036</name></trkpt>
<trkpt lat="53.356697" lon="-1.801852"><ele>411</ele><time>2022-03-19T10:07:05Z</time><name>PT1037</name></trkpt>
<trkpt lat="53.356698" lon="-1.801832"><ele>411</ele><time>2022-03-19T10:07:06Z</time><name>PT1038</name></trkpt>
<trkpt lat="53.356699" lon="-1.801814"><ele>411</ele><time>2022-03-19T10:07:07Z</time><name>PT1039</name></trkpt>
<trkpt lat="53.356700" lon="-1.801798"><ele>411</ele><time>2022-03-19T10:07:08Z</time><name>PT1040</name></trkpt>
<trkpt lat="53.356700" lon="-1.801783"><ele>410</ele><time>2022-03-19T10:07:09Z</time><name>PT1041</name></trkpt>
<trkpt lat="53.356701" lon="-1.801764"><ele>410</ele><time>2022-03-19T10:07:10Z</time><name>PT1042</name></trkpt>
<trkpt lat="53.356704" lon="-1.801745"><ele>410</ele><time>2022-03-19T10:07:11Z</time><name>PT1043</name></trkpt>
<trkpt lat="53.356705" lon="-1.801735"><ele>410</ele><time>2022-03-19T10:07:12Z</time><name>PT1044</name></trkpt>
<trkpt lat="53.356708" lon="-1.801730"><ele>410</ele><time>2022-03-19T10:07:12Z</time><name>PT1045</name></trkpt>
<trkpt lat="53.356708" lon="-1.801728"><ele>410</ele><time>2022-03-19T10:07:14Z</time><name>PT1046</name></trkpt>
<trkpt lat="53.356709" lon="-1.801728"><ele>409</ele><time>2022-03-19T10:07:15Z</time><name>PT1047</name></trkpt>
<trkpt lat="53.356711" lon="-1.801728"><ele>409</ele><time>2022-03-19T10:07:17Z</time><name>PT1048</name></trkpt>
<trkpt lat="53.356716" lon="-1.801717"><ele>409</ele><time>2022-03-19T10:07:18Z</time><name>PT1049</name></trkpt>
<trkpt lat="53.356719" lon="-1.801711"><ele>409</ele><time>2022-03-19T10:07:19Z</time><name>PT1050</name></trkpt>
<trkpt lat="53.356718" lon="-1.801704"><ele>409</ele><time>2022-03-19T10:07:20Z</time><name>PT1051</name></trkpt>
<trkpt lat="53.356717" lon="-1.801696"><ele>408</ele><time>2022-03-19T10:07:21Z</time><name>PT1052</name></trkpt>
<trkpt lat="53.356716" lon="-1.801692"><ele>408</ele><time>2022-03-19T10:07:22Z</time><name>PT1053</name></trkpt>
<trkpt lat="53.356714" lon="-1.801680"><ele>408</ele><time>2022-03-19T10:07:26Z</time><name>PT1054</name></trkpt>
<trkpt lat="53.356741" lon="-1.801628"><ele>408</ele><time>2022-03-19T10:07:33Z</time><name>PT1055</name></trkpt>
<trkpt lat="53.356757" lon="-1.801568"><ele>407</ele><time>2022-03-19T10:07:37Z</time><name>PT1056</name></trkpt>
<trkpt lat="53.356764" lon="-1.801507"><ele>407</ele><time>2022-03-19T10:07:41Z</time><name>PT1057</name></trkpt>
<trkpt lat="53.356771" lon="-1.801431"><ele>406</ele><time>2022-03-19T10:07:45Z</time><name>PT1058</name></trkpt>
<trkpt lat="53.356779" lon="-1.801395"><ele>405</ele><time>2022-03-19T10:07:48Z</time><name>PT1059</name></trkpt>
<trkpt lat="53.356789" lon="-1.801342"><ele>404</ele><time>2022-03-19T10:07:52Z</time><name>PT1060</name></trkpt>
<trkpt lat="53.356795" lon="-1.801299"><ele>403</ele><time>2022-03-19T10:07:56Z</time><name>PT1061</name></trkpt>
<trkpt lat="53.356802" lon="-1.801267"><ele>403</ele><time>2022-03-19T10:07:59Z</time><name>PT1062</name></trkpt>
<trkpt lat="53.356812" lon="-1.801218"><ele>403</ele><time>2022-03-19T10:08:03Z</time><name>PT1063</name></trkpt>
<trkpt lat="53.356821" lon="-1.801174"><ele>403</ele><time>2022-03-19T10:08:06Z</time><name>PT1064</name></trkpt>
<trkpt lat="53.356835" lon="-1.801103"><ele>403</ele><time>2022-03-19T10:08:10Z</time><name>PT1065</name></trkpt>
<trkpt lat="53.356845" lon="-1.801047"><ele>402</ele><time>2022-03-19T10:08:13Z</time><name>PT1066</name></trkpt>
<trkpt lat="53.356860" lon="-1.800964"><ele>402</ele><time>2022-03-19T10:08:17Z</time><name>PT1067</name></trkpt>
<trkpt lat="53.356870" lon="-1.800907"><ele>402</ele><time>2022-03-19T10:08:20Z</time><name>PT1068</name></trkpt>
<trkpt lat="53.356881" lon="-1.800846"><ele>402</ele><time>2022-03-19T10:08:23Z</time><name>PT1069</name></trkpt>
<trkpt lat="53.356896" lon="-1.800767"><ele>402</ele><time>2022-03-19T10:08:27Z</time><name>PT1070</name></trkpt>
<trkpt lat="53.356915" lon="-1.800686"><ele>402</ele><time>2022-03-19T10:08:31Z</time><name>PT1071</name></trkpt>
<trkpt lat="53.356930" lon="-1.800630"><ele>402</ele><time>2022-03-19T10:08:34Z</time><name>PT1072</name></trkpt>
<trkpt lat="53.356941" lon="-1.800570"><ele>402</ele><time>2022-03-19T10:08:37Z</time><name>PT1073</name></trkpt>
<trkpt lat="53.356962" lon="-1.800494"><ele>401</ele><time>2022-03-19T10:08:41Z</time><name>PT1074</name></trkpt>
<trkpt lat="53.356975" lon="-1.800430"><ele>400</ele><time>2022-03-19T10:08:44Z</time><name>PT1075</name></trkpt>
<trkpt lat="53.356990" lon="-1.800351"><ele>400</ele><time>2022-03-19T10:08:48Z</time><name>PT1076</name></trkpt>
<trkpt lat="53.356997" lon="-1.800289"><ele>399</ele><time>2022-03-19T10:08:51Z</time><name>PT1077</name></trkpt>
<trkpt lat="53.357011" lon="-1.800202"><ele>399</ele><time>2022-03-19T10:08:55Z</time><name>PT1078</name></trkpt>
<trkpt lat="53.357025" lon="-1.800127"><ele>399</ele><time>2022-03-19T10:08:59Z</time><name>PT1079</name></trkpt>
<trkpt lat="53.357037" lon="-1.800060"><ele>399</ele><time>2022-03-19T10:09:02Z</time><name>PT1080</name></trkpt>
<trkpt lat="53.357053" lon="-1.799985"><ele>398</ele><time>2022-03-19T10:09:06Z</time><name>PT1081</name></trkpt>
<trkpt lat="53.357068" lon="-1.799901"><ele>398</ele><time>2022-03-19T10:09:10Z</time><name>PT1082</name></trkpt>
<trkpt lat="53.357078" lon="-1.799837"><ele>398</ele><time>2022-03-19T10:09:13Z</time><name>PT1083</name></trkpt>
<trkpt lat="53.357093" lon="-1.799752"><ele>398</ele><time>2022-03-19T10:09:17Z</time><name>PT1084</name></trkpt>
<trkpt lat="53.357102" lon="-1.799695"><ele>398</ele><time>2022-03-19T10:09:20Z</time><name>PT1085</name></trkpt>
<trkpt lat="53.357108" lon="-1.799626"><ele>398</ele><time>2022-03-19T10:09:22Z</time><name>PT1086</name></trkpt>
<trkpt lat="53.357109" lon="-1.799601"><ele>399</ele><time>2022-03-19T10:09:23Z</time><name>PT1087</name></trkpt>
<trkpt lat="53.357113" lon="-1.799574"><ele>399</ele><time>2022-03-19T10:09:24Z</time><name>PT1088</name></trkpt>
<trkpt lat="53.357119" lon="-1.799548"><ele>399</ele><time>2022-03-19T10:09:25Z</time><name>PT1089</name></trkpt>
<trkpt lat="53.357123" lon="-1.799523"><ele>400</ele><time>2022-03-19T10:09:26Z</time><name>PT1090</name></trkpt>
<trkpt lat="53.357126" lon="-1.799492"><ele>400</ele><time>2022-03-19T10:09:27Z</time><name>PT1091</name></trkpt>
<trkpt lat="53.357130" lon="-1.799469"><ele>400</ele><time>2022-03-19T10:09:28Z</time><name>PT1092</name></trkpt>
<trkpt lat="53.357132" lon="-1.799445"><ele>401</ele><time>2022-03-19T10:09:29Z</time><name>PT1093</name></trkpt>
<trkpt lat="53.357136" lon="-1.799424"><ele>400</ele><time>2022-03-19T10:09:30Z</time><name>PT1094</name></trkpt>
<trkpt lat="53.357139" lon="-1.799404"><ele>400</ele><time>2022-03-19T10:09:31Z</time><name>PT1095</name></trkpt>
<trkpt lat="53.357143" lon="-1.799381"><ele>401</ele><time>2022-03-19T10:09:32Z</time><name>PT1096</name></trkpt>
<trkpt lat="53.357147" lon="-1.799362"><ele>401</ele><time>2022-03-19T10:09:33Z</time><name>PT1097</name></trkpt>
<trkpt lat="53.357150" lon="-1.799346"><ele>401</ele><time>2022-03-19T10:09:34Z</time><name>PT1098</name></trkpt>
<trkpt lat="53.357155" lon="-1.799326"><ele>400</ele><time>2022-03-19T10:09:35Z</time><name>PT1099</name></trkpt>
<trkpt lat="53.357160" lon="-1.799303"><ele>400</ele><time>2022-03-19T10:09:35Z</time><name>PT1100</name></trkpt>
<trkpt lat="53.357163" lon="-1.799279"><ele>400</ele><time>2022-03-19T10:09:37Z</time><name>PT1101</name></trkpt>
<trkpt lat="53.357164" lon="-1.799258"><ele>400</ele><time>2022-03-19T10:09:38Z</time><name>PT1102</name></trkpt>
<trkpt lat="53.357166" lon="-1.799235"><ele>400</ele><time>2022-03-19T10:09:38Z</time><name>PT1103</name></trkpt>
<trkpt lat="53.357168" lon="-1.799217"><ele>400</ele><time>2022-03-19T10:09:40Z</time><name>PT1104</name></trkpt>
<trkpt lat="53.357173" lon="-1.799203"><ele>400</ele><time>2022-03-19T10:09:41Z</time><name>PT1105</name></trkpt>
<trkpt lat="53.357176" lon="-1.799180"><ele>401</ele><time>2022-03-19T10:09:42Z</time><name>PT1106</name></trkpt>
<trkpt lat="53.357178" lon="-1.799158"><ele>401</ele><time>2022-03-19T10:09:43Z</time><name>PT1107</name></trkpt>
<trkpt lat="53.357176" lon="-1.799133"><ele>401</ele><time>2022-03-19T10:09:44Z</time><name>PT1108</name></trkpt>
<trkpt lat="53.357178" lon="-1.799112"><ele>401</ele><time>2022-03-19T10:09:44Z</time><name>PT1109</name></trkpt>
<trkpt lat="53.357183" lon="-1.799092"><ele>401</ele><time>2022-03-19T10:09:46Z</time><name>PT1110</name></trkpt>
<trkpt lat="53.357186" lon="-1.799074"><ele>401</ele><time>2022-03-19T10:09:47Z</time><name>PT1111</name></trkpt>
<trkpt lat="53.357189" lon="-1.799055"><ele>400</ele><time>2022-03-19T10:09:48Z</time><name>PT1112</name></trkpt>
<trkpt lat="53.357195" lon="-1.799038"><ele>400</ele><time>2022-03-19T10:09:49Z</time><name>PT1113</name></trkpt>
<trkpt lat="53.357196" lon="-1.799014"><ele>400</ele><time>2022-03-19T10:09:50Z</time><name>PT1114</name></trkpt>
<trkpt lat="53.357197" lon="-1.798992"><ele>400</ele><time>2022-03-19T10:09:50Z</time><name>PT1115</name></trkpt>
<trkpt lat="53.357200" lon="-1.798971"><ele>400</ele><time>2022-03-19T10:09:52Z</time><name>PT1116</name></trkpt>
<trkpt lat="53.357202" lon="-1.798949"><ele>400</ele><time>2022-03-19T10:09:53Z</time><name>PT1117</name></trkpt>
<trkpt lat="53.357204" lon="-1.798925"><ele>401</ele><time>2022-03-19T10:09:54Z</time><name>PT1118</name></trkpt>
<trkpt lat="53.357207" lon="-1.798903"><ele>400</ele><time>2022-03-19T10:09:55Z</time><name>PT1119</name></trkpt>
<trkpt lat="53.357209" lon="-1.798885"><ele>400</ele><time>2022-03-19T10:09:56Z</time><name>PT1120</name></trkpt>
<trkpt lat="53.357209" lon="-1.798867"><ele>400</ele><time>2022-03-19T10:09:56Z</time><name>PT1121</name></trkpt>
<trkpt lat="53.357209" lon="-1.798848"><ele>400</ele><time>2022-03-19T10:09:58Z</time><name>PT1122</name></trkpt>
<trkpt lat="53.357211" lon="-1.798830"><ele>399</ele><time>2022-03-19T10:09:59Z</time><name>PT1123</name></trkpt>
<trkpt lat="53.357212" lon="-1.798808"><ele>399</ele><time>2022-03-19T10:10:00Z</time><name>PT1124</name></trkpt>
<trkpt lat="53.357214" lon="-1.798790"><ele>399</ele><time>2022-03-19T10:10:01Z</time><name>PT1125</name></trkpt>
<trkpt lat="53.357215" lon="-1.798774"><ele>399</ele><time>2022-03-19T10:10:02Z</time><name>PT1126</name></trkpt>
<trkpt lat="53.357217" lon="-1.798751"><ele>399</ele><time>2022-03-19T10:10:03Z</time><name>PT1127</name></trkpt>
<trkpt lat="53.357219" lon="-1.798734"><ele>399</ele><time>2022-03-19T10:10:04Z</time><name>PT1128</name></trkpt>
<trkpt lat="53.357220" lon="-1.798715"><ele>399</ele><time>2022-03-19T10:10:05Z</time><name>PT1129</name></trkpt>
<trkpt lat="53.357220" lon="-1.798693"><ele>398</ele><time>2022-03-19T10:10:05Z</time><name>PT1130</name></trkpt>
<trkpt lat="53.357224" lon="-1.798675"><ele>398</ele><time>2022-03-19T10:10:07Z</time><name>PT1131</name></trkpt>
<trkpt lat="53.357226" lon="-1.798654"><ele>398</ele><time>2022-03-19T10:10:08Z</time><name>PT1132</name></trkpt>
<trkpt lat="53.357230" lon="-1.798630"><ele>398</ele><time>2022-03-19T10:10:09Z</time><name>PT1133</name></trkpt>
<trkpt lat="53.357233" lon="-1.798609"><ele>398</ele><time>2022-03-19T10:10:10Z</time><name>PT1134</name></trkpt>
<trkpt lat="53.357236" lon="-1.798586"><ele>398</ele><time>2022-03-19T10:10:11Z</time><name>PT1135</name></trkpt>
<trkpt lat="53.357237" lon="-1.798561"><ele>398</ele><time>2022-03-19T10:10:11Z</time><name>PT1136</name></trkpt>
<trkpt lat="53.357242" lon="-1.798541"><ele>398</ele><time>2022-03-19T10:10:13Z</time><name>PT1137</name></trkpt>
<trkpt lat="53.357246" lon="-1.798516"><ele>399</ele><time>2022-03-19T10:10:14Z</time><name>PT1138</name></trkpt>
<trkpt lat="53.357249" lon="-1.798496"><ele>399</ele><time>2022-03-19T10:10:14Z</time><name>PT1139</name></trkpt>
<trkpt lat="53.357252" lon="-1.798476"><ele>399</ele><time>2022-03-19T10:10:16Z</time><name>PT1140</name></trkpt>
<trkpt lat="53.357253" lon="-1.798450"><ele>399</ele><time>2022-03-19T10:10:17Z</time><name>PT1141</name></trkpt>
<trkpt lat="53.357253" lon="-1.798429"><ele>399</ele><time>2022-03-19T10:10:17Z</time><name>PT1142</name></trkpt>
<trkpt lat="53.357255" lon="-1.798413"><ele>398</ele><time>2022-03-19T10:10:19Z</time><name>PT1143</name></trkpt>
<trkpt lat="53.357258" lon="-1.798393"><ele>398</ele><time>2022-03-19T10:10:20Z</time><name>PT1144</name></trkpt>
<trkpt lat="53.357261" lon="-1.798370"><ele>398</ele><time>2022-03-19T10:10:20Z</time><name>PT1145</name></trkpt>
<trkpt lat="53.357264" lon="-1.798352"><ele>398</ele><time>2022-03-19T10:10:22Z</time><name>PT1146</name></trkpt>
<trkpt lat="53.357265" lon="-1.798329"><ele>398</ele><time>2022-03-19T10:10:23Z</time><name>PT1147</name></trkpt>
<trkpt lat="53.357268" lon="-1.798305"><ele>397</ele><time>2022-03-19T10:10:23Z</time><name>PT1148</name></trkpt>
<trkpt lat="53.357272" lon="-1.798285"><ele>397</ele><time>2022-03-19T10:10:25Z</time><name>PT1149</name></trkpt>
<trkpt lat="53.357276" lon="-1.798266"><ele>397</ele><time>2022-03-19T10:10:26Z</time><name>PT1150</name></trkpt>
<trkpt lat="53.357280" lon="-1.798243"><ele>397</ele><time>2022-03-19T10:10:26Z</time><name>PT1151</name></trkpt>
<trkpt lat="53.357283" lon="-1.798221"><ele>397</ele><time>2022-03-19T10:10:28Z</time><name>PT1152</name></trkpt>
<trkpt lat="53.357287" lon="-1.798197"><ele>397</ele><time>2022-03-19T10:10:29Z</time><name>PT1153</name></trkpt>
<trkpt lat="53.357290" lon="-1.798175"><ele>397</ele><time>2022-03-19T10:10:29Z</time><name>PT1154</name></trkpt>
<trkpt lat="53.357296" lon="-1.798150"><ele>398</ele><time>2022-03-19T10:10:31Z</time><name>PT1155</name></trkpt>
<trkpt lat="53.357304" lon="-1.798121"><ele>398</ele><time>2022-03-19T10:10:32Z</time><name>PT1156</name></trkpt>
<trkpt lat="53.357308" lon="-1.798089"><ele>399</ele><time>2022-03-19T10:10:32Z</time><name>PT1157</name></trkpt>
<trkpt lat="53.357308" lon="-1.798066"><ele>399</ele><time>2022-03-19T10:10:34Z</time><name>PT1158</name></trkpt>
<trkpt lat="53.357308" lon="-1.798051"><ele>399</ele><time>2022-03-19T10:10:35Z</time><name>PT1159</name></trkpt>
<trkpt lat="53.357309" lon="-1.798032"><ele>399</ele><time>2022-03-19T10:10:35Z</time><name>PT1160</name></trkpt>
<trkpt lat="53.357310" lon="-1.798014"><ele>399</ele><time>2022-03-19T10:10:37Z</time><name>PT1161</name></trkpt>
<trkpt lat="53.357311" lon="-1.797991"><ele>399</ele><time>2022-03-19T10:10:38Z</time><name>PT1162</name></trkpt>
<trkpt lat="53.357311" lon="-1.797969"><ele>399</ele><time>2022-03-19T10:10:38Z</time><name>PT1163</name></trkpt>
<trkpt lat="53.357314" lon="-1.797950"><ele>399</ele><time>2022-03-19T10:10:40Z</time><name>PT1164</name></trkpt>
<trkpt lat="53.357319" lon="-1.797931"><ele>398</ele><time>2022-03-19T10:10:41Z</time><name>PT1165</name></trkpt>
<trkpt lat="53.357321" lon="-1.797910"><ele>398</ele><time>2022-03-19T10:10:42Z</time><name>PT1166</name></trkpt>
<trkpt lat="53.357323" lon="-1.797891"><ele>398</ele><time>2022-03-19T10:10:43Z</time><name>PT1167</name></trkpt>
<trkpt lat="53.357326" lon="-1.797871"><ele>398</ele><time>2022-03-19T10:10:44Z</time><name>PT1168</name></trkpt>
<trkpt lat="53.357329" lon="-1.797848"><ele>398</ele><time>2022-03-19T10:10:44Z</time><name>PT1169</name></trkpt>
<trkpt lat="53.357332" lon="-1.797828"><ele>398</ele><time>2022-03-19T10:10:46Z</time><name>PT1170</name></trkpt>
<trkpt lat="53.357336" lon="-1.797809"><ele>398</ele><time>2022-03-19T10:10:47Z</time><name>PT1171</name></trkpt>
<trkpt lat="53.357339" lon="-1.797788"><ele>398</ele><time>2022-03-19T10:10:48Z</time><name>PT1172</name></trkpt>
<trkpt lat="53.357339" lon="-1.797767"><ele>398</ele><time>2022-03-19T10:10:49Z</time><name>PT1173</name></trkpt>
<trkpt lat="53.357339" lon="-1.797745"><ele>398</ele><time>2022-03-19T10:10:50Z</time><name>PT1174</name></trkpt>
<trkpt lat="53.357341" lon="-1.797725"><ele>398</ele><time>2022-03-19T10:10:51Z</time><name>PT1175</name></trkpt>
<trkpt lat="53.357343" lon="-1.797705"><ele>398</ele><time>2022-03-19T10:10:52Z</time><name>PT1176</name></trkpt>
<trkpt lat="53.357345" lon="-1.797687"><ele>398</ele><time>2022-03-19T10:10:53Z</time><name>PT1177</name></trkpt>
<trkpt lat="53.357346" lon="-1.797668"><ele>398</ele><time>2022-03-19T10:10:54Z</time><name>PT1178</name></trkpt>
<trkpt lat="53.357349" lon="-1.797648"><ele>397</ele><time>2022-03-19T10:10:55Z</time><name>PT1179</name></trkpt>
<trkpt lat="53.357352" lon="-1.797629"><ele>398</ele><time>2022-03-19T10:10:56Z</time><name>PT1180</name></trkpt>
<trkpt lat="53.357355" lon="-1.797609"><ele>397</ele><time>2022-03-19T10:10:56Z</time><name>PT1181</name></trkpt>
<trkpt lat="53.357356" lon="-1.797588"><ele>397</ele><time>2022-03-19T10:10:58Z</time><name>PT1182</name></trkpt>
<trkpt lat="53.357356" lon="-1.797568"><ele>397</ele><time>2022-03-19T10:10:59Z</time><name>PT1183</name></trkpt>
<trkpt lat="53.357357" lon="-1.797549"><ele>397</ele><time>2022-03-19T10:10:59Z</time><name>PT1184</name></trkpt>
<trkpt lat="53.357359" lon="-1.797528"><ele>397</ele><time>2022-03-19T10:11:01Z</time><name>PT1185</name></trkpt>
<trkpt lat="53.357361" lon="-1.797509"><ele>397</ele><time>2022-03-19T10:11:02Z</time><name>PT1186</name></trkpt>
<trkpt lat="53.357363" lon="-1.797489"><ele>397</ele><time>2022-03-19T10:11:02Z</time><name>PT1187</name></trkpt>
<trkpt lat="53.357364" lon="-1.797467"><ele>397</ele><time>2022-03-19T10:11:04Z</time><name>PT1188</name></trkpt>
<trkpt lat="53.357368" lon="-1.797448"><ele>397</ele><time>2022-03-19T10:11:05Z</time><name>PT1189</name></trkpt>
<trkpt lat="53.357373" lon="-1.797429"><ele>397</ele><time>2022-03-19T10:11:05Z</time><name>PT1190</name></trkpt>
<trkpt lat="53.357377" lon="-1.797417"><ele>397</ele><time>2022-03-19T10:11:07Z</time><name>PT1191</name></trkpt>
<trkpt lat="53.357382" lon="-1.797402"><ele>397</ele><time>2022-03-19T10:11:08Z</time><name>PT1192</name></trkpt>
<trkpt lat="53.357385" lon="-1.797389"><ele>396</ele><time>2022-03-19T10:11:09Z</time><name>PT1193</name></trkpt>
<trkpt lat="53.357386" lon="-1.797370"><ele>397</ele><time>2022-03-19T10:11:10Z</time><name>PT1194</name></trkpt>
<trkpt lat="53.357389" lon="-1.797360"><ele>396</ele><time>2022-03-19T10:11:11Z</time><name>PT1195</name></trkpt>
<trkpt lat="53.357394" lon="-1.797349"><ele>396</ele><time>2022-03-19T10:11:11Z</time><name>PT1196</name></trkpt>
<trkpt lat="53.357399" lon="-1.797340"><ele>396</ele><time>2022-03-19T10:11:13Z</time><name>PT1197</name></trkpt>
<trkpt lat="53.357402" lon="-1.797333"><ele>396</ele><time>2022-03-19T10:11:14Z</time><name>PT1198</name></trkpt>
<trkpt lat="53.357407" lon="-1.797327"><ele>395</ele><time>2022-03-19T10:11:15Z</time><name>PT1199</name></trkpt>
<trkpt lat="53.357410" lon="-1.797318"><ele>394</ele><time>2022-03-19T10:11:16Z</time><name>PT1200</name></trkpt>
<trkpt lat="53.357413" lon="-1.797313"><ele>394</ele><time>2022-03-19T10:11:17Z</time><name>PT1201</name></trkpt>
<trkpt lat="53.357416" lon="-1.797307"><ele>394</ele><time>2022-03-19T10:11:17Z</time><name>PT1202</name></trkpt>
<trkpt lat="53.357418" lon="-1.797305"><ele>395</ele><time>2022-03-19T10:11:19Z</time><name>PT1203</name></trkpt>
<trkpt lat="53.357419" lon="-1.797300"><ele>395</ele><time>2022-03-19T10:11:20Z</time><name>PT1204</name></trkpt>
<trkpt lat="53.357419" lon="-1.797304"><ele>395</ele><time>2022-03-19T10:11:20Z</time><name>PT1205</name></trkpt>
<trkpt lat="53.357419" lon="-1.797305"><ele>395</ele><time>2022-03-19T10:11:22Z</time><name>PT1206</name></trkpt>
<trkpt lat="53.357416" lon="-1.797302"><ele>394</ele><time>2022-03-19T10:11:30Z</time><name>PT1207</name></trkpt>
<trkpt lat="53.357414" lon="-1.797306"><ele>394</ele><time>2022-03-19T10:11:31Z</time><name>PT1208</name></trkpt>
<trkpt lat="53.357418" lon="-1.797311"><ele>395</ele><time>2022-03-19T10:11:32Z</time><name>PT1209</name></trkpt>
<trkpt lat="53.357422" lon="-1.797316"><ele>394</ele><time>2022-03-19T10:11:33Z</time><name>PT1210</name></trkpt>
<trkpt lat="53.357425" lon="-1.797321"><ele>394</ele><time>2022-03-19T10:11:34Z</time><name>PT1211</name></trkpt>
<trkpt lat="53.357424" lon="-1.797326"><ele>394</ele><time>2022-03-19T10:11:35Z</time><name>PT1212</name></trkpt>
<trkpt lat="53.357427" lon="-1.797328"><ele>394</ele><time>2022-03-19T10:11:36Z</time><name>PT1213</name></trkpt>
<trkpt lat="53.357428" lon="-1.797337"><ele>394</ele><time>2022-03-19T10:11:37Z</time><name>PT1214</name></trkpt>
<trkpt lat="53.357428" lon="-1.797347"><ele>393</ele><time>2022-03-19T10:11:38Z</time><name>PT1215</name></trkpt>
<trkpt lat="53.357431" lon="-1.797355"><ele>393</ele><time>2022-03-19T10:11:39Z</time><name>PT1216</name></trkpt>
<trkpt lat="53.357438" lon="-1.797355"><ele>393</ele><time>2022-03-19T10:11:40Z</time><name>PT1217</name></trkpt>
<trkpt lat="53.357440" lon="-1.797362"><ele>393</ele><time>2022-03-19T10:11:41Z</time><name>PT1218</name></trkpt>
<trkpt lat="53.357444" lon="-1.797375"><ele>393</ele><time>2022-03-19T10:11:42Z</time><name>PT1219</name></trkpt>
<trkpt lat="53.357449" lon="-1.797385"><ele>393</ele><time>2022-03-19T10:11:43Z</time><name>PT1220</name></trkpt>
<trkpt lat="53.357453" lon="-1.797399"><ele>393</ele><time>2022-03-19T10:11:44Z</time><name>PT1221</name></trkpt>
<trkpt lat="53.357457" lon="-1.797412"><ele>393</ele><time>2022-03-19T10:11:45Z</time><name>PT1222</name></trkpt>
<trkpt lat="53.357461" lon="-1.797425"><ele>393</ele><time>2022-03-19T10:11:46Z</time><name>PT1223</name></trkpt>
<trkpt lat="53.357466" lon="-1.797441"><ele>394</ele><time>2022-03-19T10:11:46Z</time><name>PT1224</name></trkpt>
<trkpt lat="53.357468" lon="-1.797450"><ele>393</ele><time>2022-03-19T10:11:48Z</time><name>PT1225</name></trkpt>
<trkpt lat="53.357470" lon="-1.797450"><ele>393</ele><time>2022-03-19T10:11:49Z</time><name>PT1226</name></trkpt>
<trkpt lat="53.357471" lon="-1.797447"><ele>393</ele><time>2022-03-19T10:11:49Z</time><name>PT1227</name></trkpt>
<trkpt lat="53.357473" lon="-1.797449"><ele>393</ele><time>2022-03-19T10:11:51Z</time><name>PT1228</name></trkpt>
<trkpt lat="53.357476" lon="-1.797452"><ele>393</ele><time>2022-03-19T10:11:57Z</time><name>PT1229</name></trkpt>
<trkpt lat="53.357481" lon="-1.797467"><ele>393</ele><time>2022-03-19T10:11:58Z</time><name>PT1230</name></trkpt>
<trkpt lat="53.357488" lon="-1.797478"><ele>393</ele><time>2022-03-19T10:11:58Z</time><name>PT1231</name></trkpt>
<trkpt lat="53.357495" lon="-1.797492"><ele>393</ele><time>2022-03-19T10:12:00Z</time><name>PT1232</name></trkpt>
<trkpt lat="53.357500" lon="-1.797507"><ele>393</ele><time>2022-03-19T10:12:01Z</time><name>PT1233</name></trkpt>
<trkpt lat="53.357503" lon="-1.797516"><ele>393</ele><time>2022-03-19T10:12:01Z</time><name>PT1234</name></trkpt>
<trkpt lat="53.357508" lon="-1.797528"><ele>393</ele><time>2022-03-19T10:12:03Z</time><name>PT1235</name></trkpt>
<trkpt lat="53.357511" lon="-1.797547"><ele>393</ele><time>2022-03-19T10:12:04Z</time><name>PT1236</name></trkpt>
<trkpt lat="53.357513" lon="-1.797565"><ele>392</ele><time>2022-03-19T10:12:04Z</time><name>PT1237</name></trkpt>
<trkpt lat="53.357514" lon="-1.797582"><ele>392</ele><time>2022-03-19T10:12:06Z</time><name>PT1238</name></trkpt>
<trkpt lat="53.357517" lon="-1.797597"><ele>392</ele><time>2022-03-19T10:12:07Z</time><name>PT1239</name></trkpt>
<trkpt lat="53.357523" lon="-1.797611"><ele>392</ele><time>2022-03-19T10:12:07Z</time><name>PT1240</name></trkpt>
<trkpt lat="53.357531" lon="-1.797628"><ele>392</ele><time>2022-03-19T10:12:09Z</time><name>PT1241</name></trkpt>
<trkpt lat="53.357537" lon="-1.797640"><ele>392</ele><time>2022-03-19T10:12:10Z</time><name>PT1242</name></trkpt>
<trkpt lat="53.357541" lon="-1.797652"><ele>392</ele><time>2022-03-19T10:12:11Z</time><name>PT1243</name></trkpt>
<trkpt lat="53.357545" lon="-1.797671"><ele>392</ele><time>2022-03-19T10:12:12Z</time><name>PT1244</name></trkpt>
<trkpt lat="53.357548" lon="-1.797688"><ele>392</ele><time>2022-03-19T10:12:13Z</time><name>PT1245</name></trkpt>
<trkpt lat="53.357551" lon="-1.797701"><ele>391</ele><time>2022-03-19T10:12:14Z</time><name>PT1246</name></trkpt>
<trkpt lat="53.357554" lon="-1.797715"><ele>391</ele><time>2022-03-19T10:12:15Z</time><name>PT1247</name></trkpt>
<trkpt lat="53.357556" lon="-1.797735"><ele>391</ele><time>2022-03-19T10:12:16Z</time><name>PT1248</name></trkpt>
<trkpt lat="53.357559" lon="-1.797751"><ele>391</ele><time>2022-03-19T10:12:16Z</time><name>PT1249</name></trkpt>
<trkpt lat="53.357563" lon="-1.797766"><ele>390</ele><time>2022-03-19T10:12:18Z</time><name>PT1250</name></trkpt>
<trkpt lat="53.357567" lon="-1.797780"><ele>390</ele><time>2022-03-19T10:12:19Z</time><name>PT1251</name></trkpt>
<trkpt lat="53.357571" lon="-1.797797"><ele>390</ele><time>2022-03-19T10:12:19Z</time><name>PT1252</name></trkpt>
<trkpt lat="53.357575" lon="-1.797812"><ele>390</ele><time>2022-03-19T10:12:21Z</time><name>PT1253</name></trkpt>
<trkpt lat="53.357578" lon="-1.797823"><ele>390</ele><time>2022-03-19T10:12:22Z</time><name>PT1254</name></trkpt>
<trkpt lat="53.357581" lon="-1.797833"><ele>390</ele><time>2022-03-19T10:12:22Z</time><name>PT1255</name></trkpt>
<trkpt lat="53.357585" lon="-1.797843"><ele>390</ele><time>2022-03-19T10:12:24Z</time><name>PT1256</name></trkpt>
<trkpt lat="53.357587" lon="-1.797856"><ele>390</ele><time>2022-03-19T10:12:25Z</time><name>PT1257</name></trkpt>
<trkpt lat="53.357590" lon="-1.797870"><ele>389</ele><time>2022-03-19T10:12:25Z</time><name>PT1258</name></trkpt>
<trkpt lat="53.357591" lon="-1.797882"><ele>389</ele><time>2022-03-19T10:12:27Z</time><name>PT1259</name></trkpt>
<trkpt lat="53.357593" lon="-1.797896"><ele>389</ele><time>2022-03-19T10:12:28Z</time><name>PT1260</name></trkpt>
<trkpt lat="53.357599" lon="-1.797914"><ele>390</ele><time>2022-03-19T10:12:28Z</time><name>PT1261</name></trkpt>
<trkpt lat="53.357604" lon="-1.797932"><ele>390</ele><time>2022-03-19T10:12:30Z</time><name>PT1262</name></trkpt>
<trkpt lat="53.357607" lon="-1.797943"><ele>390</ele><time>2022-03-19T10:12:31Z</time><name>PT1263</name></trkpt>
<trkpt lat="53.357612" lon="-1.797957"><ele>390</ele><time>2022-03-19T10:12:31Z</time><name>PT1264</name></trkpt>
<trkpt lat="53.357619" lon="-1.797974"><ele>389</ele><time>2022-03-19T10:12:33Z</time><name>PT1265</name></trkpt>
<trkpt lat="53.357623" lon="-1.797988"><ele>389</ele><time>2022-03-19T10:12:34Z</time><name>PT1266</name></trkpt>
<trkpt lat="53.357627" lon="-1.798001"><ele>389</ele><time>2022-03-19T10:12:34Z</time><name>PT1267</name></trkpt>
<trkpt lat="53.357631" lon="-1.798019"><ele>389</ele><time>2022-03-19T10:12:36Z</time><name>PT1268</name></trkpt>
<trkpt lat="53.357636" lon="-1.798034"><ele>389</ele><time>2022-03-19T10:12:37Z</time><name>PT1269</name></trkpt>
<trkpt lat="53.357643" lon="-1.798049"><ele>389</ele><time>2022-03-19T10:12:37Z</time><name>PT1270</name></trkpt>
<trkpt lat="53.357649" lon="-1.798062"><ele>389</ele><time>2022-03-19T10:12:39Z</time><name>PT1271</name></trkpt>
<trkpt lat="53.357655" lon="-1.798076"><ele>388</ele><time>2022-03-19T10:12:40Z</time><name>PT1272</name></trkpt>
<trkpt lat="53.357658" lon="-1.798090"><ele>389</ele><time>2022-03-19T10:12:41Z</time><name>PT1273</name></trkpt>
<trkpt lat="53.357661" lon="-1.798101"><ele>389</ele><time>2022-03-19T10:12:42Z</time><name>PT1274</name></trkpt>
<trkpt lat="53.357663" lon="-1.798107"><ele>389</ele><time>2022-03-19T10:12:43Z</time><name>PT1275</name></trkpt>
<trkpt lat="53.357665" lon="-1.798108"><ele>389</ele><time>2022-03-19T10:12:43Z</time><name>PT1276</name></trkpt>
<trkpt lat="53.357668" lon="-1.798111"><ele>388</ele><time>2022-03-19T10:12:45Z</time><name>PT1277</name></trkpt>
<trkpt lat="53.357670" lon="-1.798128"><ele>389</ele><time>2022-03-19T10:12:52Z</time><name>PT1278</name></trkpt>
<trkpt lat="53.357674" lon="-1.798146"><ele>388</ele><time>2022-03-19T10:12:54Z</time><name>PT1279</name></trkpt>
<trkpt lat="53.357680" lon="-1.798161"><ele>388</ele><time>2022-03-19T10:12:55Z</time><name>PT1280</name></trkpt>
<trkpt lat="53.357688" lon="-1.798167"><ele>388</ele><time>2022-03-19T10:12:55Z</time><name>PT1281</name></trkpt>
<trkpt lat="53.357690" lon="-1.798175"><ele>388</ele><time>2022-03-19T10:12:57Z</time><name>PT1282</name></trkpt>
<trkpt lat="53.357693" lon="-1.798185"><ele>388</ele><time>2022-03-19T10:12:58Z</time><name>PT1283</name></trkpt>
<trkpt lat="53.357692" lon="-1.798191"><ele>388</ele><time>2022-03-19T10:12:58Z</time><name>PT1284</name></trkpt>
<trkpt lat="53.357693" lon="-1.798197"><ele>387</ele><time>2022-03-19T10:13:00Z</time><name>PT1285</name></trkpt>
<trkpt lat="53.357696" lon="-1.798210"><ele>387</ele><time>2022-03-19T10:13:01Z</time><name>PT1286</name></trkpt>
<trkpt lat="53.357697" lon="-1.798225"><ele>387</ele><time>2022-03-19T10:13:01Z</time><name>PT1287</name></trkpt>
<trkpt lat="53.357701" lon="-1.798242"><ele>388</ele><time>2022-03-19T10:13:03Z</time><name>PT1288</name></trkpt>
<trkpt lat="53.357717" lon="-1.798308"><ele>387</ele><time>2022-03-19T10:13:07Z</time><name>PT1289</name></trkpt>
<trkpt lat="53.357728" lon="-1.798344"><ele>386</ele><time>2022-03-19T10:13:10Z</time><name>PT1290</name></trkpt>
<trkpt lat="53.357733" lon="-1.798359"><ele>385</ele><time>2022-03-19T10:13:10Z</time><name>PT1291</name></trkpt>
<trkpt lat="53.357738" lon="-1.798374"><ele>385</ele><time>2022-03-19T10:13:12Z</time><name>PT1292</name></trkpt>
<trkpt lat="53.357741" lon="-1.798386"><ele>385</ele><time>2022-03-19T10:13:13Z</time><name>PT1293</name></trkpt>
<trkpt lat="53.357744" lon="-1.798399"><ele>385</ele><time>2022-03-19T10:13:13Z</time><name>PT1294</name></trkpt>
<trkpt lat="53.357747" lon="-1.798416"><ele>385</ele><time>2022-03-19T10:13:15Z</time><name>PT1295</name></trkpt>
<trkpt lat="53.357751" lon="-1.798431"><ele>385</ele><time>2022-03-19T10:13:16Z</time><name>PT1296</name></trkpt>
<trkpt lat="53.357755" lon="-1.798444"><ele>384</ele><time>2022-03-19T10:13:16Z</time><name>PT1297</name></trkpt>
<trkpt lat="53.357761" lon="-1.798457"><ele>384</ele><time>2022-03-19T10:13:18Z</time><name>PT1298</name></trkpt>
<trkpt lat="53.357766" lon="-1.798476"><ele>384</ele><time>2022-03-19T10:13:19Z</time><name>PT1299</name></trkpt>
<trkpt lat="53.357773" lon="-1.798491"><ele>384</ele><time>2022-03-19T10:13:19Z</time><name>PT1300</name></trkpt>
<trkpt lat="53.357778" lon="-1.798507"><ele>383</ele><time>2022-03-19T10:13:21Z</time><name>PT1301</name></trkpt>
<trkpt lat="53.357783" lon="-1.798527"><ele>384</ele><time>2022-03-19T10:13:22Z</time><name>PT1302</name></trkpt>
<trkpt lat="53.357792" lon="-1.798543"><ele>383</ele><time>2022-03-19T10:13:22Z</time><name>PT1303</name></trkpt>
<trkpt lat="53.357793" lon="-1.798558"><ele>382</ele><time>2022-03-19T10:13:24Z</time><name>PT1304</name></trkpt>
<trkpt lat="53.357797" lon="-1.798572"><ele>382</ele><time>2022-03-19T10:13:25Z</time><name>PT1305</name></trkpt>
<trkpt lat="53.357800" lon="-1.798584"><ele>381</ele><time>2022-03-19T10:13:25Z</time><name>PT1306</name></trkpt>
<trkpt lat="53.357806" lon="-1.798599"><ele>381</ele><time>2022-03-19T10:13:27Z</time><name>PT1307</name></trkpt>
<trkpt lat="53.357811" lon="-1.798613"><ele>380</ele><time>2022-03-19T10:13:28Z</time><name>PT1308</name></trkpt>
<trkpt lat="53.357814" lon="-1.798626"><ele>380</ele><time>2022-03-19T10:13:29Z</time><name>PT1309</name></trkpt>
<trkpt lat="53.357818" lon="-1.798640"><ele>380</ele><time>2022-03-19T10:13:30Z</time><name>PT1310</name></trkpt>
<trkpt lat="53.357822" lon="-1.798654"><ele>380</ele><time>2022-03-19T10:13:31Z</time><name>PT1311</name></trkpt>
<trkpt lat="53.357828" lon="-1.798664"><ele>379</ele><time>2022-03-19T10:13:31Z</time><name>PT1312</name></trkpt>
<trkpt lat="53.357823" lon="-1.798667"><ele>379</ele><time>2022-03-19T10:13:33Z</time><name>PT1313</name></trkpt>
<trkpt lat="53.357822" lon="-1.798675"><ele>379</ele><time>2022-03-19T10:13:34Z</time><name>PT1314</name></trkpt>
<trkpt lat="53.357827" lon="-1.798688"><ele>378</ele><time>2022-03-19T10:13:34Z</time><name>PT1315</name></trkpt>
<trkpt lat="53.357830" lon="-1.798698"><ele>378</ele><time>2022-03-19T10:13:36Z</time><name>PT1316</name></trkpt>
<trkpt lat="53.357836" lon="-1.798708"><ele>378</ele><time>2022-03-19T10:13:37Z</time><name>PT1317</name></trkpt>
<trkpt lat="53.357842" lon="-1.798716"><ele>377</ele><time>2022-03-19T10:13:37Z</time><name>PT1318</name></trkpt>
<trkpt lat="53.357848" lon="-1.798731"><ele>377</ele><time>2022-03-19T10:13:39Z</time><name>PT1319</name></trkpt>
<trkpt lat="53.357853" lon="-1.798746"><ele>377</ele><time>2022-03-19T10:13:40Z</time><name>PT1320</name></trkpt>
<trkpt lat="53.357857" lon="-1.798761"><ele>377</ele><time>2022-03-19T10:13:40Z</time><name>PT1321</name></trkpt>
<trkpt lat="53.357859" lon="-1.798772"><ele>377</ele><time>2022-03-19T10:13:42Z</time><name>PT1322</name></trkpt>
<trkpt lat="53.357865" lon="-1.798782"><ele>377</ele><time>2022-03-19T10:13:43Z</time><name>PT1323</name></trkpt>
<trkpt lat="53.357866" lon="-1.798789"><ele>377</ele><time>2022-03-19T10:13:43Z</time><name>PT1324</name></trkpt>
<trkpt lat="53.357867" lon="-1.798798"><ele>377</ele><time>2022-03-19T10:13:45Z</time><name>PT1325</name></trkpt>
<trkpt lat="53.357870" lon="-1.798807"><ele>377</ele><time>2022-03-19T10:13:46Z</time><name>PT1326</name></trkpt>
<trkpt lat="53.357874" lon="-1.798822"><ele>377</ele><time>2022-03-19T10:13:46Z</time><name>PT1327</name></trkpt>
<trkpt lat="53.357880" lon="-1.798830"><ele>376</ele><time>2022-03-19T10:13:48Z</time><name>PT1328</name></trkpt>
<trkpt lat="53.357881" lon="-1.798839"><ele>376</ele><time>2022-03-19T10:13:49Z</time><name>PT1329</name></trkpt>
<trkpt lat="53.357886" lon="-1.798853"><ele>376</ele><time>2022-03-19T10:13:49Z</time><name>PT1330</name></trkpt>
<trkpt lat="53.357887" lon="-1.798865"><ele>376</ele><time>2022-03-19T10:13:51Z</time><name>PT1331</name></trkpt>
<trkpt lat="53.357896" lon="-1.798883"><ele>376</ele><time>2022-03-19T10:13:52Z</time><name>PT1332</name></trkpt>
<trkpt lat="53.357902" lon="-1.798896"><ele>376</ele><time>2022-03-19T10:13:53Z</time><name>PT1333</name></trkpt>
<trkpt lat="53.357907" lon="-1.798900"><ele>376</ele><time>2022-03-19T10:13:54Z</time><name>PT1334</name></trkpt>
<trkpt lat="53.357911" lon="-1.798915"><ele>376</ele><time>2022-03-19T10:13:55Z</time><name>PT1335</name></trkpt>
<trkpt lat="53.357915" lon="-1.798921"><ele>376</ele><time>2022-03-19T10:13:55Z</time><name>PT1336</name></trkpt>
<trkpt lat="53.357921" lon="-1.798928"><ele>376</ele><time>2022-03-19T10:13:57Z</time><name>PT1337</name></trkpt>
<trkpt lat="53.357928" lon="-1.798937"><ele>376</ele><time>2022-03-19T10:13:58Z</time><name>PT1338</name></trkpt>
<trkpt lat="53.357931" lon="-1.798948"><ele>375</ele><time>2022-03-19T10:13:58Z</time><name>PT1339</name></trkpt>
<trkpt lat="53.357934" lon="-1.798963"><ele>375</ele><time>2022-03-19T10:14:00Z</time><name>PT1340</name></trkpt>
<trkpt lat="53.357934" lon="-1.798976"><ele>375</ele><time>2022-03-19T10:14:01Z</time><name>PT1341</name></trkpt>
<trkpt lat="53.357937" lon="-1.798988"><ele>375</ele><time>2022-03-19T10:14:01Z</time><name>PT1342</name></trkpt>
<trkpt lat="53.357945" lon="-1.798991"><ele>374</ele><time>2022-03-19T10:14:03Z</time><name>PT1343</name></trkpt>
<trkpt lat="53.357951" lon="-1.798999"><ele>374</ele><time>2022-03-19T10:14:04Z</time><name>PT1344</name></trkpt>
<trkpt lat="53.357956" lon="-1.799004"><ele>374</ele><time>2022-03-19T10:14:04Z</time><name>PT1345</name></trkpt>
<trkpt lat="53.357958" lon="-1.799011"><ele>373</ele><time>2022-03-19T10:14:06Z</time><name>PT1346</name></trkpt>
<trkpt lat="53.357959" lon="-1.799020"><ele>373</ele><time>2022-03-19T10:14:07Z</time><name>PT1347</name></trkpt>
<trkpt lat="53.357962" lon="-1.799029"><ele>372</ele><time>2022-03-19T10:14:07Z</time><name>PT1348</name></trkpt>
<trkpt lat="53.357968" lon="-1.799042"><ele>372</ele><time>2022-03-19T10:14:09Z</time><name>PT1349</name></trkpt>
<trkpt lat="53.357975" lon="-1.799052"><ele>371</ele><time>2022-03-19T10:14:10Z</time><name>PT1350</name></trkpt>
<trkpt lat="53.357987" lon="-1.799064"><ele>371</ele><time>2022-03-19T10:14:10Z</time><name>PT1351</name></trkpt>
<trkpt lat="53.357995" lon="-1.799075"><ele>371</ele><time>2022-03-19T10:14:12Z</time><name>PT1352</name></trkpt>
<trkpt lat="53.358003" lon="-1.799089"><ele>371</ele><time>2022-03-19T10:14:13Z</time><name>PT1353</name></trkpt>
<trkpt lat="53.358012" lon="-1.799103"><ele>371</ele><time>2022-03-19T10:14:13Z</time><name>PT1354</name></trkpt>
<trkpt lat="53.358019" lon="-1.799114"><ele>371</ele><time>2022-03-19T10:14:15Z</time><name>PT1355</name></trkpt>
<trkpt lat="53.358025" lon="-1.799125"><ele>371</ele><time>2022-03-19T10:14:16Z</time><name>PT1356</name></trkpt>
<trkpt lat="53.358030" lon="-1.799138"><ele>371</ele><time>2022-03-19T10:14:16Z</time><name>PT1357</name></trkpt>
<trkpt lat="53.358033" lon="-1.799155"><ele>370</ele><time>2022-03-19T10:14:18Z</time><name>PT1358</name></trkpt>
<trkpt lat="53.358037" lon="-1.799171"><ele>370</ele><time>2022-03-19T10:14:19Z</time><name>PT1359</name></trkpt>
<trkpt lat="53.358042" lon="-1.799188"><ele>369</ele><time>2022-03-19T10:14:20Z</time><name>PT1360</name></trkpt>
<trkpt lat="53.358045" lon="-1.799205"><ele>369</ele><time>2022-03-19T10:14:21Z</time><name>PT1361</name></trkpt>
<trkpt lat="53.358046" lon="-1.799220"><ele>369</ele><time>2022-03-19T10:14:22Z</time><name>PT1362</name></trkpt>
<trkpt lat="53.358048" lon="-1.799233"><ele>369</ele><time>2022-03-19T10:14:22Z</time><name>PT1363</name></trkpt>
<trkpt lat="53.358054" lon="-1.799247"><ele>369</ele><time>2022-03-19T10:14:24Z</time><name>PT1364</name></trkpt>
<trkpt lat="53.358060" lon="-1.799257"><ele>369</ele><time>2022-03-19T10:14:25Z</time><name>PT1365</name></trkpt>
<trkpt lat="53.358063" lon="-1.799270"><ele>369</ele><time>2022-03-19T10:14:25Z</time><name>PT1366</name></trkpt>
<trkpt lat="53.358062" lon="-1.799282"><ele>369</ele><time>2022-03-19T10:14:27Z</time><name>PT1367</name></trkpt>
<trkpt lat="53.358061" lon="-1.799295"><ele>369</ele><time>2022-03-19T10:14:28Z</time><name>PT1368</name></trkpt>
<trkpt lat="53.358065" lon="-1.799308"><ele>369</ele><time>2022-03-19T10:14:28Z</time><name>PT1369</name></trkpt>
<trkpt lat="53.358069" lon="-1.799323"><ele>369</ele><time>2022-03-19T10:14:30Z</time><name>PT1370</name></trkpt>
<trkpt lat="53.358072" lon="-1.799339"><ele>368</ele><time>2022-03-19T10:14:31Z</time><name>PT1371</name></trkpt>
<trkpt lat="53.358074" lon="-1.799354"><ele>368</ele><time>2022-03-19T10:14:31Z</time><name>PT1372</name></trkpt>
<trkpt lat="53.358075" lon="-1.799366"><ele>368</ele><time>2022-03-19T10:14:33Z</time><name>PT1373</name></trkpt>
<trkpt lat="53.358079" lon="-1.799381"><ele>368</ele><time>2022-03-19T10:14:34Z</time><name>PT1374</name></trkpt>
<trkpt lat="53.358082" lon="-1.799391"><ele>368</ele><time>2022-03-19T10:14:34Z</time><name>PT1375</name></trkpt>
<trkpt lat="53.358085" lon="-1.799405"><ele>368</ele><time>2022-03-19T10:14:36Z</time><name>PT1376</name></trkpt>
<trkpt lat="53.358086" lon="-1.799418"><ele>368</ele><time>2022-03-19T10:14:37Z</time><name>PT1377</name></trkpt>
<trkpt lat="53.358089" lon="-1.799430"><ele>368</ele><time>2022-03-19T10:14:38Z</time><name>PT1378</name></trkpt>
<trkpt lat="53.358093" lon="-1.799442"><ele>367</ele><time>2022-03-19T10:14:39Z</time><name>PT1379</name></trkpt>
<trkpt lat="53.358095" lon="-1.799454"><ele>367</ele><time>2022-03-19T10:14:40Z</time><name>PT1380</name></trkpt>
<trkpt lat="53.358097" lon="-1.799470"><ele>367</ele><time>2022-03-19T10:14:41Z</time><name>PT1381</name></trkpt>
<trkpt lat="53.358098" lon="-1.799487"><ele>367</ele><time>2022-03-19T10:14:42Z</time><name>PT1382</name></trkpt>
<trkpt lat="53.358100" lon="-1.799502"><ele>367</ele><time>2022-03-19T10:14:43Z</time><name>PT1383</name></trkpt>
<trkpt lat="53.358104" lon="-1.799520"><ele>366</ele><time>2022-03-19T10:14:43Z</time><name>PT1384</name></trkpt>
<trkpt lat="53.358107" lon="-1.799536"><ele>366</ele><time>2022-03-19T10:14:45Z</time><name>PT1385</name></trkpt>
<trkpt lat="53.358111" lon="-1.799555"><ele>367</ele><time>2022-03-19T10:14:46Z</time><name>PT1386</name></trkpt>
<trkpt lat="53.358114" lon="-1.799571"><ele>366</ele><time>2022-03-19T10:14:47Z</time><name>PT1387</name></trkpt>
<trkpt lat="53.358116" lon="-1.799585"><ele>366</ele><time>2022-03-19T10:14:48Z</time><name>PT1388</name></trkpt>
<trkpt lat="53.358122" lon="-1.799601"><ele>366</ele><time>2022-03-19T10:14:49Z</time><name>PT1389</name></trkpt>
<trkpt lat="53.358130" lon="-1.799615"><ele>366</ele><time>2022-03-19T10:14:50Z</time><name>PT1390</name></trkpt>
<trkpt lat="53.358135" lon="-1.799631"><ele>365</ele><time>2022-03-19T10:14:51Z</time><name>PT1391</name></trkpt>
<trkpt lat="53.358142" lon="-1.799648"><ele>365</ele><time>2022-03-19T10:14:52Z</time><name>PT1392</name></trkpt>
<trkpt lat="53.358146" lon="-1.799665"><ele>365</ele><time>2022-03-19T10:14:52Z</time><name>PT1393</name></trkpt>
<trkpt lat="53.358149" lon="-1.799683"><ele>365</ele><time>2022-03-19T10:14:54Z</time><name>PT1394</name></trkpt>
<trkpt lat="53.358150" lon="-1.799700"><ele>365</ele><time>2022-03-19T10:14:55Z</time><name>PT1395</name></trkpt>
<trkpt lat="53.358149" lon="-1.799712"><ele>365</ele><time>2022-03-19T10:14:55Z</time><name>PT1396</name></trkpt>
<trkpt lat="53.358149" lon="-1.799722"><ele>365</ele><time>2022-03-19T10:14:57Z</time><name>PT1397</name></trkpt>
<trkpt lat="53.358150" lon="-1.799731"><ele>365</ele><time>2022-03-19T10:14:58Z</time><name>PT1398</name></trkpt>
<trkpt lat="53.358151" lon="-1.799746"><ele>365</ele><time>2022-03-19T10:14:58Z</time><name>PT1399</name></trkpt>
<trkpt lat="53.358155" lon="-1.799760"><ele>365</ele><time>2022-03-19T10:15:00Z</time><name>PT1400</name></trkpt>
<trkpt lat="53.358157" lon="-1.799771"><ele>364</ele><time>2022-03-19T10:15:01Z</time><name>PT1401</name></trkpt>
<trkpt lat="53.358162" lon="-1.799783"><ele>364</ele><time>2022-03-19T10:15:01Z</time><name>PT1402</name></trkpt>
<trkpt lat="53.358165" lon="-1.799797"><ele>365</ele><time>2022-03-19T10:15:03Z</time><name>PT1403</name></trkpt>
<trkpt lat="53.358165" lon="-1.799808"><ele>364</ele><time>2022-03-19T10:15:04Z</time><name>PT1404</name></trkpt>
<trkpt lat="53.358169" lon="-1.799818"><ele>364</ele><time>2022-03-19T10:15:04Z</time><name>PT1405</name></trkpt>
<trkpt lat="53.358175" lon="-1.799828"><ele>364</ele><time>2022-03-19T10:15:06Z</time><name>PT1406</name></trkpt>
<trkpt lat="53.358180" lon="-1.799830"><ele>364</ele><time>2022-03-19T10:15:07Z</time><name>PT1407</name></trkpt>
<trkpt lat="53.358183" lon="-1.799844"><ele>364</ele><time>2022-03-19T10:15:07Z</time><name>PT1408</name></trkpt>
<trkpt lat="53.358185" lon="-1.799842"><ele>363</ele><time>2022-03-19T10:15:09Z</time><name>PT1409</name></trkpt>
<trkpt lat="53.358186" lon="-1.799840"><ele>362</ele><time>2022-03-19T10:15:10Z</time><name>PT1410</name></trkpt>
<trkpt lat="53.358194" lon="-1.799851"><ele>362</ele><time>2022-03-19T10:15:13Z</time><name>PT1411</name></trkpt>
<trkpt lat="53.358205" lon="-1.799888"><ele>361</ele><time>2022-03-19T10:15:16Z</time><name>PT1412</name></trkpt>
<trkpt lat="53.358221" lon="-1.799901"><ele>361</ele><time>2022-03-19T10:15:20Z</time><name>PT1413</name></trkpt>
<trkpt lat="53.358230" lon="-1.799935"><ele>361</ele><time>2022-03-19T10:15:24Z</time><name>PT1414</name></trkpt>
<trkpt lat="53.358232" lon="-1.799983"><ele>360</ele><time>2022-03-19T10:15:28Z</time><name>PT1415</name></trkpt>
<trkpt lat="53.358243" lon="-1.800024"><ele>359</ele><time>2022-03-19T10:15:32Z</time><name>PT1416</name></trkpt>
<trkpt lat="53.358264" lon="-1.800088"><ele>359</ele><time>2022-03-19T10:15:36Z</time><name>PT1417</name></trkpt>
<trkpt lat="53.358273" lon="-1.800134"><ele>358</ele><time>2022-03-19T10:15:40Z</time><name>PT1418</name></trkpt>
<trkpt lat="53.358276" lon="-1.800169"><ele>358</ele><time>2022-03-19T10:15:43Z</time><name>PT1419</name></trkpt>
<trkpt lat="53.358282" lon="-1.800207"><ele>357</ele><time>2022-03-19T10:15:46Z</time><name>PT1420</name></trkpt>
<trkpt lat="53.358289" lon="-1.800268"><ele>356</ele><time>2022-03-19T10:15:49Z</time><name>PT1421</name></trkpt>
<trkpt lat="53.358295" lon="-1.800327"><ele>354</ele><time>2022-03-19T10:15:54Z</time><name>PT1422</name></trkpt>
<trkpt lat="53.358306" lon="-1.800374"><ele>354</ele><time>2022-03-19T10:15:58Z</time><name>PT1423</name></trkpt>
<trkpt lat="53.358312" lon="-1.800417"><ele>353</ele><time>2022-03-19T10:16:01Z</time><name>PT1424</name></trkpt>
<trkpt lat="53.358316" lon="-1.800459"><ele>353</ele><time>2022-03-19T10:16:04Z</time><name>PT1425</name></trkpt>
<trkpt lat="53.358317" lon="-1.800500"><ele>352</ele><time>2022-03-19T10:16:09Z</time><name>PT1426</name></trkpt>
<trkpt lat="53.358320" lon="-1.800530"><ele>352</ele><time>2022-03-19T10:16:12Z</time><name>PT1427</name></trkpt>
<trkpt lat="53.358322" lon="-1.800551"><ele>351</ele><time>2022-03-19T10:16:15Z</time><name>PT1428</name></trkpt>
<trkpt lat="53.358332" lon="-1.800596"><ele>350</ele><time>2022-03-19T10:16:19Z</time><name>PT1429</name></trkpt>
<trkpt lat="53.358343" lon="-1.800626"><ele>350</ele><time>2022-03-19T10:16:22Z</time><name>PT1430</name></trkpt>
<trkpt lat="53.358355" lon="-1.800675"><ele>350</ele><time>2022-03-19T10:16:25Z</time><name>PT1431</name></trkpt>
<trkpt lat="53.358365" lon="-1.800702"><ele>349</ele><time>2022-03-19T10:16:29Z</time><name>PT1432</name></trkpt>
<trkpt lat="53.358369" lon="-1.800750"><ele>347</ele><time>2022-03-19T10:16:33Z</time><name>PT1433</name></trkpt>
<trkpt lat="53.358375" lon="-1.800776"><ele>346</ele><time>2022-03-19T10:16:36Z</time><name>PT1434</name></trkpt>
<trkpt lat="53.358383" lon="-1.800820"><ele>346</ele><time>2022-03-19T10:16:40Z</time><name>PT1435</name></trkpt>
<trkpt lat="53.358388" lon="-1.800867"><ele>345</ele><time>2022-03-19T10:16:43Z</time><name>PT1436</name></trkpt>
<trkpt lat="53.358391" lon="-1.800900"><ele>344</ele><time>2022-03-19T10:16:46Z</time><name>PT1437</name></trkpt>
<trkpt lat="53.358406" lon="-1.800955"><ele>344</ele><time>2022-03-19T10:16:51Z</time><name>PT1438</name></trkpt>
<trkpt lat="53.358417" lon="-1.800987"><ele>344</ele><time>2022-03-19T10:16:54Z</time><name>PT1439</name></trkpt>
<trkpt lat="53.358418" lon="-1.801021"><ele>343</ele><time>2022-03-19T10:16:58Z</time><name>PT1440</name></trkpt>
<trkpt lat="53.358420" lon="-1.801051"><ele>343</ele><time>2022-03-19T10:17:01Z</time><name>PT1441</name></trkpt>
<trkpt lat="53.358431" lon="-1.801090"><ele>342</ele><time>2022-03-19T10:17:04Z</time><name>PT1442</name></trkpt>
<trkpt lat="53.358432" lon="-1.801126"><ele>340</ele><time>2022-03-19T10:17:09Z</time><name>PT1443</name></trkpt>
<trkpt lat="53.358440" lon="-1.801164"><ele>340</ele><time>2022-03-19T10:17:12Z</time><name>PT1444</name></trkpt>
<trkpt lat="53.358445" lon="-1.801216"><ele>339</ele><time>2022-03-19T10:17:16Z</time><name>PT1445</name></trkpt>
<trkpt lat="53.358446" lon="-1.801237"><ele>339</ele><time>2022-03-19T10:17:18Z</time><name>PT1446</name></trkpt>
<trkpt lat="53.358447" lon="-1.801251"><ele>339</ele><time>2022-03-19T10:17:19Z</time><name>PT1447</name></trkpt>
<trkpt lat="53.358451" lon="-1.801267"><ele>339</ele><time>2022-03-19T10:17:19Z</time><name>PT1448</name></trkpt>
<trkpt lat="53.358455" lon="-1.801285"><ele>338</ele><time>2022-03-19T10:17:21Z</time><name>PT1449</name></trkpt>
<trkpt lat="53.358454" lon="-1.801298"><ele>338</ele><time>2022-03-19T10:17:22Z</time><name>PT1450</name></trkpt>
<trkpt lat="53.358453" lon="-1.801309"><ele>337</ele><time>2022-03-19T10:17:22Z</time><name>PT1451</name></trkpt>
<trkpt lat="53.358453" lon="-1.801320"><ele>337</ele><time>2022-03-19T10:17:24Z</time><name>PT1452</name></trkpt>
<trkpt lat="53.358452" lon="-1.801331"><ele>337</ele><time>2022-03-19T10:17:25Z</time><name>PT1453</name></trkpt>
<trkpt lat="53.358454" lon="-1.801343"><ele>337</ele><time>2022-03-19T10:17:25Z</time><name>PT1454</name></trkpt>
<trkpt lat="53.358456" lon="-1.801358"><ele>337</ele><time>2022-03-19T10:17:27Z</time><name>PT1455</name></trkpt>
<trkpt lat="53.358459" lon="-1.801366"><ele>336</ele><time>2022-03-19T10:17:28Z</time><name>PT1456</name></trkpt>
<trkpt lat="53.358463" lon="-1.801381"><ele>336</ele><time>2022-03-19T10:17:28Z</time><name>PT1457</name></trkpt>
<trkpt lat="53.358465" lon="-1.801394"><ele>336</ele><time>2022-03-19T10:17:30Z</time><name>PT1458</name></trkpt>
<trkpt lat="53.358466" lon="-1.801406"><ele>336</ele><time>2022-03-19T10:17:31Z</time><name>PT1459</name></trkpt>
<trkpt lat="53.358467" lon="-1.801417"><ele>336</ele><time>2022-03-19T10:17:32Z</time><name>PT1460</name></trkpt>
<trkpt lat="53.358467" lon="-1.801429"><ele>336</ele><time>2022-03-19T10:17:33Z</time><name>PT1461</name></trkpt>
<trkpt lat="53.358467" lon="-1.801444"><ele>336</ele><time>2022-03-19T10:17:34Z</time><name>PT1462</name></trkpt>
<trkpt lat="53.358468" lon="-1.801458"><ele>336</ele><time>2022-03-19T10:17:35Z</time><name>PT1463</name></trkpt>
<trkpt lat="53.358468" lon="-1.801474"><ele>336</ele><time>2022-03-19T10:17:36Z</time><name>PT1464</name></trkpt>
<trkpt lat="53.358468" lon="-1.801490"><ele>336</ele><time>2022-03-19T10:17:37Z</time><name>PT1465</name></trkpt>
<trkpt lat="53.358467" lon="-1.801503"><ele>335</ele><time>2022-03-19T10:17:38Z</time><name>PT1466</name></trkpt>
<trkpt lat="53.358469" lon="-1.801517"><ele>335</ele><time>2022-03-19T10:17:39Z</time><name>PT1467</name></trkpt>
<trkpt lat="53.358470" lon="-1.801530"><ele>335</ele><time>2022-03-19T10:17:40Z</time><name>PT1468</name></trkpt>
<trkpt lat="53.358469" lon="-1.801542"><ele>335</ele><time>2022-03-19T10:17:40Z</time><name>PT1469</name></trkpt>
<trkpt lat="53.358467" lon="-1.801556"><ele>334</ele><time>2022-03-19T10:17:42Z</time><name>PT1470</name></trkpt>
<trkpt lat="53.358468" lon="-1.801572"><ele>334</ele><time>2022-03-19T10:17:43Z</time><name>PT1471</name></trkpt>
<trkpt lat="53.358468" lon="-1.801586"><ele>334</ele><time>2022-03-19T10:17:44Z</time><name>PT1472</name></trkpt>
<trkpt lat="53.358471" lon="-1.801602"><ele>334</ele><time>2022-03-19T10:17:45Z</time><name>PT1473</name></trkpt>
<trkpt lat="53.358475" lon="-1.801614"><ele>334</ele><time>2022-03-19T10:17:46Z</time><name>PT1474</name></trkpt>
<trkpt lat="53.358478" lon="-1.801627"><ele>334</ele><time>2022-03-19T10:17:47Z</time><name>PT1475</name></trkpt>
<trkpt lat="53.358481" lon="-1.801642"><ele>334</ele><time>2022-03-19T10:17:48Z</time><name>PT1476</name></trkpt>
<trkpt lat="53.358483" lon="-1.801656"><ele>334</ele><time>2022-03-19T10:17:49Z</time><name>PT1477</name></trkpt>
<trkpt lat="53.358485" lon="-1.801668"><ele>334</ele><time>2022-03-19T10:17:50Z</time><name>PT1478</name></trkpt>
<trkpt lat="53.358488" lon="-1.801679"><ele>333</ele><time>2022-03-19T10:17:51Z</time><name>PT1479</name></trkpt>
<trkpt lat="53.358489" lon="-1.801689"><ele>333</ele><time>2022-03-19T10:17:52Z</time><name>PT1480</name></trkpt>
<trkpt lat="53.358488" lon="-1.801702"><ele>333</ele><time>2022-03-19T10:17:53Z</time><name>PT1481</name></trkpt>
<trkpt lat="53.358488" lon="-1.801716"><ele>333</ele><time>2022-03-19T10:17:54Z</time><name>PT1482</name></trkpt>
<trkpt lat="53.358486" lon="-1.801729"><ele>333</ele><time>2022-03-19T10:17:55Z</time><name>PT1483</name></trkpt>
<trkpt lat="53.358486" lon="-1.801745"><ele>332</ele><time>2022-03-19T10:17:55Z</time><name>PT1484</name></trkpt>
<trkpt lat="53.358487" lon="-1.801763"><ele>332</ele><time>2022-03-19T10:17:57Z</time><name>PT1485</name></trkpt>
<trkpt lat="53.358490" lon="-1.801781"><ele>332</ele><time>2022-03-19T10:17:58Z</time><name>PT1486</name></trkpt>
<trkpt lat="53.358492" lon="-1.801795"><ele>331</ele><time>2022-03-19T10:17:58Z</time><name>PT1487</name></trkpt>
<trkpt lat="53.358496" lon="-1.801809"><ele>331</ele><time>2022-03-19T10:18:00Z</time><name>PT1488</name></trkpt>
<trkpt lat="53.358501" lon="-1.801824"><ele>331</ele><time>2022-03-19T10:18:01Z</time><name>PT1489</name></trkpt>
<trkpt lat="53.358503" lon="-1.801838"><ele>331</ele><time>2022-03-19T10:18:01Z</time><name>PT1490</name></trkpt>
<trkpt lat="53.358504" lon="-1.801851"><ele>331</ele><time>2022-03-19T10:18:03Z</time><name>PT1491</name></trkpt>
<trkpt lat="53.358505" lon="-1.801863"><ele>331</ele><time>2022-03-19T10:18:04Z</time><name>PT1492</name></trkpt>
<trkpt lat="53.358507" lon="-1.801875"><ele>331</ele><time>2022-03-19T10:18:05Z</time><name>PT1493</name></trkpt>
<trkpt lat="53.358507" lon="-1.801886"><ele>330</ele><time>2022-03-19T10:18:06Z</time><name>PT1494</name></trkpt>
<trkpt lat="53.358507" lon="-1.801898"><ele>330</ele><time>2022-03-19T10:18:07Z</time><name>PT1495</name></trkpt>
<trkpt lat="53.358506" lon="-1.801910"><ele>330</ele><time>2022-03-19T10:18:07Z</time><name>PT1496</name></trkpt>
<trkpt lat="53.358508" lon="-1.801919"><ele>330</ele><time>2022-03-19T10:18:09Z</time><name>PT1497</name></trkpt>
<trkpt lat="53.358512" lon="-1.801928"><ele>330</ele><time>2022-03-19T10:18:10Z</time><name>PT1498</name></trkpt>
<trkpt lat="53.358516" lon="-1.801938"><ele>330</ele><time>2022-03-19T10:18:10Z</time><name>PT1499</name></trkpt>
<trkpt lat="53.358517" lon="-1.801945"><ele>330</ele><time>2022-03-19T10:18:12Z</time><name>PT1500</name></trkpt>
<trkpt lat="53.358518" lon="-1.801955"><ele>330</ele><time>2022-03-19T10:18:13Z</time><name>PT1501</name></trkpt>
<trkpt lat="53.358522" lon="-1.801968"><ele>329</ele><time>2022-03-19T10:18:13Z</time><name>PT1502</name></trkpt>
<trkpt lat="53.358523" lon="-1.801978"><ele>329</ele><time>2022-03-19T10:18:15Z</time><name>PT1503</name></trkpt>
<trkpt lat="53.358524" lon="-1.801988"><ele>329</ele><time>2022-03-19T10:18:16Z</time><name>PT1504</name></trkpt>
<trkpt lat="53.358525" lon="-1.801999"><ele>329</ele><time>2022-03-19T10:18:16Z</time><name>PT1505</name></trkpt>
<trkpt lat="53.358526" lon="-1.802008"><ele>329</ele><time>2022-03-19T10:18:18Z</time><name>PT1506</name></trkpt>
<trkpt lat="53.358528" lon="-1.802018"><ele>328</ele><time>2022-03-19T10:18:19Z</time><name>PT1507</name></trkpt>
<trkpt lat="53.358532" lon="-1.802032"><ele>328</ele><time>2022-03-19T10:18:20Z</time><name>PT1508</name></trkpt>
<trkpt lat="53.358535" lon="-1.802043"><ele>328</ele><time>2022-03-19T10:18:21Z</time><name>PT1509</name></trkpt>
<trkpt lat="53.358539" lon="-1.802059"><ele>328</ele><time>2022-03-19T10:18:22Z</time><name>PT1510</name></trkpt>
<trkpt lat="53.358544" lon="-1.802078"><ele>328</ele><time>2022-03-19T10:18:22Z</time><name>PT1511</name></trkpt>
<trkpt lat="53.358551" lon="-1.802087"><ele>327</ele><time>2022-03-19T10:18:24Z</time><name>PT1512</name></trkpt>
<trkpt lat="53.358560" lon="-1.802101"><ele>327</ele><time>2022-03-19T10:18:25Z</time><name>PT1513</name></trkpt>
<trkpt lat="53.358565" lon="-1.802109"><ele>327</ele><time>2022-03-19T10:18:25Z</time><name>PT1514</name></trkpt>
<trkpt lat="53.358569" lon="-1.802120"><ele>327</ele><time>2022-03-19T10:18:27Z</time><name>PT1515</name></trkpt>
<trkpt lat="53.358570" lon="-1.802133"><ele>327</ele><time>2022-03-19T10:18:28Z</time><name>PT1516</name></trkpt>
<trkpt lat="53.358571" lon="-1.802149"><ele>326</ele><time>2022-03-19T10:18:28Z</time><name>PT1517</name></trkpt>
<trkpt lat="53.358573" lon="-1.802166"><ele>326</ele><time>2022-03-19T10:18:30Z</time><name>PT1518</name></trkpt>
<trkpt lat="53.358576" lon="-1.802179"><ele>326</ele><time>2022-03-19T10:18:31Z</time><name>PT1519</name></trkpt>
<trkpt lat="53.358580" lon="-1.802186"><ele>326</ele><time>2022-03-19T10:18:32Z</time><name>PT1520</name></trkpt>
<trkpt lat="53.358584" lon="-1.802189"><ele>325</ele><time>2022-03-19T10:18:33Z</time><name>PT1521</name></trkpt>
<trkpt lat="53.358587" lon="-1.802194"><ele>325</ele><time>2022-03-19T10:18:34Z</time><name>PT1522</name></trkpt>
<trkpt lat="53.358588" lon="-1.802199"><ele>325</ele><time>2022-03-19T10:18:35Z</time><name>PT1523</name></trkpt>
<trkpt lat="53.358591" lon="-1.802209"><ele>325</ele><time>2022-03-19T10:18:36Z</time><name>PT1524</name></trkpt>
<trkpt lat="53.358596" lon="-1.802217"><ele>325</ele><time>2022-03-19T10:18:37Z</time><name>PT1525</name></trkpt>
<trkpt lat="53.358600" lon="-1.802226"><ele>325</ele><time>2022-03-19T10:18:38Z</time><name>PT1526</name></trkpt>
<trkpt lat="53.358606" lon="-1.802235"><ele>325</ele><time>2022-03-19T10:18:39Z</time><name>PT1527</name></trkpt>
<trkpt lat="53.358613" lon="-1.802242"><ele>325</ele><time>2022-03-19T10:18:40Z</time><name>PT1528</name></trkpt>
<trkpt lat="53.358620" lon="-1.802249"><ele>325</ele><time>2022-03-19T10:18:41Z</time><name>PT1529</name></trkpt>
<trkpt lat="53.358626" lon="-1.802256"><ele>325</ele><time>2022-03-19T10:18:42Z</time><name>PT1530</name></trkpt>
<trkpt lat="53.358631" lon="-1.802265"><ele>325</ele><time>2022-03-19T10:18:43Z</time><name>PT1531</name></trkpt>
<trkpt lat="53.358634" lon="-1.802276"><ele>325</ele><time>2022-03-19T10:18:43Z</time><name>PT1532</name></trkpt>
<trkpt lat="53.358638" lon="-1.802288"><ele>325</ele><time>2022-03-19T10:18:45Z</time><name>PT1533</name></trkpt>
<trkpt lat="53.358638" lon="-1.802305"><ele>325</ele><time>2022-03-19T10:18:46Z</time><name>PT1534</name></trkpt>
<trkpt lat="53.358639" lon="-1.802317"><ele>325</ele><time>2022-03-19T10:18:46Z</time><name>PT1535</name></trkpt>
<trkpt lat="53.358641" lon="-1.802329"><ele>324</ele><time>2022-03-19T10:18:48Z</time><name>PT1536</name></trkpt>
<trkpt lat="53.358643" lon="-1.802340"><ele>325</ele><time>2022-03-19T10:18:49Z</time><name>PT1537</name></trkpt>
<trkpt lat="53.358649" lon="-1.802354"><ele>325</ele><time>2022-03-19T10:18:50Z</time><name>PT1538</name></trkpt>
<trkpt lat="53.358658" lon="-1.802361"><ele>324</ele><time>2022-03-19T10:18:51Z</time><name>PT1539</name></trkpt>
<trkpt lat="53.358667" lon="-1.802364"><ele>324</ele><time>2022-03-19T10:18:52Z</time><name>PT1540</name></trkpt>
<trkpt lat="53.358676" lon="-1.802363"><ele>323</ele><time>2022-03-19T10:18:53Z</time><name>PT1541</name></trkpt>
<trkpt lat="53.358684" lon="-1.802367"><ele>323</ele><time>2022-03-19T10:18:54Z</time><name>PT1542</name></trkpt>
<trkpt lat="53.358690" lon="-1.802373"><ele>323</ele><time>2022-03-19T10:18:55Z</time><name>PT1543</name></trkpt>
<trkpt lat="53.358695" lon="-1.802379"><ele>323</ele><time>2022-03-19T10:18:55Z</time><name>PT1544</name></trkpt>
<trkpt lat="53.358701" lon="-1.802385"><ele>323</ele><time>2022-03-19T10:18:57Z</time><name>PT1545</name></trkpt>
<trkpt lat="53.358708" lon="-1.802391"><ele>323</ele><time>2022-03-19T10:18:58Z</time><name>PT1546</name></trkpt>
<trkpt lat="53.358714" lon="-1.802396"><ele>323</ele><time>2022-03-19T10:18:59Z</time><name>PT1547</name></trkpt>
<trkpt lat="53.358719" lon="-1.802407"><ele>323</ele><time>2022-03-19T10:19:00Z</time><name>PT1548</name></trkpt>
<trkpt lat="53.358715" lon="-1.802419"><ele>321</ele><time>2022-03-19T10:19:01Z</time><name>PT1549</name></trkpt>
<trkpt lat="53.358720" lon="-1.802429"><ele>321</ele><time>2022-03-19T10:19:02Z</time><name>PT1550</name></trkpt>
<trkpt lat="53.358727" lon="-1.802438"><ele>321</ele><time>2022-03-19T10:19:03Z</time><name>PT1551</name></trkpt>
<trkpt lat="53.358732" lon="-1.802446"><ele>321</ele><time>2022-03-19T10:19:04Z</time><name>PT1552</name></trkpt>
<trkpt lat="53.358737" lon="-1.802457"><ele>320</ele><time>2022-03-19T10:19:04Z</time><name>PT1553</name></trkpt>
<trkpt lat="53.358742" lon="-1.802468"><ele>320</ele><time>2022-03-19T10:19:06Z</time><name>PT1554</name></trkpt>
<trkpt lat="53.358746" lon="-1.802482"><ele>320</ele><time>2022-03-19T10:19:07Z</time><name>PT1555</name></trkpt>
<trkpt lat="53.358748" lon="-1.802498"><ele>320</ele><time>2022-03-19T10:19:07Z</time><name>PT1556</name></trkpt>
<trkpt lat="53.358751" lon="-1.802515"><ele>319</ele><time>2022-03-19T10:19:09Z</time><name>PT1557</name></trkpt>
<trkpt lat="53.358752" lon="-1.802533"><ele>319</ele><time>2022-03-19T10:19:10Z</time><name>PT1558</name></trkpt>
<trkpt lat="53.358756" lon="-1.802550"><ele>318</ele><time>2022-03-19T10:19:11Z</time><name>PT1559</name></trkpt>
<trkpt lat="53.358761" lon="-1.802565"><ele>318</ele><time>2022-03-19T10:19:12Z</time><name>PT1560</name></trkpt>
<trkpt lat="53.358766" lon="-1.802578"><ele>318</ele><time>2022-03-19T10:19:13Z</time><name>PT1561</name></trkpt>
<trkpt lat="53.358772" lon="-1.802595"><ele>318</ele><time>2022-03-19T10:19:13Z</time><name>PT1562</name></trkpt>
<trkpt lat="53.358778" lon="-1.802612"><ele>317</ele><time>2022-03-19T10:19:15Z</time><name>PT1563</name></trkpt>
<trkpt lat="53.358782" lon="-1.802627"><ele>317</ele><time>2022-03-19T10:19:16Z</time><name>PT1564</name></trkpt>
<trkpt lat="53.358785" lon="-1.802643"><ele>316</ele><time>2022-03-19T10:19:17Z</time><name>PT1565</name></trkpt>
<trkpt lat="53.358798" lon="-1.802687"><ele>316</ele><time>2022-03-19T10:19:20Z</time><name>PT1566</name></trkpt>
<trkpt lat="53.358806" lon="-1.802732"><ele>316</ele><time>2022-03-19T10:19:24Z</time><name>PT1567</name></trkpt>
<trkpt lat="53.358806" lon="-1.802737"><ele>316</ele><time>2022-03-19T10:19:27Z</time><name>PT1568</name></trkpt>
<trkpt lat="53.358814" lon="-1.802761"><ele>315</ele><time>2022-03-19T10:19:56Z</time><name>PT1569</name></trkpt>
<trkpt lat="53.358835" lon="-1.802794"><ele>314</ele><time>2022-03-19T10:19:59Z</time><name>PT1570</name></trkpt>
<trkpt lat="53.358859" lon="-1.802830"><ele>313</ele><time>2022-03-19T10:20:03Z</time><name>PT1571</name></trkpt>
<trkpt lat="53.358881" lon="-1.802847"><ele>313</ele><time>2022-03-19T10:20:06Z</time><name>PT1572</name></trkpt>
<trkpt lat="53.358903" lon="-1.802850"><ele>311</ele><time>2022-03-19T10:20:09Z</time><name>PT1573</name></trkpt>
<trkpt lat="53.358940" lon="-1.802848"><ele>308</ele><time>2022-03-19T10:20:13Z</time><name>PT1574</name></trkpt>
<trkpt lat="53.358959" lon="-1.802863"><ele>307</ele><time>2022-03-19T10:20:16Z</time><name>PT1575</name></trkpt>
<trkpt lat="53.358985" lon="-1.802882"><ele>307</ele><time>2022-03-19T10:20:19Z</time><name>PT1576</name></trkpt>
<trkpt lat="53.359007" lon="-1.802904"><ele>306</ele><time>2022-03-19T10:20:22Z</time><name>PT1577</name></trkpt>
<trkpt lat="53.359041" lon="-1.802944"><ele>305</ele><time>2022-03-19T10:20:26Z</time><name>PT1578</name></trkpt>
<trkpt lat="53.359063" lon="-1.802978"><ele>303</ele><time>2022-03-19T10:20:30Z</time><name>PT1579</name></trkpt>
<trkpt lat="53.359084" lon="-1.802999"><ele>302</ele><time>2022-03-19T10:20:33Z</time><name>PT1580</name></trkpt>
<trkpt lat="53.359104" lon="-1.803025"><ele>301</ele><time>2022-03-19T10:20:36Z</time><name>PT1581</name></trkpt>
<trkpt lat="53.359133" lon="-1.803060"><ele>301</ele><time>2022-03-19T10:20:40Z</time><name>PT1582</name></trkpt>
<trkpt lat="53.359142" lon="-1.803071"><ele>300</ele><time>2022-03-19T10:20:40Z</time><name>PT1583</name></trkpt>
<trkpt lat="53.359152" lon="-1.803078"><ele>300</ele><time>2022-03-19T10:20:42Z</time><name>PT1584</name></trkpt>
<trkpt lat="53.359161" lon="-1.803085"><ele>299</ele><time>2022-03-19T10:20:43Z</time><name>PT1585</name></trkpt>
<trkpt lat="53.359168" lon="-1.803091"><ele>299</ele><time>2022-03-19T10:20:43Z</time><name>PT1586</name></trkpt>
<trkpt lat="53.359174" lon="-1.803097"><ele>299</ele><time>2022-03-19T10:20:45Z</time><name>PT1587</name></trkpt>
<trkpt lat="53.359179" lon="-1.803102"><ele>298</ele><time>2022-03-19T10:20:46Z</time><name>PT1588</name></trkpt>
<trkpt lat="53.359191" lon="-1.803105"><ele>298</ele><time>2022-03-19T10:20:46Z</time><name>PT1589</name></trkpt>
<trkpt lat="53.359201" lon="-1.803102"><ele>297</ele><time>2022-03-19T10:20:48Z</time><name>PT1590</name></trkpt>
<trkpt lat="53.359210" lon="-1.803102"><ele>298</ele><time>2022-03-19T10:20:49Z</time><name>PT1591</name></trkpt>
<trkpt lat="53.359222" lon="-1.803106"><ele>297</ele><time>2022-03-19T10:20:49Z</time><name>PT1592</name></trkpt>
<trkpt lat="53.359232" lon="-1.803113"><ele>297</ele><time>2022-03-19T10:20:51Z</time><name>PT1593</name></trkpt>
<trkpt lat="53.359242" lon="-1.803119"><ele>297</ele><time>2022-03-19T10:20:52Z</time><name>PT1594</name></trkpt>
<trkpt lat="53.359247" lon="-1.803127"><ele>297</ele><time>2022-03-19T10:20:52Z</time><name>PT1595</name></trkpt>
<trkpt lat="53.359253" lon="-1.803134"><ele>296</ele><time>2022-03-19T10:20:54Z</time><name>PT1596</name></trkpt>
<trkpt lat="53.359260" lon="-1.803149"><ele>297</ele><time>2022-03-19T10:20:55Z</time><name>PT1597</name></trkpt>
<trkpt lat="53.359268" lon="-1.803166"><ele>296</ele><time>2022-03-19T10:20:55Z</time><name>PT1598</name></trkpt>
<trkpt lat="53.359275" lon="-1.803181"><ele>296</ele><time>2022-03-19T10:20:57Z</time><name>PT1599</name></trkpt>
<trkpt lat="53.359283" lon="-1.803192"><ele>296</ele><time>2022-03-19T10:20:58Z</time><name>PT1600</name></trkpt>
<trkpt lat="53.359290" lon="-1.803202"><ele>295</ele><time>2022-03-19T10:20:59Z</time><name>PT1601</name></trkpt>
<trkpt lat="53.359300" lon="-1.803212"><ele>295</ele><time>2022-03-19T10:21:00Z</time><name>PT1602</name></trkpt>
<trkpt lat="53.359309" lon="-1.803219"><ele>295</ele><time>2022-03-19T10:21:01Z</time><name>PT1603</name></trkpt>
<trkpt lat="53.359315" lon="-1.803228"><ele>294</ele><time>2022-03-19T10:21:02Z</time><name>PT1604</name></trkpt>
<trkpt lat="53.359322" lon="-1.803237"><ele>294</ele><time>2022-03-19T10:21:03Z</time><name>PT1605</name></trkpt>
<trkpt lat="53.359330" lon="-1.803246"><ele>294</ele><time>2022-03-19T10:21:04Z</time><name>PT1606</name></trkpt>
<trkpt lat="53.359336" lon="-1.803257"><ele>293</ele><time>2022-03-19T10:21:04Z</time><name>PT1607</name></trkpt>
<trkpt lat="53.359343" lon="-1.803267"><ele>293</ele><time>2022-03-19T10:21:06Z</time><name>PT1608</name></trkpt>
<trkpt lat="53.359349" lon="-1.803277"><ele>293</ele><time>2022-03-19T10:21:07Z</time><name>PT1609</name></trkpt>
<trkpt lat="53.359356" lon="-1.803288"><ele>293</ele><time>2022-03-19T10:21:07Z</time><name>PT1610</name></trkpt>
<trkpt lat="53.359363" lon="-1.803300"><ele>292</ele><time>2022-03-19T10:21:09Z</time><name>PT1611</name></trkpt>
<trkpt lat="53.359371" lon="-1.803311"><ele>291</ele><time>2022-03-19T10:21:10Z</time><name>PT1612</name></trkpt>
<trkpt lat="53.359380" lon="-1.803320"><ele>291</ele><time>2022-03-19T10:21:11Z</time><name>PT1613</name></trkpt>
<trkpt lat="53.359387" lon="-1.803327"><ele>291</ele><time>2022-03-19T10:21:12Z</time><name>PT1614</name></trkpt>
<trkpt lat="53.359394" lon="-1.803337"><ele>290</ele><time>2022-03-19T10:21:13Z</time><name>PT1615</name></trkpt>
<trkpt lat="53.359401" lon="-1.803350"><ele>290</ele><time>2022-03-19T10:21:13Z</time><name>PT1616</name></trkpt>
<trkpt lat="53.359407" lon="-1.803368"><ele>290</ele><time>2022-03-19T10:21:15Z</time><name>PT1617</name></trkpt>
<trkpt lat="53.359412" lon="-1.803385"><ele>290</ele><time>2022-03-19T10:21:16Z</time><name>PT1618</name></trkpt>
<trkpt lat="53.359417" lon="-1.803401"><ele>290</ele><time>2022-03-19T10:21:16Z</time><name>PT1619</name></trkpt>
<trkpt lat="53.359424" lon="-1.803417"><ele>289</ele><time>2022-03-19T10:21:18Z</time><name>PT1620</name></trkpt>
<trkpt lat="53.359430" lon="-1.803433"><ele>289</ele><time>2022-03-19T10:21:19Z</time><name>PT1621</name></trkpt>
<trkpt lat="53.359435" lon="-1.803445"><ele>289</ele><time>2022-03-19T10:21:20Z</time><name>PT1622</name></trkpt>
<trkpt lat="53.359440" lon="-1.803455"><ele>289</ele><time>2022-03-19T10:21:21Z</time><name>PT1623</name></trkpt>
<trkpt lat="53.359447" lon="-1.803462"><ele>289</ele><time>2022-03-19T10:21:22Z</time><name>PT1624</name></trkpt>
<trkpt lat="53.359455" lon="-1.803468"><ele>288</ele><time>2022-03-19T10:21:22Z</time><name>PT1625</name></trkpt>
<trkpt lat="53.359461" lon="-1.803472"><ele>288</ele><time>2022-03-19T10:21:24Z</time><name>PT1626</name></trkpt>
<trkpt lat="53.359468" lon="-1.803480"><ele>288</ele><time>2022-03-19T10:21:25Z</time><name>PT1627</name></trkpt>
<trkpt lat="53.359479" lon="-1.803488"><ele>288</ele><time>2022-03-19T10:21:25Z</time><name>PT1628</name></trkpt>
<trkpt lat="53.359491" lon="-1.803498"><ele>288</ele><time>2022-03-19T10:21:27Z</time><name>PT1629</name></trkpt>
<trkpt lat="53.359501" lon="-1.803501"><ele>288</ele><time>2022-03-19T10:21:28Z</time><name>PT1630</name></trkpt>
<trkpt lat="53.359509" lon="-1.803506"><ele>288</ele><time>2022-03-19T10:21:28Z</time><name>PT1631</name></trkpt>
<trkpt lat="53.359511" lon="-1.803518"><ele>287</ele><time>2022-03-19T10:21:30Z</time><name>PT1632</name></trkpt>
<trkpt lat="53.359516" lon="-1.803531"><ele>287</ele><time>2022-03-19T10:21:31Z</time><name>PT1633</name></trkpt>
<trkpt lat="53.359523" lon="-1.803544"><ele>287</ele><time>2022-03-19T10:21:32Z</time><name>PT1634</name></trkpt>
<trkpt lat="53.359529" lon="-1.803553"><ele>287</ele><time>2022-03-19T10:21:33Z</time><name>PT1635</name></trkpt>
<trkpt lat="53.359534" lon="-1.803562"><ele>287</ele><time>2022-03-19T10:21:34Z</time><name>PT1636</name></trkpt>
<trkpt lat="53.359535" lon="-1.803563"><ele>287</ele><time>2022-03-19T10:21:34Z</time><name>PT1637</name></trkpt>
<trkpt lat="53.359533" lon="-1.803562"><ele>286</ele><time>2022-03-19T10:21:36Z</time><name>PT1638</name></trkpt>
<trkpt lat="53.359533" lon="-1.803563"><ele>286</ele><time>2022-03-19T10:21:37Z</time><name>PT1639</name></trkpt>
<trkpt lat="53.359535" lon="-1.803566"><ele>286</ele><time>2022-03-19T10:21:37Z</time><name>PT1640</name></trkpt>
<trkpt lat="53.359537" lon="-1.803569"><ele>285</ele><time>2022-03-19T10:21:39Z</time><name>PT1641</name></trkpt>
<trkpt lat="53.359537" lon="-1.803572"><ele>285</ele><time>2022-03-19T10:21:41Z</time><name>PT1642</name></trkpt>
<trkpt lat="53.359534" lon="-1.803574"><ele>285</ele><time>2022-03-19T10:21:42Z</time><name>PT1643</name></trkpt>
<trkpt lat="53.359538" lon="-1.803576"><ele>285</ele><time>2022-03-19T10:21:43Z</time><name>PT1644</name></trkpt>
<trkpt lat="53.359542" lon="-1.803579"><ele>285</ele><time>2022-03-19T10:21:44Z</time><name>PT1645</name></trkpt>
<trkpt lat="53.359547" lon="-1.803579"><ele>285</ele><time>2022-03-19T10:21:45Z</time><name>PT1646</name></trkpt>
<trkpt lat="53.359551" lon="-1.803583"><ele>285</ele><time>2022-03-19T10:21:46Z</time><name>PT1647</name></trkpt>
<trkpt lat="53.359556" lon="-1.803587"><ele>284</ele><time>2022-03-19T10:21:46Z</time><name>PT1648</name></trkpt>
<trkpt lat="53.359567" lon="-1.803591"><ele>284</ele><time>2022-03-19T10:21:48Z</time><name>PT1649</name></trkpt>
<trkpt lat="53.359578" lon="-1.803596"><ele>283</ele><time>2022-03-19T10:21:49Z</time><name>PT1650</name></trkpt>
<trkpt lat="53.359589" lon="-1.803605"><ele>283</ele><time>2022-03-19T10:21:50Z</time><name>PT1651</name></trkpt>
<trkpt lat="53.359599" lon="-1.803609"><ele>283</ele><time>2022-03-19T10:21:51Z</time><name>PT1652</name></trkpt>
<trkpt lat="53.359607" lon="-1.803619"><ele>283</ele><time>2022-03-19T10:21:52Z</time><name>PT1653</name></trkpt>
<trkpt lat="53.359615" lon="-1.803624"><ele>283</ele><time>2022-03-19T10:21:52Z</time><name>PT1654</name></trkpt>
<trkpt lat="53.359620" lon="-1.803630"><ele>283</ele><time>2022-03-19T10:21:54Z</time><name>PT1655</name></trkpt>
<trkpt lat="53.359627" lon="-1.803638"><ele>283</ele><time>2022-03-19T10:21:55Z</time><name>PT1656</name></trkpt>
<trkpt lat="53.359633" lon="-1.803648"><ele>283</ele><time>2022-03-19T10:21:55Z</time><name>PT1657</name></trkpt>
<trkpt lat="53.359639" lon="-1.803656"><ele>283</ele><time>2022-03-19T10:21:57Z</time><name>PT1658</name></trkpt>
<trkpt lat="53.359640" lon="-1.803661"><ele>284</ele><time>2022-03-19T10:21:58Z</time><name>PT1659</name></trkpt>
<trkpt lat="53.359641" lon="-1.803660"><ele>284</ele><time>2022-03-19T10:21:58Z</time><name>PT1660</name></trkpt>
<trkpt lat="53.359643" lon="-1.803663"><ele>283</ele><time>2022-03-19T10:22:00Z</time><name>PT1661</name></trkpt>
<trkpt lat="53.359645" lon="-1.803663"><ele>283</ele><time>2022-03-19T10:22:01Z</time><name>PT1662</name></trkpt>
<trkpt lat="53.359645" lon="-1.803662"><ele>283</ele><time>2022-03-19T10:22:01Z</time><name>PT1663</name></trkpt>
<trkpt lat="53.359645" lon="-1.803663"><ele>283</ele><time>2022-03-19T10:22:03Z</time><name>PT1664</name></trkpt>
<trkpt lat="53.359648" lon="-1.803668"><ele>282</ele><time>2022-03-19T10:22:06Z</time><name>PT1665</name></trkpt>
<trkpt lat="53.359655" lon="-1.803681"><ele>282</ele><time>2022-03-19T10:22:07Z</time><name>PT1666</name></trkpt>
<trkpt lat="53.359664" lon="-1.803690"><ele>282</ele><time>2022-03-19T10:22:07Z</time><name>PT1667</name></trkpt>
<trkpt lat="53.359673" lon="-1.803699"><ele>282</ele><time>2022-03-19T10:22:09Z</time><name>PT1668</name></trkpt>
<trkpt lat="53.359679" lon="-1.803708"><ele>282</ele><time>2022-03-19T10:22:10Z</time><name>PT1669</name></trkpt>
<trkpt lat="53.359688" lon="-1.803718"><ele>282</ele><time>2022-03-19T10:22:10Z</time><name>PT1670</name></trkpt>
<trkpt lat="53.359699" lon="-1.803729"><ele>282</ele><time>2022-03-19T10:22:12Z</time><name>PT1671</name></trkpt>
<trkpt lat="53.359707" lon="-1.803738"><ele>281</ele><time>2022-03-19T10:22:13Z</time><name>PT1672</name></trkpt>
<trkpt lat="53.359715" lon="-1.803750"><ele>282</ele><time>2022-03-19T10:22:13Z</time><name>PT1673</name></trkpt>
<trkpt lat="53.359724" lon="-1.803764"><ele>282</ele><time>2022-03-19T10:22:15Z</time><name>PT1674</name></trkpt>
<trkpt lat="53.359730" lon="-1.803775"><ele>282</ele><time>2022-03-19T10:22:16Z</time><name>PT1675</name></trkpt>
<trkpt lat="53.359737" lon="-1.803786"><ele>282</ele><time>2022-03-19T10:22:16Z</time><name>PT1676</name></trkpt>
<trkpt lat="53.359745" lon="-1.803800"><ele>281</ele><time>2022-03-19T10:22:18Z</time><name>PT1677</name></trkpt>
<trkpt lat="53.359752" lon="-1.803817"><ele>281</ele><time>2022-03-19T10:22:19Z</time><name>PT1678</name></trkpt>
<trkpt lat="53.359756" lon="-1.803831"><ele>281</ele><time>2022-03-19T10:22:19Z</time><name>PT1679</name></trkpt>
<trkpt lat="53.359764" lon="-1.803845"><ele>281</ele><time>2022-03-19T10:22:21Z</time><name>PT1680</name></trkpt>
<trkpt lat="53.359771" lon="-1.803860"><ele>281</ele><time>2022-03-19T10:22:22Z</time><name>PT1681</name></trkpt>
<trkpt lat="53.359779" lon="-1.803867"><ele>281</ele><time>2022-03-19T10:22:22Z</time><name>PT1682</name></trkpt>
<trkpt lat="53.359788" lon="-1.803878"><ele>281</ele><time>2022-03-19T10:22:24Z</time><name>PT1683</name></trkpt>
<trkpt lat="53.359798" lon="-1.803890"><ele>281</ele><time>2022-03-19T10:22:25Z</time><name>PT1684</name></trkpt>
<trkpt lat="53.359806" lon="-1.803899"><ele>281</ele><time>2022-03-19T10:22:25Z</time><name>PT1685</name></trkpt>
<trkpt lat="53.359812" lon="-1.803909"><ele>281</ele><time>2022-03-19T10:22:27Z</time><name>PT1686</name></trkpt>
<trkpt lat="53.359820" lon="-1.803921"><ele>281</ele><time>2022-03-19T10:22:28Z</time><name>PT1687</name></trkpt>
<trkpt lat="53.359827" lon="-1.803928"><ele>280</ele><time>2022-03-19T10:22:28Z</time><name>PT1688</name></trkpt>
<trkpt lat="53.359835" lon="-1.803937"><ele>280</ele><time>2022-03-19T10:22:30Z</time><name>PT1689</name></trkpt>
<trkpt lat="53.359843" lon="-1.803943"><ele>280</ele><time>2022-03-19T10:22:31Z</time><name>PT1690</name></trkpt>
<trkpt lat="53.359850" lon="-1.803952"><ele>280</ele><time>2022-03-19T10:22:32Z</time><name>PT1691</name></trkpt>
<trkpt lat="53.359858" lon="-1.803963"><ele>280</ele><time>2022-03-19T10:22:33Z</time><name>PT1692</name></trkpt>
<trkpt lat="53.359867" lon="-1.803974"><ele>280</ele><time>2022-03-19T10:22:34Z</time><name>PT1693</name></trkpt>
<trkpt lat="53.359875" lon="-1.803985"><ele>280</ele><time>2022-03-19T10:22:34Z</time><name>PT1694</name></trkpt>
<trkpt lat="53.359880" lon="-1.803993"><ele>280</ele><time>2022-03-19T10:22:36Z</time><name>PT1695</name></trkpt>
<trkpt lat="53.359887" lon="-1.803998"><ele>280</ele><time>2022-03-19T10:22:37Z</time><name>PT1696</name></trkpt>
<trkpt lat="53.359896" lon="-1.804004"><ele>280</ele><time>2022-03-19T10:22:37Z</time><name>PT1697</name></trkpt>
<trkpt lat="53.359903" lon="-1.804009"><ele>280</ele><time>2022-03-19T10:22:39Z</time><name>PT1698</name></trkpt>
<trkpt lat="53.359929" lon="-1.804042"><ele>280</ele><time>2022-03-19T10:22:42Z</time><name>PT1699</name></trkpt>
<trkpt lat="53.359958" lon="-1.804071"><ele>278</ele><time>2022-03-19T10:22:46Z</time><name>PT1700</name></trkpt>
<trkpt lat="53.359983" lon="-1.804095"><ele>277</ele><time>2022-03-19T10:22:49Z</time><name>PT1701</name></trkpt>
<trkpt lat="53.360010" lon="-1.804126"><ele>277</ele><time>2022-03-19T10:22:52Z</time><name>PT1702</name></trkpt>
<trkpt lat="53.360038" lon="-1.804170"><ele>277</ele><time>2022-03-19T10:22:57Z</time><name>PT1703</name></trkpt>
<trkpt lat="53.360054" lon="-1.804209"><ele>277</ele><time>2022-03-19T10:23:00Z</time><name>PT1704</name></trkpt>
<trkpt lat="53.360065" lon="-1.804260"><ele>277</ele><time>2022-03-19T10:23:03Z</time><name>PT1705</name></trkpt>
<trkpt lat="53.360079" lon="-1.804310"><ele>277</ele><time>2022-03-19T10:23:06Z</time><name>PT1706</name></trkpt>
<trkpt lat="53.360095" lon="-1.804361"><ele>277</ele><time>2022-03-19T10:23:10Z</time><name>PT1707</name></trkpt>
<trkpt lat="53.360102" lon="-1.804377"><ele>277</ele><time>2022-03-19T10:23:13Z</time><name>PT1708</name></trkpt>
<trkpt lat="53.360105" lon="-1.804383"><ele>277</ele><time>2022-03-19T10:23:16Z</time><name>PT1709</name></trkpt>
<trkpt lat="53.360107" lon="-1.804384"><ele>276</ele><time>2022-03-19T10:23:19Z</time><name>PT1710</name></trkpt>
<trkpt lat="53.360112" lon="-1.804371"><ele>276</ele><time>2022-03-19T10:23:24Z</time><name>PT1711</name></trkpt>
<trkpt lat="53.360125" lon="-1.804360"><ele>276</ele><time>2022-03-19T10:23:33Z</time><name>PT1712</name></trkpt>
<trkpt lat="53.360127" lon="-1.804366"><ele>275</ele><time>2022-03-19T10:23:37Z</time><name>PT1713</name></trkpt>
<trkpt lat="53.360122" lon="-1.804371"><ele>275</ele><time>2022-03-19T10:23:40Z</time><name>PT1714</name></trkpt>
<trkpt lat="53.360117" lon="-1.804378"><ele>275</ele><time>2022-03-19T10:23:51Z</time><name>PT1715</name></trkpt>
<trkpt lat="53.360120" lon="-1.804394"><ele>276</ele><time>2022-03-19T10:24:57Z</time><name>PT1716</name></trkpt>
<trkpt lat="53.360136" lon="-1.804454"><ele>276</ele><time>2022-03-19T10:25:00Z</time><name>PT1717</name></trkpt>
<trkpt lat="53.360164" lon="-1.804527"><ele>275</ele><time>2022-03-19T10:25:04Z</time><name>PT1718</name></trkpt>
<trkpt lat="53.360192" lon="-1.804578"><ele>274</ele><time>2022-03-19T10:25:07Z</time><name>PT1719</name></trkpt>
<trkpt lat="53.360227" lon="-1.804632"><ele>273</ele><time>2022-03-19T10:25:10Z</time><name>PT1720</name></trkpt>
<trkpt lat="53.360252" lon="-1.804665"><ele>273</ele><time>2022-03-19T10:25:13Z</time><name>PT1721</name></trkpt>
<trkpt lat="53.360292" lon="-1.804712"><ele>273</ele><time>2022-03-19T10:25:18Z</time><name>PT1722</name></trkpt>
<trkpt lat="53.360333" lon="-1.804761"><ele>272</ele><time>2022-03-19T10:25:22Z</time><name>PT1723</name></trkpt>
<trkpt lat="53.360364" lon="-1.804800"><ele>271</ele><time>2022-03-19T10:25:25Z</time><name>PT1724</name></trkpt>
<trkpt lat="53.360404" lon="-1.804833"><ele>271</ele><time>2022-03-19T10:25:28Z</time><name>PT1725</name></trkpt>
<trkpt lat="53.360432" lon="-1.804860"><ele>271</ele><time>2022-03-19T10:25:31Z</time><name>PT1726</name></trkpt>
<trkpt lat="53.360460" lon="-1.804889"><ele>271</ele><time>2022-03-19T10:25:34Z</time><name>PT1727</name></trkpt>
<trkpt lat="53.360488" lon="-1.804918"><ele>270</ele><time>2022-03-19T10:25:37Z</time><name>PT1728</name></trkpt>
<trkpt lat="53.360514" lon="-1.804953"><ele>270</ele><time>2022-03-19T10:25:40Z</time><name>PT1729</name></trkpt>
<trkpt lat="53.360544" lon="-1.804989"><ele>269</ele><time>2022-03-19T10:25:43Z</time><name>PT1730</name></trkpt>
<trkpt lat="53.360582" lon="-1.805022"><ele>268</ele><time>2022-03-19T10:25:48Z</time><name>PT1731</name></trkpt>
<trkpt lat="53.360617" lon="-1.805026"><ele>268</ele><time>2022-03-19T10:25:51Z</time><name>PT1732</name></trkpt>
<trkpt lat="53.360648" lon="-1.805017"><ele>268</ele><time>2022-03-19T10:25:54Z</time><name>PT1733</name></trkpt>
<trkpt lat="53.360682" lon="-1.805035"><ele>266</ele><time>2022-03-19T10:25:57Z</time><name>PT1734</name></trkpt>
<trkpt lat="53.360711" lon="-1.805060"><ele>266</ele><time>2022-03-19T10:26:00Z</time><name>PT1735</name></trkpt>
<trkpt lat="53.360741" lon="-1.805079"><ele>266</ele><time>2022-03-19T10:26:03Z</time><name>PT1736</name></trkpt>
<trkpt lat="53.360787" lon="-1.805106"><ele>264</ele><time>2022-03-19T10:26:07Z</time><name>PT1737</name></trkpt>
<trkpt lat="53.360821" lon="-1.805133"><ele>264</ele><time>2022-03-19T10:26:10Z</time><name>PT1738</name></trkpt>
<trkpt lat="53.360861" lon="-1.805163"><ele>264</ele><time>2022-03-19T10:26:13Z</time><name>PT1739</name></trkpt>
<trkpt lat="53.360897" lon="-1.805188"><ele>263</ele><time>2022-03-19T10:26:16Z</time><name>PT1740</name></trkpt>
<trkpt lat="53.360947" lon="-1.805208"><ele>262</ele><time>2022-03-19T10:26:21Z</time><name>PT1741</name></trkpt>
<trkpt lat="53.360979" lon="-1.805271"><ele>261</ele><time>2022-03-19T10:26:25Z</time><name>PT1742</name></trkpt>
<trkpt lat="53.360996" lon="-1.805309"><ele>261</ele><time>2022-03-19T10:26:28Z</time><name>PT1743</name></trkpt>
<trkpt lat="53.361004" lon="-1.805318"><ele>261</ele><time>2022-03-19T10:26:28Z</time><name>PT1744</name></trkpt>
<trkpt lat="53.361013" lon="-1.805330"><ele>262</ele><time>2022-03-19T10:26:30Z</time><name>PT1745</name></trkpt>
<trkpt lat="53.361020" lon="-1.805342"><ele>261</ele><time>2022-03-19T10:26:31Z</time><name>PT1746</name></trkpt>
<trkpt lat="53.361029" lon="-1.805355"><ele>261</ele><time>2022-03-19T10:26:31Z</time><name>PT1747</name></trkpt>
<trkpt lat="53.361040" lon="-1.805366"><ele>260</ele><time>2022-03-19T10:26:33Z</time><name>PT1748</name></trkpt>
<trkpt lat="53.361048" lon="-1.805382"><ele>260</ele><time>2022-03-19T10:26:34Z</time><name>PT1749</name></trkpt>
<trkpt lat="53.361057" lon="-1.805396"><ele>260</ele><time>2022-03-19T10:26:34Z</time><name>PT1750</name></trkpt>
<trkpt lat="53.361067" lon="-1.805410"><ele>260</ele><time>2022-03-19T10:26:36Z</time><name>PT1751</name></trkpt>
<trkpt lat="53.361077" lon="-1.805422"><ele>260</ele><time>2022-03-19T10:26:37Z</time><name>PT1752</name></trkpt>
<trkpt lat="53.361086" lon="-1.805435"><ele>259</ele><time>2022-03-19T10:26:37Z</time><name>PT1753</name></trkpt>
<trkpt lat="53.361094" lon="-1.805446"><ele>259</ele><time>2022-03-19T10:26:39Z</time><name>PT1754</name></trkpt>
<trkpt lat="53.361105" lon="-1.805462"><ele>259</ele><time>2022-03-19T10:26:40Z</time><name>PT1755</name></trkpt>
<trkpt lat="53.361111" lon="-1.805475"><ele>259</ele><time>2022-03-19T10:26:40Z</time><name>PT1756</name></trkpt>
<trkpt lat="53.361120" lon="-1.805486"><ele>259</ele><time>2022-03-19T10:26:42Z</time><name>PT1757</name></trkpt>
<trkpt lat="53.361127" lon="-1.805499"><ele>259</ele><time>2022-03-19T10:26:43Z</time><name>PT1758</name></trkpt>
<trkpt lat="53.361133" lon="-1.805513"><ele>259</ele><time>2022-03-19T10:26:43Z</time><name>PT1759</name></trkpt>
<trkpt lat="53.361137" lon="-1.805535"><ele>259</ele><time>2022-03-19T10:26:45Z</time><name>PT1760</name></trkpt>
<trkpt lat="53.361142" lon="-1.805551"><ele>259</ele><time>2022-03-19T10:26:46Z</time><name>PT1761</name></trkpt>
<trkpt lat="53.361145" lon="-1.805560"><ele>259</ele><time>2022-03-19T10:26:46Z</time><name>PT1762</name></trkpt>
<trkpt lat="53.361150" lon="-1.805573"><ele>259</ele><time>2022-03-19T10:26:48Z</time><name>PT1763</name></trkpt>
<trkpt lat="53.361153" lon="-1.805581"><ele>259</ele><time>2022-03-19T10:26:49Z</time><name>PT1764</name></trkpt>
<trkpt lat="53.361156" lon="-1.805587"><ele>259</ele><time>2022-03-19T10:26:49Z</time><name>PT1765</name></trkpt>
<trkpt lat="53.361161" lon="-1.805595"><ele>259</ele><time>2022-03-19T10:26:51Z</time><name>PT1766</name></trkpt>
<trkpt lat="53.361170" lon="-1.805605"><ele>259</ele><time>2022-03-19T10:26:52Z</time><name>PT1767</name></trkpt>
<trkpt lat="53.361181" lon="-1.805617"><ele>259</ele><time>2022-03-19T10:26:53Z</time><name>PT1768</name></trkpt>
<trkpt lat="53.361195" lon="-1.805631"><ele>260</ele><time>2022-03-19T10:26:54Z</time><name>PT1769</name></trkpt>
<trkpt lat="53.361208" lon="-1.805645"><ele>259</ele><time>2022-03-19T10:26:55Z</time><name>PT1770</name></trkpt>
<trkpt lat="53.361218" lon="-1.805656"><ele>260</ele><time>2022-03-19T10:26:56Z</time><name>PT1771</name></trkpt>
<trkpt lat="53.361227" lon="-1.805667"><ele>259</ele><time>2022-03-19T10:26:57Z</time><name>PT1772</name></trkpt>
<trkpt lat="53.361236" lon="-1.805676"><ele>259</ele><time>2022-03-19T10:26:58Z</time><name>PT1773</name></trkpt>
<trkpt lat="53.361246" lon="-1.805684"><ele>260</ele><time>2022-03-19T10:26:58Z</time><name>PT1774</name></trkpt>
<trkpt lat="53.361257" lon="-1.805690"><ele>259</ele><time>2022-03-19T10:27:00Z</time><name>PT1775</name></trkpt>
<trkpt lat="53.361268" lon="-1.805697"><ele>259</ele><time>2022-03-19T10:27:01Z</time><name>PT1776</name></trkpt>
<trkpt lat="53.361280" lon="-1.805705"><ele>259</ele><time>2022-03-19T10:27:02Z</time><name>PT1777</name></trkpt>
<trkpt lat="53.361296" lon="-1.805712"><ele>259</ele><time>2022-03-19T10:27:03Z</time><name>PT1778</name></trkpt>
<trkpt lat="53.361308" lon="-1.805719"><ele>259</ele><time>2022-03-19T10:27:04Z</time><name>PT1779</name></trkpt>
<trkpt lat="53.361316" lon="-1.805726"><ele>258</ele><time>2022-03-19T10:27:05Z</time><name>PT1780</name></trkpt>
<trkpt lat="53.361326" lon="-1.805735"><ele>258</ele><time>2022-03-19T10:27:06Z</time><name>PT1781</name></trkpt>
<trkpt lat="53.361339" lon="-1.805742"><ele>258</ele><time>2022-03-19T10:27:07Z</time><name>PT1782</name></trkpt>
<trkpt lat="53.361352" lon="-1.805750"><ele>258</ele><time>2022-03-19T10:27:08Z</time><name>PT1783</name></trkpt>
<trkpt lat="53.361363" lon="-1.805757"><ele>258</ele><time>2022-03-19T10:27:09Z</time><name>PT1784</name></trkpt>
<trkpt lat="53.361372" lon="-1.805759"><ele>258</ele><time>2022-03-19T10:27:10Z</time><name>PT1785</name></trkpt>
<trkpt lat="53.361384" lon="-1.805763"><ele>259</ele><time>2022-03-19T10:27:11Z</time><name>PT1786</name></trkpt>
<trkpt lat="53.361400" lon="-1.805770"><ele>259</ele><time>2022-03-19T10:27:12Z</time><name>PT1787</name></trkpt>
<trkpt lat="53.361410" lon="-1.805780"><ele>259</ele><time>2022-03-19T10:27:13Z</time><name>PT1788</name></trkpt>
<trkpt lat="53.361422" lon="-1.805791"><ele>258</ele><time>2022-03-19T10:27:14Z</time><name>PT1789</name></trkpt>
<trkpt lat="53.361432" lon="-1.805797"><ele>258</ele><time>2022-03-19T10:27:15Z</time><name>PT1790</name></trkpt>
<trkpt lat="53.361441" lon="-1.805803"><ele>257</ele><time>2022-03-19T10:27:16Z</time><name>PT1791</name></trkpt>
<trkpt lat="53.361453" lon="-1.805809"><ele>257</ele><time>2022-03-19T10:27:16Z</time><name>PT1792</name></trkpt>
<trkpt lat="53.361465" lon="-1.805817"><ele>257</ele><time>2022-03-19T10:27:18Z</time><name>PT1793</name></trkpt>
<trkpt lat="53.361477" lon="-1.805822"><ele>258</ele><time>2022-03-19T10:27:19Z</time><name>PT1794</name></trkpt>
<trkpt lat="53.361487" lon="-1.805828"><ele>257</ele><time>2022-03-19T10:27:19Z</time><name>PT1795</name></trkpt>
<trkpt lat="53.361497" lon="-1.805837"><ele>257</ele><time>2022-03-19T10:27:21Z</time><name>PT1796</name></trkpt>
<trkpt lat="53.361511" lon="-1.805847"><ele>256</ele><time>2022-03-19T10:27:22Z</time><name>PT1797</name></trkpt>
<trkpt lat="53.361523" lon="-1.805854"><ele>256</ele><time>2022-03-19T10:27:22Z</time><name>PT1798</name></trkpt>
<trkpt lat="53.361535" lon="-1.805861"><ele>256</ele><time>2022-03-19T10:27:24Z</time><name>PT1799</name></trkpt>
<trkpt lat="53.361546" lon="-1.805873"><ele>256</ele><time>2022-03-19T10:27:25Z</time><name>PT1800</name></trkpt>
<trkpt lat="53.361558" lon="-1.805881"><ele>256</ele><time>2022-03-19T10:27:25Z</time><name>PT1801</name></trkpt>
<trkpt lat="53.361567" lon="-1.805889"><ele>255</ele><time>2022-03-19T10:27:27Z</time><name>PT1802</name></trkpt>
<trkpt lat="53.361579" lon="-1.805893"><ele>255</ele><time>2022-03-19T10:27:28Z</time><name>PT1803</name></trkpt>
<trkpt lat="53.361592" lon="-1.805896"><ele>255</ele><time>2022-03-19T10:27:28Z</time><name>PT1804</name></trkpt>
<trkpt lat="53.361602" lon="-1.805905"><ele>255</ele><time>2022-03-19T10:27:30Z</time><name>PT1805</name></trkpt>
<trkpt lat="53.361610" lon="-1.805913"><ele>255</ele><time>2022-03-19T10:27:31Z</time><name>PT1806</name></trkpt>
<trkpt lat="53.361619" lon="-1.805919"><ele>255</ele><time>2022-03-19T10:27:31Z</time><name>PT1807</name></trkpt>
<trkpt lat="53.361627" lon="-1.805922"><ele>255</ele><time>2022-03-19T10:27:33Z</time><name>PT1808</name></trkpt>
<trkpt lat="53.361631" lon="-1.805924"><ele>254</ele><time>2022-03-19T10:27:34Z</time><name>PT1809</name></trkpt>
<trkpt lat="53.361631" lon="-1.805926"><ele>255</ele><time>2022-03-19T10:27:34Z</time><name>PT1810</name></trkpt>
<trkpt lat="53.361629" lon="-1.805929"><ele>254</ele><time>2022-03-19T10:27:36Z</time><name>PT1811</name></trkpt>
<trkpt lat="53.361637" lon="-1.805930"><ele>254</ele><time>2022-03-19T10:27:42Z</time><name>PT1812</name></trkpt>
<trkpt lat="53.361646" lon="-1.805932"><ele>253</ele><time>2022-03-19T10:27:43Z</time><name>PT1813</name></trkpt>
<trkpt lat="53.361655" lon="-1.805944"><ele>253</ele><time>2022-03-19T10:27:43Z</time><name>PT1814</name></trkpt>
<trkpt lat="53.361668" lon="-1.805949"><ele>253</ele><time>2022-03-19T10:27:45Z</time><name>PT1815</name></trkpt>
<trkpt lat="53.361680" lon="-1.805952"><ele>253</ele><time>2022-03-19T10:27:46Z</time><name>PT1816</name></trkpt>
<trkpt lat="53.361691" lon="-1.805956"><ele>253</ele><time>2022-03-19T10:27:46Z</time><name>PT1817</name></trkpt>
<trkpt lat="53.361702" lon="-1.805960"><ele>253</ele><time>2022-03-19T10:27:48Z</time><name>PT1818</name></trkpt>
<trkpt lat="53.361713" lon="-1.805965"><ele>253</ele><time>2022-03-19T10:27:49Z</time><name>PT1819</name></trkpt>
<trkpt lat="53.361727" lon="-1.805967"><ele>253</ele><time>2022-03-19T10:27:49Z</time><name>PT1820</name></trkpt>
<trkpt lat="53.361743" lon="-1.805972"><ele>253</ele><time>2022-03-19T10:27:51Z</time><name>PT1821</name></trkpt>
<trkpt lat="53.361755" lon="-1.805981"><ele>253</ele><time>2022-03-19T10:27:52Z</time><name>PT1822</name></trkpt>
<trkpt lat="53.361767" lon="-1.805990"><ele>253</ele><time>2022-03-19T10:27:52Z</time><name>PT1823</name></trkpt>
<trkpt lat="53.361783" lon="-1.805996"><ele>253</ele><time>2022-03-19T10:27:54Z</time><name>PT1824</name></trkpt>
<trkpt lat="53.361804" lon="-1.805999"><ele>255</ele><time>2022-03-19T10:27:55Z</time><name>PT1825</name></trkpt>
<trkpt lat="53.361818" lon="-1.806004"><ele>255</ele><time>2022-03-19T10:27:55Z</time><name>PT1826</name></trkpt>
<trkpt lat="53.361830" lon="-1.806007"><ele>254</ele><time>2022-03-19T10:27:57Z</time><name>PT1827</name></trkpt>
<trkpt lat="53.361844" lon="-1.806012"><ele>254</ele><time>2022-03-19T10:27:58Z</time><name>PT1828</name></trkpt>
<trkpt lat="53.361857" lon="-1.806008"><ele>255</ele><time>2022-03-19T10:27:58Z</time><name>PT1829</name></trkpt>
<trkpt lat="53.361870" lon="-1.806009"><ele>256</ele><time>2022-03-19T10:28:00Z</time><name>PT1830</name></trkpt>
<trkpt lat="53.361883" lon="-1.806016"><ele>256</ele><time>2022-03-19T10:28:01Z</time><name>PT1831</name></trkpt>
<trkpt lat="53.361899" lon="-1.806019"><ele>255</ele><time>2022-03-19T10:28:01Z</time><name>PT1832</name></trkpt>
<trkpt lat="53.361914" lon="-1.806026"><ele>255</ele><time>2022-03-19T10:28:03Z</time><name>PT1833</name></trkpt>
<trkpt lat="53.361926" lon="-1.806033"><ele>254</ele><time>2022-03-19T10:28:04Z</time><name>PT1834</name></trkpt>
<trkpt lat="53.361939" lon="-1.806039"><ele>254</ele><time>2022-03-19T10:28:04Z</time><name>PT1835</name></trkpt>
<trkpt lat="53.361951" lon="-1.806046"><ele>254</ele><time>2022-03-19T10:28:06Z</time><name>PT1836</name></trkpt>
<trkpt lat="53.361968" lon="-1.806052"><ele>254</ele><time>2022-03-19T10:28:07Z</time><name>PT1837</name></trkpt>
<trkpt lat="53.361982" lon="-1.806057"><ele>253</ele><time>2022-03-19T10:28:07Z</time><name>PT1838</name></trkpt>
<trkpt lat="53.361995" lon="-1.806059"><ele>253</ele><time>2022-03-19T10:28:09Z</time><name>PT1839</name></trkpt>
<trkpt lat="53.362009" lon="-1.806057"><ele>253</ele><time>2022-03-19T10:28:10Z</time><name>PT1840</name></trkpt>
<trkpt lat="53.362023" lon="-1.806053"><ele>253</ele><time>2022-03-19T10:28:10Z</time><name>PT1841</name></trkpt>
<trkpt lat="53.362040" lon="-1.806048"><ele>254</ele><time>2022-03-19T10:28:12Z</time><name>PT1842</name></trkpt>
<trkpt lat="53.362055" lon="-1.806044"><ele>254</ele><time>2022-03-19T10:28:13Z</time><name>PT1843</name></trkpt>
<trkpt lat="53.362067" lon="-1.806039"><ele>253</ele><time>2022-03-19T10:28:13Z</time><name>PT1844</name></trkpt>
<trkpt lat="53.362078" lon="-1.806034"><ele>253</ele><time>2022-03-19T10:28:15Z</time><name>PT1845</name></trkpt>
<trkpt lat="53.362090" lon="-1.806029"><ele>253</ele><time>2022-03-19T10:28:16Z</time><name>PT1846</name></trkpt>
<trkpt lat="53.362099" lon="-1.806023"><ele>252</ele><time>2022-03-19T10:28:16Z</time><name>PT1847</name></trkpt>
<trkpt lat="53.362117" lon="-1.806009"><ele>252</ele><time>2022-03-19T10:28:18Z</time><name>PT1848</name></trkpt>
<trkpt lat="53.362128" lon="-1.805998"><ele>252</ele><time>2022-03-19T10:28:19Z</time><name>PT1849</name></trkpt>
<trkpt lat="53.362138" lon="-1.805987"><ele>252</ele><time>2022-03-19T10:28:19Z</time><name>PT1850</name></trkpt>
<trkpt lat="53.362150" lon="-1.805974"><ele>251</ele><time>2022-03-19T10:28:21Z</time><name>PT1851</name></trkpt>
<trkpt lat="53.362161" lon="-1.805957"><ele>251</ele><time>2022-03-19T10:28:22Z</time><name>PT1852</name></trkpt>
<trkpt lat="53.362171" lon="-1.805946"><ele>251</ele><time>2022-03-19T10:28:22Z</time><name>PT1853</name></trkpt>
<trkpt lat="53.362180" lon="-1.805936"><ele>250</ele><time>2022-03-19T10:28:24Z</time><name>PT1854</name></trkpt>
<trkpt lat="53.362191" lon="-1.805927"><ele>250</ele><time>2022-03-19T10:28:25Z</time><name>PT1855</name></trkpt>
<trkpt lat="53.362205" lon="-1.805916"><ele>251</ele><time>2022-03-19T10:28:25Z</time><name>PT1856</name></trkpt>
<trkpt lat="53.362216" lon="-1.805908"><ele>251</ele><time>2022-03-19T10:28:27Z</time><name>PT1857</name></trkpt>
<trkpt lat="53.362229" lon="-1.805899"><ele>250</ele><time>2022-03-19T10:28:28Z</time><name>PT1858</name></trkpt>
<trkpt lat="53.362263" lon="-1.805871"><ele>250</ele><time>2022-03-19T10:28:31Z</time><name>PT1859</name></trkpt>
<trkpt lat="53.362300" lon="-1.805839"><ele>249</ele><time>2022-03-19T10:28:34Z</time><name>PT1860</name></trkpt>
<trkpt lat="53.362354" lon="-1.805818"><ele>248</ele><time>2022-03-19T10:28:37Z</time><name>PT1861</name></trkpt>
<trkpt lat="53.362387" lon="-1.805806"><ele>248</ele><time>2022-03-19T10:28:40Z</time><name>PT1862</name></trkpt>
<trkpt lat="53.362437" lon="-1.805836"><ele>247</ele><time>2022-03-19T10:28:45Z</time><name>PT1863</name></trkpt>
<trkpt lat="53.362468" lon="-1.805893"><ele>248</ele><time>2022-03-19T10:28:49Z</time><name>PT1864</name></trkpt>
<trkpt lat="53.362481" lon="-1.805951"><ele>248</ele><time>2022-03-19T10:28:52Z</time><name>PT1865</name></trkpt>
<trkpt lat="53.362488" lon="-1.806040"><ele>249</ele><time>2022-03-19T10:28:55Z</time><name>PT1866</name></trkpt>
<trkpt lat="53.362487" lon="-1.806125"><ele>247</ele><time>2022-03-19T10:29:00Z</time><name>PT1867</name></trkpt>
<trkpt lat="53.362491" lon="-1.806217"><ele>248</ele><time>2022-03-19T10:29:04Z</time><name>PT1868</name></trkpt>
<trkpt lat="53.362495" lon="-1.806309"><ele>248</ele><time>2022-03-19T10:29:07Z</time><name>PT1869</name></trkpt>
<trkpt lat="53.362488" lon="-1.806371"><ele>247</ele><time>2022-03-19T10:29:10Z</time><name>PT1870</name></trkpt>
<trkpt lat="53.362481" lon="-1.806444"><ele>245</ele><time>2022-03-19T10:29:15Z</time><name>PT1871</name></trkpt>
<trkpt lat="53.362475" lon="-1.806509"><ele>245</ele><time>2022-03-19T10:29:18Z</time><name>PT1872</name></trkpt>
<trkpt lat="53.362476" lon="-1.806599"><ele>244</ele><time>2022-03-19T10:29:22Z</time><name>PT1873</name></trkpt>
<trkpt lat="53.362497" lon="-1.806648"><ele>243</ele><time>2022-03-19T10:29:25Z</time><name>PT1874</name></trkpt>
<trkpt lat="53.362533" lon="-1.806677"><ele>242</ele><time>2022-03-19T10:29:28Z</time><name>PT1875</name></trkpt>
<trkpt lat="53.362576" lon="-1.806681"><ele>240</ele><time>2022-03-19T10:29:33Z</time><name>PT1876</name></trkpt>
<trkpt lat="53.362623" lon="-1.806692"><ele>239</ele><time>2022-03-19T10:29:37Z</time><name>PT1877</name></trkpt>
<trkpt lat="53.362663" lon="-1.806693"><ele>237</ele><time>2022-03-19T10:29:40Z</time><name>PT1878</name></trkpt>
<trkpt lat="53.362691" lon="-1.806677"><ele>237</ele><time>2022-03-19T10:29:43Z</time><name>PT1879</name></trkpt>
<trkpt lat="53.362715" lon="-1.806674"><ele>236</ele><time>2022-03-19T10:29:48Z</time><name>PT1880</name></trkpt>
<trkpt lat="53.362743" lon="-1.806673"><ele>234</ele><time>2022-03-19T10:29:52Z</time><name>PT1881</name></trkpt>
<trkpt lat="53.362777" lon="-1.806662"><ele>231</ele><time>2022-03-19T10:29:55Z</time><name>PT1882</name></trkpt>
<trkpt lat="53.362815" lon="-1.806666"><ele>230</ele><time>2022-03-19T10:29:58Z</time><name>PT1883</name></trkpt>
<trkpt lat="53.362848" lon="-1.806673"><ele>227</ele><time>2022-03-19T10:30:01Z</time><name>PT1884</name></trkpt>
<trkpt lat="53.362883" lon="-1.806688"><ele>225</ele><time>2022-03-19T10:30:06Z</time><name>PT1885</name></trkpt>
<trkpt lat="53.362918" lon="-1.806683"><ele>227</ele><time>2022-03-19T10:30:09Z</time><name>PT1886</name></trkpt>
<trkpt lat="53.362951" lon="-1.806696"><ele>227</ele><time>2022-03-19T10:30:12Z</time><name>PT1887</name></trkpt>
<trkpt lat="53.362993" lon="-1.806700"><ele>227</ele><time>2022-03-19T10:30:15Z</time><name>PT1888</name></trkpt>
<trkpt lat="53.363018" lon="-1.806709"><ele>229</ele><time>2022-03-19T10:30:18Z</time><name>PT1889</name></trkpt>
<trkpt lat="53.363064" lon="-1.806734"><ele>232</ele><time>2022-03-19T10:30:22Z</time><name>PT1890</name></trkpt>
<trkpt lat="53.363103" lon="-1.806771"><ele>233</ele><time>2022-03-19T10:30:25Z</time><name>PT1891</name></trkpt>
<trkpt lat="53.363133" lon="-1.806788"><ele>233</ele><time>2022-03-19T10:30:28Z</time><name>PT1892</name></trkpt>
<trkpt lat="53.363175" lon="-1.806815"><ele>234</ele><time>2022-03-19T10:30:31Z</time><name>PT1893</name></trkpt>
<trkpt lat="53.363212" lon="-1.806856"><ele>235</ele><time>2022-03-19T10:30:36Z</time><name>PT1894</name></trkpt>
<trkpt lat="53.363260" lon="-1.806903"><ele>233</ele><time>2022-03-19T10:30:40Z</time><name>PT1895</name></trkpt>
<trkpt lat="53.363306" lon="-1.806945"><ele>233</ele><time>2022-03-19T10:30:43Z</time><name>PT1896</name></trkpt>
<trkpt lat="53.363344" lon="-1.807000"><ele>233</ele><time>2022-03-19T10:30:46Z</time><name>PT1897</name></trkpt>
<trkpt lat="53.363389" lon="-1.807027"><ele>233</ele><time>2022-03-19T10:30:51Z</time><name>PT1898</name></trkpt>
<trkpt lat="53.363424" lon="-1.807061"><ele>234</ele><time>2022-03-19T10:30:55Z</time><name>PT1899</name></trkpt>
<trkpt lat="53.363450" lon="-1.807083"><ele>233</ele><time>2022-03-19T10:30:58Z</time><name>PT1900</name></trkpt>
<trkpt lat="53.363482" lon="-1.807128"><ele>234</ele><time>2022-03-19T10:31:01Z</time><name>PT1901</name></trkpt>
<trkpt lat="53.363515" lon="-1.807160"><ele>234</ele><time>2022-03-19T10:31:04Z</time><name>PT1902</name></trkpt>
<trkpt lat="53.363548" lon="-1.807187"><ele>233</ele><time>2022-03-19T10:31:07Z</time><name>PT1903</name></trkpt>
<trkpt lat="53.363587" lon="-1.807244"><ele>234</ele><time>2022-03-19T10:31:12Z</time><name>PT1904</name></trkpt>
<trkpt lat="53.363616" lon="-1.807270"><ele>233</ele><time>2022-03-19T10:31:15Z</time><name>PT1905</name></trkpt>
<trkpt lat="53.363644" lon="-1.807294"><ele>233</ele><time>2022-03-19T10:31:18Z</time><name>PT1906</name></trkpt>
<trkpt lat="53.363680" lon="-1.807308"><ele>233</ele><time>2022-03-19T10:31:22Z</time><name>PT1907</name></trkpt>
<trkpt lat="53.363711" lon="-1.807334"><ele>231</ele><time>2022-03-19T10:31:25Z</time><name>PT1908</name></trkpt>
<trkpt lat="53.363744" lon="-1.807343"><ele>231</ele><time>2022-03-19T10:31:28Z</time><name>PT1909</name></trkpt>
<trkpt lat="53.363767" lon="-1.807346"><ele>231</ele><time>2022-03-19T10:31:31Z</time><name>PT1910</name></trkpt>
<trkpt lat="53.363795" lon="-1.807354"><ele>232</ele><time>2022-03-19T10:31:34Z</time><name>PT1911</name></trkpt>
<trkpt lat="53.363825" lon="-1.807361"><ele>232</ele><time>2022-03-19T10:31:37Z</time><name>PT1912</name></trkpt>
<trkpt lat="53.363844" lon="-1.807360"><ele>233</ele><time>2022-03-19T10:31:40Z</time><name>PT1913</name></trkpt>
<trkpt lat="53.363889" lon="-1.807404"><ele>233</ele><time>2022-03-19T10:31:48Z</time><name>PT1914</name></trkpt>
<trkpt lat="53.363948" lon="-1.807432"><ele>233</ele><time>2022-03-19T10:31:52Z</time><name>PT1915</name></trkpt>
<trkpt lat="53.363985" lon="-1.807444"><ele>233</ele><time>2022-03-19T10:31:55Z</time><name>PT1916</name></trkpt>
<trkpt lat="53.364019" lon="-1.807460"><ele>234</ele><time>2022-03-19T10:31:58Z</time><name>PT1917</name></trkpt>
<trkpt lat="53.364031" lon="-1.807459"><ele>235</ele><time>2022-03-19T10:32:00Z</time><name>PT1918</name></trkpt>
<trkpt lat="53.364036" lon="-1.807459"><ele>236</ele><time>2022-03-19T10:32:01Z</time><name>PT1919</name></trkpt>
<trkpt lat="53.364038" lon="-1.807465"><ele>236</ele><time>2022-03-19T10:32:01Z</time><name>PT1920</name></trkpt>
<trkpt lat="53.364034" lon="-1.807469"><ele>235</ele><time>2022-03-19T10:32:03Z</time><name>PT1921</name></trkpt>
<trkpt lat="53.364034" lon="-1.807470"><ele>235</ele><time>2022-03-19T10:32:04Z</time><name>PT1922</name></trkpt>
<trkpt lat="53.364034" lon="-1.807475"><ele>234</ele><time>2022-03-19T10:32:04Z</time><name>PT1923</name></trkpt>
<trkpt lat="53.364036" lon="-1.807502"><ele>234</ele><time>2022-03-19T10:32:06Z</time><name>PT1924</name></trkpt>
<trkpt lat="53.364038" lon="-1.807527"><ele>233</ele><time>2022-03-19T10:32:07Z</time><name>PT1925</name></trkpt>
<trkpt lat="53.364044" lon="-1.807552"><ele>234</ele><time>2022-03-19T10:32:07Z</time><name>PT1926</name></trkpt>
<trkpt lat="53.364044" lon="-1.807575"><ele>234</ele><time>2022-03-19T10:32:09Z</time><name>PT1927</name></trkpt>
<trkpt lat="53.364040" lon="-1.807595"><ele>233</ele><time>2022-03-19T10:32:10Z</time><name>PT1928</name></trkpt>
<trkpt lat="53.364040" lon="-1.807615"><ele>233</ele><time>2022-03-19T10:32:10Z</time><name>PT1929</name></trkpt>
<trkpt lat="53.364039" lon="-1.807624"><ele>233</ele><time>2022-03-19T10:32:12Z</time><name>PT1930</name></trkpt>
<trkpt lat="53.364039" lon="-1.807628"><ele>233</ele><time>2022-03-19T10:32:13Z</time><name>PT1931</name></trkpt>
<trkpt lat="53.364039" lon="-1.807634"><ele>233</ele><time>2022-03-19T10:32:13Z</time><name>PT1932</name></trkpt>
<trkpt lat="53.364034" lon="-1.807636"><ele>232</ele><time>2022-03-19T10:32:15Z</time><name>PT1933</name></trkpt>
<trkpt lat="53.364032" lon="-1.807638"><ele>232</ele><time>2022-03-19T10:32:16Z</time><name>PT1934</name></trkpt>
<trkpt lat="53.364032" lon="-1.807651"><ele>233</ele><time>2022-03-19T10:32:16Z</time><name>PT1935</name></trkpt>
<trkpt lat="53.364024" lon="-1.807660"><ele>232</ele><time>2022-03-19T10:32:18Z</time><name>PT1936</name></trkpt>
<trkpt lat="53.364021" lon="-1.807669"><ele>231</ele><time>2022-03-19T10:32:19Z</time><name>PT1937</name></trkpt>
<trkpt lat="53.364026" lon="-1.807680"><ele>232</ele><time>2022-03-19T10:32:19Z</time><name>PT1938</name></trkpt>
<trkpt lat="53.364026" lon="-1.807690"><ele>232</ele><time>2022-03-19T10:32:21Z</time><name>PT1939</name></trkpt>
<trkpt lat="53.364020" lon="-1.807707"><ele>232</ele><time>2022-03-19T10:32:22Z</time><name>PT1940</name></trkpt>
<trkpt lat="53.364013" lon="-1.807725"><ele>232</ele><time>2022-03-19T10:32:22Z</time><name>PT1941</name></trkpt>
<trkpt lat="53.364007" lon="-1.807742"><ele>232</ele><time>2022-03-19T10:32:24Z</time><name>PT1942</name></trkpt>
<trkpt lat="53.363996" lon="-1.807761"><ele>232</ele><time>2022-03-19T10:32:25Z</time><name>PT1943</name></trkpt>
<trkpt lat="53.363990" lon="-1.807781"><ele>232</ele><time>2022-03-19T10:32:25Z</time><name>PT1944</name></trkpt>
<trkpt lat="53.363984" lon="-1.807797"><ele>232</ele><time>2022-03-19T10:32:27Z</time><name>PT1945</name></trkpt>
<trkpt lat="53.363981" lon="-1.807811"><ele>232</ele><time>2022-03-19T10:32:28Z</time><name>PT1946</name></trkpt>
<trkpt lat="53.363976" lon="-1.807825"><ele>233</ele><time>2022-03-19T10:32:29Z</time><name>PT1947</name></trkpt>
<trkpt lat="53.363971" lon="-1.807834"><ele>232</ele><time>2022-03-19T10:32:30Z</time><name>PT1948</name></trkpt>
<trkpt lat="53.363968" lon="-1.807847"><ele>232</ele><time>2022-03-19T10:32:31Z</time><name>PT1949</name></trkpt>
<trkpt lat="53.363965" lon="-1.807862"><ele>233</ele><time>2022-03-19T10:32:31Z</time><name>PT1950</name></trkpt>
<trkpt lat="53.363963" lon="-1.807883"><ele>234</ele><time>2022-03-19T10:32:33Z</time><name>PT1951</name></trkpt>
<trkpt lat="53.363961" lon="-1.807899"><ele>234</ele><time>2022-03-19T10:32:34Z</time><name>PT1952</name></trkpt>
<trkpt lat="53.363958" lon="-1.807917"><ele>234</ele><time>2022-03-19T10:32:34Z</time><name>PT1953</name></trkpt>
<trkpt lat="53.363957" lon="-1.807939"><ele>233</ele><time>2022-03-19T10:32:36Z</time><name>PT1954</name></trkpt>
<trkpt lat="53.363954" lon="-1.807963"><ele>233</ele><time>2022-03-19T10:32:37Z</time><name>PT1955</name></trkpt>
<trkpt lat="53.363951" lon="-1.807986"><ele>234</ele><time>2022-03-19T10:32:37Z</time><name>PT1956</name></trkpt>
<trkpt lat="53.363944" lon="-1.808002"><ele>233</ele><time>2022-03-19T10:32:39Z</time><name>PT1957</name></trkpt>
<trkpt lat="53.363940" lon="-1.808021"><ele>233</ele><time>2022-03-19T10:32:40Z</time><name>PT1958</name></trkpt>
<trkpt lat="53.363940" lon="-1.808040"><ele>232</ele><time>2022-03-19T10:32:40Z</time><name>PT1959</name></trkpt>
<trkpt lat="53.363936" lon="-1.808053"><ele>232</ele><time>2022-03-19T10:32:42Z</time><name>PT1960</name></trkpt>
<trkpt lat="53.363931" lon="-1.808068"><ele>232</ele><time>2022-03-19T10:32:43Z</time><name>PT1961</name></trkpt>
<trkpt lat="53.363926" lon="-1.808084"><ele>232</ele><time>2022-03-19T10:32:44Z</time><name>PT1962</name></trkpt>
<trkpt lat="53.363924" lon="-1.808105"><ele>232</ele><time>2022-03-19T10:32:45Z</time><name>PT1963</name></trkpt>
<trkpt lat="53.363924" lon="-1.808116"><ele>233</ele><time>2022-03-19T10:32:46Z</time><name>PT1964</name></trkpt>
<trkpt lat="53.363920" lon="-1.808127"><ele>232</ele><time>2022-03-19T10:32:46Z</time><name>PT1965</name></trkpt>
<trkpt lat="53.363919" lon="-1.808156"><ele>234</ele><time>2022-03-19T10:32:48Z</time><name>PT1966</name></trkpt>
<trkpt lat="53.363914" lon="-1.808179"><ele>234</ele><time>2022-03-19T10:32:49Z</time><name>PT1967</name></trkpt>
<trkpt lat="53.363908" lon="-1.808196"><ele>234</ele><time>2022-03-19T10:32:49Z</time><name>PT1968</name></trkpt>
<trkpt lat="53.363900" lon="-1.808215"><ele>234</ele><time>2022-03-19T10:32:51Z</time><name>PT1969</name></trkpt>
<trkpt lat="53.363894" lon="-1.808235"><ele>234</ele><time>2022-03-19T10:32:52Z</time><name>PT1970</name></trkpt>
<trkpt lat="53.363889" lon="-1.808254"><ele>234</ele><time>2022-03-19T10:32:52Z</time><name>PT1971</name></trkpt>
<trkpt lat="53.363882" lon="-1.808270"><ele>233</ele><time>2022-03-19T10:32:54Z</time><name>PT1972</name></trkpt>
<trkpt lat="53.363873" lon="-1.808288"><ele>233</ele><time>2022-03-19T10:32:55Z</time><name>PT1973</name></trkpt>
<trkpt lat="53.363865" lon="-1.808308"><ele>234</ele><time>2022-03-19T10:32:55Z</time><name>PT1974</name></trkpt>
<trkpt lat="53.363863" lon="-1.808330"><ele>234</ele><time>2022-03-19T10:32:57Z</time><name>PT1975</name></trkpt>
<trkpt lat="53.363860" lon="-1.808346"><ele>234</ele><time>2022-03-19T10:32:58Z</time><name>PT1976</name></trkpt>
<trkpt lat="53.363853" lon="-1.808363"><ele>234</ele><time>2022-03-19T10:32:58Z</time><name>PT1977</name></trkpt>
<trkpt lat="53.363848" lon="-1.808387"><ele>234</ele><time>2022-03-19T10:33:00Z</time><name>PT1978</name></trkpt>
<trkpt lat="53.363843" lon="-1.808406"><ele>234</ele><time>2022-03-19T10:33:01Z</time><name>PT1979</name></trkpt>
<trkpt lat="53.363836" lon="-1.808421"><ele>233</ele><time>2022-03-19T10:33:01Z</time><name>PT1980</name></trkpt>
<trkpt lat="53.363828" lon="-1.808441"><ele>233</ele><time>2022-03-19T10:33:03Z</time><name>PT1981</name></trkpt>
<trkpt lat="53.363818" lon="-1.808460"><ele>232</ele><time>2022-03-19T10:33:04Z</time><name>PT1982</name></trkpt>
<trkpt lat="53.363815" lon="-1.808479"><ele>231</ele><time>2022-03-19T10:33:04Z</time><name>PT1983</name></trkpt>
<trkpt lat="53.363811" lon="-1.808491"><ele>230</ele><time>2022-03-19T10:33:06Z</time><name>PT1984</name></trkpt>
<trkpt lat="53.363805" lon="-1.808508"><ele>231</ele><time>2022-03-19T10:33:07Z</time><name>PT1985</name></trkpt>
<trkpt lat="53.363801" lon="-1.808526"><ele>231</ele><time>2022-03-19T10:33:07Z</time><name>PT1986</name></trkpt>
<trkpt lat="53.363796" lon="-1.808539"><ele>231</ele><time>2022-03-19T10:33:09Z</time><name>PT1987</name></trkpt>
<trkpt lat="53.363787" lon="-1.808554"><ele>231</ele><time>2022-03-19T10:33:10Z</time><name>PT1988</name></trkpt>
<trkpt lat="53.363779" lon="-1.808581"><ele>231</ele><time>2022-03-19T10:33:10Z</time><name>PT1989</name></trkpt>
<trkpt lat="53.363777" lon="-1.808607"><ele>231</ele><time>2022-03-19T10:33:12Z</time><name>PT1990</name></trkpt>
<trkpt lat="53.363778" lon="-1.808624"><ele>232</ele><time>2022-03-19T10:33:13Z</time><name>PT1991</name></trkpt>
<trkpt lat="53.363777" lon="-1.808638"><ele>232</ele><time>2022-03-19T10:33:13Z</time><name>PT1992</name></trkpt>
<trkpt lat="53.363779" lon="-1.808665"><ele>233</ele><time>2022-03-19T10:33:15Z</time><name>PT1993</name></trkpt>
<trkpt lat="53.363777" lon="-1.808690"><ele>233</ele><time>2022-03-19T10:33:16Z</time><name>PT1994</name></trkpt>
<trkpt lat="53.363775" lon="-1.808708"><ele>233</ele><time>2022-03-19T10:33:16Z</time><name>PT1995</name></trkpt>
<trkpt lat="53.363772" lon="-1.808727"><ele>233</ele><time>2022-03-19T10:33:18Z</time><name>PT1996</name></trkpt>
<trkpt lat="53.363768" lon="-1.808748"><ele>233</ele><time>2022-03-19T10:33:19Z</time><name>PT1997</name></trkpt>
<trkpt lat="53.363768" lon="-1.808787"><ele>234</ele><time>2022-03-19T10:33:19Z</time><name>PT1998</name></trkpt>
<trkpt lat="53.363767" lon="-1.808811"><ele>234</ele><time>2022-03-19T10:33:21Z</time><name>PT1999</name></trkpt>
<trkpt lat="53.363765" lon="-1.808838"><ele>235</ele><time>2022-03-19T10:33:22Z</time><name>PT2000</name></trkpt>
<trkpt lat="53.363763" lon="-1.808861"><ele>236</ele><time>2022-03-19T10:33:22Z</time><name>PT2001</name></trkpt>
<trkpt lat="53.363761" lon="-1.808883"><ele>236</ele><time>2022-03-19T10:33:24Z</time><name>PT2002</name></trkpt>
<trkpt lat="53.363758" lon="-1.808904"><ele>236</ele><time>2022-03-19T10:33:25Z</time><name>PT2003</name></trkpt>
<trkpt lat="53.363753" lon="-1.808919"><ele>236</ele><time>2022-03-19T10:33:25Z</time><name>PT2004</name></trkpt>
<trkpt lat="53.363749" lon="-1.808941"><ele>236</ele><time>2022-03-19T10:33:27Z</time><name>PT2005</name></trkpt>
<trkpt lat="53.363747" lon="-1.808968"><ele>236</ele><time>2022-03-19T10:33:28Z</time><name>PT2006</name></trkpt>
<trkpt lat="53.363746" lon="-1.808995"><ele>238</ele><time>2022-03-19T10:33:28Z</time><name>PT2007</name></trkpt>
<trkpt lat="53.363744" lon="-1.809019"><ele>238</ele><time>2022-03-19T10:33:30Z</time><name>PT2008</name></trkpt>
<trkpt lat="53.363744" lon="-1.809037"><ele>237</ele><time>2022-03-19T10:33:31Z</time><name>PT2009</name></trkpt>
<trkpt lat="53.363744" lon="-1.809059"><ele>237</ele><time>2022-03-19T10:33:31Z</time><name>PT2010</name></trkpt>
<trkpt lat="53.363742" lon="-1.809083"><ele>237</ele><time>2022-03-19T10:33:33Z</time><name>PT2011</name></trkpt>
<trkpt lat="53.363741" lon="-1.809106"><ele>237</ele><time>2022-03-19T10:33:34Z</time><name>PT2012</name></trkpt>
<trkpt lat="53.363740" lon="-1.809127"><ele>237</ele><time>2022-03-19T10:33:34Z</time><name>PT2013</name></trkpt>
<trkpt lat="53.363740" lon="-1.809157"><ele>238</ele><time>2022-03-19T10:33:36Z</time><name>PT2014</name></trkpt>
<trkpt lat="53.363739" lon="-1.809189"><ele>239</ele><time>2022-03-19T10:33:37Z</time><name>PT2015</name></trkpt>
<trkpt lat="53.363741" lon="-1.809215"><ele>240</ele><time>2022-03-19T10:33:37Z</time><name>PT2016</name></trkpt>
<trkpt lat="53.363741" lon="-1.809243"><ele>240</ele><time>2022-03-19T10:33:39Z</time><name>PT2017</name></trkpt>
<trkpt lat="53.363741" lon="-1.809272"><ele>240</ele><time>2022-03-19T10:33:40Z</time><name>PT2018</name></trkpt>
<trkpt lat="53.363741" lon="-1.809298"><ele>240</ele><time>2022-03-19T10:33:40Z</time><name>PT2019</name></trkpt>
<trkpt lat="53.363740" lon="-1.809322"><ele>240</ele><time>2022-03-19T10:33:42Z</time><name>PT2020</name></trkpt>
<trkpt lat="53.363741" lon="-1.809345"><ele>239</ele><time>2022-03-19T10:33:43Z</time><name>PT2021</name></trkpt>
<trkpt lat="53.363743" lon="-1.809366"><ele>240</ele><time>2022-03-19T10:33:43Z</time><name>PT2022</name></trkpt>
<trkpt lat="53.363746" lon="-1.809385"><ele>239</ele><time>2022-03-19T10:33:45Z</time><name>PT2023</name></trkpt>
<trkpt lat="53.363746" lon="-1.809407"><ele>240</ele><time>2022-03-19T10:33:46Z</time><name>PT2024</name></trkpt>
<trkpt lat="53.363747" lon="-1.809428"><ele>239</ele><time>2022-03-19T10:33:46Z</time><name>PT2025</name></trkpt>
<trkpt lat="53.363746" lon="-1.809450"><ele>239</ele><time>2022-03-19T10:33:48Z</time><name>PT2026</name></trkpt>
<trkpt lat="53.363743" lon="-1.809473"><ele>239</ele><time>2022-03-19T10:33:49Z</time><name>PT2027</name></trkpt>
<trkpt lat="53.363741" lon="-1.809499"><ele>239</ele><time>2022-03-19T10:33:49Z</time><name>PT2028</name></trkpt>
<trkpt lat="53.363741" lon="-1.809518"><ele>239</ele><time>2022-03-19T10:33:51Z</time><name>PT2029</name></trkpt>
<trkpt lat="53.363743" lon="-1.809537"><ele>240</ele><time>2022-03-19T10:33:52Z</time><name>PT2030</name></trkpt>
<trkpt lat="53.363745" lon="-1.809560"><ele>240</ele><time>2022-03-19T10:33:52Z</time><name>PT2031</name></trkpt>
<trkpt lat="53.363746" lon="-1.809582"><ele>240</ele><time>2022-03-19T10:33:54Z</time><name>PT2032</name></trkpt>
<trkpt lat="53.363746" lon="-1.809608"><ele>240</ele><time>2022-03-19T10:33:55Z</time><name>PT2033</name></trkpt>
<trkpt lat="53.363749" lon="-1.809632"><ele>240</ele><time>2022-03-19T10:33:55Z</time><name>PT2034</name></trkpt>
<trkpt lat="53.363752" lon="-1.809651"><ele>240</ele><time>2022-03-19T10:33:57Z</time><name>PT2035</name></trkpt>
<trkpt lat="53.363754" lon="-1.809671"><ele>240</ele><time>2022-03-19T10:33:58Z</time><name>PT2036</name></trkpt>
<trkpt lat="53.363763" lon="-1.809725"><ele>239</ele><time>2022-03-19T10:34:01Z</time><name>PT2037</name></trkpt>
<trkpt lat="53.363766" lon="-1.809804"><ele>238</ele><time>2022-03-19T10:34:04Z</time><name>PT2038</name></trkpt>
<trkpt lat="53.363774" lon="-1.809857"><ele>238</ele><time>2022-03-19T10:34:07Z</time><name>PT2039</name></trkpt>
<trkpt lat="53.363786" lon="-1.809917"><ele>239</ele><time>2022-03-19T10:34:10Z</time><name>PT2040</name></trkpt>
<trkpt lat="53.363806" lon="-1.810000"><ele>239</ele><time>2022-03-19T10:34:15Z</time><name>PT2041</name></trkpt>
<trkpt lat="53.363804" lon="-1.810048"><ele>238</ele><time>2022-03-19T10:34:18Z</time><name>PT2042</name></trkpt>
<trkpt lat="53.363811" lon="-1.810121"><ele>236</ele><time>2022-03-19T10:34:22Z</time><name>PT2043</name></trkpt>
<trkpt lat="53.363820" lon="-1.810208"><ele>238</ele><time>2022-03-19T10:34:25Z</time><name>PT2044</name></trkpt>
<trkpt lat="53.363821" lon="-1.810292"><ele>238</ele><time>2022-03-19T10:34:30Z</time><name>PT2045</name></trkpt>
<trkpt lat="53.363814" lon="-1.810354"><ele>239</ele><time>2022-03-19T10:34:33Z</time><name>PT2046</name></trkpt>
<trkpt lat="53.363814" lon="-1.810441"><ele>239</ele><time>2022-03-19T10:34:37Z</time><name>PT2047</name></trkpt>
<trkpt lat="53.363811" lon="-1.810504"><ele>238</ele><time>2022-03-19T10:34:40Z</time><name>PT2048</name></trkpt>
<trkpt lat="53.363806" lon="-1.810561"><ele>234</ele><time>2022-03-19T10:34:43Z</time><name>PT2049</name></trkpt>
<trkpt lat="53.363810" lon="-1.810618"><ele>233</ele><time>2022-03-19T10:34:46Z</time><name>PT2050</name></trkpt>
<trkpt lat="53.363813" lon="-1.810690"><ele>235</ele><time>2022-03-19T10:34:49Z</time><name>PT2051</name></trkpt>
<trkpt lat="53.363829" lon="-1.810775"><ele>236</ele><time>2022-03-19T10:34:54Z</time><name>PT2052</name></trkpt>
<trkpt lat="53.363839" lon="-1.810865"><ele>235</ele><time>2022-03-19T10:34:58Z</time><name>PT2053</name></trkpt>
<trkpt lat="53.363850" lon="-1.810937"><ele>234</ele><time>2022-03-19T10:35:01Z</time><name>PT2054</name></trkpt>
<trkpt lat="53.363867" lon="-1.811011"><ele>236</ele><time>2022-03-19T10:35:04Z</time><name>PT2055</name></trkpt>
<trkpt lat="53.363899" lon="-1.811106"><ele>238</ele><time>2022-03-19T10:35:07Z</time><name>PT2056</name></trkpt>
<trkpt lat="53.363931" lon="-1.811196"><ele>239</ele><time>2022-03-19T10:35:12Z</time><name>PT2057</name></trkpt>
<trkpt lat="53.363976" lon="-1.811291"><ele>241</ele><time>2022-03-19T10:35:16Z</time><name>PT2058</name></trkpt>
<trkpt lat="53.364005" lon="-1.811351"><ele>241</ele><time>2022-03-19T10:35:19Z</time><name>PT2059</name></trkpt>
<trkpt lat="53.364046" lon="-1.811430"><ele>242</ele><time>2022-03-19T10:35:22Z</time><name>PT2060</name></trkpt>
<trkpt lat="53.364073" lon="-1.811487"><ele>241</ele><time>2022-03-19T10:35:25Z</time><name>PT2061</name></trkpt>
<trkpt lat="53.364115" lon="-1.811551"><ele>241</ele><time>2022-03-19T10:35:30Z</time><name>PT2062</name></trkpt>
<trkpt lat="53.364145" lon="-1.811625"><ele>240</ele><time>2022-03-19T10:35:34Z</time><name>PT2063</name></trkpt>
<trkpt lat="53.364183" lon="-1.811680"><ele>238</ele><time>2022-03-19T10:35:37Z</time><name>PT2064</name></trkpt>
<trkpt lat="53.364199" lon="-1.811720"><ele>238</ele><time>2022-03-19T10:35:40Z</time><name>PT2065</name></trkpt>
<trkpt lat="53.364204" lon="-1.811737"><ele>238</ele><time>2022-03-19T10:35:40Z</time><name>PT2066</name></trkpt>
<trkpt lat="53.364210" lon="-1.811749"><ele>237</ele><time>2022-03-19T10:35:42Z</time><name>PT2067</name></trkpt>
<trkpt lat="53.364220" lon="-1.811763"><ele>236</ele><time>2022-03-19T10:35:43Z</time><name>PT2068</name></trkpt>
<trkpt lat="53.364228" lon="-1.811783"><ele>236</ele><time>2022-03-19T10:35:44Z</time><name>PT2069</name></trkpt>
<trkpt lat="53.364232" lon="-1.811812"><ele>236</ele><time>2022-03-19T10:35:45Z</time><name>PT2070</name></trkpt>
<trkpt lat="53.364239" lon="-1.811842"><ele>235</ele><time>2022-03-19T10:35:46Z</time><name>PT2071</name></trkpt>
<trkpt lat="53.364241" lon="-1.811863"><ele>235</ele><time>2022-03-19T10:35:46Z</time><name>PT2072</name></trkpt>
<trkpt lat="53.364252" lon="-1.811887"><ele>234</ele><time>2022-03-19T10:35:48Z</time><name>PT2073</name></trkpt>
<trkpt lat="53.364263" lon="-1.811907"><ele>234</ele><time>2022-03-19T10:35:49Z</time><name>PT2074</name></trkpt>
<trkpt lat="53.364270" lon="-1.811925"><ele>233</ele><time>2022-03-19T10:35:49Z</time><name>PT2075</name></trkpt>
<trkpt lat="53.364277" lon="-1.811945"><ele>234</ele><time>2022-03-19T10:35:51Z</time><name>PT2076</name></trkpt>
<trkpt lat="53.364283" lon="-1.811966"><ele>234</ele><time>2022-03-19T10:35:52Z</time><name>PT2077</name></trkpt>
<trkpt lat="53.364289" lon="-1.811985"><ele>234</ele><time>2022-03-19T10:35:52Z</time><name>PT2078</name></trkpt>
<trkpt lat="53.364296" lon="-1.812005"><ele>234</ele><time>2022-03-19T10:35:54Z</time><name>PT2079</name></trkpt>
<trkpt lat="53.364302" lon="-1.812026"><ele>234</ele><time>2022-03-19T10:35:55Z</time><name>PT2080</name></trkpt>
<trkpt lat="53.364307" lon="-1.812048"><ele>234</ele><time>2022-03-19T10:35:55Z</time><name>PT2081</name></trkpt>
<trkpt lat="53.364311" lon="-1.812070"><ele>234</ele><time>2022-03-19T10:35:57Z</time><name>PT2082</name></trkpt>
<trkpt lat="53.364314" lon="-1.812093"><ele>234</ele><time>2022-03-19T10:35:58Z</time><name>PT2083</name></trkpt>
<trkpt lat="53.364318" lon="-1.812115"><ele>234</ele><time>2022-03-19T10:35:58Z</time><name>PT2084</name></trkpt>
<trkpt lat="53.364321" lon="-1.812138"><ele>234</ele><time>2022-03-19T10:36:00Z</time><name>PT2085</name></trkpt>
<trkpt lat="53.364324" lon="-1.812160"><ele>234</ele><time>2022-03-19T10:36:01Z</time><name>PT2086</name></trkpt>
<trkpt lat="53.364327" lon="-1.812180"><ele>234</ele><time>2022-03-19T10:36:01Z</time><name>PT2087</name></trkpt>
<trkpt lat="53.364329" lon="-1.812201"><ele>234</ele><time>2022-03-19T10:36:03Z</time><name>PT2088</name></trkpt>
<trkpt lat="53.364331" lon="-1.812223"><ele>234</ele><time>2022-03-19T10:36:04Z</time><name>PT2089</name></trkpt>
<trkpt lat="53.364331" lon="-1.812242"><ele>233</ele><time>2022-03-19T10:36:04Z</time><name>PT2090</name></trkpt>
<trkpt lat="53.364331" lon="-1.812261"><ele>233</ele><time>2022-03-19T10:36:06Z</time><name>PT2091</name></trkpt>
<trkpt lat="53.364331" lon="-1.812282"><ele>233</ele><time>2022-03-19T10:36:07Z</time><name>PT2092</name></trkpt>
<trkpt lat="53.364331" lon="-1.812297"><ele>233</ele><time>2022-03-19T10:36:07Z</time><name>PT2093</name></trkpt>
<trkpt lat="53.364328" lon="-1.812314"><ele>233</ele><time>2022-03-19T10:36:09Z</time><name>PT2094</name></trkpt>
<trkpt lat="53.364327" lon="-1.812329"><ele>233</ele><time>2022-03-19T10:36:10Z</time><name>PT2095</name></trkpt>
<trkpt lat="53.364326" lon="-1.812344"><ele>233</ele><time>2022-03-19T10:36:10Z</time><name>PT2096</name></trkpt>
<trkpt lat="53.364327" lon="-1.812359"><ele>233</ele><time>2022-03-19T10:36:12Z</time><name>PT2097</name></trkpt>
<trkpt lat="53.364328" lon="-1.812375"><ele>234</ele><time>2022-03-19T10:36:13Z</time><name>PT2098</name></trkpt>
<trkpt lat="53.364327" lon="-1.812394"><ele>234</ele><time>2022-03-19T10:36:14Z</time><name>PT2099</name></trkpt>
<trkpt lat="53.364326" lon="-1.812414"><ele>235</ele><time>2022-03-19T10:36:15Z</time><name>PT2100</name></trkpt>
<trkpt lat="53.364326" lon="-1.812432"><ele>235</ele><time>2022-03-19T10:36:16Z</time><name>PT2101</name></trkpt>
<trkpt lat="53.364325" lon="-1.812445"><ele>234</ele><time>2022-03-19T10:36:16Z</time><name>PT2102</name></trkpt>
<trkpt lat="53.364329" lon="-1.812455"><ele>235</ele><time>2022-03-19T10:36:18Z</time><name>PT2103</name></trkpt>
<trkpt lat="53.364330" lon="-1.812470"><ele>235</ele><time>2022-03-19T10:36:19Z</time><name>PT2104</name></trkpt>
<trkpt lat="53.364328" lon="-1.812484"><ele>234</ele><time>2022-03-19T10:36:19Z</time><name>PT2105</name></trkpt>
<trkpt lat="53.364328" lon="-1.812501"><ele>234</ele><time>2022-03-19T10:36:21Z</time><name>PT2106</name></trkpt>
<trkpt lat="53.364327" lon="-1.812517"><ele>234</ele><time>2022-03-19T10:36:22Z</time><name>PT2107</name></trkpt>
<trkpt lat="53.364327" lon="-1.812537"><ele>235</ele><time>2022-03-19T10:36:22Z</time><name>PT2108</name></trkpt>
<trkpt lat="53.364328" lon="-1.812552"><ele>234</ele><time>2022-03-19T10:36:24Z</time><name>PT2109</name></trkpt>
<trkpt lat="53.364328" lon="-1.812571"><ele>234</ele><time>2022-03-19T10:36:25Z</time><name>PT2110</name></trkpt>
<trkpt lat="53.364327" lon="-1.812583"><ele>233</ele><time>2022-03-19T10:36:25Z</time><name>PT2111</name></trkpt>
<trkpt lat="53.364327" lon="-1.812600"><ele>234</ele><time>2022-03-19T10:36:27Z</time><name>PT2112</name></trkpt>
<trkpt lat="53.364327" lon="-1.812621"><ele>234</ele><time>2022-03-19T10:36:28Z</time><name>PT2113</name></trkpt>
<trkpt lat="53.364326" lon="-1.812637"><ele>234</ele><time>2022-03-19T10:36:29Z</time><name>PT2114</name></trkpt>
<trkpt lat="53.364325" lon="-1.812649"><ele>233</ele><time>2022-03-19T10:36:30Z</time><name>PT2115</name></trkpt>
<trkpt lat="53.364325" lon="-1.812660"><ele>234</ele><time>2022-03-19T10:36:31Z</time><name>PT2116</name></trkpt>
<trkpt lat="53.364325" lon="-1.812675"><ele>233</ele><time>2022-03-19T10:36:32Z</time><name>PT2117</name></trkpt>
<trkpt lat="53.364322" lon="-1.812686"><ele>233</ele><time>2022-03-19T10:36:33Z</time><name>PT2118</name></trkpt>
<trkpt lat="53.364318" lon="-1.812698"><ele>233</ele><time>2022-03-19T10:36:34Z</time><name>PT2119</name></trkpt>
<trkpt lat="53.364317" lon="-1.812739"><ele>236</ele><time>2022-03-19T10:36:34Z</time><name>PT2120</name></trkpt>
<trkpt lat="53.364315" lon="-1.812761"><ele>236</ele><time>2022-03-19T10:36:36Z</time><name>PT2121</name></trkpt>
<trkpt lat="53.364315" lon="-1.812777"><ele>237</ele><time>2022-03-19T10:36:37Z</time><name>PT2122</name></trkpt>
<trkpt lat="53.364314" lon="-1.812795"><ele>237</ele><time>2022-03-19T10:36:37Z</time><name>PT2123</name></trkpt>
<trkpt lat="53.364313" lon="-1.812813"><ele>237</ele><time>2022-03-19T10:36:39Z</time><name>PT2124</name></trkpt>
<trkpt lat="53.364312" lon="-1.812834"><ele>238</ele><time>2022-03-19T10:36:40Z</time><name>PT2125</name></trkpt>
<trkpt lat="53.364311" lon="-1.812857"><ele>238</ele><time>2022-03-19T10:36:40Z</time><name>PT2126</name></trkpt>
<trkpt lat="53.364310" lon="-1.812887"><ele>238</ele><time>2022-03-19T10:36:42Z</time><name>PT2127</name></trkpt>
<trkpt lat="53.364307" lon="-1.812907"><ele>238</ele><time>2022-03-19T10:36:43Z</time><name>PT2128</name></trkpt>
<trkpt lat="53.364307" lon="-1.812923"><ele>237</ele><time>2022-03-19T10:36:43Z</time><name>PT2129</name></trkpt>
<trkpt lat="53.364307" lon="-1.812940"><ele>238</ele><time>2022-03-19T10:36:45Z</time><name>PT2130</name></trkpt>
<trkpt lat="53.364307" lon="-1.812961"><ele>238</ele><time>2022-03-19T10:36:46Z</time><name>PT2131</name></trkpt>
<trkpt lat="53.364306" lon="-1.812980"><ele>238</ele><time>2022-03-19T10:36:46Z</time><name>PT2132</name></trkpt>
<trkpt lat="53.364304" lon="-1.812995"><ele>237</ele><time>2022-03-19T10:36:48Z</time><name>PT2133</name></trkpt>
<trkpt lat="53.364302" lon="-1.813011"><ele>237</ele><time>2022-03-19T10:36:49Z</time><name>PT2134</name></trkpt>
<trkpt lat="53.364304" lon="-1.813029"><ele>236</ele><time>2022-03-19T10:36:49Z</time><name>PT2135</name></trkpt>
<trkpt lat="53.364303" lon="-1.813050"><ele>236</ele><time>2022-03-19T10:36:51Z</time><name>PT2136</name></trkpt>
<trkpt lat="53.364301" lon="-1.813069"><ele>237</ele><time>2022-03-19T10:36:52Z</time><name>PT2137</name></trkpt>
<trkpt lat="53.364301" lon="-1.813091"><ele>237</ele><time>2022-03-19T10:36:52Z</time><name>PT2138</name></trkpt>
<trkpt lat="53.364301" lon="-1.813111"><ele>237</ele><time>2022-03-19T10:36:54Z</time><name>PT2139</name></trkpt>
<trkpt lat="53.364298" lon="-1.813129"><ele>237</ele><time>2022-03-19T10:36:55Z</time><name>PT2140</name></trkpt>
<trkpt lat="53.364299" lon="-1.813147"><ele>237</ele><time>2022-03-19T10:36:55Z</time><name>PT2141</name></trkpt>
<trkpt lat="53.364295" lon="-1.813159"><ele>237</ele><time>2022-03-19T10:36:57Z</time><name>PT2142</name></trkpt>
<trkpt lat="53.364294" lon="-1.813176"><ele>237</ele><time>2022-03-19T10:36:58Z</time><name>PT2143</name></trkpt>
<trkpt lat="53.364292" lon="-1.813193"><ele>237</ele><time>2022-03-19T10:36:58Z</time><name>PT2144</name></trkpt>
<trkpt lat="53.364292" lon="-1.813222"><ele>238</ele><time>2022-03-19T10:37:00Z</time><name>PT2145</name></trkpt>
<trkpt lat="53.364289" lon="-1.813250"><ele>239</ele><time>2022-03-19T10:37:01Z</time><name>PT2146</name></trkpt>
<trkpt lat="53.364288" lon="-1.813276"><ele>239</ele><time>2022-03-19T10:37:01Z</time><name>PT2147</name></trkpt>
<trkpt lat="53.364288" lon="-1.813298"><ele>239</ele><time>2022-03-19T10:37:03Z</time><name>PT2148</name></trkpt>
<trkpt lat="53.364286" lon="-1.813316"><ele>239</ele><time>2022-03-19T10:37:04Z</time><name>PT2149</name></trkpt>
<trkpt lat="53.364290" lon="-1.813344"><ele>239</ele><time>2022-03-19T10:37:04Z</time><name>PT2150</name></trkpt>
<trkpt lat="53.364293" lon="-1.813380"><ele>240</ele><time>2022-03-19T10:37:06Z</time><name>PT2151</name></trkpt>
<trkpt lat="53.364292" lon="-1.813400"><ele>241</ele><time>2022-03-19T10:37:07Z</time><name>PT2152</name></trkpt>
<trkpt lat="53.364292" lon="-1.813426"><ele>241</ele><time>2022-03-19T10:37:07Z</time><name>PT2153</name></trkpt>
<trkpt lat="53.364299" lon="-1.813453"><ele>242</ele><time>2022-03-19T10:37:09Z</time><name>PT2154</name></trkpt>
<trkpt lat="53.364302" lon="-1.813473"><ele>242</ele><time>2022-03-19T10:37:10Z</time><name>PT2155</name></trkpt>
<trkpt lat="53.364305" lon="-1.813497"><ele>242</ele><time>2022-03-19T10:37:10Z</time><name>PT2156</name></trkpt>
<trkpt lat="53.364308" lon="-1.813519"><ele>243</ele><time>2022-03-19T10:37:12Z</time><name>PT2157</name></trkpt>
<trkpt lat="53.364308" lon="-1.813542"><ele>243</ele><time>2022-03-19T10:37:13Z</time><name>PT2158</name></trkpt>
<trkpt lat="53.364306" lon="-1.813561"><ele>243</ele><time>2022-03-19T10:37:13Z</time><name>PT2159</name></trkpt>
<trkpt lat="53.364306" lon="-1.813579"><ele>242</ele><time>2022-03-19T10:37:15Z</time><name>PT2160</name></trkpt>
<trkpt lat="53.364305" lon="-1.813592"><ele>242</ele><time>2022-03-19T10:37:16Z</time><name>PT2161</name></trkpt>
<trkpt lat="53.364307" lon="-1.813610"><ele>242</ele><time>2022-03-19T10:37:16Z</time><name>PT2162</name></trkpt>
<trkpt lat="53.364306" lon="-1.813627"><ele>242</ele><time>2022-03-19T10:37:18Z</time><name>PT2163</name></trkpt>
<trkpt lat="53.364301" lon="-1.813634"><ele>242</ele><time>2022-03-19T10:37:19Z</time><name>PT2164</name></trkpt>
<trkpt lat="53.364302" lon="-1.813654"><ele>242</ele><time>2022-03-19T10:37:19Z</time><name>PT2165</name></trkpt>
<trkpt lat="53.364300" lon="-1.813672"><ele>242</ele><time>2022-03-19T10:37:21Z</time><name>PT2166</name></trkpt>
<trkpt lat="53.364299" lon="-1.813686"><ele>242</ele><time>2022-03-19T10:37:22Z</time><name>PT2167</name></trkpt>
<trkpt lat="53.364301" lon="-1.813713"><ele>242</ele><time>2022-03-19T10:37:22Z</time><name>PT2168</name></trkpt>
<trkpt lat="53.364300" lon="-1.813732"><ele>241</ele><time>2022-03-19T10:37:24Z</time><name>PT2169</name></trkpt>
<trkpt lat="53.364302" lon="-1.813756"><ele>241</ele><time>2022-03-19T10:37:25Z</time><name>PT2170</name></trkpt>
<trkpt lat="53.364298" lon="-1.813790"><ele>238</ele><time>2022-03-19T10:37:25Z</time><name>PT2171</name></trkpt>
<trkpt lat="53.364300" lon="-1.813815"><ele>238</ele><time>2022-03-19T10:37:27Z</time><name>PT2172</name></trkpt>
<trkpt lat="53.364300" lon="-1.813830"><ele>238</ele><time>2022-03-19T10:37:28Z</time><name>PT2173</name></trkpt>
<trkpt lat="53.364307" lon="-1.813852"><ele>239</ele><time>2022-03-19T10:37:29Z</time><name>PT2174</name></trkpt>
<trkpt lat="53.364306" lon="-1.813863"><ele>239</ele><time>2022-03-19T10:37:30Z</time><name>PT2175</name></trkpt>
<trkpt lat="53.364304" lon="-1.813876"><ele>240</ele><time>2022-03-19T10:37:31Z</time><name>PT2176</name></trkpt>
<trkpt lat="53.364306" lon="-1.813909"><ele>241</ele><time>2022-03-19T10:37:32Z</time><name>PT2177</name></trkpt>
<trkpt lat="53.364309" lon="-1.813962"><ele>241</ele><time>2022-03-19T10:37:33Z</time><name>PT2178</name></trkpt>
<trkpt lat="53.364314" lon="-1.814022"><ele>240</ele><time>2022-03-19T10:37:34Z</time><name>PT2179</name></trkpt>
<trkpt lat="53.364320" lon="-1.814067"><ele>241</ele><time>2022-03-19T10:37:35Z</time><name>PT2180</name></trkpt>
<trkpt lat="53.364328" lon="-1.814102"><ele>240</ele><time>2022-03-19T10:37:36Z</time><name>PT2181</name></trkpt>
<trkpt lat="53.364335" lon="-1.814127"><ele>240</ele><time>2022-03-19T10:37:37Z</time><name>PT2182</name></trkpt>
<trkpt lat="53.364340" lon="-1.814152"><ele>240</ele><time>2022-03-19T10:37:37Z</time><name>PT2183</name></trkpt>
<trkpt lat="53.364343" lon="-1.814176"><ele>239</ele><time>2022-03-19T10:37:39Z</time><name>PT2184</name></trkpt>
<trkpt lat="53.364343" lon="-1.814197"><ele>239</ele><time>2022-03-19T10:37:40Z</time><name>PT2185</name></trkpt>
<trkpt lat="53.364341" lon="-1.814219"><ele>239</ele><time>2022-03-19T10:37:40Z</time><name>PT2186</name></trkpt>
<trkpt lat="53.364342" lon="-1.814239"><ele>239</ele><time>2022-03-19T10:37:42Z</time><name>PT2187</name></trkpt>
<trkpt lat="53.364341" lon="-1.814259"><ele>238</ele><time>2022-03-19T10:37:43Z</time><name>PT2188</name></trkpt>
<trkpt lat="53.364340" lon="-1.814279"><ele>238</ele><time>2022-03-19T10:37:43Z</time><name>PT2189</name></trkpt>
<trkpt lat="53.364340" lon="-1.814301"><ele>238</ele><time>2022-03-19T10:37:45Z</time><name>PT2190</name></trkpt>
<trkpt lat="53.364343" lon="-1.814321"><ele>238</ele><time>2022-03-19T10:37:46Z</time><name>PT2191</name></trkpt>
<trkpt lat="53.364343" lon="-1.814342"><ele>239</ele><time>2022-03-19T10:37:46Z</time><name>PT2192</name></trkpt>
<trkpt lat="53.364345" lon="-1.814362"><ele>239</ele><time>2022-03-19T10:37:48Z</time><name>PT2193</name></trkpt>
<trkpt lat="53.364348" lon="-1.814382"><ele>238</ele><time>2022-03-19T10:37:49Z</time><name>PT2194</name></trkpt>
<trkpt lat="53.364349" lon="-1.814394"><ele>238</ele><time>2022-03-19T10:37:49Z</time><name>PT2195</name></trkpt>
<trkpt lat="53.364351" lon="-1.814415"><ele>239</ele><time>2022-03-19T10:37:51Z</time><name>PT2196</name></trkpt>
<trkpt lat="53.364352" lon="-1.814433"><ele>239</ele><time>2022-03-19T10:37:52Z</time><name>PT2197</name></trkpt>
<trkpt lat="53.364354" lon="-1.814453"><ele>239</ele><time>2022-03-19T10:37:52Z</time><name>PT2198</name></trkpt>
<trkpt lat="53.364358" lon="-1.814471"><ele>239</ele><time>2022-03-19T10:37:54Z</time><name>PT2199</name></trkpt>
<trkpt lat="53.364360" lon="-1.814491"><ele>239</ele><time>2022-03-19T10:37:55Z</time><name>PT2200</name></trkpt>
<trkpt lat="53.364359" lon="-1.814514"><ele>240</ele><time>2022-03-19T10:37:55Z</time><name>PT2201</name></trkpt>
<trkpt lat="53.364357" lon="-1.814535"><ele>240</ele><time>2022-03-19T10:37:57Z</time><name>PT2202</name></trkpt>
<trkpt lat="53.364356" lon="-1.814552"><ele>240</ele><time>2022-03-19T10:37:58Z</time><name>PT2203</name></trkpt>
<trkpt lat="53.364358" lon="-1.814575"><ele>240</ele><time>2022-03-19T10:37:58Z</time><name>PT2204</name></trkpt>
<trkpt lat="53.364359" lon="-1.814600"><ele>240</ele><time>2022-03-19T10:38:00Z</time><name>PT2205</name></trkpt>
<trkpt lat="53.364360" lon="-1.814621"><ele>240</ele><time>2022-03-19T10:38:01Z</time><name>PT2206</name></trkpt>
<trkpt lat="53.364364" lon="-1.814643"><ele>241</ele><time>2022-03-19T10:38:01Z</time><name>PT2207</name></trkpt>
<trkpt lat="53.364364" lon="-1.814664"><ele>240</ele><time>2022-03-19T10:38:03Z</time><name>PT2208</name></trkpt>
<trkpt lat="53.364365" lon="-1.814686"><ele>240</ele><time>2022-03-19T10:38:04Z</time><name>PT2209</name></trkpt>
<trkpt lat="53.364365" lon="-1.814708"><ele>240</ele><time>2022-03-19T10:38:04Z</time><name>PT2210</name></trkpt>
<trkpt lat="53.364367" lon="-1.814733"><ele>240</ele><time>2022-03-19T10:38:06Z</time><name>PT2211</name></trkpt>
<trkpt lat="53.364368" lon="-1.814754"><ele>240</ele><time>2022-03-19T10:38:07Z</time><name>PT2212</name></trkpt>
<trkpt lat="53.364370" lon="-1.814773"><ele>240</ele><time>2022-03-19T10:38:07Z</time><name>PT2213</name></trkpt>
<trkpt lat="53.364370" lon="-1.814779"><ele>241</ele><time>2022-03-19T10:38:09Z</time><name>PT2214</name></trkpt>
<trkpt lat="53.364371" lon="-1.814780"><ele>241</ele><time>2022-03-19T10:38:10Z</time><name>PT2215</name></trkpt>
<trkpt lat="53.364373" lon="-1.814788"><ele>241</ele><time>2022-03-19T10:38:10Z</time><name>PT2216</name></trkpt>
<trkpt lat="53.364373" lon="-1.814791"><ele>241</ele><time>2022-03-19T10:38:12Z</time><name>PT2217</name></trkpt>
<trkpt lat="53.364372" lon="-1.814791"><ele>241</ele><time>2022-03-19T10:38:13Z</time><name>PT2218</name></trkpt>
<trkpt lat="53.364372" lon="-1.814790"><ele>241</ele><time>2022-03-19T10:38:13Z</time><name>PT2219</name></trkpt>
<trkpt lat="53.364372" lon="-1.814778"><ele>241</ele><time>2022-03-19T10:38:22Z</time><name>PT2220</name></trkpt>
<trkpt lat="53.364374" lon="-1.814775"><ele>241</ele><time>2022-03-19T10:38:22Z</time><name>PT2221</name></trkpt>
<trkpt lat="53.364373" lon="-1.814770"><ele>241</ele><time>2022-03-19T10:38:24Z</time><name>PT2222</name></trkpt>
<trkpt lat="53.364376" lon="-1.814768"><ele>241</ele><time>2022-03-19T10:38:46Z</time><name>PT2223</name></trkpt>
<trkpt lat="53.364393" lon="-1.814761"><ele>241</ele><time>2022-03-19T10:38:48Z</time><name>PT2224</name></trkpt>
<trkpt lat="53.364409" lon="-1.814753"><ele>241</ele><time>2022-03-19T10:38:49Z</time><name>PT2225</name></trkpt>
<trkpt lat="53.364416" lon="-1.814756"><ele>240</ele><time>2022-03-19T10:38:49Z</time><name>PT2226</name></trkpt>
<trkpt lat="53.364424" lon="-1.814749"><ele>239</ele><time>2022-03-19T10:38:51Z</time><name>PT2227</name></trkpt>
<trkpt lat="53.364437" lon="-1.814749"><ele>239</ele><time>2022-03-19T10:38:52Z</time><name>PT2228</name></trkpt>
<trkpt lat="53.364447" lon="-1.814754"><ele>239</ele><time>2022-03-19T10:38:52Z</time><name>PT2229</name></trkpt>
<trkpt lat="53.364459" lon="-1.814784"><ele>239</ele><time>2022-03-19T10:38:54Z</time><name>PT2230</name></trkpt>
<trkpt lat="53.364471" lon="-1.814812"><ele>239</ele><time>2022-03-19T10:38:55Z</time><name>PT2231</name></trkpt>
<trkpt lat="53.364482" lon="-1.814839"><ele>239</ele><time>2022-03-19T10:38:55Z</time><name>PT2232</name></trkpt>
<trkpt lat="53.364490" lon="-1.814866"><ele>241</ele><time>2022-03-19T10:38:57Z</time><name>PT2233</name></trkpt>
<trkpt lat="53.364496" lon="-1.814882"><ele>241</ele><time>2022-03-19T10:38:58Z</time><name>PT2234</name></trkpt>
<trkpt lat="53.364500" lon="-1.814903"><ele>241</ele><time>2022-03-19T10:38:58Z</time><name>PT2235</name></trkpt>
<trkpt lat="53.364504" lon="-1.814920"><ele>241</ele><time>2022-03-19T10:39:00Z</time><name>PT2236</name></trkpt>
<trkpt lat="53.364508" lon="-1.814932"><ele>241</ele><time>2022-03-19T10:39:01Z</time><name>PT2237</name></trkpt>
<trkpt lat="53.364511" lon="-1.814952"><ele>241</ele><time>2022-03-19T10:39:01Z</time><name>PT2238</name></trkpt>
<trkpt lat="53.364514" lon="-1.814970"><ele>241</ele><time>2022-03-19T10:39:03Z</time><name>PT2239</name></trkpt>
<trkpt lat="53.364515" lon="-1.814990"><ele>241</ele><time>2022-03-19T10:39:04Z</time><name>PT2240</name></trkpt>
<trkpt lat="53.364515" lon="-1.815015"><ele>240</ele><time>2022-03-19T10:39:04Z</time><name>PT2241</name></trkpt>
<trkpt lat="53.364515" lon="-1.815038"><ele>239</ele><time>2022-03-19T10:39:06Z</time><name>PT2242</name></trkpt>
<trkpt lat="53.364513" lon="-1.815059"><ele>240</ele><time>2022-03-19T10:39:07Z</time><name>PT2243</name></trkpt>
<trkpt lat="53.364511" lon="-1.815080"><ele>239</ele><time>2022-03-19T10:39:07Z</time><name>PT2244</name></trkpt>
<trkpt lat="53.364514" lon="-1.815102"><ele>240</ele><time>2022-03-19T10:39:09Z</time><name>PT2245</name></trkpt>
<trkpt lat="53.364519" lon="-1.815118"><ele>240</ele><time>2022-03-19T10:39:10Z</time><name>PT2246</name></trkpt>
<trkpt lat="53.364521" lon="-1.815135"><ele>240</ele><time>2022-03-19T10:39:10Z</time><name>PT2247</name></trkpt>
<trkpt lat="53.364525" lon="-1.815157"><ele>240</ele><time>2022-03-19T10:39:12Z</time><name>PT2248</name></trkpt>
<trkpt lat="53.364528" lon="-1.815179"><ele>239</ele><time>2022-03-19T10:39:13Z</time><name>PT2249</name></trkpt>
<trkpt lat="53.364531" lon="-1.815198"><ele>239</ele><time>2022-03-19T10:39:13Z</time><name>PT2250</name></trkpt>
<trkpt lat="53.364540" lon="-1.815222"><ele>238</ele><time>2022-03-19T10:39:15Z</time><name>PT2251</name></trkpt>
<trkpt lat="53.364548" lon="-1.815243"><ele>239</ele><time>2022-03-19T10:39:16Z</time><name>PT2252</name></trkpt>
<trkpt lat="53.364551" lon="-1.815262"><ele>239</ele><time>2022-03-19T10:39:16Z</time><name>PT2253</name></trkpt>
<trkpt lat="53.364558" lon="-1.815281"><ele>239</ele><time>2022-03-19T10:39:18Z</time><name>PT2254</name></trkpt>
<trkpt lat="53.364568" lon="-1.815294"><ele>239</ele><time>2022-03-19T10:39:19Z</time><name>PT2255</name></trkpt>
<trkpt lat="53.364574" lon="-1.815311"><ele>240</ele><time>2022-03-19T10:39:19Z</time><name>PT2256</name></trkpt>
<trkpt lat="53.364581" lon="-1.815332"><ele>241</ele><time>2022-03-19T10:39:21Z</time><name>PT2257</name></trkpt>
<trkpt lat="53.364590" lon="-1.815352"><ele>241</ele><time>2022-03-19T10:39:22Z</time><name>PT2258</name></trkpt>
<trkpt lat="53.364597" lon="-1.815369"><ele>241</ele><time>2022-03-19T10:39:22Z</time><name>PT2259</name></trkpt>
<trkpt lat="53.364604" lon="-1.815385"><ele>241</ele><time>2022-03-19T10:39:24Z</time><name>PT2260</name></trkpt>
<trkpt lat="53.364613" lon="-1.815401"><ele>242</ele><time>2022-03-19T10:39:25Z</time><name>PT2261</name></trkpt>
<trkpt lat="53.364621" lon="-1.815419"><ele>242</ele><time>2022-03-19T10:39:25Z</time><name>PT2262</name></trkpt>
<trkpt lat="53.364630" lon="-1.815436"><ele>243</ele><time>2022-03-19T10:39:27Z</time><name>PT2263</name></trkpt>
<trkpt lat="53.364638" lon="-1.815453"><ele>243</ele><time>2022-03-19T10:39:28Z</time><name>PT2264</name></trkpt>
<trkpt lat="53.364643" lon="-1.815471"><ele>243</ele><time>2022-03-19T10:39:28Z</time><name>PT2265</name></trkpt>
<trkpt lat="53.364651" lon="-1.815485"><ele>243</ele><time>2022-03-19T10:39:30Z</time><name>PT2266</name></trkpt>
<trkpt lat="53.364657" lon="-1.815489"><ele>243</ele><time>2022-03-19T10:39:31Z</time><name>PT2267</name></trkpt>
<trkpt lat="53.364661" lon="-1.815491"><ele>243</ele><time>2022-03-19T10:39:31Z</time><name>PT2268</name></trkpt>
<trkpt lat="53.364664" lon="-1.815487"><ele>243</ele><time>2022-03-19T10:39:40Z</time><name>PT2269</name></trkpt>
<trkpt lat="53.364664" lon="-1.815490"><ele>242</ele><time>2022-03-19T10:39:42Z</time><name>PT2270</name></trkpt>
<trkpt lat="53.364672" lon="-1.815504"><ele>242</ele><time>2022-03-19T10:39:43Z</time><name>PT2271</name></trkpt>
<trkpt lat="53.364682" lon="-1.815519"><ele>242</ele><time>2022-03-19T10:39:43Z</time><name>PT2272</name></trkpt>
<trkpt lat="53.364691" lon="-1.815529"><ele>241</ele><time>2022-03-19T10:39:45Z</time><name>PT2273</name></trkpt>
<trkpt lat="53.364697" lon="-1.815541"><ele>242</ele><time>2022-03-19T10:39:46Z</time><name>PT2274</name></trkpt>
<trkpt lat="53.364696" lon="-1.815553"><ele>242</ele><time>2022-03-19T10:39:46Z</time><name>PT2275</name></trkpt>
<trkpt lat="53.364695" lon="-1.815564"><ele>241</ele><time>2022-03-19T10:39:48Z</time><name>PT2276</name></trkpt>
<trkpt lat="53.364696" lon="-1.815561"><ele>241</ele><time>2022-03-19T10:39:49Z</time><name>PT2277</name></trkpt>
<trkpt lat="53.364695" lon="-1.815567"><ele>241</ele><time>2022-03-19T10:39:49Z</time><name>PT2278</name></trkpt>
<trkpt lat="53.364693" lon="-1.815574"><ele>241</ele><time>2022-03-19T10:39:51Z</time><name>PT2279</name></trkpt>
<trkpt lat="53.364694" lon="-1.815581"><ele>241</ele><time>2022-03-19T10:39:52Z</time><name>PT2280</name></trkpt>
<trkpt lat="53.364699" lon="-1.815580"><ele>242</ele><time>2022-03-19T10:39:52Z</time><name>PT2281</name></trkpt>
<trkpt lat="53.364713" lon="-1.815581"><ele>242</ele><time>2022-03-19T10:39:54Z</time><name>PT2282</name></trkpt>
<trkpt lat="53.364730" lon="-1.815583"><ele>242</ele><time>2022-03-19T10:39:55Z</time><name>PT2283</name></trkpt>
<trkpt lat="53.364729" lon="-1.815584"><ele>243</ele><time>2022-03-19T10:39:55Z</time><name>PT2284</name></trkpt>
<trkpt lat="53.364727" lon="-1.815587"><ele>243</ele><time>2022-03-19T10:39:57Z</time><name>PT2285</name></trkpt>
<trkpt lat="53.364732" lon="-1.815588"><ele>243</ele><time>2022-03-19T10:39:58Z</time><name>PT2286</name></trkpt>
<trkpt lat="53.364730" lon="-1.815589"><ele>243</ele><time>2022-03-19T10:39:58Z</time><name>PT2287</name></trkpt>
<trkpt lat="53.364731" lon="-1.815588"><ele>243</ele><time>2022-03-19T10:40:00Z</time><name>PT2288</name></trkpt>
<trkpt lat="53.364727" lon="-1.815587"><ele>244</ele><time>2022-03-19T10:40:01Z</time><name>PT2289</name></trkpt>
<trkpt lat="53.364721" lon="-1.815583"><ele>244</ele><time>2022-03-19T10:40:03Z</time><name>PT2290</name></trkpt>
<trkpt lat="53.364717" lon="-1.815577"><ele>244</ele><time>2022-03-19T10:40:04Z</time><name>PT2291</name></trkpt>
<trkpt lat="53.364715" lon="-1.815577"><ele>244</ele><time>2022-03-19T10:40:04Z</time><name>PT2292</name></trkpt>
<trkpt lat="53.364711" lon="-1.815576"><ele>244</ele><time>2022-03-19T10:40:06Z</time><name>PT2293</name></trkpt>
<trkpt lat="53.364710" lon="-1.815574"><ele>244</ele><time>2022-03-19T10:40:07Z</time><name>PT2294</name></trkpt>
<trkpt lat="53.364708" lon="-1.815574"><ele>244</ele><time>2022-03-19T10:40:07Z</time><name>PT2295</name></trkpt>
<trkpt lat="53.364701" lon="-1.815577"><ele>245</ele><time>2022-03-19T10:40:09Z</time><name>PT2296</name></trkpt>
<trkpt lat="53.364706" lon="-1.815575"><ele>246</ele><time>2022-03-19T10:40:13Z</time><name>PT2297</name></trkpt>
<trkpt lat="53.364717" lon="-1.815594"><ele>247</ele><time>2022-03-19T10:40:16Z</time><name>PT2298</name></trkpt>
<trkpt lat="53.364728" lon="-1.815591"><ele>247</ele><time>2022-03-19T10:40:17Z</time><name>PT2299</name></trkpt>
<trkpt lat="53.364753" lon="-1.815582"><ele>246</ele><time>2022-03-19T10:40:18Z</time><name>PT2300</name></trkpt>
<trkpt lat="53.364790" lon="-1.815544"><ele>246</ele><time>2022-03-19T10:40:19Z</time><name>PT2301</name></trkpt>
<trkpt lat="53.364790" lon="-1.815529"><ele>247</ele><time>2022-03-19T10:40:19Z</time><name>PT2302</name></trkpt>
<trkpt lat="53.364809" lon="-1.815525"><ele>248</ele><time>2022-03-19T10:40:21Z</time><name>PT2303</name></trkpt>
<trkpt lat="53.364844" lon="-1.815536"><ele>248</ele><time>2022-03-19T10:40:22Z</time><name>PT2304</name></trkpt>
<trkpt lat="53.364828" lon="-1.815548"><ele>249</ele><time>2022-03-19T10:40:22Z</time><name>PT2305</name></trkpt>
<trkpt lat="53.364845" lon="-1.815559"><ele>249</ele><time>2022-03-19T10:40:24Z</time><name>PT2306</name></trkpt>
<trkpt lat="53.364860" lon="-1.815567"><ele>250</ele><time>2022-03-19T10:40:25Z</time><name>PT2307</name></trkpt>
<trkpt lat="53.364869" lon="-1.815605"><ele>250</ele><time>2022-03-19T10:40:25Z</time><name>PT2308</name></trkpt>
<trkpt lat="53.364884" lon="-1.815619"><ele>251</ele><time>2022-03-19T10:40:27Z</time><name>PT2309</name></trkpt>
<trkpt lat="53.364901" lon="-1.815663"><ele>250</ele><time>2022-03-19T10:40:28Z</time><name>PT2310</name></trkpt>
<trkpt lat="53.364911" lon="-1.815682"><ele>249</ele><time>2022-03-19T10:40:28Z</time><name>PT2311</name></trkpt>
<trkpt lat="53.364926" lon="-1.815714"><ele>249</ele><time>2022-03-19T10:40:30Z</time><name>PT2312</name></trkpt>
<trkpt lat="53.364934" lon="-1.815710"><ele>250</ele><time>2022-03-19T10:40:31Z</time><name>PT2313</name></trkpt>
<trkpt lat="53.364959" lon="-1.815740"><ele>248</ele><time>2022-03-19T10:40:32Z</time><name>PT2314</name></trkpt>
<trkpt lat="53.364969" lon="-1.815760"><ele>248</ele><time>2022-03-19T10:40:33Z</time><name>PT2315</name></trkpt>
<trkpt lat="53.364977" lon="-1.815759"><ele>249</ele><time>2022-03-19T10:40:34Z</time><name>PT2316</name></trkpt>
<trkpt lat="53.364968" lon="-1.815710"><ele>248</ele><time>2022-03-19T10:40:34Z</time><name>PT2317</name></trkpt>
<trkpt lat="53.364975" lon="-1.815711"><ele>248</ele><time>2022-03-19T10:40:36Z</time><name>PT2318</name></trkpt>
<trkpt lat="53.364982" lon="-1.815707"><ele>248</ele><time>2022-03-19T10:40:37Z</time><name>PT2319</name></trkpt>
<trkpt lat="53.364968" lon="-1.815729"><ele>247</ele><time>2022-03-19T10:40:38Z</time><name>PT2320</name></trkpt>
<trkpt lat="53.364975" lon="-1.815735"><ele>247</ele><time>2022-03-19T10:40:39Z</time><name>PT2321</name></trkpt>
<trkpt lat="53.364976" lon="-1.815725"><ele>248</ele><time>2022-03-19T10:40:40Z</time><name>PT2322</name></trkpt>
<trkpt lat="53.365008" lon="-1.815722"><ele>245</ele><time>2022-03-19T10:40:40Z</time><name>PT2323</name></trkpt>
<trkpt lat="53.365014" lon="-1.815723"><ele>245</ele><time>2022-03-19T10:40:42Z</time><name>PT2324</name></trkpt>
<trkpt lat="53.365021" lon="-1.815723"><ele>245</ele><time>2022-03-19T10:40:43Z</time><name>PT2325</name></trkpt>
<trkpt lat="53.364975" lon="-1.815702"><ele>244</ele><time>2022-03-19T10:40:43Z</time><name>PT2326</name></trkpt>
<trkpt lat="53.364977" lon="-1.815694"><ele>244</ele><time>2022-03-19T10:40:45Z</time><name>PT2327</name></trkpt>
<trkpt lat="53.364984" lon="-1.815640"><ele>247</ele><time>2022-03-19T10:40:57Z</time><name>PT2328</name></trkpt>
<trkpt lat="53.364994" lon="-1.815619"><ele>249</ele><time>2022-03-19T10:40:58Z</time><name>PT2329</name></trkpt>
<trkpt lat="53.365019" lon="-1.815549"><ele>247</ele><time>2022-03-19T10:40:58Z</time><name>PT2330</name></trkpt>
<trkpt lat="53.365025" lon="-1.815547"><ele>247</ele><time>2022-03-19T10:41:00Z</time><name>PT2331</name></trkpt>
<trkpt lat="53.365031" lon="-1.815546"><ele>248</ele><time>2022-03-19T10:41:01Z</time><name>PT2332</name></trkpt>
<trkpt lat="53.365014" lon="-1.815446"><ele>247</ele><time>2022-03-19T10:41:01Z</time><name>PT2333</name></trkpt>
<trkpt lat="53.365017" lon="-1.815445"><ele>247</ele><time>2022-03-19T10:41:03Z</time><name>PT2334</name></trkpt>
<trkpt lat="53.365020" lon="-1.815443"><ele>247</ele><time>2022-03-19T10:41:04Z</time><name>PT2335</name></trkpt>
<trkpt lat="53.365022" lon="-1.815444"><ele>248</ele><time>2022-03-19T10:41:16Z</time><name>PT2336</name></trkpt>
<trkpt lat="53.365022" lon="-1.815444"><ele>248</ele><time>2022-03-19T10:41:33Z</time><name>PT2337</name></trkpt>
<trkpt lat="53.365022" lon="-1.815443"><ele>248</ele><time>2022-03-19T10:41:34Z</time><name>PT2338</name></trkpt>
<trkpt lat="53.365023" lon="-1.815437"><ele>248</ele><time>2022-03-19T10:41:46Z</time><name>PT2339</name></trkpt>
<trkpt lat="53.365024" lon="-1.815450"><ele>249</ele><time>2022-03-19T10:41:51Z</time><name>PT2340</name></trkpt>
<trkpt lat="53.365034" lon="-1.815445"><ele>249</ele><time>2022-03-19T10:41:52Z</time><name>PT2341</name></trkpt>
<trkpt lat="53.365028" lon="-1.815419"><ele>249</ele><time>2022-03-19T10:41:55Z</time><name>PT2342</name></trkpt>
<trkpt lat="53.365021" lon="-1.815419"><ele>248</ele><time>2022-03-19T10:41:55Z</time><name>PT2343</name></trkpt>
<trkpt lat="53.365012" lon="-1.815409"><ele>247</ele><time>2022-03-19T10:41:57Z</time><name>PT2344</name></trkpt>
<trkpt lat="53.364998" lon="-1.815413"><ele>247</ele><time>2022-03-19T10:41:58Z</time><name>PT2345</name></trkpt>
<trkpt lat="53.364978" lon="-1.815405"><ele>246</ele><time>2022-03-19T10:41:58Z</time><name>PT2346</name></trkpt>
<trkpt lat="53.364964" lon="-1.815410"><ele>245</ele><time>2022-03-19T10:42:00Z</time><name>PT2347</name></trkpt>
<trkpt lat="53.364926" lon="-1.815429"><ele>244</ele><time>2022-03-19T10:42:01Z</time><name>PT2348</name></trkpt>
<trkpt lat="53.364878" lon="-1.815494"><ele>241</ele><time>2022-03-19T10:42:04Z</time><name>PT2349</name></trkpt>
<trkpt lat="53.364814" lon="-1.815539"><ele>240</ele><time>2022-03-19T10:42:04Z</time><name>PT2350</name></trkpt>
<trkpt lat="53.364778" lon="-1.815521"><ele>241</ele><time>2022-03-19T10:42:13Z</time><name>PT2351</name></trkpt>
<trkpt lat="53.364755" lon="-1.815494"><ele>240</ele><time>2022-03-19T10:42:15Z</time><name>PT2352</name></trkpt>
<trkpt lat="53.364739" lon="-1.815471"><ele>240</ele><time>2022-03-19T10:42:18Z</time><name>PT2353</name></trkpt>
<trkpt lat="53.364727" lon="-1.815436"><ele>240</ele><time>2022-03-19T10:42:22Z</time><name>PT2354</name></trkpt>
<trkpt lat="53.364719" lon="-1.815416"><ele>241</ele><time>2022-03-19T10:42:25Z</time><name>PT2355</name></trkpt>
<trkpt lat="53.364719" lon="-1.815423"><ele>241</ele><time>2022-03-19T10:42:55Z</time><name>PT2356</name></trkpt>
<trkpt lat="53.364714" lon="-1.815441"><ele>241</ele><time>2022-03-19T10:43:00Z</time><name>PT2357</name></trkpt>
<trkpt lat="53.364717" lon="-1.815444"><ele>241</ele><time>2022-03-19T10:43:07Z</time><name>PT2358</name></trkpt>
<trkpt lat="53.364714" lon="-1.815448"><ele>241</ele><time>2022-03-19T10:43:09Z</time><name>PT2359</name></trkpt>
<trkpt lat="53.364711" lon="-1.815448"><ele>241</ele><time>2022-03-19T10:43:10Z</time><name>PT2360</name></trkpt>
<trkpt lat="53.364715" lon="-1.815449"><ele>239</ele><time>2022-03-19T10:43:55Z</time><name>PT2361</name></trkpt>
<trkpt lat="53.364729" lon="-1.815467"><ele>239</ele><time>2022-03-19T10:43:55Z</time><name>PT2362</name></trkpt>
<trkpt lat="53.364724" lon="-1.815478"><ele>239</ele><time>2022-03-19T10:43:57Z</time><name>PT2363</name></trkpt>
<trkpt lat="53.364725" lon="-1.815486"><ele>239</ele><time>2022-03-19T10:43:58Z</time><name>PT2364</name></trkpt>
<trkpt lat="53.364733" lon="-1.815488"><ele>239</ele><time>2022-03-19T10:43:58Z</time><name>PT2365</name></trkpt>
<trkpt lat="53.364744" lon="-1.815490"><ele>240</ele><time>2022-03-19T10:44:00Z</time><name>PT2366</name></trkpt>
<trkpt lat="53.364748" lon="-1.815488"><ele>241</ele><time>2022-03-19T10:44:01Z</time><name>PT2367</name></trkpt>
<trkpt lat="53.364751" lon="-1.815499"><ele>241</ele><time>2022-03-19T10:44:01Z</time><name>PT2368</name></trkpt>
<trkpt lat="53.364767" lon="-1.815517"><ele>240</ele><time>2022-03-19T10:44:03Z</time><name>PT2369</name></trkpt>
<trkpt lat="53.364786" lon="-1.815539"><ele>242</ele><time>2022-03-19T10:44:04Z</time><name>PT2370</name></trkpt>
<trkpt lat="53.364789" lon="-1.815540"><ele>242</ele><time>2022-03-19T10:44:04Z</time><name>PT2371</name></trkpt>
<trkpt lat="53.364790" lon="-1.815520"><ele>242</ele><time>2022-03-19T10:44:16Z</time><name>PT2372</name></trkpt>
<trkpt lat="53.364791" lon="-1.815527"><ele>243</ele><time>2022-03-19T10:44:18Z</time><name>PT2373</name></trkpt>
<trkpt lat="53.364794" lon="-1.815525"><ele>243</ele><time>2022-03-19T10:44:19Z</time><name>PT2374</name></trkpt>
<trkpt lat="53.364798" lon="-1.815537"><ele>244</ele><time>2022-03-19T10:44:19Z</time><name>PT2375</name></trkpt>
<trkpt lat="53.364792" lon="-1.815536"><ele>246</ele><time>2022-03-19T10:44:22Z</time><name>PT2376</name></trkpt>
<trkpt lat="53.364792" lon="-1.815533"><ele>246</ele><time>2022-03-19T10:44:22Z</time><name>PT2377</name></trkpt>
<trkpt lat="53.364798" lon="-1.815540"><ele>246</ele><time>2022-03-19T10:44:24Z</time><name>PT2378</name></trkpt>
<trkpt lat="53.364798" lon="-1.815535"><ele>247</ele><time>2022-03-19T10:44:25Z</time><name>PT2379</name></trkpt>
<trkpt lat="53.364797" lon="-1.815532"><ele>247</ele><time>2022-03-19T10:44:27Z</time><name>PT2380</name></trkpt>
<trkpt lat="53.364795" lon="-1.815530"><ele>247</ele><time>2022-03-19T10:44:28Z</time><name>PT2381</name></trkpt>
<trkpt lat="53.364794" lon="-1.815524"><ele>248</ele><time>2022-03-19T10:44:28Z</time><name>PT2382</name></trkpt>
<trkpt lat="53.364793" lon="-1.815521"><ele>248</ele><time>2022-03-19T10:44:30Z</time><name>PT2383</name></trkpt>
<trkpt lat="53.364794" lon="-1.815527"><ele>248</ele><time>2022-03-19T10:44:48Z</time><name>PT2384</name></trkpt>
<trkpt lat="53.364796" lon="-1.815535"><ele>247</ele><time>2022-03-19T10:44:49Z</time><name>PT2385</name></trkpt>
<trkpt lat="53.364799" lon="-1.815541"><ele>247</ele><time>2022-03-19T10:44:49Z</time><name>PT2386</name></trkpt>
<trkpt lat="53.364800" lon="-1.815544"><ele>247</ele><time>2022-03-19T10:44:51Z</time><name>PT2387</name></trkpt>
<trkpt lat="53.364801" lon="-1.815545"><ele>247</ele><time>2022-03-19T10:44:52Z</time><name>PT2388</name></trkpt>
<trkpt lat="53.364807" lon="-1.815594"><ele>244</ele><time>2022-03-19T10:47:42Z</time><name>PT2389</name></trkpt>
<trkpt lat="53.364832" lon="-1.815593"><ele>243</ele><time>2022-03-19T10:49:49Z</time><name>PT2390</name></trkpt>
<trkpt lat="53.364818" lon="-1.815578"><ele>243</ele><time>2022-03-19T10:49:52Z</time><name>PT2391</name></trkpt>
<trkpt lat="53.364800" lon="-1.815562"><ele>243</ele><time>2022-03-19T10:49:55Z</time><name>PT2392</name></trkpt>
<trkpt lat="53.364798" lon="-1.815551"><ele>243</ele><time>2022-03-19T10:50:00Z</time><name>PT2393</name></trkpt>
<trkpt lat="53.364783" lon="-1.815530"><ele>244</ele><time>2022-03-19T10:50:18Z</time><name>PT2394</name></trkpt>
<trkpt lat="53.364783" lon="-1.815529"><ele>243</ele><time>2022-03-19T10:50:21Z</time><name>PT2395</name></trkpt>
<trkpt lat="53.364784" lon="-1.815530"><ele>242</ele><time>2022-03-19T10:50:24Z</time><name>PT2396</name></trkpt>
<trkpt lat="53.364791" lon="-1.815529"><ele>242</ele><time>2022-03-19T10:50:34Z</time><name>PT2397</name></trkpt>
<trkpt lat="53.364797" lon="-1.815538"><ele>241</ele><time>2022-03-19T10:50:36Z</time><name>PT2398</name></trkpt>
<trkpt lat="53.364805" lon="-1.815540"><ele>242</ele><time>2022-03-19T10:50:37Z</time><name>PT2399</name></trkpt>
<trkpt lat="53.364806" lon="-1.815537"><ele>242</ele><time>2022-03-19T10:50:38Z</time><name>PT2400</name></trkpt>
<trkpt lat="53.364803" lon="-1.815538"><ele>242</ele><time>2022-03-19T10:50:39Z</time><name>PT2401</name></trkpt>
<trkpt lat="53.364802" lon="-1.815533"><ele>242</ele><time>2022-03-19T10:50:40Z</time><name>PT2402</name></trkpt>
<trkpt lat="53.364803" lon="-1.815525"><ele>242</ele><time>2022-03-19T10:50:40Z</time><name>PT2403</name></trkpt>
<trkpt lat="53.364804" lon="-1.815521"><ele>242</ele><time>2022-03-19T10:50:42Z</time><name>PT2404</name></trkpt>
<trkpt lat="53.364803" lon="-1.815544"><ele>244</ele><time>2022-03-19T10:50:52Z</time><name>PT2405</name></trkpt>
<trkpt lat="53.364807" lon="-1.815535"><ele>244</ele><time>2022-03-19T10:50:53Z</time><name>PT2406</name></trkpt>
<trkpt lat="53.364798" lon="-1.815520"><ele>244</ele><time>2022-03-19T10:51:10Z</time><name>PT2407</name></trkpt>
<trkpt lat="53.364795" lon="-1.815509"><ele>244</ele><time>2022-03-19T10:51:12Z</time><name>PT2408</name></trkpt>
<trkpt lat="53.364786" lon="-1.815512"><ele>245</ele><time>2022-03-19T10:51:13Z</time><name>PT2409</name></trkpt>
<trkpt lat="53.364786" lon="-1.815542"><ele>244</ele><time>2022-03-19T10:52:31Z</time><name>PT2410</name></trkpt>
<trkpt lat="53.364767" lon="-1.815539"><ele>244</ele><time>2022-03-19T10:52:31Z</time><name>PT2411</name></trkpt>
<trkpt lat="53.364755" lon="-1.815539"><ele>244</ele><time>2022-03-19T10:52:33Z</time><name>PT2412</name></trkpt>
<trkpt lat="53.364744" lon="-1.815534"><ele>243</ele><time>2022-03-19T10:52:34Z</time><name>PT2413</name></trkpt>
<trkpt lat="53.364731" lon="-1.815530"><ele>242</ele><time>2022-03-19T10:52:34Z</time><name>PT2414</name></trkpt>
<trkpt lat="53.364717" lon="-1.815518"><ele>242</ele><time>2022-03-19T10:52:36Z</time><name>PT2415</name></trkpt>
<trkpt lat="53.364700" lon="-1.815510"><ele>242</ele><time>2022-03-19T10:52:37Z</time><name>PT2416</name></trkpt>
<trkpt lat="53.364688" lon="-1.815503"><ele>243</ele><time>2022-03-19T10:52:37Z</time><name>PT2417</name></trkpt>
<trkpt lat="53.364675" lon="-1.815497"><ele>243</ele><time>2022-03-19T10:52:39Z</time><name>PT2418</name></trkpt>
<trkpt lat="53.364661" lon="-1.815488"><ele>243</ele><time>2022-03-19T10:52:40Z</time><name>PT2419</name></trkpt>
<trkpt lat="53.364649" lon="-1.815489"><ele>241</ele><time>2022-03-19T10:52:40Z</time><name>PT2420</name></trkpt>
<trkpt lat="53.364641" lon="-1.815487"><ele>241</ele><time>2022-03-19T10:52:42Z</time><name>PT2421</name></trkpt>
<trkpt lat="53.364632" lon="-1.815492"><ele>240</ele><time>2022-03-19T10:52:43Z</time><name>PT2422</name></trkpt>
<trkpt lat="53.364626" lon="-1.815493"><ele>241</ele><time>2022-03-19T10:52:43Z</time><name>PT2423</name></trkpt>
<trkpt lat="53.364622" lon="-1.815490"><ele>240</ele><time>2022-03-19T10:52:45Z</time><name>PT2424</name></trkpt>
<trkpt lat="53.364618" lon="-1.815492"><ele>240</ele><time>2022-03-19T10:52:46Z</time><name>PT2425</name></trkpt>
<trkpt lat="53.364614" lon="-1.815490"><ele>240</ele><time>2022-03-19T10:52:46Z</time><name>PT2426</name></trkpt>
<trkpt lat="53.364611" lon="-1.815491"><ele>240</ele><time>2022-03-19T10:52:48Z</time><name>PT2427</name></trkpt>
<trkpt lat="53.364611" lon="-1.815497"><ele>240</ele><time>2022-03-19T10:52:49Z</time><name>PT2428</name></trkpt>
<trkpt lat="53.364607" lon="-1.815508"><ele>240</ele><time>2022-03-19T10:52:49Z</time><name>PT2429</name></trkpt>
<trkpt lat="53.364603" lon="-1.815519"><ele>240</ele><time>2022-03-19T10:52:51Z</time><name>PT2430</name></trkpt>
<trkpt lat="53.364594" lon="-1.815525"><ele>242</ele><time>2022-03-19T10:52:52Z</time><name>PT2431</name></trkpt>
<trkpt lat="53.364590" lon="-1.815532"><ele>242</ele><time>2022-03-19T10:52:52Z</time><name>PT2432</name></trkpt>
<trkpt lat="53.364590" lon="-1.815532"><ele>242</ele><time>2022-03-19T10:52:54Z</time><name>PT2433</name></trkpt>
<trkpt lat="53.364587" lon="-1.815534"><ele>242</ele><time>2022-03-19T10:52:55Z</time><name>PT2434</name></trkpt>
<trkpt lat="53.364583" lon="-1.815538"><ele>242</ele><time>2022-03-19T10:52:55Z</time><name>PT2435</name></trkpt>
<trkpt lat="53.364580" lon="-1.815545"><ele>242</ele><time>2022-03-19T10:52:57Z</time><name>PT2436</name></trkpt>
<trkpt lat="53.364579" lon="-1.815556"><ele>240</ele><time>2022-03-19T10:52:58Z</time><name>PT2437</name></trkpt>
<trkpt lat="53.364581" lon="-1.815560"><ele>240</ele><time>2022-03-19T10:52:58Z</time><name>PT2438</name></trkpt>
<trkpt lat="53.364580" lon="-1.815559"><ele>240</ele><time>2022-03-19T10:53:00Z</time><name>PT2439</name></trkpt>
<trkpt lat="53.364582" lon="-1.815567"><ele>240</ele><time>2022-03-19T10:53:01Z</time><name>PT2440</name></trkpt>
<trkpt lat="53.364587" lon="-1.815577"><ele>239</ele><time>2022-03-19T10:53:01Z</time><name>PT2441</name></trkpt>
<trkpt lat="53.364591" lon="-1.815588"><ele>239</ele><time>2022-03-19T10:53:03Z</time><name>PT2442</name></trkpt>
<trkpt lat="53.364596" lon="-1.815598"><ele>239</ele><time>2022-03-19T10:53:04Z</time><name>PT2443</name></trkpt>
<trkpt lat="53.364607" lon="-1.815609"><ele>239</ele><time>2022-03-19T10:53:04Z</time><name>PT2444</name></trkpt>
<trkpt lat="53.364615" lon="-1.815616"><ele>239</ele><time>2022-03-19T10:53:06Z</time><name>PT2445</name></trkpt>
<trkpt lat="53.364622" lon="-1.815629"><ele>238</ele><time>2022-03-19T10:53:07Z</time><name>PT2446</name></trkpt>
<trkpt lat="53.364627" lon="-1.815632"><ele>237</ele><time>2022-03-19T10:53:07Z</time><name>PT2447</name></trkpt>
<trkpt lat="53.364629" lon="-1.815648"><ele>238</ele><time>2022-03-19T10:53:09Z</time><name>PT2448</name></trkpt>
<trkpt lat="53.364632" lon="-1.815654"><ele>238</ele><time>2022-03-19T10:53:10Z</time><name>PT2449</name></trkpt>
<trkpt lat="53.364641" lon="-1.815661"><ele>237</ele><time>2022-03-19T10:53:10Z</time><name>PT2450</name></trkpt>
<trkpt lat="53.364649" lon="-1.815676"><ele>237</ele><time>2022-03-19T10:53:12Z</time><name>PT2451</name></trkpt>
<trkpt lat="53.364655" lon="-1.815681"><ele>237</ele><time>2022-03-19T10:53:13Z</time><name>PT2452</name></trkpt>
<trkpt lat="53.364664" lon="-1.815694"><ele>237</ele><time>2022-03-19T10:53:13Z</time><name>PT2453</name></trkpt>
<trkpt lat="53.364670" lon="-1.815713"><ele>237</ele><time>2022-03-19T10:53:15Z</time><name>PT2454</name></trkpt>
<trkpt lat="53.364671" lon="-1.815731"><ele>238</ele><time>2022-03-19T10:53:16Z</time><name>PT2455</name></trkpt>
<trkpt lat="53.364689" lon="-1.815772"><ele>242</ele><time>2022-03-19T10:53:16Z</time><name>PT2456</name></trkpt>
<trkpt lat="53.364700" lon="-1.815828"><ele>239</ele><time>2022-03-19T10:53:18Z</time><name>PT2457</name></trkpt>
<trkpt lat="53.364709" lon="-1.815860"><ele>239</ele><time>2022-03-19T10:53:19Z</time><name>PT2458</name></trkpt>
<trkpt lat="53.364721" lon="-1.815886"><ele>239</ele><time>2022-03-19T10:53:19Z</time><name>PT2459</name></trkpt>
<trkpt lat="53.364732" lon="-1.815906"><ele>239</ele><time>2022-03-19T10:53:21Z</time><name>PT2460</name></trkpt>
<trkpt lat="53.364740" lon="-1.815921"><ele>239</ele><time>2022-03-19T10:53:22Z</time><name>PT2461</name></trkpt>
<trkpt lat="53.364750" lon="-1.815930"><ele>239</ele><time>2022-03-19T10:53:22Z</time><name>PT2462</name></trkpt>
<trkpt lat="53.364760" lon="-1.815938"><ele>239</ele><time>2022-03-19T10:53:24Z</time><name>PT2463</name></trkpt>
<trkpt lat="53.364769" lon="-1.815946"><ele>240</ele><time>2022-03-19T10:53:25Z</time><name>PT2464</name></trkpt>
<trkpt lat="53.364777" lon="-1.815957"><ele>240</ele><time>2022-03-19T10:53:25Z</time><name>PT2465</name></trkpt>
<trkpt lat="53.364784" lon="-1.815964"><ele>240</ele><time>2022-03-19T10:53:27Z</time><name>PT2466</name></trkpt>
<trkpt lat="53.364792" lon="-1.815968"><ele>240</ele><time>2022-03-19T10:53:28Z</time><name>PT2467</name></trkpt>
<trkpt lat="53.364798" lon="-1.815972"><ele>240</ele><time>2022-03-19T10:53:28Z</time><name>PT2468</name></trkpt>
<trkpt lat="53.364805" lon="-1.815987"><ele>240</ele><time>2022-03-19T10:53:30Z</time><name>PT2469</name></trkpt>
<trkpt lat="53.364812" lon="-1.815992"><ele>240</ele><time>2022-03-19T10:53:31Z</time><name>PT2470</name></trkpt>
<trkpt lat="53.364821" lon="-1.815999"><ele>240</ele><time>2022-03-19T10:53:31Z</time><name>PT2471</name></trkpt>
<trkpt lat="53.364832" lon="-1.816007"><ele>241</ele><time>2022-03-19T10:53:33Z</time><name>PT2472</name></trkpt>
<trkpt lat="53.364839" lon="-1.816014"><ele>242</ele><time>2022-03-19T10:53:34Z</time><name>PT2473</name></trkpt>
<trkpt lat="53.364844" lon="-1.816019"><ele>242</ele><time>2022-03-19T10:53:34Z</time><name>PT2474</name></trkpt>
<trkpt lat="53.364853" lon="-1.816022"><ele>242</ele><time>2022-03-19T10:53:36Z</time><name>PT2475</name></trkpt>
<trkpt lat="53.364862" lon="-1.816027"><ele>243</ele><time>2022-03-19T10:53:37Z</time><name>PT2476</name></trkpt>
<trkpt lat="53.364870" lon="-1.816032"><ele>243</ele><time>2022-03-19T10:53:37Z</time><name>PT2477</name></trkpt>
<trkpt lat="53.364882" lon="-1.816036"><ele>244</ele><time>2022-03-19T10:53:39Z</time><name>PT2478</name></trkpt>
<trkpt lat="53.364893" lon="-1.816039"><ele>244</ele><time>2022-03-19T10:53:40Z</time><name>PT2479</name></trkpt>
<trkpt lat="53.364903" lon="-1.816044"><ele>244</ele><time>2022-03-19T10:53:40Z</time><name>PT2480</name></trkpt>
<trkpt lat="53.364915" lon="-1.816045"><ele>244</ele><time>2022-03-19T10:53:42Z</time><name>PT2481</name></trkpt>
<trkpt lat="53.364924" lon="-1.816048"><ele>245</ele><time>2022-03-19T10:53:43Z</time><name>PT2482</name></trkpt>
<trkpt lat="53.364928" lon="-1.816055"><ele>245</ele><time>2022-03-19T10:53:43Z</time><name>PT2483</name></trkpt>
<trkpt lat="53.364931" lon="-1.816062"><ele>245</ele><time>2022-03-19T10:53:45Z</time><name>PT2484</name></trkpt>
<trkpt lat="53.364928" lon="-1.816074"><ele>241</ele><time>2022-03-19T10:53:46Z</time><name>PT2485</name></trkpt>
<trkpt lat="53.364934" lon="-1.816080"><ele>240</ele><time>2022-03-19T10:53:46Z</time><name>PT2486</name></trkpt>
<trkpt lat="53.364945" lon="-1.816088"><ele>240</ele><time>2022-03-19T10:53:48Z</time><name>PT2487</name></trkpt>
<trkpt lat="53.364960" lon="-1.816099"><ele>240</ele><time>2022-03-19T10:53:49Z</time><name>PT2488</name></trkpt>
<trkpt lat="53.364979" lon="-1.816104"><ele>240</ele><time>2022-03-19T10:53:49Z</time><name>PT2489</name></trkpt>
<trkpt lat="53.364990" lon="-1.816105"><ele>239</ele><time>2022-03-19T10:53:51Z</time><name>PT2490</name></trkpt>
<trkpt lat="53.364994" lon="-1.816110"><ele>239</ele><time>2022-03-19T10:53:52Z</time><name>PT2491</name></trkpt>
<trkpt lat="53.365012" lon="-1.816120"><ele>238</ele><time>2022-03-19T10:53:53Z</time><name>PT2492</name></trkpt>
<trkpt lat="53.365026" lon="-1.816139"><ele>237</ele><time>2022-03-19T10:53:54Z</time><name>PT2493</name></trkpt>
<trkpt lat="53.365037" lon="-1.816152"><ele>235</ele><time>2022-03-19T10:53:55Z</time><name>PT2494</name></trkpt>
<trkpt lat="53.365046" lon="-1.816167"><ele>234</ele><time>2022-03-19T10:53:56Z</time><name>PT2495</name></trkpt>
<trkpt lat="53.365057" lon="-1.816192"><ele>233</ele><time>2022-03-19T10:53:57Z</time><name>PT2496</name></trkpt>
<trkpt lat="53.365071" lon="-1.816204"><ele>233</ele><time>2022-03-19T10:53:58Z</time><name>PT2497</name></trkpt>
<trkpt lat="53.365088" lon="-1.816220"><ele>232</ele><time>2022-03-19T10:53:59Z</time><name>PT2498</name></trkpt>
<trkpt lat="53.365106" lon="-1.816223"><ele>233</ele><time>2022-03-19T10:54:00Z</time><name>PT2499</name></trkpt>
<trkpt lat="53.365124" lon="-1.816223"><ele>233</ele><time>2022-03-19T10:54:01Z</time><name>PT2500</name></trkpt>
<trkpt lat="53.365138" lon="-1.816225"><ele>233</ele><time>2022-03-19T10:54:01Z</time><name>PT2501</name></trkpt>
<trkpt lat="53.365153" lon="-1.816238"><ele>233</ele><time>2022-03-19T10:54:03Z</time><name>PT2502</name></trkpt>
<trkpt lat="53.365183" lon="-1.816244"><ele>236</ele><time>2022-03-19T10:54:04Z</time><name>PT2503</name></trkpt>
<trkpt lat="53.365204" lon="-1.816242"><ele>238</ele><time>2022-03-19T10:54:04Z</time><name>PT2504</name></trkpt>
<trkpt lat="53.365219" lon="-1.816243"><ele>238</ele><time>2022-03-19T10:54:06Z</time><name>PT2505</name></trkpt>
<trkpt lat="53.365231" lon="-1.816243"><ele>238</ele><time>2022-03-19T10:54:07Z</time><name>PT2506</name></trkpt>
<trkpt lat="53.365243" lon="-1.816249"><ele>236</ele><time>2022-03-19T10:54:07Z</time><name>PT2507</name></trkpt>
<trkpt lat="53.365260" lon="-1.816252"><ele>237</ele><time>2022-03-19T10:54:09Z</time><name>PT2508</name></trkpt>
<trkpt lat="53.365274" lon="-1.816258"><ele>237</ele><time>2022-03-19T10:54:10Z</time><name>PT2509</name></trkpt>
<trkpt lat="53.365289" lon="-1.816264"><ele>237</ele><time>2022-03-19T10:54:10Z</time><name>PT2510</name></trkpt>
<trkpt lat="53.365306" lon="-1.816266"><ele>237</ele><time>2022-03-19T10:54:12Z</time><name>PT2511</name></trkpt>
<trkpt lat="53.365319" lon="-1.816266"><ele>238</ele><time>2022-03-19T10:54:13Z</time><name>PT2512</name></trkpt>
<trkpt lat="53.365333" lon="-1.816269"><ele>237</ele><time>2022-03-19T10:54:13Z</time><name>PT2513</name></trkpt>
<trkpt lat="53.365348" lon="-1.816276"><ele>238</ele><time>2022-03-19T10:54:15Z</time><name>PT2514</name></trkpt>
<trkpt lat="53.365362" lon="-1.816282"><ele>238</ele><time>2022-03-19T10:54:16Z</time><name>PT2515</name></trkpt>
<trkpt lat="53.365376" lon="-1.816295"><ele>238</ele><time>2022-03-19T10:54:16Z</time><name>PT2516</name></trkpt>
<trkpt lat="53.365388" lon="-1.816305"><ele>237</ele><time>2022-03-19T10:54:18Z</time><name>PT2517</name></trkpt>
<trkpt lat="53.365401" lon="-1.816304"><ele>238</ele><time>2022-03-19T10:54:19Z</time><name>PT2518</name></trkpt>
<trkpt lat="53.365415" lon="-1.816300"><ele>238</ele><time>2022-03-19T10:54:19Z</time><name>PT2519</name></trkpt>
<trkpt lat="53.365430" lon="-1.816311"><ele>238</ele><time>2022-03-19T10:54:21Z</time><name>PT2520</name></trkpt>
<trkpt lat="53.365444" lon="-1.816316"><ele>239</ele><time>2022-03-19T10:54:22Z</time><name>PT2521</name></trkpt>
<trkpt lat="53.365457" lon="-1.816325"><ele>239</ele><time>2022-03-19T10:54:22Z</time><name>PT2522</name></trkpt>
<trkpt lat="53.365469" lon="-1.816335"><ele>239</ele><time>2022-03-19T10:54:24Z</time><name>PT2523</name></trkpt>
<trkpt lat="53.365483" lon="-1.816341"><ele>239</ele><time>2022-03-19T10:54:25Z</time><name>PT2524</name></trkpt>
<trkpt lat="53.365495" lon="-1.816345"><ele>239</ele><time>2022-03-19T10:54:25Z</time><name>PT2525</name></trkpt>
<trkpt lat="53.365514" lon="-1.816346"><ele>240</ele><time>2022-03-19T10:54:27Z</time><name>PT2526</name></trkpt>
<trkpt lat="53.365529" lon="-1.816350"><ele>241</ele><time>2022-03-19T10:54:28Z</time><name>PT2527</name></trkpt>
<trkpt lat="53.365542" lon="-1.816355"><ele>241</ele><time>2022-03-19T10:54:28Z</time><name>PT2528</name></trkpt>
<trkpt lat="53.365558" lon="-1.816363"><ele>241</ele><time>2022-03-19T10:54:30Z</time><name>PT2529</name></trkpt>
<trkpt lat="53.365572" lon="-1.816366"><ele>241</ele><time>2022-03-19T10:54:31Z</time><name>PT2530</name></trkpt>
<trkpt lat="53.365584" lon="-1.816367"><ele>241</ele><time>2022-03-19T10:54:31Z</time><name>PT2531</name></trkpt>
<trkpt lat="53.365597" lon="-1.816367"><ele>242</ele><time>2022-03-19T10:54:33Z</time><name>PT2532</name></trkpt>
<trkpt lat="53.365612" lon="-1.816368"><ele>242</ele><time>2022-03-19T10:54:34Z</time><name>PT2533</name></trkpt>
<trkpt lat="53.365623" lon="-1.816368"><ele>242</ele><time>2022-03-19T10:54:34Z</time><name>PT2534</name></trkpt>
<trkpt lat="53.365638" lon="-1.816370"><ele>242</ele><time>2022-03-19T10:54:36Z</time><name>PT2535</name></trkpt>
<trkpt lat="53.365650" lon="-1.816365"><ele>243</ele><time>2022-03-19T10:54:37Z</time><name>PT2536</name></trkpt>
<trkpt lat="53.365663" lon="-1.816368"><ele>243</ele><time>2022-03-19T10:54:37Z</time><name>PT2537</name></trkpt>
<trkpt lat="53.365674" lon="-1.816371"><ele>243</ele><time>2022-03-19T10:54:39Z</time><name>PT2538</name></trkpt>
<trkpt lat="53.365685" lon="-1.816372"><ele>244</ele><time>2022-03-19T10:54:40Z</time><name>PT2539</name></trkpt>
<trkpt lat="53.365695" lon="-1.816376"><ele>243</ele><time>2022-03-19T10:54:40Z</time><name>PT2540</name></trkpt>
<trkpt lat="53.365707" lon="-1.816380"><ele>243</ele><time>2022-03-19T10:54:42Z</time><name>PT2541</name></trkpt>
<trkpt lat="53.365719" lon="-1.816385"><ele>244</ele><time>2022-03-19T10:54:43Z</time><name>PT2542</name></trkpt>
<trkpt lat="53.365732" lon="-1.816391"><ele>244</ele><time>2022-03-19T10:54:43Z</time><name>PT2543</name></trkpt>
<trkpt lat="53.365746" lon="-1.816400"><ele>244</ele><time>2022-03-19T10:54:45Z</time><name>PT2544</name></trkpt>
<trkpt lat="53.365755" lon="-1.816404"><ele>244</ele><time>2022-03-19T10:54:46Z</time><name>PT2545</name></trkpt>
<trkpt lat="53.365763" lon="-1.816409"><ele>244</ele><time>2022-03-19T10:54:46Z</time><name>PT2546</name></trkpt>
<trkpt lat="53.365773" lon="-1.816413"><ele>243</ele><time>2022-03-19T10:54:48Z</time><name>PT2547</name></trkpt>
<trkpt lat="53.365789" lon="-1.816417"><ele>244</ele><time>2022-03-19T10:54:49Z</time><name>PT2548</name></trkpt>
<trkpt lat="53.365800" lon="-1.816421"><ele>244</ele><time>2022-03-19T10:54:49Z</time><name>PT2549</name></trkpt>
<trkpt lat="53.365810" lon="-1.816428"><ele>244</ele><time>2022-03-19T10:54:51Z</time><name>PT2550</name></trkpt>
<trkpt lat="53.365820" lon="-1.816433"><ele>244</ele><time>2022-03-19T10:54:52Z</time><name>PT2551</name></trkpt>
<trkpt lat="53.365832" lon="-1.816436"><ele>245</ele><time>2022-03-19T10:54:52Z</time><name>PT2552</name></trkpt>
<trkpt lat="53.365839" lon="-1.816437"><ele>244</ele><time>2022-03-19T10:54:54Z</time><name>PT2553</name></trkpt>
<trkpt lat="53.365849" lon="-1.816437"><ele>244</ele><time>2022-03-19T10:54:55Z</time><name>PT2554</name></trkpt>
<trkpt lat="53.365857" lon="-1.816438"><ele>243</ele><time>2022-03-19T10:54:55Z</time><name>PT2555</name></trkpt>
<trkpt lat="53.365868" lon="-1.816442"><ele>243</ele><time>2022-03-19T10:54:57Z</time><name>PT2556</name></trkpt>
<trkpt lat="53.365882" lon="-1.816445"><ele>243</ele><time>2022-03-19T10:54:58Z</time><name>PT2557</name></trkpt>
<trkpt lat="53.365895" lon="-1.816447"><ele>243</ele><time>2022-03-19T10:54:58Z</time><name>PT2558</name></trkpt>
<trkpt lat="53.365905" lon="-1.816450"><ele>242</ele><time>2022-03-19T10:55:00Z</time><name>PT2559</name></trkpt>
<trkpt lat="53.365916" lon="-1.816453"><ele>242</ele><time>2022-03-19T10:55:01Z</time><name>PT2560</name></trkpt>
<trkpt lat="53.365925" lon="-1.816455"><ele>242</ele><time>2022-03-19T10:55:01Z</time><name>PT2561</name></trkpt>
<trkpt lat="53.365939" lon="-1.816460"><ele>243</ele><time>2022-03-19T10:55:03Z</time><name>PT2562</name></trkpt>
<trkpt lat="53.365950" lon="-1.816466"><ele>242</ele><time>2022-03-19T10:55:04Z</time><name>PT2563</name></trkpt>
<trkpt lat="53.365963" lon="-1.816470"><ele>242</ele><time>2022-03-19T10:55:04Z</time><name>PT2564</name></trkpt>
<trkpt lat="53.365973" lon="-1.816472"><ele>241</ele><time>2022-03-19T10:55:06Z</time><name>PT2565</name></trkpt>
<trkpt lat="53.365985" lon="-1.816472"><ele>241</ele><time>2022-03-19T10:55:07Z</time><name>PT2566</name></trkpt>
<trkpt lat="53.366002" lon="-1.816474"><ele>242</ele><time>2022-03-19T10:55:07Z</time><name>PT2567</name></trkpt>
<trkpt lat="53.366019" lon="-1.816476"><ele>242</ele><time>2022-03-19T10:55:09Z</time><name>PT2568</name></trkpt>
<trkpt lat="53.366033" lon="-1.816479"><ele>243</ele><time>2022-03-19T10:55:10Z</time><name>PT2569</name></trkpt>
<trkpt lat="53.366046" lon="-1.816483"><ele>243</ele><time>2022-03-19T10:55:10Z</time><name>PT2570</name></trkpt>
<trkpt lat="53.366061" lon="-1.816489"><ele>243</ele><time>2022-03-19T10:55:12Z</time><name>PT2571</name></trkpt>
<trkpt lat="53.366113" lon="-1.816493"><ele>243</ele><time>2022-03-19T10:55:16Z</time><name>PT2572</name></trkpt>
<trkpt lat="53.366158" lon="-1.816500"><ele>242</ele><time>2022-03-19T10:55:19Z</time><name>PT2573</name></trkpt>
<trkpt lat="53.366188" lon="-1.816504"><ele>241</ele><time>2022-03-19T10:55:22Z</time><name>PT2574</name></trkpt>
<trkpt lat="53.366230" lon="-1.816521"><ele>241</ele><time>2022-03-19T10:55:27Z</time><name>PT2575</name></trkpt>
<trkpt lat="53.366279" lon="-1.816534"><ele>240</ele><time>2022-03-19T10:55:31Z</time><name>PT2576</name></trkpt>
<trkpt lat="53.366303" lon="-1.816541"><ele>240</ele><time>2022-03-19T10:55:34Z</time><name>PT2577</name></trkpt>
<trkpt lat="53.366352" lon="-1.816567"><ele>240</ele><time>2022-03-19T10:55:37Z</time><name>PT2578</name></trkpt>
<trkpt lat="53.366387" lon="-1.816564"><ele>239</ele><time>2022-03-19T10:55:40Z</time><name>PT2579</name></trkpt>
<trkpt lat="53.366452" lon="-1.816573"><ele>239</ele><time>2022-03-19T10:55:45Z</time><name>PT2580</name></trkpt>
<trkpt lat="53.366501" lon="-1.816567"><ele>241</ele><time>2022-03-19T10:55:48Z</time><name>PT2581</name></trkpt>
<trkpt lat="53.366540" lon="-1.816562"><ele>242</ele><time>2022-03-19T10:55:51Z</time><name>PT2582</name></trkpt>
<trkpt lat="53.366566" lon="-1.816557"><ele>240</ele><time>2022-03-19T10:55:55Z</time><name>PT2583</name></trkpt>
<trkpt lat="53.366646" lon="-1.816544"><ele>246</ele><time>2022-03-19T10:55:58Z</time><name>PT2584</name></trkpt>
<trkpt lat="53.366681" lon="-1.816523"><ele>246</ele><time>2022-03-19T10:56:01Z</time><name>PT2585</name></trkpt>
<trkpt lat="53.366714" lon="-1.816502"><ele>246</ele><time>2022-03-19T10:56:04Z</time><name>PT2586</name></trkpt>
<trkpt lat="53.366754" lon="-1.816466"><ele>247</ele><time>2022-03-19T10:56:07Z</time><name>PT2587</name></trkpt>
<trkpt lat="53.366795" lon="-1.816436"><ele>247</ele><time>2022-03-19T10:56:10Z</time><name>PT2588</name></trkpt>
<trkpt lat="53.366839" lon="-1.816426"><ele>245</ele><time>2022-03-19T10:56:13Z</time><name>PT2589</name></trkpt>
<trkpt lat="53.366873" lon="-1.816394"><ele>244</ele><time>2022-03-19T10:56:16Z</time><name>PT2590</name></trkpt>
<trkpt lat="53.366905" lon="-1.816369"><ele>242</ele><time>2022-03-19T10:56:21Z</time><name>PT2591</name></trkpt>
<trkpt lat="53.366996" lon="-1.816314"><ele>245</ele><time>2022-03-19T10:56:25Z</time><name>PT2592</name></trkpt>
<trkpt lat="53.367029" lon="-1.816267"><ele>245</ele><time>2022-03-19T10:56:28Z</time><name>PT2593</name></trkpt>
<trkpt lat="53.367051" lon="-1.816222"><ele>245</ele><time>2022-03-19T10:56:31Z</time><name>PT2594</name></trkpt>
<trkpt lat="53.367086" lon="-1.816162"><ele>245</ele><time>2022-03-19T10:56:34Z</time><name>PT2595</name></trkpt>
<trkpt lat="53.367111" lon="-1.816119"><ele>248</ele><time>2022-03-19T10:56:37Z</time><name>PT2596</name></trkpt>
<trkpt lat="53.367148" lon="-1.816060"><ele>248</ele><time>2022-03-19T10:56:42Z</time><name>PT2597</name></trkpt>
<trkpt lat="53.367189" lon="-1.816003"><ele>249</ele><time>2022-03-19T10:56:46Z</time><name>PT2598</name></trkpt>
<trkpt lat="53.367236" lon="-1.815929"><ele>249</ele><time>2022-03-19T10:56:49Z</time><name>PT2599</name></trkpt>
<trkpt lat="53.367265" lon="-1.815849"><ele>247</ele><time>2022-03-19T10:56:52Z</time><name>PT2600</name></trkpt>
<trkpt lat="53.367321" lon="-1.815799"><ele>249</ele><time>2022-03-19T10:56:55Z</time><name>PT2601</name></trkpt>
<trkpt lat="53.367371" lon="-1.815749"><ele>250</ele><time>2022-03-19T10:57:00Z</time><name>PT2602</name></trkpt>
<trkpt lat="53.367428" lon="-1.815695"><ele>251</ele><time>2022-03-19T10:57:04Z</time><name>PT2603</name></trkpt>
<trkpt lat="53.367472" lon="-1.815669"><ele>251</ele><time>2022-03-19T10:57:07Z</time><name>PT2604</name></trkpt>
<trkpt lat="53.367525" lon="-1.815632"><ele>250</ele><time>2022-03-19T10:57:10Z</time><name>PT2605</name></trkpt>
<trkpt lat="53.367565" lon="-1.815602"><ele>249</ele><time>2022-03-19T10:57:15Z</time><name>PT2606</name></trkpt>
<trkpt lat="53.367599" lon="-1.815588"><ele>249</ele><time>2022-03-19T10:57:18Z</time><name>PT2607</name></trkpt>
<trkpt lat="53.367645" lon="-1.815573"><ele>249</ele><time>2022-03-19T10:57:22Z</time><name>PT2608</name></trkpt>
<trkpt lat="53.367660" lon="-1.815552"><ele>245</ele><time>2022-03-19T10:57:25Z</time><name>PT2609</name></trkpt>
<trkpt lat="53.367709" lon="-1.815531"><ele>245</ele><time>2022-03-19T10:57:28Z</time><name>PT2610</name></trkpt>
<trkpt lat="53.367757" lon="-1.815510"><ele>245</ele><time>2022-03-19T10:57:33Z</time><name>PT2611</name></trkpt>
<trkpt lat="53.367799" lon="-1.815493"><ele>244</ele><time>2022-03-19T10:57:37Z</time><name>PT2612</name></trkpt>
<trkpt lat="53.367833" lon="-1.815461"><ele>242</ele><time>2022-03-19T10:57:40Z</time><name>PT2613</name></trkpt>
<trkpt lat="53.367860" lon="-1.815442"><ele>241</ele><time>2022-03-19T10:57:43Z</time><name>PT2614</name></trkpt>
<trkpt lat="53.367903" lon="-1.815433"><ele>241</ele><time>2022-03-19T10:57:46Z</time><name>PT2615</name></trkpt>
<trkpt lat="53.367975" lon="-1.815437"><ele>241</ele><time>2022-03-19T10:57:49Z</time><name>PT2616</name></trkpt>
<trkpt lat="53.368017" lon="-1.815448"><ele>242</ele><time>2022-03-19T10:57:52Z</time><name>PT2617</name></trkpt>
<trkpt lat="53.368062" lon="-1.815449"><ele>243</ele><time>2022-03-19T10:57:55Z</time><name>PT2618</name></trkpt>
<trkpt lat="53.368103" lon="-1.815454"><ele>244</ele><time>2022-03-19T10:58:00Z</time><name>PT2619</name></trkpt>
<trkpt lat="53.368152" lon="-1.815448"><ele>245</ele><time>2022-03-19T10:58:03Z</time><name>PT2620</name></trkpt>
<trkpt lat="53.368218" lon="-1.815439"><ele>246</ele><time>2022-03-19T10:58:07Z</time><name>PT2621</name></trkpt>
<trkpt lat="53.368255" lon="-1.815430"><ele>245</ele><time>2022-03-19T10:58:10Z</time><name>PT2622</name></trkpt>
<trkpt lat="53.368311" lon="-1.815426"><ele>245</ele><time>2022-03-19T10:58:13Z</time><name>PT2623</name></trkpt>
<trkpt lat="53.368348" lon="-1.815431"><ele>244</ele><time>2022-03-19T10:58:16Z</time><name>PT2624</name></trkpt>
<trkpt lat="53.368393" lon="-1.815448"><ele>245</ele><time>2022-03-19T10:58:19Z</time><name>PT2625</name></trkpt>
<trkpt lat="53.368439" lon="-1.815465"><ele>245</ele><time>2022-03-19T10:58:22Z</time><name>PT2626</name></trkpt>
<trkpt lat="53.368480" lon="-1.815469"><ele>245</ele><time>2022-03-19T10:58:25Z</time><name>PT2627</name></trkpt>
<trkpt lat="53.368526" lon="-1.815488"><ele>245</ele><time>2022-03-19T10:58:28Z</time><name>PT2628</name></trkpt>
<trkpt lat="53.368590" lon="-1.815503"><ele>247</ele><time>2022-03-19T10:58:33Z</time><name>PT2629</name></trkpt>
<trkpt lat="53.368643" lon="-1.815530"><ele>249</ele><time>2022-03-19T10:58:36Z</time><name>PT2630</name></trkpt>
<trkpt lat="53.368700" lon="-1.815547"><ele>250</ele><time>2022-03-19T10:58:40Z</time><name>PT2631</name></trkpt>
<trkpt lat="53.368736" lon="-1.815576"><ele>250</ele><time>2022-03-19T10:58:43Z</time><name>PT2632</name></trkpt>
<trkpt lat="53.368771" lon="-1.815594"><ele>249</ele><time>2022-03-19T10:58:46Z</time><name>PT2633</name></trkpt>
<trkpt lat="53.368803" lon="-1.815613"><ele>249</ele><time>2022-03-19T10:58:49Z</time><name>PT2634</name></trkpt>
<trkpt lat="53.368843" lon="-1.815632"><ele>249</ele><time>2022-03-19T10:58:52Z</time><name>PT2635</name></trkpt>
<trkpt lat="53.368883" lon="-1.815639"><ele>249</ele><time>2022-03-19T10:58:55Z</time><name>PT2636</name></trkpt>
<trkpt lat="53.368931" lon="-1.815649"><ele>247</ele><time>2022-03-19T10:59:00Z</time><name>PT2637</name></trkpt>
<trkpt lat="53.368954" lon="-1.815650"><ele>247</ele><time>2022-03-19T10:59:03Z</time><name>PT2638</name></trkpt>
<trkpt lat="53.368988" lon="-1.815670"><ele>245</ele><time>2022-03-19T10:59:06Z</time><name>PT2639</name></trkpt>
<trkpt lat="53.369012" lon="-1.815658"><ele>246</ele><time>2022-03-19T10:59:10Z</time><name>PT2640</name></trkpt>
<trkpt lat="53.369038" lon="-1.815674"><ele>245</ele><time>2022-03-19T10:59:13Z</time><name>PT2641</name></trkpt>
<trkpt lat="53.369110" lon="-1.815695"><ele>246</ele><time>2022-03-19T10:59:16Z</time><name>PT2642</name></trkpt>
<trkpt lat="53.369159" lon="-1.815723"><ele>246</ele><time>2022-03-19T10:59:21Z</time><name>PT2643</name></trkpt>
<trkpt lat="53.369219" lon="-1.815736"><ele>246</ele><time>2022-03-19T10:59:25Z</time><name>PT2644</name></trkpt>
<trkpt lat="53.369295" lon="-1.815750"><ele>251</ele><time>2022-03-19T10:59:28Z</time><name>PT2645</name></trkpt>
<trkpt lat="53.369312" lon="-1.815756"><ele>251</ele><time>2022-03-19T10:59:30Z</time><name>PT2646</name></trkpt>
<trkpt lat="53.369335" lon="-1.815764"><ele>250</ele><time>2022-03-19T10:59:31Z</time><name>PT2647</name></trkpt>
<trkpt lat="53.369373" lon="-1.815780"><ele>251</ele><time>2022-03-19T10:59:31Z</time><name>PT2648</name></trkpt>
<trkpt lat="53.369385" lon="-1.815789"><ele>252</ele><time>2022-03-19T10:59:33Z</time><name>PT2649</name></trkpt>
<trkpt lat="53.369391" lon="-1.815796"><ele>252</ele><time>2022-03-19T10:59:34Z</time><name>PT2650</name></trkpt>
<trkpt lat="53.369406" lon="-1.815800"><ele>252</ele><time>2022-03-19T10:59:34Z</time><name>PT2651</name></trkpt>
<trkpt lat="53.369418" lon="-1.815800"><ele>253</ele><time>2022-03-19T10:59:36Z</time><name>PT2652</name></trkpt>
<trkpt lat="53.369436" lon="-1.815803"><ele>253</ele><time>2022-03-19T10:59:37Z</time><name>PT2653</name></trkpt>
<trkpt lat="53.369449" lon="-1.815806"><ele>253</ele><time>2022-03-19T10:59:37Z</time><name>PT2654</name></trkpt>
<trkpt lat="53.369462" lon="-1.815808"><ele>253</ele><time>2022-03-19T10:59:39Z</time><name>PT2655</name></trkpt>
<trkpt lat="53.369476" lon="-1.815813"><ele>254</ele><time>2022-03-19T10:59:40Z</time><name>PT2656</name></trkpt>
<trkpt lat="53.369494" lon="-1.815819"><ele>254</ele><time>2022-03-19T10:59:40Z</time><name>PT2657</name></trkpt>
<trkpt lat="53.369506" lon="-1.815821"><ele>255</ele><time>2022-03-19T10:59:42Z</time><name>PT2658</name></trkpt>
<trkpt lat="53.369521" lon="-1.815827"><ele>255</ele><time>2022-03-19T10:59:43Z</time><name>PT2659</name></trkpt>
<trkpt lat="53.369529" lon="-1.815835"><ele>255</ele><time>2022-03-19T10:59:43Z</time><name>PT2660</name></trkpt>
<trkpt lat="53.369547" lon="-1.815841"><ele>256</ele><time>2022-03-19T10:59:45Z</time><name>PT2661</name></trkpt>
<trkpt lat="53.369556" lon="-1.815847"><ele>255</ele><time>2022-03-19T10:59:46Z</time><name>PT2662</name></trkpt>
<trkpt lat="53.369568" lon="-1.815849"><ele>256</ele><time>2022-03-19T10:59:46Z</time><name>PT2663</name></trkpt>
<trkpt lat="53.369574" lon="-1.815852"><ele>257</ele><time>2022-03-19T10:59:48Z</time><name>PT2664</name></trkpt>
<trkpt lat="53.369576" lon="-1.815860"><ele>255</ele><time>2022-03-19T10:59:49Z</time><name>PT2665</name></trkpt>
<trkpt lat="53.369584" lon="-1.815876"><ele>254</ele><time>2022-03-19T10:59:49Z</time><name>PT2666</name></trkpt>
<trkpt lat="53.369594" lon="-1.815884"><ele>255</ele><time>2022-03-19T10:59:51Z</time><name>PT2667</name></trkpt>
<trkpt lat="53.369604" lon="-1.815893"><ele>255</ele><time>2022-03-19T10:59:52Z</time><name>PT2668</name></trkpt>
<trkpt lat="53.369618" lon="-1.815902"><ele>253</ele><time>2022-03-19T10:59:52Z</time><name>PT2669</name></trkpt>
<trkpt lat="53.369632" lon="-1.815913"><ele>253</ele><time>2022-03-19T10:59:54Z</time><name>PT2670</name></trkpt>
<trkpt lat="53.369648" lon="-1.815929"><ele>251</ele><time>2022-03-19T10:59:55Z</time><name>PT2671</name></trkpt>
<trkpt lat="53.369660" lon="-1.815933"><ele>251</ele><time>2022-03-19T10:59:55Z</time><name>PT2672</name></trkpt>
<trkpt lat="53.369670" lon="-1.815940"><ele>250</ele><time>2022-03-19T10:59:57Z</time><name>PT2673</name></trkpt>
<trkpt lat="53.369683" lon="-1.815949"><ele>250</ele><time>2022-03-19T10:59:58Z</time><name>PT2674</name></trkpt>
<trkpt lat="53.369695" lon="-1.815954"><ele>249</ele><time>2022-03-19T10:59:58Z</time><name>PT2675</name></trkpt>
<trkpt lat="53.369712" lon="-1.815957"><ele>248</ele><time>2022-03-19T11:00:00Z</time><name>PT2676</name></trkpt>
<trkpt lat="53.369724" lon="-1.815966"><ele>247</ele><time>2022-03-19T11:00:01Z</time><name>PT2677</name></trkpt>
<trkpt lat="53.369740" lon="-1.815976"><ele>246</ele><time>2022-03-19T11:00:02Z</time><name>PT2678</name></trkpt>
<trkpt lat="53.369751" lon="-1.815984"><ele>246</ele><time>2022-03-19T11:00:03Z</time><name>PT2679</name></trkpt>
<trkpt lat="53.369766" lon="-1.815994"><ele>245</ele><time>2022-03-19T11:00:04Z</time><name>PT2680</name></trkpt>
<trkpt lat="53.369778" lon="-1.816000"><ele>245</ele><time>2022-03-19T11:00:04Z</time><name>PT2681</name></trkpt>
<trkpt lat="53.369793" lon="-1.816008"><ele>246</ele><time>2022-03-19T11:00:06Z</time><name>PT2682</name></trkpt>
<trkpt lat="53.369804" lon="-1.816015"><ele>245</ele><time>2022-03-19T11:00:07Z</time><name>PT2683</name></trkpt>
<trkpt lat="53.369812" lon="-1.816027"><ele>245</ele><time>2022-03-19T11:00:07Z</time><name>PT2684</name></trkpt>
<trkpt lat="53.369821" lon="-1.816039"><ele>242</ele><time>2022-03-19T11:00:09Z</time><name>PT2685</name></trkpt>
<trkpt lat="53.369828" lon="-1.816048"><ele>241</ele><time>2022-03-19T11:00:10Z</time><name>PT2686</name></trkpt>
<trkpt lat="53.369851" lon="-1.816058"><ele>243</ele><time>2022-03-19T11:00:10Z</time><name>PT2687</name></trkpt>
<trkpt lat="53.369864" lon="-1.816066"><ele>243</ele><time>2022-03-19T11:00:12Z</time><name>PT2688</name></trkpt>
<trkpt lat="53.369879" lon="-1.816077"><ele>243</ele><time>2022-03-19T11:00:13Z</time><name>PT2689</name></trkpt>
<trkpt lat="53.369884" lon="-1.816088"><ele>243</ele><time>2022-03-19T11:00:13Z</time><name>PT2690</name></trkpt>
<trkpt lat="53.369896" lon="-1.816102"><ele>244</ele><time>2022-03-19T11:00:15Z</time><name>PT2691</name></trkpt>
<trkpt lat="53.369911" lon="-1.816114"><ele>245</ele><time>2022-03-19T11:00:16Z</time><name>PT2692</name></trkpt>
<trkpt lat="53.369923" lon="-1.816130"><ele>245</ele><time>2022-03-19T11:00:16Z</time><name>PT2693</name></trkpt>
<trkpt lat="53.369933" lon="-1.816148"><ele>245</ele><time>2022-03-19T11:00:18Z</time><name>PT2694</name></trkpt>
<trkpt lat="53.369946" lon="-1.816163"><ele>246</ele><time>2022-03-19T11:00:19Z</time><name>PT2695</name></trkpt>
<trkpt lat="53.369961" lon="-1.816181"><ele>247</ele><time>2022-03-19T11:00:19Z</time><name>PT2696</name></trkpt>
<trkpt lat="53.369964" lon="-1.816197"><ele>247</ele><time>2022-03-19T11:00:21Z</time><name>PT2697</name></trkpt>
<trkpt lat="53.369972" lon="-1.816211"><ele>247</ele><time>2022-03-19T11:00:22Z</time><name>PT2698</name></trkpt>
<trkpt lat="53.369989" lon="-1.816234"><ele>249</ele><time>2022-03-19T11:00:22Z</time><name>PT2699</name></trkpt>
<trkpt lat="53.370000" lon="-1.816251"><ele>248</ele><time>2022-03-19T11:00:24Z</time><name>PT2700</name></trkpt>
<trkpt lat="53.370011" lon="-1.816266"><ele>249</ele><time>2022-03-19T11:00:25Z</time><name>PT2701</name></trkpt>
<trkpt lat="53.370020" lon="-1.816274"><ele>248</ele><time>2022-03-19T11:00:25Z</time><name>PT2702</name></trkpt>
<trkpt lat="53.370034" lon="-1.816286"><ele>248</ele><time>2022-03-19T11:00:27Z</time><name>PT2703</name></trkpt>
<trkpt lat="53.370047" lon="-1.816302"><ele>249</ele><time>2022-03-19T11:00:28Z</time><name>PT2704</name></trkpt>
<trkpt lat="53.370055" lon="-1.816316"><ele>249</ele><time>2022-03-19T11:00:28Z</time><name>PT2705</name></trkpt>
<trkpt lat="53.370063" lon="-1.816332"><ele>248</ele><time>2022-03-19T11:00:30Z</time><name>PT2706</name></trkpt>
<trkpt lat="53.370074" lon="-1.816351"><ele>249</ele><time>2022-03-19T11:00:31Z</time><name>PT2707</name></trkpt>
<trkpt lat="53.370087" lon="-1.816381"><ele>250</ele><time>2022-03-19T11:00:31Z</time><name>PT2708</name></trkpt>
<trkpt lat="53.370102" lon="-1.816405"><ele>251</ele><time>2022-03-19T11:00:33Z</time><name>PT2709</name></trkpt>
<trkpt lat="53.370115" lon="-1.816433"><ele>253</ele><time>2022-03-19T11:00:34Z</time><name>PT2710</name></trkpt>
<trkpt lat="53.370125" lon="-1.816460"><ele>254</ele><time>2022-03-19T11:00:34Z</time><name>PT2711</name></trkpt>
<trkpt lat="53.370136" lon="-1.816483"><ele>254</ele><time>2022-03-19T11:00:36Z</time><name>PT2712</name></trkpt>
<trkpt lat="53.370143" lon="-1.816506"><ele>255</ele><time>2022-03-19T11:00:37Z</time><name>PT2713</name></trkpt>
<trkpt lat="53.370150" lon="-1.816525"><ele>255</ele><time>2022-03-19T11:00:37Z</time><name>PT2714</name></trkpt>
<trkpt lat="53.370161" lon="-1.816540"><ele>255</ele><time>2022-03-19T11:00:39Z</time><name>PT2715</name></trkpt>
<trkpt lat="53.370170" lon="-1.816552"><ele>255</ele><time>2022-03-19T11:00:40Z</time><name>PT2716</name></trkpt>
<trkpt lat="53.370182" lon="-1.816566"><ele>255</ele><time>2022-03-19T11:00:40Z</time><name>PT2717</name></trkpt>
<trkpt lat="53.370190" lon="-1.816585"><ele>255</ele><time>2022-03-19T11:00:42Z</time><name>PT2718</name></trkpt>
<trkpt lat="53.370197" lon="-1.816597"><ele>255</ele><time>2022-03-19T11:00:43Z</time><name>PT2719</name></trkpt>
<trkpt lat="53.370204" lon="-1.816612"><ele>254</ele><time>2022-03-19T11:00:43Z</time><name>PT2720</name></trkpt>
<trkpt lat="53.370212" lon="-1.816623"><ele>253</ele><time>2022-03-19T11:00:45Z</time><name>PT2721</name></trkpt>
<trkpt lat="53.370219" lon="-1.816637"><ele>253</ele><time>2022-03-19T11:00:46Z</time><name>PT2722</name></trkpt>
<trkpt lat="53.370229" lon="-1.816649"><ele>252</ele><time>2022-03-19T11:00:46Z</time><name>PT2723</name></trkpt>
<trkpt lat="53.370234" lon="-1.816666"><ele>253</ele><time>2022-03-19T11:00:48Z</time><name>PT2724</name></trkpt>
<trkpt lat="53.370247" lon="-1.816682"><ele>253</ele><time>2022-03-19T11:00:49Z</time><name>PT2725</name></trkpt>
<trkpt lat="53.370257" lon="-1.816703"><ele>252</ele><time>2022-03-19T11:00:49Z</time><name>PT2726</name></trkpt>
<trkpt lat="53.370268" lon="-1.816714"><ele>252</ele><time>2022-03-19T11:00:51Z</time><name>PT2727</name></trkpt>
<trkpt lat="53.370280" lon="-1.816727"><ele>253</ele><time>2022-03-19T11:00:52Z</time><name>PT2728</name></trkpt>
<trkpt lat="53.370291" lon="-1.816742"><ele>253</ele><time>2022-03-19T11:00:52Z</time><name>PT2729</name></trkpt>
<trkpt lat="53.370297" lon="-1.816751"><ele>252</ele><time>2022-03-19T11:00:54Z</time><name>PT2730</name></trkpt>
<trkpt lat="53.370309" lon="-1.816764"><ele>253</ele><time>2022-03-19T11:00:55Z</time><name>PT2731</name></trkpt>
<trkpt lat="53.370321" lon="-1.816777"><ele>253</ele><time>2022-03-19T11:00:55Z</time><name>PT2732</name></trkpt>
<trkpt lat="53.370327" lon="-1.816784"><ele>253</ele><time>2022-03-19T11:00:57Z</time><name>PT2733</name></trkpt>
<trkpt lat="53.370339" lon="-1.816792"><ele>253</ele><time>2022-03-19T11:00:58Z</time><name>PT2734</name></trkpt>
<trkpt lat="53.370350" lon="-1.816803"><ele>253</ele><time>2022-03-19T11:00:58Z</time><name>PT2735</name></trkpt>
<trkpt lat="53.370357" lon="-1.816821"><ele>254</ele><time>2022-03-19T11:01:00Z</time><name>PT2736</name></trkpt>
<trkpt lat="53.370362" lon="-1.816839"><ele>254</ele><time>2022-03-19T11:01:01Z</time><name>PT2737</name></trkpt>
<trkpt lat="53.370370" lon="-1.816855"><ele>255</ele><time>2022-03-19T11:01:01Z</time><name>PT2738</name></trkpt>
<trkpt lat="53.370378" lon="-1.816866"><ele>256</ele><time>2022-03-19T11:01:03Z</time><name>PT2739</name></trkpt>
<trkpt lat="53.370386" lon="-1.816874"><ele>257</ele><time>2022-03-19T11:01:04Z</time><name>PT2740</name></trkpt>
<trkpt lat="53.370394" lon="-1.816879"><ele>257</ele><time>2022-03-19T11:01:04Z</time><name>PT2741</name></trkpt>
<trkpt lat="53.370401" lon="-1.816886"><ele>258</ele><time>2022-03-19T11:01:06Z</time><name>PT2742</name></trkpt>
<trkpt lat="53.370412" lon="-1.816916"><ele>259</ele><time>2022-03-19T11:01:49Z</time><name>PT2743</name></trkpt>
<trkpt lat="53.370398" lon="-1.816968"><ele>259</ele><time>2022-03-19T11:01:52Z</time><name>PT2744</name></trkpt>
<trkpt lat="53.370388" lon="-1.817009"><ele>258</ele><time>2022-03-19T11:01:55Z</time><name>PT2745</name></trkpt>
<trkpt lat="53.370385" lon="-1.817059"><ele>257</ele><time>2022-03-19T11:02:00Z</time><name>PT2746</name></trkpt>
<trkpt lat="53.370392" lon="-1.817093"><ele>257</ele><time>2022-03-19T11:02:03Z</time><name>PT2747</name></trkpt>
<trkpt lat="53.370381" lon="-1.817141"><ele>257</ele><time>2022-03-19T11:02:07Z</time><name>PT2748</name></trkpt>
<trkpt lat="53.370391" lon="-1.817192"><ele>260</ele><time>2022-03-19T11:02:10Z</time><name>PT2749</name></trkpt>
<trkpt lat="53.370377" lon="-1.817246"><ele>258</ele><time>2022-03-19T11:02:13Z</time><name>PT2750</name></trkpt>
<trkpt lat="53.370362" lon="-1.817308"><ele>258</ele><time>2022-03-19T11:02:18Z</time><name>PT2751</name></trkpt>
<trkpt lat="53.370348" lon="-1.817375"><ele>257</ele><time>2022-03-19T11:02:21Z</time><name>PT2752</name></trkpt>
<trkpt lat="53.370338" lon="-1.817426"><ele>257</ele><time>2022-03-19T11:02:24Z</time><name>PT2753</name></trkpt>
<trkpt lat="53.370326" lon="-1.817488"><ele>254</ele><time>2022-03-19T11:02:27Z</time><name>PT2754</name></trkpt>
<trkpt lat="53.370324" lon="-1.817543"><ele>253</ele><time>2022-03-19T11:02:31Z</time><name>PT2755</name></trkpt>
<trkpt lat="53.370319" lon="-1.817605"><ele>255</ele><time>2022-03-19T11:02:34Z</time><name>PT2756</name></trkpt>
<trkpt lat="53.370309" lon="-1.817671"><ele>255</ele><time>2022-03-19T11:02:37Z</time><name>PT2757</name></trkpt>
<trkpt lat="53.370297" lon="-1.817728"><ele>253</ele><time>2022-03-19T11:02:40Z</time><name>PT2758</name></trkpt>
<trkpt lat="53.370313" lon="-1.817761"><ele>254</ele><time>2022-03-19T11:02:43Z</time><name>PT2759</name></trkpt>
<trkpt lat="53.370316" lon="-1.817803"><ele>256</ele><time>2022-03-19T11:02:46Z</time><name>PT2760</name></trkpt>
<trkpt lat="53.370315" lon="-1.817878"><ele>259</ele><time>2022-03-19T11:02:51Z</time><name>PT2761</name></trkpt>
<trkpt lat="53.370319" lon="-1.817922"><ele>260</ele><time>2022-03-19T11:02:54Z</time><name>PT2762</name></trkpt>
<trkpt lat="53.370327" lon="-1.817986"><ele>262</ele><time>2022-03-19T11:02:58Z</time><name>PT2763</name></trkpt>
<trkpt lat="53.370324" lon="-1.818027"><ele>262</ele><time>2022-03-19T11:03:01Z</time><name>PT2764</name></trkpt>
<trkpt lat="53.370322" lon="-1.818109"><ele>263</ele><time>2022-03-19T11:03:04Z</time><name>PT2765</name></trkpt>
<trkpt lat="53.370316" lon="-1.818195"><ele>259</ele><time>2022-03-19T11:03:09Z</time><name>PT2766</name></trkpt>
<trkpt lat="53.370325" lon="-1.818278"><ele>260</ele><time>2022-03-19T11:03:13Z</time><name>PT2767</name></trkpt>
<trkpt lat="53.370314" lon="-1.818370"><ele>260</ele><time>2022-03-19T11:03:16Z</time><name>PT2768</name></trkpt>
<trkpt lat="53.370309" lon="-1.818435"><ele>259</ele><time>2022-03-19T11:03:21Z</time><name>PT2769</name></trkpt>
<trkpt lat="53.370306" lon="-1.818507"><ele>259</ele><time>2022-03-19T11:03:25Z</time><name>PT2770</name></trkpt>
<trkpt lat="53.370307" lon="-1.818575"><ele>260</ele><time>2022-03-19T11:03:28Z</time><name>PT2771</name></trkpt>
<trkpt lat="53.370300" lon="-1.818644"><ele>260</ele><time>2022-03-19T11:03:33Z</time><name>PT2772</name></trkpt>
<trkpt lat="53.370292" lon="-1.818726"><ele>261</ele><time>2022-03-19T11:03:37Z</time><name>PT2773</name></trkpt>
<trkpt lat="53.370286" lon="-1.818782"><ele>258</ele><time>2022-03-19T11:03:40Z</time><name>PT2774</name></trkpt>
<trkpt lat="53.370283" lon="-1.818835"><ele>258</ele><time>2022-03-19T11:03:43Z</time><name>PT2775</name></trkpt>
<trkpt lat="53.370281" lon="-1.818875"><ele>258</ele><time>2022-03-19T11:03:46Z</time><name>PT2776</name></trkpt>
<trkpt lat="53.370293" lon="-1.818920"><ele>258</ele><time>2022-03-19T11:03:49Z</time><name>PT2777</name></trkpt>
<trkpt lat="53.370280" lon="-1.819011"><ele>255</ele><time>2022-03-19T11:03:54Z</time><name>PT2778</name></trkpt>
<trkpt lat="53.370265" lon="-1.819097"><ele>253</ele><time>2022-03-19T11:03:58Z</time><name>PT2779</name></trkpt>
<trkpt lat="53.370258" lon="-1.819148"><ele>252</ele><time>2022-03-19T11:04:01Z</time><name>PT2780</name></trkpt>
<trkpt lat="53.370240" lon="-1.819209"><ele>250</ele><time>2022-03-19T11:04:04Z</time><name>PT2781</name></trkpt>
<trkpt lat="53.370245" lon="-1.819293"><ele>251</ele><time>2022-03-19T11:04:07Z</time><name>PT2782</name></trkpt>
<trkpt lat="53.370242" lon="-1.819367"><ele>253</ele><time>2022-03-19T11:04:12Z</time><name>PT2783</name></trkpt>
<trkpt lat="53.370233" lon="-1.819424"><ele>254</ele><time>2022-03-19T11:04:16Z</time><name>PT2784</name></trkpt>
<trkpt lat="53.370227" lon="-1.819508"><ele>256</ele><time>2022-03-19T11:04:19Z</time><name>PT2785</name></trkpt>
<trkpt lat="53.370221" lon="-1.819597"><ele>257</ele><time>2022-03-19T11:04:24Z</time><name>PT2786</name></trkpt>
<trkpt lat="53.370215" lon="-1.819684"><ele>257</ele><time>2022-03-19T11:04:27Z</time><name>PT2787</name></trkpt>
<trkpt lat="53.370233" lon="-1.819770"><ele>259</ele><time>2022-03-19T11:04:31Z</time><name>PT2788</name></trkpt>
<trkpt lat="53.370236" lon="-1.819832"><ele>260</ele><time>2022-03-19T11:04:34Z</time><name>PT2789</name></trkpt>
<trkpt lat="53.370252" lon="-1.819922"><ele>263</ele><time>2022-03-19T11:04:37Z</time><name>PT2790</name></trkpt>
<trkpt lat="53.370247" lon="-1.819978"><ele>265</ele><time>2022-03-19T11:04:40Z</time><name>PT2791</name></trkpt>
<trkpt lat="53.370241" lon="-1.820060"><ele>266</ele><time>2022-03-19T11:04:45Z</time><name>PT2792</name></trkpt>
<trkpt lat="53.370231" lon="-1.820158"><ele>267</ele><time>2022-03-19T11:04:49Z</time><name>PT2793</name></trkpt>
<trkpt lat="53.370222" lon="-1.820247"><ele>267</ele><time>2022-03-19T11:04:52Z</time><name>PT2794</name></trkpt>
<trkpt lat="53.370210" lon="-1.820307"><ele>268</ele><time>2022-03-19T11:04:55Z</time><name>PT2795</name></trkpt>
<trkpt lat="53.370190" lon="-1.820397"><ele>268</ele><time>2022-03-19T11:05:00Z</time><name>PT2796</name></trkpt>
<trkpt lat="53.370179" lon="-1.820441"><ele>267</ele><time>2022-03-19T11:05:03Z</time><name>PT2797</name></trkpt>
<trkpt lat="53.370159" lon="-1.820514"><ele>265</ele><time>2022-03-19T11:05:06Z</time><name>PT2798</name></trkpt>
<trkpt lat="53.370149" lon="-1.820588"><ele>266</ele><time>2022-03-19T11:05:10Z</time><name>PT2799</name></trkpt>
<trkpt lat="53.370165" lon="-1.820645"><ele>271</ele><time>2022-03-19T11:05:13Z</time><name>PT2800</name></trkpt>
<trkpt lat="53.370173" lon="-1.820717"><ele>272</ele><time>2022-03-19T11:05:16Z</time><name>PT2801</name></trkpt>
<trkpt lat="53.370182" lon="-1.820782"><ele>273</ele><time>2022-03-19T11:05:21Z</time><name>PT2802</name></trkpt>
<trkpt lat="53.370187" lon="-1.820825"><ele>273</ele><time>2022-03-19T11:05:25Z</time><name>PT2803</name></trkpt>
<trkpt lat="53.370185" lon="-1.820867"><ele>274</ele><time>2022-03-19T11:05:28Z</time><name>PT2804</name></trkpt>
<trkpt lat="53.370192" lon="-1.820931"><ele>276</ele><time>2022-03-19T11:05:31Z</time><name>PT2805</name></trkpt>
<trkpt lat="53.370189" lon="-1.820979"><ele>278</ele><time>2022-03-19T11:05:34Z</time><name>PT2806</name></trkpt>
<trkpt lat="53.370190" lon="-1.821018"><ele>278</ele><time>2022-03-19T11:05:37Z</time><name>PT2807</name></trkpt>
<trkpt lat="53.370201" lon="-1.821093"><ele>279</ele><time>2022-03-19T11:05:42Z</time><name>PT2808</name></trkpt>
<trkpt lat="53.370201" lon="-1.821179"><ele>279</ele><time>2022-03-19T11:05:46Z</time><name>PT2809</name></trkpt>
<trkpt lat="53.370187" lon="-1.821229"><ele>280</ele><time>2022-03-19T11:05:49Z</time><name>PT2810</name></trkpt>
<trkpt lat="53.370163" lon="-1.821334"><ele>284</ele><time>2022-03-19T11:05:52Z</time><name>PT2811</name></trkpt>
<trkpt lat="53.370141" lon="-1.821422"><ele>286</ele><time>2022-03-19T11:05:57Z</time><name>PT2812</name></trkpt>
<trkpt lat="53.370142" lon="-1.821517"><ele>285</ele><time>2022-03-19T11:06:01Z</time><name>PT2813</name></trkpt>
<trkpt lat="53.370152" lon="-1.821577"><ele>285</ele><time>2022-03-19T11:06:04Z</time><name>PT2814</name></trkpt>
<trkpt lat="53.370158" lon="-1.821627"><ele>285</ele><time>2022-03-19T11:06:07Z</time><name>PT2815</name></trkpt>
<trkpt lat="53.370172" lon="-1.821694"><ele>286</ele><time>2022-03-19T11:06:12Z</time><name>PT2816</name></trkpt>
<trkpt lat="53.370171" lon="-1.821749"><ele>285</ele><time>2022-03-19T11:06:15Z</time><name>PT2817</name></trkpt>
<trkpt lat="53.370179" lon="-1.821793"><ele>287</ele><time>2022-03-19T11:06:18Z</time><name>PT2818</name></trkpt>
<trkpt lat="53.370163" lon="-1.821821"><ele>288</ele><time>2022-03-19T11:06:21Z</time><name>PT2819</name></trkpt>
<trkpt lat="53.370154" lon="-1.821873"><ele>287</ele><time>2022-03-19T11:06:25Z</time><name>PT2820</name></trkpt>
<trkpt lat="53.370153" lon="-1.821940"><ele>287</ele><time>2022-03-19T11:06:28Z</time><name>PT2821</name></trkpt>
<trkpt lat="53.370141" lon="-1.821986"><ele>287</ele><time>2022-03-19T11:06:31Z</time><name>PT2822</name></trkpt>
<trkpt lat="53.370122" lon="-1.822062"><ele>288</ele><time>2022-03-19T11:06:36Z</time><name>PT2823</name></trkpt>
<trkpt lat="53.370101" lon="-1.822139"><ele>289</ele><time>2022-03-19T11:06:40Z</time><name>PT2824</name></trkpt>
<trkpt lat="53.370094" lon="-1.822185"><ele>290</ele><time>2022-03-19T11:06:43Z</time><name>PT2825</name></trkpt>
<trkpt lat="53.370081" lon="-1.822262"><ele>290</ele><time>2022-03-19T11:06:46Z</time><name>PT2826</name></trkpt>
<trkpt lat="53.370077" lon="-1.822313"><ele>291</ele><time>2022-03-19T11:06:49Z</time><name>PT2827</name></trkpt>
<trkpt lat="53.370065" lon="-1.822395"><ele>293</ele><time>2022-03-19T11:06:54Z</time><name>PT2828</name></trkpt>
<trkpt lat="53.370052" lon="-1.822452"><ele>293</ele><time>2022-03-19T11:06:57Z</time><name>PT2829</name></trkpt>
<trkpt lat="53.370042" lon="-1.822508"><ele>295</ele><time>2022-03-19T11:07:00Z</time><name>PT2830</name></trkpt>
<trkpt lat="53.370019" lon="-1.822575"><ele>296</ele><time>2022-03-19T11:07:04Z</time><name>PT2831</name></trkpt>
<trkpt lat="53.370003" lon="-1.822635"><ele>296</ele><time>2022-03-19T11:07:07Z</time><name>PT2832</name></trkpt>
<trkpt lat="53.369995" lon="-1.822676"><ele>296</ele><time>2022-03-19T11:07:10Z</time><name>PT2833</name></trkpt>
<trkpt lat="53.369987" lon="-1.822741"><ele>297</ele><time>2022-03-19T11:07:15Z</time><name>PT2834</name></trkpt>
<trkpt lat="53.369974" lon="-1.822813"><ele>297</ele><time>2022-03-19T11:07:19Z</time><name>PT2835</name></trkpt>
<trkpt lat="53.369962" lon="-1.822882"><ele>298</ele><time>2022-03-19T11:07:22Z</time><name>PT2836</name></trkpt>
<trkpt lat="53.369950" lon="-1.822954"><ele>298</ele><time>2022-03-19T11:07:27Z</time><name>PT2837</name></trkpt>
<trkpt lat="53.369940" lon="-1.823018"><ele>298</ele><time>2022-03-19T11:07:31Z</time><name>PT2838</name></trkpt>
<trkpt lat="53.369926" lon="-1.823097"><ele>298</ele><time>2022-03-19T11:07:34Z</time><name>PT2839</name></trkpt>
<trkpt lat="53.369911" lon="-1.823179"><ele>299</ele><time>2022-03-19T11:07:39Z</time><name>PT2840</name></trkpt>
<trkpt lat="53.369905" lon="-1.823234"><ele>301</ele><time>2022-03-19T11:07:42Z</time><name>PT2841</name></trkpt>
<trkpt lat="53.369898" lon="-1.823291"><ele>301</ele><time>2022-03-19T11:07:45Z</time><name>PT2842</name></trkpt>
<trkpt lat="53.369887" lon="-1.823354"><ele>303</ele><time>2022-03-19T11:07:48Z</time><name>PT2843</name></trkpt>
<trkpt lat="53.369877" lon="-1.823429"><ele>303</ele><time>2022-03-19T11:07:52Z</time><name>PT2844</name></trkpt>
<trkpt lat="53.369871" lon="-1.823488"><ele>303</ele><time>2022-03-19T11:07:55Z</time><name>PT2845</name></trkpt>
<trkpt lat="53.369852" lon="-1.823554"><ele>304</ele><time>2022-03-19T11:07:58Z</time><name>PT2846</name></trkpt>
<trkpt lat="53.369838" lon="-1.823617"><ele>304</ele><time>2022-03-19T11:08:03Z</time><name>PT2847</name></trkpt>
<trkpt lat="53.369822" lon="-1.823685"><ele>305</ele><time>2022-03-19T11:08:07Z</time><name>PT2848</name></trkpt>
<trkpt lat="53.369804" lon="-1.823736"><ele>305</ele><time>2022-03-19T11:08:10Z</time><name>PT2849</name></trkpt>
<trkpt lat="53.369784" lon="-1.823799"><ele>305</ele><time>2022-03-19T11:08:15Z</time><name>PT2850</name></trkpt>
<trkpt lat="53.369777" lon="-1.823854"><ele>308</ele><time>2022-03-19T11:08:19Z</time><name>PT2851</name></trkpt>
<trkpt lat="53.369769" lon="-1.823907"><ele>307</ele><time>2022-03-19T11:08:22Z</time><name>PT2852</name></trkpt>
<trkpt lat="53.369762" lon="-1.823964"><ele>306</ele><time>2022-03-19T11:08:25Z</time><name>PT2853</name></trkpt>
<trkpt lat="53.369761" lon="-1.824021"><ele>306</ele><time>2022-03-19T11:08:28Z</time><name>PT2854</name></trkpt>
<trkpt lat="53.369758" lon="-1.824084"><ele>306</ele><time>2022-03-19T11:08:31Z</time><name>PT2855</name></trkpt>
<trkpt lat="53.369748" lon="-1.824155"><ele>307</ele><time>2022-03-19T11:08:36Z</time><name>PT2856</name></trkpt>
<trkpt lat="53.369737" lon="-1.824207"><ele>308</ele><time>2022-03-19T11:08:40Z</time><name>PT2857</name></trkpt>
<trkpt lat="53.369720" lon="-1.824239"><ele>308</ele><time>2022-03-19T11:08:43Z</time><name>PT2858</name></trkpt>
<trkpt lat="53.369686" lon="-1.824274"><ele>306</ele><time>2022-03-19T11:08:48Z</time><name>PT2859</name></trkpt>
<trkpt lat="53.369655" lon="-1.824299"><ele>305</ele><time>2022-03-19T11:08:51Z</time><name>PT2860</name></trkpt>
<trkpt lat="53.369628" lon="-1.824333"><ele>306</ele><time>2022-03-19T11:08:54Z</time><name>PT2861</name></trkpt>
<trkpt lat="53.369591" lon="-1.824385"><ele>306</ele><time>2022-03-19T11:08:58Z</time><name>PT2862</name></trkpt>
<trkpt lat="53.369567" lon="-1.824429"><ele>307</ele><time>2022-03-19T11:09:01Z</time><name>PT2863</name></trkpt>
<trkpt lat="53.369541" lon="-1.824477"><ele>308</ele><time>2022-03-19T11:09:04Z</time><name>PT2864</name></trkpt>
<trkpt lat="53.369522" lon="-1.824527"><ele>309</ele><time>2022-03-19T11:09:07Z</time><name>PT2865</name></trkpt>
<trkpt lat="53.369497" lon="-1.824594"><ele>311</ele><time>2022-03-19T11:09:10Z</time><name>PT2866</name></trkpt>
<trkpt lat="53.369464" lon="-1.824665"><ele>311</ele><time>2022-03-19T11:09:15Z</time><name>PT2867</name></trkpt>
<trkpt lat="53.369439" lon="-1.824714"><ele>312</ele><time>2022-03-19T11:09:18Z</time><name>PT2868</name></trkpt>
<trkpt lat="53.369409" lon="-1.824780"><ele>313</ele><time>2022-03-19T11:09:22Z</time><name>PT2869</name></trkpt>
<trkpt lat="53.369386" lon="-1.824831"><ele>314</ele><time>2022-03-19T11:09:25Z</time><name>PT2870</name></trkpt>
<trkpt lat="53.369367" lon="-1.824874"><ele>314</ele><time>2022-03-19T11:09:28Z</time><name>PT2871</name></trkpt>
<trkpt lat="53.369343" lon="-1.824919"><ele>314</ele><time>2022-03-19T11:09:33Z</time><name>PT2872</name></trkpt>
<trkpt lat="53.369316" lon="-1.824970"><ele>314</ele><time>2022-03-19T11:09:37Z</time><name>PT2873</name></trkpt>
<trkpt lat="53.369296" lon="-1.825011"><ele>314</ele><time>2022-03-19T11:09:40Z</time><name>PT2874</name></trkpt>
<trkpt lat="53.369276" lon="-1.825069"><ele>314</ele><time>2022-03-19T11:09:43Z</time><name>PT2875</name></trkpt>
<trkpt lat="53.369260" lon="-1.825102"><ele>315</ele><time>2022-03-19T11:09:45Z</time><name>PT2876</name></trkpt>
<trkpt lat="53.369253" lon="-1.825120"><ele>315</ele><time>2022-03-19T11:09:46Z</time><name>PT2877</name></trkpt>
<trkpt lat="53.369243" lon="-1.825137"><ele>316</ele><time>2022-03-19T11:09:46Z</time><name>PT2878</name></trkpt>
<trkpt lat="53.369236" lon="-1.825156"><ele>316</ele><time>2022-03-19T11:09:48Z</time><name>PT2879</name></trkpt>
<trkpt lat="53.369231" lon="-1.825171"><ele>317</ele><time>2022-03-19T11:09:49Z</time><name>PT2880</name></trkpt>
<trkpt lat="53.369228" lon="-1.825190"><ele>317</ele><time>2022-03-19T11:09:49Z</time><name>PT2881</name></trkpt>
<trkpt lat="53.369224" lon="-1.825203"><ele>317</ele><time>2022-03-19T11:09:51Z</time><name>PT2882</name></trkpt>
<trkpt lat="53.369218" lon="-1.825214"><ele>317</ele><time>2022-03-19T11:09:52Z</time><name>PT2883</name></trkpt>
<trkpt lat="53.369211" lon="-1.825228"><ele>318</ele><time>2022-03-19T11:09:52Z</time><name>PT2884</name></trkpt>
<trkpt lat="53.369204" lon="-1.825241"><ele>318</ele><time>2022-03-19T11:09:54Z</time><name>PT2885</name></trkpt>
<trkpt lat="53.369199" lon="-1.825256"><ele>318</ele><time>2022-03-19T11:09:55Z</time><name>PT2886</name></trkpt>
<trkpt lat="53.369192" lon="-1.825272"><ele>318</ele><time>2022-03-19T11:09:56Z</time><name>PT2887</name></trkpt>
<trkpt lat="53.369188" lon="-1.825288"><ele>317</ele><time>2022-03-19T11:09:57Z</time><name>PT2888</name></trkpt>
<trkpt lat="53.369183" lon="-1.825304"><ele>316</ele><time>2022-03-19T11:09:58Z</time><name>PT2889</name></trkpt>
<trkpt lat="53.369176" lon="-1.825317"><ele>317</ele><time>2022-03-19T11:09:59Z</time><name>PT2890</name></trkpt>
<trkpt lat="53.369168" lon="-1.825333"><ele>317</ele><time>2022-03-19T11:10:00Z</time><name>PT2891</name></trkpt>
<trkpt lat="53.369162" lon="-1.825350"><ele>317</ele><time>2022-03-19T11:10:01Z</time><name>PT2892</name></trkpt>
<trkpt lat="53.369158" lon="-1.825368"><ele>316</ele><time>2022-03-19T11:10:01Z</time><name>PT2893</name></trkpt>
<trkpt lat="53.369152" lon="-1.825384"><ele>316</ele><time>2022-03-19T11:10:03Z</time><name>PT2894</name></trkpt>
<trkpt lat="53.369142" lon="-1.825396"><ele>317</ele><time>2022-03-19T11:10:04Z</time><name>PT2895</name></trkpt>
<trkpt lat="53.369135" lon="-1.825412"><ele>317</ele><time>2022-03-19T11:10:04Z</time><name>PT2896</name></trkpt>
<trkpt lat="53.369129" lon="-1.825429"><ele>317</ele><time>2022-03-19T11:10:06Z</time><name>PT2897</name></trkpt>
<trkpt lat="53.369122" lon="-1.825446"><ele>318</ele><time>2022-03-19T11:10:07Z</time><name>PT2898</name></trkpt>
<trkpt lat="53.369115" lon="-1.825462"><ele>318</ele><time>2022-03-19T11:10:07Z</time><name>PT2899</name></trkpt>
<trkpt lat="53.369105" lon="-1.825475"><ele>318</ele><time>2022-03-19T11:10:09Z</time><name>PT2900</name></trkpt>
<trkpt lat="53.369096" lon="-1.825487"><ele>318</ele><time>2022-03-19T11:10:10Z</time><name>PT2901</name></trkpt>
<trkpt lat="53.369087" lon="-1.825504"><ele>319</ele><time>2022-03-19T11:10:10Z</time><name>PT2902</name></trkpt>
<trkpt lat="53.369082" lon="-1.825521"><ele>319</ele><time>2022-03-19T11:10:12Z</time><name>PT2903</name></trkpt>
<trkpt lat="53.369079" lon="-1.825537"><ele>319</ele><time>2022-03-19T11:10:13Z</time><name>PT2904</name></trkpt>
<trkpt lat="53.369074" lon="-1.825557"><ele>319</ele><time>2022-03-19T11:10:14Z</time><name>PT2905</name></trkpt>
<trkpt lat="53.369068" lon="-1.825572"><ele>319</ele><time>2022-03-19T11:10:15Z</time><name>PT2906</name></trkpt>
<trkpt lat="53.369062" lon="-1.825583"><ele>321</ele><time>2022-03-19T11:10:16Z</time><name>PT2907</name></trkpt>
<trkpt lat="53.369060" lon="-1.825604"><ele>319</ele><time>2022-03-19T11:10:16Z</time><name>PT2908</name></trkpt>
<trkpt lat="53.369057" lon="-1.825617"><ele>320</ele><time>2022-03-19T11:10:18Z</time><name>PT2909</name></trkpt>
<trkpt lat="53.369055" lon="-1.825634"><ele>319</ele><time>2022-03-19T11:10:19Z</time><name>PT2910</name></trkpt>
<trkpt lat="53.369052" lon="-1.825653"><ele>319</ele><time>2022-03-19T11:10:19Z</time><name>PT2911</name></trkpt>
<trkpt lat="53.369047" lon="-1.825670"><ele>319</ele><time>2022-03-19T11:10:21Z</time><name>PT2912</name></trkpt>
<trkpt lat="53.369041" lon="-1.825688"><ele>320</ele><time>2022-03-19T11:10:22Z</time><name>PT2913</name></trkpt>
<trkpt lat="53.369037" lon="-1.825706"><ele>320</ele><time>2022-03-19T11:10:22Z</time><name>PT2914</name></trkpt>
<trkpt lat="53.369035" lon="-1.825725"><ele>320</ele><time>2022-03-19T11:10:24Z</time><name>PT2915</name></trkpt>
<trkpt lat="53.369033" lon="-1.825745"><ele>320</ele><time>2022-03-19T11:10:25Z</time><name>PT2916</name></trkpt>
<trkpt lat="53.369030" lon="-1.825762"><ele>320</ele><time>2022-03-19T11:10:25Z</time><name>PT2917</name></trkpt>
<trkpt lat="53.369024" lon="-1.825779"><ele>320</ele><time>2022-03-19T11:10:27Z</time><name>PT2918</name></trkpt>
<trkpt lat="53.369017" lon="-1.825798"><ele>321</ele><time>2022-03-19T11:10:28Z</time><name>PT2919</name></trkpt>
<trkpt lat="53.369012" lon="-1.825813"><ele>321</ele><time>2022-03-19T11:10:28Z</time><name>PT2920</name></trkpt>
<trkpt lat="53.369008" lon="-1.825834"><ele>320</ele><time>2022-03-19T11:10:30Z</time><name>PT2921</name></trkpt>
<trkpt lat="53.369005" lon="-1.825853"><ele>321</ele><time>2022-03-19T11:10:31Z</time><name>PT2922</name></trkpt>
<trkpt lat="53.369000" lon="-1.825871"><ele>321</ele><time>2022-03-19T11:10:31Z</time><name>PT2923</name></trkpt>
<trkpt lat="53.368992" lon="-1.825884"><ele>322</ele><time>2022-03-19T11:10:33Z</time><name>PT2924</name></trkpt>
<trkpt lat="53.368988" lon="-1.825893"><ele>322</ele><time>2022-03-19T11:10:34Z</time><name>PT2925</name></trkpt>
<trkpt lat="53.368983" lon="-1.825899"><ele>322</ele><time>2022-03-19T11:10:34Z</time><name>PT2926</name></trkpt>
<trkpt lat="53.368978" lon="-1.825903"><ele>322</ele><time>2022-03-19T11:10:36Z</time><name>PT2927</name></trkpt>
<trkpt lat="53.368973" lon="-1.825910"><ele>321</ele><time>2022-03-19T11:10:37Z</time><name>PT2928</name></trkpt>
<trkpt lat="53.368971" lon="-1.825921"><ele>321</ele><time>2022-03-19T11:10:37Z</time><name>PT2929</name></trkpt>
<trkpt lat="53.368969" lon="-1.825938"><ele>321</ele><time>2022-03-19T11:10:39Z</time><name>PT2930</name></trkpt>
<trkpt lat="53.368966" lon="-1.825957"><ele>321</ele><time>2022-03-19T11:10:40Z</time><name>PT2931</name></trkpt>
<trkpt lat="53.368960" lon="-1.825978"><ele>321</ele><time>2022-03-19T11:10:40Z</time><name>PT2932</name></trkpt>
<trkpt lat="53.368952" lon="-1.825995"><ele>321</ele><time>2022-03-19T11:10:42Z</time><name>PT2933</name></trkpt>
<trkpt lat="53.368946" lon="-1.826014"><ele>321</ele><time>2022-03-19T11:10:43Z</time><name>PT2934</name></trkpt>
<trkpt lat="53.368942" lon="-1.826032"><ele>320</ele><time>2022-03-19T11:10:43Z</time><name>PT2935</name></trkpt>
<trkpt lat="53.368939" lon="-1.826048"><ele>320</ele><time>2022-03-19T11:10:45Z</time><name>PT2936</name></trkpt>
<trkpt lat="53.368933" lon="-1.826067"><ele>320</ele><time>2022-03-19T11:10:46Z</time><name>PT2937</name></trkpt>
<trkpt lat="53.368927" lon="-1.826085"><ele>320</ele><time>2022-03-19T11:10:46Z</time><name>PT2938</name></trkpt>
<trkpt lat="53.368920" lon="-1.826104"><ele>319</ele><time>2022-03-19T11:10:48Z</time><name>PT2939</name></trkpt>
<trkpt lat="53.368913" lon="-1.826131"><ele>318</ele><time>2022-03-19T11:10:49Z</time><name>PT2940</name></trkpt>
<trkpt lat="53.368908" lon="-1.826147"><ele>319</ele><time>2022-03-19T11:10:49Z</time><name>PT2941</name></trkpt>
<trkpt lat="53.368904" lon="-1.826168"><ele>319</ele><time>2022-03-19T11:10:51Z</time><name>PT2942</name></trkpt>
<trkpt lat="53.368900" lon="-1.826186"><ele>319</ele><time>2022-03-19T11:10:52Z</time><name>PT2943</name></trkpt>
<trkpt lat="53.368894" lon="-1.826204"><ele>320</ele><time>2022-03-19T11:10:52Z</time><name>PT2944</name></trkpt>
<trkpt lat="53.368888" lon="-1.826224"><ele>320</ele><time>2022-03-19T11:10:54Z</time><name>PT2945</name></trkpt>
<trkpt lat="53.368883" lon="-1.826243"><ele>321</ele><time>2022-03-19T11:10:55Z</time><name>PT2946</name></trkpt>
<trkpt lat="53.368880" lon="-1.826262"><ele>321</ele><time>2022-03-19T11:10:55Z</time><name>PT2947</name></trkpt>
<trkpt lat="53.368878" lon="-1.826284"><ele>321</ele><time>2022-03-19T11:10:57Z</time><name>PT2948</name></trkpt>
<trkpt lat="53.368873" lon="-1.826303"><ele>321</ele><time>2022-03-19T11:10:58Z</time><name>PT2949</name></trkpt>
<trkpt lat="53.368867" lon="-1.826317"><ele>322</ele><time>2022-03-19T11:10:58Z</time><name>PT2950</name></trkpt>
<trkpt lat="53.368860" lon="-1.826333"><ele>322</ele><time>2022-03-19T11:11:00Z</time><name>PT2951</name></trkpt>
<trkpt lat="53.368852" lon="-1.826350"><ele>322</ele><time>2022-03-19T11:11:01Z</time><name>PT2952</name></trkpt>
<trkpt lat="53.368846" lon="-1.826364"><ele>323</ele><time>2022-03-19T11:11:01Z</time><name>PT2953</name></trkpt>
<trkpt lat="53.368839" lon="-1.826383"><ele>324</ele><time>2022-03-19T11:11:03Z</time><name>PT2954</name></trkpt>
<trkpt lat="53.368833" lon="-1.826400"><ele>324</ele><time>2022-03-19T11:11:04Z</time><name>PT2955</name></trkpt>
<trkpt lat="53.368828" lon="-1.826415"><ele>324</ele><time>2022-03-19T11:11:04Z</time><name>PT2956</name></trkpt>
<trkpt lat="53.368823" lon="-1.826435"><ele>324</ele><time>2022-03-19T11:11:06Z</time><name>PT2957</name></trkpt>
<trkpt lat="53.368818" lon="-1.826451"><ele>325</ele><time>2022-03-19T11:11:07Z</time><name>PT2958</name></trkpt>
<trkpt lat="53.368815" lon="-1.826471"><ele>324</ele><time>2022-03-19T11:11:07Z</time><name>PT2959</name></trkpt>
<trkpt lat="53.368813" lon="-1.826486"><ele>324</ele><time>2022-03-19T11:11:09Z</time><name>PT2960</name></trkpt>
<trkpt lat="53.368809" lon="-1.826502"><ele>324</ele><time>2022-03-19T11:11:10Z</time><name>PT2961</name></trkpt>
<trkpt lat="53.368803" lon="-1.826515"><ele>325</ele><time>2022-03-19T11:11:10Z</time><name>PT2962</name></trkpt>
<trkpt lat="53.368799" lon="-1.826533"><ele>324</ele><time>2022-03-19T11:11:12Z</time><name>PT2963</name></trkpt>
<trkpt lat="53.368795" lon="-1.826551"><ele>325</ele><time>2022-03-19T11:11:13Z</time><name>PT2964</name></trkpt>
<trkpt lat="53.368790" lon="-1.826571"><ele>325</ele><time>2022-03-19T11:11:13Z</time><name>PT2965</name></trkpt>
<trkpt lat="53.368786" lon="-1.826591"><ele>325</ele><time>2022-03-19T11:11:15Z</time><name>PT2966</name></trkpt>
<trkpt lat="53.368781" lon="-1.826614"><ele>325</ele><time>2022-03-19T11:11:16Z</time><name>PT2967</name></trkpt>
<trkpt lat="53.368777" lon="-1.826624"><ele>325</ele><time>2022-03-19T11:11:16Z</time><name>PT2968</name></trkpt>
<trkpt lat="53.368775" lon="-1.826638"><ele>325</ele><time>2022-03-19T11:11:18Z</time><name>PT2969</name></trkpt>
<trkpt lat="53.368769" lon="-1.826650"><ele>325</ele><time>2022-03-19T11:11:19Z</time><name>PT2970</name></trkpt>
<trkpt lat="53.368762" lon="-1.826665"><ele>325</ele><time>2022-03-19T11:11:19Z</time><name>PT2971</name></trkpt>
<trkpt lat="53.368757" lon="-1.826681"><ele>325</ele><time>2022-03-19T11:11:21Z</time><name>PT2972</name></trkpt>
<trkpt lat="53.368753" lon="-1.826699"><ele>325</ele><time>2022-03-19T11:11:22Z</time><name>PT2973</name></trkpt>
<trkpt lat="53.368750" lon="-1.826718"><ele>325</ele><time>2022-03-19T11:11:22Z</time><name>PT2974</name></trkpt>
<trkpt lat="53.368746" lon="-1.826733"><ele>325</ele><time>2022-03-19T11:11:24Z</time><name>PT2975</name></trkpt>
<trkpt lat="53.368741" lon="-1.826751"><ele>325</ele><time>2022-03-19T11:11:25Z</time><name>PT2976</name></trkpt>
<trkpt lat="53.368737" lon="-1.826766"><ele>325</ele><time>2022-03-19T11:11:25Z</time><name>PT2977</name></trkpt>
<trkpt lat="53.368734" lon="-1.826783"><ele>325</ele><time>2022-03-19T11:11:27Z</time><name>PT2978</name></trkpt>
<trkpt lat="53.368733" lon="-1.826801"><ele>326</ele><time>2022-03-19T11:11:28Z</time><name>PT2979</name></trkpt>
<trkpt lat="53.368730" lon="-1.826816"><ele>326</ele><time>2022-03-19T11:11:28Z</time><name>PT2980</name></trkpt>
<trkpt lat="53.368727" lon="-1.826839"><ele>325</ele><time>2022-03-19T11:11:30Z</time><name>PT2981</name></trkpt>
<trkpt lat="53.368724" lon="-1.826857"><ele>325</ele><time>2022-03-19T11:11:31Z</time><name>PT2982</name></trkpt>
<trkpt lat="53.368723" lon="-1.826875"><ele>326</ele><time>2022-03-19T11:11:31Z</time><name>PT2983</name></trkpt>
<trkpt lat="53.368722" lon="-1.826894"><ele>326</ele><time>2022-03-19T11:11:33Z</time><name>PT2984</name></trkpt>
<trkpt lat="53.368718" lon="-1.826912"><ele>327</ele><time>2022-03-19T11:11:34Z</time><name>PT2985</name></trkpt>
<trkpt lat="53.368714" lon="-1.826931"><ele>327</ele><time>2022-03-19T11:11:34Z</time><name>PT2986</name></trkpt>
<trkpt lat="53.368709" lon="-1.826950"><ele>326</ele><time>2022-03-19T11:11:36Z</time><name>PT2987</name></trkpt>
<trkpt lat="53.368706" lon="-1.826966"><ele>325</ele><time>2022-03-19T11:11:37Z</time><name>PT2988</name></trkpt>
<trkpt lat="53.368704" lon="-1.826984"><ele>325</ele><time>2022-03-19T11:11:37Z</time><name>PT2989</name></trkpt>
<trkpt lat="53.368702" lon="-1.826999"><ele>325</ele><time>2022-03-19T11:11:39Z</time><name>PT2990</name></trkpt>
<trkpt lat="53.368699" lon="-1.827014"><ele>325</ele><time>2022-03-19T11:11:40Z</time><name>PT2991</name></trkpt>
<trkpt lat="53.368696" lon="-1.827031"><ele>326</ele><time>2022-03-19T11:11:40Z</time><name>PT2992</name></trkpt>
<trkpt lat="53.368693" lon="-1.827049"><ele>326</ele><time>2022-03-19T11:11:42Z</time><name>PT2993</name></trkpt>
<trkpt lat="53.368692" lon="-1.827065"><ele>326</ele><time>2022-03-19T11:11:43Z</time><name>PT2994</name></trkpt>
<trkpt lat="53.368691" lon="-1.827084"><ele>326</ele><time>2022-03-19T11:11:43Z</time><name>PT2995</name></trkpt>
<trkpt lat="53.368685" lon="-1.827137"><ele>326</ele><time>2022-03-19T11:11:46Z</time><name>PT2996</name></trkpt>
<trkpt lat="53.368682" lon="-1.827205"><ele>325</ele><time>2022-03-19T11:11:51Z</time><name>PT2997</name></trkpt>
<trkpt lat="53.368675" lon="-1.827251"><ele>326</ele><time>2022-03-19T11:11:55Z</time><name>PT2998</name></trkpt>
<trkpt lat="53.368676" lon="-1.827284"><ele>326</ele><time>2022-03-19T11:11:58Z</time><name>PT2999</name></trkpt>
<trkpt lat="53.368676" lon="-1.827342"><ele>325</ele><time>2022-03-19T11:12:01Z</time><name>PT3000</name></trkpt>
<trkpt lat="53.368667" lon="-1.827362"><ele>325</ele><time>2022-03-19T11:12:04Z</time><name>PT3001</name></trkpt>
<trkpt lat="53.368644" lon="-1.827407"><ele>325</ele><time>2022-03-19T11:12:09Z</time><name>PT3002</name></trkpt>
<trkpt lat="53.368608" lon="-1.827449"><ele>326</ele><time>2022-03-19T11:12:13Z</time><name>PT3003</name></trkpt>
<trkpt lat="53.368588" lon="-1.827490"><ele>326</ele><time>2022-03-19T11:12:16Z</time><name>PT3004</name></trkpt>
<trkpt lat="53.368569" lon="-1.827545"><ele>326</ele><time>2022-03-19T11:12:19Z</time><name>PT3005</name></trkpt>
<trkpt lat="53.368540" lon="-1.827600"><ele>326</ele><time>2022-03-19T11:12:24Z</time><name>PT3006</name></trkpt>
<trkpt lat="53.368517" lon="-1.827648"><ele>327</ele><time>2022-03-19T11:12:27Z</time><name>PT3007</name></trkpt>
<trkpt lat="53.368487" lon="-1.827697"><ele>328</ele><time>2022-03-19T11:12:31Z</time><name>PT3008</name></trkpt>
<trkpt lat="53.368461" lon="-1.827735"><ele>330</ele><time>2022-03-19T11:12:34Z</time><name>PT3009</name></trkpt>
<trkpt lat="53.368434" lon="-1.827786"><ele>330</ele><time>2022-03-19T11:12:37Z</time><name>PT3010</name></trkpt>
<trkpt lat="53.368413" lon="-1.827832"><ele>331</ele><time>2022-03-19T11:12:40Z</time><name>PT3011</name></trkpt>
<trkpt lat="53.368383" lon="-1.827895"><ele>331</ele><time>2022-03-19T11:12:43Z</time><name>PT3012</name></trkpt>
<trkpt lat="53.368354" lon="-1.827951"><ele>330</ele><time>2022-03-19T11:12:48Z</time><name>PT3013</name></trkpt>
<trkpt lat="53.368332" lon="-1.828002"><ele>330</ele><time>2022-03-19T11:12:51Z</time><name>PT3014</name></trkpt>
<trkpt lat="53.368306" lon="-1.828074"><ele>332</ele><time>2022-03-19T11:12:55Z</time><name>PT3015</name></trkpt>
<trkpt lat="53.368286" lon="-1.828123"><ele>332</ele><time>2022-03-19T11:12:58Z</time><name>PT3016</name></trkpt>
<trkpt lat="53.368268" lon="-1.828168"><ele>332</ele><time>2022-03-19T11:13:01Z</time><name>PT3017</name></trkpt>
<trkpt lat="53.368259" lon="-1.828217"><ele>332</ele><time>2022-03-19T11:13:04Z</time><name>PT3018</name></trkpt>
<trkpt lat="53.368238" lon="-1.828277"><ele>332</ele><time>2022-03-19T11:13:07Z</time><name>PT3019</name></trkpt>
<trkpt lat="53.368219" lon="-1.828330"><ele>334</ele><time>2022-03-19T11:13:10Z</time><name>PT3020</name></trkpt>
<trkpt lat="53.368197" lon="-1.828388"><ele>335</ele><time>2022-03-19T11:13:13Z</time><name>PT3021</name></trkpt>
<trkpt lat="53.368177" lon="-1.828429"><ele>336</ele><time>2022-03-19T11:13:16Z</time><name>PT3022</name></trkpt>
<trkpt lat="53.368149" lon="-1.828466"><ele>336</ele><time>2022-03-19T11:13:21Z</time><name>PT3023</name></trkpt>
<trkpt lat="53.368125" lon="-1.828505"><ele>337</ele><time>2022-03-19T11:13:24Z</time><name>PT3024</name></trkpt>
<trkpt lat="53.368098" lon="-1.828564"><ele>337</ele><time>2022-03-19T11:13:28Z</time><name>PT3025</name></trkpt>
<trkpt lat="53.368062" lon="-1.828610"><ele>338</ele><time>2022-03-19T11:13:31Z</time><name>PT3026</name></trkpt>
<trkpt lat="53.368033" lon="-1.828670"><ele>338</ele><time>2022-03-19T11:13:34Z</time><name>PT3027</name></trkpt>
<trkpt lat="53.368016" lon="-1.828715"><ele>337</ele><time>2022-03-19T11:13:37Z</time><name>PT3028</name></trkpt>
<trkpt lat="53.368007" lon="-1.828762"><ele>336</ele><time>2022-03-19T11:13:40Z</time><name>PT3029</name></trkpt>
<trkpt lat="53.367984" lon="-1.828833"><ele>338</ele><time>2022-03-19T11:13:45Z</time><name>PT3030</name></trkpt>
<trkpt lat="53.367972" lon="-1.828890"><ele>339</ele><time>2022-03-19T11:13:48Z</time><name>PT3031</name></trkpt>
<trkpt lat="53.367948" lon="-1.828959"><ele>341</ele><time>2022-03-19T11:13:52Z</time><name>PT3032</name></trkpt>
<trkpt lat="53.367937" lon="-1.829011"><ele>342</ele><time>2022-03-19T11:13:55Z</time><name>PT3033</name></trkpt>
<trkpt lat="53.367914" lon="-1.829086"><ele>342</ele><time>2022-03-19T11:13:58Z</time><name>PT3034</name></trkpt>
<trkpt lat="53.367898" lon="-1.829145"><ele>342</ele><time>2022-03-19T11:14:03Z</time><name>PT3035</name></trkpt>
<trkpt lat="53.367888" lon="-1.829189"><ele>343</ele><time>2022-03-19T11:14:06Z</time><name>PT3036</name></trkpt>
<trkpt lat="53.367882" lon="-1.829257"><ele>342</ele><time>2022-03-19T11:14:10Z</time><name>PT3037</name></trkpt>
<trkpt lat="53.367870" lon="-1.829307"><ele>343</ele><time>2022-03-19T11:14:13Z</time><name>PT3038</name></trkpt>
<trkpt lat="53.367860" lon="-1.829346"><ele>343</ele><time>2022-03-19T11:14:16Z</time><name>PT3039</name></trkpt>
<trkpt lat="53.367850" lon="-1.829401"><ele>343</ele><time>2022-03-19T11:14:21Z</time><name>PT3040</name></trkpt>
<trkpt lat="53.367836" lon="-1.829462"><ele>344</ele><time>2022-03-19T11:14:25Z</time><name>PT3041</name></trkpt>
<trkpt lat="53.367825" lon="-1.829535"><ele>344</ele><time>2022-03-19T11:14:28Z</time><name>PT3042</name></trkpt>
<trkpt lat="53.367806" lon="-1.829598"><ele>343</ele><time>2022-03-19T11:14:33Z</time><name>PT3043</name></trkpt>
<trkpt lat="53.367793" lon="-1.829661"><ele>343</ele><time>2022-03-19T11:14:37Z</time><name>PT3044</name></trkpt>
<trkpt lat="53.367787" lon="-1.829707"><ele>343</ele><time>2022-03-19T11:14:40Z</time><name>PT3045</name></trkpt>
<trkpt lat="53.367783" lon="-1.829769"><ele>343</ele><time>2022-03-19T11:14:43Z</time><name>PT3046</name></trkpt>
<trkpt lat="53.367773" lon="-1.829833"><ele>343</ele><time>2022-03-19T11:14:48Z</time><name>PT3047</name></trkpt>
<trkpt lat="53.367765" lon="-1.829854"><ele>342</ele><time>2022-03-19T11:14:52Z</time><name>PT3048</name></trkpt>
<trkpt lat="53.367760" lon="-1.829878"><ele>342</ele><time>2022-03-19T11:14:55Z</time><name>PT3049</name></trkpt>
<trkpt lat="53.367757" lon="-1.829894"><ele>342</ele><time>2022-03-19T11:14:58Z</time><name>PT3050</name></trkpt>
<trkpt lat="53.367752" lon="-1.829896"><ele>343</ele><time>2022-03-19T11:15:01Z</time><name>PT3051</name></trkpt>
<trkpt lat="53.367738" lon="-1.829908"><ele>342</ele><time>2022-03-19T11:15:04Z</time><name>PT3052</name></trkpt>
<trkpt lat="53.367729" lon="-1.829918"><ele>343</ele><time>2022-03-19T11:15:09Z</time><name>PT3053</name></trkpt>
<trkpt lat="53.367725" lon="-1.829921"><ele>343</ele><time>2022-03-19T11:15:22Z</time><name>PT3054</name></trkpt>
<trkpt lat="53.367691" lon="-1.829979"><ele>344</ele><time>2022-03-19T11:15:27Z</time><name>PT3055</name></trkpt>
<trkpt lat="53.367669" lon="-1.830046"><ele>344</ele><time>2022-03-19T11:15:31Z</time><name>PT3056</name></trkpt>
<trkpt lat="53.367648" lon="-1.830078"><ele>343</ele><time>2022-03-19T11:15:34Z</time><name>PT3057</name></trkpt>
<trkpt lat="53.367636" lon="-1.830127"><ele>342</ele><time>2022-03-19T11:15:37Z</time><name>PT3058</name></trkpt>
<trkpt lat="53.367621" lon="-1.830195"><ele>342</ele><time>2022-03-19T11:15:40Z</time><name>PT3059</name></trkpt>
<trkpt lat="53.367611" lon="-1.830250"><ele>343</ele><time>2022-03-19T11:15:43Z</time><name>PT3060</name></trkpt>
<trkpt lat="53.367589" lon="-1.830311"><ele>343</ele><time>2022-03-19T11:15:46Z</time><name>PT3061</name></trkpt>
<trkpt lat="53.367581" lon="-1.830357"><ele>343</ele><time>2022-03-19T11:15:50Z</time><name>PT3062</name></trkpt>
<trkpt lat="53.367556" lon="-1.830429"><ele>342</ele><time>2022-03-19T11:15:54Z</time><name>PT3063</name></trkpt>
<trkpt lat="53.367536" lon="-1.830498"><ele>344</ele><time>2022-03-19T11:15:58Z</time><name>PT3064</name></trkpt>
<trkpt lat="53.367508" lon="-1.830553"><ele>346</ele><time>2022-03-19T11:16:01Z</time><name>PT3065</name></trkpt>
<trkpt lat="53.367488" lon="-1.830627"><ele>346</ele><time>2022-03-19T11:16:04Z</time><name>PT3066</name></trkpt>
<trkpt lat="53.367468" lon="-1.830680"><ele>346</ele><time>2022-03-19T11:16:07Z</time><name>PT3067</name></trkpt>
<trkpt lat="53.367451" lon="-1.830741"><ele>348</ele><time>2022-03-19T11:16:10Z</time><name>PT3068</name></trkpt>
<trkpt lat="53.367443" lon="-1.830814"><ele>350</ele><time>2022-03-19T11:16:15Z</time><name>PT3069</name></trkpt>
<trkpt lat="53.367430" lon="-1.830867"><ele>350</ele><time>2022-03-19T11:16:18Z</time><name>PT3070</name></trkpt>
<trkpt lat="53.367414" lon="-1.830929"><ele>351</ele><time>2022-03-19T11:16:21Z</time><name>PT3071</name></trkpt>
<trkpt lat="53.367395" lon="-1.831010"><ele>351</ele><time>2022-03-19T11:16:25Z</time><name>PT3072</name></trkpt>
<trkpt lat="53.367375" lon="-1.831075"><ele>351</ele><time>2022-03-19T11:16:28Z</time><name>PT3073</name></trkpt>
<trkpt lat="53.367355" lon="-1.831156"><ele>351</ele><time>2022-03-19T11:16:31Z</time><name>PT3074</name></trkpt>
<trkpt lat="53.367332" lon="-1.831239"><ele>352</ele><time>2022-03-19T11:16:36Z</time><name>PT3075</name></trkpt>
<trkpt lat="53.367322" lon="-1.831300"><ele>351</ele><time>2022-03-19T11:16:39Z</time><name>PT3076</name></trkpt>
<trkpt lat="53.367303" lon="-1.831362"><ele>351</ele><time>2022-03-19T11:16:42Z</time><name>PT3077</name></trkpt>
<trkpt lat="53.367269" lon="-1.831441"><ele>351</ele><time>2022-03-19T11:16:46Z</time><name>PT3078</name></trkpt>
<trkpt lat="53.367242" lon="-1.831493"><ele>351</ele><time>2022-03-19T11:16:49Z</time><name>PT3079</name></trkpt>
<trkpt lat="53.367213" lon="-1.831542"><ele>352</ele><time>2022-03-19T11:16:52Z</time><name>PT3080</name></trkpt>
<trkpt lat="53.367188" lon="-1.831608"><ele>352</ele><time>2022-03-19T11:16:55Z</time><name>PT3081</name></trkpt>
<trkpt lat="53.367167" lon="-1.831684"><ele>351</ele><time>2022-03-19T11:17:00Z</time><name>PT3082</name></trkpt>
<trkpt lat="53.367144" lon="-1.831747"><ele>351</ele><time>2022-03-19T11:17:03Z</time><name>PT3083</name></trkpt>
<trkpt lat="53.367120" lon="-1.831819"><ele>350</ele><time>2022-03-19T11:17:07Z</time><name>PT3084</name></trkpt>
<trkpt lat="53.367104" lon="-1.831881"><ele>350</ele><time>2022-03-19T11:17:10Z</time><name>PT3085</name></trkpt>
<trkpt lat="53.367095" lon="-1.831944"><ele>350</ele><time>2022-03-19T11:17:13Z</time><name>PT3086</name></trkpt>
<trkpt lat="53.367081" lon="-1.832011"><ele>350</ele><time>2022-03-19T11:17:16Z</time><name>PT3087</name></trkpt>
<trkpt lat="53.367065" lon="-1.832089"><ele>349</ele><time>2022-03-19T11:17:19Z</time><name>PT3088</name></trkpt>
<trkpt lat="53.367043" lon="-1.832167"><ele>350</ele><time>2022-03-19T11:17:24Z</time><name>PT3089</name></trkpt>
<trkpt lat="53.367028" lon="-1.832228"><ele>350</ele><time>2022-03-19T11:17:27Z</time><name>PT3090</name></trkpt>
<trkpt lat="53.367005" lon="-1.832287"><ele>353</ele><time>2022-03-19T11:17:30Z</time><name>PT3091</name></trkpt>
<trkpt lat="53.366978" lon="-1.832381"><ele>355</ele><time>2022-03-19T11:17:34Z</time><name>PT3092</name></trkpt>
<trkpt lat="53.366951" lon="-1.832461"><ele>353</ele><time>2022-03-19T11:17:37Z</time><name>PT3093</name></trkpt>
<trkpt lat="53.366944" lon="-1.832481"><ele>352</ele><time>2022-03-19T11:17:39Z</time><name>PT3094</name></trkpt>
<trkpt lat="53.366939" lon="-1.832496"><ele>352</ele><time>2022-03-19T11:17:40Z</time><name>PT3095</name></trkpt>
<trkpt lat="53.366935" lon="-1.832510"><ele>352</ele><time>2022-03-19T11:17:40Z</time><name>PT3096</name></trkpt>
<trkpt lat="53.366931" lon="-1.832528"><ele>352</ele><time>2022-03-19T11:17:42Z</time><name>PT3097</name></trkpt>
<trkpt lat="53.366926" lon="-1.832546"><ele>352</ele><time>2022-03-19T11:17:43Z</time><name>PT3098</name></trkpt>
<trkpt lat="53.366918" lon="-1.832576"><ele>351</ele><time>2022-03-19T11:17:43Z</time><name>PT3099</name></trkpt>
<trkpt lat="53.366910" lon="-1.832599"><ele>351</ele><time>2022-03-19T11:17:45Z</time><name>PT3100</name></trkpt>
<trkpt lat="53.366903" lon="-1.832618"><ele>351</ele><time>2022-03-19T11:17:46Z</time><name>PT3101</name></trkpt>
<trkpt lat="53.366896" lon="-1.832638"><ele>351</ele><time>2022-03-19T11:17:46Z</time><name>PT3102</name></trkpt>
<trkpt lat="53.366890" lon="-1.832660"><ele>350</ele><time>2022-03-19T11:17:48Z</time><name>PT3103</name></trkpt>
<trkpt lat="53.366886" lon="-1.832680"><ele>350</ele><time>2022-03-19T11:17:49Z</time><name>PT3104</name></trkpt>
<trkpt lat="53.366882" lon="-1.832701"><ele>350</ele><time>2022-03-19T11:17:49Z</time><name>PT3105</name></trkpt>
<trkpt lat="53.366879" lon="-1.832719"><ele>350</ele><time>2022-03-19T11:17:51Z</time><name>PT3106</name></trkpt>
<trkpt lat="53.366871" lon="-1.832744"><ele>349</ele><time>2022-03-19T11:17:52Z</time><name>PT3107</name></trkpt>
<trkpt lat="53.366866" lon="-1.832766"><ele>349</ele><time>2022-03-19T11:17:52Z</time><name>PT3108</name></trkpt>
<trkpt lat="53.366860" lon="-1.832789"><ele>349</ele><time>2022-03-19T11:17:54Z</time><name>PT3109</name></trkpt>
<trkpt lat="53.366858" lon="-1.832804"><ele>350</ele><time>2022-03-19T11:17:55Z</time><name>PT3110</name></trkpt>
<trkpt lat="53.366856" lon="-1.832826"><ele>350</ele><time>2022-03-19T11:17:55Z</time><name>PT3111</name></trkpt>
<trkpt lat="53.366854" lon="-1.832842"><ele>350</ele><time>2022-03-19T11:17:57Z</time><name>PT3112</name></trkpt>
<trkpt lat="53.366854" lon="-1.832864"><ele>349</ele><time>2022-03-19T11:17:58Z</time><name>PT3113</name></trkpt>
<trkpt lat="53.366855" lon="-1.832879"><ele>347</ele><time>2022-03-19T11:17:58Z</time><name>PT3114</name></trkpt>
<trkpt lat="53.366848" lon="-1.832900"><ele>348</ele><time>2022-03-19T11:18:00Z</time><name>PT3115</name></trkpt>
<trkpt lat="53.366839" lon="-1.832924"><ele>348</ele><time>2022-03-19T11:18:01Z</time><name>PT3116</name></trkpt>
<trkpt lat="53.366834" lon="-1.832943"><ele>348</ele><time>2022-03-19T11:18:01Z</time><name>PT3117</name></trkpt>
<trkpt lat="53.366832" lon="-1.832961"><ele>348</ele><time>2022-03-19T11:18:03Z</time><name>PT3118</name></trkpt>
<trkpt lat="53.366830" lon="-1.832981"><ele>348</ele><time>2022-03-19T11:18:04Z</time><name>PT3119</name></trkpt>
<trkpt lat="53.366829" lon="-1.833003"><ele>347</ele><time>2022-03-19T11:18:04Z</time><name>PT3120</name></trkpt>
<trkpt lat="53.366826" lon="-1.833022"><ele>347</ele><time>2022-03-19T11:18:06Z</time><name>PT3121</name></trkpt>
<trkpt lat="53.366824" lon="-1.833040"><ele>347</ele><time>2022-03-19T11:18:07Z</time><name>PT3122</name></trkpt>
<trkpt lat="53.366817" lon="-1.833061"><ele>347</ele><time>2022-03-19T11:18:07Z</time><name>PT3123</name></trkpt>
<trkpt lat="53.366810" lon="-1.833085"><ele>347</ele><time>2022-03-19T11:18:09Z</time><name>PT3124</name></trkpt>
<trkpt lat="53.366806" lon="-1.833108"><ele>347</ele><time>2022-03-19T11:18:10Z</time><name>PT3125</name></trkpt>
<trkpt lat="53.366802" lon="-1.833127"><ele>347</ele><time>2022-03-19T11:18:10Z</time><name>PT3126</name></trkpt>
<trkpt lat="53.366800" lon="-1.833148"><ele>347</ele><time>2022-03-19T11:18:12Z</time><name>PT3127</name></trkpt>
<trkpt lat="53.366798" lon="-1.833172"><ele>347</ele><time>2022-03-19T11:18:13Z</time><name>PT3128</name></trkpt>
<trkpt lat="53.366795" lon="-1.833194"><ele>347</ele><time>2022-03-19T11:18:13Z</time><name>PT3129</name></trkpt>
<trkpt lat="53.366794" lon="-1.833212"><ele>347</ele><time>2022-03-19T11:18:15Z</time><name>PT3130</name></trkpt>
<trkpt lat="53.366788" lon="-1.833230"><ele>348</ele><time>2022-03-19T11:18:16Z</time><name>PT3131</name></trkpt>
<trkpt lat="53.366785" lon="-1.833255"><ele>348</ele><time>2022-03-19T11:18:16Z</time><name>PT3132</name></trkpt>
<trkpt lat="53.366783" lon="-1.833276"><ele>348</ele><time>2022-03-19T11:18:18Z</time><name>PT3133</name></trkpt>
<trkpt lat="53.366781" lon="-1.833296"><ele>348</ele><time>2022-03-19T11:18:19Z</time><name>PT3134</name></trkpt>
<trkpt lat="53.366783" lon="-1.833314"><ele>347</ele><time>2022-03-19T11:18:19Z</time><name>PT3135</name></trkpt>
<trkpt lat="53.366785" lon="-1.833335"><ele>348</ele><time>2022-03-19T11:18:21Z</time><name>PT3136</name></trkpt>
<trkpt lat="53.366786" lon="-1.833355"><ele>347</ele><time>2022-03-19T11:18:22Z</time><name>PT3137</name></trkpt>
<trkpt lat="53.366786" lon="-1.833374"><ele>347</ele><time>2022-03-19T11:18:22Z</time><name>PT3138</name></trkpt>
<trkpt lat="53.366786" lon="-1.833399"><ele>347</ele><time>2022-03-19T11:18:24Z</time><name>PT3139</name></trkpt>
<trkpt lat="53.366781" lon="-1.833427"><ele>347</ele><time>2022-03-19T11:18:25Z</time><name>PT3140</name></trkpt>
<trkpt lat="53.366779" lon="-1.833446"><ele>347</ele><time>2022-03-19T11:18:25Z</time><name>PT3141</name></trkpt>
<trkpt lat="53.366779" lon="-1.833460"><ele>347</ele><time>2022-03-19T11:18:27Z</time><name>PT3142</name></trkpt>
<trkpt lat="53.366782" lon="-1.833475"><ele>347</ele><time>2022-03-19T11:18:28Z</time><name>PT3143</name></trkpt>
<trkpt lat="53.366783" lon="-1.833492"><ele>346</ele><time>2022-03-19T11:18:28Z</time><name>PT3144</name></trkpt>
<trkpt lat="53.366783" lon="-1.833510"><ele>346</ele><time>2022-03-19T11:18:30Z</time><name>PT3145</name></trkpt>
<trkpt lat="53.366781" lon="-1.833535"><ele>347</ele><time>2022-03-19T11:18:31Z</time><name>PT3146</name></trkpt>
<trkpt lat="53.366780" lon="-1.833555"><ele>347</ele><time>2022-03-19T11:18:31Z</time><name>PT3147</name></trkpt>
<trkpt lat="53.366780" lon="-1.833572"><ele>347</ele><time>2022-03-19T11:18:33Z</time><name>PT3148</name></trkpt>
<trkpt lat="53.366780" lon="-1.833586"><ele>347</ele><time>2022-03-19T11:18:34Z</time><name>PT3149</name></trkpt>
<trkpt lat="53.366782" lon="-1.833602"><ele>347</ele><time>2022-03-19T11:18:34Z</time><name>PT3150</name></trkpt>
<trkpt lat="53.366784" lon="-1.833618"><ele>348</ele><time>2022-03-19T11:18:36Z</time><name>PT3151</name></trkpt>
<trkpt lat="53.366786" lon="-1.833633"><ele>348</ele><time>2022-03-19T11:18:37Z</time><name>PT3152</name></trkpt>
<trkpt lat="53.366786" lon="-1.833654"><ele>346</ele><time>2022-03-19T11:18:37Z</time><name>PT3153</name></trkpt>
<trkpt lat="53.366788" lon="-1.833669"><ele>346</ele><time>2022-03-19T11:18:39Z</time><name>PT3154</name></trkpt>
<trkpt lat="53.366788" lon="-1.833679"><ele>346</ele><time>2022-03-19T11:18:40Z</time><name>PT3155</name></trkpt>
<trkpt lat="53.366786" lon="-1.833686"><ele>346</ele><time>2022-03-19T11:18:40Z</time><name>PT3156</name></trkpt>
<trkpt lat="53.366787" lon="-1.833692"><ele>346</ele><time>2022-03-19T11:18:42Z</time><name>PT3157</name></trkpt>
<trkpt lat="53.366788" lon="-1.833698"><ele>346</ele><time>2022-03-19T11:18:43Z</time><name>PT3158</name></trkpt>
<trkpt lat="53.366788" lon="-1.833723"><ele>347</ele><time>2022-03-19T11:18:46Z</time><name>PT3159</name></trkpt>
<trkpt lat="53.366785" lon="-1.833748"><ele>347</ele><time>2022-03-19T11:18:46Z</time><name>PT3160</name></trkpt>
<trkpt lat="53.366776" lon="-1.833769"><ele>347</ele><time>2022-03-19T11:18:48Z</time><name>PT3161</name></trkpt>
<trkpt lat="53.366771" lon="-1.833790"><ele>347</ele><time>2022-03-19T11:18:49Z</time><name>PT3162</name></trkpt>
<trkpt lat="53.366765" lon="-1.833804"><ele>346</ele><time>2022-03-19T11:18:49Z</time><name>PT3163</name></trkpt>
<trkpt lat="53.366762" lon="-1.833819"><ele>346</ele><time>2022-03-19T11:18:51Z</time><name>PT3164</name></trkpt>
<trkpt lat="53.366758" lon="-1.833832"><ele>347</ele><time>2022-03-19T11:18:52Z</time><name>PT3165</name></trkpt>
<trkpt lat="53.366750" lon="-1.833857"><ele>347</ele><time>2022-03-19T11:18:52Z</time><name>PT3166</name></trkpt>
<trkpt lat="53.366743" lon="-1.833876"><ele>347</ele><time>2022-03-19T11:18:54Z</time><name>PT3167</name></trkpt>
<trkpt lat="53.366740" lon="-1.833893"><ele>347</ele><time>2022-03-19T11:18:55Z</time><name>PT3168</name></trkpt>
<trkpt lat="53.366735" lon="-1.833912"><ele>347</ele><time>2022-03-19T11:18:55Z</time><name>PT3169</name></trkpt>
<trkpt lat="53.366735" lon="-1.833924"><ele>347</ele><time>2022-03-19T11:18:57Z</time><name>PT3170</name></trkpt>
<trkpt lat="53.366737" lon="-1.833941"><ele>347</ele><time>2022-03-19T11:18:58Z</time><name>PT3171</name></trkpt>
<trkpt lat="53.366736" lon="-1.833965"><ele>347</ele><time>2022-03-19T11:18:58Z</time><name>PT3172</name></trkpt>
<trkpt lat="53.366736" lon="-1.833983"><ele>347</ele><time>2022-03-19T11:19:00Z</time><name>PT3173</name></trkpt>
<trkpt lat="53.366737" lon="-1.833997"><ele>347</ele><time>2022-03-19T11:19:01Z</time><name>PT3174</name></trkpt>
<trkpt lat="53.366740" lon="-1.834011"><ele>347</ele><time>2022-03-19T11:19:01Z</time><name>PT3175</name></trkpt>
<trkpt lat="53.366743" lon="-1.834031"><ele>346</ele><time>2022-03-19T11:19:03Z</time><name>PT3176</name></trkpt>
<trkpt lat="53.366744" lon="-1.834053"><ele>346</ele><time>2022-03-19T11:19:04Z</time><name>PT3177</name></trkpt>
<trkpt lat="53.366742" lon="-1.834074"><ele>346</ele><time>2022-03-19T11:19:04Z</time><name>PT3178</name></trkpt>
<trkpt lat="53.366738" lon="-1.834091"><ele>346</ele><time>2022-03-19T11:19:06Z</time><name>PT3179</name></trkpt>
<trkpt lat="53.366735" lon="-1.834105"><ele>346</ele><time>2022-03-19T11:19:07Z</time><name>PT3180</name></trkpt>
<trkpt lat="53.366731" lon="-1.834122"><ele>346</ele><time>2022-03-19T11:19:07Z</time><name>PT3181</name></trkpt>
<trkpt lat="53.366727" lon="-1.834141"><ele>347</ele><time>2022-03-19T11:19:09Z</time><name>PT3182</name></trkpt>
<trkpt lat="53.366722" lon="-1.834162"><ele>348</ele><time>2022-03-19T11:19:10Z</time><name>PT3183</name></trkpt>
<trkpt lat="53.366719" lon="-1.834182"><ele>348</ele><time>2022-03-19T11:19:10Z</time><name>PT3184</name></trkpt>
<trkpt lat="53.366719" lon="-1.834197"><ele>349</ele><time>2022-03-19T11:19:12Z</time><name>PT3185</name></trkpt>
<trkpt lat="53.366715" lon="-1.834216"><ele>349</ele><time>2022-03-19T11:19:13Z</time><name>PT3186</name></trkpt>
<trkpt lat="53.366709" lon="-1.834235"><ele>349</ele><time>2022-03-19T11:19:13Z</time><name>PT3187</name></trkpt>
<trkpt lat="53.366702" lon="-1.834254"><ele>349</ele><time>2022-03-19T11:19:15Z</time><name>PT3188</name></trkpt>
<trkpt lat="53.366697" lon="-1.834272"><ele>349</ele><time>2022-03-19T11:19:16Z</time><name>PT3189</name></trkpt>
<trkpt lat="53.366693" lon="-1.834290"><ele>349</ele><time>2022-03-19T11:19:16Z</time><name>PT3190</name></trkpt>
<trkpt lat="53.366688" lon="-1.834306"><ele>349</ele><time>2022-03-19T11:19:18Z</time><name>PT3191</name></trkpt>
<trkpt lat="53.366682" lon="-1.834321"><ele>349</ele><time>2022-03-19T11:19:19Z</time><name>PT3192</name></trkpt>
<trkpt lat="53.366677" lon="-1.834337"><ele>349</ele><time>2022-03-19T11:19:19Z</time><name>PT3193</name></trkpt>
<trkpt lat="53.366672" lon="-1.834354"><ele>349</ele><time>2022-03-19T11:19:21Z</time><name>PT3194</name></trkpt>
<trkpt lat="53.366669" lon="-1.834375"><ele>349</ele><time>2022-03-19T11:19:22Z</time><name>PT3195</name></trkpt>
<trkpt lat="53.366668" lon="-1.834390"><ele>349</ele><time>2022-03-19T11:19:22Z</time><name>PT3196</name></trkpt>
<trkpt lat="53.366664" lon="-1.834404"><ele>350</ele><time>2022-03-19T11:19:24Z</time><name>PT3197</name></trkpt>
<trkpt lat="53.366660" lon="-1.834416"><ele>350</ele><time>2022-03-19T11:19:25Z</time><name>PT3198</name></trkpt>
<trkpt lat="53.366657" lon="-1.834430"><ele>351</ele><time>2022-03-19T11:19:25Z</time><name>PT3199</name></trkpt>
<trkpt lat="53.366654" lon="-1.834448"><ele>351</ele><time>2022-03-19T11:19:27Z</time><name>PT3200</name></trkpt>
<trkpt lat="53.366651" lon="-1.834465"><ele>351</ele><time>2022-03-19T11:19:28Z</time><name>PT3201</name></trkpt>
<trkpt lat="53.366649" lon="-1.834483"><ele>352</ele><time>2022-03-19T11:19:28Z</time><name>PT3202</name></trkpt>
<trkpt lat="53.366644" lon="-1.834502"><ele>352</ele><time>2022-03-19T11:19:30Z</time><name>PT3203</name></trkpt>
<trkpt lat="53.366642" lon="-1.834516"><ele>352</ele><time>2022-03-19T11:19:31Z</time><name>PT3204</name></trkpt>
<trkpt lat="53.366643" lon="-1.834529"><ele>352</ele><time>2022-03-19T11:19:31Z</time><name>PT3205</name></trkpt>
<trkpt lat="53.366644" lon="-1.834545"><ele>353</ele><time>2022-03-19T11:19:33Z</time><name>PT3206</name></trkpt>
<trkpt lat="53.366643" lon="-1.834565"><ele>353</ele><time>2022-03-19T11:19:34Z</time><name>PT3207</name></trkpt>
<trkpt lat="53.366643" lon="-1.834582"><ele>353</ele><time>2022-03-19T11:19:34Z</time><name>PT3208</name></trkpt>
<trkpt lat="53.366644" lon="-1.834600"><ele>354</ele><time>2022-03-19T11:19:36Z</time><name>PT3209</name></trkpt>
<trkpt lat="53.366644" lon="-1.834619"><ele>354</ele><time>2022-03-19T11:19:37Z</time><name>PT3210</name></trkpt>
<trkpt lat="53.366645" lon="-1.834637"><ele>354</ele><time>2022-03-19T11:19:37Z</time><name>PT3211</name></trkpt>
<trkpt lat="53.366646" lon="-1.834656"><ele>355</ele><time>2022-03-19T11:19:39Z</time><name>PT3212</name></trkpt>
<trkpt lat="53.366648" lon="-1.834673"><ele>355</ele><time>2022-03-19T11:19:40Z</time><name>PT3213</name></trkpt>
<trkpt lat="53.366651" lon="-1.834689"><ele>354</ele><time>2022-03-19T11:19:40Z</time><name>PT3214</name></trkpt>
<trkpt lat="53.366651" lon="-1.834749"><ele>355</ele><time>2022-03-19T11:19:43Z</time><name>PT3215</name></trkpt>
<trkpt lat="53.366645" lon="-1.834817"><ele>356</ele><time>2022-03-19T11:19:48Z</time><name>PT3216</name></trkpt>
<trkpt lat="53.366639" lon="-1.834892"><ele>357</ele><time>2022-03-19T11:19:52Z</time><name>PT3217</name></trkpt>
<trkpt lat="53.366635" lon="-1.834968"><ele>357</ele><time>2022-03-19T11:19:55Z</time><name>PT3218</name></trkpt>
<trkpt lat="53.366634" lon="-1.835029"><ele>358</ele><time>2022-03-19T11:19:58Z</time><name>PT3219</name></trkpt>
<trkpt lat="53.366623" lon="-1.835107"><ele>358</ele><time>2022-03-19T11:20:03Z</time><name>PT3220</name></trkpt>
<trkpt lat="53.366622" lon="-1.835129"><ele>358</ele><time>2022-03-19T11:20:04Z</time><name>PT3221</name></trkpt>
<trkpt lat="53.366618" lon="-1.835152"><ele>358</ele><time>2022-03-19T11:20:04Z</time><name>PT3222</name></trkpt>
<trkpt lat="53.366616" lon="-1.835171"><ele>358</ele><time>2022-03-19T11:20:06Z</time><name>PT3223</name></trkpt>
<trkpt lat="53.366614" lon="-1.835194"><ele>357</ele><time>2022-03-19T11:20:07Z</time><name>PT3224</name></trkpt>
<trkpt lat="53.366611" lon="-1.835219"><ele>357</ele><time>2022-03-19T11:20:07Z</time><name>PT3225</name></trkpt>
<trkpt lat="53.366610" lon="-1.835244"><ele>358</ele><time>2022-03-19T11:20:09Z</time><name>PT3226</name></trkpt>
<trkpt lat="53.366614" lon="-1.835264"><ele>358</ele><time>2022-03-19T11:20:10Z</time><name>PT3227</name></trkpt>
<trkpt lat="53.366617" lon="-1.835284"><ele>357</ele><time>2022-03-19T11:20:10Z</time><name>PT3228</name></trkpt>
<trkpt lat="53.366618" lon="-1.835305"><ele>358</ele><time>2022-03-19T11:20:12Z</time><name>PT3229</name></trkpt>
<trkpt lat="53.366621" lon="-1.835330"><ele>358</ele><time>2022-03-19T11:20:13Z</time><name>PT3230</name></trkpt>
<trkpt lat="53.366621" lon="-1.835349"><ele>358</ele><time>2022-03-19T11:20:13Z</time><name>PT3231</name></trkpt>
<trkpt lat="53.366622" lon="-1.835370"><ele>359</ele><time>2022-03-19T11:20:15Z</time><name>PT3232</name></trkpt>
<trkpt lat="53.366621" lon="-1.835394"><ele>358</ele><time>2022-03-19T11:20:16Z</time><name>PT3233</name></trkpt>
<trkpt lat="53.366622" lon="-1.835413"><ele>358</ele><time>2022-03-19T11:20:16Z</time><name>PT3234</name></trkpt>
<trkpt lat="53.366623" lon="-1.835431"><ele>358</ele><time>2022-03-19T11:20:18Z</time><name>PT3235</name></trkpt>
<trkpt lat="53.366624" lon="-1.835453"><ele>358</ele><time>2022-03-19T11:20:19Z</time><name>PT3236</name></trkpt>
<trkpt lat="53.366623" lon="-1.835475"><ele>358</ele><time>2022-03-19T11:20:19Z</time><name>PT3237</name></trkpt>
<trkpt lat="53.366622" lon="-1.835496"><ele>358</ele><time>2022-03-19T11:20:21Z</time><name>PT3238</name></trkpt>
<trkpt lat="53.366619" lon="-1.835518"><ele>358</ele><time>2022-03-19T11:20:22Z</time><name>PT3239</name></trkpt>
<trkpt lat="53.366616" lon="-1.835540"><ele>358</ele><time>2022-03-19T11:20:22Z</time><name>PT3240</name></trkpt>
<trkpt lat="53.366614" lon="-1.835563"><ele>359</ele><time>2022-03-19T11:20:24Z</time><name>PT3241</name></trkpt>
<trkpt lat="53.366614" lon="-1.835582"><ele>358</ele><time>2022-03-19T11:20:25Z</time><name>PT3242</name></trkpt>
<trkpt lat="53.366615" lon="-1.835603"><ele>358</ele><time>2022-03-19T11:20:25Z</time><name>PT3243</name></trkpt>
<trkpt lat="53.366615" lon="-1.835622"><ele>359</ele><time>2022-03-19T11:20:27Z</time><name>PT3244</name></trkpt>
<trkpt lat="53.366614" lon="-1.835644"><ele>359</ele><time>2022-03-19T11:20:28Z</time><name>PT3245</name></trkpt>
<trkpt lat="53.366612" lon="-1.835667"><ele>359</ele><time>2022-03-19T11:20:28Z</time><name>PT3246</name></trkpt>
<trkpt lat="53.366612" lon="-1.835692"><ele>359</ele><time>2022-03-19T11:20:30Z</time><name>PT3247</name></trkpt>
<trkpt lat="53.366611" lon="-1.835712"><ele>359</ele><time>2022-03-19T11:20:31Z</time><name>PT3248</name></trkpt>
<trkpt lat="53.366609" lon="-1.835730"><ele>359</ele><time>2022-03-19T11:20:31Z</time><name>PT3249</name></trkpt>
<trkpt lat="53.366609" lon="-1.835748"><ele>359</ele><time>2022-03-19T11:20:33Z</time><name>PT3250</name></trkpt>
<trkpt lat="53.366608" lon="-1.835768"><ele>359</ele><time>2022-03-19T11:20:34Z</time><name>PT3251</name></trkpt>
<trkpt lat="53.366603" lon="-1.835787"><ele>358</ele><time>2022-03-19T11:20:34Z</time><name>PT3252</name></trkpt>
<trkpt lat="53.366597" lon="-1.835808"><ele>358</ele><time>2022-03-19T11:20:36Z</time><name>PT3253</name></trkpt>
<trkpt lat="53.366593" lon="-1.835826"><ele>359</ele><time>2022-03-19T11:20:37Z</time><name>PT3254</name></trkpt>
<trkpt lat="53.366591" lon="-1.835849"><ele>359</ele><time>2022-03-19T11:20:37Z</time><name>PT3255</name></trkpt>
<trkpt lat="53.366589" lon="-1.835870"><ele>359</ele><time>2022-03-19T11:20:39Z</time><name>PT3256</name></trkpt>
<trkpt lat="53.366593" lon="-1.835887"><ele>359</ele><time>2022-03-19T11:20:40Z</time><name>PT3257</name></trkpt>
<trkpt lat="53.366599" lon="-1.835905"><ele>358</ele><time>2022-03-19T11:20:40Z</time><name>PT3258</name></trkpt>
<trkpt lat="53.366606" lon="-1.835923"><ele>358</ele><time>2022-03-19T11:20:42Z</time><name>PT3259</name></trkpt>
<trkpt lat="53.366611" lon="-1.835946"><ele>358</ele><time>2022-03-19T11:20:43Z</time><name>PT3260</name></trkpt>
<trkpt lat="53.366613" lon="-1.835967"><ele>358</ele><time>2022-03-19T11:20:43Z</time><name>PT3261</name></trkpt>
<trkpt lat="53.366615" lon="-1.835993"><ele>359</ele><time>2022-03-19T11:20:45Z</time><name>PT3262</name></trkpt>
<trkpt lat="53.366615" lon="-1.836012"><ele>358</ele><time>2022-03-19T11:20:46Z</time><name>PT3263</name></trkpt>
<trkpt lat="53.366618" lon="-1.836021"><ele>358</ele><time>2022-03-19T11:20:46Z</time><name>PT3264</name></trkpt>
<trkpt lat="53.366617" lon="-1.836028"><ele>358</ele><time>2022-03-19T11:20:48Z</time><name>PT3265</name></trkpt>
<trkpt lat="53.366616" lon="-1.836036"><ele>358</ele><time>2022-03-19T11:20:49Z</time><name>PT3266</name></trkpt>
<trkpt lat="53.366615" lon="-1.836044"><ele>359</ele><time>2022-03-19T11:20:49Z</time><name>PT3267</name></trkpt>
<trkpt lat="53.366611" lon="-1.836061"><ele>358</ele><time>2022-03-19T11:20:51Z</time><name>PT3268</name></trkpt>
<trkpt lat="53.366606" lon="-1.836079"><ele>358</ele><time>2022-03-19T11:20:52Z</time><name>PT3269</name></trkpt>
<trkpt lat="53.366602" lon="-1.836098"><ele>359</ele><time>2022-03-19T11:20:52Z</time><name>PT3270</name></trkpt>
<trkpt lat="53.366599" lon="-1.836115"><ele>359</ele><time>2022-03-19T11:20:54Z</time><name>PT3271</name></trkpt>
<trkpt lat="53.366593" lon="-1.836136"><ele>359</ele><time>2022-03-19T11:20:55Z</time><name>PT3272</name></trkpt>
<trkpt lat="53.366583" lon="-1.836155"><ele>360</ele><time>2022-03-19T11:20:55Z</time><name>PT3273</name></trkpt>
<trkpt lat="53.366577" lon="-1.836169"><ele>360</ele><time>2022-03-19T11:20:57Z</time><name>PT3274</name></trkpt>
<trkpt lat="53.366572" lon="-1.836182"><ele>360</ele><time>2022-03-19T11:20:58Z</time><name>PT3275</name></trkpt>
<trkpt lat="53.366564" lon="-1.836197"><ele>360</ele><time>2022-03-19T11:20:58Z</time><name>PT3276</name></trkpt>
<trkpt lat="53.366555" lon="-1.836210"><ele>360</ele><time>2022-03-19T11:21:00Z</time><name>PT3277</name></trkpt>
<trkpt lat="53.366545" lon="-1.836223"><ele>360</ele><time>2022-03-19T11:21:01Z</time><name>PT3278</name></trkpt>
<trkpt lat="53.366540" lon="-1.836237"><ele>361</ele><time>2022-03-19T11:21:01Z</time><name>PT3279</name></trkpt>
<trkpt lat="53.366533" lon="-1.836251"><ele>361</ele><time>2022-03-19T11:21:03Z</time><name>PT3280</name></trkpt>
<trkpt lat="53.366527" lon="-1.836262"><ele>361</ele><time>2022-03-19T11:21:04Z</time><name>PT3281</name></trkpt>
<trkpt lat="53.366523" lon="-1.836269"><ele>361</ele><time>2022-03-19T11:21:04Z</time><name>PT3282</name></trkpt>
<trkpt lat="53.366522" lon="-1.836272"><ele>360</ele><time>2022-03-19T11:21:06Z</time><name>PT3283</name></trkpt>
<trkpt lat="53.366522" lon="-1.836273"><ele>360</ele><time>2022-03-19T11:21:07Z</time><name>PT3284</name></trkpt>
<trkpt lat="53.366522" lon="-1.836274"><ele>361</ele><time>2022-03-19T11:21:07Z</time><name>PT3285</name></trkpt>
<trkpt lat="53.366518" lon="-1.836277"><ele>361</ele><time>2022-03-19T11:21:16Z</time><name>PT3286</name></trkpt>
<trkpt lat="53.366523" lon="-1.836293"><ele>361</ele><time>2022-03-19T11:21:16Z</time><name>PT3287</name></trkpt>
<trkpt lat="53.366527" lon="-1.836312"><ele>361</ele><time>2022-03-19T11:21:18Z</time><name>PT3288</name></trkpt>
<trkpt lat="53.366530" lon="-1.836327"><ele>360</ele><time>2022-03-19T11:21:19Z</time><name>PT3289</name></trkpt>
<trkpt lat="53.366532" lon="-1.836345"><ele>361</ele><time>2022-03-19T11:21:19Z</time><name>PT3290</name></trkpt>
<trkpt lat="53.366533" lon="-1.836363"><ele>360</ele><time>2022-03-19T11:21:21Z</time><name>PT3291</name></trkpt>
<trkpt lat="53.366535" lon="-1.836382"><ele>360</ele><time>2022-03-19T11:21:22Z</time><name>PT3292</name></trkpt>
<trkpt lat="53.366536" lon="-1.836403"><ele>359</ele><time>2022-03-19T11:21:22Z</time><name>PT3293</name></trkpt>
<trkpt lat="53.366534" lon="-1.836422"><ele>359</ele><time>2022-03-19T11:21:24Z</time><name>PT3294</name></trkpt>
<trkpt lat="53.366531" lon="-1.836435"><ele>359</ele><time>2022-03-19T11:21:25Z</time><name>PT3295</name></trkpt>
<trkpt lat="53.366530" lon="-1.836441"><ele>359</ele><time>2022-03-19T11:21:25Z</time><name>PT3296</name></trkpt>
<trkpt lat="53.366532" lon="-1.836454"><ele>359</ele><time>2022-03-19T11:21:27Z</time><name>PT3297</name></trkpt>
<trkpt lat="53.366535" lon="-1.836471"><ele>359</ele><time>2022-03-19T11:21:28Z</time><name>PT3298</name></trkpt>
<trkpt lat="53.366539" lon="-1.836490"><ele>359</ele><time>2022-03-19T11:21:28Z</time><name>PT3299</name></trkpt>
<trkpt lat="53.366542" lon="-1.836508"><ele>358</ele><time>2022-03-19T11:21:30Z</time><name>PT3300</name></trkpt>
<trkpt lat="53.366546" lon="-1.836527"><ele>359</ele><time>2022-03-19T11:21:31Z</time><name>PT3301</name></trkpt>
<trkpt lat="53.366549" lon="-1.836544"><ele>359</ele><time>2022-03-19T11:21:31Z</time><name>PT3302</name></trkpt>
<trkpt lat="53.366551" lon="-1.836562"><ele>359</ele><time>2022-03-19T11:21:33Z</time><name>PT3303</name></trkpt>
<trkpt lat="53.366556" lon="-1.836581"><ele>359</ele><time>2022-03-19T11:21:34Z</time><name>PT3304</name></trkpt>
<trkpt lat="53.366558" lon="-1.836600"><ele>358</ele><time>2022-03-19T11:21:34Z</time><name>PT3305</name></trkpt>
<trkpt lat="53.366559" lon="-1.836620"><ele>358</ele><time>2022-03-19T11:21:36Z</time><name>PT3306</name></trkpt>
<trkpt lat="53.366561" lon="-1.836640"><ele>359</ele><time>2022-03-19T11:21:37Z</time><name>PT3307</name></trkpt>
<trkpt lat="53.366562" lon="-1.836659"><ele>359</ele><time>2022-03-19T11:21:37Z</time><name>PT3308</name></trkpt>
<trkpt lat="53.366561" lon="-1.836677"><ele>359</ele><time>2022-03-19T11:21:39Z</time><name>PT3309</name></trkpt>
<trkpt lat="53.366560" lon="-1.836695"><ele>359</ele><time>2022-03-19T11:21:40Z</time><name>PT3310</name></trkpt>
<trkpt lat="53.366558" lon="-1.836715"><ele>359</ele><time>2022-03-19T11:21:40Z</time><name>PT3311</name></trkpt>
<trkpt lat="53.366554" lon="-1.836736"><ele>358</ele><time>2022-03-19T11:21:42Z</time><name>PT3312</name></trkpt>
<trkpt lat="53.366549" lon="-1.836754"><ele>358</ele><time>2022-03-19T11:21:43Z</time><name>PT3313</name></trkpt>
<trkpt lat="53.366546" lon="-1.836771"><ele>357</ele><time>2022-03-19T11:21:43Z</time><name>PT3314</name></trkpt>
<trkpt lat="53.366545" lon="-1.836792"><ele>357</ele><time>2022-03-19T11:21:45Z</time><name>PT3315</name></trkpt>
<trkpt lat="53.366544" lon="-1.836813"><ele>357</ele><time>2022-03-19T11:21:46Z</time><name>PT3316</name></trkpt>
<trkpt lat="53.366542" lon="-1.836829"><ele>357</ele><time>2022-03-19T11:21:46Z</time><name>PT3317</name></trkpt>
<trkpt lat="53.366541" lon="-1.836845"><ele>356</ele><time>2022-03-19T11:21:48Z</time><name>PT3318</name></trkpt>
<trkpt lat="53.366540" lon="-1.836859"><ele>356</ele><time>2022-03-19T11:21:49Z</time><name>PT3319</name></trkpt>
<trkpt lat="53.366540" lon="-1.836871"><ele>356</ele><time>2022-03-19T11:21:49Z</time><name>PT3320</name></trkpt>
<trkpt lat="53.366541" lon="-1.836884"><ele>356</ele><time>2022-03-19T11:21:51Z</time><name>PT3321</name></trkpt>
<trkpt lat="53.366543" lon="-1.836901"><ele>355</ele><time>2022-03-19T11:21:52Z</time><name>PT3322</name></trkpt>
<trkpt lat="53.366544" lon="-1.836915"><ele>355</ele><time>2022-03-19T11:21:52Z</time><name>PT3323</name></trkpt>
<trkpt lat="53.366545" lon="-1.836932"><ele>355</ele><time>2022-03-19T11:21:54Z</time><name>PT3324</name></trkpt>
<trkpt lat="53.366544" lon="-1.836950"><ele>354</ele><time>2022-03-19T11:21:55Z</time><name>PT3325</name></trkpt>
<trkpt lat="53.366545" lon="-1.836969"><ele>354</ele><time>2022-03-19T11:21:55Z</time><name>PT3326</name></trkpt>
<trkpt lat="53.366545" lon="-1.836987"><ele>354</ele><time>2022-03-19T11:21:57Z</time><name>PT3327</name></trkpt>
<trkpt lat="53.366548" lon="-1.837005"><ele>354</ele><time>2022-03-19T11:21:58Z</time><name>PT3328</name></trkpt>
<trkpt lat="53.366550" lon="-1.837019"><ele>354</ele><time>2022-03-19T11:21:58Z</time><name>PT3329</name></trkpt>
<trkpt lat="53.366552" lon="-1.837036"><ele>353</ele><time>2022-03-19T11:22:00Z</time><name>PT3330</name></trkpt>
<trkpt lat="53.366554" lon="-1.837054"><ele>353</ele><time>2022-03-19T11:22:01Z</time><name>PT3331</name></trkpt>
<trkpt lat="53.366557" lon="-1.837071"><ele>352</ele><time>2022-03-19T11:22:01Z</time><name>PT3332</name></trkpt>
<trkpt lat="53.366560" lon="-1.837087"><ele>352</ele><time>2022-03-19T11:22:03Z</time><name>PT3333</name></trkpt>
<trkpt lat="53.366563" lon="-1.837105"><ele>352</ele><time>2022-03-19T11:22:04Z</time><name>PT3334</name></trkpt>
<trkpt lat="53.366564" lon="-1.837123"><ele>352</ele><time>2022-03-19T11:22:04Z</time><name>PT3335</name></trkpt>
<trkpt lat="53.366566" lon="-1.837135"><ele>352</ele><time>2022-03-19T11:22:06Z</time><name>PT3336</name></trkpt>
<trkpt lat="53.366567" lon="-1.837147"><ele>352</ele><time>2022-03-19T11:22:07Z</time><name>PT3337</name></trkpt>
<trkpt lat="53.366568" lon="-1.837160"><ele>351</ele><time>2022-03-19T11:22:07Z</time><name>PT3338</name></trkpt>
<trkpt lat="53.366569" lon="-1.837175"><ele>351</ele><time>2022-03-19T11:22:09Z</time><name>PT3339</name></trkpt>
<trkpt lat="53.366572" lon="-1.837188"><ele>351</ele><time>2022-03-19T11:22:10Z</time><name>PT3340</name></trkpt>
<trkpt lat="53.366574" lon="-1.837202"><ele>351</ele><time>2022-03-19T11:22:10Z</time><name>PT3341</name></trkpt>
<trkpt lat="53.366574" lon="-1.837223"><ele>351</ele><time>2022-03-19T11:22:12Z</time><name>PT3342</name></trkpt>
<trkpt lat="53.366576" lon="-1.837237"><ele>350</ele><time>2022-03-19T11:22:13Z</time><name>PT3343</name></trkpt>
<trkpt lat="53.366576" lon="-1.837251"><ele>350</ele><time>2022-03-19T11:22:13Z</time><name>PT3344</name></trkpt>
<trkpt lat="53.366578" lon="-1.837265"><ele>350</ele><time>2022-03-19T11:22:15Z</time><name>PT3345</name></trkpt>
<trkpt lat="53.366581" lon="-1.837275"><ele>350</ele><time>2022-03-19T11:22:16Z</time><name>PT3346</name></trkpt>
<trkpt lat="53.366582" lon="-1.837286"><ele>350</ele><time>2022-03-19T11:22:16Z</time><name>PT3347</name></trkpt>
<trkpt lat="53.366581" lon="-1.837300"><ele>350</ele><time>2022-03-19T11:22:18Z</time><name>PT3348</name></trkpt>
<trkpt lat="53.366578" lon="-1.837321"><ele>350</ele><time>2022-03-19T11:22:19Z</time><name>PT3349</name></trkpt>
<trkpt lat="53.366573" lon="-1.837347"><ele>349</ele><time>2022-03-19T11:22:19Z</time><name>PT3350</name></trkpt>
<trkpt lat="53.366570" lon="-1.837370"><ele>349</ele><time>2022-03-19T11:22:21Z</time><name>PT3351</name></trkpt>
<trkpt lat="53.366571" lon="-1.837389"><ele>349</ele><time>2022-03-19T11:22:22Z</time><name>PT3352</name></trkpt>
<trkpt lat="53.366570" lon="-1.837409"><ele>349</ele><time>2022-03-19T11:22:22Z</time><name>PT3353</name></trkpt>
<trkpt lat="53.366570" lon="-1.837428"><ele>348</ele><time>2022-03-19T11:22:24Z</time><name>PT3354</name></trkpt>
<trkpt lat="53.366566" lon="-1.837449"><ele>348</ele><time>2022-03-19T11:22:25Z</time><name>PT3355</name></trkpt>
<trkpt lat="53.366561" lon="-1.837470"><ele>348</ele><time>2022-03-19T11:22:25Z</time><name>PT3356</name></trkpt>
<trkpt lat="53.366557" lon="-1.837488"><ele>348</ele><time>2022-03-19T11:22:27Z</time><name>PT3357</name></trkpt>
<trkpt lat="53.366553" lon="-1.837508"><ele>347</ele><time>2022-03-19T11:22:28Z</time><name>PT3358</name></trkpt>
<trkpt lat="53.366549" lon="-1.837529"><ele>348</ele><time>2022-03-19T11:22:28Z</time><name>PT3359</name></trkpt>
<trkpt lat="53.366545" lon="-1.837549"><ele>347</ele><time>2022-03-19T11:22:30Z</time><name>PT3360</name></trkpt>
<trkpt lat="53.366543" lon="-1.837569"><ele>347</ele><time>2022-03-19T11:22:31Z</time><name>PT3361</name></trkpt>
<trkpt lat="53.366543" lon="-1.837588"><ele>347</ele><time>2022-03-19T11:22:31Z</time><name>PT3362</name></trkpt>
<trkpt lat="53.366541" lon="-1.837609"><ele>347</ele><time>2022-03-19T11:22:33Z</time><name>PT3363</name></trkpt>
<trkpt lat="53.366539" lon="-1.837628"><ele>347</ele><time>2022-03-19T11:22:34Z</time><name>PT3364</name></trkpt>
<trkpt lat="53.366532" lon="-1.837648"><ele>347</ele><time>2022-03-19T11:22:34Z</time><name>PT3365</name></trkpt>
<trkpt lat="53.366526" lon="-1.837667"><ele>348</ele><time>2022-03-19T11:22:36Z</time><name>PT3366</name></trkpt>
<trkpt lat="53.366523" lon="-1.837684"><ele>347</ele><time>2022-03-19T11:22:37Z</time><name>PT3367</name></trkpt>
<trkpt lat="53.366521" lon="-1.837701"><ele>347</ele><time>2022-03-19T11:22:37Z</time><name>PT3368</name></trkpt>
<trkpt lat="53.366522" lon="-1.837711"><ele>347</ele><time>2022-03-19T11:22:39Z</time><name>PT3369</name></trkpt>
<trkpt lat="53.366522" lon="-1.837716"><ele>346</ele><time>2022-03-19T11:22:40Z</time><name>PT3370</name></trkpt>
<trkpt lat="53.366521" lon="-1.837718"><ele>346</ele><time>2022-03-19T11:22:40Z</time><name>PT3371</name></trkpt>
<trkpt lat="53.366520" lon="-1.837719"><ele>346</ele><time>2022-03-19T11:22:42Z</time><name>PT3372</name></trkpt>
<trkpt lat="53.366520" lon="-1.837722"><ele>346</ele><time>2022-03-19T11:22:45Z</time><name>PT3373</name></trkpt>
<trkpt lat="53.366517" lon="-1.837809"><ele>345</ele><time>2022-03-19T11:22:49Z</time><name>PT3374</name></trkpt>
<trkpt lat="53.366528" lon="-1.837897"><ele>344</ele><time>2022-03-19T11:22:52Z</time><name>PT3375</name></trkpt>
<trkpt lat="53.366538" lon="-1.837956"><ele>344</ele><time>2022-03-19T11:22:55Z</time><name>PT3376</name></trkpt>
<trkpt lat="53.366559" lon="-1.838019"><ele>343</ele><time>2022-03-19T11:23:00Z</time><name>PT3377</name></trkpt>
<trkpt lat="53.366581" lon="-1.838058"><ele>342</ele><time>2022-03-19T11:23:03Z</time><name>PT3378</name></trkpt>
<trkpt lat="53.366603" lon="-1.838121"><ele>342</ele><time>2022-03-19T11:23:07Z</time><name>PT3379</name></trkpt>
<trkpt lat="53.366610" lon="-1.838166"><ele>341</ele><time>2022-03-19T11:23:10Z</time><name>PT3380</name></trkpt>
<trkpt lat="53.366621" lon="-1.838219"><ele>340</ele><time>2022-03-19T11:23:13Z</time><name>PT3381</name></trkpt>
<trkpt lat="53.366634" lon="-1.838249"><ele>339</ele><time>2022-03-19T11:23:16Z</time><name>PT3382</name></trkpt>
<trkpt lat="53.366636" lon="-1.838301"><ele>337</ele><time>2022-03-19T11:23:21Z</time><name>PT3383</name></trkpt>
<trkpt lat="53.366641" lon="-1.838347"><ele>338</ele><time>2022-03-19T11:23:24Z</time><name>PT3384</name></trkpt>
<trkpt lat="53.366642" lon="-1.838397"><ele>337</ele><time>2022-03-19T11:23:27Z</time><name>PT3385</name></trkpt>
<trkpt lat="53.366636" lon="-1.838442"><ele>337</ele><time>2022-03-19T11:23:31Z</time><name>PT3386</name></trkpt>
<trkpt lat="53.366639" lon="-1.838457"><ele>336</ele><time>2022-03-19T11:23:34Z</time><name>PT3387</name></trkpt>
<trkpt lat="53.366644" lon="-1.838492"><ele>334</ele><time>2022-03-19T11:23:37Z</time><name>PT3388</name></trkpt>
<trkpt lat="53.366636" lon="-1.838540"><ele>333</ele><time>2022-03-19T11:23:40Z</time><name>PT3389</name></trkpt>
<trkpt lat="53.366622" lon="-1.838598"><ele>333</ele><time>2022-03-19T11:23:43Z</time><name>PT3390</name></trkpt>
<trkpt lat="53.366602" lon="-1.838659"><ele>333</ele><time>2022-03-19T11:23:48Z</time><name>PT3391</name></trkpt>
<trkpt lat="53.366589" lon="-1.838720"><ele>332</ele><time>2022-03-19T11:23:52Z</time><name>PT3392</name></trkpt>
<trkpt lat="53.366575" lon="-1.838772"><ele>332</ele><time>2022-03-19T11:23:55Z</time><name>PT3393</name></trkpt>
<trkpt lat="53.366552" lon="-1.838845"><ele>331</ele><time>2022-03-19T11:23:58Z</time><name>PT3394</name></trkpt>
<trkpt lat="53.366535" lon="-1.838912"><ele>331</ele><time>2022-03-19T11:24:03Z</time><name>PT3395</name></trkpt>
<trkpt lat="53.366513" lon="-1.838953"><ele>331</ele><time>2022-03-19T11:24:06Z</time><name>PT3396</name></trkpt>
<trkpt lat="53.366492" lon="-1.839016"><ele>330</ele><time>2022-03-19T11:24:10Z</time><name>PT3397</name></trkpt>
<trkpt lat="53.366487" lon="-1.839034"><ele>330</ele><time>2022-03-19T11:24:13Z</time><name>PT3398</name></trkpt>
<trkpt lat="53.366475" lon="-1.839095"><ele>330</ele><time>2022-03-19T11:24:16Z</time><name>PT3399</name></trkpt>
<trkpt lat="53.366455" lon="-1.839148"><ele>330</ele><time>2022-03-19T11:24:21Z</time><name>PT3400</name></trkpt>
<trkpt lat="53.366444" lon="-1.839201"><ele>329</ele><time>2022-03-19T11:24:24Z</time><name>PT3401</name></trkpt>
<trkpt lat="53.366421" lon="-1.839277"><ele>328</ele><time>2022-03-19T11:24:28Z</time><name>PT3402</name></trkpt>
<trkpt lat="53.366402" lon="-1.839333"><ele>326</ele><time>2022-03-19T11:24:31Z</time><name>PT3403</name></trkpt>
<trkpt lat="53.366367" lon="-1.839409"><ele>326</ele><time>2022-03-19T11:24:34Z</time><name>PT3404</name></trkpt>
<trkpt lat="53.366338" lon="-1.839483"><ele>325</ele><time>2022-03-19T11:24:39Z</time><name>PT3405</name></trkpt>
<trkpt lat="53.366307" lon="-1.839568"><ele>324</ele><time>2022-03-19T11:24:43Z</time><name>PT3406</name></trkpt>
<trkpt lat="53.366277" lon="-1.839643"><ele>323</ele><time>2022-03-19T11:24:46Z</time><name>PT3407</name></trkpt>
<trkpt lat="53.366253" lon="-1.839707"><ele>323</ele><time>2022-03-19T11:24:49Z</time><name>PT3408</name></trkpt>
<trkpt lat="53.366222" lon="-1.839790"><ele>324</ele><time>2022-03-19T11:24:54Z</time><name>PT3409</name></trkpt>
<trkpt lat="53.366203" lon="-1.839851"><ele>324</ele><time>2022-03-19T11:24:57Z</time><name>PT3410</name></trkpt>
<trkpt lat="53.366179" lon="-1.839934"><ele>323</ele><time>2022-03-19T11:25:01Z</time><name>PT3411</name></trkpt>
<trkpt lat="53.366168" lon="-1.840008"><ele>324</ele><time>2022-03-19T11:25:04Z</time><name>PT3412</name></trkpt>
<trkpt lat="53.366154" lon="-1.840093"><ele>324</ele><time>2022-03-19T11:25:07Z</time><name>PT3413</name></trkpt>
<trkpt lat="53.366139" lon="-1.840186"><ele>323</ele><time>2022-03-19T11:25:12Z</time><name>PT3414</name></trkpt>
<trkpt lat="53.366123" lon="-1.840268"><ele>322</ele><time>2022-03-19T11:25:16Z</time><name>PT3415</name></trkpt>
<trkpt lat="53.366098" lon="-1.840356"><ele>321</ele><time>2022-03-19T11:25:19Z</time><name>PT3416</name></trkpt>
<trkpt lat="53.366078" lon="-1.840413"><ele>321</ele><time>2022-03-19T11:25:22Z</time><name>PT3417</name></trkpt>
<trkpt lat="53.366059" lon="-1.840493"><ele>319</ele><time>2022-03-19T11:25:27Z</time><name>PT3418</name></trkpt>
<trkpt lat="53.366039" lon="-1.840511"><ele>319</ele><time>2022-03-19T11:25:31Z</time><name>PT3419</name></trkpt>
<trkpt lat="53.366032" lon="-1.840512"><ele>318</ele><time>2022-03-19T11:25:34Z</time><name>PT3420</name></trkpt>
<trkpt lat="53.366025" lon="-1.840523"><ele>317</ele><time>2022-03-19T11:25:37Z</time><name>PT3421</name></trkpt>
<trkpt lat="53.366021" lon="-1.840528"><ele>316</ele><time>2022-03-19T11:25:40Z</time><name>PT3422</name></trkpt>
<trkpt lat="53.366021" lon="-1.840528"><ele>316</ele><time>2022-03-19T11:25:43Z</time><name>PT3423</name></trkpt>
<trkpt lat="53.366010" lon="-1.840567"><ele>316</ele><time>2022-03-19T11:25:48Z</time><name>PT3424</name></trkpt>
<trkpt lat="53.366005" lon="-1.840611"><ele>315</ele><time>2022-03-19T11:25:52Z</time><name>PT3425</name></trkpt>
<trkpt lat="53.366002" lon="-1.840613"><ele>315</ele><time>2022-03-19T11:25:55Z</time><name>PT3426</name></trkpt>
<trkpt lat="53.365972" lon="-1.840678"><ele>315</ele><time>2022-03-19T11:25:58Z</time><name>PT3427</name></trkpt>
<trkpt lat="53.365944" lon="-1.840724"><ele>315</ele><time>2022-03-19T11:26:01Z</time><name>PT3428</name></trkpt>
<trkpt lat="53.365910" lon="-1.840787"><ele>315</ele><time>2022-03-19T11:26:06Z</time><name>PT3429</name></trkpt>
<trkpt lat="53.365881" lon="-1.840845"><ele>315</ele><time>2022-03-19T11:26:10Z</time><name>PT3430</name></trkpt>
<trkpt lat="53.365853" lon="-1.840894"><ele>315</ele><time>2022-03-19T11:26:13Z</time><name>PT3431</name></trkpt>
<trkpt lat="53.365820" lon="-1.840970"><ele>315</ele><time>2022-03-19T11:26:16Z</time><name>PT3432</name></trkpt>
<trkpt lat="53.365807" lon="-1.841022"><ele>314</ele><time>2022-03-19T11:26:19Z</time><name>PT3433</name></trkpt>
<trkpt lat="53.365781" lon="-1.841102"><ele>314</ele><time>2022-03-19T11:26:24Z</time><name>PT3434</name></trkpt>
<trkpt lat="53.365767" lon="-1.841171"><ele>313</ele><time>2022-03-19T11:26:28Z</time><name>PT3435</name></trkpt>
<trkpt lat="53.365772" lon="-1.841223"><ele>311</ele><time>2022-03-19T11:26:31Z</time><name>PT3436</name></trkpt>
<trkpt lat="53.365782" lon="-1.841317"><ele>310</ele><time>2022-03-19T11:26:34Z</time><name>PT3437</name></trkpt>
<trkpt lat="53.365777" lon="-1.841370"><ele>310</ele><time>2022-03-19T11:26:37Z</time><name>PT3438</name></trkpt>
<trkpt lat="53.365756" lon="-1.841446"><ele>310</ele><time>2022-03-19T11:26:42Z</time><name>PT3439</name></trkpt>
<trkpt lat="53.365732" lon="-1.841527"><ele>309</ele><time>2022-03-19T11:26:46Z</time><name>PT3440</name></trkpt>
<trkpt lat="53.365710" lon="-1.841586"><ele>310</ele><time>2022-03-19T11:26:49Z</time><name>PT3441</name></trkpt>
<trkpt lat="53.365702" lon="-1.841605"><ele>310</ele><time>2022-03-19T11:26:49Z</time><name>PT3442</name></trkpt>
<trkpt lat="53.365697" lon="-1.841623"><ele>309</ele><time>2022-03-19T11:26:51Z</time><name>PT3443</name></trkpt>
<trkpt lat="53.365691" lon="-1.841644"><ele>308</ele><time>2022-03-19T11:26:52Z</time><name>PT3444</name></trkpt>
<trkpt lat="53.365687" lon="-1.841664"><ele>307</ele><time>2022-03-19T11:26:52Z</time><name>PT3445</name></trkpt>
<trkpt lat="53.365681" lon="-1.841684"><ele>307</ele><time>2022-03-19T11:26:54Z</time><name>PT3446</name></trkpt>
<trkpt lat="53.365676" lon="-1.841705"><ele>307</ele><time>2022-03-19T11:26:55Z</time><name>PT3447</name></trkpt>
<trkpt lat="53.365671" lon="-1.841726"><ele>306</ele><time>2022-03-19T11:26:55Z</time><name>PT3448</name></trkpt>
<trkpt lat="53.365665" lon="-1.841745"><ele>306</ele><time>2022-03-19T11:26:57Z</time><name>PT3449</name></trkpt>
<trkpt lat="53.365657" lon="-1.841763"><ele>305</ele><time>2022-03-19T11:26:58Z</time><name>PT3450</name></trkpt>
<trkpt lat="53.365649" lon="-1.841779"><ele>305</ele><time>2022-03-19T11:26:58Z</time><name>PT3451</name></trkpt>
<trkpt lat="53.365639" lon="-1.841797"><ele>305</ele><time>2022-03-19T11:27:00Z</time><name>PT3452</name></trkpt>
<trkpt lat="53.365629" lon="-1.841816"><ele>305</ele><time>2022-03-19T11:27:01Z</time><name>PT3453</name></trkpt>
<trkpt lat="53.365619" lon="-1.841836"><ele>305</ele><time>2022-03-19T11:27:01Z</time><name>PT3454</name></trkpt>
<trkpt lat="53.365612" lon="-1.841856"><ele>305</ele><time>2022-03-19T11:27:03Z</time><name>PT3455</name></trkpt>
<trkpt lat="53.365607" lon="-1.841874"><ele>305</ele><time>2022-03-19T11:27:04Z</time><name>PT3456</name></trkpt>
<trkpt lat="53.365601" lon="-1.841891"><ele>305</ele><time>2022-03-19T11:27:04Z</time><name>PT3457</name></trkpt>
<trkpt lat="53.365593" lon="-1.841910"><ele>305</ele><time>2022-03-19T11:27:06Z</time><name>PT3458</name></trkpt>
<trkpt lat="53.365584" lon="-1.841926"><ele>305</ele><time>2022-03-19T11:27:07Z</time><name>PT3459</name></trkpt>
<trkpt lat="53.365575" lon="-1.841943"><ele>305</ele><time>2022-03-19T11:27:07Z</time><name>PT3460</name></trkpt>
<trkpt lat="53.365567" lon="-1.841959"><ele>305</ele><time>2022-03-19T11:27:09Z</time><name>PT3461</name></trkpt>
<trkpt lat="53.365559" lon="-1.841971"><ele>305</ele><time>2022-03-19T11:27:10Z</time><name>PT3462</name></trkpt>
<trkpt lat="53.365551" lon="-1.841985"><ele>305</ele><time>2022-03-19T11:27:10Z</time><name>PT3463</name></trkpt>
<trkpt lat="53.365541" lon="-1.842004"><ele>305</ele><time>2022-03-19T11:27:12Z</time><name>PT3464</name></trkpt>
<trkpt lat="53.365532" lon="-1.842021"><ele>305</ele><time>2022-03-19T11:27:13Z</time><name>PT3465</name></trkpt>
<trkpt lat="53.365523" lon="-1.842036"><ele>304</ele><time>2022-03-19T11:27:13Z</time><name>PT3466</name></trkpt>
<trkpt lat="53.365518" lon="-1.842050"><ele>304</ele><time>2022-03-19T11:27:15Z</time><name>PT3467</name></trkpt>
<trkpt lat="53.365512" lon="-1.842067"><ele>304</ele><time>2022-03-19T11:27:16Z</time><name>PT3468</name></trkpt>
<trkpt lat="53.365503" lon="-1.842085"><ele>303</ele><time>2022-03-19T11:27:17Z</time><name>PT3469</name></trkpt>
<trkpt lat="53.365495" lon="-1.842105"><ele>303</ele><time>2022-03-19T11:27:18Z</time><name>PT3470</name></trkpt>
<trkpt lat="53.365486" lon="-1.842124"><ele>302</ele><time>2022-03-19T11:27:19Z</time><name>PT3471</name></trkpt>
<trkpt lat="53.365479" lon="-1.842142"><ele>302</ele><time>2022-03-19T11:27:19Z</time><name>PT3472</name></trkpt>
<trkpt lat="53.365472" lon="-1.842159"><ele>302</ele><time>2022-03-19T11:27:21Z</time><name>PT3473</name></trkpt>
<trkpt lat="53.365465" lon="-1.842175"><ele>302</ele><time>2022-03-19T11:27:22Z</time><name>PT3474</name></trkpt>
<trkpt lat="53.365456" lon="-1.842190"><ele>301</ele><time>2022-03-19T11:27:22Z</time><name>PT3475</name></trkpt>
<trkpt lat="53.365448" lon="-1.842208"><ele>302</ele><time>2022-03-19T11:27:24Z</time><name>PT3476</name></trkpt>
<trkpt lat="53.365439" lon="-1.842223"><ele>302</ele><time>2022-03-19T11:27:25Z</time><name>PT3477</name></trkpt>
<trkpt lat="53.365429" lon="-1.842238"><ele>302</ele><time>2022-03-19T11:27:25Z</time><name>PT3478</name></trkpt>
<trkpt lat="53.365422" lon="-1.842249"><ele>301</ele><time>2022-03-19T11:27:27Z</time><name>PT3479</name></trkpt>
<trkpt lat="53.365418" lon="-1.842264"><ele>301</ele><time>2022-03-19T11:27:28Z</time><name>PT3480</name></trkpt>
<trkpt lat="53.365415" lon="-1.842283"><ele>300</ele><time>2022-03-19T11:27:28Z</time><name>PT3481</name></trkpt>
<trkpt lat="53.365408" lon="-1.842304"><ele>301</ele><time>2022-03-19T11:27:30Z</time><name>PT3482</name></trkpt>
<trkpt lat="53.365400" lon="-1.842322"><ele>301</ele><time>2022-03-19T11:27:31Z</time><name>PT3483</name></trkpt>
<trkpt lat="53.365392" lon="-1.842339"><ele>300</ele><time>2022-03-19T11:27:31Z</time><name>PT3484</name></trkpt>
<trkpt lat="53.365385" lon="-1.842357"><ele>300</ele><time>2022-03-19T11:27:33Z</time><name>PT3485</name></trkpt>
<trkpt lat="53.365377" lon="-1.842373"><ele>299</ele><time>2022-03-19T11:27:34Z</time><name>PT3486</name></trkpt>
<trkpt lat="53.365367" lon="-1.842390"><ele>299</ele><time>2022-03-19T11:27:34Z</time><name>PT3487</name></trkpt>
<trkpt lat="53.365357" lon="-1.842406"><ele>299</ele><time>2022-03-19T11:27:36Z</time><name>PT3488</name></trkpt>
<trkpt lat="53.365349" lon="-1.842420"><ele>299</ele><time>2022-03-19T11:27:37Z</time><name>PT3489</name></trkpt>
<trkpt lat="53.365340" lon="-1.842437"><ele>298</ele><time>2022-03-19T11:27:37Z</time><name>PT3490</name></trkpt>
<trkpt lat="53.365332" lon="-1.842452"><ele>298</ele><time>2022-03-19T11:27:39Z</time><name>PT3491</name></trkpt>
<trkpt lat="53.365325" lon="-1.842469"><ele>299</ele><time>2022-03-19T11:27:40Z</time><name>PT3492</name></trkpt>
<trkpt lat="53.365320" lon="-1.842484"><ele>299</ele><time>2022-03-19T11:27:40Z</time><name>PT3493</name></trkpt>
<trkpt lat="53.365313" lon="-1.842499"><ele>298</ele><time>2022-03-19T11:27:42Z</time><name>PT3494</name></trkpt>
<trkpt lat="53.365305" lon="-1.842514"><ele>299</ele><time>2022-03-19T11:27:43Z</time><name>PT3495</name></trkpt>
<trkpt lat="53.365297" lon="-1.842529"><ele>299</ele><time>2022-03-19T11:27:43Z</time><name>PT3496</name></trkpt>
<trkpt lat="53.365289" lon="-1.842546"><ele>298</ele><time>2022-03-19T11:27:45Z</time><name>PT3497</name></trkpt>
<trkpt lat="53.365279" lon="-1.842562"><ele>298</ele><time>2022-03-19T11:27:46Z</time><name>PT3498</name></trkpt>
<trkpt lat="53.365270" lon="-1.842576"><ele>298</ele><time>2022-03-19T11:27:46Z</time><name>PT3499</name></trkpt>
<trkpt lat="53.365257" lon="-1.842592"><ele>299</ele><time>2022-03-19T11:27:48Z</time><name>PT3500</name></trkpt>
<trkpt lat="53.365245" lon="-1.842604"><ele>299</ele><time>2022-03-19T11:27:49Z</time><name>PT3501</name></trkpt>
<trkpt lat="53.365236" lon="-1.842614"><ele>299</ele><time>2022-03-19T11:27:49Z</time><name>PT3502</name></trkpt>
<trkpt lat="53.365231" lon="-1.842622"><ele>299</ele><time>2022-03-19T11:27:51Z</time><name>PT3503</name></trkpt>
<trkpt lat="53.365222" lon="-1.842635"><ele>300</ele><time>2022-03-19T11:27:52Z</time><name>PT3504</name></trkpt>
<trkpt lat="53.365213" lon="-1.842652"><ele>300</ele><time>2022-03-19T11:27:52Z</time><name>PT3505</name></trkpt>
<trkpt lat="53.365204" lon="-1.842669"><ele>300</ele><time>2022-03-19T11:27:54Z</time><name>PT3506</name></trkpt>
<trkpt lat="53.365192" lon="-1.842690"><ele>299</ele><time>2022-03-19T11:27:55Z</time><name>PT3507</name></trkpt>
<trkpt lat="53.365183" lon="-1.842708"><ele>299</ele><time>2022-03-19T11:27:55Z</time><name>PT3508</name></trkpt>
<trkpt lat="53.365173" lon="-1.842727"><ele>300</ele><time>2022-03-19T11:27:57Z</time><name>PT3509</name></trkpt>
<trkpt lat="53.365163" lon="-1.842745"><ele>299</ele><time>2022-03-19T11:27:58Z</time><name>PT3510</name></trkpt>
<trkpt lat="53.365154" lon="-1.842762"><ele>299</ele><time>2022-03-19T11:27:58Z</time><name>PT3511</name></trkpt>
<trkpt lat="53.365146" lon="-1.842779"><ele>299</ele><time>2022-03-19T11:28:00Z</time><name>PT3512</name></trkpt>
<trkpt lat="53.365134" lon="-1.842796"><ele>299</ele><time>2022-03-19T11:28:01Z</time><name>PT3513</name></trkpt>
<trkpt lat="53.365123" lon="-1.842812"><ele>299</ele><time>2022-03-19T11:28:01Z</time><name>PT3514</name></trkpt>
<trkpt lat="53.365116" lon="-1.842826"><ele>298</ele><time>2022-03-19T11:28:03Z</time><name>PT3515</name></trkpt>
<trkpt lat="53.365110" lon="-1.842841"><ele>298</ele><time>2022-03-19T11:28:04Z</time><name>PT3516</name></trkpt>
<trkpt lat="53.365102" lon="-1.842852"><ele>298</ele><time>2022-03-19T11:28:04Z</time><name>PT3517</name></trkpt>
<trkpt lat="53.365096" lon="-1.842863"><ele>298</ele><time>2022-03-19T11:28:06Z</time><name>PT3518</name></trkpt>
<trkpt lat="53.365089" lon="-1.842876"><ele>298</ele><time>2022-03-19T11:28:07Z</time><name>PT3519</name></trkpt>
<trkpt lat="53.365082" lon="-1.842886"><ele>297</ele><time>2022-03-19T11:28:07Z</time><name>PT3520</name></trkpt>
<trkpt lat="53.365074" lon="-1.842898"><ele>297</ele><time>2022-03-19T11:28:09Z</time><name>PT3521</name></trkpt>
<trkpt lat="53.365068" lon="-1.842908"><ele>297</ele><time>2022-03-19T11:28:10Z</time><name>PT3522</name></trkpt>
<trkpt lat="53.365061" lon="-1.842921"><ele>297</ele><time>2022-03-19T11:28:10Z</time><name>PT3523</name></trkpt>
<trkpt lat="53.365056" lon="-1.842933"><ele>296</ele><time>2022-03-19T11:28:12Z</time><name>PT3524</name></trkpt>
<trkpt lat="53.365051" lon="-1.842943"><ele>296</ele><time>2022-03-19T11:28:13Z</time><name>PT3525</name></trkpt>
<trkpt lat="53.365048" lon="-1.842955"><ele>296</ele><time>2022-03-19T11:28:13Z</time><name>PT3526</name></trkpt>
<trkpt lat="53.365043" lon="-1.842973"><ele>295</ele><time>2022-03-19T11:28:15Z</time><name>PT3527</name></trkpt>
<trkpt lat="53.365035" lon="-1.842995"><ele>295</ele><time>2022-03-19T11:28:16Z</time><name>PT3528</name></trkpt>
<trkpt lat="53.365028" lon="-1.843017"><ele>295</ele><time>2022-03-19T11:28:16Z</time><name>PT3529</name></trkpt>
<trkpt lat="53.365025" lon="-1.843033"><ele>295</ele><time>2022-03-19T11:28:18Z</time><name>PT3530</name></trkpt>
<trkpt lat="53.365022" lon="-1.843052"><ele>295</ele><time>2022-03-19T11:28:19Z</time><name>PT3531</name></trkpt>
<trkpt lat="53.365025" lon="-1.843067"><ele>296</ele><time>2022-03-19T11:28:19Z</time><name>PT3532</name></trkpt>
<trkpt lat="53.365023" lon="-1.843089"><ele>294</ele><time>2022-03-19T11:28:21Z</time><name>PT3533</name></trkpt>
<trkpt lat="53.365022" lon="-1.843103"><ele>294</ele><time>2022-03-19T11:28:22Z</time><name>PT3534</name></trkpt>
<trkpt lat="53.365022" lon="-1.843117"><ele>295</ele><time>2022-03-19T11:28:22Z</time><name>PT3535</name></trkpt>
<trkpt lat="53.365025" lon="-1.843128"><ele>294</ele><time>2022-03-19T11:28:24Z</time><name>PT3536</name></trkpt>
<trkpt lat="53.365024" lon="-1.843133"><ele>294</ele><time>2022-03-19T11:28:25Z</time><name>PT3537</name></trkpt>
<trkpt lat="53.365022" lon="-1.843136"><ele>294</ele><time>2022-03-19T11:28:26Z</time><name>PT3538</name></trkpt>
<trkpt lat="53.365018" lon="-1.843144"><ele>295</ele><time>2022-03-19T11:28:27Z</time><name>PT3539</name></trkpt>
<trkpt lat="53.365017" lon="-1.843158"><ele>295</ele><time>2022-03-19T11:28:28Z</time><name>PT3540</name></trkpt>
<trkpt lat="53.365016" lon="-1.843176"><ele>295</ele><time>2022-03-19T11:28:28Z</time><name>PT3541</name></trkpt>
<trkpt lat="53.365012" lon="-1.843190"><ele>295</ele><time>2022-03-19T11:28:30Z</time><name>PT3542</name></trkpt>
<trkpt lat="53.365005" lon="-1.843210"><ele>294</ele><time>2022-03-19T11:28:31Z</time><name>PT3543</name></trkpt>
<trkpt lat="53.365001" lon="-1.843235"><ele>295</ele><time>2022-03-19T11:28:32Z</time><name>PT3544</name></trkpt>
<trkpt lat="53.364999" lon="-1.843254"><ele>295</ele><time>2022-03-19T11:28:33Z</time><name>PT3545</name></trkpt>
<trkpt lat="53.364998" lon="-1.843274"><ele>295</ele><time>2022-03-19T11:28:34Z</time><name>PT3546</name></trkpt>
<trkpt lat="53.364999" lon="-1.843296"><ele>294</ele><time>2022-03-19T11:28:35Z</time><name>PT3547</name></trkpt>
<trkpt lat="53.364998" lon="-1.843321"><ele>295</ele><time>2022-03-19T11:28:36Z</time><name>PT3548</name></trkpt>
<trkpt lat="53.364997" lon="-1.843343"><ele>295</ele><time>2022-03-19T11:28:37Z</time><name>PT3549</name></trkpt>
<trkpt lat="53.364993" lon="-1.843363"><ele>294</ele><time>2022-03-19T11:28:37Z</time><name>PT3550</name></trkpt>
<trkpt lat="53.364989" lon="-1.843389"><ele>294</ele><time>2022-03-19T11:28:39Z</time><name>PT3551</name></trkpt>
<trkpt lat="53.364986" lon="-1.843411"><ele>294</ele><time>2022-03-19T11:28:40Z</time><name>PT3552</name></trkpt>
<trkpt lat="53.364983" lon="-1.843428"><ele>294</ele><time>2022-03-19T11:28:40Z</time><name>PT3553</name></trkpt>
<trkpt lat="53.364981" lon="-1.843446"><ele>294</ele><time>2022-03-19T11:28:42Z</time><name>PT3554</name></trkpt>
<trkpt lat="53.364980" lon="-1.843467"><ele>293</ele><time>2022-03-19T11:28:43Z</time><name>PT3555</name></trkpt>
<trkpt lat="53.364980" lon="-1.843490"><ele>293</ele><time>2022-03-19T11:28:43Z</time><name>PT3556</name></trkpt>
<trkpt lat="53.364978" lon="-1.843512"><ele>293</ele><time>2022-03-19T11:28:45Z</time><name>PT3557</name></trkpt>
<trkpt lat="53.364977" lon="-1.843531"><ele>293</ele><time>2022-03-19T11:28:46Z</time><name>PT3558</name></trkpt>
<trkpt lat="53.364977" lon="-1.843552"><ele>293</ele><time>2022-03-19T11:28:47Z</time><name>PT3559</name></trkpt>
<trkpt lat="53.364976" lon="-1.843576"><ele>293</ele><time>2022-03-19T11:28:48Z</time><name>PT3560</name></trkpt>
<trkpt lat="53.364977" lon="-1.843590"><ele>293</ele><time>2022-03-19T11:28:49Z</time><name>PT3561</name></trkpt>
<trkpt lat="53.364976" lon="-1.843606"><ele>293</ele><time>2022-03-19T11:28:49Z</time><name>PT3562</name></trkpt>
<trkpt lat="53.364974" lon="-1.843630"><ele>292</ele><time>2022-03-19T11:28:51Z</time><name>PT3563</name></trkpt>
<trkpt lat="53.364974" lon="-1.843657"><ele>293</ele><time>2022-03-19T11:28:52Z</time><name>PT3564</name></trkpt>
<trkpt lat="53.364973" lon="-1.843682"><ele>292</ele><time>2022-03-19T11:28:53Z</time><name>PT3565</name></trkpt>
<trkpt lat="53.364973" lon="-1.843698"><ele>292</ele><time>2022-03-19T11:28:54Z</time><name>PT3566</name></trkpt>
<trkpt lat="53.364973" lon="-1.843715"><ele>292</ele><time>2022-03-19T11:28:55Z</time><name>PT3567</name></trkpt>
<trkpt lat="53.364970" lon="-1.843738"><ele>293</ele><time>2022-03-19T11:28:55Z</time><name>PT3568</name></trkpt>
<trkpt lat="53.364970" lon="-1.843763"><ele>293</ele><time>2022-03-19T11:28:57Z</time><name>PT3569</name></trkpt>
<trkpt lat="53.364971" lon="-1.843781"><ele>293</ele><time>2022-03-19T11:28:58Z</time><name>PT3570</name></trkpt>
<trkpt lat="53.364971" lon="-1.843796"><ele>292</ele><time>2022-03-19T11:28:58Z</time><name>PT3571</name></trkpt>
<trkpt lat="53.364969" lon="-1.843815"><ele>292</ele><time>2022-03-19T11:29:00Z</time><name>PT3572</name></trkpt>
<trkpt lat="53.364973" lon="-1.843837"><ele>291</ele><time>2022-03-19T11:29:01Z</time><name>PT3573</name></trkpt>
<trkpt lat="53.364973" lon="-1.843864"><ele>291</ele><time>2022-03-19T11:29:01Z</time><name>PT3574</name></trkpt>
<trkpt lat="53.364973" lon="-1.843889"><ele>290</ele><time>2022-03-19T11:29:03Z</time><name>PT3575</name></trkpt>
<trkpt lat="53.364972" lon="-1.843913"><ele>290</ele><time>2022-03-19T11:29:04Z</time><name>PT3576</name></trkpt>
<trkpt lat="53.364971" lon="-1.843928"><ele>290</ele><time>2022-03-19T11:29:04Z</time><name>PT3577</name></trkpt>
<trkpt lat="53.364967" lon="-1.843946"><ele>290</ele><time>2022-03-19T11:29:06Z</time><name>PT3578</name></trkpt>
<trkpt lat="53.364966" lon="-1.843968"><ele>290</ele><time>2022-03-19T11:29:07Z</time><name>PT3579</name></trkpt>
<trkpt lat="53.364965" lon="-1.843987"><ele>290</ele><time>2022-03-19T11:29:07Z</time><name>PT3580</name></trkpt>
<trkpt lat="53.364964" lon="-1.844008"><ele>290</ele><time>2022-03-19T11:29:09Z</time><name>PT3581</name></trkpt>
<trkpt lat="53.364963" lon="-1.844032"><ele>290</ele><time>2022-03-19T11:29:10Z</time><name>PT3582</name></trkpt>
<trkpt lat="53.364965" lon="-1.844049"><ele>290</ele><time>2022-03-19T11:29:10Z</time><name>PT3583</name></trkpt>
<trkpt lat="53.364966" lon="-1.844069"><ele>290</ele><time>2022-03-19T11:29:12Z</time><name>PT3584</name></trkpt>
<trkpt lat="53.364966" lon="-1.844087"><ele>290</ele><time>2022-03-19T11:29:13Z</time><name>PT3585</name></trkpt>
<trkpt lat="53.364968" lon="-1.844108"><ele>289</ele><time>2022-03-19T11:29:13Z</time><name>PT3586</name></trkpt>
<trkpt lat="53.364969" lon="-1.844123"><ele>289</ele><time>2022-03-19T11:29:15Z</time><name>PT3587</name></trkpt>
<trkpt lat="53.364969" lon="-1.844141"><ele>289</ele><time>2022-03-19T11:29:16Z</time><name>PT3588</name></trkpt>
<trkpt lat="53.364969" lon="-1.844157"><ele>289</ele><time>2022-03-19T11:29:16Z</time><name>PT3589</name></trkpt>
<trkpt lat="53.364967" lon="-1.844171"><ele>289</ele><time>2022-03-19T11:29:18Z</time><name>PT3590</name></trkpt>
<trkpt lat="53.364970" lon="-1.844187"><ele>289</ele><time>2022-03-19T11:29:19Z</time><name>PT3591</name></trkpt>
<trkpt lat="53.364973" lon="-1.844207"><ele>289</ele><time>2022-03-19T11:29:19Z</time><name>PT3592</name></trkpt>
<trkpt lat="53.364972" lon="-1.844224"><ele>290</ele><time>2022-03-19T11:29:21Z</time><name>PT3593</name></trkpt>
<trkpt lat="53.364971" lon="-1.844244"><ele>290</ele><time>2022-03-19T11:29:22Z</time><name>PT3594</name></trkpt>
<trkpt lat="53.364970" lon="-1.844265"><ele>289</ele><time>2022-03-19T11:29:22Z</time><name>PT3595</name></trkpt>
<trkpt lat="53.364970" lon="-1.844284"><ele>288</ele><time>2022-03-19T11:29:24Z</time><name>PT3596</name></trkpt>
<trkpt lat="53.364972" lon="-1.844296"><ele>288</ele><time>2022-03-19T11:29:25Z</time><name>PT3597</name></trkpt>
<trkpt lat="53.364970" lon="-1.844309"><ele>289</ele><time>2022-03-19T11:29:25Z</time><name>PT3598</name></trkpt>
<trkpt lat="53.364965" lon="-1.844331"><ele>289</ele><time>2022-03-19T11:29:27Z</time><name>PT3599</name></trkpt>
<trkpt lat="53.364958" lon="-1.844351"><ele>289</ele><time>2022-03-19T11:29:28Z</time><name>PT3600</name></trkpt>
<trkpt lat="53.364958" lon="-1.844373"><ele>289</ele><time>2022-03-19T11:29:28Z</time><name>PT3601</name></trkpt>
<trkpt lat="53.364956" lon="-1.844393"><ele>288</ele><time>2022-03-19T11:29:30Z</time><name>PT3602</name></trkpt>
<trkpt lat="53.364953" lon="-1.844422"><ele>289</ele><time>2022-03-19T11:29:31Z</time><name>PT3603</name></trkpt>
<trkpt lat="53.364951" lon="-1.844450"><ele>289</ele><time>2022-03-19T11:29:31Z</time><name>PT3604</name></trkpt>
<trkpt lat="53.364951" lon="-1.844479"><ele>289</ele><time>2022-03-19T11:29:33Z</time><name>PT3605</name></trkpt>
<trkpt lat="53.364948" lon="-1.844507"><ele>289</ele><time>2022-03-19T11:29:34Z</time><name>PT3606</name></trkpt>
<trkpt lat="53.364947" lon="-1.844530"><ele>289</ele><time>2022-03-19T11:29:34Z</time><name>PT3607</name></trkpt>
<trkpt lat="53.364948" lon="-1.844545"><ele>289</ele><time>2022-03-19T11:29:36Z</time><name>PT3608</name></trkpt>
<trkpt lat="53.364946" lon="-1.844565"><ele>289</ele><time>2022-03-19T11:29:37Z</time><name>PT3609</name></trkpt>
<trkpt lat="53.364947" lon="-1.844589"><ele>288</ele><time>2022-03-19T11:29:37Z</time><name>PT3610</name></trkpt>
<trkpt lat="53.364947" lon="-1.844614"><ele>288</ele><time>2022-03-19T11:29:39Z</time><name>PT3611</name></trkpt>
<trkpt lat="53.364947" lon="-1.844637"><ele>287</ele><time>2022-03-19T11:29:40Z</time><name>PT3612</name></trkpt>
<trkpt lat="53.364949" lon="-1.844653"><ele>286</ele><time>2022-03-19T11:29:40Z</time><name>PT3613</name></trkpt>
<trkpt lat="53.364949" lon="-1.844684"><ele>286</ele><time>2022-03-19T11:29:42Z</time><name>PT3614</name></trkpt>
<trkpt lat="53.364949" lon="-1.844706"><ele>286</ele><time>2022-03-19T11:29:43Z</time><name>PT3615</name></trkpt>
<trkpt lat="53.364953" lon="-1.844725"><ele>285</ele><time>2022-03-19T11:29:43Z</time><name>PT3616</name></trkpt>
<trkpt lat="53.364957" lon="-1.844741"><ele>285</ele><time>2022-03-19T11:29:45Z</time><name>PT3617</name></trkpt>
<trkpt lat="53.364960" lon="-1.844755"><ele>285</ele><time>2022-03-19T11:29:46Z</time><name>PT3618</name></trkpt>
<trkpt lat="53.364961" lon="-1.844774"><ele>284</ele><time>2022-03-19T11:29:46Z</time><name>PT3619</name></trkpt>
<trkpt lat="53.364964" lon="-1.844782"><ele>284</ele><time>2022-03-19T11:29:48Z</time><name>PT3620</name></trkpt>
<trkpt lat="53.364969" lon="-1.844796"><ele>283</ele><time>2022-03-19T11:29:49Z</time><name>PT3621</name></trkpt>
<trkpt lat="53.364970" lon="-1.844821"><ele>283</ele><time>2022-03-19T11:29:49Z</time><name>PT3622</name></trkpt>
<trkpt lat="53.364970" lon="-1.844843"><ele>283</ele><time>2022-03-19T11:29:51Z</time><name>PT3623</name></trkpt>
<trkpt lat="53.364969" lon="-1.844862"><ele>284</ele><time>2022-03-19T11:29:52Z</time><name>PT3624</name></trkpt>
<trkpt lat="53.364968" lon="-1.844883"><ele>284</ele><time>2022-03-19T11:29:52Z</time><name>PT3625</name></trkpt>
<trkpt lat="53.364963" lon="-1.844913"><ele>285</ele><time>2022-03-19T11:29:54Z</time><name>PT3626</name></trkpt>
<trkpt lat="53.364959" lon="-1.844946"><ele>286</ele><time>2022-03-19T11:29:55Z</time><name>PT3627</name></trkpt>
<trkpt lat="53.364956" lon="-1.844971"><ele>286</ele><time>2022-03-19T11:29:55Z</time><name>PT3628</name></trkpt>
<trkpt lat="53.364956" lon="-1.844993"><ele>286</ele><time>2022-03-19T11:29:57Z</time><name>PT3629</name></trkpt>
<trkpt lat="53.364954" lon="-1.845016"><ele>286</ele><time>2022-03-19T11:29:58Z</time><name>PT3630</name></trkpt>
<trkpt lat="53.364952" lon="-1.845035"><ele>287</ele><time>2022-03-19T11:29:58Z</time><name>PT3631</name></trkpt>
<trkpt lat="53.364955" lon="-1.845043"><ele>286</ele><time>2022-03-19T11:30:00Z</time><name>PT3632</name></trkpt>
<trkpt lat="53.364956" lon="-1.845058"><ele>286</ele><time>2022-03-19T11:30:01Z</time><name>PT3633</name></trkpt>
<trkpt lat="53.364960" lon="-1.845079"><ele>285</ele><time>2022-03-19T11:30:01Z</time><name>PT3634</name></trkpt>
<trkpt lat="53.364962" lon="-1.845105"><ele>284</ele><time>2022-03-19T11:30:03Z</time><name>PT3635</name></trkpt>
<trkpt lat="53.364961" lon="-1.845125"><ele>284</ele><time>2022-03-19T11:30:04Z</time><name>PT3636</name></trkpt>
<trkpt lat="53.364961" lon="-1.845140"><ele>284</ele><time>2022-03-19T11:30:04Z</time><name>PT3637</name></trkpt>
<trkpt lat="53.364959" lon="-1.845163"><ele>284</ele><time>2022-03-19T11:30:06Z</time><name>PT3638</name></trkpt>
<trkpt lat="53.364959" lon="-1.845188"><ele>284</ele><time>2022-03-19T11:30:07Z</time><name>PT3639</name></trkpt>
<trkpt lat="53.364960" lon="-1.845208"><ele>283</ele><time>2022-03-19T11:30:07Z</time><name>PT3640</name></trkpt>
<trkpt lat="53.364962" lon="-1.845224"><ele>282</ele><time>2022-03-19T11:30:09Z</time><name>PT3641</name></trkpt>
<trkpt lat="53.364963" lon="-1.845244"><ele>282</ele><time>2022-03-19T11:30:10Z</time><name>PT3642</name></trkpt>
<trkpt lat="53.364966" lon="-1.845258"><ele>282</ele><time>2022-03-19T11:30:10Z</time><name>PT3643</name></trkpt>
<trkpt lat="53.364963" lon="-1.845277"><ele>283</ele><time>2022-03-19T11:30:12Z</time><name>PT3644</name></trkpt>
<trkpt lat="53.364963" lon="-1.845297"><ele>282</ele><time>2022-03-19T11:30:13Z</time><name>PT3645</name></trkpt>
<trkpt lat="53.364965" lon="-1.845316"><ele>281</ele><time>2022-03-19T11:30:13Z</time><name>PT3646</name></trkpt>
<trkpt lat="53.364972" lon="-1.845324"><ele>280</ele><time>2022-03-19T11:30:15Z</time><name>PT3647</name></trkpt>
<trkpt lat="53.364971" lon="-1.845352"><ele>280</ele><time>2022-03-19T11:30:16Z</time><name>PT3648</name></trkpt>
<trkpt lat="53.364966" lon="-1.845388"><ele>282</ele><time>2022-03-19T11:30:16Z</time><name>PT3649</name></trkpt>
<trkpt lat="53.364965" lon="-1.845413"><ele>282</ele><time>2022-03-19T11:30:18Z</time><name>PT3650</name></trkpt>
<trkpt lat="53.364965" lon="-1.845435"><ele>283</ele><time>2022-03-19T11:30:19Z</time><name>PT3651</name></trkpt>
<trkpt lat="53.364961" lon="-1.845462"><ele>283</ele><time>2022-03-19T11:30:19Z</time><name>PT3652</name></trkpt>
<trkpt lat="53.364961" lon="-1.845482"><ele>284</ele><time>2022-03-19T11:30:21Z</time><name>PT3653</name></trkpt>
<trkpt lat="53.364963" lon="-1.845495"><ele>284</ele><time>2022-03-19T11:30:22Z</time><name>PT3654</name></trkpt>
<trkpt lat="53.364961" lon="-1.845517"><ele>285</ele><time>2022-03-19T11:30:22Z</time><name>PT3655</name></trkpt>
<trkpt lat="53.364961" lon="-1.845541"><ele>286</ele><time>2022-03-19T11:30:24Z</time><name>PT3656</name></trkpt>
<trkpt lat="53.364959" lon="-1.845563"><ele>286</ele><time>2022-03-19T11:30:25Z</time><name>PT3657</name></trkpt>
<trkpt lat="53.364956" lon="-1.845582"><ele>287</ele><time>2022-03-19T11:30:25Z</time><name>PT3658</name></trkpt>
<trkpt lat="53.364955" lon="-1.845606"><ele>287</ele><time>2022-03-19T11:30:27Z</time><name>PT3659</name></trkpt>
<trkpt lat="53.364953" lon="-1.845634"><ele>286</ele><time>2022-03-19T11:30:28Z</time><name>PT3660</name></trkpt>
<trkpt lat="53.364955" lon="-1.845644"><ele>286</ele><time>2022-03-19T11:30:28Z</time><name>PT3661</name></trkpt>
<trkpt lat="53.364958" lon="-1.845656"><ele>286</ele><time>2022-03-19T11:30:30Z</time><name>PT3662</name></trkpt>
<trkpt lat="53.364961" lon="-1.845676"><ele>286</ele><time>2022-03-19T11:30:31Z</time><name>PT3663</name></trkpt>
<trkpt lat="53.364961" lon="-1.845697"><ele>286</ele><time>2022-03-19T11:30:31Z</time><name>PT3664</name></trkpt>
<trkpt lat="53.364958" lon="-1.845715"><ele>286</ele><time>2022-03-19T11:30:33Z</time><name>PT3665</name></trkpt>
<trkpt lat="53.364949" lon="-1.845738"><ele>287</ele><time>2022-03-19T11:30:34Z</time><name>PT3666</name></trkpt>
<trkpt lat="53.364943" lon="-1.845763"><ele>289</ele><time>2022-03-19T11:30:34Z</time><name>PT3667</name></trkpt>
<trkpt lat="53.364943" lon="-1.845780"><ele>289</ele><time>2022-03-19T11:30:36Z</time><name>PT3668</name></trkpt>
<trkpt lat="53.364941" lon="-1.845797"><ele>289</ele><time>2022-03-19T11:30:37Z</time><name>PT3669</name></trkpt>
<trkpt lat="53.364938" lon="-1.845819"><ele>289</ele><time>2022-03-19T11:30:37Z</time><name>PT3670</name></trkpt>
<trkpt lat="53.364936" lon="-1.845842"><ele>288</ele><time>2022-03-19T11:30:39Z</time><name>PT3671</name></trkpt>
<trkpt lat="53.364935" lon="-1.845859"><ele>288</ele><time>2022-03-19T11:30:40Z</time><name>PT3672</name></trkpt>
<trkpt lat="53.364935" lon="-1.845881"><ele>288</ele><time>2022-03-19T11:30:40Z</time><name>PT3673</name></trkpt>
<trkpt lat="53.364928" lon="-1.845913"><ele>289</ele><time>2022-03-19T11:30:42Z</time><name>PT3674</name></trkpt>
<trkpt lat="53.364924" lon="-1.845948"><ele>289</ele><time>2022-03-19T11:30:43Z</time><name>PT3675</name></trkpt>
<trkpt lat="53.364921" lon="-1.845979"><ele>288</ele><time>2022-03-19T11:30:43Z</time><name>PT3676</name></trkpt>
<trkpt lat="53.364920" lon="-1.845999"><ele>288</ele><time>2022-03-19T11:30:45Z</time><name>PT3677</name></trkpt>
<trkpt lat="53.364920" lon="-1.846022"><ele>288</ele><time>2022-03-19T11:30:46Z</time><name>PT3678</name></trkpt>
<trkpt lat="53.364918" lon="-1.846047"><ele>287</ele><time>2022-03-19T11:30:46Z</time><name>PT3679</name></trkpt>
<trkpt lat="53.364914" lon="-1.846070"><ele>287</ele><time>2022-03-19T11:30:48Z</time><name>PT3680</name></trkpt>
<trkpt lat="53.364908" lon="-1.846096"><ele>287</ele><time>2022-03-19T11:30:49Z</time><name>PT3681</name></trkpt>
<trkpt lat="53.364904" lon="-1.846120"><ele>286</ele><time>2022-03-19T11:30:49Z</time><name>PT3682</name></trkpt>
<trkpt lat="53.364899" lon="-1.846147"><ele>285</ele><time>2022-03-19T11:30:51Z</time><name>PT3683</name></trkpt>
<trkpt lat="53.364895" lon="-1.846169"><ele>286</ele><time>2022-03-19T11:30:52Z</time><name>PT3684</name></trkpt>
<trkpt lat="53.364892" lon="-1.846190"><ele>286</ele><time>2022-03-19T11:30:52Z</time><name>PT3685</name></trkpt>
<trkpt lat="53.364890" lon="-1.846222"><ele>284</ele><time>2022-03-19T11:30:54Z</time><name>PT3686</name></trkpt>
<trkpt lat="53.364887" lon="-1.846244"><ele>284</ele><time>2022-03-19T11:30:55Z</time><name>PT3687</name></trkpt>
<trkpt lat="53.364880" lon="-1.846264"><ele>284</ele><time>2022-03-19T11:30:55Z</time><name>PT3688</name></trkpt>
<trkpt lat="53.364874" lon="-1.846279"><ele>283</ele><time>2022-03-19T11:30:57Z</time><name>PT3689</name></trkpt>
<trkpt lat="53.364864" lon="-1.846294"><ele>284</ele><time>2022-03-19T11:30:58Z</time><name>PT3690</name></trkpt>
<trkpt lat="53.364853" lon="-1.846308"><ele>284</ele><time>2022-03-19T11:30:58Z</time><name>PT3691</name></trkpt>
<trkpt lat="53.364843" lon="-1.846326"><ele>285</ele><time>2022-03-19T11:31:00Z</time><name>PT3692</name></trkpt>
<trkpt lat="53.364832" lon="-1.846344"><ele>285</ele><time>2022-03-19T11:31:01Z</time><name>PT3693</name></trkpt>
<trkpt lat="53.364820" lon="-1.846362"><ele>284</ele><time>2022-03-19T11:31:01Z</time><name>PT3694</name></trkpt>
<trkpt lat="53.364814" lon="-1.846371"><ele>284</ele><time>2022-03-19T11:31:03Z</time><name>PT3695</name></trkpt>
<trkpt lat="53.364804" lon="-1.846377"><ele>284</ele><time>2022-03-19T11:31:04Z</time><name>PT3696</name></trkpt>
<trkpt lat="53.364793" lon="-1.846385"><ele>284</ele><time>2022-03-19T11:31:04Z</time><name>PT3697</name></trkpt>
<trkpt lat="53.364781" lon="-1.846390"><ele>284</ele><time>2022-03-19T11:31:06Z</time><name>PT3698</name></trkpt>
<trkpt lat="53.364768" lon="-1.846402"><ele>284</ele><time>2022-03-19T11:31:07Z</time><name>PT3699</name></trkpt>
<trkpt lat="53.364757" lon="-1.846418"><ele>284</ele><time>2022-03-19T11:31:07Z</time><name>PT3700</name></trkpt>
<trkpt lat="53.364749" lon="-1.846432"><ele>285</ele><time>2022-03-19T11:31:09Z</time><name>PT3701</name></trkpt>
<trkpt lat="53.364745" lon="-1.846451"><ele>285</ele><time>2022-03-19T11:31:10Z</time><name>PT3702</name></trkpt>
<trkpt lat="53.364742" lon="-1.846469"><ele>284</ele><time>2022-03-19T11:31:10Z</time><name>PT3703</name></trkpt>
<trkpt lat="53.364737" lon="-1.846489"><ele>284</ele><time>2022-03-19T11:31:12Z</time><name>PT3704</name></trkpt>
<trkpt lat="53.364732" lon="-1.846507"><ele>284</ele><time>2022-03-19T11:31:13Z</time><name>PT3705</name></trkpt>
<trkpt lat="53.364718" lon="-1.846573"><ele>283</ele><time>2022-03-19T11:31:16Z</time><name>PT3706</name></trkpt>
<trkpt lat="53.364716" lon="-1.846586"><ele>283</ele><time>2022-03-19T11:31:19Z</time><name>PT3707</name></trkpt>
<trkpt lat="53.364710" lon="-1.846635"><ele>284</ele><time>2022-03-19T11:31:31Z</time><name>PT3708</name></trkpt>
<trkpt lat="53.364702" lon="-1.846703"><ele>284</ele><time>2022-03-19T11:31:36Z</time><name>PT3709</name></trkpt>
<trkpt lat="53.364696" lon="-1.846743"><ele>285</ele><time>2022-03-19T11:31:39Z</time><name>PT3710</name></trkpt>
<trkpt lat="53.364694" lon="-1.846790"><ele>284</ele><time>2022-03-19T11:31:42Z</time><name>PT3711</name></trkpt>
<trkpt lat="53.364682" lon="-1.846845"><ele>282</ele><time>2022-03-19T11:31:46Z</time><name>PT3712</name></trkpt>
<trkpt lat="53.364652" lon="-1.846883"><ele>280</ele><time>2022-03-19T11:31:49Z</time><name>PT3713</name></trkpt>
<trkpt lat="53.364621" lon="-1.846921"><ele>278</ele><time>2022-03-19T11:31:54Z</time><name>PT3714</name></trkpt>
<trkpt lat="53.364583" lon="-1.846976"><ele>278</ele><time>2022-03-19T11:31:58Z</time><name>PT3715</name></trkpt>
<trkpt lat="53.364549" lon="-1.847018"><ele>278</ele><time>2022-03-19T11:32:01Z</time><name>PT3716</name></trkpt>
<trkpt lat="53.364518" lon="-1.847082"><ele>277</ele><time>2022-03-19T11:32:06Z</time><name>PT3717</name></trkpt>
<trkpt lat="53.364497" lon="-1.847126"><ele>276</ele><time>2022-03-19T11:32:09Z</time><name>PT3718</name></trkpt>
<trkpt lat="53.364470" lon="-1.847144"><ele>275</ele><time>2022-03-19T11:32:12Z</time><name>PT3719</name></trkpt>
<trkpt lat="53.364444" lon="-1.847159"><ele>275</ele><time>2022-03-19T11:32:15Z</time><name>PT3720</name></trkpt>
<trkpt lat="53.364433" lon="-1.847178"><ele>275</ele><time>2022-03-19T11:32:16Z</time><name>PT3721</name></trkpt>
<trkpt lat="53.364420" lon="-1.847194"><ele>277</ele><time>2022-03-19T11:32:16Z</time><name>PT3722</name></trkpt>
<trkpt lat="53.364412" lon="-1.847203"><ele>277</ele><time>2022-03-19T11:32:18Z</time><name>PT3723</name></trkpt>
<trkpt lat="53.364408" lon="-1.847216"><ele>278</ele><time>2022-03-19T11:32:19Z</time><name>PT3724</name></trkpt>
<trkpt lat="53.364407" lon="-1.847234"><ele>277</ele><time>2022-03-19T11:32:19Z</time><name>PT3725</name></trkpt>
<trkpt lat="53.364406" lon="-1.847243"><ele>277</ele><time>2022-03-19T11:32:21Z</time><name>PT3726</name></trkpt>
<trkpt lat="53.364401" lon="-1.847253"><ele>277</ele><time>2022-03-19T11:32:22Z</time><name>PT3727</name></trkpt>
<trkpt lat="53.364400" lon="-1.847260"><ele>277</ele><time>2022-03-19T11:32:22Z</time><name>PT3728</name></trkpt>
<trkpt lat="53.364398" lon="-1.847273"><ele>277</ele><time>2022-03-19T11:32:24Z</time><name>PT3729</name></trkpt>
<trkpt lat="53.364394" lon="-1.847287"><ele>278</ele><time>2022-03-19T11:32:25Z</time><name>PT3730</name></trkpt>
<trkpt lat="53.364393" lon="-1.847298"><ele>278</ele><time>2022-03-19T11:32:25Z</time><name>PT3731</name></trkpt>
<trkpt lat="53.364391" lon="-1.847300"><ele>279</ele><time>2022-03-19T11:32:27Z</time><name>PT3732</name></trkpt>
<trkpt lat="53.364391" lon="-1.847304"><ele>280</ele><time>2022-03-19T11:32:28Z</time><name>PT3733</name></trkpt>
<trkpt lat="53.364392" lon="-1.847307"><ele>280</ele><time>2022-03-19T11:32:28Z</time><name>PT3734</name></trkpt>
<trkpt lat="53.364392" lon="-1.847309"><ele>280</ele><time>2022-03-19T11:32:30Z</time><name>PT3735</name></trkpt>
<trkpt lat="53.364391" lon="-1.847311"><ele>280</ele><time>2022-03-19T11:32:31Z</time><name>PT3736</name></trkpt>
<trkpt lat="53.364388" lon="-1.847313"><ele>280</ele><time>2022-03-19T11:32:31Z</time><name>PT3737</name></trkpt>
<trkpt lat="53.364389" lon="-1.847308"><ele>279</ele><time>2022-03-19T11:33:00Z</time><name>PT3738</name></trkpt>
<trkpt lat="53.364391" lon="-1.847295"><ele>279</ele><time>2022-03-19T11:33:01Z</time><name>PT3739</name></trkpt>
<trkpt lat="53.364390" lon="-1.847279"><ele>279</ele><time>2022-03-19T11:33:01Z</time><name>PT3740</name></trkpt>
<trkpt lat="53.364387" lon="-1.847271"><ele>278</ele><time>2022-03-19T11:33:03Z</time><name>PT3741</name></trkpt>
<trkpt lat="53.364380" lon="-1.847267"><ele>279</ele><time>2022-03-19T11:33:04Z</time><name>PT3742</name></trkpt>
<trkpt lat="53.364375" lon="-1.847275"><ele>278</ele><time>2022-03-19T11:33:04Z</time><name>PT3743</name></trkpt>
<trkpt lat="53.364370" lon="-1.847290"><ele>279</ele><time>2022-03-19T11:33:06Z</time><name>PT3744</name></trkpt>
<trkpt lat="53.364366" lon="-1.847299"><ele>279</ele><time>2022-03-19T11:33:07Z</time><name>PT3745</name></trkpt>
<trkpt lat="53.364365" lon="-1.847301"><ele>279</ele><time>2022-03-19T11:33:07Z</time><name>PT3746</name></trkpt>
<trkpt lat="53.364365" lon="-1.847305"><ele>280</ele><time>2022-03-19T11:33:09Z</time><name>PT3747</name></trkpt>
<trkpt lat="53.364367" lon="-1.847300"><ele>280</ele><time>2022-03-19T11:33:28Z</time><name>PT3748</name></trkpt>
<trkpt lat="53.364369" lon="-1.847299"><ele>280</ele><time>2022-03-19T11:33:28Z</time><name>PT3749</name></trkpt>
<trkpt lat="53.364372" lon="-1.847297"><ele>280</ele><time>2022-03-19T11:34:34Z</time><name>PT3750</name></trkpt>
<trkpt lat="53.364373" lon="-1.847290"><ele>280</ele><time>2022-03-19T11:34:35Z</time><name>PT3751</name></trkpt>
<trkpt lat="53.364374" lon="-1.847279"><ele>280</ele><time>2022-03-19T11:34:36Z</time><name>PT3752</name></trkpt>
<trkpt lat="53.364376" lon="-1.847273"><ele>280</ele><time>2022-03-19T11:34:37Z</time><name>PT3753</name></trkpt>
<trkpt lat="53.364379" lon="-1.847272"><ele>280</ele><time>2022-03-19T11:34:52Z</time><name>PT3754</name></trkpt>
<trkpt lat="53.364380" lon="-1.847269"><ele>280</ele><time>2022-03-19T11:34:52Z</time><name>PT3755</name></trkpt>
<trkpt lat="53.364378" lon="-1.847269"><ele>280</ele><time>2022-03-19T11:34:54Z</time><name>PT3756</name></trkpt>
<trkpt lat="53.364375" lon="-1.847269"><ele>280</ele><time>2022-03-19T11:34:55Z</time><name>PT3757</name></trkpt>
<trkpt lat="53.364377" lon="-1.847277"><ele>279</ele><time>2022-03-19T11:35:43Z</time><name>PT3758</name></trkpt>
<trkpt lat="53.364385" lon="-1.847286"><ele>279</ele><time>2022-03-19T11:35:43Z</time><name>PT3759</name></trkpt>
<trkpt lat="53.364391" lon="-1.847296"><ele>279</ele><time>2022-03-19T11:35:45Z</time><name>PT3760</name></trkpt>
<trkpt lat="53.364399" lon="-1.847300"><ele>279</ele><time>2022-03-19T11:35:46Z</time><name>PT3761</name></trkpt>
<trkpt lat="53.364406" lon="-1.847305"><ele>279</ele><time>2022-03-19T11:35:46Z</time><name>PT3762</name></trkpt>
<trkpt lat="53.364414" lon="-1.847311"><ele>278</ele><time>2022-03-19T11:35:48Z</time><name>PT3763</name></trkpt>
<trkpt lat="53.364425" lon="-1.847316"><ele>279</ele><time>2022-03-19T11:35:49Z</time><name>PT3764</name></trkpt>
<trkpt lat="53.364435" lon="-1.847319"><ele>278</ele><time>2022-03-19T11:35:49Z</time><name>PT3765</name></trkpt>
<trkpt lat="53.364447" lon="-1.847323"><ele>278</ele><time>2022-03-19T11:35:51Z</time><name>PT3766</name></trkpt>
<trkpt lat="53.364459" lon="-1.847322"><ele>278</ele><time>2022-03-19T11:35:52Z</time><name>PT3767</name></trkpt>
<trkpt lat="53.364466" lon="-1.847322"><ele>277</ele><time>2022-03-19T11:35:52Z</time><name>PT3768</name></trkpt>
<trkpt lat="53.364472" lon="-1.847323"><ele>277</ele><time>2022-03-19T11:35:54Z</time><name>PT3769</name></trkpt>
<trkpt lat="53.364476" lon="-1.847323"><ele>276</ele><time>2022-03-19T11:35:55Z</time><name>PT3770</name></trkpt>
<trkpt lat="53.364474" lon="-1.847329"><ele>276</ele><time>2022-03-19T11:35:58Z</time><name>PT3771</name></trkpt>
<trkpt lat="53.364488" lon="-1.847344"><ele>275</ele><time>2022-03-19T11:35:58Z</time><name>PT3772</name></trkpt>
<trkpt lat="53.364498" lon="-1.847355"><ele>274</ele><time>2022-03-19T11:36:00Z</time><name>PT3773</name></trkpt>
<trkpt lat="53.364504" lon="-1.847357"><ele>273</ele><time>2022-03-19T11:36:01Z</time><name>PT3774</name></trkpt>
<trkpt lat="53.364510" lon="-1.847366"><ele>272</ele><time>2022-03-19T11:36:01Z</time><name>PT3775</name></trkpt>
<trkpt lat="53.364516" lon="-1.847375"><ele>271</ele><time>2022-03-19T11:36:03Z</time><name>PT3776</name></trkpt>
<trkpt lat="53.364527" lon="-1.847390"><ele>270</ele><time>2022-03-19T11:36:04Z</time><name>PT3777</name></trkpt>
<trkpt lat="53.364534" lon="-1.847396"><ele>269</ele><time>2022-03-19T11:36:04Z</time><name>PT3778</name></trkpt>
<trkpt lat="53.364545" lon="-1.847409"><ele>269</ele><time>2022-03-19T11:36:06Z</time><name>PT3779</name></trkpt>
<trkpt lat="53.364552" lon="-1.847420"><ele>268</ele><time>2022-03-19T11:36:07Z</time><name>PT3780</name></trkpt>
<trkpt lat="53.364561" lon="-1.847431"><ele>268</ele><time>2022-03-19T11:36:07Z</time><name>PT3781</name></trkpt>
<trkpt lat="53.364567" lon="-1.847440"><ele>268</ele><time>2022-03-19T11:36:09Z</time><name>PT3782</name></trkpt>
<trkpt lat="53.364573" lon="-1.847453"><ele>269</ele><time>2022-03-19T11:36:10Z</time><name>PT3783</name></trkpt>
<trkpt lat="53.364574" lon="-1.847468"><ele>267</ele><time>2022-03-19T11:36:10Z</time><name>PT3784</name></trkpt>
<trkpt lat="53.364578" lon="-1.847482"><ele>266</ele><time>2022-03-19T11:36:12Z</time><name>PT3785</name></trkpt>
<trkpt lat="53.364585" lon="-1.847497"><ele>266</ele><time>2022-03-19T11:36:13Z</time><name>PT3786</name></trkpt>
<trkpt lat="53.364597" lon="-1.847518"><ele>267</ele><time>2022-03-19T11:36:13Z</time><name>PT3787</name></trkpt>
<trkpt lat="53.364606" lon="-1.847530"><ele>268</ele><time>2022-03-19T11:36:15Z</time><name>PT3788</name></trkpt>
<trkpt lat="53.364610" lon="-1.847539"><ele>268</ele><time>2022-03-19T11:36:16Z</time><name>PT3789</name></trkpt>
<trkpt lat="53.364618" lon="-1.847556"><ele>269</ele><time>2022-03-19T11:36:16Z</time><name>PT3790</name></trkpt>
<trkpt lat="53.364619" lon="-1.847567"><ele>270</ele><time>2022-03-19T11:36:18Z</time><name>PT3791</name></trkpt>
<trkpt lat="53.364619" lon="-1.847583"><ele>270</ele><time>2022-03-19T11:36:19Z</time><name>PT3792</name></trkpt>
<trkpt lat="53.364624" lon="-1.847612"><ele>273</ele><time>2022-03-19T11:36:19Z</time><name>PT3793</name></trkpt>
<trkpt lat="53.364622" lon="-1.847626"><ele>273</ele><time>2022-03-19T11:36:21Z</time><name>PT3794</name></trkpt>
<trkpt lat="53.364624" lon="-1.847640"><ele>274</ele><time>2022-03-19T11:36:22Z</time><name>PT3795</name></trkpt>
<trkpt lat="53.364625" lon="-1.847655"><ele>274</ele><time>2022-03-19T11:36:22Z</time><name>PT3796</name></trkpt>
<trkpt lat="53.364623" lon="-1.847670"><ele>275</ele><time>2022-03-19T11:36:24Z</time><name>PT3797</name></trkpt>
<trkpt lat="53.364619" lon="-1.847685"><ele>275</ele><time>2022-03-19T11:36:25Z</time><name>PT3798</name></trkpt>
<trkpt lat="53.364614" lon="-1.847700"><ele>274</ele><time>2022-03-19T11:36:25Z</time><name>PT3799</name></trkpt>
<trkpt lat="53.364609" lon="-1.847713"><ele>274</ele><time>2022-03-19T11:36:27Z</time><name>PT3800</name></trkpt>
<trkpt lat="53.364607" lon="-1.847723"><ele>275</ele><time>2022-03-19T11:36:28Z</time><name>PT3801</name></trkpt>
<trkpt lat="53.364602" lon="-1.847743"><ele>275</ele><time>2022-03-19T11:36:28Z</time><name>PT3802</name></trkpt>
<trkpt lat="53.364585" lon="-1.847793"><ele>277</ele><time>2022-03-19T11:36:31Z</time><name>PT3803</name></trkpt>
<trkpt lat="53.364589" lon="-1.847861"><ele>278</ele><time>2022-03-19T11:36:36Z</time><name>PT3804</name></trkpt>
<trkpt lat="53.364595" lon="-1.847931"><ele>280</ele><time>2022-03-19T11:36:40Z</time><name>PT3805</name></trkpt>
<trkpt lat="53.364604" lon="-1.847985"><ele>281</ele><time>2022-03-19T11:36:43Z</time><name>PT3806</name></trkpt>
<trkpt lat="53.364608" lon="-1.848051"><ele>280</ele><time>2022-03-19T11:36:46Z</time><name>PT3807</name></trkpt>
<trkpt lat="53.364628" lon="-1.848099"><ele>279</ele><time>2022-03-19T11:36:51Z</time><name>PT3808</name></trkpt>
<trkpt lat="53.364656" lon="-1.848134"><ele>279</ele><time>2022-03-19T11:36:55Z</time><name>PT3809</name></trkpt>
<trkpt lat="53.364674" lon="-1.848168"><ele>278</ele><time>2022-03-19T11:36:58Z</time><name>PT3810</name></trkpt>
<trkpt lat="53.364698" lon="-1.848200"><ele>278</ele><time>2022-03-19T11:37:01Z</time><name>PT3811</name></trkpt>
<trkpt lat="53.364736" lon="-1.848244"><ele>278</ele><time>2022-03-19T11:37:04Z</time><name>PT3812</name></trkpt>
<trkpt lat="53.364760" lon="-1.848284"><ele>277</ele><time>2022-03-19T11:37:07Z</time><name>PT3813</name></trkpt>
<trkpt lat="53.364795" lon="-1.848319"><ele>278</ele><time>2022-03-19T11:37:12Z</time><name>PT3814</name></trkpt>
<trkpt lat="53.364826" lon="-1.848356"><ele>278</ele><time>2022-03-19T11:37:15Z</time><name>PT3815</name></trkpt>
<trkpt lat="53.364858" lon="-1.848382"><ele>278</ele><time>2022-03-19T11:37:19Z</time><name>PT3816</name></trkpt>
<trkpt lat="53.364883" lon="-1.848410"><ele>277</ele><time>2022-03-19T11:37:22Z</time><name>PT3817</name></trkpt>
<trkpt lat="53.364897" lon="-1.848443"><ele>276</ele><time>2022-03-19T11:37:25Z</time><name>PT3818</name></trkpt>
<trkpt lat="53.364931" lon="-1.848486"><ele>275</ele><time>2022-03-19T11:37:30Z</time><name>PT3819</name></trkpt>
<trkpt lat="53.364954" lon="-1.848516"><ele>274</ele><time>2022-03-19T11:37:33Z</time><name>PT3820</name></trkpt>
<trkpt lat="53.364974" lon="-1.848543"><ele>273</ele><time>2022-03-19T11:37:36Z</time><name>PT3821</name></trkpt>
<trkpt lat="53.365004" lon="-1.848582"><ele>274</ele><time>2022-03-19T11:37:39Z</time><name>PT3822</name></trkpt>
<trkpt lat="53.365045" lon="-1.848621"><ele>274</ele><time>2022-03-19T11:37:43Z</time><name>PT3823</name></trkpt>
<trkpt lat="53.365068" lon="-1.848656"><ele>274</ele><time>2022-03-19T11:37:46Z</time><name>PT3824</name></trkpt>
<trkpt lat="53.365096" lon="-1.848695"><ele>275</ele><time>2022-03-19T11:37:49Z</time><name>PT3825</name></trkpt>
<trkpt lat="53.365126" lon="-1.848730"><ele>276</ele><time>2022-03-19T11:37:52Z</time><name>PT3826</name></trkpt>
<trkpt lat="53.365177" lon="-1.848783"><ele>278</ele><time>2022-03-19T11:37:55Z</time><name>PT3827</name></trkpt>
<trkpt lat="53.365221" lon="-1.848833"><ele>281</ele><time>2022-03-19T11:38:00Z</time><name>PT3828</name></trkpt>
<trkpt lat="53.365249" lon="-1.848874"><ele>282</ele><time>2022-03-19T11:38:03Z</time><name>PT3829</name></trkpt>
<trkpt lat="53.365298" lon="-1.848941"><ele>283</ele><time>2022-03-19T11:38:07Z</time><name>PT3830</name></trkpt>
<trkpt lat="53.365323" lon="-1.848990"><ele>283</ele><time>2022-03-19T11:38:10Z</time><name>PT3831</name></trkpt>
<trkpt lat="53.365355" lon="-1.849053"><ele>283</ele><time>2022-03-19T11:38:13Z</time><name>PT3832</name></trkpt>
<trkpt lat="53.365392" lon="-1.849116"><ele>284</ele><time>2022-03-19T11:38:18Z</time><name>PT3833</name></trkpt>
<trkpt lat="53.365415" lon="-1.849170"><ele>285</ele><time>2022-03-19T11:38:21Z</time><name>PT3834</name></trkpt>
<trkpt lat="53.365446" lon="-1.849225"><ele>286</ele><time>2022-03-19T11:38:25Z</time><name>PT3835</name></trkpt>
<trkpt lat="53.365467" lon="-1.849285"><ele>287</ele><time>2022-03-19T11:38:28Z</time><name>PT3836</name></trkpt>
<trkpt lat="53.365490" lon="-1.849335"><ele>287</ele><time>2022-03-19T11:38:31Z</time><name>PT3837</name></trkpt>
<trkpt lat="53.365517" lon="-1.849406"><ele>288</ele><time>2022-03-19T11:38:34Z</time><name>PT3838</name></trkpt>
<trkpt lat="53.365546" lon="-1.849475"><ele>289</ele><time>2022-03-19T11:38:39Z</time><name>PT3839</name></trkpt>
<trkpt lat="53.365565" lon="-1.849531"><ele>289</ele><time>2022-03-19T11:38:42Z</time><name>PT3840</name></trkpt>
<trkpt lat="53.365576" lon="-1.849595"><ele>289</ele><time>2022-03-19T11:38:46Z</time><name>PT3841</name></trkpt>
<trkpt lat="53.365586" lon="-1.849657"><ele>290</ele><time>2022-03-19T11:38:49Z</time><name>PT3842</name></trkpt>
<trkpt lat="53.365599" lon="-1.849743"><ele>289</ele><time>2022-03-19T11:38:52Z</time><name>PT3843</name></trkpt>
<trkpt lat="53.365607" lon="-1.849826"><ele>288</ele><time>2022-03-19T11:38:57Z</time><name>PT3844</name></trkpt>
<trkpt lat="53.365612" lon="-1.849892"><ele>288</ele><time>2022-03-19T11:39:00Z</time><name>PT3845</name></trkpt>
<trkpt lat="53.365623" lon="-1.849985"><ele>287</ele><time>2022-03-19T11:39:04Z</time><name>PT3846</name></trkpt>
<trkpt lat="53.365625" lon="-1.850043"><ele>288</ele><time>2022-03-19T11:39:07Z</time><name>PT3847</name></trkpt>
<trkpt lat="53.365632" lon="-1.850128"><ele>288</ele><time>2022-03-19T11:39:10Z</time><name>PT3848</name></trkpt>
<trkpt lat="53.365636" lon="-1.850223"><ele>289</ele><time>2022-03-19T11:39:15Z</time><name>PT3849</name></trkpt>
<trkpt lat="53.365633" lon="-1.850280"><ele>289</ele><time>2022-03-19T11:39:18Z</time><name>PT3850</name></trkpt>
<trkpt lat="53.365635" lon="-1.850344"><ele>290</ele><time>2022-03-19T11:39:21Z</time><name>PT3851</name></trkpt>
<trkpt lat="53.365638" lon="-1.850425"><ele>290</ele><time>2022-03-19T11:39:25Z</time><name>PT3852</name></trkpt>
<trkpt lat="53.365645" lon="-1.850473"><ele>291</ele><time>2022-03-19T11:39:28Z</time><name>PT3853</name></trkpt>
<trkpt lat="53.365637" lon="-1.850550"><ele>291</ele><time>2022-03-19T11:39:31Z</time><name>PT3854</name></trkpt>
<trkpt lat="53.365647" lon="-1.850648"><ele>292</ele><time>2022-03-19T11:39:36Z</time><name>PT3855</name></trkpt>
<trkpt lat="53.365648" lon="-1.850720"><ele>293</ele><time>2022-03-19T11:39:39Z</time><name>PT3856</name></trkpt>
<trkpt lat="53.365665" lon="-1.850810"><ele>293</ele><time>2022-03-19T11:39:43Z</time><name>PT3857</name></trkpt>
<trkpt lat="53.365678" lon="-1.850893"><ele>292</ele><time>2022-03-19T11:39:46Z</time><name>PT3858</name></trkpt>
<trkpt lat="53.365696" lon="-1.850992"><ele>292</ele><time>2022-03-19T11:39:49Z</time><name>PT3859</name></trkpt>
<trkpt lat="53.365718" lon="-1.851081"><ele>292</ele><time>2022-03-19T11:39:54Z</time><name>PT3860</name></trkpt>
<trkpt lat="53.365733" lon="-1.851152"><ele>292</ele><time>2022-03-19T11:39:57Z</time><name>PT3861</name></trkpt>
<trkpt lat="53.365759" lon="-1.851230"><ele>292</ele><time>2022-03-19T11:40:01Z</time><name>PT3862</name></trkpt>
<trkpt lat="53.365778" lon="-1.851284"><ele>293</ele><time>2022-03-19T11:40:04Z</time><name>PT3863</name></trkpt>
<trkpt lat="53.365801" lon="-1.851356"><ele>293</ele><time>2022-03-19T11:40:07Z</time><name>PT3864</name></trkpt>
<trkpt lat="53.365818" lon="-1.851404"><ele>295</ele><time>2022-03-19T11:40:10Z</time><name>PT3865</name></trkpt>
<trkpt lat="53.365839" lon="-1.851470"><ele>294</ele><time>2022-03-19T11:40:15Z</time><name>PT3866</name></trkpt>
<trkpt lat="53.365853" lon="-1.851529"><ele>293</ele><time>2022-03-19T11:40:18Z</time><name>PT3867</name></trkpt>
<trkpt lat="53.365873" lon="-1.851582"><ele>294</ele><time>2022-03-19T11:40:21Z</time><name>PT3868</name></trkpt>
<trkpt lat="53.365890" lon="-1.851659"><ele>294</ele><time>2022-03-19T11:40:25Z</time><name>PT3869</name></trkpt>
<trkpt lat="53.365904" lon="-1.851719"><ele>294</ele><time>2022-03-19T11:40:28Z</time><name>PT3870</name></trkpt>
<trkpt lat="53.365911" lon="-1.851795"><ele>296</ele><time>2022-03-19T11:40:31Z</time><name>PT3871</name></trkpt>
<trkpt lat="53.365918" lon="-1.851849"><ele>297</ele><time>2022-03-19T11:40:34Z</time><name>PT3872</name></trkpt>
<trkpt lat="53.365920" lon="-1.851888"><ele>297</ele><time>2022-03-19T11:40:37Z</time><name>PT3873</name></trkpt>
<trkpt lat="53.365920" lon="-1.851905"><ele>297</ele><time>2022-03-19T11:40:37Z</time><name>PT3874</name></trkpt>
<trkpt lat="53.365921" lon="-1.851934"><ele>298</ele><time>2022-03-19T11:40:39Z</time><name>PT3875</name></trkpt>
<trkpt lat="53.365922" lon="-1.851961"><ele>299</ele><time>2022-03-19T11:40:40Z</time><name>PT3876</name></trkpt>
<trkpt lat="53.365921" lon="-1.851987"><ele>298</ele><time>2022-03-19T11:40:40Z</time><name>PT3877</name></trkpt>
<trkpt lat="53.365922" lon="-1.852014"><ele>297</ele><time>2022-03-19T11:40:42Z</time><name>PT3878</name></trkpt>
<trkpt lat="53.365921" lon="-1.852043"><ele>297</ele><time>2022-03-19T11:40:43Z</time><name>PT3879</name></trkpt>
<trkpt lat="53.365923" lon="-1.852070"><ele>297</ele><time>2022-03-19T11:40:43Z</time><name>PT3880</name></trkpt>
<trkpt lat="53.365922" lon="-1.852095"><ele>297</ele><time>2022-03-19T11:40:45Z</time><name>PT3881</name></trkpt>
<trkpt lat="53.365921" lon="-1.852119"><ele>296</ele><time>2022-03-19T11:40:46Z</time><name>PT3882</name></trkpt>
<trkpt lat="53.365920" lon="-1.852142"><ele>296</ele><time>2022-03-19T11:40:46Z</time><name>PT3883</name></trkpt>
<trkpt lat="53.365919" lon="-1.852166"><ele>296</ele><time>2022-03-19T11:40:48Z</time><name>PT3884</name></trkpt>
<trkpt lat="53.365918" lon="-1.852188"><ele>296</ele><time>2022-03-19T11:40:49Z</time><name>PT3885</name></trkpt>
<trkpt lat="53.365918" lon="-1.852210"><ele>296</ele><time>2022-03-19T11:40:49Z</time><name>PT3886</name></trkpt>
<trkpt lat="53.365919" lon="-1.852231"><ele>296</ele><time>2022-03-19T11:40:51Z</time><name>PT3887</name></trkpt>
<trkpt lat="53.365919" lon="-1.852253"><ele>296</ele><time>2022-03-19T11:40:52Z</time><name>PT3888</name></trkpt>
<trkpt lat="53.365918" lon="-1.852276"><ele>296</ele><time>2022-03-19T11:40:52Z</time><name>PT3889</name></trkpt>
<trkpt lat="53.365915" lon="-1.852297"><ele>295</ele><time>2022-03-19T11:40:54Z</time><name>PT3890</name></trkpt>
<trkpt lat="53.365914" lon="-1.852318"><ele>295</ele><time>2022-03-19T11:40:55Z</time><name>PT3891</name></trkpt>
<trkpt lat="53.365911" lon="-1.852338"><ele>295</ele><time>2022-03-19T11:40:55Z</time><name>PT3892</name></trkpt>
<trkpt lat="53.365909" lon="-1.852359"><ele>295</ele><time>2022-03-19T11:40:57Z</time><name>PT3893</name></trkpt>
<trkpt lat="53.365908" lon="-1.852382"><ele>295</ele><time>2022-03-19T11:40:58Z</time><name>PT3894</name></trkpt>
<trkpt lat="53.365907" lon="-1.852404"><ele>295</ele><time>2022-03-19T11:40:58Z</time><name>PT3895</name></trkpt>
<trkpt lat="53.365905" lon="-1.852425"><ele>294</ele><time>2022-03-19T11:41:00Z</time><name>PT3896</name></trkpt>
<trkpt lat="53.365903" lon="-1.852447"><ele>295</ele><time>2022-03-19T11:41:01Z</time><name>PT3897</name></trkpt>
<trkpt lat="53.365904" lon="-1.852466"><ele>294</ele><time>2022-03-19T11:41:01Z</time><name>PT3898</name></trkpt>
<trkpt lat="53.365912" lon="-1.852491"><ele>294</ele><time>2022-03-19T11:41:03Z</time><name>PT3899</name></trkpt>
<trkpt lat="53.365917" lon="-1.852513"><ele>294</ele><time>2022-03-19T11:41:04Z</time><name>PT3900</name></trkpt>
<trkpt lat="53.365914" lon="-1.852528"><ele>295</ele><time>2022-03-19T11:41:04Z</time><name>PT3901</name></trkpt>
<trkpt lat="53.365911" lon="-1.852545"><ele>295</ele><time>2022-03-19T11:41:06Z</time><name>PT3902</name></trkpt>
<trkpt lat="53.365908" lon="-1.852565"><ele>295</ele><time>2022-03-19T11:41:07Z</time><name>PT3903</name></trkpt>
<trkpt lat="53.365906" lon="-1.852587"><ele>294</ele><time>2022-03-19T11:41:07Z</time><name>PT3904</name></trkpt>
<trkpt lat="53.365902" lon="-1.852606"><ele>294</ele><time>2022-03-19T11:41:09Z</time><name>PT3905</name></trkpt>
<trkpt lat="53.365898" lon="-1.852628"><ele>294</ele><time>2022-03-19T11:41:10Z</time><name>PT3906</name></trkpt>
<trkpt lat="53.365896" lon="-1.852648"><ele>294</ele><time>2022-03-19T11:41:11Z</time><name>PT3907</name></trkpt>
<trkpt lat="53.365898" lon="-1.852670"><ele>295</ele><time>2022-03-19T11:41:12Z</time><name>PT3908</name></trkpt>
<trkpt lat="53.365899" lon="-1.852686"><ele>295</ele><time>2022-03-19T11:41:13Z</time><name>PT3909</name></trkpt>
<trkpt lat="53.365900" lon="-1.852703"><ele>295</ele><time>2022-03-19T11:41:14Z</time><name>PT3910</name></trkpt>
<trkpt lat="53.365897" lon="-1.852721"><ele>294</ele><time>2022-03-19T11:41:15Z</time><name>PT3911</name></trkpt>
<trkpt lat="53.365892" lon="-1.852737"><ele>294</ele><time>2022-03-19T11:41:16Z</time><name>PT3912</name></trkpt>
<trkpt lat="53.365887" lon="-1.852753"><ele>294</ele><time>2022-03-19T11:41:17Z</time><name>PT3913</name></trkpt>
<trkpt lat="53.365884" lon="-1.852770"><ele>294</ele><time>2022-03-19T11:41:18Z</time><name>PT3914</name></trkpt>
<trkpt lat="53.365879" lon="-1.852789"><ele>294</ele><time>2022-03-19T11:41:19Z</time><name>PT3915</name></trkpt>
<trkpt lat="53.365880" lon="-1.852807"><ele>294</ele><time>2022-03-19T11:41:20Z</time><name>PT3916</name></trkpt>
<trkpt lat="53.365881" lon="-1.852821"><ele>294</ele><time>2022-03-19T11:41:21Z</time><name>PT3917</name></trkpt>
<trkpt lat="53.365886" lon="-1.852840"><ele>294</ele><time>2022-03-19T11:41:22Z</time><name>PT3918</name></trkpt>
<trkpt lat="53.365888" lon="-1.852856"><ele>294</ele><time>2022-03-19T11:41:23Z</time><name>PT3919</name></trkpt>
<trkpt lat="53.365887" lon="-1.852872"><ele>293</ele><time>2022-03-19T11:41:24Z</time><name>PT3920</name></trkpt>
<trkpt lat="53.365887" lon="-1.852885"><ele>292</ele><time>2022-03-19T11:41:25Z</time><name>PT3921</name></trkpt>
<trkpt lat="53.365887" lon="-1.852901"><ele>293</ele><time>2022-03-19T11:41:25Z</time><name>PT3922</name></trkpt>
<trkpt lat="53.365886" lon="-1.852918"><ele>292</ele><time>2022-03-19T11:41:27Z</time><name>PT3923</name></trkpt>
<trkpt lat="53.365883" lon="-1.852937"><ele>291</ele><time>2022-03-19T11:41:28Z</time><name>PT3924</name></trkpt>
<trkpt lat="53.365883" lon="-1.852961"><ele>291</ele><time>2022-03-19T11:41:28Z</time><name>PT3925</name></trkpt>
<trkpt lat="53.365889" lon="-1.852984"><ele>294</ele><time>2022-03-19T11:41:30Z</time><name>PT3926</name></trkpt>
<trkpt lat="53.365889" lon="-1.853005"><ele>294</ele><time>2022-03-19T11:41:31Z</time><name>PT3927</name></trkpt>
<trkpt lat="53.365889" lon="-1.853021"><ele>294</ele><time>2022-03-19T11:41:31Z</time><name>PT3928</name></trkpt>
<trkpt lat="53.365888" lon="-1.853038"><ele>293</ele><time>2022-03-19T11:41:33Z</time><name>PT3929</name></trkpt>
<trkpt lat="53.365884" lon="-1.853063"><ele>293</ele><time>2022-03-19T11:41:34Z</time><name>PT3930</name></trkpt>
<trkpt lat="53.365882" lon="-1.853086"><ele>291</ele><time>2022-03-19T11:41:34Z</time><name>PT3931</name></trkpt>
<trkpt lat="53.365883" lon="-1.853106"><ele>290</ele><time>2022-03-19T11:41:36Z</time><name>PT3932</name></trkpt>
<trkpt lat="53.365881" lon="-1.853126"><ele>290</ele><time>2022-03-19T11:41:37Z</time><name>PT3933</name></trkpt>
<trkpt lat="53.365884" lon="-1.853149"><ele>290</ele><time>2022-03-19T11:41:37Z</time><name>PT3934</name></trkpt>
<trkpt lat="53.365883" lon="-1.853172"><ele>289</ele><time>2022-03-19T11:41:39Z</time><name>PT3935</name></trkpt>
<trkpt lat="53.365884" lon="-1.853194"><ele>289</ele><time>2022-03-19T11:41:40Z</time><name>PT3936</name></trkpt>
<trkpt lat="53.365883" lon="-1.853215"><ele>289</ele><time>2022-03-19T11:41:40Z</time><name>PT3937</name></trkpt>
<trkpt lat="53.365884" lon="-1.853242"><ele>289</ele><time>2022-03-19T11:41:42Z</time><name>PT3938</name></trkpt>
<trkpt lat="53.365884" lon="-1.853263"><ele>289</ele><time>2022-03-19T11:41:43Z</time><name>PT3939</name></trkpt>
<trkpt lat="53.365882" lon="-1.853283"><ele>288</ele><time>2022-03-19T11:41:43Z</time><name>PT3940</name></trkpt>
<trkpt lat="53.365882" lon="-1.853302"><ele>288</ele><time>2022-03-19T11:41:45Z</time><name>PT3941</name></trkpt>
<trkpt lat="53.365887" lon="-1.853329"><ele>288</ele><time>2022-03-19T11:41:46Z</time><name>PT3942</name></trkpt>
<trkpt lat="53.365895" lon="-1.853363"><ele>288</ele><time>2022-03-19T11:41:46Z</time><name>PT3943</name></trkpt>
<trkpt lat="53.365900" lon="-1.853390"><ele>288</ele><time>2022-03-19T11:41:48Z</time><name>PT3944</name></trkpt>
<trkpt lat="53.365904" lon="-1.853412"><ele>288</ele><time>2022-03-19T11:41:49Z</time><name>PT3945</name></trkpt>
<trkpt lat="53.365904" lon="-1.853432"><ele>287</ele><time>2022-03-19T11:41:49Z</time><name>PT3946</name></trkpt>
<trkpt lat="53.365906" lon="-1.853452"><ele>287</ele><time>2022-03-19T11:41:51Z</time><name>PT3947</name></trkpt>
<trkpt lat="53.365907" lon="-1.853476"><ele>287</ele><time>2022-03-19T11:41:52Z</time><name>PT3948</name></trkpt>
<trkpt lat="53.365909" lon="-1.853501"><ele>287</ele><time>2022-03-19T11:41:52Z</time><name>PT3949</name></trkpt>
<trkpt lat="53.365912" lon="-1.853517"><ele>287</ele><time>2022-03-19T11:41:54Z</time><name>PT3950</name></trkpt>
<trkpt lat="53.365914" lon="-1.853544"><ele>287</ele><time>2022-03-19T11:41:55Z</time><name>PT3951</name></trkpt>
<trkpt lat="53.365914" lon="-1.853564"><ele>287</ele><time>2022-03-19T11:41:55Z</time><name>PT3952</name></trkpt>
<trkpt lat="53.365914" lon="-1.853589"><ele>286</ele><time>2022-03-19T11:41:57Z</time><name>PT3953</name></trkpt>
<trkpt lat="53.365909" lon="-1.853611"><ele>287</ele><time>2022-03-19T11:41:58Z</time><name>PT3954</name></trkpt>
<trkpt lat="53.365910" lon="-1.853635"><ele>287</ele><time>2022-03-19T11:41:58Z</time><name>PT3955</name></trkpt>
<trkpt lat="53.365910" lon="-1.853661"><ele>287</ele><time>2022-03-19T11:42:00Z</time><name>PT3956</name></trkpt>
<trkpt lat="53.365913" lon="-1.853683"><ele>287</ele><time>2022-03-19T11:42:01Z</time><name>PT3957</name></trkpt>
<trkpt lat="53.365918" lon="-1.853705"><ele>288</ele><time>2022-03-19T11:42:01Z</time><name>PT3958</name></trkpt>
<trkpt lat="53.365922" lon="-1.853732"><ele>287</ele><time>2022-03-19T11:42:03Z</time><name>PT3959</name></trkpt>
<trkpt lat="53.365925" lon="-1.853753"><ele>287</ele><time>2022-03-19T11:42:04Z</time><name>PT3960</name></trkpt>
<trkpt lat="53.365930" lon="-1.853780"><ele>287</ele><time>2022-03-19T11:42:04Z</time><name>PT3961</name></trkpt>
<trkpt lat="53.365939" lon="-1.853809"><ele>287</ele><time>2022-03-19T11:42:06Z</time><name>PT3962</name></trkpt>
<trkpt lat="53.365948" lon="-1.853842"><ele>288</ele><time>2022-03-19T11:42:07Z</time><name>PT3963</name></trkpt>
<trkpt lat="53.365957" lon="-1.853862"><ele>288</ele><time>2022-03-19T11:42:07Z</time><name>PT3964</name></trkpt>
<trkpt lat="53.365968" lon="-1.853878"><ele>288</ele><time>2022-03-19T11:42:09Z</time><name>PT3965</name></trkpt>
<trkpt lat="53.365980" lon="-1.853900"><ele>288</ele><time>2022-03-19T11:42:10Z</time><name>PT3966</name></trkpt>
<trkpt lat="53.365990" lon="-1.853912"><ele>287</ele><time>2022-03-19T11:42:10Z</time><name>PT3967</name></trkpt>
<trkpt lat="53.365999" lon="-1.853928"><ele>286</ele><time>2022-03-19T11:42:12Z</time><name>PT3968</name></trkpt>
<trkpt lat="53.366003" lon="-1.853949"><ele>286</ele><time>2022-03-19T11:42:13Z</time><name>PT3969</name></trkpt>
<trkpt lat="53.366006" lon="-1.853968"><ele>286</ele><time>2022-03-19T11:42:13Z</time><name>PT3970</name></trkpt>
<trkpt lat="53.366010" lon="-1.853987"><ele>286</ele><time>2022-03-19T11:42:15Z</time><name>PT3971</name></trkpt>
<trkpt lat="53.366011" lon="-1.854014"><ele>287</ele><time>2022-03-19T11:42:16Z</time><name>PT3972</name></trkpt>
<trkpt lat="53.366010" lon="-1.854031"><ele>287</ele><time>2022-03-19T11:42:16Z</time><name>PT3973</name></trkpt>
<trkpt lat="53.366013" lon="-1.854054"><ele>287</ele><time>2022-03-19T11:42:18Z</time><name>PT3974</name></trkpt>
<trkpt lat="53.366017" lon="-1.854074"><ele>288</ele><time>2022-03-19T11:42:19Z</time><name>PT3975</name></trkpt>
<trkpt lat="53.366017" lon="-1.854090"><ele>288</ele><time>2022-03-19T11:42:19Z</time><name>PT3976</name></trkpt>
<trkpt lat="53.366018" lon="-1.854097"><ele>288</ele><time>2022-03-19T11:42:21Z</time><name>PT3977</name></trkpt>
<trkpt lat="53.366021" lon="-1.854113"><ele>288</ele><time>2022-03-19T11:42:22Z</time><name>PT3978</name></trkpt>
<trkpt lat="53.366023" lon="-1.854132"><ele>287</ele><time>2022-03-19T11:42:22Z</time><name>PT3979</name></trkpt>
<trkpt lat="53.366023" lon="-1.854152"><ele>288</ele><time>2022-03-19T11:42:24Z</time><name>PT3980</name></trkpt>
<trkpt lat="53.366021" lon="-1.854172"><ele>287</ele><time>2022-03-19T11:42:25Z</time><name>PT3981</name></trkpt>
<trkpt lat="53.366022" lon="-1.854201"><ele>288</ele><time>2022-03-19T11:42:25Z</time><name>PT3982</name></trkpt>
<trkpt lat="53.366024" lon="-1.854224"><ele>288</ele><time>2022-03-19T11:42:27Z</time><name>PT3983</name></trkpt>
<trkpt lat="53.366027" lon="-1.854243"><ele>288</ele><time>2022-03-19T11:42:28Z</time><name>PT3984</name></trkpt>
<trkpt lat="53.366031" lon="-1.854261"><ele>289</ele><time>2022-03-19T11:42:28Z</time><name>PT3985</name></trkpt>
<trkpt lat="53.366033" lon="-1.854284"><ele>287</ele><time>2022-03-19T11:42:30Z</time><name>PT3986</name></trkpt>
<trkpt lat="53.366032" lon="-1.854304"><ele>287</ele><time>2022-03-19T11:42:31Z</time><name>PT3987</name></trkpt>
<trkpt lat="53.366032" lon="-1.854329"><ele>287</ele><time>2022-03-19T11:42:31Z</time><name>PT3988</name></trkpt>
<trkpt lat="53.366030" lon="-1.854348"><ele>287</ele><time>2022-03-19T11:42:33Z</time><name>PT3989</name></trkpt>
<trkpt lat="53.366029" lon="-1.854373"><ele>288</ele><time>2022-03-19T11:42:34Z</time><name>PT3990</name></trkpt>
<trkpt lat="53.366032" lon="-1.854391"><ele>288</ele><time>2022-03-19T11:42:34Z</time><name>PT3991</name></trkpt>
<trkpt lat="53.366035" lon="-1.854410"><ele>289</ele><time>2022-03-19T11:42:36Z</time><name>PT3992</name></trkpt>
<trkpt lat="53.366043" lon="-1.854474"><ele>289</ele><time>2022-03-19T11:42:39Z</time><name>PT3993</name></trkpt>
<trkpt lat="53.366064" lon="-1.854535"><ele>288</ele><time>2022-03-19T11:42:42Z</time><name>PT3994</name></trkpt>
<trkpt lat="53.366065" lon="-1.854618"><ele>287</ele><time>2022-03-19T11:42:46Z</time><name>PT3995</name></trkpt>
<trkpt lat="53.366079" lon="-1.854711"><ele>288</ele><time>2022-03-19T11:42:49Z</time><name>PT3996</name></trkpt>
<trkpt lat="53.366083" lon="-1.854775"><ele>289</ele><time>2022-03-19T11:42:52Z</time><name>PT3997</name></trkpt>
<trkpt lat="53.366086" lon="-1.854856"><ele>289</ele><time>2022-03-19T11:42:57Z</time><name>PT3998</name></trkpt>
<trkpt lat="53.366100" lon="-1.854912"><ele>289</ele><time>2022-03-19T11:43:00Z</time><name>PT3999</name></trkpt>
<trkpt lat="53.366110" lon="-1.854973"><ele>291</ele><time>2022-03-19T11:43:03Z</time><name>PT4000</name></trkpt>
<trkpt lat="53.366135" lon="-1.855059"><ele>292</ele><time>2022-03-19T11:43:07Z</time><name>PT4001</name></trkpt>
<trkpt lat="53.366149" lon="-1.855126"><ele>294</ele><time>2022-03-19T11:43:10Z</time><name>PT4002</name></trkpt>
<trkpt lat="53.366164" lon="-1.855201"><ele>293</ele><time>2022-03-19T11:43:15Z</time><name>PT4003</name></trkpt>
<trkpt lat="53.366169" lon="-1.855254"><ele>294</ele><time>2022-03-19T11:43:18Z</time><name>PT4004</name></trkpt>
<trkpt lat="53.366184" lon="-1.855313"><ele>291</ele><time>2022-03-19T11:43:22Z</time><name>PT4005</name></trkpt>
<trkpt lat="53.366205" lon="-1.855362"><ele>290</ele><time>2022-03-19T11:43:25Z</time><name>PT4006</name></trkpt>
<trkpt lat="53.366208" lon="-1.855406"><ele>288</ele><time>2022-03-19T11:43:28Z</time><name>PT4007</name></trkpt>
<trkpt lat="53.366229" lon="-1.855451"><ele>287</ele><time>2022-03-19T11:43:31Z</time><name>PT4008</name></trkpt>
<trkpt lat="53.366252" lon="-1.855515"><ele>288</ele><time>2022-03-19T11:43:36Z</time><name>PT4009</name></trkpt>
<trkpt lat="53.366266" lon="-1.855564"><ele>288</ele><time>2022-03-19T11:43:39Z</time><name>PT4010</name></trkpt>
<trkpt lat="53.366284" lon="-1.855646"><ele>290</ele><time>2022-03-19T11:43:43Z</time><name>PT4011</name></trkpt>
<trkpt lat="53.366302" lon="-1.855697"><ele>290</ele><time>2022-03-19T11:43:46Z</time><name>PT4012</name></trkpt>
<trkpt lat="53.366325" lon="-1.855755"><ele>290</ele><time>2022-03-19T11:43:49Z</time><name>PT4013</name></trkpt>
<trkpt lat="53.366345" lon="-1.855826"><ele>292</ele><time>2022-03-19T11:43:54Z</time><name>PT4014</name></trkpt>
<trkpt lat="53.366355" lon="-1.855872"><ele>292</ele><time>2022-03-19T11:43:57Z</time><name>PT4015</name></trkpt>
<trkpt lat="53.366376" lon="-1.855926"><ele>292</ele><time>2022-03-19T11:44:01Z</time><name>PT4016</name></trkpt>
<trkpt lat="53.366391" lon="-1.855976"><ele>290</ele><time>2022-03-19T11:44:04Z</time><name>PT4017</name></trkpt>
<trkpt lat="53.366414" lon="-1.856028"><ele>290</ele><time>2022-03-19T11:44:07Z</time><name>PT4018</name></trkpt>
<trkpt lat="53.366434" lon="-1.856087"><ele>287</ele><time>2022-03-19T11:44:12Z</time><name>PT4019</name></trkpt>
<trkpt lat="53.366454" lon="-1.856156"><ele>286</ele><time>2022-03-19T11:44:16Z</time><name>PT4020</name></trkpt>
<trkpt lat="53.366466" lon="-1.856184"><ele>285</ele><time>2022-03-19T11:44:19Z</time><name>PT4021</name></trkpt>
<trkpt lat="53.366485" lon="-1.856244"><ele>286</ele><time>2022-03-19T11:44:22Z</time><name>PT4022</name></trkpt>
<trkpt lat="53.366505" lon="-1.856312"><ele>287</ele><time>2022-03-19T11:44:25Z</time><name>PT4023</name></trkpt>
<trkpt lat="53.366515" lon="-1.856363"><ele>287</ele><time>2022-03-19T11:44:29Z</time><name>PT4024</name></trkpt>
<trkpt lat="53.366533" lon="-1.856419"><ele>286</ele><time>2022-03-19T11:44:33Z</time><name>PT4025</name></trkpt>
<trkpt lat="53.366529" lon="-1.856485"><ele>282</ele><time>2022-03-19T11:44:37Z</time><name>PT4026</name></trkpt>
<trkpt lat="53.366553" lon="-1.856560"><ele>286</ele><time>2022-03-19T11:44:40Z</time><name>PT4027</name></trkpt>
<trkpt lat="53.366553" lon="-1.856663"><ele>289</ele><time>2022-03-19T11:44:43Z</time><name>PT4028</name></trkpt>
<trkpt lat="53.366566" lon="-1.856759"><ele>293</ele><time>2022-03-19T11:44:46Z</time><name>PT4029</name></trkpt>
<trkpt lat="53.366579" lon="-1.856820"><ele>293</ele><time>2022-03-19T11:44:51Z</time><name>PT4030</name></trkpt>
<trkpt lat="53.366591" lon="-1.856896"><ele>297</ele><time>2022-03-19T11:44:55Z</time><name>PT4031</name></trkpt>
<trkpt lat="53.366612" lon="-1.856958"><ele>301</ele><time>2022-03-19T11:44:58Z</time><name>PT4032</name></trkpt>
<trkpt lat="53.366624" lon="-1.857012"><ele>302</ele><time>2022-03-19T11:45:01Z</time><name>PT4033</name></trkpt>
<trkpt lat="53.366637" lon="-1.857101"><ele>302</ele><time>2022-03-19T11:45:04Z</time><name>PT4034</name></trkpt>
<trkpt lat="53.366652" lon="-1.857170"><ele>304</ele><time>2022-03-19T11:45:09Z</time><name>PT4035</name></trkpt>
<trkpt lat="53.366670" lon="-1.857237"><ele>304</ele><time>2022-03-19T11:45:13Z</time><name>PT4036</name></trkpt>
<trkpt lat="53.366698" lon="-1.857314"><ele>305</ele><time>2022-03-19T11:45:16Z</time><name>PT4037</name></trkpt>
<trkpt lat="53.366716" lon="-1.857361"><ele>305</ele><time>2022-03-19T11:45:19Z</time><name>PT4038</name></trkpt>
<trkpt lat="53.366737" lon="-1.857421"><ele>304</ele><time>2022-03-19T11:45:24Z</time><name>PT4039</name></trkpt>
<trkpt lat="53.366751" lon="-1.857478"><ele>305</ele><time>2022-03-19T11:45:27Z</time><name>PT4040</name></trkpt>
<trkpt lat="53.366766" lon="-1.857527"><ele>307</ele><time>2022-03-19T11:45:30Z</time><name>PT4041</name></trkpt>
<trkpt lat="53.366790" lon="-1.857592"><ele>306</ele><time>2022-03-19T11:45:34Z</time><name>PT4042</name></trkpt>
<trkpt lat="53.366806" lon="-1.857638"><ele>306</ele><time>2022-03-19T11:45:37Z</time><name>PT4043</name></trkpt>
<trkpt lat="53.366827" lon="-1.857682"><ele>306</ele><time>2022-03-19T11:45:40Z</time><name>PT4044</name></trkpt>
<trkpt lat="53.366851" lon="-1.857751"><ele>306</ele><time>2022-03-19T11:45:43Z</time><name>PT4045</name></trkpt>
<trkpt lat="53.366873" lon="-1.857797"><ele>306</ele><time>2022-03-19T11:45:46Z</time><name>PT4046</name></trkpt>
<trkpt lat="53.366896" lon="-1.857842"><ele>305</ele><time>2022-03-19T11:45:49Z</time><name>PT4047</name></trkpt>
<trkpt lat="53.366924" lon="-1.857880"><ele>306</ele><time>2022-03-19T11:45:54Z</time><name>PT4048</name></trkpt>
<trkpt lat="53.366946" lon="-1.857926"><ele>307</ele><time>2022-03-19T11:45:58Z</time><name>PT4049</name></trkpt>
<trkpt lat="53.366965" lon="-1.857959"><ele>308</ele><time>2022-03-19T11:46:01Z</time><name>PT4050</name></trkpt>
<trkpt lat="53.366991" lon="-1.857987"><ele>308</ele><time>2022-03-19T11:46:04Z</time><name>PT4051</name></trkpt>
<trkpt lat="53.367021" lon="-1.858028"><ele>309</ele><time>2022-03-19T11:46:07Z</time><name>PT4052</name></trkpt>
<trkpt lat="53.367055" lon="-1.858074"><ele>309</ele><time>2022-03-19T11:46:12Z</time><name>PT4053</name></trkpt>
<trkpt lat="53.367077" lon="-1.858103"><ele>310</ele><time>2022-03-19T11:46:15Z</time><name>PT4054</name></trkpt>
<trkpt lat="53.367099" lon="-1.858135"><ele>312</ele><time>2022-03-19T11:46:18Z</time><name>PT4055</name></trkpt>
<trkpt lat="53.367124" lon="-1.858168"><ele>312</ele><time>2022-03-19T11:46:21Z</time><name>PT4056</name></trkpt>
<trkpt lat="53.367161" lon="-1.858207"><ele>313</ele><time>2022-03-19T11:46:25Z</time><name>PT4057</name></trkpt>
<trkpt lat="53.367188" lon="-1.858236"><ele>315</ele><time>2022-03-19T11:46:28Z</time><name>PT4058</name></trkpt>
<trkpt lat="53.367222" lon="-1.858279"><ele>314</ele><time>2022-03-19T11:46:31Z</time><name>PT4059</name></trkpt>
<trkpt lat="53.367259" lon="-1.858304"><ele>314</ele><time>2022-03-19T11:46:36Z</time><name>PT4060</name></trkpt>
<trkpt lat="53.367290" lon="-1.858325"><ele>314</ele><time>2022-03-19T11:46:39Z</time><name>PT4061</name></trkpt>
<trkpt lat="53.367321" lon="-1.858338"><ele>314</ele><time>2022-03-19T11:46:42Z</time><name>PT4062</name></trkpt>
<trkpt lat="53.367362" lon="-1.858379"><ele>314</ele><time>2022-03-19T11:46:46Z</time><name>PT4063</name></trkpt>
<trkpt lat="53.367391" lon="-1.858441"><ele>315</ele><time>2022-03-19T11:46:49Z</time><name>PT4064</name></trkpt>
<trkpt lat="53.367412" lon="-1.858492"><ele>315</ele><time>2022-03-19T11:46:52Z</time><name>PT4065</name></trkpt>
<trkpt lat="53.367438" lon="-1.858548"><ele>315</ele><time>2022-03-19T11:46:57Z</time><name>PT4066</name></trkpt>
<trkpt lat="53.367457" lon="-1.858589"><ele>314</ele><time>2022-03-19T11:47:00Z</time><name>PT4067</name></trkpt>
<trkpt lat="53.367483" lon="-1.858645"><ele>314</ele><time>2022-03-19T11:47:04Z</time><name>PT4068</name></trkpt>
<trkpt lat="53.367505" lon="-1.858692"><ele>314</ele><time>2022-03-19T11:47:07Z</time><name>PT4069</name></trkpt>
<trkpt lat="53.367529" lon="-1.858747"><ele>316</ele><time>2022-03-19T11:47:10Z</time><name>PT4070</name></trkpt>
<trkpt lat="53.367553" lon="-1.858809"><ele>316</ele><time>2022-03-19T11:47:15Z</time><name>PT4071</name></trkpt>
<trkpt lat="53.367567" lon="-1.858861"><ele>315</ele><time>2022-03-19T11:47:18Z</time><name>PT4072</name></trkpt>
<trkpt lat="53.367587" lon="-1.858934"><ele>315</ele><time>2022-03-19T11:47:22Z</time><name>PT4073</name></trkpt>
<trkpt lat="53.367616" lon="-1.859004"><ele>315</ele><time>2022-03-19T11:47:25Z</time><name>PT4074</name></trkpt>
<trkpt lat="53.367637" lon="-1.859077"><ele>317</ele><time>2022-03-19T11:47:30Z</time><name>PT4075</name></trkpt>
<trkpt lat="53.367655" lon="-1.859126"><ele>318</ele><time>2022-03-19T11:47:33Z</time><name>PT4076</name></trkpt>
<trkpt lat="53.367689" lon="-1.859193"><ele>319</ele><time>2022-03-19T11:47:37Z</time><name>PT4077</name></trkpt>
<trkpt lat="53.367718" lon="-1.859237"><ele>320</ele><time>2022-03-19T11:47:40Z</time><name>PT4078</name></trkpt>
<trkpt lat="53.367745" lon="-1.859298"><ele>321</ele><time>2022-03-19T11:47:43Z</time><name>PT4079</name></trkpt>
<trkpt lat="53.367770" lon="-1.859365"><ele>321</ele><time>2022-03-19T11:47:48Z</time><name>PT4080</name></trkpt>
<trkpt lat="53.367794" lon="-1.859404"><ele>320</ele><time>2022-03-19T11:47:51Z</time><name>PT4081</name></trkpt>
<trkpt lat="53.367830" lon="-1.859450"><ele>322</ele><time>2022-03-19T11:47:55Z</time><name>PT4082</name></trkpt>
<trkpt lat="53.367856" lon="-1.859485"><ele>322</ele><time>2022-03-19T11:47:58Z</time><name>PT4083</name></trkpt>
<trkpt lat="53.367895" lon="-1.859534"><ele>322</ele><time>2022-03-19T11:48:01Z</time><name>PT4084</name></trkpt>
<trkpt lat="53.367934" lon="-1.859580"><ele>322</ele><time>2022-03-19T11:48:06Z</time><name>PT4085</name></trkpt>
<trkpt lat="53.367968" lon="-1.859613"><ele>323</ele><time>2022-03-19T11:48:09Z</time><name>PT4086</name></trkpt>
<trkpt lat="53.368012" lon="-1.859659"><ele>324</ele><time>2022-03-19T11:48:13Z</time><name>PT4087</name></trkpt>
<trkpt lat="53.368062" lon="-1.859691"><ele>325</ele><time>2022-03-19T11:48:16Z</time><name>PT4088</name></trkpt>
<trkpt lat="53.368094" lon="-1.859703"><ele>325</ele><time>2022-03-19T11:48:19Z</time><name>PT4089</name></trkpt>
<trkpt lat="53.368134" lon="-1.859713"><ele>325</ele><time>2022-03-19T11:48:24Z</time><name>PT4090</name></trkpt>
<trkpt lat="53.368159" lon="-1.859732"><ele>326</ele><time>2022-03-19T11:48:27Z</time><name>PT4091</name></trkpt>
<trkpt lat="53.368196" lon="-1.859777"><ele>324</ele><time>2022-03-19T11:48:31Z</time><name>PT4092</name></trkpt>
<trkpt lat="53.368216" lon="-1.859822"><ele>323</ele><time>2022-03-19T11:48:34Z</time><name>PT4093</name></trkpt>
<trkpt lat="53.368239" lon="-1.859871"><ele>323</ele><time>2022-03-19T11:48:37Z</time><name>PT4094</name></trkpt>
<trkpt lat="53.368261" lon="-1.859902"><ele>324</ele><time>2022-03-19T11:48:40Z</time><name>PT4095</name></trkpt>
<trkpt lat="53.368286" lon="-1.859965"><ele>324</ele><time>2022-03-19T11:48:45Z</time><name>PT4096</name></trkpt>
<trkpt lat="53.368312" lon="-1.860021"><ele>325</ele><time>2022-03-19T11:48:49Z</time><name>PT4097</name></trkpt>
<trkpt lat="53.368343" lon="-1.860057"><ele>325</ele><time>2022-03-19T11:48:52Z</time><name>PT4098</name></trkpt>
<trkpt lat="53.368366" lon="-1.860098"><ele>326</ele><time>2022-03-19T11:48:55Z</time><name>PT4099</name></trkpt>
<trkpt lat="53.368384" lon="-1.860146"><ele>326</ele><time>2022-03-19T11:48:58Z</time><name>PT4100</name></trkpt>
<trkpt lat="53.368402" lon="-1.860200"><ele>326</ele><time>2022-03-19T11:49:01Z</time><name>PT4101</name></trkpt>
<trkpt lat="53.368415" lon="-1.860280"><ele>327</ele><time>2022-03-19T11:49:04Z</time><name>PT4102</name></trkpt>
<trkpt lat="53.368427" lon="-1.860338"><ele>327</ele><time>2022-03-19T11:49:07Z</time><name>PT4103</name></trkpt>
<trkpt lat="53.368446" lon="-1.860409"><ele>329</ele><time>2022-03-19T11:49:12Z</time><name>PT4104</name></trkpt>
<trkpt lat="53.368473" lon="-1.860468"><ele>329</ele><time>2022-03-19T11:49:16Z</time><name>PT4105</name></trkpt>
<trkpt lat="53.368489" lon="-1.860512"><ele>329</ele><time>2022-03-19T11:49:19Z</time><name>PT4106</name></trkpt>
<trkpt lat="53.368507" lon="-1.860560"><ele>329</ele><time>2022-03-19T11:49:22Z</time><name>PT4107</name></trkpt>
<trkpt lat="53.368527" lon="-1.860607"><ele>329</ele><time>2022-03-19T11:49:25Z</time><name>PT4108</name></trkpt>
<trkpt lat="53.368556" lon="-1.860658"><ele>329</ele><time>2022-03-19T11:49:28Z</time><name>PT4109</name></trkpt>
<trkpt lat="53.368577" lon="-1.860719"><ele>329</ele><time>2022-03-19T11:49:33Z</time><name>PT4110</name></trkpt>
<trkpt lat="53.368606" lon="-1.860776"><ele>329</ele><time>2022-03-19T11:49:37Z</time><name>PT4111</name></trkpt>
<trkpt lat="53.368630" lon="-1.860838"><ele>330</ele><time>2022-03-19T11:49:40Z</time><name>PT4112</name></trkpt>
<trkpt lat="53.368654" lon="-1.860899"><ele>331</ele><time>2022-03-19T11:49:45Z</time><name>PT4113</name></trkpt>
<trkpt lat="53.368664" lon="-1.860937"><ele>332</ele><time>2022-03-19T11:49:48Z</time><name>PT4114</name></trkpt>
<trkpt lat="53.368687" lon="-1.860993"><ele>333</ele><time>2022-03-19T11:49:52Z</time><name>PT4115</name></trkpt>
<trkpt lat="53.368705" lon="-1.861042"><ele>333</ele><time>2022-03-19T11:49:55Z</time><name>PT4116</name></trkpt>
<trkpt lat="53.368729" lon="-1.861100"><ele>333</ele><time>2022-03-19T11:49:58Z</time><name>PT4117</name></trkpt>
<trkpt lat="53.368759" lon="-1.861170"><ele>334</ele><time>2022-03-19T11:50:01Z</time><name>PT4118</name></trkpt>
<trkpt lat="53.368778" lon="-1.861231"><ele>334</ele><time>2022-03-19T11:50:04Z</time><name>PT4119</name></trkpt>
<trkpt lat="53.368797" lon="-1.861284"><ele>334</ele><time>2022-03-19T11:50:07Z</time><name>PT4120</name></trkpt>
<trkpt lat="53.368826" lon="-1.861351"><ele>335</ele><time>2022-03-19T11:50:12Z</time><name>PT4121</name></trkpt>
<trkpt lat="53.368851" lon="-1.861395"><ele>336</ele><time>2022-03-19T11:50:15Z</time><name>PT4122</name></trkpt>
<trkpt lat="53.368878" lon="-1.861458"><ele>336</ele><time>2022-03-19T11:50:19Z</time><name>PT4123</name></trkpt>
<trkpt lat="53.368903" lon="-1.861502"><ele>336</ele><time>2022-03-19T11:50:22Z</time><name>PT4124</name></trkpt>
<trkpt lat="53.368932" lon="-1.861570"><ele>337</ele><time>2022-03-19T11:50:25Z</time><name>PT4125</name></trkpt>
<trkpt lat="53.368964" lon="-1.861648"><ele>337</ele><time>2022-03-19T11:50:30Z</time><name>PT4126</name></trkpt>
<trkpt lat="53.368984" lon="-1.861695"><ele>336</ele><time>2022-03-19T11:50:33Z</time><name>PT4127</name></trkpt>
<trkpt lat="53.369018" lon="-1.861779"><ele>336</ele><time>2022-03-19T11:50:37Z</time><name>PT4128</name></trkpt>
<trkpt lat="53.369041" lon="-1.861827"><ele>335</ele><time>2022-03-19T11:50:40Z</time><name>PT4129</name></trkpt>
<trkpt lat="53.369062" lon="-1.861895"><ele>336</ele><time>2022-03-19T11:50:43Z</time><name>PT4130</name></trkpt>
<trkpt lat="53.369071" lon="-1.861940"><ele>337</ele><time>2022-03-19T11:50:46Z</time><name>PT4131</name></trkpt>
<trkpt lat="53.369080" lon="-1.861958"><ele>338</ele><time>2022-03-19T11:50:46Z</time><name>PT4132</name></trkpt>
<trkpt lat="53.369090" lon="-1.861975"><ele>337</ele><time>2022-03-19T11:50:48Z</time><name>PT4133</name></trkpt>
<trkpt lat="53.369099" lon="-1.861993"><ele>337</ele><time>2022-03-19T11:50:49Z</time><name>PT4134</name></trkpt>
<trkpt lat="53.369106" lon="-1.862011"><ele>337</ele><time>2022-03-19T11:50:49Z</time><name>PT4135</name></trkpt>
<trkpt lat="53.369114" lon="-1.862026"><ele>337</ele><time>2022-03-19T11:50:51Z</time><name>PT4136</name></trkpt>
<trkpt lat="53.369121" lon="-1.862040"><ele>337</ele><time>2022-03-19T11:50:52Z</time><name>PT4137</name></trkpt>
<trkpt lat="53.369129" lon="-1.862052"><ele>337</ele><time>2022-03-19T11:50:53Z</time><name>PT4138</name></trkpt>
<trkpt lat="53.369132" lon="-1.862069"><ele>336</ele><time>2022-03-19T11:50:54Z</time><name>PT4139</name></trkpt>
<trkpt lat="53.369139" lon="-1.862084"><ele>337</ele><time>2022-03-19T11:50:55Z</time><name>PT4140</name></trkpt>
<trkpt lat="53.369147" lon="-1.862100"><ele>338</ele><time>2022-03-19T11:50:56Z</time><name>PT4141</name></trkpt>
<trkpt lat="53.369156" lon="-1.862118"><ele>337</ele><time>2022-03-19T11:50:57Z</time><name>PT4142</name></trkpt>
<trkpt lat="53.369162" lon="-1.862132"><ele>338</ele><time>2022-03-19T11:50:58Z</time><name>PT4143</name></trkpt>
<trkpt lat="53.369172" lon="-1.862140"><ele>338</ele><time>2022-03-19T11:50:58Z</time><name>PT4144</name></trkpt>
<trkpt lat="53.369183" lon="-1.862151"><ele>338</ele><time>2022-03-19T11:51:00Z</time><name>PT4145</name></trkpt>
<trkpt lat="53.369189" lon="-1.862165"><ele>338</ele><time>2022-03-19T11:51:01Z</time><name>PT4146</name></trkpt>
<trkpt lat="53.369197" lon="-1.862184"><ele>338</ele><time>2022-03-19T11:51:01Z</time><name>PT4147</name></trkpt>
<trkpt lat="53.369204" lon="-1.862204"><ele>338</ele><time>2022-03-19T11:51:03Z</time><name>PT4148</name></trkpt>
<trkpt lat="53.369213" lon="-1.862220"><ele>338</ele><time>2022-03-19T11:51:04Z</time><name>PT4149</name></trkpt>
<trkpt lat="53.369224" lon="-1.862232"><ele>338</ele><time>2022-03-19T11:51:04Z</time><name>PT4150</name></trkpt>
<trkpt lat="53.369230" lon="-1.862245"><ele>338</ele><time>2022-03-19T11:51:06Z</time><name>PT4151</name></trkpt>
<trkpt lat="53.369237" lon="-1.862258"><ele>339</ele><time>2022-03-19T11:51:07Z</time><name>PT4152</name></trkpt>
<trkpt lat="53.369243" lon="-1.862271"><ele>338</ele><time>2022-03-19T11:51:07Z</time><name>PT4153</name></trkpt>
<trkpt lat="53.369251" lon="-1.862284"><ele>338</ele><time>2022-03-19T11:51:09Z</time><name>PT4154</name></trkpt>
<trkpt lat="53.369258" lon="-1.862297"><ele>339</ele><time>2022-03-19T11:51:10Z</time><name>PT4155</name></trkpt>
<trkpt lat="53.369266" lon="-1.862312"><ele>340</ele><time>2022-03-19T11:51:11Z</time><name>PT4156</name></trkpt>
<trkpt lat="53.369273" lon="-1.862325"><ele>341</ele><time>2022-03-19T11:51:12Z</time><name>PT4157</name></trkpt>
<trkpt lat="53.369282" lon="-1.862340"><ele>340</ele><time>2022-03-19T11:51:13Z</time><name>PT4158</name></trkpt>
<trkpt lat="53.369289" lon="-1.862359"><ele>340</ele><time>2022-03-19T11:51:13Z</time><name>PT4159</name></trkpt>
<trkpt lat="53.369297" lon="-1.862373"><ele>340</ele><time>2022-03-19T11:51:15Z</time><name>PT4160</name></trkpt>
<trkpt lat="53.369306" lon="-1.862389"><ele>341</ele><time>2022-03-19T11:51:16Z</time><name>PT4161</name></trkpt>
<trkpt lat="53.369315" lon="-1.862407"><ele>341</ele><time>2022-03-19T11:51:16Z</time><name>PT4162</name></trkpt>
<trkpt lat="53.369322" lon="-1.862421"><ele>340</ele><time>2022-03-19T11:51:18Z</time><name>PT4163</name></trkpt>
<trkpt lat="53.369331" lon="-1.862434"><ele>340</ele><time>2022-03-19T11:51:19Z</time><name>PT4164</name></trkpt>
<trkpt lat="53.369347" lon="-1.862447"><ele>340</ele><time>2022-03-19T11:51:19Z</time><name>PT4165</name></trkpt>
<trkpt lat="53.369355" lon="-1.862462"><ele>340</ele><time>2022-03-19T11:51:21Z</time><name>PT4166</name></trkpt>
<trkpt lat="53.369366" lon="-1.862478"><ele>341</ele><time>2022-03-19T11:51:22Z</time><name>PT4167</name></trkpt>
<trkpt lat="53.369371" lon="-1.862492"><ele>341</ele><time>2022-03-19T11:51:22Z</time><name>PT4168</name></trkpt>
<trkpt lat="53.369377" lon="-1.862505"><ele>341</ele><time>2022-03-19T11:51:24Z</time><name>PT4169</name></trkpt>
<trkpt lat="53.369382" lon="-1.862519"><ele>341</ele><time>2022-03-19T11:51:25Z</time><name>PT4170</name></trkpt>
<trkpt lat="53.369388" lon="-1.862536"><ele>341</ele><time>2022-03-19T11:51:25Z</time><name>PT4171</name></trkpt>
<trkpt lat="53.369391" lon="-1.862551"><ele>341</ele><time>2022-03-19T11:51:27Z</time><name>PT4172</name></trkpt>
<trkpt lat="53.369395" lon="-1.862569"><ele>341</ele><time>2022-03-19T11:51:28Z</time><name>PT4173</name></trkpt>
<trkpt lat="53.369400" lon="-1.862585"><ele>341</ele><time>2022-03-19T11:51:28Z</time><name>PT4174</name></trkpt>
<trkpt lat="53.369410" lon="-1.862600"><ele>342</ele><time>2022-03-19T11:51:30Z</time><name>PT4175</name></trkpt>
<trkpt lat="53.369417" lon="-1.862610"><ele>342</ele><time>2022-03-19T11:51:31Z</time><name>PT4176</name></trkpt>
<trkpt lat="53.369424" lon="-1.862623"><ele>343</ele><time>2022-03-19T11:51:31Z</time><name>PT4177</name></trkpt>
<trkpt lat="53.369433" lon="-1.862637"><ele>343</ele><time>2022-03-19T11:51:33Z</time><name>PT4178</name></trkpt>
<trkpt lat="53.369443" lon="-1.862653"><ele>343</ele><time>2022-03-19T11:51:34Z</time><name>PT4179</name></trkpt>
<trkpt lat="53.369451" lon="-1.862669"><ele>343</ele><time>2022-03-19T11:51:34Z</time><name>PT4180</name></trkpt>
<trkpt lat="53.369458" lon="-1.862683"><ele>344</ele><time>2022-03-19T11:51:36Z</time><name>PT4181</name></trkpt>
<trkpt lat="53.369465" lon="-1.862697"><ele>344</ele><time>2022-03-19T11:51:37Z</time><name>PT4182</name></trkpt>
<trkpt lat="53.369473" lon="-1.862714"><ele>344</ele><time>2022-03-19T11:51:37Z</time><name>PT4183</name></trkpt>
<trkpt lat="53.369480" lon="-1.862731"><ele>344</ele><time>2022-03-19T11:51:39Z</time><name>PT4184</name></trkpt>
<trkpt lat="53.369487" lon="-1.862748"><ele>344</ele><time>2022-03-19T11:51:40Z</time><name>PT4185</name></trkpt>
<trkpt lat="53.369492" lon="-1.862761"><ele>343</ele><time>2022-03-19T11:51:40Z</time><name>PT4186</name></trkpt>
<trkpt lat="53.369500" lon="-1.862776"><ele>344</ele><time>2022-03-19T11:51:42Z</time><name>PT4187</name></trkpt>
<trkpt lat="53.369509" lon="-1.862792"><ele>345</ele><time>2022-03-19T11:51:43Z</time><name>PT4188</name></trkpt>
<trkpt lat="53.369520" lon="-1.862808"><ele>345</ele><time>2022-03-19T11:51:43Z</time><name>PT4189</name></trkpt>
<trkpt lat="53.369526" lon="-1.862819"><ele>345</ele><time>2022-03-19T11:51:45Z</time><name>PT4190</name></trkpt>
<trkpt lat="53.369531" lon="-1.862834"><ele>345</ele><time>2022-03-19T11:51:46Z</time><name>PT4191</name></trkpt>
<trkpt lat="53.369537" lon="-1.862855"><ele>345</ele><time>2022-03-19T11:51:46Z</time><name>PT4192</name></trkpt>
<trkpt lat="53.369543" lon="-1.862870"><ele>345</ele><time>2022-03-19T11:51:48Z</time><name>PT4193</name></trkpt>
<trkpt lat="53.369550" lon="-1.862880"><ele>345</ele><time>2022-03-19T11:51:49Z</time><name>PT4194</name></trkpt>
<trkpt lat="53.369557" lon="-1.862891"><ele>345</ele><time>2022-03-19T11:51:49Z</time><name>PT4195</name></trkpt>
<trkpt lat="53.369566" lon="-1.862900"><ele>345</ele><time>2022-03-19T11:51:51Z</time><name>PT4196</name></trkpt>
<trkpt lat="53.369571" lon="-1.862909"><ele>345</ele><time>2022-03-19T11:51:52Z</time><name>PT4197</name></trkpt>
<trkpt lat="53.369574" lon="-1.862922"><ele>345</ele><time>2022-03-19T11:51:52Z</time><name>PT4198</name></trkpt>
<trkpt lat="53.369577" lon="-1.862936"><ele>344</ele><time>2022-03-19T11:51:54Z</time><name>PT4199</name></trkpt>
<trkpt lat="53.369580" lon="-1.862943"><ele>344</ele><time>2022-03-19T11:51:55Z</time><name>PT4200</name></trkpt>
<trkpt lat="53.369583" lon="-1.862953"><ele>345</ele><time>2022-03-19T11:51:55Z</time><name>PT4201</name></trkpt>
<trkpt lat="53.369588" lon="-1.862958"><ele>345</ele><time>2022-03-19T11:51:57Z</time><name>PT4202</name></trkpt>
<trkpt lat="53.369593" lon="-1.862956"><ele>343</ele><time>2022-03-19T11:51:58Z</time><name>PT4203</name></trkpt>
<trkpt lat="53.369597" lon="-1.862957"><ele>343</ele><time>2022-03-19T11:51:58Z</time><name>PT4204</name></trkpt>
<trkpt lat="53.369598" lon="-1.862970"><ele>342</ele><time>2022-03-19T11:52:00Z</time><name>PT4205</name></trkpt>
<trkpt lat="53.369600" lon="-1.862989"><ele>341</ele><time>2022-03-19T11:52:01Z</time><name>PT4206</name></trkpt>
<trkpt lat="53.369605" lon="-1.863008"><ele>342</ele><time>2022-03-19T11:52:01Z</time><name>PT4207</name></trkpt>
<trkpt lat="53.369611" lon="-1.863030"><ele>343</ele><time>2022-03-19T11:52:03Z</time><name>PT4208</name></trkpt>
<trkpt lat="53.369615" lon="-1.863049"><ele>343</ele><time>2022-03-19T11:52:04Z</time><name>PT4209</name></trkpt>
<trkpt lat="53.369621" lon="-1.863064"><ele>343</ele><time>2022-03-19T11:52:04Z</time><name>PT4210</name></trkpt>
<trkpt lat="53.369627" lon="-1.863083"><ele>343</ele><time>2022-03-19T11:52:06Z</time><name>PT4211</name></trkpt>
<trkpt lat="53.369635" lon="-1.863104"><ele>343</ele><time>2022-03-19T11:52:07Z</time><name>PT4212</name></trkpt>
<trkpt lat="53.369642" lon="-1.863122"><ele>343</ele><time>2022-03-19T11:52:07Z</time><name>PT4213</name></trkpt>
<trkpt lat="53.369649" lon="-1.863140"><ele>344</ele><time>2022-03-19T11:52:09Z</time><name>PT4214</name></trkpt>
<trkpt lat="53.369657" lon="-1.863163"><ele>344</ele><time>2022-03-19T11:52:10Z</time><name>PT4215</name></trkpt>
<trkpt lat="53.369660" lon="-1.863184"><ele>344</ele><time>2022-03-19T11:52:10Z</time><name>PT4216</name></trkpt>
<trkpt lat="53.369666" lon="-1.863203"><ele>345</ele><time>2022-03-19T11:52:12Z</time><name>PT4217</name></trkpt>
<trkpt lat="53.369672" lon="-1.863221"><ele>345</ele><time>2022-03-19T11:52:13Z</time><name>PT4218</name></trkpt>
<trkpt lat="53.369683" lon="-1.863236"><ele>345</ele><time>2022-03-19T11:52:13Z</time><name>PT4219</name></trkpt>
<trkpt lat="53.369688" lon="-1.863248"><ele>344</ele><time>2022-03-19T11:52:15Z</time><name>PT4220</name></trkpt>
<trkpt lat="53.369694" lon="-1.863264"><ele>344</ele><time>2022-03-19T11:52:16Z</time><name>PT4221</name></trkpt>
<trkpt lat="53.369702" lon="-1.863278"><ele>345</ele><time>2022-03-19T11:52:16Z</time><name>PT4222</name></trkpt>
<trkpt lat="53.369711" lon="-1.863295"><ele>345</ele><time>2022-03-19T11:52:18Z</time><name>PT4223</name></trkpt>
<trkpt lat="53.369719" lon="-1.863311"><ele>345</ele><time>2022-03-19T11:52:19Z</time><name>PT4224</name></trkpt>
<trkpt lat="53.369724" lon="-1.863327"><ele>345</ele><time>2022-03-19T11:52:19Z</time><name>PT4225</name></trkpt>
<trkpt lat="53.369730" lon="-1.863345"><ele>345</ele><time>2022-03-19T11:52:21Z</time><name>PT4226</name></trkpt>
<trkpt lat="53.369738" lon="-1.863363"><ele>345</ele><time>2022-03-19T11:52:22Z</time><name>PT4227</name></trkpt>
<trkpt lat="53.369743" lon="-1.863371"><ele>345</ele><time>2022-03-19T11:52:22Z</time><name>PT4228</name></trkpt>
<trkpt lat="53.369747" lon="-1.863378"><ele>345</ele><time>2022-03-19T11:52:24Z</time><name>PT4229</name></trkpt>
<trkpt lat="53.369751" lon="-1.863393"><ele>345</ele><time>2022-03-19T11:52:25Z</time><name>PT4230</name></trkpt>
<trkpt lat="53.369757" lon="-1.863411"><ele>345</ele><time>2022-03-19T11:52:25Z</time><name>PT4231</name></trkpt>
<trkpt lat="53.369763" lon="-1.863428"><ele>346</ele><time>2022-03-19T11:52:27Z</time><name>PT4232</name></trkpt>
<trkpt lat="53.369770" lon="-1.863442"><ele>346</ele><time>2022-03-19T11:52:28Z</time><name>PT4233</name></trkpt>
<trkpt lat="53.369778" lon="-1.863454"><ele>346</ele><time>2022-03-19T11:52:28Z</time><name>PT4234</name></trkpt>
<trkpt lat="53.369785" lon="-1.863467"><ele>346</ele><time>2022-03-19T11:52:30Z</time><name>PT4235</name></trkpt>
<trkpt lat="53.369791" lon="-1.863479"><ele>346</ele><time>2022-03-19T11:52:31Z</time><name>PT4236</name></trkpt>
<trkpt lat="53.369799" lon="-1.863496"><ele>346</ele><time>2022-03-19T11:52:31Z</time><name>PT4237</name></trkpt>
<trkpt lat="53.369808" lon="-1.863513"><ele>346</ele><time>2022-03-19T11:52:33Z</time><name>PT4238</name></trkpt>
<trkpt lat="53.369813" lon="-1.863528"><ele>345</ele><time>2022-03-19T11:52:34Z</time><name>PT4239</name></trkpt>
<trkpt lat="53.369820" lon="-1.863542"><ele>345</ele><time>2022-03-19T11:52:34Z</time><name>PT4240</name></trkpt>
<trkpt lat="53.369829" lon="-1.863556"><ele>345</ele><time>2022-03-19T11:52:36Z</time><name>PT4241</name></trkpt>
<trkpt lat="53.369836" lon="-1.863571"><ele>345</ele><time>2022-03-19T11:52:37Z</time><name>PT4242</name></trkpt>
<trkpt lat="53.369843" lon="-1.863586"><ele>345</ele><time>2022-03-19T11:52:37Z</time><name>PT4243</name></trkpt>
<trkpt lat="53.369850" lon="-1.863603"><ele>345</ele><time>2022-03-19T11:52:39Z</time><name>PT4244</name></trkpt>
<trkpt lat="53.369858" lon="-1.863615"><ele>345</ele><time>2022-03-19T11:52:40Z</time><name>PT4245</name></trkpt>
<trkpt lat="53.369866" lon="-1.863628"><ele>345</ele><time>2022-03-19T11:52:40Z</time><name>PT4246</name></trkpt>
<trkpt lat="53.369877" lon="-1.863642"><ele>345</ele><time>2022-03-19T11:52:42Z</time><name>PT4247</name></trkpt>
<trkpt lat="53.369885" lon="-1.863657"><ele>345</ele><time>2022-03-19T11:52:43Z</time><name>PT4248</name></trkpt>
<trkpt lat="53.369894" lon="-1.863675"><ele>346</ele><time>2022-03-19T11:52:43Z</time><name>PT4249</name></trkpt>
<trkpt lat="53.369903" lon="-1.863693"><ele>346</ele><time>2022-03-19T11:52:45Z</time><name>PT4250</name></trkpt>
<trkpt lat="53.369936" lon="-1.863753"><ele>348</ele><time>2022-03-19T11:52:49Z</time><name>PT4251</name></trkpt>
<trkpt lat="53.369974" lon="-1.863804"><ele>348</ele><time>2022-03-19T11:52:52Z</time><name>PT4252</name></trkpt>
<trkpt lat="53.369999" lon="-1.863853"><ele>348</ele><time>2022-03-19T11:52:55Z</time><name>PT4253</name></trkpt>
<trkpt lat="53.370026" lon="-1.863889"><ele>349</ele><time>2022-03-19T11:52:58Z</time><name>PT4254</name></trkpt>
<trkpt lat="53.370058" lon="-1.863939"><ele>349</ele><time>2022-03-19T11:53:03Z</time><name>PT4255</name></trkpt>
<trkpt lat="53.370091" lon="-1.863986"><ele>350</ele><time>2022-03-19T11:53:07Z</time><name>PT4256</name></trkpt>
<trkpt lat="53.370120" lon="-1.864026"><ele>351</ele><time>2022-03-19T11:53:10Z</time><name>PT4257</name></trkpt>
<trkpt lat="53.370155" lon="-1.864076"><ele>352</ele><time>2022-03-19T11:53:13Z</time><name>PT4258</name></trkpt>
<trkpt lat="53.370190" lon="-1.864135"><ele>352</ele><time>2022-03-19T11:53:17Z</time><name>PT4259</name></trkpt>
<trkpt lat="53.370221" lon="-1.864205"><ele>353</ele><time>2022-03-19T11:53:21Z</time><name>PT4260</name></trkpt>
<trkpt lat="53.370233" lon="-1.864255"><ele>353</ele><time>2022-03-19T11:53:24Z</time><name>PT4261</name></trkpt>
<trkpt lat="53.370259" lon="-1.864320"><ele>353</ele><time>2022-03-19T11:53:28Z</time><name>PT4262</name></trkpt>
<trkpt lat="53.370292" lon="-1.864375"><ele>354</ele><time>2022-03-19T11:53:31Z</time><name>PT4263</name></trkpt>
<trkpt lat="53.370315" lon="-1.864440"><ele>353</ele><time>2022-03-19T11:53:36Z</time><name>PT4264</name></trkpt>
<trkpt lat="53.370332" lon="-1.864500"><ele>353</ele><time>2022-03-19T11:53:39Z</time><name>PT4265</name></trkpt>
<trkpt lat="53.370366" lon="-1.864552"><ele>353</ele><time>2022-03-19T11:53:43Z</time><name>PT4266</name></trkpt>
<trkpt lat="53.370387" lon="-1.864599"><ele>354</ele><time>2022-03-19T11:53:46Z</time><name>PT4267</name></trkpt>
<trkpt lat="53.370414" lon="-1.864640"><ele>354</ele><time>2022-03-19T11:53:49Z</time><name>PT4268</name></trkpt>
<trkpt lat="53.370445" lon="-1.864688"><ele>354</ele><time>2022-03-19T11:53:52Z</time><name>PT4269</name></trkpt>
<trkpt lat="53.370465" lon="-1.864726"><ele>354</ele><time>2022-03-19T11:53:55Z</time><name>PT4270</name></trkpt>
<trkpt lat="53.370496" lon="-1.864791"><ele>355</ele><time>2022-03-19T11:54:00Z</time><name>PT4271</name></trkpt>
<trkpt lat="53.370513" lon="-1.864834"><ele>356</ele><time>2022-03-19T11:54:03Z</time><name>PT4272</name></trkpt>
<trkpt lat="53.370551" lon="-1.864897"><ele>356</ele><time>2022-03-19T11:54:07Z</time><name>PT4273</name></trkpt>
<trkpt lat="53.370583" lon="-1.864960"><ele>356</ele><time>2022-03-19T11:54:10Z</time><name>PT4274</name></trkpt>
<trkpt lat="53.370600" lon="-1.865002"><ele>355</ele><time>2022-03-19T11:54:13Z</time><name>PT4275</name></trkpt>
<trkpt lat="53.370623" lon="-1.865085"><ele>355</ele><time>2022-03-19T11:54:18Z</time><name>PT4276</name></trkpt>
<trkpt lat="53.370641" lon="-1.865138"><ele>354</ele><time>2022-03-19T11:54:21Z</time><name>PT4277</name></trkpt>
<trkpt lat="53.370666" lon="-1.865212"><ele>354</ele><time>2022-03-19T11:54:25Z</time><name>PT4278</name></trkpt>
<trkpt lat="53.370676" lon="-1.865272"><ele>355</ele><time>2022-03-19T11:54:28Z</time><name>PT4279</name></trkpt>
<trkpt lat="53.370690" lon="-1.865317"><ele>355</ele><time>2022-03-19T11:54:31Z</time><name>PT4280</name></trkpt>
<trkpt lat="53.370706" lon="-1.865353"><ele>355</ele><time>2022-03-19T11:54:36Z</time><name>PT4281</name></trkpt>
<trkpt lat="53.370718" lon="-1.865370"><ele>355</ele><time>2022-03-19T11:54:39Z</time><name>PT4282</name></trkpt>
<trkpt lat="53.370720" lon="-1.865377"><ele>355</ele><time>2022-03-19T11:54:43Z</time><name>PT4283</name></trkpt>
<trkpt lat="53.370729" lon="-1.865428"><ele>355</ele><time>2022-03-19T11:54:46Z</time><name>PT4284</name></trkpt>
<trkpt lat="53.370750" lon="-1.865501"><ele>355</ele><time>2022-03-19T11:54:49Z</time><name>PT4285</name></trkpt>
<trkpt lat="53.370766" lon="-1.865576"><ele>355</ele><time>2022-03-19T11:54:52Z</time><name>PT4286</name></trkpt>
<trkpt lat="53.370786" lon="-1.865657"><ele>355</ele><time>2022-03-19T11:54:57Z</time><name>PT4287</name></trkpt>
<trkpt lat="53.370806" lon="-1.865734"><ele>356</ele><time>2022-03-19T11:55:01Z</time><name>PT4288</name></trkpt>
<trkpt lat="53.370827" lon="-1.865792"><ele>355</ele><time>2022-03-19T11:55:04Z</time><name>PT4289</name></trkpt>
<trkpt lat="53.370854" lon="-1.865865"><ele>355</ele><time>2022-03-19T11:55:07Z</time><name>PT4290</name></trkpt>
<trkpt lat="53.370872" lon="-1.865924"><ele>355</ele><time>2022-03-19T11:55:10Z</time><name>PT4291</name></trkpt>
<trkpt lat="53.370897" lon="-1.866000"><ele>357</ele><time>2022-03-19T11:55:15Z</time><name>PT4292</name></trkpt>
<trkpt lat="53.370917" lon="-1.866051"><ele>357</ele><time>2022-03-19T11:55:18Z</time><name>PT4293</name></trkpt>
<trkpt lat="53.370944" lon="-1.866124"><ele>358</ele><time>2022-03-19T11:55:22Z</time><name>PT4294</name></trkpt>
<trkpt lat="53.370966" lon="-1.866185"><ele>357</ele><time>2022-03-19T11:55:25Z</time><name>PT4295</name></trkpt>
<trkpt lat="53.370980" lon="-1.866235"><ele>358</ele><time>2022-03-19T11:55:28Z</time><name>PT4296</name></trkpt>
<trkpt lat="53.371002" lon="-1.866308"><ele>358</ele><time>2022-03-19T11:55:33Z</time><name>PT4297</name></trkpt>
<trkpt lat="53.371020" lon="-1.866388"><ele>358</ele><time>2022-03-19T11:55:37Z</time><name>PT4298</name></trkpt>
<trkpt lat="53.371030" lon="-1.866448"><ele>359</ele><time>2022-03-19T11:55:40Z</time><name>PT4299</name></trkpt>
<trkpt lat="53.371040" lon="-1.866504"><ele>359</ele><time>2022-03-19T11:55:43Z</time><name>PT4300</name></trkpt>
<trkpt lat="53.371054" lon="-1.866583"><ele>360</ele><time>2022-03-19T11:55:46Z</time><name>PT4301</name></trkpt>
<trkpt lat="53.371060" lon="-1.866645"><ele>360</ele><time>2022-03-19T11:55:49Z</time><name>PT4302</name></trkpt>
<trkpt lat="53.371070" lon="-1.866699"><ele>361</ele><time>2022-03-19T11:55:52Z</time><name>PT4303</name></trkpt>
<trkpt lat="53.371081" lon="-1.866783"><ele>362</ele><time>2022-03-19T11:55:57Z</time><name>PT4304</name></trkpt>
<trkpt lat="53.371091" lon="-1.866845"><ele>360</ele><time>2022-03-19T11:56:00Z</time><name>PT4305</name></trkpt>
<trkpt lat="53.371107" lon="-1.866921"><ele>360</ele><time>2022-03-19T11:56:04Z</time><name>PT4306</name></trkpt>
<trkpt lat="53.371121" lon="-1.866995"><ele>360</ele><time>2022-03-19T11:56:07Z</time><name>PT4307</name></trkpt>
<trkpt lat="53.371133" lon="-1.867067"><ele>360</ele><time>2022-03-19T11:56:12Z</time><name>PT4308</name></trkpt>
<trkpt lat="53.371144" lon="-1.867123"><ele>361</ele><time>2022-03-19T11:56:15Z</time><name>PT4309</name></trkpt>
<trkpt lat="53.371160" lon="-1.867195"><ele>361</ele><time>2022-03-19T11:56:19Z</time><name>PT4310</name></trkpt>
<trkpt lat="53.371173" lon="-1.867255"><ele>362</ele><time>2022-03-19T11:56:22Z</time><name>PT4311</name></trkpt>
<trkpt lat="53.371188" lon="-1.867327"><ele>362</ele><time>2022-03-19T11:56:25Z</time><name>PT4312</name></trkpt>
<trkpt lat="53.371204" lon="-1.867404"><ele>362</ele><time>2022-03-19T11:56:30Z</time><name>PT4313</name></trkpt>
<trkpt lat="53.371215" lon="-1.867462"><ele>362</ele><time>2022-03-19T11:56:33Z</time><name>PT4314</name></trkpt>
<trkpt lat="53.371233" lon="-1.867539"><ele>363</ele><time>2022-03-19T11:56:37Z</time><name>PT4315</name></trkpt>
<trkpt lat="53.371245" lon="-1.867592"><ele>362</ele><time>2022-03-19T11:56:40Z</time><name>PT4316</name></trkpt>
<trkpt lat="53.371255" lon="-1.867649"><ele>363</ele><time>2022-03-19T11:56:43Z</time><name>PT4317</name></trkpt>
<trkpt lat="53.371267" lon="-1.867694"><ele>363</ele><time>2022-03-19T11:56:46Z</time><name>PT4318</name></trkpt>
<trkpt lat="53.371281" lon="-1.867766"><ele>362</ele><time>2022-03-19T11:56:49Z</time><name>PT4319</name></trkpt>
<trkpt lat="53.371292" lon="-1.867815"><ele>363</ele><time>2022-03-19T11:56:52Z</time><name>PT4320</name></trkpt>
<trkpt lat="53.371312" lon="-1.867889"><ele>363</ele><time>2022-03-19T11:56:57Z</time><name>PT4321</name></trkpt>
<trkpt lat="53.371328" lon="-1.867934"><ele>363</ele><time>2022-03-19T11:57:00Z</time><name>PT4322</name></trkpt>
<trkpt lat="53.371346" lon="-1.868000"><ele>362</ele><time>2022-03-19T11:57:04Z</time><name>PT4323</name></trkpt>
<trkpt lat="53.371364" lon="-1.868050"><ele>363</ele><time>2022-03-19T11:57:07Z</time><name>PT4324</name></trkpt>
<trkpt lat="53.371385" lon="-1.868087"><ele>362</ele><time>2022-03-19T11:57:10Z</time><name>PT4325</name></trkpt>
<trkpt lat="53.371411" lon="-1.868143"><ele>361</ele><time>2022-03-19T11:57:13Z</time><name>PT4326</name></trkpt>
<trkpt lat="53.371430" lon="-1.868179"><ele>362</ele><time>2022-03-19T11:57:16Z</time><name>PT4327</name></trkpt>
<trkpt lat="53.371449" lon="-1.868217"><ele>363</ele><time>2022-03-19T11:57:19Z</time><name>PT4328</name></trkpt>
<trkpt lat="53.371484" lon="-1.868264"><ele>362</ele><time>2022-03-19T11:57:24Z</time><name>PT4329</name></trkpt>
<trkpt lat="53.371515" lon="-1.868300"><ele>362</ele><time>2022-03-19T11:57:28Z</time><name>PT4330</name></trkpt>
<trkpt lat="53.371542" lon="-1.868332"><ele>362</ele><time>2022-03-19T11:57:31Z</time><name>PT4331</name></trkpt>
<trkpt lat="53.371570" lon="-1.868362"><ele>361</ele><time>2022-03-19T11:57:34Z</time><name>PT4332</name></trkpt>
<trkpt lat="53.371598" lon="-1.868391"><ele>361</ele><time>2022-03-19T11:57:37Z</time><name>PT4333</name></trkpt>
<trkpt lat="53.371640" lon="-1.868422"><ele>361</ele><time>2022-03-19T11:57:40Z</time><name>PT4334</name></trkpt>
<trkpt lat="53.371683" lon="-1.868452"><ele>362</ele><time>2022-03-19T11:57:45Z</time><name>PT4335</name></trkpt>
<trkpt lat="53.371720" lon="-1.868488"><ele>362</ele><time>2022-03-19T11:57:48Z</time><name>PT4336</name></trkpt>
<trkpt lat="53.371752" lon="-1.868502"><ele>362</ele><time>2022-03-19T11:57:51Z</time><name>PT4337</name></trkpt>
<trkpt lat="53.371794" lon="-1.868530"><ele>363</ele><time>2022-03-19T11:57:55Z</time><name>PT4338</name></trkpt>
<trkpt lat="53.371833" lon="-1.868547"><ele>363</ele><time>2022-03-19T11:57:58Z</time><name>PT4339</name></trkpt>
<trkpt lat="53.371869" lon="-1.868565"><ele>364</ele><time>2022-03-19T11:58:01Z</time><name>PT4340</name></trkpt>
<trkpt lat="53.371917" lon="-1.868593"><ele>362</ele><time>2022-03-19T11:58:04Z</time><name>PT4341</name></trkpt>
<trkpt lat="53.371950" lon="-1.868607"><ele>362</ele><time>2022-03-19T11:58:07Z</time><name>PT4342</name></trkpt>
<trkpt lat="53.371982" lon="-1.868615"><ele>362</ele><time>2022-03-19T11:58:10Z</time><name>PT4343</name></trkpt>
<trkpt lat="53.372025" lon="-1.868625"><ele>361</ele><time>2022-03-19T11:58:15Z</time><name>PT4344</name></trkpt>
<trkpt lat="53.372052" lon="-1.868630"><ele>359</ele><time>2022-03-19T11:58:19Z</time><name>PT4345</name></trkpt>
<trkpt lat="53.372064" lon="-1.868632"><ele>358</ele><time>2022-03-19T11:58:22Z</time><name>PT4346</name></trkpt>
<trkpt lat="53.372093" lon="-1.868640"><ele>357</ele><time>2022-03-19T11:58:25Z</time><name>PT4347</name></trkpt>
<trkpt lat="53.372114" lon="-1.868680"><ele>358</ele><time>2022-03-19T11:58:28Z</time><name>PT4348</name></trkpt>
<trkpt lat="53.372145" lon="-1.868731"><ele>359</ele><time>2022-03-19T11:58:33Z</time><name>PT4349</name></trkpt>
<trkpt lat="53.372174" lon="-1.868758"><ele>358</ele><time>2022-03-19T11:58:36Z</time><name>PT4350</name></trkpt>
<trkpt lat="53.372194" lon="-1.868773"><ele>358</ele><time>2022-03-19T11:58:39Z</time><name>PT4351</name></trkpt>
<trkpt lat="53.372230" lon="-1.868784"><ele>358</ele><time>2022-03-19T11:58:43Z</time><name>PT4352</name></trkpt>
<trkpt lat="53.372268" lon="-1.868784"><ele>359</ele><time>2022-03-19T11:58:46Z</time><name>PT4353</name></trkpt>
<trkpt lat="53.372301" lon="-1.868784"><ele>360</ele><time>2022-03-19T11:58:49Z</time><name>PT4354</name></trkpt>
<trkpt lat="53.372337" lon="-1.868791"><ele>362</ele><time>2022-03-19T11:58:54Z</time><name>PT4355</name></trkpt>
<trkpt lat="53.372362" lon="-1.868802"><ele>363</ele><time>2022-03-19T11:58:57Z</time><name>PT4356</name></trkpt>
<trkpt lat="53.372405" lon="-1.868814"><ele>363</ele><time>2022-03-19T11:59:01Z</time><name>PT4357</name></trkpt>
<trkpt lat="53.372435" lon="-1.868818"><ele>364</ele><time>2022-03-19T11:59:04Z</time><name>PT4358</name></trkpt>
<trkpt lat="53.372471" lon="-1.868809"><ele>365</ele><time>2022-03-19T11:59:07Z</time><name>PT4359</name></trkpt>
<trkpt lat="53.372504" lon="-1.868808"><ele>365</ele><time>2022-03-19T11:59:12Z</time><name>PT4360</name></trkpt>
<trkpt lat="53.372526" lon="-1.868791"><ele>365</ele><time>2022-03-19T11:59:15Z</time><name>PT4361</name></trkpt>
<trkpt lat="53.372556" lon="-1.868785"><ele>365</ele><time>2022-03-19T11:59:19Z</time><name>PT4362</name></trkpt>
<trkpt lat="53.372587" lon="-1.868774"><ele>366</ele><time>2022-03-19T11:59:22Z</time><name>PT4363</name></trkpt>
<trkpt lat="53.372609" lon="-1.868769"><ele>367</ele><time>2022-03-19T11:59:25Z</time><name>PT4364</name></trkpt>
<trkpt lat="53.372637" lon="-1.868774"><ele>367</ele><time>2022-03-19T11:59:30Z</time><name>PT4365</name></trkpt>
<trkpt lat="53.372664" lon="-1.868774"><ele>368</ele><time>2022-03-19T11:59:34Z</time><name>PT4366</name></trkpt>
<trkpt lat="53.372684" lon="-1.868783"><ele>370</ele><time>2022-03-19T11:59:37Z</time><name>PT4367</name></trkpt>
<trkpt lat="53.372708" lon="-1.868846"><ele>372</ele><time>2022-03-19T11:59:42Z</time><name>PT4368</name></trkpt>
<trkpt lat="53.372711" lon="-1.868903"><ele>372</ele><time>2022-03-19T11:59:46Z</time><name>PT4369</name></trkpt>
<trkpt lat="53.372721" lon="-1.868938"><ele>373</ele><time>2022-03-19T11:59:49Z</time><name>PT4370</name></trkpt>
<trkpt lat="53.372723" lon="-1.868970"><ele>372</ele><time>2022-03-19T11:59:52Z</time><name>PT4371</name></trkpt>
<trkpt lat="53.372728" lon="-1.869009"><ele>374</ele><time>2022-03-19T11:59:55Z</time><name>PT4372</name></trkpt>
<trkpt lat="53.372729" lon="-1.869048"><ele>374</ele><time>2022-03-19T12:00:00Z</time><name>PT4373</name></trkpt>
<trkpt lat="53.372729" lon="-1.869078"><ele>375</ele><time>2022-03-19T12:00:04Z</time><name>PT4374</name></trkpt>
<trkpt lat="53.372726" lon="-1.869111"><ele>375</ele><time>2022-03-19T12:00:07Z</time><name>PT4375</name></trkpt>
<trkpt lat="53.372721" lon="-1.869154"><ele>375</ele><time>2022-03-19T12:00:10Z</time><name>PT4376</name></trkpt>
<trkpt lat="53.372718" lon="-1.869178"><ele>376</ele><time>2022-03-19T12:00:13Z</time><name>PT4377</name></trkpt>
<trkpt lat="53.372713" lon="-1.869230"><ele>376</ele><time>2022-03-19T12:00:18Z</time><name>PT4378</name></trkpt>
<trkpt lat="53.372710" lon="-1.869261"><ele>376</ele><time>2022-03-19T12:00:21Z</time><name>PT4379</name></trkpt>
<trkpt lat="53.372711" lon="-1.869303"><ele>377</ele><time>2022-03-19T12:00:25Z</time><name>PT4380</name></trkpt>
<trkpt lat="53.372720" lon="-1.869337"><ele>378</ele><time>2022-03-19T12:00:28Z</time><name>PT4381</name></trkpt>
<trkpt lat="53.372721" lon="-1.869381"><ele>379</ele><time>2022-03-19T12:00:31Z</time><name>PT4382</name></trkpt>
<trkpt lat="53.372725" lon="-1.869396"><ele>379</ele><time>2022-03-19T12:00:34Z</time><name>PT4383</name></trkpt>
<trkpt lat="53.372731" lon="-1.869421"><ele>380</ele><time>2022-03-19T12:00:37Z</time><name>PT4384</name></trkpt>
<trkpt lat="53.372749" lon="-1.869445"><ele>380</ele><time>2022-03-19T12:00:42Z</time><name>PT4385</name></trkpt>
<trkpt lat="53.372763" lon="-1.869465"><ele>379</ele><time>2022-03-19T12:00:45Z</time><name>PT4386</name></trkpt>
<trkpt lat="53.372788" lon="-1.869465"><ele>381</ele><time>2022-03-19T12:00:49Z</time><name>PT4387</name></trkpt>
<trkpt lat="53.372814" lon="-1.869478"><ele>382</ele><time>2022-03-19T12:00:52Z</time><name>PT4388</name></trkpt>
<trkpt lat="53.372833" lon="-1.869494"><ele>381</ele><time>2022-03-19T12:00:55Z</time><name>PT4389</name></trkpt>
<trkpt lat="53.372847" lon="-1.869511"><ele>381</ele><time>2022-03-19T12:01:00Z</time><name>PT4390</name></trkpt>
<trkpt lat="53.372867" lon="-1.869515"><ele>382</ele><time>2022-03-19T12:01:03Z</time><name>PT4391</name></trkpt>
<trkpt lat="53.372890" lon="-1.869519"><ele>382</ele><time>2022-03-19T12:01:07Z</time><name>PT4392</name></trkpt>
<trkpt lat="53.372906" lon="-1.869530"><ele>383</ele><time>2022-03-19T12:01:10Z</time><name>PT4393</name></trkpt>
<trkpt lat="53.372930" lon="-1.869539"><ele>384</ele><time>2022-03-19T12:01:13Z</time><name>PT4394</name></trkpt>
<trkpt lat="53.372955" lon="-1.869537"><ele>385</ele><time>2022-03-19T12:01:18Z</time><name>PT4395</name></trkpt>
<trkpt lat="53.372974" lon="-1.869526"><ele>387</ele><time>2022-03-19T12:01:21Z</time><name>PT4396</name></trkpt>
<trkpt lat="53.372981" lon="-1.869522"><ele>387</ele><time>2022-03-19T12:01:22Z</time><name>PT4397</name></trkpt>
<trkpt lat="53.372986" lon="-1.869520"><ele>388</ele><time>2022-03-19T12:01:22Z</time><name>PT4398</name></trkpt>
<trkpt lat="53.372992" lon="-1.869518"><ele>388</ele><time>2022-03-19T12:01:24Z</time><name>PT4399</name></trkpt>
<trkpt lat="53.372997" lon="-1.869520"><ele>389</ele><time>2022-03-19T12:01:25Z</time><name>PT4400</name></trkpt>
<trkpt lat="53.373001" lon="-1.869522"><ele>388</ele><time>2022-03-19T12:01:25Z</time><name>PT4401</name></trkpt>
<trkpt lat="53.373006" lon="-1.869514"><ele>389</ele><time>2022-03-19T12:01:27Z</time><name>PT4402</name></trkpt>
<trkpt lat="53.373012" lon="-1.869514"><ele>389</ele><time>2022-03-19T12:01:28Z</time><name>PT4403</name></trkpt>
<trkpt lat="53.373020" lon="-1.869512"><ele>390</ele><time>2022-03-19T12:01:28Z</time><name>PT4404</name></trkpt>
<trkpt lat="53.373027" lon="-1.869514"><ele>390</ele><time>2022-03-19T12:01:30Z</time><name>PT4405</name></trkpt>
<trkpt lat="53.373034" lon="-1.869509"><ele>390</ele><time>2022-03-19T12:01:31Z</time><name>PT4406</name></trkpt>
<trkpt lat="53.373040" lon="-1.869504"><ele>390</ele><time>2022-03-19T12:01:31Z</time><name>PT4407</name></trkpt>
<trkpt lat="53.373048" lon="-1.869503"><ele>391</ele><time>2022-03-19T12:01:33Z</time><name>PT4408</name></trkpt>
<trkpt lat="53.373053" lon="-1.869507"><ele>391</ele><time>2022-03-19T12:01:34Z</time><name>PT4409</name></trkpt>
<trkpt lat="53.373059" lon="-1.869508"><ele>392</ele><time>2022-03-19T12:01:34Z</time><name>PT4410</name></trkpt>
<trkpt lat="53.373062" lon="-1.869508"><ele>392</ele><time>2022-03-19T12:01:36Z</time><name>PT4411</name></trkpt>
<trkpt lat="53.373067" lon="-1.869505"><ele>392</ele><time>2022-03-19T12:01:37Z</time><name>PT4412</name></trkpt>
<trkpt lat="53.373073" lon="-1.869510"><ele>392</ele><time>2022-03-19T12:01:37Z</time><name>PT4413</name></trkpt>
<trkpt lat="53.373078" lon="-1.869510"><ele>392</ele><time>2022-03-19T12:01:39Z</time><name>PT4414</name></trkpt>
<trkpt lat="53.373087" lon="-1.869509"><ele>392</ele><time>2022-03-19T12:01:40Z</time><name>PT4415</name></trkpt>
<trkpt lat="53.373092" lon="-1.869506"><ele>393</ele><time>2022-03-19T12:01:40Z</time><name>PT4416</name></trkpt>
<trkpt lat="53.373098" lon="-1.869503"><ele>394</ele><time>2022-03-19T12:01:42Z</time><name>PT4417</name></trkpt>
<trkpt lat="53.373105" lon="-1.869500"><ele>394</ele><time>2022-03-19T12:01:43Z</time><name>PT4418</name></trkpt>
<trkpt lat="53.373113" lon="-1.869501"><ele>394</ele><time>2022-03-19T12:01:43Z</time><name>PT4419</name></trkpt>
<trkpt lat="53.373121" lon="-1.869497"><ele>395</ele><time>2022-03-19T12:01:45Z</time><name>PT4420</name></trkpt>
<trkpt lat="53.373131" lon="-1.869502"><ele>395</ele><time>2022-03-19T12:01:46Z</time><name>PT4421</name></trkpt>
<trkpt lat="53.373138" lon="-1.869501"><ele>395</ele><time>2022-03-19T12:01:46Z</time><name>PT4422</name></trkpt>
<trkpt lat="53.373146" lon="-1.869505"><ele>395</ele><time>2022-03-19T12:01:48Z</time><name>PT4423</name></trkpt>
<trkpt lat="53.373153" lon="-1.869507"><ele>395</ele><time>2022-03-19T12:01:49Z</time><name>PT4424</name></trkpt>
<trkpt lat="53.373161" lon="-1.869509"><ele>395</ele><time>2022-03-19T12:01:49Z</time><name>PT4425</name></trkpt>
<trkpt lat="53.373169" lon="-1.869512"><ele>394</ele><time>2022-03-19T12:01:51Z</time><name>PT4426</name></trkpt>
<trkpt lat="53.373177" lon="-1.869513"><ele>395</ele><time>2022-03-19T12:01:52Z</time><name>PT4427</name></trkpt>
<trkpt lat="53.373187" lon="-1.869515"><ele>396</ele><time>2022-03-19T12:01:52Z</time><name>PT4428</name></trkpt>
<trkpt lat="53.373195" lon="-1.869517"><ele>396</ele><time>2022-03-19T12:01:54Z</time><name>PT4429</name></trkpt>
<trkpt lat="53.373204" lon="-1.869521"><ele>396</ele><time>2022-03-19T12:01:55Z</time><name>PT4430</name></trkpt>
<trkpt lat="53.373215" lon="-1.869525"><ele>397</ele><time>2022-03-19T12:01:55Z</time><name>PT4431</name></trkpt>
<trkpt lat="53.373225" lon="-1.869529"><ele>398</ele><time>2022-03-19T12:01:57Z</time><name>PT4432</name></trkpt>
<trkpt lat="53.373234" lon="-1.869534"><ele>398</ele><time>2022-03-19T12:01:58Z</time><name>PT4433</name></trkpt>
<trkpt lat="53.373242" lon="-1.869539"><ele>399</ele><time>2022-03-19T12:01:58Z</time><name>PT4434</name></trkpt>
<trkpt lat="53.373251" lon="-1.869543"><ele>399</ele><time>2022-03-19T12:02:00Z</time><name>PT4435</name></trkpt>
<trkpt lat="53.373256" lon="-1.869550"><ele>400</ele><time>2022-03-19T12:02:01Z</time><name>PT4436</name></trkpt>
<trkpt lat="53.373263" lon="-1.869557"><ele>400</ele><time>2022-03-19T12:02:01Z</time><name>PT4437</name></trkpt>
<trkpt lat="53.373267" lon="-1.869564"><ele>401</ele><time>2022-03-19T12:02:03Z</time><name>PT4438</name></trkpt>
<trkpt lat="53.373273" lon="-1.869569"><ele>401</ele><time>2022-03-19T12:02:04Z</time><name>PT4439</name></trkpt>
<trkpt lat="53.373279" lon="-1.869576"><ele>402</ele><time>2022-03-19T12:02:04Z</time><name>PT4440</name></trkpt>
<trkpt lat="53.373287" lon="-1.869583"><ele>403</ele><time>2022-03-19T12:02:06Z</time><name>PT4441</name></trkpt>
<trkpt lat="53.373294" lon="-1.869592"><ele>403</ele><time>2022-03-19T12:02:07Z</time><name>PT4442</name></trkpt>
<trkpt lat="53.373300" lon="-1.869598"><ele>403</ele><time>2022-03-19T12:02:07Z</time><name>PT4443</name></trkpt>
<trkpt lat="53.373305" lon="-1.869604"><ele>404</ele><time>2022-03-19T12:02:09Z</time><name>PT4444</name></trkpt>
<trkpt lat="53.373311" lon="-1.869609"><ele>404</ele><time>2022-03-19T12:02:10Z</time><name>PT4445</name></trkpt>
<trkpt lat="53.373315" lon="-1.869614"><ele>405</ele><time>2022-03-19T12:02:10Z</time><name>PT4446</name></trkpt>
<trkpt lat="53.373319" lon="-1.869622"><ele>405</ele><time>2022-03-19T12:02:12Z</time><name>PT4447</name></trkpt>
<trkpt lat="53.373325" lon="-1.869630"><ele>405</ele><time>2022-03-19T12:02:13Z</time><name>PT4448</name></trkpt>
<trkpt lat="53.373331" lon="-1.869639"><ele>405</ele><time>2022-03-19T12:02:13Z</time><name>PT4449</name></trkpt>
<trkpt lat="53.373336" lon="-1.869648"><ele>405</ele><time>2022-03-19T12:02:15Z</time><name>PT4450</name></trkpt>
<trkpt lat="53.373343" lon="-1.869656"><ele>406</ele><time>2022-03-19T12:02:16Z</time><name>PT4451</name></trkpt>
<trkpt lat="53.373349" lon="-1.869665"><ele>406</ele><time>2022-03-19T12:02:16Z</time><name>PT4452</name></trkpt>
<trkpt lat="53.373352" lon="-1.869677"><ele>406</ele><time>2022-03-19T12:02:18Z</time><name>PT4453</name></trkpt>
<trkpt lat="53.373356" lon="-1.869686"><ele>407</ele><time>2022-03-19T12:02:19Z</time><name>PT4454</name></trkpt>
<trkpt lat="53.373360" lon="-1.869696"><ele>407</ele><time>2022-03-19T12:02:19Z</time><name>PT4455</name></trkpt>
<trkpt lat="53.373364" lon="-1.869705"><ele>407</ele><time>2022-03-19T12:02:21Z</time><name>PT4456</name></trkpt>
<trkpt lat="53.373368" lon="-1.869719"><ele>407</ele><time>2022-03-19T12:02:22Z</time><name>PT4457</name></trkpt>
<trkpt lat="53.373374" lon="-1.869730"><ele>407</ele><time>2022-03-19T12:02:22Z</time><name>PT4458</name></trkpt>
<trkpt lat="53.373380" lon="-1.869739"><ele>408</ele><time>2022-03-19T12:02:24Z</time><name>PT4459</name></trkpt>
<trkpt lat="53.373384" lon="-1.869750"><ele>408</ele><time>2022-03-19T12:02:25Z</time><name>PT4460</name></trkpt>
<trkpt lat="53.373390" lon="-1.869761"><ele>408</ele><time>2022-03-19T12:02:25Z</time><name>PT4461</name></trkpt>
<trkpt lat="53.373393" lon="-1.869770"><ele>409</ele><time>2022-03-19T12:02:27Z</time><name>PT4462</name></trkpt>
<trkpt lat="53.373397" lon="-1.869778"><ele>409</ele><time>2022-03-19T12:02:28Z</time><name>PT4463</name></trkpt>
<trkpt lat="53.373401" lon="-1.869787"><ele>410</ele><time>2022-03-19T12:02:28Z</time><name>PT4464</name></trkpt>
<trkpt lat="53.373403" lon="-1.869793"><ele>410</ele><time>2022-03-19T12:02:30Z</time><name>PT4465</name></trkpt>
<trkpt lat="53.373405" lon="-1.869800"><ele>411</ele><time>2022-03-19T12:02:31Z</time><name>PT4466</name></trkpt>
<trkpt lat="53.373410" lon="-1.869809"><ele>412</ele><time>2022-03-19T12:02:31Z</time><name>PT4467</name></trkpt>
<trkpt lat="53.373413" lon="-1.869816"><ele>412</ele><time>2022-03-19T12:02:33Z</time><name>PT4468</name></trkpt>
<trkpt lat="53.373416" lon="-1.869825"><ele>413</ele><time>2022-03-19T12:02:34Z</time><name>PT4469</name></trkpt>
<trkpt lat="53.373420" lon="-1.869830"><ele>413</ele><time>2022-03-19T12:02:34Z</time><name>PT4470</name></trkpt>
<trkpt lat="53.373424" lon="-1.869839"><ele>413</ele><time>2022-03-19T12:02:36Z</time><name>PT4471</name></trkpt>
<trkpt lat="53.373425" lon="-1.869850"><ele>413</ele><time>2022-03-19T12:02:37Z</time><name>PT4472</name></trkpt>
<trkpt lat="53.373427" lon="-1.869861"><ele>414</ele><time>2022-03-19T12:02:38Z</time><name>PT4473</name></trkpt>
<trkpt lat="53.373431" lon="-1.869867"><ele>414</ele><time>2022-03-19T12:02:39Z</time><name>PT4474</name></trkpt>
<trkpt lat="53.373433" lon="-1.869874"><ele>415</ele><time>2022-03-19T12:02:40Z</time><name>PT4475</name></trkpt>
<trkpt lat="53.373435" lon="-1.869883"><ele>415</ele><time>2022-03-19T12:02:40Z</time><name>PT4476</name></trkpt>
<trkpt lat="53.373437" lon="-1.869891"><ele>415</ele><time>2022-03-19T12:02:42Z</time><name>PT4477</name></trkpt>
<trkpt lat="53.373438" lon="-1.869900"><ele>415</ele><time>2022-03-19T12:02:43Z</time><name>PT4478</name></trkpt>
<trkpt lat="53.373438" lon="-1.869910"><ele>416</ele><time>2022-03-19T12:02:43Z</time><name>PT4479</name></trkpt>
<trkpt lat="53.373439" lon="-1.869920"><ele>417</ele><time>2022-03-19T12:02:45Z</time><name>PT4480</name></trkpt>
<trkpt lat="53.373441" lon="-1.869930"><ele>417</ele><time>2022-03-19T12:02:46Z</time><name>PT4481</name></trkpt>
<trkpt lat="53.373446" lon="-1.869937"><ele>417</ele><time>2022-03-19T12:02:46Z</time><name>PT4482</name></trkpt>
<trkpt lat="53.373450" lon="-1.869945"><ele>418</ele><time>2022-03-19T12:02:48Z</time><name>PT4483</name></trkpt>
<trkpt lat="53.373451" lon="-1.869954"><ele>418</ele><time>2022-03-19T12:02:49Z</time><name>PT4484</name></trkpt>
<trkpt lat="53.373451" lon="-1.869961"><ele>419</ele><time>2022-03-19T12:02:49Z</time><name>PT4485</name></trkpt>
<trkpt lat="53.373453" lon="-1.869971"><ele>419</ele><time>2022-03-19T12:02:51Z</time><name>PT4486</name></trkpt>
<trkpt lat="53.373454" lon="-1.869980"><ele>419</ele><time>2022-03-19T12:02:52Z</time><name>PT4487</name></trkpt>
<trkpt lat="53.373454" lon="-1.869989"><ele>420</ele><time>2022-03-19T12:02:52Z</time><name>PT4488</name></trkpt>
<trkpt lat="53.373456" lon="-1.869999"><ele>420</ele><time>2022-03-19T12:02:54Z</time><name>PT4489</name></trkpt>
<trkpt lat="53.373458" lon="-1.870009"><ele>420</ele><time>2022-03-19T12:02:55Z</time><name>PT4490</name></trkpt>
<trkpt lat="53.373459" lon="-1.870020"><ele>420</ele><time>2022-03-19T12:02:55Z</time><name>PT4491</name></trkpt>
<trkpt lat="53.373460" lon="-1.870027"><ele>421</ele><time>2022-03-19T12:02:57Z</time><name>PT4492</name></trkpt>
<trkpt lat="53.373461" lon="-1.870037"><ele>421</ele><time>2022-03-19T12:02:58Z</time><name>PT4493</name></trkpt>
<trkpt lat="53.373463" lon="-1.870049"><ele>421</ele><time>2022-03-19T12:02:58Z</time><name>PT4494</name></trkpt>
<trkpt lat="53.373464" lon="-1.870059"><ele>421</ele><time>2022-03-19T12:03:00Z</time><name>PT4495</name></trkpt>
<trkpt lat="53.373467" lon="-1.870067"><ele>421</ele><time>2022-03-19T12:03:01Z</time><name>PT4496</name></trkpt>
<trkpt lat="53.373468" lon="-1.870079"><ele>421</ele><time>2022-03-19T12:03:01Z</time><name>PT4497</name></trkpt>
<trkpt lat="53.373469" lon="-1.870089"><ele>421</ele><time>2022-03-19T12:03:03Z</time><name>PT4498</name></trkpt>
<trkpt lat="53.373469" lon="-1.870098"><ele>421</ele><time>2022-03-19T12:03:04Z</time><name>PT4499</name></trkpt>
<trkpt lat="53.373470" lon="-1.870108"><ele>421</ele><time>2022-03-19T12:03:04Z</time><name>PT4500</name></trkpt>
<trkpt lat="53.373473" lon="-1.870120"><ele>421</ele><time>2022-03-19T12:03:06Z</time><name>PT4501</name></trkpt>
<trkpt lat="53.373475" lon="-1.870131"><ele>422</ele><time>2022-03-19T12:03:07Z</time><name>PT4502</name></trkpt>
<trkpt lat="53.373477" lon="-1.870140"><ele>422</ele><time>2022-03-19T12:03:07Z</time><name>PT4503</name></trkpt>
<trkpt lat="53.373479" lon="-1.870150"><ele>422</ele><time>2022-03-19T12:03:09Z</time><name>PT4504</name></trkpt>
<trkpt lat="53.373479" lon="-1.870161"><ele>422</ele><time>2022-03-19T12:03:10Z</time><name>PT4505</name></trkpt>
<trkpt lat="53.373481" lon="-1.870170"><ele>422</ele><time>2022-03-19T12:03:10Z</time><name>PT4506</name></trkpt>
<trkpt lat="53.373485" lon="-1.870182"><ele>422</ele><time>2022-03-19T12:03:12Z</time><name>PT4507</name></trkpt>
<trkpt lat="53.373486" lon="-1.870194"><ele>423</ele><time>2022-03-19T12:03:13Z</time><name>PT4508</name></trkpt>
<trkpt lat="53.373488" lon="-1.870204"><ele>423</ele><time>2022-03-19T12:03:13Z</time><name>PT4509</name></trkpt>
<trkpt lat="53.373490" lon="-1.870212"><ele>424</ele><time>2022-03-19T12:03:15Z</time><name>PT4510</name></trkpt>
<trkpt lat="53.373491" lon="-1.870220"><ele>424</ele><time>2022-03-19T12:03:16Z</time><name>PT4511</name></trkpt>
<trkpt lat="53.373496" lon="-1.870233"><ele>424</ele><time>2022-03-19T12:03:16Z</time><name>PT4512</name></trkpt>
<trkpt lat="53.373496" lon="-1.870238"><ele>424</ele><time>2022-03-19T12:03:18Z</time><name>PT4513</name></trkpt>
<trkpt lat="53.373496" lon="-1.870243"><ele>424</ele><time>2022-03-19T12:03:19Z</time><name>PT4514</name></trkpt>
<trkpt lat="53.373496" lon="-1.870251"><ele>424</ele><time>2022-03-19T12:03:19Z</time><name>PT4515</name></trkpt>
<trkpt lat="53.373494" lon="-1.870258"><ele>424</ele><time>2022-03-19T12:03:21Z</time><name>PT4516</name></trkpt>
<trkpt lat="53.373492" lon="-1.870266"><ele>424</ele><time>2022-03-19T12:03:22Z</time><name>PT4517</name></trkpt>
<trkpt lat="53.373491" lon="-1.870274"><ele>425</ele><time>2022-03-19T12:03:22Z</time><name>PT4518</name></trkpt>
<trkpt lat="53.373490" lon="-1.870282"><ele>425</ele><time>2022-03-19T12:03:24Z</time><name>PT4519</name></trkpt>
<trkpt lat="53.373489" lon="-1.870290"><ele>425</ele><time>2022-03-19T12:03:25Z</time><name>PT4520</name></trkpt>
<trkpt lat="53.373491" lon="-1.870302"><ele>426</ele><time>2022-03-19T12:03:25Z</time><name>PT4521</name></trkpt>
<trkpt lat="53.373492" lon="-1.870313"><ele>426</ele><time>2022-03-19T12:03:27Z</time><name>PT4522</name></trkpt>
<trkpt lat="53.373492" lon="-1.870321"><ele>426</ele><time>2022-03-19T12:03:28Z</time><name>PT4523</name></trkpt>
<trkpt lat="53.373494" lon="-1.870328"><ele>426</ele><time>2022-03-19T12:03:28Z</time><name>PT4524</name></trkpt>
<trkpt lat="53.373496" lon="-1.870339"><ele>426</ele><time>2022-03-19T12:03:30Z</time><name>PT4525</name></trkpt>
<trkpt lat="53.373497" lon="-1.870349"><ele>425</ele><time>2022-03-19T12:03:31Z</time><name>PT4526</name></trkpt>
<trkpt lat="53.373498" lon="-1.870360"><ele>426</ele><time>2022-03-19T12:03:31Z</time><name>PT4527</name></trkpt>
<trkpt lat="53.373499" lon="-1.870368"><ele>426</ele><time>2022-03-19T12:03:33Z</time><name>PT4528</name></trkpt>
<trkpt lat="53.373502" lon="-1.870379"><ele>426</ele><time>2022-03-19T12:03:34Z</time><name>PT4529</name></trkpt>
<trkpt lat="53.373503" lon="-1.870394"><ele>426</ele><time>2022-03-19T12:03:34Z</time><name>PT4530</name></trkpt>
<trkpt lat="53.373504" lon="-1.870407"><ele>426</ele><time>2022-03-19T12:03:36Z</time><name>PT4531</name></trkpt>
<trkpt lat="53.373508" lon="-1.870421"><ele>427</ele><time>2022-03-19T12:03:37Z</time><name>PT4532</name></trkpt>
<trkpt lat="53.373511" lon="-1.870434"><ele>427</ele><time>2022-03-19T12:03:37Z</time><name>PT4533</name></trkpt>
<trkpt lat="53.373513" lon="-1.870443"><ele>427</ele><time>2022-03-19T12:03:39Z</time><name>PT4534</name></trkpt>
<trkpt lat="53.373516" lon="-1.870455"><ele>428</ele><time>2022-03-19T12:03:40Z</time><name>PT4535</name></trkpt>
<trkpt lat="53.373517" lon="-1.870464"><ele>428</ele><time>2022-03-19T12:03:40Z</time><name>PT4536</name></trkpt>
<trkpt lat="53.373518" lon="-1.870473"><ele>428</ele><time>2022-03-19T12:03:42Z</time><name>PT4537</name></trkpt>
<trkpt lat="53.373520" lon="-1.870482"><ele>428</ele><time>2022-03-19T12:03:43Z</time><name>PT4538</name></trkpt>
<trkpt lat="53.373521" lon="-1.870489"><ele>429</ele><time>2022-03-19T12:03:46Z</time><name>PT4539</name></trkpt>
<trkpt lat="53.373521" lon="-1.870504"><ele>429</ele><time>2022-03-19T12:03:46Z</time><name>PT4540</name></trkpt>
<trkpt lat="53.373523" lon="-1.870517"><ele>429</ele><time>2022-03-19T12:03:48Z</time><name>PT4541</name></trkpt>
<trkpt lat="53.373524" lon="-1.870532"><ele>429</ele><time>2022-03-19T12:03:49Z</time><name>PT4542</name></trkpt>
<trkpt lat="53.373521" lon="-1.870543"><ele>429</ele><time>2022-03-19T12:03:49Z</time><name>PT4543</name></trkpt>
<trkpt lat="53.373523" lon="-1.870559"><ele>429</ele><time>2022-03-19T12:03:51Z</time><name>PT4544</name></trkpt>
<trkpt lat="53.373522" lon="-1.870570"><ele>430</ele><time>2022-03-19T12:03:52Z</time><name>PT4545</name></trkpt>
<trkpt lat="53.373522" lon="-1.870581"><ele>430</ele><time>2022-03-19T12:03:52Z</time><name>PT4546</name></trkpt>
<trkpt lat="53.373522" lon="-1.870592"><ele>430</ele><time>2022-03-19T12:03:54Z</time><name>PT4547</name></trkpt>
<trkpt lat="53.373523" lon="-1.870604"><ele>430</ele><time>2022-03-19T12:03:55Z</time><name>PT4548</name></trkpt>
<trkpt lat="53.373522" lon="-1.870613"><ele>431</ele><time>2022-03-19T12:03:55Z</time><name>PT4549</name></trkpt>
<trkpt lat="53.373522" lon="-1.870623"><ele>430</ele><time>2022-03-19T12:03:57Z</time><name>PT4550</name></trkpt>
<trkpt lat="53.373522" lon="-1.870631"><ele>430</ele><time>2022-03-19T12:03:58Z</time><name>PT4551</name></trkpt>
<trkpt lat="53.373520" lon="-1.870638"><ele>431</ele><time>2022-03-19T12:03:58Z</time><name>PT4552</name></trkpt>
<trkpt lat="53.373517" lon="-1.870648"><ele>431</ele><time>2022-03-19T12:04:00Z</time><name>PT4553</name></trkpt>
<trkpt lat="53.373517" lon="-1.870656"><ele>431</ele><time>2022-03-19T12:04:01Z</time><name>PT4554</name></trkpt>
<trkpt lat="53.373515" lon="-1.870662"><ele>431</ele><time>2022-03-19T12:04:01Z</time><name>PT4555</name></trkpt>
<trkpt lat="53.373514" lon="-1.870669"><ele>431</ele><time>2022-03-19T12:04:03Z</time><name>PT4556</name></trkpt>
<trkpt lat="53.373511" lon="-1.870687"><ele>431</ele><time>2022-03-19T12:04:06Z</time><name>PT4557</name></trkpt>
<trkpt lat="53.373507" lon="-1.870698"><ele>432</ele><time>2022-03-19T12:04:07Z</time><name>PT4558</name></trkpt>
<trkpt lat="53.373502" lon="-1.870705"><ele>431</ele><time>2022-03-19T12:04:08Z</time><name>PT4559</name></trkpt>
<trkpt lat="53.373498" lon="-1.870713"><ele>431</ele><time>2022-03-19T12:04:09Z</time><name>PT4560</name></trkpt>
<trkpt lat="53.373496" lon="-1.870728"><ele>432</ele><time>2022-03-19T12:04:10Z</time><name>PT4561</name></trkpt>
<trkpt lat="53.373494" lon="-1.870739"><ele>432</ele><time>2022-03-19T12:04:10Z</time><name>PT4562</name></trkpt>
<trkpt lat="53.373490" lon="-1.870747"><ele>432</ele><time>2022-03-19T12:04:12Z</time><name>PT4563</name></trkpt>
<trkpt lat="53.373487" lon="-1.870762"><ele>432</ele><time>2022-03-19T12:04:13Z</time><name>PT4564</name></trkpt>
<trkpt lat="53.373482" lon="-1.870772"><ele>432</ele><time>2022-03-19T12:04:13Z</time><name>PT4565</name></trkpt>
<trkpt lat="53.373477" lon="-1.870779"><ele>433</ele><time>2022-03-19T12:04:15Z</time><name>PT4566</name></trkpt>
<trkpt lat="53.373476" lon="-1.870789"><ele>433</ele><time>2022-03-19T12:04:16Z</time><name>PT4567</name></trkpt>
<trkpt lat="53.373471" lon="-1.870803"><ele>433</ele><time>2022-03-19T12:04:16Z</time><name>PT4568</name></trkpt>
<trkpt lat="53.373466" lon="-1.870814"><ele>434</ele><time>2022-03-19T12:04:18Z</time><name>PT4569</name></trkpt>
<trkpt lat="53.373461" lon="-1.870822"><ele>434</ele><time>2022-03-19T12:04:19Z</time><name>PT4570</name></trkpt>
<trkpt lat="53.373456" lon="-1.870828"><ele>433</ele><time>2022-03-19T12:04:19Z</time><name>PT4571</name></trkpt>
<trkpt lat="53.373452" lon="-1.870836"><ele>434</ele><time>2022-03-19T12:04:21Z</time><name>PT4572</name></trkpt>
<trkpt lat="53.373450" lon="-1.870846"><ele>434</ele><time>2022-03-19T12:04:22Z</time><name>PT4573</name></trkpt>
<trkpt lat="53.373449" lon="-1.870852"><ele>434</ele><time>2022-03-19T12:04:22Z</time><name>PT4574</name></trkpt>
<trkpt lat="53.373446" lon="-1.870861"><ele>434</ele><time>2022-03-19T12:04:24Z</time><name>PT4575</name></trkpt>
<trkpt lat="53.373443" lon="-1.870870"><ele>434</ele><time>2022-03-19T12:04:25Z</time><name>PT4576</name></trkpt>
<trkpt lat="53.373439" lon="-1.870874"><ele>435</ele><time>2022-03-19T12:04:25Z</time><name>PT4577</name></trkpt>
<trkpt lat="53.373431" lon="-1.870880"><ele>435</ele><time>2022-03-19T12:04:27Z</time><name>PT4578</name></trkpt>
<trkpt lat="53.373424" lon="-1.870889"><ele>434</ele><time>2022-03-19T12:04:28Z</time><name>PT4579</name></trkpt>
<trkpt lat="53.373419" lon="-1.870896"><ele>434</ele><time>2022-03-19T12:04:28Z</time><name>PT4580</name></trkpt>
<trkpt lat="53.373418" lon="-1.870904"><ele>434</ele><time>2022-03-19T12:04:30Z</time><name>PT4581</name></trkpt>
<trkpt lat="53.373415" lon="-1.870914"><ele>435</ele><time>2022-03-19T12:04:31Z</time><name>PT4582</name></trkpt>
<trkpt lat="53.373413" lon="-1.870924"><ele>435</ele><time>2022-03-19T12:04:31Z</time><name>PT4583</name></trkpt>
<trkpt lat="53.373410" lon="-1.870934"><ele>436</ele><time>2022-03-19T12:04:33Z</time><name>PT4584</name></trkpt>
<trkpt lat="53.373406" lon="-1.870943"><ele>436</ele><time>2022-03-19T12:04:34Z</time><name>PT4585</name></trkpt>
<trkpt lat="53.373399" lon="-1.870954"><ele>436</ele><time>2022-03-19T12:04:34Z</time><name>PT4586</name></trkpt>
<trkpt lat="53.373391" lon="-1.870964"><ele>436</ele><time>2022-03-19T12:04:36Z</time><name>PT4587</name></trkpt>
<trkpt lat="53.373386" lon="-1.870972"><ele>437</ele><time>2022-03-19T12:04:37Z</time><name>PT4588</name></trkpt>
<trkpt lat="53.373379" lon="-1.870981"><ele>437</ele><time>2022-03-19T12:04:37Z</time><name>PT4589</name></trkpt>
<trkpt lat="53.373372" lon="-1.870990"><ele>437</ele><time>2022-03-19T12:04:39Z</time><name>PT4590</name></trkpt>
<trkpt lat="53.373366" lon="-1.871002"><ele>439</ele><time>2022-03-19T12:04:40Z</time><name>PT4591</name></trkpt>
<trkpt lat="53.373361" lon="-1.871011"><ele>439</ele><time>2022-03-19T12:04:40Z</time><name>PT4592</name></trkpt>
<trkpt lat="53.373359" lon="-1.871024"><ele>439</ele><time>2022-03-19T12:04:42Z</time><name>PT4593</name></trkpt>
<trkpt lat="53.373353" lon="-1.871033"><ele>439</ele><time>2022-03-19T12:04:43Z</time><name>PT4594</name></trkpt>
<trkpt lat="53.373344" lon="-1.871040"><ele>440</ele><time>2022-03-19T12:04:43Z</time><name>PT4595</name></trkpt>
<trkpt lat="53.373338" lon="-1.871047"><ele>440</ele><time>2022-03-19T12:04:45Z</time><name>PT4596</name></trkpt>
<trkpt lat="53.373330" lon="-1.871057"><ele>440</ele><time>2022-03-19T12:04:46Z</time><name>PT4597</name></trkpt>
<trkpt lat="53.373324" lon="-1.871068"><ele>440</ele><time>2022-03-19T12:04:46Z</time><name>PT4598</name></trkpt>
<trkpt lat="53.373318" lon="-1.871082"><ele>440</ele><time>2022-03-19T12:04:48Z</time><name>PT4599</name></trkpt>
<trkpt lat="53.373313" lon="-1.871087"><ele>440</ele><time>2022-03-19T12:04:49Z</time><name>PT4600</name></trkpt>
<trkpt lat="53.373309" lon="-1.871095"><ele>440</ele><time>2022-03-19T12:04:49Z</time><name>PT4601</name></trkpt>
<trkpt lat="53.373303" lon="-1.871103"><ele>440</ele><time>2022-03-19T12:04:51Z</time><name>PT4602</name></trkpt>
<trkpt lat="53.373295" lon="-1.871109"><ele>441</ele><time>2022-03-19T12:04:52Z</time><name>PT4603</name></trkpt>
<trkpt lat="53.373289" lon="-1.871115"><ele>441</ele><time>2022-03-19T12:04:52Z</time><name>PT4604</name></trkpt>
<trkpt lat="53.373282" lon="-1.871123"><ele>441</ele><time>2022-03-19T12:04:54Z</time><name>PT4605</name></trkpt>
<trkpt lat="53.373276" lon="-1.871131"><ele>441</ele><time>2022-03-19T12:04:55Z</time><name>PT4606</name></trkpt>
<trkpt lat="53.373269" lon="-1.871137"><ele>442</ele><time>2022-03-19T12:04:55Z</time><name>PT4607</name></trkpt>
<trkpt lat="53.373260" lon="-1.871147"><ele>442</ele><time>2022-03-19T12:04:57Z</time><name>PT4608</name></trkpt>
<trkpt lat="53.373253" lon="-1.871158"><ele>442</ele><time>2022-03-19T12:04:58Z</time><name>PT4609</name></trkpt>
<trkpt lat="53.373246" lon="-1.871167"><ele>443</ele><time>2022-03-19T12:04:58Z</time><name>PT4610</name></trkpt>
<trkpt lat="53.373238" lon="-1.871176"><ele>443</ele><time>2022-03-19T12:05:00Z</time><name>PT4611</name></trkpt>
<trkpt lat="53.373228" lon="-1.871183"><ele>443</ele><time>2022-03-19T12:05:01Z</time><name>PT4612</name></trkpt>
<trkpt lat="53.373216" lon="-1.871190"><ele>443</ele><time>2022-03-19T12:05:01Z</time><name>PT4613</name></trkpt>
<trkpt lat="53.373207" lon="-1.871197"><ele>443</ele><time>2022-03-19T12:05:03Z</time><name>PT4614</name></trkpt>
<trkpt lat="53.373198" lon="-1.871203"><ele>443</ele><time>2022-03-19T12:05:04Z</time><name>PT4615</name></trkpt>
<trkpt lat="53.373190" lon="-1.871205"><ele>444</ele><time>2022-03-19T12:05:04Z</time><name>PT4616</name></trkpt>
<trkpt lat="53.373183" lon="-1.871208"><ele>444</ele><time>2022-03-19T12:05:06Z</time><name>PT4617</name></trkpt>
<trkpt lat="53.373178" lon="-1.871211"><ele>445</ele><time>2022-03-19T12:05:07Z</time><name>PT4618</name></trkpt>
<trkpt lat="53.373170" lon="-1.871213"><ele>445</ele><time>2022-03-19T12:05:07Z</time><name>PT4619</name></trkpt>
<trkpt lat="53.373160" lon="-1.871211"><ele>445</ele><time>2022-03-19T12:05:09Z</time><name>PT4620</name></trkpt>
<trkpt lat="53.373149" lon="-1.871211"><ele>445</ele><time>2022-03-19T12:05:10Z</time><name>PT4621</name></trkpt>
<trkpt lat="53.373137" lon="-1.871212"><ele>445</ele><time>2022-03-19T12:05:10Z</time><name>PT4622</name></trkpt>
<trkpt lat="53.373128" lon="-1.871213"><ele>445</ele><time>2022-03-19T12:05:12Z</time><name>PT4623</name></trkpt>
<trkpt lat="53.373119" lon="-1.871215"><ele>445</ele><time>2022-03-19T12:05:13Z</time><name>PT4624</name></trkpt>
<trkpt lat="53.373110" lon="-1.871217"><ele>445</ele><time>2022-03-19T12:05:13Z</time><name>PT4625</name></trkpt>
<trkpt lat="53.373100" lon="-1.871216"><ele>445</ele><time>2022-03-19T12:05:15Z</time><name>PT4626</name></trkpt>
<trkpt lat="53.373093" lon="-1.871217"><ele>445</ele><time>2022-03-19T12:05:16Z</time><name>PT4627</name></trkpt>
<trkpt lat="53.373084" lon="-1.871218"><ele>445</ele><time>2022-03-19T12:05:16Z</time><name>PT4628</name></trkpt>
<trkpt lat="53.373075" lon="-1.871220"><ele>445</ele><time>2022-03-19T12:05:18Z</time><name>PT4629</name></trkpt>
<trkpt lat="53.373065" lon="-1.871224"><ele>445</ele><time>2022-03-19T12:05:19Z</time><name>PT4630</name></trkpt>
<trkpt lat="53.373057" lon="-1.871226"><ele>445</ele><time>2022-03-19T12:05:19Z</time><name>PT4631</name></trkpt>
<trkpt lat="53.373050" lon="-1.871226"><ele>446</ele><time>2022-03-19T12:05:21Z</time><name>PT4632</name></trkpt>
<trkpt lat="53.373045" lon="-1.871225"><ele>446</ele><time>2022-03-19T12:05:22Z</time><name>PT4633</name></trkpt>
<trkpt lat="53.373038" lon="-1.871226"><ele>446</ele><time>2022-03-19T12:05:22Z</time><name>PT4634</name></trkpt>
<trkpt lat="53.373028" lon="-1.871225"><ele>446</ele><time>2022-03-19T12:05:24Z</time><name>PT4635</name></trkpt>
<trkpt lat="53.373020" lon="-1.871225"><ele>447</ele><time>2022-03-19T12:05:25Z</time><name>PT4636</name></trkpt>
<trkpt lat="53.373015" lon="-1.871221"><ele>447</ele><time>2022-03-19T12:05:25Z</time><name>PT4637</name></trkpt>
<trkpt lat="53.373011" lon="-1.871224"><ele>447</ele><time>2022-03-19T12:05:27Z</time><name>PT4638</name></trkpt>
<trkpt lat="53.373008" lon="-1.871228"><ele>447</ele><time>2022-03-19T12:05:28Z</time><name>PT4639</name></trkpt>
<trkpt lat="53.373007" lon="-1.871229"><ele>447</ele><time>2022-03-19T12:05:28Z</time><name>PT4640</name></trkpt>
<trkpt lat="53.373008" lon="-1.871230"><ele>447</ele><time>2022-03-19T12:05:30Z</time><name>PT4641</name></trkpt>
<trkpt lat="53.373007" lon="-1.871231"><ele>447</ele><time>2022-03-19T12:05:31Z</time><name>PT4642</name></trkpt>
<trkpt lat="53.373006" lon="-1.871239"><ele>448</ele><time>2022-03-19T12:05:33Z</time><name>PT4643</name></trkpt>
<trkpt lat="53.373003" lon="-1.871239"><ele>447</ele><time>2022-03-19T12:05:34Z</time><name>PT4644</name></trkpt>
<trkpt lat="53.373002" lon="-1.871241"><ele>447</ele><time>2022-03-19T12:05:34Z</time><name>PT4645</name></trkpt>
<trkpt lat="53.373001" lon="-1.871243"><ele>447</ele><time>2022-03-19T12:05:36Z</time><name>PT4646</name></trkpt>
<trkpt lat="53.373003" lon="-1.871246"><ele>447</ele><time>2022-03-19T12:05:45Z</time><name>PT4647</name></trkpt>
<trkpt lat="53.372999" lon="-1.871256"><ele>447</ele><time>2022-03-19T12:05:46Z</time><name>PT4648</name></trkpt>
<trkpt lat="53.372993" lon="-1.871268"><ele>447</ele><time>2022-03-19T12:05:46Z</time><name>PT4649</name></trkpt>
<trkpt lat="53.372991" lon="-1.871283"><ele>447</ele><time>2022-03-19T12:05:48Z</time><name>PT4650</name></trkpt>
<trkpt lat="53.372989" lon="-1.871303"><ele>447</ele><time>2022-03-19T12:05:49Z</time><name>PT4651</name></trkpt>
<trkpt lat="53.372986" lon="-1.871322"><ele>447</ele><time>2022-03-19T12:05:49Z</time><name>PT4652</name></trkpt>
<trkpt lat="53.372985" lon="-1.871335"><ele>447</ele><time>2022-03-19T12:05:51Z</time><name>PT4653</name></trkpt>
<trkpt lat="53.372984" lon="-1.871350"><ele>447</ele><time>2022-03-19T12:05:52Z</time><name>PT4654</name></trkpt>
<trkpt lat="53.372979" lon="-1.871364"><ele>447</ele><time>2022-03-19T12:05:52Z</time><name>PT4655</name></trkpt>
<trkpt lat="53.372972" lon="-1.871378"><ele>448</ele><time>2022-03-19T12:05:54Z</time><name>PT4656</name></trkpt>
<trkpt lat="53.372961" lon="-1.871393"><ele>447</ele><time>2022-03-19T12:05:55Z</time><name>PT4657</name></trkpt>
<trkpt lat="53.372958" lon="-1.871406"><ele>447</ele><time>2022-03-19T12:05:55Z</time><name>PT4658</name></trkpt>
<trkpt lat="53.372954" lon="-1.871419"><ele>448</ele><time>2022-03-19T12:05:57Z</time><name>PT4659</name></trkpt>
<trkpt lat="53.372950" lon="-1.871432"><ele>448</ele><time>2022-03-19T12:05:58Z</time><name>PT4660</name></trkpt>
<trkpt lat="53.372945" lon="-1.871449"><ele>448</ele><time>2022-03-19T12:05:58Z</time><name>PT4661</name></trkpt>
<trkpt lat="53.372943" lon="-1.871463"><ele>449</ele><time>2022-03-19T12:06:00Z</time><name>PT4662</name></trkpt>
<trkpt lat="53.372940" lon="-1.871477"><ele>448</ele><time>2022-03-19T12:06:01Z</time><name>PT4663</name></trkpt>
<trkpt lat="53.372940" lon="-1.871489"><ele>449</ele><time>2022-03-19T12:06:01Z</time><name>PT4664</name></trkpt>
<trkpt lat="53.372935" lon="-1.871499"><ele>449</ele><time>2022-03-19T12:06:03Z</time><name>PT4665</name></trkpt>
<trkpt lat="53.372932" lon="-1.871507"><ele>449</ele><time>2022-03-19T12:06:04Z</time><name>PT4666</name></trkpt>
<trkpt lat="53.372928" lon="-1.871513"><ele>449</ele><time>2022-03-19T12:06:04Z</time><name>PT4667</name></trkpt>
<trkpt lat="53.372925" lon="-1.871524"><ele>449</ele><time>2022-03-19T12:06:06Z</time><name>PT4668</name></trkpt>
<trkpt lat="53.372920" lon="-1.871537"><ele>449</ele><time>2022-03-19T12:06:07Z</time><name>PT4669</name></trkpt>
<trkpt lat="53.372915" lon="-1.871547"><ele>450</ele><time>2022-03-19T12:06:07Z</time><name>PT4670</name></trkpt>
<trkpt lat="53.372914" lon="-1.871556"><ele>450</ele><time>2022-03-19T12:06:09Z</time><name>PT4671</name></trkpt>
<trkpt lat="53.372911" lon="-1.871564"><ele>451</ele><time>2022-03-19T12:06:10Z</time><name>PT4672</name></trkpt>
<trkpt lat="53.372906" lon="-1.871570"><ele>451</ele><time>2022-03-19T12:06:10Z</time><name>PT4673</name></trkpt>
<trkpt lat="53.372900" lon="-1.871577"><ele>451</ele><time>2022-03-19T12:06:12Z</time><name>PT4674</name></trkpt>
<trkpt lat="53.372894" lon="-1.871583"><ele>451</ele><time>2022-03-19T12:06:13Z</time><name>PT4675</name></trkpt>
<trkpt lat="53.372889" lon="-1.871591"><ele>451</ele><time>2022-03-19T12:06:13Z</time><name>PT4676</name></trkpt>
<trkpt lat="53.372886" lon="-1.871599"><ele>452</ele><time>2022-03-19T12:06:15Z</time><name>PT4677</name></trkpt>
<trkpt lat="53.372883" lon="-1.871606"><ele>452</ele><time>2022-03-19T12:06:16Z</time><name>PT4678</name></trkpt>
<trkpt lat="53.372880" lon="-1.871618"><ele>452</ele><time>2022-03-19T12:06:16Z</time><name>PT4679</name></trkpt>
<trkpt lat="53.372876" lon="-1.871629"><ele>453</ele><time>2022-03-19T12:06:18Z</time><name>PT4680</name></trkpt>
<trkpt lat="53.372873" lon="-1.871642"><ele>453</ele><time>2022-03-19T12:06:19Z</time><name>PT4681</name></trkpt>
<trkpt lat="53.372872" lon="-1.871652"><ele>453</ele><time>2022-03-19T12:06:19Z</time><name>PT4682</name></trkpt>
<trkpt lat="53.372871" lon="-1.871663"><ele>453</ele><time>2022-03-19T12:06:21Z</time><name>PT4683</name></trkpt>
<trkpt lat="53.372873" lon="-1.871676"><ele>454</ele><time>2022-03-19T12:06:22Z</time><name>PT4684</name></trkpt>
<trkpt lat="53.372871" lon="-1.871688"><ele>454</ele><time>2022-03-19T12:06:22Z</time><name>PT4685</name></trkpt>
<trkpt lat="53.372868" lon="-1.871698"><ele>455</ele><time>2022-03-19T12:06:24Z</time><name>PT4686</name></trkpt>
<trkpt lat="53.372866" lon="-1.871704"><ele>455</ele><time>2022-03-19T12:06:25Z</time><name>PT4687</name></trkpt>
<trkpt lat="53.372863" lon="-1.871714"><ele>455</ele><time>2022-03-19T12:06:25Z</time><name>PT4688</name></trkpt>
<trkpt lat="53.372860" lon="-1.871724"><ele>454</ele><time>2022-03-19T12:06:27Z</time><name>PT4689</name></trkpt>
<trkpt lat="53.372858" lon="-1.871734"><ele>454</ele><time>2022-03-19T12:06:28Z</time><name>PT4690</name></trkpt>
<trkpt lat="53.372856" lon="-1.871744"><ele>454</ele><time>2022-03-19T12:06:28Z</time><name>PT4691</name></trkpt>
<trkpt lat="53.372854" lon="-1.871757"><ele>455</ele><time>2022-03-19T12:06:30Z</time><name>PT4692</name></trkpt>
<trkpt lat="53.372854" lon="-1.871775"><ele>455</ele><time>2022-03-19T12:06:31Z</time><name>PT4693</name></trkpt>
<trkpt lat="53.372853" lon="-1.871789"><ele>456</ele><time>2022-03-19T12:06:31Z</time><name>PT4694</name></trkpt>
<trkpt lat="53.372856" lon="-1.871804"><ele>456</ele><time>2022-03-19T12:06:33Z</time><name>PT4695</name></trkpt>
<trkpt lat="53.372860" lon="-1.871822"><ele>457</ele><time>2022-03-19T12:06:34Z</time><name>PT4696</name></trkpt>
<trkpt lat="53.372859" lon="-1.871839"><ele>458</ele><time>2022-03-19T12:06:34Z</time><name>PT4697</name></trkpt>
<trkpt lat="53.372857" lon="-1.871853"><ele>457</ele><time>2022-03-19T12:06:36Z</time><name>PT4698</name></trkpt>
<trkpt lat="53.372856" lon="-1.871869"><ele>457</ele><time>2022-03-19T12:06:37Z</time><name>PT4699</name></trkpt>
<trkpt lat="53.372855" lon="-1.871887"><ele>457</ele><time>2022-03-19T12:06:37Z</time><name>PT4700</name></trkpt>
<trkpt lat="53.372855" lon="-1.871903"><ele>457</ele><time>2022-03-19T12:06:39Z</time><name>PT4701</name></trkpt>
<trkpt lat="53.372856" lon="-1.871921"><ele>457</ele><time>2022-03-19T12:06:40Z</time><name>PT4702</name></trkpt>
<trkpt lat="53.372859" lon="-1.871941"><ele>458</ele><time>2022-03-19T12:06:40Z</time><name>PT4703</name></trkpt>
<trkpt lat="53.372862" lon="-1.871960"><ele>457</ele><time>2022-03-19T12:06:42Z</time><name>PT4704</name></trkpt>
<trkpt lat="53.372865" lon="-1.871981"><ele>458</ele><time>2022-03-19T12:06:43Z</time><name>PT4705</name></trkpt>
<trkpt lat="53.372869" lon="-1.872002"><ele>458</ele><time>2022-03-19T12:06:43Z</time><name>PT4706</name></trkpt>
<trkpt lat="53.372870" lon="-1.872023"><ele>458</ele><time>2022-03-19T12:06:45Z</time><name>PT4707</name></trkpt>
<trkpt lat="53.372872" lon="-1.872043"><ele>459</ele><time>2022-03-19T12:06:46Z</time><name>PT4708</name></trkpt>
<trkpt lat="53.372874" lon="-1.872058"><ele>459</ele><time>2022-03-19T12:06:46Z</time><name>PT4709</name></trkpt>
<trkpt lat="53.372874" lon="-1.872074"><ele>459</ele><time>2022-03-19T12:06:48Z</time><name>PT4710</name></trkpt>
<trkpt lat="53.372873" lon="-1.872093"><ele>459</ele><time>2022-03-19T12:06:49Z</time><name>PT4711</name></trkpt>
<trkpt lat="53.372871" lon="-1.872114"><ele>460</ele><time>2022-03-19T12:06:49Z</time><name>PT4712</name></trkpt>
<trkpt lat="53.372871" lon="-1.872132"><ele>460</ele><time>2022-03-19T12:06:51Z</time><name>PT4713</name></trkpt>
<trkpt lat="53.372872" lon="-1.872149"><ele>460</ele><time>2022-03-19T12:06:52Z</time><name>PT4714</name></trkpt>
<trkpt lat="53.372875" lon="-1.872174"><ele>461</ele><time>2022-03-19T12:06:52Z</time><name>PT4715</name></trkpt>
<trkpt lat="53.372876" lon="-1.872190"><ele>462</ele><time>2022-03-19T12:06:54Z</time><name>PT4716</name></trkpt>
<trkpt lat="53.372879" lon="-1.872204"><ele>462</ele><time>2022-03-19T12:06:55Z</time><name>PT4717</name></trkpt>
<trkpt lat="53.372884" lon="-1.872220"><ele>463</ele><time>2022-03-19T12:06:55Z</time><name>PT4718</name></trkpt>
<trkpt lat="53.372887" lon="-1.872240"><ele>463</ele><time>2022-03-19T12:06:57Z</time><name>PT4719</name></trkpt>
<trkpt lat="53.372891" lon="-1.872256"><ele>463</ele><time>2022-03-19T12:06:58Z</time><name>PT4720</name></trkpt>
<trkpt lat="53.372893" lon="-1.872269"><ele>463</ele><time>2022-03-19T12:06:58Z</time><name>PT4721</name></trkpt>
<trkpt lat="53.372894" lon="-1.872282"><ele>463</ele><time>2022-03-19T12:07:00Z</time><name>PT4722</name></trkpt>
<trkpt lat="53.372897" lon="-1.872293"><ele>463</ele><time>2022-03-19T12:07:01Z</time><name>PT4723</name></trkpt>
<trkpt lat="53.372899" lon="-1.872303"><ele>463</ele><time>2022-03-19T12:07:01Z</time><name>PT4724</name></trkpt>
<trkpt lat="53.372901" lon="-1.872318"><ele>463</ele><time>2022-03-19T12:07:03Z</time><name>PT4725</name></trkpt>
<trkpt lat="53.372903" lon="-1.872339"><ele>464</ele><time>2022-03-19T12:07:04Z</time><name>PT4726</name></trkpt>
<trkpt lat="53.372904" lon="-1.872358"><ele>464</ele><time>2022-03-19T12:07:04Z</time><name>PT4727</name></trkpt>
<trkpt lat="53.372907" lon="-1.872377"><ele>464</ele><time>2022-03-19T12:07:06Z</time><name>PT4728</name></trkpt>
<trkpt lat="53.372908" lon="-1.872388"><ele>463</ele><time>2022-03-19T12:07:07Z</time><name>PT4729</name></trkpt>
<trkpt lat="53.372913" lon="-1.872406"><ele>464</ele><time>2022-03-19T12:07:07Z</time><name>PT4730</name></trkpt>
<trkpt lat="53.372915" lon="-1.872423"><ele>464</ele><time>2022-03-19T12:07:09Z</time><name>PT4731</name></trkpt>
<trkpt lat="53.372919" lon="-1.872440"><ele>464</ele><time>2022-03-19T12:07:10Z</time><name>PT4732</name></trkpt>
<trkpt lat="53.372923" lon="-1.872460"><ele>464</ele><time>2022-03-19T12:07:10Z</time><name>PT4733</name></trkpt>
<trkpt lat="53.372926" lon="-1.872477"><ele>464</ele><time>2022-03-19T12:07:12Z</time><name>PT4734</name></trkpt>
<trkpt lat="53.372927" lon="-1.872494"><ele>464</ele><time>2022-03-19T12:07:13Z</time><name>PT4735</name></trkpt>
<trkpt lat="53.372929" lon="-1.872512"><ele>463</ele><time>2022-03-19T12:07:13Z</time><name>PT4736</name></trkpt>
<trkpt lat="53.372933" lon="-1.872526"><ele>463</ele><time>2022-03-19T12:07:15Z</time><name>PT4737</name></trkpt>
<trkpt lat="53.372939" lon="-1.872544"><ele>463</ele><time>2022-03-19T12:07:16Z</time><name>PT4738</name></trkpt>
<trkpt lat="53.372941" lon="-1.872562"><ele>462</ele><time>2022-03-19T12:07:16Z</time><name>PT4739</name></trkpt>
<trkpt lat="53.372943" lon="-1.872583"><ele>463</ele><time>2022-03-19T12:07:18Z</time><name>PT4740</name></trkpt>
<trkpt lat="53.372945" lon="-1.872604"><ele>463</ele><time>2022-03-19T12:07:19Z</time><name>PT4741</name></trkpt>
<trkpt lat="53.372949" lon="-1.872620"><ele>463</ele><time>2022-03-19T12:07:19Z</time><name>PT4742</name></trkpt>
<trkpt lat="53.372952" lon="-1.872639"><ele>463</ele><time>2022-03-19T12:07:21Z</time><name>PT4743</name></trkpt>
<trkpt lat="53.372955" lon="-1.872662"><ele>464</ele><time>2022-03-19T12:07:22Z</time><name>PT4744</name></trkpt>
<trkpt lat="53.372954" lon="-1.872684"><ele>464</ele><time>2022-03-19T12:07:22Z</time><name>PT4745</name></trkpt>
<trkpt lat="53.372954" lon="-1.872704"><ele>465</ele><time>2022-03-19T12:07:24Z</time><name>PT4746</name></trkpt>
<trkpt lat="53.372954" lon="-1.872721"><ele>465</ele><time>2022-03-19T12:07:25Z</time><name>PT4747</name></trkpt>
<trkpt lat="53.372954" lon="-1.872741"><ele>465</ele><time>2022-03-19T12:07:25Z</time><name>PT4748</name></trkpt>
<trkpt lat="53.372956" lon="-1.872807"><ele>466</ele><time>2022-03-19T12:07:28Z</time><name>PT4749</name></trkpt>
<trkpt lat="53.372959" lon="-1.872865"><ele>465</ele><time>2022-03-19T12:07:31Z</time><name>PT4750</name></trkpt>
<trkpt lat="53.372952" lon="-1.872936"><ele>466</ele><time>2022-03-19T12:07:36Z</time><name>PT4751</name></trkpt>
<trkpt lat="53.372945" lon="-1.872982"><ele>466</ele><time>2022-03-19T12:07:40Z</time><name>PT4752</name></trkpt>
<trkpt lat="53.372945" lon="-1.873032"><ele>466</ele><time>2022-03-19T12:07:43Z</time><name>PT4753</name></trkpt>
<trkpt lat="53.372939" lon="-1.873111"><ele>467</ele><time>2022-03-19T12:07:46Z</time><name>PT4754</name></trkpt>
<trkpt lat="53.372927" lon="-1.873170"><ele>467</ele><time>2022-03-19T12:07:51Z</time><name>PT4755</name></trkpt>
<trkpt lat="53.372923" lon="-1.873219"><ele>467</ele><time>2022-03-19T12:07:54Z</time><name>PT4756</name></trkpt>
<trkpt lat="53.372919" lon="-1.873295"><ele>469</ele><time>2022-03-19T12:07:58Z</time><name>PT4757</name></trkpt>
<trkpt lat="53.372914" lon="-1.873362"><ele>469</ele><time>2022-03-19T12:08:01Z</time><name>PT4758</name></trkpt>
<trkpt lat="53.372911" lon="-1.873435"><ele>469</ele><time>2022-03-19T12:08:06Z</time><name>PT4759</name></trkpt>
<trkpt lat="53.372899" lon="-1.873511"><ele>470</ele><time>2022-03-19T12:08:10Z</time><name>PT4760</name></trkpt>
<trkpt lat="53.372900" lon="-1.873556"><ele>470</ele><time>2022-03-19T12:08:13Z</time><name>PT4761</name></trkpt>
<trkpt lat="53.372885" lon="-1.873637"><ele>470</ele><time>2022-03-19T12:08:16Z</time><name>PT4762</name></trkpt>
<trkpt lat="53.372875" lon="-1.873714"><ele>471</ele><time>2022-03-19T12:08:21Z</time><name>PT4763</name></trkpt>
<trkpt lat="53.372862" lon="-1.873785"><ele>471</ele><time>2022-03-19T12:08:25Z</time><name>PT4764</name></trkpt>
<trkpt lat="53.372853" lon="-1.873852"><ele>471</ele><time>2022-03-19T12:08:28Z</time><name>PT4765</name></trkpt>
<trkpt lat="53.372839" lon="-1.873918"><ele>472</ele><time>2022-03-19T12:08:31Z</time><name>PT4766</name></trkpt>
<trkpt lat="53.372833" lon="-1.874001"><ele>473</ele><time>2022-03-19T12:08:34Z</time><name>PT4767</name></trkpt>
<trkpt lat="53.372825" lon="-1.874087"><ele>474</ele><time>2022-03-19T12:08:39Z</time><name>PT4768</name></trkpt>
<trkpt lat="53.372813" lon="-1.874150"><ele>474</ele><time>2022-03-19T12:08:42Z</time><name>PT4769</name></trkpt>
<trkpt lat="53.372810" lon="-1.874234"><ele>474</ele><time>2022-03-19T12:08:46Z</time><name>PT4770</name></trkpt>
<trkpt lat="53.372805" lon="-1.874321"><ele>475</ele><time>2022-03-19T12:08:49Z</time><name>PT4771</name></trkpt>
<trkpt lat="53.372806" lon="-1.874399"><ele>475</ele><time>2022-03-19T12:08:54Z</time><name>PT4772</name></trkpt>
<trkpt lat="53.372800" lon="-1.874454"><ele>475</ele><time>2022-03-19T12:08:57Z</time><name>PT4773</name></trkpt>
<trkpt lat="53.372807" lon="-1.874537"><ele>475</ele><time>2022-03-19T12:09:01Z</time><name>PT4774</name></trkpt>
<trkpt lat="53.372821" lon="-1.874623"><ele>475</ele><time>2022-03-19T12:09:04Z</time><name>PT4775</name></trkpt>
<trkpt lat="53.372824" lon="-1.874697"><ele>475</ele><time>2022-03-19T12:09:07Z</time><name>PT4776</name></trkpt>
<trkpt lat="53.372827" lon="-1.874757"><ele>475</ele><time>2022-03-19T12:09:10Z</time><name>PT4777</name></trkpt>
<trkpt lat="53.372832" lon="-1.874844"><ele>476</ele><time>2022-03-19T12:09:15Z</time><name>PT4778</name></trkpt>
<trkpt lat="53.372846" lon="-1.874911"><ele>476</ele><time>2022-03-19T12:09:18Z</time><name>PT4779</name></trkpt>
<trkpt lat="53.372854" lon="-1.874982"><ele>476</ele><time>2022-03-19T12:09:21Z</time><name>PT4780</name></trkpt>
<trkpt lat="53.372868" lon="-1.875035"><ele>476</ele><time>2022-03-19T12:09:24Z</time><name>PT4781</name></trkpt>
<trkpt lat="53.372875" lon="-1.875118"><ele>477</ele><time>2022-03-19T12:09:28Z</time><name>PT4782</name></trkpt>
<trkpt lat="53.372877" lon="-1.875169"><ele>477</ele><time>2022-03-19T12:09:31Z</time><name>PT4783</name></trkpt>
<trkpt lat="53.372885" lon="-1.875222"><ele>478</ele><time>2022-03-19T12:09:34Z</time><name>PT4784</name></trkpt>
<trkpt lat="53.372910" lon="-1.875286"><ele>478</ele><time>2022-03-19T12:09:37Z</time><name>PT4785</name></trkpt>
<trkpt lat="53.372913" lon="-1.875350"><ele>478</ele><time>2022-03-19T12:09:40Z</time><name>PT4786</name></trkpt>
<trkpt lat="53.372926" lon="-1.875414"><ele>478</ele><time>2022-03-19T12:09:45Z</time><name>PT4787</name></trkpt>
<trkpt lat="53.372931" lon="-1.875467"><ele>478</ele><time>2022-03-19T12:09:48Z</time><name>PT4788</name></trkpt>
<trkpt lat="53.372924" lon="-1.875541"><ele>479</ele><time>2022-03-19T12:09:52Z</time><name>PT4789</name></trkpt>
<trkpt lat="53.372931" lon="-1.875601"><ele>480</ele><time>2022-03-19T12:09:55Z</time><name>PT4790</name></trkpt>
<trkpt lat="53.372927" lon="-1.875654"><ele>480</ele><time>2022-03-19T12:09:58Z</time><name>PT4791</name></trkpt>
<trkpt lat="53.372926" lon="-1.875703"><ele>480</ele><time>2022-03-19T12:10:01Z</time><name>PT4792</name></trkpt>
<trkpt lat="53.372925" lon="-1.875763"><ele>481</ele><time>2022-03-19T12:10:04Z</time><name>PT4793</name></trkpt>
<trkpt lat="53.372926" lon="-1.875846"><ele>482</ele><time>2022-03-19T12:10:07Z</time><name>PT4794</name></trkpt>
<trkpt lat="53.372928" lon="-1.875895"><ele>482</ele><time>2022-03-19T12:10:10Z</time><name>PT4795</name></trkpt>
<trkpt lat="53.372916" lon="-1.875944"><ele>483</ele><time>2022-03-19T12:10:13Z</time><name>PT4796</name></trkpt>
<trkpt lat="53.372907" lon="-1.875993"><ele>483</ele><time>2022-03-19T12:10:16Z</time><name>PT4797</name></trkpt>
<trkpt lat="53.372894" lon="-1.876031"><ele>483</ele><time>2022-03-19T12:10:19Z</time><name>PT4798</name></trkpt>
<trkpt lat="53.372887" lon="-1.876087"><ele>484</ele><time>2022-03-19T12:10:24Z</time><name>PT4799</name></trkpt>
<trkpt lat="53.372885" lon="-1.876145"><ele>484</ele><time>2022-03-19T12:10:28Z</time><name>PT4800</name></trkpt>
<trkpt lat="53.372888" lon="-1.876192"><ele>485</ele><time>2022-03-19T12:10:31Z</time><name>PT4801</name></trkpt>
<trkpt lat="53.372893" lon="-1.876246"><ele>486</ele><time>2022-03-19T12:10:34Z</time><name>PT4802</name></trkpt>
<trkpt lat="53.372900" lon="-1.876305"><ele>487</ele><time>2022-03-19T12:10:37Z</time><name>PT4803</name></trkpt>
<trkpt lat="53.372892" lon="-1.876375"><ele>488</ele><time>2022-03-19T12:10:42Z</time><name>PT4804</name></trkpt>
<trkpt lat="53.372892" lon="-1.876423"><ele>489</ele><time>2022-03-19T12:10:45Z</time><name>PT4805</name></trkpt>
<trkpt lat="53.372888" lon="-1.876473"><ele>489</ele><time>2022-03-19T12:10:48Z</time><name>PT4806</name></trkpt>
<trkpt lat="53.372885" lon="-1.876533"><ele>490</ele><time>2022-03-19T12:10:52Z</time><name>PT4807</name></trkpt>
<trkpt lat="53.372882" lon="-1.876581"><ele>491</ele><time>2022-03-19T12:10:55Z</time><name>PT4808</name></trkpt>
<trkpt lat="53.372875" lon="-1.876645"><ele>492</ele><time>2022-03-19T12:10:58Z</time><name>PT4809</name></trkpt>
<trkpt lat="53.372869" lon="-1.876691"><ele>493</ele><time>2022-03-19T12:11:01Z</time><name>PT4810</name></trkpt>
<trkpt lat="53.372857" lon="-1.876742"><ele>494</ele><time>2022-03-19T12:11:04Z</time><name>PT4811</name></trkpt>
<trkpt lat="53.372853" lon="-1.876801"><ele>494</ele><time>2022-03-19T12:11:09Z</time><name>PT4812</name></trkpt>
<trkpt lat="53.372847" lon="-1.876842"><ele>495</ele><time>2022-03-19T12:11:12Z</time><name>PT4813</name></trkpt>
<trkpt lat="53.372845" lon="-1.876886"><ele>496</ele><time>2022-03-19T12:11:15Z</time><name>PT4814</name></trkpt>
<trkpt lat="53.372842" lon="-1.876949"><ele>497</ele><time>2022-03-19T12:11:19Z</time><name>PT4815</name></trkpt>
<trkpt lat="53.372838" lon="-1.876985"><ele>497</ele><time>2022-03-19T12:11:22Z</time><name>PT4816</name></trkpt>
<trkpt lat="53.372825" lon="-1.877034"><ele>498</ele><time>2022-03-19T12:11:25Z</time><name>PT4817</name></trkpt>
<trkpt lat="53.372818" lon="-1.877072"><ele>499</ele><time>2022-03-19T12:11:28Z</time><name>PT4818</name></trkpt>
<trkpt lat="53.372803" lon="-1.877125"><ele>501</ele><time>2022-03-19T12:11:33Z</time><name>PT4819</name></trkpt>
<trkpt lat="53.372787" lon="-1.877158"><ele>501</ele><time>2022-03-19T12:11:36Z</time><name>PT4820</name></trkpt>
<trkpt lat="53.372780" lon="-1.877224"><ele>503</ele><time>2022-03-19T12:11:40Z</time><name>PT4821</name></trkpt>
<trkpt lat="53.372766" lon="-1.877279"><ele>505</ele><time>2022-03-19T12:11:43Z</time><name>PT4822</name></trkpt>
<trkpt lat="53.372754" lon="-1.877333"><ele>506</ele><time>2022-03-19T12:11:48Z</time><name>PT4823</name></trkpt>
<trkpt lat="53.372746" lon="-1.877379"><ele>508</ele><time>2022-03-19T12:11:52Z</time><name>PT4824</name></trkpt>
<trkpt lat="53.372743" lon="-1.877419"><ele>509</ele><time>2022-03-19T12:11:55Z</time><name>PT4825</name></trkpt>
<trkpt lat="53.372736" lon="-1.877454"><ele>510</ele><time>2022-03-19T12:11:58Z</time><name>PT4826</name></trkpt>
<trkpt lat="53.372725" lon="-1.877497"><ele>511</ele><time>2022-03-19T12:12:01Z</time><name>PT4827</name></trkpt>
<trkpt lat="53.372721" lon="-1.877527"><ele>512</ele><time>2022-03-19T12:12:04Z</time><name>PT4828</name></trkpt>
<trkpt lat="53.372720" lon="-1.877550"><ele>512</ele><time>2022-03-19T12:12:09Z</time><name>PT4829</name></trkpt>
<trkpt lat="53.372719" lon="-1.877591"><ele>512</ele><time>2022-03-19T12:12:12Z</time><name>PT4830</name></trkpt>
<trkpt lat="53.372717" lon="-1.877634"><ele>513</ele><time>2022-03-19T12:12:16Z</time><name>PT4831</name></trkpt>
<trkpt lat="53.372724" lon="-1.877667"><ele>513</ele><time>2022-03-19T12:12:19Z</time><name>PT4832</name></trkpt>
<trkpt lat="53.372709" lon="-1.877715"><ele>514</ele><time>2022-03-19T12:12:22Z</time><name>PT4833</name></trkpt>
<trkpt lat="53.372697" lon="-1.877745"><ele>514</ele><time>2022-03-19T12:12:25Z</time><name>PT4834</name></trkpt>
<trkpt lat="53.372691" lon="-1.877793"><ele>514</ele><time>2022-03-19T12:12:30Z</time><name>PT4835</name></trkpt>
<trkpt lat="53.372686" lon="-1.877823"><ele>515</ele><time>2022-03-19T12:12:33Z</time><name>PT4836</name></trkpt>
<trkpt lat="53.372682" lon="-1.877867"><ele>516</ele><time>2022-03-19T12:12:37Z</time><name>PT4837</name></trkpt>
<trkpt lat="53.372676" lon="-1.877910"><ele>517</ele><time>2022-03-19T12:12:40Z</time><name>PT4838</name></trkpt>
<trkpt lat="53.372664" lon="-1.877944"><ele>518</ele><time>2022-03-19T12:12:43Z</time><name>PT4839</name></trkpt>
<trkpt lat="53.372660" lon="-1.877984"><ele>518</ele><time>2022-03-19T12:12:48Z</time><name>PT4840</name></trkpt>
<trkpt lat="53.372658" lon="-1.878014"><ele>518</ele><time>2022-03-19T12:12:51Z</time><name>PT4841</name></trkpt>
<trkpt lat="53.372655" lon="-1.878065"><ele>520</ele><time>2022-03-19T12:12:55Z</time><name>PT4842</name></trkpt>
<trkpt lat="53.372653" lon="-1.878109"><ele>520</ele><time>2022-03-19T12:12:58Z</time><name>PT4843</name></trkpt>
<trkpt lat="53.372642" lon="-1.878176"><ele>521</ele><time>2022-03-19T12:13:01Z</time><name>PT4844</name></trkpt>
<trkpt lat="53.372626" lon="-1.878244"><ele>521</ele><time>2022-03-19T12:13:06Z</time><name>PT4845</name></trkpt>
<trkpt lat="53.372614" lon="-1.878304"><ele>520</ele><time>2022-03-19T12:13:09Z</time><name>PT4846</name></trkpt>
<trkpt lat="53.372599" lon="-1.878398"><ele>522</ele><time>2022-03-19T12:13:13Z</time><name>PT4847</name></trkpt>
<trkpt lat="53.372588" lon="-1.878489"><ele>523</ele><time>2022-03-19T12:13:16Z</time><name>PT4848</name></trkpt>
<trkpt lat="53.372569" lon="-1.878557"><ele>524</ele><time>2022-03-19T12:13:21Z</time><name>PT4849</name></trkpt>
<trkpt lat="53.372565" lon="-1.878612"><ele>524</ele><time>2022-03-19T12:13:24Z</time><name>PT4850</name></trkpt>
<trkpt lat="53.372562" lon="-1.878631"><ele>524</ele><time>2022-03-19T12:13:25Z</time><name>PT4851</name></trkpt>
<trkpt lat="53.372555" lon="-1.878656"><ele>525</ele><time>2022-03-19T12:13:25Z</time><name>PT4852</name></trkpt>
<trkpt lat="53.372549" lon="-1.878676"><ele>525</ele><time>2022-03-19T12:13:27Z</time><name>PT4853</name></trkpt>
<trkpt lat="53.372547" lon="-1.878696"><ele>525</ele><time>2022-03-19T12:13:28Z</time><name>PT4854</name></trkpt>
<trkpt lat="53.372545" lon="-1.878719"><ele>525</ele><time>2022-03-19T12:13:28Z</time><name>PT4855</name></trkpt>
<trkpt lat="53.372545" lon="-1.878738"><ele>525</ele><time>2022-03-19T12:13:30Z</time><name>PT4856</name></trkpt>
<trkpt lat="53.372545" lon="-1.878749"><ele>525</ele><time>2022-03-19T12:13:31Z</time><name>PT4857</name></trkpt>
<trkpt lat="53.372543" lon="-1.878758"><ele>525</ele><time>2022-03-19T12:13:31Z</time><name>PT4858</name></trkpt>
<trkpt lat="53.372541" lon="-1.878768"><ele>525</ele><time>2022-03-19T12:13:33Z</time><name>PT4859</name></trkpt>
<trkpt lat="53.372539" lon="-1.878777"><ele>525</ele><time>2022-03-19T12:13:34Z</time><name>PT4860</name></trkpt>
<trkpt lat="53.372538" lon="-1.878784"><ele>525</ele><time>2022-03-19T12:13:34Z</time><name>PT4861</name></trkpt>
<trkpt lat="53.372538" lon="-1.878785"><ele>525</ele><time>2022-03-19T12:13:36Z</time><name>PT4862</name></trkpt>
<trkpt lat="53.372539" lon="-1.878785"><ele>525</ele><time>2022-03-19T12:13:37Z</time><name>PT4863</name></trkpt>
<trkpt lat="53.372541" lon="-1.878787"><ele>525</ele><time>2022-03-19T12:13:37Z</time><name>PT4864</name></trkpt>
<trkpt lat="53.372540" lon="-1.878787"><ele>525</ele><time>2022-03-19T12:13:39Z</time><name>PT4865</name></trkpt>
<trkpt lat="53.372539" lon="-1.878786"><ele>525</ele><time>2022-03-19T12:13:40Z</time><name>PT4866</name></trkpt>
<trkpt lat="53.372542" lon="-1.878786"><ele>525</ele><time>2022-03-19T12:13:40Z</time><name>PT4867</name></trkpt>
<trkpt lat="53.372543" lon="-1.878785"><ele>525</ele><time>2022-03-19T12:13:42Z</time><name>PT4868</name></trkpt>
<trkpt lat="53.372543" lon="-1.878778"><ele>524</ele><time>2022-03-19T12:13:43Z</time><name>PT4869</name></trkpt>
<trkpt lat="53.372545" lon="-1.878774"><ele>524</ele><time>2022-03-19T12:13:43Z</time><name>PT4870</name></trkpt>
<trkpt lat="53.372544" lon="-1.878776"><ele>525</ele><time>2022-03-19T12:13:45Z</time><name>PT4871</name></trkpt>
<trkpt lat="53.372543" lon="-1.878780"><ele>525</ele><time>2022-03-19T12:13:46Z</time><name>PT4872</name></trkpt>
<trkpt lat="53.372540" lon="-1.878782"><ele>525</ele><time>2022-03-19T12:14:01Z</time><name>PT4873</name></trkpt>
<trkpt lat="53.372535" lon="-1.878799"><ele>525</ele><time>2022-03-19T12:14:03Z</time><name>PT4874</name></trkpt>
<trkpt lat="53.372533" lon="-1.878814"><ele>525</ele><time>2022-03-19T12:14:04Z</time><name>PT4875</name></trkpt>
<trkpt lat="53.372527" lon="-1.878828"><ele>525</ele><time>2022-03-19T12:14:04Z</time><name>PT4876</name></trkpt>
<trkpt lat="53.372526" lon="-1.878845"><ele>525</ele><time>2022-03-19T12:14:06Z</time><name>PT4877</name></trkpt>
<trkpt lat="53.372522" lon="-1.878859"><ele>525</ele><time>2022-03-19T12:14:07Z</time><name>PT4878</name></trkpt>
<trkpt lat="53.372518" lon="-1.878871"><ele>524</ele><time>2022-03-19T12:14:07Z</time><name>PT4879</name></trkpt>
<trkpt lat="53.372515" lon="-1.878885"><ele>524</ele><time>2022-03-19T12:14:09Z</time><name>PT4880</name></trkpt>
<trkpt lat="53.372508" lon="-1.878898"><ele>524</ele><time>2022-03-19T12:14:10Z</time><name>PT4881</name></trkpt>
<trkpt lat="53.372507" lon="-1.878909"><ele>524</ele><time>2022-03-19T12:14:10Z</time><name>PT4882</name></trkpt>
<trkpt lat="53.372503" lon="-1.878918"><ele>524</ele><time>2022-03-19T12:14:12Z</time><name>PT4883</name></trkpt>
<trkpt lat="53.372498" lon="-1.878928"><ele>524</ele><time>2022-03-19T12:14:13Z</time><name>PT4884</name></trkpt>
<trkpt lat="53.372494" lon="-1.878936"><ele>524</ele><time>2022-03-19T12:14:13Z</time><name>PT4885</name></trkpt>
<trkpt lat="53.372490" lon="-1.878942"><ele>524</ele><time>2022-03-19T12:14:15Z</time><name>PT4886</name></trkpt>
<trkpt lat="53.372484" lon="-1.878949"><ele>524</ele><time>2022-03-19T12:14:16Z</time><name>PT4887</name></trkpt>
<trkpt lat="53.372482" lon="-1.878960"><ele>525</ele><time>2022-03-19T12:14:16Z</time><name>PT4888</name></trkpt>
<trkpt lat="53.372478" lon="-1.878967"><ele>525</ele><time>2022-03-19T12:14:18Z</time><name>PT4889</name></trkpt>
<trkpt lat="53.372479" lon="-1.878976"><ele>525</ele><time>2022-03-19T12:14:19Z</time><name>PT4890</name></trkpt>
<trkpt lat="53.372482" lon="-1.878986"><ele>525</ele><time>2022-03-19T12:14:19Z</time><name>PT4891</name></trkpt>
<trkpt lat="53.372487" lon="-1.878996"><ele>526</ele><time>2022-03-19T12:14:21Z</time><name>PT4892</name></trkpt>
<trkpt lat="53.372487" lon="-1.879007"><ele>526</ele><time>2022-03-19T12:14:22Z</time><name>PT4893</name></trkpt>
<trkpt lat="53.372487" lon="-1.879013"><ele>526</ele><time>2022-03-19T12:14:22Z</time><name>PT4894</name></trkpt>
<trkpt lat="53.372489" lon="-1.879015"><ele>527</ele><time>2022-03-19T12:14:24Z</time><name>PT4895</name></trkpt>
<trkpt lat="53.372488" lon="-1.879016"><ele>527</ele><time>2022-03-19T12:14:25Z</time><name>PT4896</name></trkpt>
<trkpt lat="53.372488" lon="-1.879018"><ele>527</ele><time>2022-03-19T12:14:25Z</time><name>PT4897</name></trkpt>
<trkpt lat="53.372489" lon="-1.879019"><ele>526</ele><time>2022-03-19T12:14:27Z</time><name>PT4898</name></trkpt>
<trkpt lat="53.372490" lon="-1.879022"><ele>527</ele><time>2022-03-19T12:14:30Z</time><name>PT4899</name></trkpt>
<trkpt lat="53.372489" lon="-1.879018"><ele>527</ele><time>2022-03-19T12:14:31Z</time><name>PT4900</name></trkpt>
<trkpt lat="53.372487" lon="-1.879021"><ele>527</ele><time>2022-03-19T12:14:31Z</time><name>PT4901</name></trkpt>
<trkpt lat="53.372487" lon="-1.879020"><ele>527</ele><time>2022-03-19T12:14:33Z</time><name>PT4902</name></trkpt>
<trkpt lat="53.372487" lon="-1.879021"><ele>527</ele><time>2022-03-19T12:14:34Z</time><name>PT4903</name></trkpt>
<trkpt lat="53.372487" lon="-1.879026"><ele>527</ele><time>2022-03-19T12:14:46Z</time><name>PT4904</name></trkpt>
<trkpt lat="53.372489" lon="-1.879026"><ele>527</ele><time>2022-03-19T12:14:48Z</time><name>PT4905</name></trkpt>
<trkpt lat="53.372489" lon="-1.879026"><ele>527</ele><time>2022-03-19T12:14:49Z</time><name>PT4906</name></trkpt>
<trkpt lat="53.372491" lon="-1.879025"><ele>528</ele><time>2022-03-19T12:15:48Z</time><name>PT4907</name></trkpt>
<trkpt lat="53.372490" lon="-1.879027"><ele>527</ele><time>2022-03-19T12:15:49Z</time><name>PT4908</name></trkpt>
<trkpt lat="53.372488" lon="-1.879029"><ele>527</ele><time>2022-03-19T12:15:49Z</time><name>PT4909</name></trkpt>
<trkpt lat="53.372488" lon="-1.879027"><ele>528</ele><time>2022-03-19T12:19:13Z</time><name>PT4910</name></trkpt>
<trkpt lat="53.372491" lon="-1.879021"><ele>529</ele><time>2022-03-19T12:19:18Z</time><name>PT4911</name></trkpt>
<trkpt lat="53.372494" lon="-1.879022"><ele>529</ele><time>2022-03-19T12:19:21Z</time><name>PT4912</name></trkpt>
<trkpt lat="53.372495" lon="-1.879024"><ele>528</ele><time>2022-03-19T12:19:25Z</time><name>PT4913</name></trkpt>
<trkpt lat="53.372500" lon="-1.879022"><ele>528</ele><time>2022-03-19T12:19:31Z</time><name>PT4914</name></trkpt>
<trkpt lat="53.372500" lon="-1.879028"><ele>528</ele><time>2022-03-19T12:19:36Z</time><name>PT4915</name></trkpt>
<trkpt lat="53.372505" lon="-1.879021"><ele>528</ele><time>2022-03-19T12:19:46Z</time><name>PT4916</name></trkpt>
<trkpt lat="53.372514" lon="-1.879018"><ele>527</ele><time>2022-03-19T12:19:49Z</time><name>PT4917</name></trkpt>
<trkpt lat="53.372506" lon="-1.879017"><ele>527</ele><time>2022-03-19T12:19:54Z</time><name>PT4918</name></trkpt>
<trkpt lat="53.372505" lon="-1.879016"><ele>528</ele><time>2022-03-19T12:19:57Z</time><name>PT4919</name></trkpt>
<trkpt lat="53.372503" lon="-1.879029"><ele>527</ele><time>2022-03-19T12:20:04Z</time><name>PT4920</name></trkpt>
<trkpt lat="53.372506" lon="-1.879036"><ele>526</ele><time>2022-03-19T12:20:07Z</time><name>PT4921</name></trkpt>
<trkpt lat="53.372506" lon="-1.879036"><ele>526</ele><time>2022-03-19T12:20:10Z</time><name>PT4922</name></trkpt>
<trkpt lat="53.372514" lon="-1.879052"><ele>524</ele><time>2022-03-19T12:20:13Z</time><name>PT4923</name></trkpt>
<trkpt lat="53.372520" lon="-1.879054"><ele>524</ele><time>2022-03-19T12:20:25Z</time><name>PT4924</name></trkpt>
<trkpt lat="53.372523" lon="-1.879058"><ele>523</ele><time>2022-03-19T12:20:30Z</time><name>PT4925</name></trkpt>
<trkpt lat="53.372520" lon="-1.879056"><ele>523</ele><time>2022-03-19T12:20:34Z</time><name>PT4926</name></trkpt>
<trkpt lat="53.372514" lon="-1.879048"><ele>524</ele><time>2022-03-19T12:20:46Z</time><name>PT4927</name></trkpt>
<trkpt lat="53.372513" lon="-1.879053"><ele>524</ele><time>2022-03-19T12:20:49Z</time><name>PT4928</name></trkpt>
<trkpt lat="53.372510" lon="-1.879069"><ele>524</ele><time>2022-03-19T12:20:54Z</time><name>PT4929</name></trkpt>
<trkpt lat="53.372498" lon="-1.879065"><ele>524</ele><time>2022-03-19T12:20:57Z</time><name>PT4930</name></trkpt>
<trkpt lat="53.372499" lon="-1.879059"><ele>525</ele><time>2022-03-19T12:21:01Z</time><name>PT4931</name></trkpt>
<trkpt lat="53.372496" lon="-1.879060"><ele>525</ele><time>2022-03-19T12:21:04Z</time><name>PT4932</name></trkpt>
<trkpt lat="53.372502" lon="-1.879056"><ele>525</ele><time>2022-03-19T12:21:07Z</time><name>PT4933</name></trkpt>
<trkpt lat="53.372512" lon="-1.879066"><ele>523</ele><time>2022-03-19T12:21:10Z</time><name>PT4934</name></trkpt>
<trkpt lat="53.372510" lon="-1.879060"><ele>522</ele><time>2022-03-19T12:21:13Z</time><name>PT4935</name></trkpt>
<trkpt lat="53.372507" lon="-1.879044"><ele>523</ele><time>2022-03-19T12:21:16Z</time><name>PT4936</name></trkpt>
<trkpt lat="53.372507" lon="-1.879042"><ele>522</ele><time>2022-03-19T12:21:21Z</time><name>PT4937</name></trkpt>
<trkpt lat="53.372508" lon="-1.879049"><ele>521</ele><time>2022-03-19T12:21:24Z</time><name>PT4938</name></trkpt>
<trkpt lat="53.372508" lon="-1.879050"><ele>521</ele><time>2022-03-19T12:21:28Z</time><name>PT4939</name></trkpt>
<trkpt lat="53.372507" lon="-1.879049"><ele>521</ele><time>2022-03-19T12:21:45Z</time><name>PT4940</name></trkpt>
<trkpt lat="53.372517" lon="-1.879051"><ele>520</ele><time>2022-03-19T12:21:49Z</time><name>PT4941</name></trkpt>
<trkpt lat="53.372508" lon="-1.879056"><ele>519</ele><time>2022-03-19T12:21:52Z</time><name>PT4942</name></trkpt>
<trkpt lat="53.372506" lon="-1.879058"><ele>518</ele><time>2022-03-19T12:21:55Z</time><name>PT4943</name></trkpt>
<trkpt lat="53.372508" lon="-1.879061"><ele>519</ele><time>2022-03-19T12:22:07Z</time><name>PT4944</name></trkpt>
<trkpt lat="53.372513" lon="-1.879066"><ele>518</ele><time>2022-03-19T12:22:10Z</time><name>PT4945</name></trkpt>
<trkpt lat="53.372517" lon="-1.879077"><ele>518</ele><time>2022-03-19T12:22:13Z</time><name>PT4946</name></trkpt>
<trkpt lat="53.372521" lon="-1.879075"><ele>517</ele><time>2022-03-19T12:22:18Z</time><name>PT4947</name></trkpt>
<trkpt lat="53.372521" lon="-1.879093"><ele>517</ele><time>2022-03-19T12:22:24Z</time><name>PT4948</name></trkpt>
<trkpt lat="53.372521" lon="-1.879094"><ele>517</ele><time>2022-03-19T12:22:27Z</time><name>PT4949</name></trkpt>
<trkpt lat="53.372518" lon="-1.879091"><ele>517</ele><time>2022-03-19T12:22:45Z</time><name>PT4950</name></trkpt>
<trkpt lat="53.372522" lon="-1.879102"><ele>517</ele><time>2022-03-19T12:22:48Z</time><name>PT4951</name></trkpt>
<trkpt lat="53.372528" lon="-1.879096"><ele>516</ele><time>2022-03-19T12:22:52Z</time><name>PT4952</name></trkpt>
<trkpt lat="53.372527" lon="-1.879098"><ele>516</ele><time>2022-03-19T12:22:55Z</time><name>PT4953</name></trkpt>
<trkpt lat="53.372514" lon="-1.879092"><ele>517</ele><time>2022-03-19T12:23:00Z</time><name>PT4954</name></trkpt>
<trkpt lat="53.372514" lon="-1.879089"><ele>517</ele><time>2022-03-19T12:23:03Z</time><name>PT4955</name></trkpt>
<trkpt lat="53.372510" lon="-1.879084"><ele>518</ele><time>2022-03-19T12:23:10Z</time><name>PT4956</name></trkpt>
<trkpt lat="53.372510" lon="-1.879081"><ele>518</ele><time>2022-03-19T12:23:13Z</time><name>PT4957</name></trkpt>
<trkpt lat="53.372502" lon="-1.879063"><ele>520</ele><time>2022-03-19T12:23:16Z</time><name>PT4958</name></trkpt>
<trkpt lat="53.372504" lon="-1.879075"><ele>520</ele><time>2022-03-19T12:23:21Z</time><name>PT4959</name></trkpt>
<trkpt lat="53.372503" lon="-1.879091"><ele>520</ele><time>2022-03-19T12:23:25Z</time><name>PT4960</name></trkpt>
<trkpt lat="53.372488" lon="-1.879081"><ele>522</ele><time>2022-03-19T12:23:28Z</time><name>PT4961</name></trkpt>
<trkpt lat="53.372488" lon="-1.879069"><ele>523</ele><time>2022-03-19T12:23:31Z</time><name>PT4962</name></trkpt>
<trkpt lat="53.372487" lon="-1.879064"><ele>523</ele><time>2022-03-19T12:23:36Z</time><name>PT4963</name></trkpt>
<trkpt lat="53.372480" lon="-1.879045"><ele>525</ele><time>2022-03-19T12:23:39Z</time><name>PT4964</name></trkpt>
<trkpt lat="53.372478" lon="-1.879035"><ele>526</ele><time>2022-03-19T12:23:43Z</time><name>PT4965</name></trkpt>
<trkpt lat="53.372480" lon="-1.879038"><ele>526</ele><time>2022-03-19T12:23:52Z</time><name>PT4966</name></trkpt>
<trkpt lat="53.372478" lon="-1.879032"><ele>527</ele><time>2022-03-19T12:23:55Z</time><name>PT4967</name></trkpt>
<trkpt lat="53.372478" lon="-1.879030"><ele>527</ele><time>2022-03-19T12:23:58Z</time><name>PT4968</name></trkpt>
<trkpt lat="53.372485" lon="-1.879034"><ele>526</ele><time>2022-03-19T12:24:06Z</time><name>PT4969</name></trkpt>
<trkpt lat="53.372494" lon="-1.879035"><ele>525</ele><time>2022-03-19T12:24:12Z</time><name>PT4970</name></trkpt>
<trkpt lat="53.372506" lon="-1.879031"><ele>524</ele><time>2022-03-19T12:24:16Z</time><name>PT4971</name></trkpt>
<trkpt lat="53.372523" lon="-1.879034"><ele>523</ele><time>2022-03-19T12:24:19Z</time><name>PT4972</name></trkpt>
<trkpt lat="53.372535" lon="-1.879038"><ele>521</ele><time>2022-03-19T12:24:22Z</time><name>PT4973</name></trkpt>
<trkpt lat="53.372534" lon="-1.879023"><ele>520</ele><time>2022-03-19T12:24:27Z</time><name>PT4974</name></trkpt>
<trkpt lat="53.372524" lon="-1.879000"><ele>520</ele><time>2022-03-19T12:24:30Z</time><name>PT4975</name></trkpt>
<trkpt lat="53.372521" lon="-1.878998"><ele>521</ele><time>2022-03-19T12:24:34Z</time><name>PT4976</name></trkpt>
<trkpt lat="53.372530" lon="-1.879014"><ele>518</ele><time>2022-03-19T12:24:37Z</time><name>PT4977</name></trkpt>
<trkpt lat="53.372552" lon="-1.879051"><ele>517</ele><time>2022-03-19T12:24:42Z</time><name>PT4978</name></trkpt>
<trkpt lat="53.372555" lon="-1.879033"><ele>517</ele><time>2022-03-19T12:24:46Z</time><name>PT4979</name></trkpt>
<trkpt lat="53.372551" lon="-1.879024"><ele>519</ele><time>2022-03-19T12:24:49Z</time><name>PT4980</name></trkpt>
<trkpt lat="53.372553" lon="-1.879025"><ele>518</ele><time>2022-03-19T12:24:52Z</time><name>PT4981</name></trkpt>
<trkpt lat="53.372542" lon="-1.879027"><ele>519</ele><time>2022-03-19T12:25:07Z</time><name>PT4982</name></trkpt>
<trkpt lat="53.372545" lon="-1.879028"><ele>520</ele><time>2022-03-19T12:25:10Z</time><name>PT4983</name></trkpt>
<trkpt lat="53.372538" lon="-1.878998"><ele>519</ele><time>2022-03-19T12:25:15Z</time><name>PT4984</name></trkpt>
<trkpt lat="53.372532" lon="-1.879013"><ele>522</ele><time>2022-03-19T12:25:18Z</time><name>PT4985</name></trkpt>
<trkpt lat="53.372531" lon="-1.879013"><ele>522</ele><time>2022-03-19T12:25:21Z</time><name>PT4986</name></trkpt>
<trkpt lat="53.372539" lon="-1.879031"><ele>522</ele><time>2022-03-19T12:25:39Z</time><name>PT4987</name></trkpt>
<trkpt lat="53.372538" lon="-1.879033"><ele>522</ele><time>2022-03-19T12:25:45Z</time><name>PT4988</name></trkpt>
<trkpt lat="53.372541" lon="-1.879048"><ele>523</ele><time>2022-03-19T12:25:49Z</time><name>PT4989</name></trkpt>
<trkpt lat="53.372540" lon="-1.879059"><ele>523</ele><time>2022-03-19T12:25:52Z</time><name>PT4990</name></trkpt>
<trkpt lat="53.372539" lon="-1.879064"><ele>524</ele><time>2022-03-19T12:25:57Z</time><name>PT4991</name></trkpt>
<trkpt lat="53.372539" lon="-1.879076"><ele>524</ele><time>2022-03-19T12:26:07Z</time><name>PT4992</name></trkpt>
<trkpt lat="53.372546" lon="-1.879084"><ele>524</ele><time>2022-03-19T12:26:12Z</time><name>PT4993</name></trkpt>
<trkpt lat="53.372556" lon="-1.879075"><ele>524</ele><time>2022-03-19T12:26:18Z</time><name>PT4994</name></trkpt>
<trkpt lat="53.372566" lon="-1.879081"><ele>523</ele><time>2022-03-19T12:26:21Z</time><name>PT4995</name></trkpt>
<trkpt lat="53.372569" lon="-1.879087"><ele>523</ele><time>2022-03-19T12:26:25Z</time><name>PT4996</name></trkpt>
<trkpt lat="53.372571" lon="-1.879088"><ele>523</ele><time>2022-03-19T12:26:33Z</time><name>PT4997</name></trkpt>
<trkpt lat="53.372574" lon="-1.879092"><ele>522</ele><time>2022-03-19T12:26:46Z</time><name>PT4998</name></trkpt>
<trkpt lat="53.372569" lon="-1.879080"><ele>522</ele><time>2022-03-19T12:26:49Z</time><name>PT4999</name></trkpt>
<trkpt lat="53.372569" lon="-1.879081"><ele>522</ele><time>2022-03-19T12:26:54Z</time><name>PT5000</name></trkpt>
<trkpt lat="53.372566" lon="-1.879081"><ele>522</ele><time>2022-03-19T12:27:01Z</time><name>PT5001</name></trkpt>
<trkpt lat="53.372550" lon="-1.879079"><ele>523</ele><time>2022-03-19T12:27:04Z</time><name>PT5002</name></trkpt>
<trkpt lat="53.372541" lon="-1.879076"><ele>522</ele><time>2022-03-19T12:27:09Z</time><name>PT5003</name></trkpt>
<trkpt lat="53.372543" lon="-1.879069"><ele>522</ele><time>2022-03-19T12:27:12Z</time><name>PT5004</name></trkpt>
<trkpt lat="53.372544" lon="-1.879057"><ele>522</ele><time>2022-03-19T12:27:16Z</time><name>PT5005</name></trkpt>
<trkpt lat="53.372542" lon="-1.879047"><ele>522</ele><time>2022-03-19T12:27:19Z</time><name>PT5006</name></trkpt>
<trkpt lat="53.372540" lon="-1.879051"><ele>522</ele><time>2022-03-19T12:27:24Z</time><name>PT5007</name></trkpt>
<trkpt lat="53.372538" lon="-1.879049"><ele>523</ele><time>2022-03-19T12:27:27Z</time><name>PT5008</name></trkpt>
<trkpt lat="53.372540" lon="-1.879044"><ele>523</ele><time>2022-03-19T12:28:12Z</time><name>PT5009</name></trkpt>
<trkpt lat="53.372538" lon="-1.879042"><ele>523</ele><time>2022-03-19T12:28:13Z</time><name>PT5010</name></trkpt>
<trkpt lat="53.372536" lon="-1.879040"><ele>524</ele><time>2022-03-19T12:28:13Z</time><name>PT5011</name></trkpt>
<trkpt lat="53.372537" lon="-1.879036"><ele>524</ele><time>2022-03-19T12:28:19Z</time><name>PT5012</name></trkpt>
<trkpt lat="53.372539" lon="-1.879033"><ele>524</ele><time>2022-03-19T12:28:21Z</time><name>PT5013</name></trkpt>
<trkpt lat="53.372539" lon="-1.879031"><ele>524</ele><time>2022-03-19T12:28:22Z</time><name>PT5014</name></trkpt>
<trkpt lat="53.372540" lon="-1.879029"><ele>524</ele><time>2022-03-19T12:28:22Z</time><name>PT5015</name></trkpt>
<trkpt lat="53.372539" lon="-1.879026"><ele>524</ele><time>2022-03-19T12:28:24Z</time><name>PT5016</name></trkpt>
<trkpt lat="53.372536" lon="-1.879030"><ele>524</ele><time>2022-03-19T12:28:30Z</time><name>PT5017</name></trkpt>
<trkpt lat="53.372536" lon="-1.879036"><ele>524</ele><time>2022-03-19T12:28:31Z</time><name>PT5018</name></trkpt>
<trkpt lat="53.372536" lon="-1.879040"><ele>524</ele><time>2022-03-19T12:28:31Z</time><name>PT5019</name></trkpt>
<trkpt lat="53.372534" lon="-1.879044"><ele>524</ele><time>2022-03-19T12:28:33Z</time><name>PT5020</name></trkpt>
<trkpt lat="53.372533" lon="-1.879043"><ele>524</ele><time>2022-03-19T12:28:34Z</time><name>PT5021</name></trkpt>
<trkpt lat="53.372532" lon="-1.879039"><ele>524</ele><time>2022-03-19T12:28:34Z</time><name>PT5022</name></trkpt>
<trkpt lat="53.372513" lon="-1.879044"><ele>524</ele><time>2022-03-19T12:28:45Z</time><name>PT5023</name></trkpt>
<trkpt lat="53.372510" lon="-1.879042"><ele>524</ele><time>2022-03-19T12:28:46Z</time><name>PT5024</name></trkpt>
<trkpt lat="53.372510" lon="-1.879042"><ele>524</ele><time>2022-03-19T12:28:46Z</time><name>PT5025</name></trkpt>
<trkpt lat="53.372509" lon="-1.879042"><ele>524</ele><time>2022-03-19T12:28:48Z</time><name>PT5026</name></trkpt>
<trkpt lat="53.372509" lon="-1.879039"><ele>524</ele><time>2022-03-19T12:28:49Z</time><name>PT5027</name></trkpt>
<trkpt lat="53.372506" lon="-1.879035"><ele>524</ele><time>2022-03-19T12:28:49Z</time><name>PT5028</name></trkpt>
<trkpt lat="53.372505" lon="-1.879030"><ele>524</ele><time>2022-03-19T12:28:51Z</time><name>PT5029</name></trkpt>
<trkpt lat="53.372509" lon="-1.879033"><ele>524</ele><time>2022-03-19T12:28:54Z</time><name>PT5030</name></trkpt>
<trkpt lat="53.372508" lon="-1.879032"><ele>525</ele><time>2022-03-19T12:28:55Z</time><name>PT5031</name></trkpt>
<trkpt lat="53.372506" lon="-1.879030"><ele>525</ele><time>2022-03-19T12:28:55Z</time><name>PT5032</name></trkpt>
<trkpt lat="53.372505" lon="-1.879034"><ele>525</ele><time>2022-03-19T12:29:21Z</time><name>PT5033</name></trkpt>
<trkpt lat="53.372505" lon="-1.879033"><ele>525</ele><time>2022-03-19T12:29:22Z</time><name>PT5034</name></trkpt>
<trkpt lat="53.372506" lon="-1.879029"><ele>525</ele><time>2022-03-19T12:29:22Z</time><name>PT5035</name></trkpt>
<trkpt lat="53.372506" lon="-1.879031"><ele>525</ele><time>2022-03-19T12:29:25Z</time><name>PT5036</name></trkpt>
<trkpt lat="53.372507" lon="-1.879030"><ele>525</ele><time>2022-03-19T12:29:27Z</time><name>PT5037</name></trkpt>
<trkpt lat="53.372506" lon="-1.879025"><ele>525</ele><time>2022-03-19T12:29:30Z</time><name>PT5038</name></trkpt>
<trkpt lat="53.372503" lon="-1.879030"><ele>525</ele><time>2022-03-19T12:30:51Z</time><name>PT5039</name></trkpt>
<trkpt lat="53.372502" lon="-1.879028"><ele>526</ele><time>2022-03-19T12:30:54Z</time><name>PT5040</name></trkpt>
<trkpt lat="53.372495" lon="-1.879033"><ele>525</ele><time>2022-03-19T12:34:57Z</time><name>PT5041</name></trkpt>
<trkpt lat="53.372496" lon="-1.879039"><ele>524</ele><time>2022-03-19T12:35:01Z</time><name>PT5042</name></trkpt>
<trkpt lat="53.372497" lon="-1.879042"><ele>524</ele><time>2022-03-19T12:35:04Z</time><name>PT5043</name></trkpt>
<trkpt lat="53.372496" lon="-1.879046"><ele>523</ele><time>2022-03-19T12:35:07Z</time><name>PT5044</name></trkpt>
<trkpt lat="53.372487" lon="-1.879027"><ele>524</ele><time>2022-03-19T12:35:10Z</time><name>PT5045</name></trkpt>
<trkpt lat="53.372480" lon="-1.879011"><ele>524</ele><time>2022-03-19T12:35:15Z</time><name>PT5046</name></trkpt>
<trkpt lat="53.372475" lon="-1.879014"><ele>524</ele><time>2022-03-19T12:35:18Z</time><name>PT5047</name></trkpt>
<trkpt lat="53.372472" lon="-1.879011"><ele>525</ele><time>2022-03-19T12:35:21Z</time><name>PT5048</name></trkpt>
<trkpt lat="53.372473" lon="-1.879013"><ele>525</ele><time>2022-03-19T12:35:22Z</time><name>PT5049</name></trkpt>
<trkpt lat="53.372473" lon="-1.879017"><ele>525</ele><time>2022-03-19T12:35:52Z</time><name>PT5050</name></trkpt>
<trkpt lat="53.372469" lon="-1.879018"><ele>525</ele><time>2022-03-19T12:35:53Z</time><name>PT5051</name></trkpt>
<trkpt lat="53.372462" lon="-1.879025"><ele>526</ele><time>2022-03-19T12:36:00Z</time><name>PT5052</name></trkpt>
<trkpt lat="53.372454" lon="-1.879034"><ele>525</ele><time>2022-03-19T12:36:01Z</time><name>PT5053</name></trkpt>
<trkpt lat="53.372446" lon="-1.879042"><ele>525</ele><time>2022-03-19T12:36:01Z</time><name>PT5054</name></trkpt>
<trkpt lat="53.372437" lon="-1.879048"><ele>525</ele><time>2022-03-19T12:36:03Z</time><name>PT5055</name></trkpt>
<trkpt lat="53.372425" lon="-1.879052"><ele>526</ele><time>2022-03-19T12:36:04Z</time><name>PT5056</name></trkpt>
<trkpt lat="53.372419" lon="-1.879057"><ele>526</ele><time>2022-03-19T12:36:04Z</time><name>PT5057</name></trkpt>
<trkpt lat="53.372411" lon="-1.879063"><ele>526</ele><time>2022-03-19T12:36:06Z</time><name>PT5058</name></trkpt>
<trkpt lat="53.372404" lon="-1.879071"><ele>526</ele><time>2022-03-19T12:36:07Z</time><name>PT5059</name></trkpt>
<trkpt lat="53.372399" lon="-1.879078"><ele>526</ele><time>2022-03-19T12:36:07Z</time><name>PT5060</name></trkpt>
<trkpt lat="53.372394" lon="-1.879086"><ele>526</ele><time>2022-03-19T12:36:09Z</time><name>PT5061</name></trkpt>
<trkpt lat="53.372384" lon="-1.879094"><ele>526</ele><time>2022-03-19T12:36:10Z</time><name>PT5062</name></trkpt>
<trkpt lat="53.372376" lon="-1.879102"><ele>526</ele><time>2022-03-19T12:36:10Z</time><name>PT5063</name></trkpt>
<trkpt lat="53.372368" lon="-1.879113"><ele>527</ele><time>2022-03-19T12:36:12Z</time><name>PT5064</name></trkpt>
<trkpt lat="53.372358" lon="-1.879128"><ele>527</ele><time>2022-03-19T12:36:13Z</time><name>PT5065</name></trkpt>
<trkpt lat="53.372348" lon="-1.879139"><ele>527</ele><time>2022-03-19T12:36:13Z</time><name>PT5066</name></trkpt>
<trkpt lat="53.372337" lon="-1.879150"><ele>527</ele><time>2022-03-19T12:36:15Z</time><name>PT5067</name></trkpt>
<trkpt lat="53.372329" lon="-1.879159"><ele>527</ele><time>2022-03-19T12:36:16Z</time><name>PT5068</name></trkpt>
<trkpt lat="53.372322" lon="-1.879163"><ele>527</ele><time>2022-03-19T12:36:16Z</time><name>PT5069</name></trkpt>
<trkpt lat="53.372314" lon="-1.879172"><ele>527</ele><time>2022-03-19T12:36:18Z</time><name>PT5070</name></trkpt>
<trkpt lat="53.372305" lon="-1.879185"><ele>527</ele><time>2022-03-19T12:36:19Z</time><name>PT5071</name></trkpt>
<trkpt lat="53.372296" lon="-1.879198"><ele>527</ele><time>2022-03-19T12:36:19Z</time><name>PT5072</name></trkpt>
<trkpt lat="53.372289" lon="-1.879207"><ele>526</ele><time>2022-03-19T12:36:21Z</time><name>PT5073</name></trkpt>
<trkpt lat="53.372281" lon="-1.879223"><ele>526</ele><time>2022-03-19T12:36:22Z</time><name>PT5074</name></trkpt>
<trkpt lat="53.372272" lon="-1.879235"><ele>526</ele><time>2022-03-19T12:36:22Z</time><name>PT5075</name></trkpt>
<trkpt lat="53.372262" lon="-1.879243"><ele>526</ele><time>2022-03-19T12:36:24Z</time><name>PT5076</name></trkpt>
<trkpt lat="53.372255" lon="-1.879252"><ele>526</ele><time>2022-03-19T12:36:25Z</time><name>PT5077</name></trkpt>
<trkpt lat="53.372247" lon="-1.879263"><ele>526</ele><time>2022-03-19T12:36:25Z</time><name>PT5078</name></trkpt>
<trkpt lat="53.372237" lon="-1.879276"><ele>526</ele><time>2022-03-19T12:36:27Z</time><name>PT5079</name></trkpt>
<trkpt lat="53.372228" lon="-1.879286"><ele>527</ele><time>2022-03-19T12:36:28Z</time><name>PT5080</name></trkpt>
<trkpt lat="53.372221" lon="-1.879294"><ele>527</ele><time>2022-03-19T12:36:28Z</time><name>PT5081</name></trkpt>
<trkpt lat="53.372214" lon="-1.879300"><ele>526</ele><time>2022-03-19T12:36:30Z</time><name>PT5082</name></trkpt>
<trkpt lat="53.372205" lon="-1.879310"><ele>526</ele><time>2022-03-19T12:36:31Z</time><name>PT5083</name></trkpt>
<trkpt lat="53.372195" lon="-1.879322"><ele>527</ele><time>2022-03-19T12:36:31Z</time><name>PT5084</name></trkpt>
<trkpt lat="53.372186" lon="-1.879331"><ele>527</ele><time>2022-03-19T12:36:33Z</time><name>PT5085</name></trkpt>
<trkpt lat="53.372174" lon="-1.879340"><ele>528</ele><time>2022-03-19T12:36:34Z</time><name>PT5086</name></trkpt>
<trkpt lat="53.372164" lon="-1.879350"><ele>528</ele><time>2022-03-19T12:36:34Z</time><name>PT5087</name></trkpt>
<trkpt lat="53.372156" lon="-1.879359"><ele>528</ele><time>2022-03-19T12:36:36Z</time><name>PT5088</name></trkpt>
<trkpt lat="53.372147" lon="-1.879373"><ele>528</ele><time>2022-03-19T12:36:37Z</time><name>PT5089</name></trkpt>
<trkpt lat="53.372139" lon="-1.879383"><ele>528</ele><time>2022-03-19T12:36:37Z</time><name>PT5090</name></trkpt>
<trkpt lat="53.372131" lon="-1.879393"><ele>528</ele><time>2022-03-19T12:36:39Z</time><name>PT5091</name></trkpt>
<trkpt lat="53.372122" lon="-1.879402"><ele>529</ele><time>2022-03-19T12:36:40Z</time><name>PT5092</name></trkpt>
<trkpt lat="53.372112" lon="-1.879413"><ele>529</ele><time>2022-03-19T12:36:40Z</time><name>PT5093</name></trkpt>
<trkpt lat="53.372105" lon="-1.879425"><ele>529</ele><time>2022-03-19T12:36:42Z</time><name>PT5094</name></trkpt>
<trkpt lat="53.372097" lon="-1.879440"><ele>530</ele><time>2022-03-19T12:36:43Z</time><name>PT5095</name></trkpt>
<trkpt lat="53.372090" lon="-1.879447"><ele>530</ele><time>2022-03-19T12:36:43Z</time><name>PT5096</name></trkpt>
<trkpt lat="53.372083" lon="-1.879455"><ele>530</ele><time>2022-03-19T12:36:45Z</time><name>PT5097</name></trkpt>
<trkpt lat="53.372074" lon="-1.879466"><ele>530</ele><time>2022-03-19T12:36:46Z</time><name>PT5098</name></trkpt>
<trkpt lat="53.372067" lon="-1.879474"><ele>530</ele><time>2022-03-19T12:36:46Z</time><name>PT5099</name></trkpt>
<trkpt lat="53.372061" lon="-1.879483"><ele>530</ele><time>2022-03-19T12:36:48Z</time><name>PT5100</name></trkpt>
<trkpt lat="53.372056" lon="-1.879491"><ele>530</ele><time>2022-03-19T12:36:49Z</time><name>PT5101</name></trkpt>
<trkpt lat="53.372049" lon="-1.879501"><ele>530</ele><time>2022-03-19T12:36:49Z</time><name>PT5102</name></trkpt>
<trkpt lat="53.372043" lon="-1.879509"><ele>530</ele><time>2022-03-19T12:36:51Z</time><name>PT5103</name></trkpt>
<trkpt lat="53.372036" lon="-1.879519"><ele>530</ele><time>2022-03-19T12:36:52Z</time><name>PT5104</name></trkpt>
<trkpt lat="53.372028" lon="-1.879521"><ele>530</ele><time>2022-03-19T12:36:52Z</time><name>PT5105</name></trkpt>
<trkpt lat="53.372024" lon="-1.879527"><ele>530</ele><time>2022-03-19T12:36:54Z</time><name>PT5106</name></trkpt>
<trkpt lat="53.372022" lon="-1.879536"><ele>531</ele><time>2022-03-19T12:36:55Z</time><name>PT5107</name></trkpt>
<trkpt lat="53.372019" lon="-1.879543"><ele>531</ele><time>2022-03-19T12:36:55Z</time><name>PT5108</name></trkpt>
<trkpt lat="53.372012" lon="-1.879550"><ele>531</ele><time>2022-03-19T12:36:57Z</time><name>PT5109</name></trkpt>
<trkpt lat="53.372000" lon="-1.879560"><ele>534</ele><time>2022-03-19T12:36:58Z</time><name>PT5110</name></trkpt>
<trkpt lat="53.371993" lon="-1.879567"><ele>534</ele><time>2022-03-19T12:36:58Z</time><name>PT5111</name></trkpt>
<trkpt lat="53.371987" lon="-1.879580"><ele>535</ele><time>2022-03-19T12:37:00Z</time><name>PT5112</name></trkpt>
<trkpt lat="53.371980" lon="-1.879595"><ele>534</ele><time>2022-03-19T12:37:01Z</time><name>PT5113</name></trkpt>
<trkpt lat="53.371970" lon="-1.879610"><ele>534</ele><time>2022-03-19T12:37:01Z</time><name>PT5114</name></trkpt>
<trkpt lat="53.371962" lon="-1.879628"><ele>534</ele><time>2022-03-19T12:37:03Z</time><name>PT5115</name></trkpt>
<trkpt lat="53.371954" lon="-1.879642"><ele>534</ele><time>2022-03-19T12:37:04Z</time><name>PT5116</name></trkpt>
<trkpt lat="53.371943" lon="-1.879658"><ele>534</ele><time>2022-03-19T12:37:04Z</time><name>PT5117</name></trkpt>
<trkpt lat="53.371935" lon="-1.879671"><ele>534</ele><time>2022-03-19T12:37:06Z</time><name>PT5118</name></trkpt>
<trkpt lat="53.371928" lon="-1.879685"><ele>534</ele><time>2022-03-19T12:37:07Z</time><name>PT5119</name></trkpt>
<trkpt lat="53.371920" lon="-1.879698"><ele>534</ele><time>2022-03-19T12:37:07Z</time><name>PT5120</name></trkpt>
<trkpt lat="53.371912" lon="-1.879713"><ele>534</ele><time>2022-03-19T12:37:09Z</time><name>PT5121</name></trkpt>
<trkpt lat="53.371904" lon="-1.879727"><ele>534</ele><time>2022-03-19T12:37:10Z</time><name>PT5122</name></trkpt>
<trkpt lat="53.371894" lon="-1.879740"><ele>534</ele><time>2022-03-19T12:37:10Z</time><name>PT5123</name></trkpt>
<trkpt lat="53.371886" lon="-1.879753"><ele>534</ele><time>2022-03-19T12:37:12Z</time><name>PT5124</name></trkpt>
<trkpt lat="53.371879" lon="-1.879768"><ele>534</ele><time>2022-03-19T12:37:13Z</time><name>PT5125</name></trkpt>
<trkpt lat="53.371872" lon="-1.879784"><ele>534</ele><time>2022-03-19T12:37:13Z</time><name>PT5126</name></trkpt>
<trkpt lat="53.371865" lon="-1.879799"><ele>535</ele><time>2022-03-19T12:37:15Z</time><name>PT5127</name></trkpt>
<trkpt lat="53.371859" lon="-1.879814"><ele>534</ele><time>2022-03-19T12:37:16Z</time><name>PT5128</name></trkpt>
<trkpt lat="53.371853" lon="-1.879827"><ele>535</ele><time>2022-03-19T12:37:16Z</time><name>PT5129</name></trkpt>
<trkpt lat="53.371848" lon="-1.879842"><ele>535</ele><time>2022-03-19T12:37:18Z</time><name>PT5130</name></trkpt>
<trkpt lat="53.371844" lon="-1.879861"><ele>535</ele><time>2022-03-19T12:37:19Z</time><name>PT5131</name></trkpt>
<trkpt lat="53.371840" lon="-1.879877"><ele>535</ele><time>2022-03-19T12:37:19Z</time><name>PT5132</name></trkpt>
<trkpt lat="53.371833" lon="-1.879889"><ele>535</ele><time>2022-03-19T12:37:21Z</time><name>PT5133</name></trkpt>
<trkpt lat="53.371828" lon="-1.879902"><ele>535</ele><time>2022-03-19T12:37:22Z</time><name>PT5134</name></trkpt>
<trkpt lat="53.371824" lon="-1.879916"><ele>535</ele><time>2022-03-19T12:37:23Z</time><name>PT5135</name></trkpt>
<trkpt lat="53.371818" lon="-1.879932"><ele>535</ele><time>2022-03-19T12:37:24Z</time><name>PT5136</name></trkpt>
<trkpt lat="53.371814" lon="-1.879951"><ele>534</ele><time>2022-03-19T12:37:25Z</time><name>PT5137</name></trkpt>
<trkpt lat="53.371811" lon="-1.879967"><ele>535</ele><time>2022-03-19T12:37:25Z</time><name>PT5138</name></trkpt>
<trkpt lat="53.371808" lon="-1.879985"><ele>535</ele><time>2022-03-19T12:37:27Z</time><name>PT5139</name></trkpt>
<trkpt lat="53.371806" lon="-1.879999"><ele>534</ele><time>2022-03-19T12:37:28Z</time><name>PT5140</name></trkpt>
<trkpt lat="53.371803" lon="-1.880010"><ele>535</ele><time>2022-03-19T12:37:28Z</time><name>PT5141</name></trkpt>
<trkpt lat="53.371800" lon="-1.880020"><ele>535</ele><time>2022-03-19T12:37:30Z</time><name>PT5142</name></trkpt>
<trkpt lat="53.371800" lon="-1.880026"><ele>534</ele><time>2022-03-19T12:37:31Z</time><name>PT5143</name></trkpt>
<trkpt lat="53.371803" lon="-1.880030"><ele>534</ele><time>2022-03-19T12:37:31Z</time><name>PT5144</name></trkpt>
<trkpt lat="53.371804" lon="-1.880035"><ele>534</ele><time>2022-03-19T12:37:33Z</time><name>PT5145</name></trkpt>
<trkpt lat="53.371804" lon="-1.880045"><ele>534</ele><time>2022-03-19T12:37:34Z</time><name>PT5146</name></trkpt>
<trkpt lat="53.371799" lon="-1.880054"><ele>534</ele><time>2022-03-19T12:37:34Z</time><name>PT5147</name></trkpt>
<trkpt lat="53.371797" lon="-1.880062"><ele>534</ele><time>2022-03-19T12:37:36Z</time><name>PT5148</name></trkpt>
<trkpt lat="53.371796" lon="-1.880071"><ele>533</ele><time>2022-03-19T12:37:37Z</time><name>PT5149</name></trkpt>
<trkpt lat="53.371795" lon="-1.880078"><ele>533</ele><time>2022-03-19T12:37:38Z</time><name>PT5150</name></trkpt>
<trkpt lat="53.371794" lon="-1.880082"><ele>533</ele><time>2022-03-19T12:37:39Z</time><name>PT5151</name></trkpt>
<trkpt lat="53.371795" lon="-1.880087"><ele>533</ele><time>2022-03-19T12:37:40Z</time><name>PT5152</name></trkpt>
<trkpt lat="53.371795" lon="-1.880094"><ele>534</ele><time>2022-03-19T12:37:40Z</time><name>PT5153</name></trkpt>
<trkpt lat="53.371794" lon="-1.880100"><ele>534</ele><time>2022-03-19T12:37:42Z</time><name>PT5154</name></trkpt>
<trkpt lat="53.371793" lon="-1.880103"><ele>534</ele><time>2022-03-19T12:37:46Z</time><name>PT5155</name></trkpt>
<trkpt lat="53.371789" lon="-1.880110"><ele>534</ele><time>2022-03-19T12:37:46Z</time><name>PT5156</name></trkpt>
<trkpt lat="53.371786" lon="-1.880120"><ele>534</ele><time>2022-03-19T12:37:48Z</time><name>PT5157</name></trkpt>
<trkpt lat="53.371780" lon="-1.880122"><ele>534</ele><time>2022-03-19T12:37:49Z</time><name>PT5158</name></trkpt>
<trkpt lat="53.371772" lon="-1.880123"><ele>533</ele><time>2022-03-19T12:37:49Z</time><name>PT5159</name></trkpt>
<trkpt lat="53.371763" lon="-1.880120"><ele>533</ele><time>2022-03-19T12:37:51Z</time><name>PT5160</name></trkpt>
<trkpt lat="53.371759" lon="-1.880126"><ele>534</ele><time>2022-03-19T12:37:52Z</time><name>PT5161</name></trkpt>
<trkpt lat="53.371754" lon="-1.880123"><ele>534</ele><time>2022-03-19T12:37:52Z</time><name>PT5162</name></trkpt>
<trkpt lat="53.371750" lon="-1.880121"><ele>534</ele><time>2022-03-19T12:37:54Z</time><name>PT5163</name></trkpt>
<trkpt lat="53.371745" lon="-1.880118"><ele>534</ele><time>2022-03-19T12:37:55Z</time><name>PT5164</name></trkpt>
<trkpt lat="53.371741" lon="-1.880122"><ele>535</ele><time>2022-03-19T12:37:55Z</time><name>PT5165</name></trkpt>
<trkpt lat="53.371739" lon="-1.880122"><ele>535</ele><time>2022-03-19T12:37:57Z</time><name>PT5166</name></trkpt>
<trkpt lat="53.371738" lon="-1.880124"><ele>536</ele><time>2022-03-19T12:37:58Z</time><name>PT5167</name></trkpt>
<trkpt lat="53.371736" lon="-1.880125"><ele>536</ele><time>2022-03-19T12:37:58Z</time><name>PT5168</name></trkpt>
<trkpt lat="53.371736" lon="-1.880130"><ele>536</ele><time>2022-03-19T12:38:09Z</time><name>PT5169</name></trkpt>
<trkpt lat="53.371732" lon="-1.880133"><ele>536</ele><time>2022-03-19T12:38:10Z</time><name>PT5170</name></trkpt>
<trkpt lat="53.371730" lon="-1.880136"><ele>536</ele><time>2022-03-19T12:38:10Z</time><name>PT5171</name></trkpt>
<trkpt lat="53.371729" lon="-1.880139"><ele>536</ele><time>2022-03-19T12:38:12Z</time><name>PT5172</name></trkpt>
<trkpt lat="53.371729" lon="-1.880140"><ele>536</ele><time>2022-03-19T12:38:13Z</time><name>PT5173</name></trkpt>
<trkpt lat="53.371730" lon="-1.880132"><ele>536</ele><time>2022-03-19T12:38:30Z</time><name>PT5174</name></trkpt>
<trkpt lat="53.371731" lon="-1.880125"><ele>536</ele><time>2022-03-19T12:38:31Z</time><name>PT5175</name></trkpt>
<trkpt lat="53.371731" lon="-1.880125"><ele>536</ele><time>2022-03-19T12:38:31Z</time><name>PT5176</name></trkpt>
<trkpt lat="53.371731" lon="-1.880123"><ele>536</ele><time>2022-03-19T12:38:33Z</time><name>PT5177</name></trkpt>
<trkpt lat="53.371729" lon="-1.880121"><ele>536</ele><time>2022-03-19T12:38:34Z</time><name>PT5178</name></trkpt>
<trkpt lat="53.371722" lon="-1.880118"><ele>537</ele><time>2022-03-19T12:38:36Z</time><name>PT5179</name></trkpt>
<trkpt lat="53.371715" lon="-1.880109"><ele>537</ele><time>2022-03-19T12:38:37Z</time><name>PT5180</name></trkpt>
<trkpt lat="53.371708" lon="-1.880095"><ele>537</ele><time>2022-03-19T12:38:37Z</time><name>PT5181</name></trkpt>
<trkpt lat="53.371699" lon="-1.880084"><ele>537</ele><time>2022-03-19T12:38:39Z</time><name>PT5182</name></trkpt>
<trkpt lat="53.371692" lon="-1.880078"><ele>537</ele><time>2022-03-19T12:38:40Z</time><name>PT5183</name></trkpt>
<trkpt lat="53.371686" lon="-1.880069"><ele>537</ele><time>2022-03-19T12:38:40Z</time><name>PT5184</name></trkpt>
<trkpt lat="53.371680" lon="-1.880058"><ele>536</ele><time>2022-03-19T12:38:42Z</time><name>PT5185</name></trkpt>
<trkpt lat="53.371675" lon="-1.880049"><ele>537</ele><time>2022-03-19T12:38:43Z</time><name>PT5186</name></trkpt>
<trkpt lat="53.371669" lon="-1.880040"><ele>538</ele><time>2022-03-19T12:38:43Z</time><name>PT5187</name></trkpt>
<trkpt lat="53.371661" lon="-1.880030"><ele>537</ele><time>2022-03-19T12:38:45Z</time><name>PT5188</name></trkpt>
<trkpt lat="53.371656" lon="-1.880024"><ele>537</ele><time>2022-03-19T12:38:46Z</time><name>PT5189</name></trkpt>
<trkpt lat="53.371653" lon="-1.880018"><ele>537</ele><time>2022-03-19T12:38:46Z</time><name>PT5190</name></trkpt>
<trkpt lat="53.371650" lon="-1.880015"><ele>537</ele><time>2022-03-19T12:38:48Z</time><name>PT5191</name></trkpt>
<trkpt lat="53.371648" lon="-1.880014"><ele>537</ele><time>2022-03-19T12:38:49Z</time><name>PT5192</name></trkpt>
<trkpt lat="53.371646" lon="-1.880012"><ele>537</ele><time>2022-03-19T12:38:49Z</time><name>PT5193</name></trkpt>
<trkpt lat="53.371642" lon="-1.880008"><ele>537</ele><time>2022-03-19T12:38:51Z</time><name>PT5194</name></trkpt>
<trkpt lat="53.371634" lon="-1.879999"><ele>537</ele><time>2022-03-19T12:38:52Z</time><name>PT5195</name></trkpt>
<trkpt lat="53.371624" lon="-1.879988"><ele>537</ele><time>2022-03-19T12:38:52Z</time><name>PT5196</name></trkpt>
<trkpt lat="53.371617" lon="-1.879980"><ele>537</ele><time>2022-03-19T12:38:54Z</time><name>PT5197</name></trkpt>
<trkpt lat="53.371610" lon="-1.879972"><ele>537</ele><time>2022-03-19T12:38:55Z</time><name>PT5198</name></trkpt>
<trkpt lat="53.371602" lon="-1.879964"><ele>537</ele><time>2022-03-19T12:38:55Z</time><name>PT5199</name></trkpt>
<trkpt lat="53.371596" lon="-1.879955"><ele>537</ele><time>2022-03-19T12:38:57Z</time><name>PT5200</name></trkpt>
<trkpt lat="53.371585" lon="-1.879945"><ele>539</ele><time>2022-03-19T12:38:58Z</time><name>PT5201</name></trkpt>
<trkpt lat="53.371577" lon="-1.879936"><ele>539</ele><time>2022-03-19T12:38:58Z</time><name>PT5202</name></trkpt>
<trkpt lat="53.371568" lon="-1.879927"><ele>539</ele><time>2022-03-19T12:39:00Z</time><name>PT5203</name></trkpt>
<trkpt lat="53.371559" lon="-1.879915"><ele>539</ele><time>2022-03-19T12:39:01Z</time><name>PT5204</name></trkpt>
<trkpt lat="53.371551" lon="-1.879904"><ele>539</ele><time>2022-03-19T12:39:01Z</time><name>PT5205</name></trkpt>
<trkpt lat="53.371544" lon="-1.879892"><ele>539</ele><time>2022-03-19T12:39:03Z</time><name>PT5206</name></trkpt>
<trkpt lat="53.371535" lon="-1.879882"><ele>539</ele><time>2022-03-19T12:39:04Z</time><name>PT5207</name></trkpt>
<trkpt lat="53.371526" lon="-1.879871"><ele>539</ele><time>2022-03-19T12:39:04Z</time><name>PT5208</name></trkpt>
<trkpt lat="53.371518" lon="-1.879859"><ele>539</ele><time>2022-03-19T12:39:06Z</time><name>PT5209</name></trkpt>
<trkpt lat="53.371513" lon="-1.879850"><ele>539</ele><time>2022-03-19T12:39:07Z</time><name>PT5210</name></trkpt>
<trkpt lat="53.371507" lon="-1.879840"><ele>539</ele><time>2022-03-19T12:39:07Z</time><name>PT5211</name></trkpt>
<trkpt lat="53.371500" lon="-1.879825"><ele>539</ele><time>2022-03-19T12:39:09Z</time><name>PT5212</name></trkpt>
<trkpt lat="53.371492" lon="-1.879815"><ele>539</ele><time>2022-03-19T12:39:10Z</time><name>PT5213</name></trkpt>
<trkpt lat="53.371482" lon="-1.879806"><ele>538</ele><time>2022-03-19T12:39:10Z</time><name>PT5214</name></trkpt>
<trkpt lat="53.371471" lon="-1.879802"><ele>538</ele><time>2022-03-19T12:39:12Z</time><name>PT5215</name></trkpt>
<trkpt lat="53.371461" lon="-1.879797"><ele>538</ele><time>2022-03-19T12:39:13Z</time><name>PT5216</name></trkpt>
<trkpt lat="53.371449" lon="-1.879787"><ele>538</ele><time>2022-03-19T12:39:13Z</time><name>PT5217</name></trkpt>
<trkpt lat="53.371440" lon="-1.879777"><ele>539</ele><time>2022-03-19T12:39:15Z</time><name>PT5218</name></trkpt>
<trkpt lat="53.371425" lon="-1.879765"><ele>539</ele><time>2022-03-19T12:39:16Z</time><name>PT5219</name></trkpt>
<trkpt lat="53.371418" lon="-1.879759"><ele>539</ele><time>2022-03-19T12:39:16Z</time><name>PT5220</name></trkpt>
<trkpt lat="53.371410" lon="-1.879749"><ele>539</ele><time>2022-03-19T12:39:18Z</time><name>PT5221</name></trkpt>
<trkpt lat="53.371402" lon="-1.879738"><ele>539</ele><time>2022-03-19T12:39:19Z</time><name>PT5222</name></trkpt>
<trkpt lat="53.371392" lon="-1.879729"><ele>539</ele><time>2022-03-19T12:39:19Z</time><name>PT5223</name></trkpt>
<trkpt lat="53.371382" lon="-1.879719"><ele>539</ele><time>2022-03-19T12:39:21Z</time><name>PT5224</name></trkpt>
<trkpt lat="53.371371" lon="-1.879706"><ele>539</ele><time>2022-03-19T12:39:22Z</time><name>PT5225</name></trkpt>
<trkpt lat="53.371362" lon="-1.879691"><ele>539</ele><time>2022-03-19T12:39:22Z</time><name>PT5226</name></trkpt>
<trkpt lat="53.371354" lon="-1.879680"><ele>539</ele><time>2022-03-19T12:39:24Z</time><name>PT5227</name></trkpt>
<trkpt lat="53.371346" lon="-1.879669"><ele>540</ele><time>2022-03-19T12:39:25Z</time><name>PT5228</name></trkpt>
<trkpt lat="53.371340" lon="-1.879662"><ele>540</ele><time>2022-03-19T12:39:25Z</time><name>PT5229</name></trkpt>
<trkpt lat="53.371335" lon="-1.879654"><ele>540</ele><time>2022-03-19T12:39:27Z</time><name>PT5230</name></trkpt>
<trkpt lat="53.371330" lon="-1.879644"><ele>540</ele><time>2022-03-19T12:39:28Z</time><name>PT5231</name></trkpt>
<trkpt lat="53.371321" lon="-1.879628"><ele>540</ele><time>2022-03-19T12:39:28Z</time><name>PT5232</name></trkpt>
<trkpt lat="53.371313" lon="-1.879615"><ele>541</ele><time>2022-03-19T12:39:30Z</time><name>PT5233</name></trkpt>
<trkpt lat="53.371305" lon="-1.879602"><ele>540</ele><time>2022-03-19T12:39:31Z</time><name>PT5234</name></trkpt>
<trkpt lat="53.371299" lon="-1.879593"><ele>541</ele><time>2022-03-19T12:39:31Z</time><name>PT5235</name></trkpt>
<trkpt lat="53.371289" lon="-1.879582"><ele>541</ele><time>2022-03-19T12:39:33Z</time><name>PT5236</name></trkpt>
<trkpt lat="53.371281" lon="-1.879572"><ele>541</ele><time>2022-03-19T12:39:34Z</time><name>PT5237</name></trkpt>
<trkpt lat="53.371273" lon="-1.879560"><ele>541</ele><time>2022-03-19T12:39:34Z</time><name>PT5238</name></trkpt>
<trkpt lat="53.371262" lon="-1.879548"><ele>541</ele><time>2022-03-19T12:39:36Z</time><name>PT5239</name></trkpt>
<trkpt lat="53.371251" lon="-1.879536"><ele>541</ele><time>2022-03-19T12:39:37Z</time><name>PT5240</name></trkpt>
<trkpt lat="53.371241" lon="-1.879525"><ele>541</ele><time>2022-03-19T12:39:37Z</time><name>PT5241</name></trkpt>
<trkpt lat="53.371232" lon="-1.879512"><ele>542</ele><time>2022-03-19T12:39:39Z</time><name>PT5242</name></trkpt>
<trkpt lat="53.371223" lon="-1.879499"><ele>542</ele><time>2022-03-19T12:39:40Z</time><name>PT5243</name></trkpt>
<trkpt lat="53.371216" lon="-1.879489"><ele>542</ele><time>2022-03-19T12:39:40Z</time><name>PT5244</name></trkpt>
<trkpt lat="53.371208" lon="-1.879478"><ele>542</ele><time>2022-03-19T12:39:42Z</time><name>PT5245</name></trkpt>
<trkpt lat="53.371199" lon="-1.879466"><ele>542</ele><time>2022-03-19T12:39:43Z</time><name>PT5246</name></trkpt>
<trkpt lat="53.371189" lon="-1.879454"><ele>542</ele><time>2022-03-19T12:39:43Z</time><name>PT5247</name></trkpt>
<trkpt lat="53.371179" lon="-1.879442"><ele>542</ele><time>2022-03-19T12:39:45Z</time><name>PT5248</name></trkpt>
<trkpt lat="53.371168" lon="-1.879429"><ele>542</ele><time>2022-03-19T12:39:46Z</time><name>PT5249</name></trkpt>
<trkpt lat="53.371158" lon="-1.879418"><ele>542</ele><time>2022-03-19T12:39:46Z</time><name>PT5250</name></trkpt>
<trkpt lat="53.371148" lon="-1.879408"><ele>542</ele><time>2022-03-19T12:39:48Z</time><name>PT5251</name></trkpt>
<trkpt lat="53.371139" lon="-1.879398"><ele>542</ele><time>2022-03-19T12:39:49Z</time><name>PT5252</name></trkpt>
<trkpt lat="53.371131" lon="-1.879387"><ele>542</ele><time>2022-03-19T12:39:49Z</time><name>PT5253</name></trkpt>
<trkpt lat="53.371122" lon="-1.879375"><ele>542</ele><time>2022-03-19T12:39:51Z</time><name>PT5254</name></trkpt>
<trkpt lat="53.371111" lon="-1.879365"><ele>542</ele><time>2022-03-19T12:39:52Z</time><name>PT5255</name></trkpt>
<trkpt lat="53.371101" lon="-1.879353"><ele>542</ele><time>2022-03-19T12:39:52Z</time><name>PT5256</name></trkpt>
<trkpt lat="53.371092" lon="-1.879344"><ele>542</ele><time>2022-03-19T12:39:54Z</time><name>PT5257</name></trkpt>
<trkpt lat="53.371084" lon="-1.879336"><ele>542</ele><time>2022-03-19T12:39:55Z</time><name>PT5258</name></trkpt>
<trkpt lat="53.371076" lon="-1.879324"><ele>542</ele><time>2022-03-19T12:39:55Z</time><name>PT5259</name></trkpt>
<trkpt lat="53.371069" lon="-1.879314"><ele>542</ele><time>2022-03-19T12:39:57Z</time><name>PT5260</name></trkpt>
<trkpt lat="53.371063" lon="-1.879306"><ele>543</ele><time>2022-03-19T12:39:58Z</time><name>PT5261</name></trkpt>
<trkpt lat="53.371055" lon="-1.879295"><ele>543</ele><time>2022-03-19T12:39:58Z</time><name>PT5262</name></trkpt>
<trkpt lat="53.371047" lon="-1.879288"><ele>544</ele><time>2022-03-19T12:40:00Z</time><name>PT5263</name></trkpt>
<trkpt lat="53.371040" lon="-1.879280"><ele>544</ele><time>2022-03-19T12:40:01Z</time><name>PT5264</name></trkpt>
<trkpt lat="53.371034" lon="-1.879273"><ele>544</ele><time>2022-03-19T12:40:01Z</time><name>PT5265</name></trkpt>
<trkpt lat="53.371030" lon="-1.879266"><ele>544</ele><time>2022-03-19T12:40:03Z</time><name>PT5266</name></trkpt>
<trkpt lat="53.371025" lon="-1.879259"><ele>544</ele><time>2022-03-19T12:40:04Z</time><name>PT5267</name></trkpt>
<trkpt lat="53.371019" lon="-1.879250"><ele>544</ele><time>2022-03-19T12:40:04Z</time><name>PT5268</name></trkpt>
<trkpt lat="53.371011" lon="-1.879237"><ele>544</ele><time>2022-03-19T12:40:06Z</time><name>PT5269</name></trkpt>
<trkpt lat="53.371003" lon="-1.879221"><ele>545</ele><time>2022-03-19T12:40:07Z</time><name>PT5270</name></trkpt>
<trkpt lat="53.370997" lon="-1.879205"><ele>546</ele><time>2022-03-19T12:40:07Z</time><name>PT5271</name></trkpt>
<trkpt lat="53.370991" lon="-1.879186"><ele>545</ele><time>2022-03-19T12:40:09Z</time><name>PT5272</name></trkpt>
<trkpt lat="53.370986" lon="-1.879168"><ele>545</ele><time>2022-03-19T12:40:10Z</time><name>PT5273</name></trkpt>
<trkpt lat="53.370980" lon="-1.879150"><ele>546</ele><time>2022-03-19T12:40:10Z</time><name>PT5274</name></trkpt>
<trkpt lat="53.370973" lon="-1.879132"><ele>546</ele><time>2022-03-19T12:40:12Z</time><name>PT5275</name></trkpt>
<trkpt lat="53.370971" lon="-1.879116"><ele>546</ele><time>2022-03-19T12:40:13Z</time><name>PT5276</name></trkpt>
<trkpt lat="53.370967" lon="-1.879101"><ele>546</ele><time>2022-03-19T12:40:14Z</time><name>PT5277</name></trkpt>
<trkpt lat="53.370965" lon="-1.879084"><ele>547</ele><time>2022-03-19T12:40:15Z</time><name>PT5278</name></trkpt>
<trkpt lat="53.370959" lon="-1.879067"><ele>546</ele><time>2022-03-19T12:40:16Z</time><name>PT5279</name></trkpt>
<trkpt lat="53.370953" lon="-1.879049"><ele>546</ele><time>2022-03-19T12:40:17Z</time><name>PT5280</name></trkpt>
<trkpt lat="53.370947" lon="-1.879028"><ele>547</ele><time>2022-03-19T12:40:18Z</time><name>PT5281</name></trkpt>
<trkpt lat="53.370941" lon="-1.879009"><ele>546</ele><time>2022-03-19T12:40:19Z</time><name>PT5282</name></trkpt>
<trkpt lat="53.370933" lon="-1.878993"><ele>546</ele><time>2022-03-19T12:40:20Z</time><name>PT5283</name></trkpt>
<trkpt lat="53.370927" lon="-1.878983"><ele>546</ele><time>2022-03-19T12:40:21Z</time><name>PT5284</name></trkpt>
<trkpt lat="53.370919" lon="-1.878972"><ele>546</ele><time>2022-03-19T12:40:22Z</time><name>PT5285</name></trkpt>
<trkpt lat="53.370909" lon="-1.878959"><ele>546</ele><time>2022-03-19T12:40:22Z</time><name>PT5286</name></trkpt>
<trkpt lat="53.370902" lon="-1.878950"><ele>546</ele><time>2022-03-19T12:40:24Z</time><name>PT5287</name></trkpt>
<trkpt lat="53.370894" lon="-1.878945"><ele>546</ele><time>2022-03-19T12:40:25Z</time><name>PT5288</name></trkpt>
<trkpt lat="53.370883" lon="-1.878943"><ele>546</ele><time>2022-03-19T12:40:25Z</time><name>PT5289</name></trkpt>
<trkpt lat="53.370870" lon="-1.878941"><ele>546</ele><time>2022-03-19T12:40:27Z</time><name>PT5290</name></trkpt>
<trkpt lat="53.370862" lon="-1.878940"><ele>546</ele><time>2022-03-19T12:40:28Z</time><name>PT5291</name></trkpt>
<trkpt lat="53.370851" lon="-1.878946"><ele>545</ele><time>2022-03-19T12:40:28Z</time><name>PT5292</name></trkpt>
<trkpt lat="53.370840" lon="-1.878956"><ele>545</ele><time>2022-03-19T12:40:30Z</time><name>PT5293</name></trkpt>
<trkpt lat="53.370832" lon="-1.878962"><ele>546</ele><time>2022-03-19T12:40:31Z</time><name>PT5294</name></trkpt>
<trkpt lat="53.370825" lon="-1.878963"><ele>546</ele><time>2022-03-19T12:40:31Z</time><name>PT5295</name></trkpt>
<trkpt lat="53.370815" lon="-1.878964"><ele>546</ele><time>2022-03-19T12:40:33Z</time><name>PT5296</name></trkpt>
<trkpt lat="53.370806" lon="-1.878964"><ele>546</ele><time>2022-03-19T12:40:34Z</time><name>PT5297</name></trkpt>
<trkpt lat="53.370799" lon="-1.878960"><ele>546</ele><time>2022-03-19T12:40:34Z</time><name>PT5298</name></trkpt>
<trkpt lat="53.370793" lon="-1.878956"><ele>547</ele><time>2022-03-19T12:40:36Z</time><name>PT5299</name></trkpt>
<trkpt lat="53.370784" lon="-1.878948"><ele>547</ele><time>2022-03-19T12:40:37Z</time><name>PT5300</name></trkpt>
<trkpt lat="53.370776" lon="-1.878940"><ele>547</ele><time>2022-03-19T12:40:37Z</time><name>PT5301</name></trkpt>
<trkpt lat="53.370771" lon="-1.878935"><ele>547</ele><time>2022-03-19T12:40:39Z</time><name>PT5302</name></trkpt>
<trkpt lat="53.370767" lon="-1.878928"><ele>547</ele><time>2022-03-19T12:40:40Z</time><name>PT5303</name></trkpt>
<trkpt lat="53.370763" lon="-1.878922"><ele>547</ele><time>2022-03-19T12:40:40Z</time><name>PT5304</name></trkpt>
<trkpt lat="53.370756" lon="-1.878913"><ele>547</ele><time>2022-03-19T12:40:42Z</time><name>PT5305</name></trkpt>
<trkpt lat="53.370750" lon="-1.878905"><ele>547</ele><time>2022-03-19T12:40:43Z</time><name>PT5306</name></trkpt>
<trkpt lat="53.370742" lon="-1.878895"><ele>547</ele><time>2022-03-19T12:40:43Z</time><name>PT5307</name></trkpt>
<trkpt lat="53.370736" lon="-1.878887"><ele>547</ele><time>2022-03-19T12:40:45Z</time><name>PT5308</name></trkpt>
<trkpt lat="53.370735" lon="-1.878883"><ele>547</ele><time>2022-03-19T12:40:46Z</time><name>PT5309</name></trkpt>
<trkpt lat="53.370735" lon="-1.878883"><ele>546</ele><time>2022-03-19T12:40:46Z</time><name>PT5310</name></trkpt>
<trkpt lat="53.370737" lon="-1.878883"><ele>547</ele><time>2022-03-19T12:40:48Z</time><name>PT5311</name></trkpt>
<trkpt lat="53.370736" lon="-1.878878"><ele>547</ele><time>2022-03-19T12:41:03Z</time><name>PT5312</name></trkpt>
<trkpt lat="53.370723" lon="-1.878875"><ele>547</ele><time>2022-03-19T12:41:04Z</time><name>PT5313</name></trkpt>
<trkpt lat="53.370712" lon="-1.878863"><ele>547</ele><time>2022-03-19T12:41:04Z</time><name>PT5314</name></trkpt>
<trkpt lat="53.370697" lon="-1.878854"><ele>547</ele><time>2022-03-19T12:41:06Z</time><name>PT5315</name></trkpt>
<trkpt lat="53.370687" lon="-1.878846"><ele>548</ele><time>2022-03-19T12:41:07Z</time><name>PT5316</name></trkpt>
<trkpt lat="53.370676" lon="-1.878837"><ele>547</ele><time>2022-03-19T12:41:07Z</time><name>PT5317</name></trkpt>
<trkpt lat="53.370666" lon="-1.878827"><ele>548</ele><time>2022-03-19T12:41:09Z</time><name>PT5318</name></trkpt>
<trkpt lat="53.370651" lon="-1.878814"><ele>548</ele><time>2022-03-19T12:41:10Z</time><name>PT5319</name></trkpt>
<trkpt lat="53.370640" lon="-1.878806"><ele>548</ele><time>2022-03-19T12:41:10Z</time><name>PT5320</name></trkpt>
<trkpt lat="53.370631" lon="-1.878798"><ele>548</ele><time>2022-03-19T12:41:12Z</time><name>PT5321</name></trkpt>
<trkpt lat="53.370620" lon="-1.878789"><ele>548</ele><time>2022-03-19T12:41:13Z</time><name>PT5322</name></trkpt>
<trkpt lat="53.370607" lon="-1.878784"><ele>548</ele><time>2022-03-19T12:41:13Z</time><name>PT5323</name></trkpt>
<trkpt lat="53.370595" lon="-1.878778"><ele>548</ele><time>2022-03-19T12:41:15Z</time><name>PT5324</name></trkpt>
<trkpt lat="53.370583" lon="-1.878775"><ele>548</ele><time>2022-03-19T12:41:16Z</time><name>PT5325</name></trkpt>
<trkpt lat="53.370572" lon="-1.878774"><ele>548</ele><time>2022-03-19T12:41:16Z</time><name>PT5326</name></trkpt>
<trkpt lat="53.370561" lon="-1.878771"><ele>548</ele><time>2022-03-19T12:41:18Z</time><name>PT5327</name></trkpt>
<trkpt lat="53.370550" lon="-1.878766"><ele>548</ele><time>2022-03-19T12:41:19Z</time><name>PT5328</name></trkpt>
<trkpt lat="53.370540" lon="-1.878759"><ele>547</ele><time>2022-03-19T12:41:19Z</time><name>PT5329</name></trkpt>
<trkpt lat="53.370527" lon="-1.878749"><ele>547</ele><time>2022-03-19T12:41:21Z</time><name>PT5330</name></trkpt>
<trkpt lat="53.370515" lon="-1.878739"><ele>547</ele><time>2022-03-19T12:41:22Z</time><name>PT5331</name></trkpt>
<trkpt lat="53.370501" lon="-1.878729"><ele>547</ele><time>2022-03-19T12:41:22Z</time><name>PT5332</name></trkpt>
<trkpt lat="53.370466" lon="-1.878713"><ele>547</ele><time>2022-03-19T12:41:25Z</time><name>PT5333</name></trkpt>
<trkpt lat="53.370416" lon="-1.878687"><ele>547</ele><time>2022-03-19T12:41:30Z</time><name>PT5334</name></trkpt>
<trkpt lat="53.370372" lon="-1.878671"><ele>548</ele><time>2022-03-19T12:41:34Z</time><name>PT5335</name></trkpt>
<trkpt lat="53.370327" lon="-1.878671"><ele>548</ele><time>2022-03-19T12:41:37Z</time><name>PT5336</name></trkpt>
<trkpt lat="53.370283" lon="-1.878663"><ele>548</ele><time>2022-03-19T12:41:40Z</time><name>PT5337</name></trkpt>
<trkpt lat="53.370244" lon="-1.878648"><ele>548</ele><time>2022-03-19T12:41:43Z</time><name>PT5338</name></trkpt>
<trkpt lat="53.370190" lon="-1.878637"><ele>548</ele><time>2022-03-19T12:41:46Z</time><name>PT5339</name></trkpt>
<trkpt lat="53.370139" lon="-1.878622"><ele>549</ele><time>2022-03-19T12:41:51Z</time><name>PT5340</name></trkpt>
<trkpt lat="53.370107" lon="-1.878609"><ele>549</ele><time>2022-03-19T12:41:54Z</time><name>PT5341</name></trkpt>
<trkpt lat="53.370074" lon="-1.878594"><ele>549</ele><time>2022-03-19T12:41:57Z</time><name>PT5342</name></trkpt>
<trkpt lat="53.370029" lon="-1.878585"><ele>550</ele><time>2022-03-19T12:42:01Z</time><name>PT5343</name></trkpt>
<trkpt lat="53.369992" lon="-1.878576"><ele>550</ele><time>2022-03-19T12:42:04Z</time><name>PT5344</name></trkpt>
<trkpt lat="53.369955" lon="-1.878559"><ele>550</ele><time>2022-03-19T12:42:07Z</time><name>PT5345</name></trkpt>
<trkpt lat="53.369903" lon="-1.878550"><ele>551</ele><time>2022-03-19T12:42:10Z</time><name>PT5346</name></trkpt>
<trkpt lat="53.369858" lon="-1.878533"><ele>550</ele><time>2022-03-19T12:42:15Z</time><name>PT5347</name></trkpt>
<trkpt lat="53.369848" lon="-1.878525"><ele>550</ele><time>2022-03-19T12:42:16Z</time><name>PT5348</name></trkpt>
<trkpt lat="53.369835" lon="-1.878518"><ele>550</ele><time>2022-03-19T12:42:16Z</time><name>PT5349</name></trkpt>
<trkpt lat="53.369824" lon="-1.878514"><ele>550</ele><time>2022-03-19T12:42:18Z</time><name>PT5350</name></trkpt>
<trkpt lat="53.369814" lon="-1.878508"><ele>550</ele><time>2022-03-19T12:42:19Z</time><name>PT5351</name></trkpt>
<trkpt lat="53.369801" lon="-1.878499"><ele>550</ele><time>2022-03-19T12:42:19Z</time><name>PT5352</name></trkpt>
<trkpt lat="53.369791" lon="-1.878491"><ele>550</ele><time>2022-03-19T12:42:21Z</time><name>PT5353</name></trkpt>
<trkpt lat="53.369779" lon="-1.878482"><ele>550</ele><time>2022-03-19T12:42:22Z</time><name>PT5354</name></trkpt>
<trkpt lat="53.369766" lon="-1.878474"><ele>550</ele><time>2022-03-19T12:42:22Z</time><name>PT5355</name></trkpt>
<trkpt lat="53.369756" lon="-1.878466"><ele>550</ele><time>2022-03-19T12:42:24Z</time><name>PT5356</name></trkpt>
<trkpt lat="53.369745" lon="-1.878459"><ele>550</ele><time>2022-03-19T12:42:25Z</time><name>PT5357</name></trkpt>
<trkpt lat="53.369733" lon="-1.878453"><ele>550</ele><time>2022-03-19T12:42:25Z</time><name>PT5358</name></trkpt>
<trkpt lat="53.369722" lon="-1.878444"><ele>550</ele><time>2022-03-19T12:42:27Z</time><name>PT5359</name></trkpt>
<trkpt lat="53.369712" lon="-1.878437"><ele>551</ele><time>2022-03-19T12:42:28Z</time><name>PT5360</name></trkpt>
<trkpt lat="53.369703" lon="-1.878431"><ele>551</ele><time>2022-03-19T12:42:28Z</time><name>PT5361</name></trkpt>
<trkpt lat="53.369694" lon="-1.878424"><ele>551</ele><time>2022-03-19T12:42:30Z</time><name>PT5362</name></trkpt>
<trkpt lat="53.369684" lon="-1.878416"><ele>551</ele><time>2022-03-19T12:42:31Z</time><name>PT5363</name></trkpt>
<trkpt lat="53.369674" lon="-1.878409"><ele>552</ele><time>2022-03-19T12:42:31Z</time><name>PT5364</name></trkpt>
<trkpt lat="53.369664" lon="-1.878402"><ele>552</ele><time>2022-03-19T12:42:33Z</time><name>PT5365</name></trkpt>
<trkpt lat="53.369654" lon="-1.878395"><ele>552</ele><time>2022-03-19T12:42:34Z</time><name>PT5366</name></trkpt>
<trkpt lat="53.369645" lon="-1.878386"><ele>552</ele><time>2022-03-19T12:42:34Z</time><name>PT5367</name></trkpt>
<trkpt lat="53.369637" lon="-1.878374"><ele>552</ele><time>2022-03-19T12:42:36Z</time><name>PT5368</name></trkpt>
<trkpt lat="53.369629" lon="-1.878362"><ele>553</ele><time>2022-03-19T12:42:37Z</time><name>PT5369</name></trkpt>
<trkpt lat="53.369620" lon="-1.878352"><ele>553</ele><time>2022-03-19T12:42:37Z</time><name>PT5370</name></trkpt>
<trkpt lat="53.369610" lon="-1.878343"><ele>553</ele><time>2022-03-19T12:42:39Z</time><name>PT5371</name></trkpt>
<trkpt lat="53.369601" lon="-1.878333"><ele>554</ele><time>2022-03-19T12:42:40Z</time><name>PT5372</name></trkpt>
<trkpt lat="53.369592" lon="-1.878321"><ele>554</ele><time>2022-03-19T12:42:40Z</time><name>PT5373</name></trkpt>
<trkpt lat="53.369583" lon="-1.878314"><ele>554</ele><time>2022-03-19T12:42:42Z</time><name>PT5374</name></trkpt>
<trkpt lat="53.369578" lon="-1.878306"><ele>554</ele><time>2022-03-19T12:42:43Z</time><name>PT5375</name></trkpt>
<trkpt lat="53.369572" lon="-1.878300"><ele>554</ele><time>2022-03-19T12:42:43Z</time><name>PT5376</name></trkpt>
<trkpt lat="53.369568" lon="-1.878294"><ele>554</ele><time>2022-03-19T12:42:45Z</time><name>PT5377</name></trkpt>
<trkpt lat="53.369563" lon="-1.878287"><ele>554</ele><time>2022-03-19T12:42:46Z</time><name>PT5378</name></trkpt>
<trkpt lat="53.369555" lon="-1.878278"><ele>554</ele><time>2022-03-19T12:42:46Z</time><name>PT5379</name></trkpt>
<trkpt lat="53.369548" lon="-1.878271"><ele>554</ele><time>2022-03-19T12:42:48Z</time><name>PT5380</name></trkpt>
<trkpt lat="53.369540" lon="-1.878263"><ele>554</ele><time>2022-03-19T12:42:49Z</time><name>PT5381</name></trkpt>
<trkpt lat="53.369532" lon="-1.878253"><ele>555</ele><time>2022-03-19T12:42:49Z</time><name>PT5382</name></trkpt>
<trkpt lat="53.369523" lon="-1.878244"><ele>555</ele><time>2022-03-19T12:42:51Z</time><name>PT5383</name></trkpt>
<trkpt lat="53.369514" lon="-1.878233"><ele>555</ele><time>2022-03-19T12:42:52Z</time><name>PT5384</name></trkpt>
<trkpt lat="53.369505" lon="-1.878219"><ele>555</ele><time>2022-03-19T12:42:52Z</time><name>PT5385</name></trkpt>
<trkpt lat="53.369496" lon="-1.878210"><ele>555</ele><time>2022-03-19T12:42:54Z</time><name>PT5386</name></trkpt>
<trkpt lat="53.369489" lon="-1.878201"><ele>556</ele><time>2022-03-19T12:42:55Z</time><name>PT5387</name></trkpt>
<trkpt lat="53.369481" lon="-1.878190"><ele>555</ele><time>2022-03-19T12:42:55Z</time><name>PT5388</name></trkpt>
<trkpt lat="53.369473" lon="-1.878179"><ele>556</ele><time>2022-03-19T12:42:57Z</time><name>PT5389</name></trkpt>
<trkpt lat="53.369464" lon="-1.878168"><ele>556</ele><time>2022-03-19T12:42:58Z</time><name>PT5390</name></trkpt>
<trkpt lat="53.369457" lon="-1.878162"><ele>556</ele><time>2022-03-19T12:42:58Z</time><name>PT5391</name></trkpt>
<trkpt lat="53.369449" lon="-1.878157"><ele>556</ele><time>2022-03-19T12:43:00Z</time><name>PT5392</name></trkpt>
<trkpt lat="53.369441" lon="-1.878152"><ele>556</ele><time>2022-03-19T12:43:01Z</time><name>PT5393</name></trkpt>
<trkpt lat="53.369430" lon="-1.878145"><ele>556</ele><time>2022-03-19T12:43:01Z</time><name>PT5394</name></trkpt>
<trkpt lat="53.369419" lon="-1.878140"><ele>557</ele><time>2022-03-19T12:43:03Z</time><name>PT5395</name></trkpt>
<trkpt lat="53.369410" lon="-1.878138"><ele>557</ele><time>2022-03-19T12:43:04Z</time><name>PT5396</name></trkpt>
<trkpt lat="53.369399" lon="-1.878140"><ele>557</ele><time>2022-03-19T12:43:04Z</time><name>PT5397</name></trkpt>
<trkpt lat="53.369388" lon="-1.878143"><ele>557</ele><time>2022-03-19T12:43:06Z</time><name>PT5398</name></trkpt>
<trkpt lat="53.369378" lon="-1.878143"><ele>557</ele><time>2022-03-19T12:43:07Z</time><name>PT5399</name></trkpt>
<trkpt lat="53.369369" lon="-1.878144"><ele>557</ele><time>2022-03-19T12:43:07Z</time><name>PT5400</name></trkpt>
<trkpt lat="53.369358" lon="-1.878146"><ele>557</ele><time>2022-03-19T12:43:09Z</time><name>PT5401</name></trkpt>
<trkpt lat="53.369349" lon="-1.878151"><ele>557</ele><time>2022-03-19T12:43:10Z</time><name>PT5402</name></trkpt>
<trkpt lat="53.369337" lon="-1.878154"><ele>557</ele><time>2022-03-19T12:43:10Z</time><name>PT5403</name></trkpt>
<trkpt lat="53.369323" lon="-1.878156"><ele>556</ele><time>2022-03-19T12:43:12Z</time><name>PT5404</name></trkpt>
<trkpt lat="53.369312" lon="-1.878160"><ele>556</ele><time>2022-03-19T12:43:13Z</time><name>PT5405</name></trkpt>
<trkpt lat="53.369299" lon="-1.878163"><ele>556</ele><time>2022-03-19T12:43:13Z</time><name>PT5406</name></trkpt>
<trkpt lat="53.369284" lon="-1.878169"><ele>556</ele><time>2022-03-19T12:43:15Z</time><name>PT5407</name></trkpt>
<trkpt lat="53.369272" lon="-1.878176"><ele>556</ele><time>2022-03-19T12:43:16Z</time><name>PT5408</name></trkpt>
<trkpt lat="53.369260" lon="-1.878184"><ele>556</ele><time>2022-03-19T12:43:16Z</time><name>PT5409</name></trkpt>
<trkpt lat="53.369248" lon="-1.878193"><ele>556</ele><time>2022-03-19T12:43:18Z</time><name>PT5410</name></trkpt>
<trkpt lat="53.369238" lon="-1.878202"><ele>556</ele><time>2022-03-19T12:43:19Z</time><name>PT5411</name></trkpt>
<trkpt lat="53.369228" lon="-1.878209"><ele>556</ele><time>2022-03-19T12:43:19Z</time><name>PT5412</name></trkpt>
<trkpt lat="53.369216" lon="-1.878213"><ele>556</ele><time>2022-03-19T12:43:21Z</time><name>PT5413</name></trkpt>
<trkpt lat="53.369203" lon="-1.878214"><ele>556</ele><time>2022-03-19T12:43:22Z</time><name>PT5414</name></trkpt>
<trkpt lat="53.369192" lon="-1.878209"><ele>556</ele><time>2022-03-19T12:43:22Z</time><name>PT5415</name></trkpt>
<trkpt lat="53.369181" lon="-1.878209"><ele>556</ele><time>2022-03-19T12:43:24Z</time><name>PT5416</name></trkpt>
<trkpt lat="53.369172" lon="-1.878206"><ele>556</ele><time>2022-03-19T12:43:25Z</time><name>PT5417</name></trkpt>
<trkpt lat="53.369161" lon="-1.878201"><ele>555</ele><time>2022-03-19T12:43:25Z</time><name>PT5418</name></trkpt>
<trkpt lat="53.369150" lon="-1.878198"><ele>555</ele><time>2022-03-19T12:43:27Z</time><name>PT5419</name></trkpt>
<trkpt lat="53.369140" lon="-1.878198"><ele>555</ele><time>2022-03-19T12:43:28Z</time><name>PT5420</name></trkpt>
<trkpt lat="53.369129" lon="-1.878197"><ele>555</ele><time>2022-03-19T12:43:28Z</time><name>PT5421</name></trkpt>
<trkpt lat="53.369116" lon="-1.878197"><ele>555</ele><time>2022-03-19T12:43:30Z</time><name>PT5422</name></trkpt>
<trkpt lat="53.369105" lon="-1.878196"><ele>555</ele><time>2022-03-19T12:43:31Z</time><name>PT5423</name></trkpt>
<trkpt lat="53.369091" lon="-1.878198"><ele>556</ele><time>2022-03-19T12:43:31Z</time><name>PT5424</name></trkpt>
<trkpt lat="53.369081" lon="-1.878200"><ele>556</ele><time>2022-03-19T12:43:33Z</time><name>PT5425</name></trkpt>
<trkpt lat="53.369072" lon="-1.878198"><ele>556</ele><time>2022-03-19T12:43:34Z</time><name>PT5426</name></trkpt>
<trkpt lat="53.369062" lon="-1.878193"><ele>557</ele><time>2022-03-19T12:43:34Z</time><name>PT5427</name></trkpt>
<trkpt lat="53.369051" lon="-1.878190"><ele>557</ele><time>2022-03-19T12:43:36Z</time><name>PT5428</name></trkpt>
<trkpt lat="53.369040" lon="-1.878189"><ele>556</ele><time>2022-03-19T12:43:37Z</time><name>PT5429</name></trkpt>
<trkpt lat="53.369030" lon="-1.878191"><ele>556</ele><time>2022-03-19T12:43:37Z</time><name>PT5430</name></trkpt>
<trkpt lat="53.369021" lon="-1.878190"><ele>556</ele><time>2022-03-19T12:43:39Z</time><name>PT5431</name></trkpt>
<trkpt lat="53.369009" lon="-1.878186"><ele>556</ele><time>2022-03-19T12:43:40Z</time><name>PT5432</name></trkpt>
<trkpt lat="53.368997" lon="-1.878181"><ele>556</ele><time>2022-03-19T12:43:40Z</time><name>PT5433</name></trkpt>
<trkpt lat="53.368989" lon="-1.878176"><ele>557</ele><time>2022-03-19T12:43:42Z</time><name>PT5434</name></trkpt>
<trkpt lat="53.368976" lon="-1.878172"><ele>557</ele><time>2022-03-19T12:43:43Z</time><name>PT5435</name></trkpt>
<trkpt lat="53.368965" lon="-1.878170"><ele>557</ele><time>2022-03-19T12:43:43Z</time><name>PT5436</name></trkpt>
<trkpt lat="53.368953" lon="-1.878167"><ele>557</ele><time>2022-03-19T12:43:45Z</time><name>PT5437</name></trkpt>
<trkpt lat="53.368944" lon="-1.878163"><ele>557</ele><time>2022-03-19T12:43:46Z</time><name>PT5438</name></trkpt>
<trkpt lat="53.368932" lon="-1.878161"><ele>557</ele><time>2022-03-19T12:43:46Z</time><name>PT5439</name></trkpt>
<trkpt lat="53.368923" lon="-1.878165"><ele>557</ele><time>2022-03-19T12:43:48Z</time><name>PT5440</name></trkpt>
<trkpt lat="53.368911" lon="-1.878170"><ele>557</ele><time>2022-03-19T12:43:49Z</time><name>PT5441</name></trkpt>
<trkpt lat="53.368901" lon="-1.878178"><ele>557</ele><time>2022-03-19T12:43:49Z</time><name>PT5442</name></trkpt>
<trkpt lat="53.368889" lon="-1.878184"><ele>557</ele><time>2022-03-19T12:43:51Z</time><name>PT5443</name></trkpt>
<trkpt lat="53.368879" lon="-1.878192"><ele>557</ele><time>2022-03-19T12:43:52Z</time><name>PT5444</name></trkpt>
<trkpt lat="53.368867" lon="-1.878202"><ele>557</ele><time>2022-03-19T12:43:52Z</time><name>PT5445</name></trkpt>
<trkpt lat="53.368856" lon="-1.878214"><ele>557</ele><time>2022-03-19T12:43:54Z</time><name>PT5446</name></trkpt>
<trkpt lat="53.368844" lon="-1.878225"><ele>557</ele><time>2022-03-19T12:43:55Z</time><name>PT5447</name></trkpt>
<trkpt lat="53.368837" lon="-1.878235"><ele>557</ele><time>2022-03-19T12:43:55Z</time><name>PT5448</name></trkpt>
<trkpt lat="53.368826" lon="-1.878243"><ele>557</ele><time>2022-03-19T12:43:57Z</time><name>PT5449</name></trkpt>
<trkpt lat="53.368813" lon="-1.878254"><ele>557</ele><time>2022-03-19T12:43:58Z</time><name>PT5450</name></trkpt>
<trkpt lat="53.368801" lon="-1.878262"><ele>557</ele><time>2022-03-19T12:43:58Z</time><name>PT5451</name></trkpt>
<trkpt lat="53.368788" lon="-1.878264"><ele>557</ele><time>2022-03-19T12:44:00Z</time><name>PT5452</name></trkpt>
<trkpt lat="53.368776" lon="-1.878263"><ele>557</ele><time>2022-03-19T12:44:01Z</time><name>PT5453</name></trkpt>
<trkpt lat="53.368766" lon="-1.878260"><ele>557</ele><time>2022-03-19T12:44:01Z</time><name>PT5454</name></trkpt>
<trkpt lat="53.368758" lon="-1.878255"><ele>557</ele><time>2022-03-19T12:44:03Z</time><name>PT5455</name></trkpt>
<trkpt lat="53.368750" lon="-1.878247"><ele>557</ele><time>2022-03-19T12:44:04Z</time><name>PT5456</name></trkpt>
<trkpt lat="53.368743" lon="-1.878238"><ele>557</ele><time>2022-03-19T12:44:04Z</time><name>PT5457</name></trkpt>
<trkpt lat="53.368738" lon="-1.878231"><ele>557</ele><time>2022-03-19T12:44:06Z</time><name>PT5458</name></trkpt>
<trkpt lat="53.368734" lon="-1.878220"><ele>557</ele><time>2022-03-19T12:44:07Z</time><name>PT5459</name></trkpt>
<trkpt lat="53.368728" lon="-1.878209"><ele>557</ele><time>2022-03-19T12:44:07Z</time><name>PT5460</name></trkpt>
<trkpt lat="53.368722" lon="-1.878196"><ele>557</ele><time>2022-03-19T12:44:09Z</time><name>PT5461</name></trkpt>
<trkpt lat="53.368713" lon="-1.878182"><ele>556</ele><time>2022-03-19T12:44:10Z</time><name>PT5462</name></trkpt>
<trkpt lat="53.368705" lon="-1.878164"><ele>556</ele><time>2022-03-19T12:44:10Z</time><name>PT5463</name></trkpt>
<trkpt lat="53.368693" lon="-1.878145"><ele>557</ele><time>2022-03-19T12:44:12Z</time><name>PT5464</name></trkpt>
<trkpt lat="53.368685" lon="-1.878136"><ele>557</ele><time>2022-03-19T12:44:13Z</time><name>PT5465</name></trkpt>
<trkpt lat="53.368677" lon="-1.878129"><ele>557</ele><time>2022-03-19T12:44:13Z</time><name>PT5466</name></trkpt>
<trkpt lat="53.368665" lon="-1.878123"><ele>558</ele><time>2022-03-19T12:44:15Z</time><name>PT5467</name></trkpt>
<trkpt lat="53.368656" lon="-1.878117"><ele>558</ele><time>2022-03-19T12:44:16Z</time><name>PT5468</name></trkpt>
<trkpt lat="53.368646" lon="-1.878113"><ele>558</ele><time>2022-03-19T12:44:16Z</time><name>PT5469</name></trkpt>
<trkpt lat="53.368636" lon="-1.878112"><ele>558</ele><time>2022-03-19T12:44:18Z</time><name>PT5470</name></trkpt>
<trkpt lat="53.368624" lon="-1.878112"><ele>558</ele><time>2022-03-19T12:44:19Z</time><name>PT5471</name></trkpt>
<trkpt lat="53.368615" lon="-1.878114"><ele>558</ele><time>2022-03-19T12:44:19Z</time><name>PT5472</name></trkpt>
<trkpt lat="53.368604" lon="-1.878116"><ele>558</ele><time>2022-03-19T12:44:21Z</time><name>PT5473</name></trkpt>
<trkpt lat="53.368593" lon="-1.878116"><ele>558</ele><time>2022-03-19T12:44:22Z</time><name>PT5474</name></trkpt>
<trkpt lat="53.368582" lon="-1.878110"><ele>558</ele><time>2022-03-19T12:44:23Z</time><name>PT5475</name></trkpt>
<trkpt lat="53.368575" lon="-1.878103"><ele>558</ele><time>2022-03-19T12:44:24Z</time><name>PT5476</name></trkpt>
<trkpt lat="53.368570" lon="-1.878095"><ele>558</ele><time>2022-03-19T12:44:25Z</time><name>PT5477</name></trkpt>
<trkpt lat="53.368564" lon="-1.878083"><ele>558</ele><time>2022-03-19T12:44:25Z</time><name>PT5478</name></trkpt>
<trkpt lat="53.368557" lon="-1.878067"><ele>558</ele><time>2022-03-19T12:44:27Z</time><name>PT5479</name></trkpt>
<trkpt lat="53.368555" lon="-1.878050"><ele>559</ele><time>2022-03-19T12:44:28Z</time><name>PT5480</name></trkpt>
<trkpt lat="53.368552" lon="-1.878040"><ele>559</ele><time>2022-03-19T12:44:28Z</time><name>PT5481</name></trkpt>
<trkpt lat="53.368549" lon="-1.878031"><ele>558</ele><time>2022-03-19T12:44:30Z</time><name>PT5482</name></trkpt>
<trkpt lat="53.368545" lon="-1.878021"><ele>558</ele><time>2022-03-19T12:44:31Z</time><name>PT5483</name></trkpt>
<trkpt lat="53.368540" lon="-1.878010"><ele>558</ele><time>2022-03-19T12:44:31Z</time><name>PT5484</name></trkpt>
<trkpt lat="53.368534" lon="-1.878003"><ele>558</ele><time>2022-03-19T12:44:33Z</time><name>PT5485</name></trkpt>
<trkpt lat="53.368527" lon="-1.877993"><ele>558</ele><time>2022-03-19T12:44:34Z</time><name>PT5486</name></trkpt>
<trkpt lat="53.368521" lon="-1.877976"><ele>558</ele><time>2022-03-19T12:44:34Z</time><name>PT5487</name></trkpt>
<trkpt lat="53.368513" lon="-1.877959"><ele>558</ele><time>2022-03-19T12:44:36Z</time><name>PT5488</name></trkpt>
<trkpt lat="53.368504" lon="-1.877948"><ele>558</ele><time>2022-03-19T12:44:37Z</time><name>PT5489</name></trkpt>
<trkpt lat="53.368496" lon="-1.877935"><ele>558</ele><time>2022-03-19T12:44:37Z</time><name>PT5490</name></trkpt>
<trkpt lat="53.368487" lon="-1.877922"><ele>558</ele><time>2022-03-19T12:44:39Z</time><name>PT5491</name></trkpt>
<trkpt lat="53.368477" lon="-1.877912"><ele>558</ele><time>2022-03-19T12:44:40Z</time><name>PT5492</name></trkpt>
<trkpt lat="53.368467" lon="-1.877902"><ele>558</ele><time>2022-03-19T12:44:40Z</time><name>PT5493</name></trkpt>
<trkpt lat="53.368457" lon="-1.877894"><ele>558</ele><time>2022-03-19T12:44:42Z</time><name>PT5494</name></trkpt>
<trkpt lat="53.368448" lon="-1.877883"><ele>558</ele><time>2022-03-19T12:44:43Z</time><name>PT5495</name></trkpt>
<trkpt lat="53.368435" lon="-1.877875"><ele>561</ele><time>2022-03-19T12:44:43Z</time><name>PT5496</name></trkpt>
<trkpt lat="53.368426" lon="-1.877864"><ele>562</ele><time>2022-03-19T12:44:45Z</time><name>PT5497</name></trkpt>
<trkpt lat="53.368418" lon="-1.877855"><ele>562</ele><time>2022-03-19T12:44:46Z</time><name>PT5498</name></trkpt>
<trkpt lat="53.368407" lon="-1.877847"><ele>562</ele><time>2022-03-19T12:44:46Z</time><name>PT5499</name></trkpt>
<trkpt lat="53.368396" lon="-1.877834"><ele>563</ele><time>2022-03-19T12:44:48Z</time><name>PT5500</name></trkpt>
<trkpt lat="53.368385" lon="-1.877822"><ele>563</ele><time>2022-03-19T12:44:49Z</time><name>PT5501</name></trkpt>
<trkpt lat="53.368376" lon="-1.877813"><ele>563</ele><time>2022-03-19T12:44:49Z</time><name>PT5502</name></trkpt>
<trkpt lat="53.368362" lon="-1.877805"><ele>563</ele><time>2022-03-19T12:44:51Z</time><name>PT5503</name></trkpt>
<trkpt lat="53.368347" lon="-1.877796"><ele>563</ele><time>2022-03-19T12:44:52Z</time><name>PT5504</name></trkpt>
<trkpt lat="53.368336" lon="-1.877796"><ele>562</ele><time>2022-03-19T12:44:52Z</time><name>PT5505</name></trkpt>
<trkpt lat="53.368327" lon="-1.877796"><ele>562</ele><time>2022-03-19T12:44:54Z</time><name>PT5506</name></trkpt>
<trkpt lat="53.368317" lon="-1.877796"><ele>562</ele><time>2022-03-19T12:44:55Z</time><name>PT5507</name></trkpt>
<trkpt lat="53.368306" lon="-1.877798"><ele>562</ele><time>2022-03-19T12:44:55Z</time><name>PT5508</name></trkpt>
<trkpt lat="53.368296" lon="-1.877802"><ele>562</ele><time>2022-03-19T12:44:57Z</time><name>PT5509</name></trkpt>
<trkpt lat="53.368284" lon="-1.877807"><ele>562</ele><time>2022-03-19T12:44:58Z</time><name>PT5510</name></trkpt>
<trkpt lat="53.368274" lon="-1.877812"><ele>561</ele><time>2022-03-19T12:44:58Z</time><name>PT5511</name></trkpt>
<trkpt lat="53.368265" lon="-1.877816"><ele>561</ele><time>2022-03-19T12:45:00Z</time><name>PT5512</name></trkpt>
<trkpt lat="53.368254" lon="-1.877820"><ele>561</ele><time>2022-03-19T12:45:01Z</time><name>PT5513</name></trkpt>
<trkpt lat="53.368241" lon="-1.877823"><ele>561</ele><time>2022-03-19T12:45:01Z</time><name>PT5514</name></trkpt>
<trkpt lat="53.368229" lon="-1.877829"><ele>561</ele><time>2022-03-19T12:45:03Z</time><name>PT5515</name></trkpt>
<trkpt lat="53.368215" lon="-1.877834"><ele>560</ele><time>2022-03-19T12:45:04Z</time><name>PT5516</name></trkpt>
<trkpt lat="53.368201" lon="-1.877839"><ele>560</ele><time>2022-03-19T12:45:04Z</time><name>PT5517</name></trkpt>
<trkpt lat="53.368187" lon="-1.877838"><ele>560</ele><time>2022-03-19T12:45:06Z</time><name>PT5518</name></trkpt>
<trkpt lat="53.368175" lon="-1.877836"><ele>560</ele><time>2022-03-19T12:45:07Z</time><name>PT5519</name></trkpt>
<trkpt lat="53.368161" lon="-1.877843"><ele>559</ele><time>2022-03-19T12:45:07Z</time><name>PT5520</name></trkpt>
<trkpt lat="53.368148" lon="-1.877847"><ele>560</ele><time>2022-03-19T12:45:09Z</time><name>PT5521</name></trkpt>
<trkpt lat="53.368137" lon="-1.877849"><ele>560</ele><time>2022-03-19T12:45:10Z</time><name>PT5522</name></trkpt>
<trkpt lat="53.368126" lon="-1.877850"><ele>560</ele><time>2022-03-19T12:45:10Z</time><name>PT5523</name></trkpt>
<trkpt lat="53.368113" lon="-1.877847"><ele>559</ele><time>2022-03-19T12:45:12Z</time><name>PT5524</name></trkpt>
<trkpt lat="53.368101" lon="-1.877842"><ele>560</ele><time>2022-03-19T12:45:13Z</time><name>PT5525</name></trkpt>
<trkpt lat="53.368092" lon="-1.877839"><ele>560</ele><time>2022-03-19T12:45:13Z</time><name>PT5526</name></trkpt>
<trkpt lat="53.368082" lon="-1.877837"><ele>560</ele><time>2022-03-19T12:45:15Z</time><name>PT5527</name></trkpt>
<trkpt lat="53.368069" lon="-1.877835"><ele>559</ele><time>2022-03-19T12:45:16Z</time><name>PT5528</name></trkpt>
<trkpt lat="53.368056" lon="-1.877837"><ele>559</ele><time>2022-03-19T12:45:17Z</time><name>PT5529</name></trkpt>
<trkpt lat="53.368044" lon="-1.877838"><ele>559</ele><time>2022-03-19T12:45:18Z</time><name>PT5530</name></trkpt>
<trkpt lat="53.368034" lon="-1.877839"><ele>559</ele><time>2022-03-19T12:45:19Z</time><name>PT5531</name></trkpt>
<trkpt lat="53.368023" lon="-1.877840"><ele>559</ele><time>2022-03-19T12:45:19Z</time><name>PT5532</name></trkpt>
<trkpt lat="53.368010" lon="-1.877839"><ele>560</ele><time>2022-03-19T12:45:21Z</time><name>PT5533</name></trkpt>
<trkpt lat="53.367997" lon="-1.877838"><ele>560</ele><time>2022-03-19T12:45:22Z</time><name>PT5534</name></trkpt>
<trkpt lat="53.367985" lon="-1.877838"><ele>559</ele><time>2022-03-19T12:45:22Z</time><name>PT5535</name></trkpt>
<trkpt lat="53.367974" lon="-1.877838"><ele>559</ele><time>2022-03-19T12:45:24Z</time><name>PT5536</name></trkpt>
<trkpt lat="53.367963" lon="-1.877839"><ele>559</ele><time>2022-03-19T12:45:25Z</time><name>PT5537</name></trkpt>
<trkpt lat="53.367953" lon="-1.877841"><ele>559</ele><time>2022-03-19T12:45:25Z</time><name>PT5538</name></trkpt>
<trkpt lat="53.367941" lon="-1.877842"><ele>560</ele><time>2022-03-19T12:45:27Z</time><name>PT5539</name></trkpt>
<trkpt lat="53.367929" lon="-1.877843"><ele>560</ele><time>2022-03-19T12:45:28Z</time><name>PT5540</name></trkpt>
<trkpt lat="53.367919" lon="-1.877844"><ele>560</ele><time>2022-03-19T12:45:28Z</time><name>PT5541</name></trkpt>
<trkpt lat="53.367909" lon="-1.877841"><ele>561</ele><time>2022-03-19T12:45:30Z</time><name>PT5542</name></trkpt>
<trkpt lat="53.367899" lon="-1.877838"><ele>561</ele><time>2022-03-19T12:45:31Z</time><name>PT5543</name></trkpt>
<trkpt lat="53.367889" lon="-1.877837"><ele>561</ele><time>2022-03-19T12:45:31Z</time><name>PT5544</name></trkpt>
<trkpt lat="53.367878" lon="-1.877837"><ele>561</ele><time>2022-03-19T12:45:33Z</time><name>PT5545</name></trkpt>
<trkpt lat="53.367865" lon="-1.877835"><ele>561</ele><time>2022-03-19T12:45:34Z</time><name>PT5546</name></trkpt>
<trkpt lat="53.367853" lon="-1.877832"><ele>561</ele><time>2022-03-19T12:45:34Z</time><name>PT5547</name></trkpt>
<trkpt lat="53.367840" lon="-1.877826"><ele>561</ele><time>2022-03-19T12:45:36Z</time><name>PT5548</name></trkpt>
<trkpt lat="53.367830" lon="-1.877821"><ele>561</ele><time>2022-03-19T12:45:37Z</time><name>PT5549</name></trkpt>
<trkpt lat="53.367819" lon="-1.877819"><ele>561</ele><time>2022-03-19T12:45:37Z</time><name>PT5550</name></trkpt>
<trkpt lat="53.367806" lon="-1.877817"><ele>561</ele><time>2022-03-19T12:45:39Z</time><name>PT5551</name></trkpt>
<trkpt lat="53.367792" lon="-1.877813"><ele>561</ele><time>2022-03-19T12:45:40Z</time><name>PT5552</name></trkpt>
<trkpt lat="53.367780" lon="-1.877811"><ele>561</ele><time>2022-03-19T12:45:40Z</time><name>PT5553</name></trkpt>
<trkpt lat="53.367769" lon="-1.877812"><ele>561</ele><time>2022-03-19T12:45:42Z</time><name>PT5554</name></trkpt>
<trkpt lat="53.367757" lon="-1.877812"><ele>561</ele><time>2022-03-19T12:45:43Z</time><name>PT5555</name></trkpt>
<trkpt lat="53.367750" lon="-1.877813"><ele>561</ele><time>2022-03-19T12:45:43Z</time><name>PT5556</name></trkpt>
<trkpt lat="53.367742" lon="-1.877823"><ele>561</ele><time>2022-03-19T12:45:45Z</time><name>PT5557</name></trkpt>
<trkpt lat="53.367730" lon="-1.877829"><ele>562</ele><time>2022-03-19T12:45:46Z</time><name>PT5558</name></trkpt>
<trkpt lat="53.367718" lon="-1.877833"><ele>562</ele><time>2022-03-19T12:45:46Z</time><name>PT5559</name></trkpt>
<trkpt lat="53.367705" lon="-1.877840"><ele>562</ele><time>2022-03-19T12:45:48Z</time><name>PT5560</name></trkpt>
<trkpt lat="53.367692" lon="-1.877849"><ele>561</ele><time>2022-03-19T12:45:49Z</time><name>PT5561</name></trkpt>
<trkpt lat="53.367677" lon="-1.877855"><ele>561</ele><time>2022-03-19T12:45:49Z</time><name>PT5562</name></trkpt>
<trkpt lat="53.367665" lon="-1.877860"><ele>561</ele><time>2022-03-19T12:45:51Z</time><name>PT5563</name></trkpt>
<trkpt lat="53.367653" lon="-1.877868"><ele>561</ele><time>2022-03-19T12:45:52Z</time><name>PT5564</name></trkpt>
<trkpt lat="53.367642" lon="-1.877875"><ele>561</ele><time>2022-03-19T12:45:52Z</time><name>PT5565</name></trkpt>
<trkpt lat="53.367628" lon="-1.877880"><ele>561</ele><time>2022-03-19T12:45:54Z</time><name>PT5566</name></trkpt>
<trkpt lat="53.367615" lon="-1.877881"><ele>561</ele><time>2022-03-19T12:45:55Z</time><name>PT5567</name></trkpt>
<trkpt lat="53.367602" lon="-1.877882"><ele>561</ele><time>2022-03-19T12:45:55Z</time><name>PT5568</name></trkpt>
<trkpt lat="53.367589" lon="-1.877882"><ele>561</ele><time>2022-03-19T12:45:57Z</time><name>PT5569</name></trkpt>
<trkpt lat="53.367574" lon="-1.877882"><ele>561</ele><time>2022-03-19T12:45:58Z</time><name>PT5570</name></trkpt>
<trkpt lat="53.367561" lon="-1.877883"><ele>561</ele><time>2022-03-19T12:45:58Z</time><name>PT5571</name></trkpt>
<trkpt lat="53.367549" lon="-1.877886"><ele>561</ele><time>2022-03-19T12:46:00Z</time><name>PT5572</name></trkpt>
<trkpt lat="53.367536" lon="-1.877889"><ele>561</ele><time>2022-03-19T12:46:01Z</time><name>PT5573</name></trkpt>
<trkpt lat="53.367524" lon="-1.877887"><ele>561</ele><time>2022-03-19T12:46:01Z</time><name>PT5574</name></trkpt>
<trkpt lat="53.367513" lon="-1.877885"><ele>561</ele><time>2022-03-19T12:46:03Z</time><name>PT5575</name></trkpt>
<trkpt lat="53.367500" lon="-1.877883"><ele>562</ele><time>2022-03-19T12:46:04Z</time><name>PT5576</name></trkpt>
<trkpt lat="53.367489" lon="-1.877882"><ele>562</ele><time>2022-03-19T12:46:04Z</time><name>PT5577</name></trkpt>
<trkpt lat="53.367480" lon="-1.877880"><ele>562</ele><time>2022-03-19T12:46:06Z</time><name>PT5578</name></trkpt>
<trkpt lat="53.367469" lon="-1.877876"><ele>562</ele><time>2022-03-19T12:46:07Z</time><name>PT5579</name></trkpt>
<trkpt lat="53.367456" lon="-1.877874"><ele>563</ele><time>2022-03-19T12:46:07Z</time><name>PT5580</name></trkpt>
<trkpt lat="53.367445" lon="-1.877873"><ele>563</ele><time>2022-03-19T12:46:09Z</time><name>PT5581</name></trkpt>
<trkpt lat="53.367433" lon="-1.877869"><ele>563</ele><time>2022-03-19T12:46:10Z</time><name>PT5582</name></trkpt>
<trkpt lat="53.367421" lon="-1.877867"><ele>563</ele><time>2022-03-19T12:46:10Z</time><name>PT5583</name></trkpt>
<trkpt lat="53.367410" lon="-1.877867"><ele>563</ele><time>2022-03-19T12:46:12Z</time><name>PT5584</name></trkpt>
<trkpt lat="53.367399" lon="-1.877866"><ele>564</ele><time>2022-03-19T12:46:13Z</time><name>PT5585</name></trkpt>
<trkpt lat="53.367384" lon="-1.877865"><ele>564</ele><time>2022-03-19T12:46:13Z</time><name>PT5586</name></trkpt>
<trkpt lat="53.367371" lon="-1.877862"><ele>564</ele><time>2022-03-19T12:46:15Z</time><name>PT5587</name></trkpt>
<trkpt lat="53.367359" lon="-1.877861"><ele>564</ele><time>2022-03-19T12:46:16Z</time><name>PT5588</name></trkpt>
<trkpt lat="53.367348" lon="-1.877863"><ele>564</ele><time>2022-03-19T12:46:16Z</time><name>PT5589</name></trkpt>
<trkpt lat="53.367336" lon="-1.877863"><ele>564</ele><time>2022-03-19T12:46:18Z</time><name>PT5590</name></trkpt>
<trkpt lat="53.367327" lon="-1.877860"><ele>564</ele><time>2022-03-19T12:46:19Z</time><name>PT5591</name></trkpt>
<trkpt lat="53.367318" lon="-1.877857"><ele>564</ele><time>2022-03-19T12:46:19Z</time><name>PT5592</name></trkpt>
<trkpt lat="53.367305" lon="-1.877854"><ele>564</ele><time>2022-03-19T12:46:21Z</time><name>PT5593</name></trkpt>
<trkpt lat="53.367294" lon="-1.877855"><ele>564</ele><time>2022-03-19T12:46:22Z</time><name>PT5594</name></trkpt>
<trkpt lat="53.367283" lon="-1.877855"><ele>564</ele><time>2022-03-19T12:46:22Z</time><name>PT5595</name></trkpt>
<trkpt lat="53.367270" lon="-1.877853"><ele>565</ele><time>2022-03-19T12:46:24Z</time><name>PT5596</name></trkpt>
<trkpt lat="53.367258" lon="-1.877848"><ele>565</ele><time>2022-03-19T12:46:25Z</time><name>PT5597</name></trkpt>
<trkpt lat="53.367247" lon="-1.877844"><ele>565</ele><time>2022-03-19T12:46:25Z</time><name>PT5598</name></trkpt>
<trkpt lat="53.367233" lon="-1.877842"><ele>565</ele><time>2022-03-19T12:46:27Z</time><name>PT5599</name></trkpt>
<trkpt lat="53.367220" lon="-1.877840"><ele>566</ele><time>2022-03-19T12:46:28Z</time><name>PT5600</name></trkpt>
<trkpt lat="53.367212" lon="-1.877836"><ele>565</ele><time>2022-03-19T12:46:28Z</time><name>PT5601</name></trkpt>
<trkpt lat="53.367203" lon="-1.877831"><ele>566</ele><time>2022-03-19T12:46:30Z</time><name>PT5602</name></trkpt>
<trkpt lat="53.367193" lon="-1.877826"><ele>566</ele><time>2022-03-19T12:46:31Z</time><name>PT5603</name></trkpt>
<trkpt lat="53.367179" lon="-1.877820"><ele>565</ele><time>2022-03-19T12:46:31Z</time><name>PT5604</name></trkpt>
<trkpt lat="53.367170" lon="-1.877816"><ele>565</ele><time>2022-03-19T12:46:33Z</time><name>PT5605</name></trkpt>
<trkpt lat="53.367162" lon="-1.877812"><ele>565</ele><time>2022-03-19T12:46:34Z</time><name>PT5606</name></trkpt>
<trkpt lat="53.367150" lon="-1.877806"><ele>565</ele><time>2022-03-19T12:46:34Z</time><name>PT5607</name></trkpt>
<trkpt lat="53.367140" lon="-1.877799"><ele>565</ele><time>2022-03-19T12:46:36Z</time><name>PT5608</name></trkpt>
<trkpt lat="53.367132" lon="-1.877794"><ele>565</ele><time>2022-03-19T12:46:37Z</time><name>PT5609</name></trkpt>
<trkpt lat="53.367121" lon="-1.877791"><ele>565</ele><time>2022-03-19T12:46:37Z</time><name>PT5610</name></trkpt>
<trkpt lat="53.367111" lon="-1.877791"><ele>565</ele><time>2022-03-19T12:46:39Z</time><name>PT5611</name></trkpt>
<trkpt lat="53.367100" lon="-1.877793"><ele>565</ele><time>2022-03-19T12:46:40Z</time><name>PT5612</name></trkpt>
<trkpt lat="53.367089" lon="-1.877794"><ele>565</ele><time>2022-03-19T12:46:40Z</time><name>PT5613</name></trkpt>
<trkpt lat="53.367078" lon="-1.877795"><ele>565</ele><time>2022-03-19T12:46:42Z</time><name>PT5614</name></trkpt>
<trkpt lat="53.367067" lon="-1.877796"><ele>565</ele><time>2022-03-19T12:46:43Z</time><name>PT5615</name></trkpt>
<trkpt lat="53.367055" lon="-1.877797"><ele>565</ele><time>2022-03-19T12:46:43Z</time><name>PT5616</name></trkpt>
<trkpt lat="53.367042" lon="-1.877797"><ele>565</ele><time>2022-03-19T12:46:45Z</time><name>PT5617</name></trkpt>
<trkpt lat="53.367028" lon="-1.877794"><ele>565</ele><time>2022-03-19T12:46:46Z</time><name>PT5618</name></trkpt>
<trkpt lat="53.367014" lon="-1.877791"><ele>564</ele><time>2022-03-19T12:46:46Z</time><name>PT5619</name></trkpt>
<trkpt lat="53.367003" lon="-1.877789"><ele>564</ele><time>2022-03-19T12:46:48Z</time><name>PT5620</name></trkpt>
<trkpt lat="53.366990" lon="-1.877789"><ele>565</ele><time>2022-03-19T12:46:49Z</time><name>PT5621</name></trkpt>
<trkpt lat="53.366977" lon="-1.877789"><ele>565</ele><time>2022-03-19T12:46:49Z</time><name>PT5622</name></trkpt>
<trkpt lat="53.366962" lon="-1.877788"><ele>565</ele><time>2022-03-19T12:46:51Z</time><name>PT5623</name></trkpt>
<trkpt lat="53.366949" lon="-1.877787"><ele>565</ele><time>2022-03-19T12:46:52Z</time><name>PT5624</name></trkpt>
<trkpt lat="53.366936" lon="-1.877784"><ele>565</ele><time>2022-03-19T12:46:52Z</time><name>PT5625</name></trkpt>
<trkpt lat="53.366924" lon="-1.877778"><ele>565</ele><time>2022-03-19T12:46:54Z</time><name>PT5626</name></trkpt>
<trkpt lat="53.366912" lon="-1.877772"><ele>565</ele><time>2022-03-19T12:46:55Z</time><name>PT5627</name></trkpt>
<trkpt lat="53.366901" lon="-1.877768"><ele>564</ele><time>2022-03-19T12:46:55Z</time><name>PT5628</name></trkpt>
<trkpt lat="53.366887" lon="-1.877765"><ele>564</ele><time>2022-03-19T12:46:57Z</time><name>PT5629</name></trkpt>
<trkpt lat="53.366869" lon="-1.877762"><ele>564</ele><time>2022-03-19T12:46:58Z</time><name>PT5630</name></trkpt>
<trkpt lat="53.366856" lon="-1.877760"><ele>564</ele><time>2022-03-19T12:46:58Z</time><name>PT5631</name></trkpt>
<trkpt lat="53.366841" lon="-1.877756"><ele>564</ele><time>2022-03-19T12:47:00Z</time><name>PT5632</name></trkpt>
<trkpt lat="53.366828" lon="-1.877756"><ele>564</ele><time>2022-03-19T12:47:01Z</time><name>PT5633</name></trkpt>
<trkpt lat="53.366814" lon="-1.877755"><ele>564</ele><time>2022-03-19T12:47:01Z</time><name>PT5634</name></trkpt>
<trkpt lat="53.366801" lon="-1.877755"><ele>564</ele><time>2022-03-19T12:47:03Z</time><name>PT5635</name></trkpt>
<trkpt lat="53.366787" lon="-1.877754"><ele>564</ele><time>2022-03-19T12:47:04Z</time><name>PT5636</name></trkpt>
<trkpt lat="53.366772" lon="-1.877754"><ele>564</ele><time>2022-03-19T12:47:04Z</time><name>PT5637</name></trkpt>
<trkpt lat="53.366757" lon="-1.877755"><ele>564</ele><time>2022-03-19T12:47:06Z</time><name>PT5638</name></trkpt>
<trkpt lat="53.366744" lon="-1.877756"><ele>564</ele><time>2022-03-19T12:47:07Z</time><name>PT5639</name></trkpt>
<trkpt lat="53.366732" lon="-1.877758"><ele>564</ele><time>2022-03-19T12:47:07Z</time><name>PT5640</name></trkpt>
<trkpt lat="53.366722" lon="-1.877760"><ele>564</ele><time>2022-03-19T12:47:09Z</time><name>PT5641</name></trkpt>
<trkpt lat="53.366709" lon="-1.877763"><ele>564</ele><time>2022-03-19T12:47:10Z</time><name>PT5642</name></trkpt>
<trkpt lat="53.366696" lon="-1.877762"><ele>564</ele><time>2022-03-19T12:47:10Z</time><name>PT5643</name></trkpt>
<trkpt lat="53.366683" lon="-1.877761"><ele>563</ele><time>2022-03-19T12:47:12Z</time><name>PT5644</name></trkpt>
<trkpt lat="53.366671" lon="-1.877762"><ele>563</ele><time>2022-03-19T12:47:13Z</time><name>PT5645</name></trkpt>
<trkpt lat="53.366660" lon="-1.877762"><ele>563</ele><time>2022-03-19T12:47:13Z</time><name>PT5646</name></trkpt>
<trkpt lat="53.366649" lon="-1.877760"><ele>563</ele><time>2022-03-19T12:47:15Z</time><name>PT5647</name></trkpt>
<trkpt lat="53.366639" lon="-1.877755"><ele>563</ele><time>2022-03-19T12:47:16Z</time><name>PT5648</name></trkpt>
<trkpt lat="53.366598" lon="-1.877752"><ele>563</ele><time>2022-03-19T12:47:19Z</time><name>PT5649</name></trkpt>
<trkpt lat="53.366561" lon="-1.877769"><ele>564</ele><time>2022-03-19T12:47:22Z</time><name>PT5650</name></trkpt>
<trkpt lat="53.366512" lon="-1.877788"><ele>564</ele><time>2022-03-19T12:47:25Z</time><name>PT5651</name></trkpt>
<trkpt lat="53.366468" lon="-1.877793"><ele>563</ele><time>2022-03-19T12:47:30Z</time><name>PT5652</name></trkpt>
<trkpt lat="53.366430" lon="-1.877782"><ele>563</ele><time>2022-03-19T12:47:33Z</time><name>PT5653</name></trkpt>
<trkpt lat="53.366382" lon="-1.877785"><ele>563</ele><time>2022-03-19T12:47:37Z</time><name>PT5654</name></trkpt>
<trkpt lat="53.366357" lon="-1.877790"><ele>562</ele><time>2022-03-19T12:47:39Z</time><name>PT5655</name></trkpt>
<trkpt lat="53.366342" lon="-1.877792"><ele>562</ele><time>2022-03-19T12:47:40Z</time><name>PT5656</name></trkpt>
<trkpt lat="53.366327" lon="-1.877790"><ele>563</ele><time>2022-03-19T12:47:40Z</time><name>PT5657</name></trkpt>
<trkpt lat="53.366313" lon="-1.877789"><ele>563</ele><time>2022-03-19T12:47:42Z</time><name>PT5658</name></trkpt>
<trkpt lat="53.366299" lon="-1.877791"><ele>563</ele><time>2022-03-19T12:47:43Z</time><name>PT5659</name></trkpt>
<trkpt lat="53.366287" lon="-1.877793"><ele>562</ele><time>2022-03-19T12:47:43Z</time><name>PT5660</name></trkpt>
<trkpt lat="53.366275" lon="-1.877797"><ele>562</ele><time>2022-03-19T12:47:45Z</time><name>PT5661</name></trkpt>
<trkpt lat="53.366263" lon="-1.877802"><ele>562</ele><time>2022-03-19T12:47:46Z</time><name>PT5662</name></trkpt>
<trkpt lat="53.366252" lon="-1.877808"><ele>562</ele><time>2022-03-19T12:47:46Z</time><name>PT5663</name></trkpt>
<trkpt lat="53.366241" lon="-1.877817"><ele>562</ele><time>2022-03-19T12:47:48Z</time><name>PT5664</name></trkpt>
<trkpt lat="53.366228" lon="-1.877823"><ele>562</ele><time>2022-03-19T12:47:49Z</time><name>PT5665</name></trkpt>
<trkpt lat="53.366214" lon="-1.877828"><ele>562</ele><time>2022-03-19T12:47:49Z</time><name>PT5666</name></trkpt>
<trkpt lat="53.366201" lon="-1.877834"><ele>562</ele><time>2022-03-19T12:47:51Z</time><name>PT5667</name></trkpt>
<trkpt lat="53.366186" lon="-1.877843"><ele>562</ele><time>2022-03-19T12:47:52Z</time><name>PT5668</name></trkpt>
<trkpt lat="53.366171" lon="-1.877851"><ele>562</ele><time>2022-03-19T12:47:52Z</time><name>PT5669</name></trkpt>
<trkpt lat="53.366156" lon="-1.877859"><ele>562</ele><time>2022-03-19T12:47:54Z</time><name>PT5670</name></trkpt>
<trkpt lat="53.366143" lon="-1.877866"><ele>562</ele><time>2022-03-19T12:47:55Z</time><name>PT5671</name></trkpt>
<trkpt lat="53.366131" lon="-1.877872"><ele>562</ele><time>2022-03-19T12:47:55Z</time><name>PT5672</name></trkpt>
<trkpt lat="53.366119" lon="-1.877878"><ele>562</ele><time>2022-03-19T12:47:57Z</time><name>PT5673</name></trkpt>
<trkpt lat="53.366105" lon="-1.877885"><ele>561</ele><time>2022-03-19T12:47:58Z</time><name>PT5674</name></trkpt>
<trkpt lat="53.366091" lon="-1.877892"><ele>561</ele><time>2022-03-19T12:47:58Z</time><name>PT5675</name></trkpt>
<trkpt lat="53.366080" lon="-1.877899"><ele>561</ele><time>2022-03-19T12:48:00Z</time><name>PT5676</name></trkpt>
<trkpt lat="53.366067" lon="-1.877909"><ele>561</ele><time>2022-03-19T12:48:01Z</time><name>PT5677</name></trkpt>
<trkpt lat="53.366054" lon="-1.877917"><ele>561</ele><time>2022-03-19T12:48:01Z</time><name>PT5678</name></trkpt>
<trkpt lat="53.366042" lon="-1.877924"><ele>561</ele><time>2022-03-19T12:48:03Z</time><name>PT5679</name></trkpt>
<trkpt lat="53.366030" lon="-1.877932"><ele>561</ele><time>2022-03-19T12:48:04Z</time><name>PT5680</name></trkpt>
<trkpt lat="53.366019" lon="-1.877939"><ele>561</ele><time>2022-03-19T12:48:04Z</time><name>PT5681</name></trkpt>
<trkpt lat="53.366009" lon="-1.877947"><ele>561</ele><time>2022-03-19T12:48:06Z</time><name>PT5682</name></trkpt>
<trkpt lat="53.365997" lon="-1.877955"><ele>561</ele><time>2022-03-19T12:48:07Z</time><name>PT5683</name></trkpt>
<trkpt lat="53.365985" lon="-1.877963"><ele>561</ele><time>2022-03-19T12:48:07Z</time><name>PT5684</name></trkpt>
<trkpt lat="53.365973" lon="-1.877972"><ele>561</ele><time>2022-03-19T12:48:09Z</time><name>PT5685</name></trkpt>
<trkpt lat="53.365959" lon="-1.877982"><ele>560</ele><time>2022-03-19T12:48:10Z</time><name>PT5686</name></trkpt>
<trkpt lat="53.365946" lon="-1.877992"><ele>560</ele><time>2022-03-19T12:48:10Z</time><name>PT5687</name></trkpt>
<trkpt lat="53.365935" lon="-1.878004"><ele>560</ele><time>2022-03-19T12:48:12Z</time><name>PT5688</name></trkpt>
<trkpt lat="53.365926" lon="-1.878015"><ele>560</ele><time>2022-03-19T12:48:13Z</time><name>PT5689</name></trkpt>
<trkpt lat="53.365916" lon="-1.878026"><ele>560</ele><time>2022-03-19T12:48:13Z</time><name>PT5690</name></trkpt>
<trkpt lat="53.365905" lon="-1.878037"><ele>560</ele><time>2022-03-19T12:48:15Z</time><name>PT5691</name></trkpt>
<trkpt lat="53.365894" lon="-1.878047"><ele>560</ele><time>2022-03-19T12:48:16Z</time><name>PT5692</name></trkpt>
<trkpt lat="53.365882" lon="-1.878056"><ele>560</ele><time>2022-03-19T12:48:16Z</time><name>PT5693</name></trkpt>
<trkpt lat="53.365870" lon="-1.878066"><ele>560</ele><time>2022-03-19T12:48:18Z</time><name>PT5694</name></trkpt>
<trkpt lat="53.365858" lon="-1.878072"><ele>560</ele><time>2022-03-19T12:48:19Z</time><name>PT5695</name></trkpt>
<trkpt lat="53.365844" lon="-1.878080"><ele>560</ele><time>2022-03-19T12:48:19Z</time><name>PT5696</name></trkpt>
<trkpt lat="53.365830" lon="-1.878091"><ele>560</ele><time>2022-03-19T12:48:21Z</time><name>PT5697</name></trkpt>
<trkpt lat="53.365818" lon="-1.878100"><ele>561</ele><time>2022-03-19T12:48:22Z</time><name>PT5698</name></trkpt>
<trkpt lat="53.365809" lon="-1.878112"><ele>561</ele><time>2022-03-19T12:48:22Z</time><name>PT5699</name></trkpt>
<trkpt lat="53.365800" lon="-1.878123"><ele>561</ele><time>2022-03-19T12:48:24Z</time><name>PT5700</name></trkpt>
<trkpt lat="53.365790" lon="-1.878132"><ele>561</ele><time>2022-03-19T12:48:25Z</time><name>PT5701</name></trkpt>
<trkpt lat="53.365779" lon="-1.878141"><ele>561</ele><time>2022-03-19T12:48:25Z</time><name>PT5702</name></trkpt>
<trkpt lat="53.365769" lon="-1.878156"><ele>562</ele><time>2022-03-19T12:48:27Z</time><name>PT5703</name></trkpt>
<trkpt lat="53.365759" lon="-1.878170"><ele>562</ele><time>2022-03-19T12:48:28Z</time><name>PT5704</name></trkpt>
<trkpt lat="53.365750" lon="-1.878186"><ele>562</ele><time>2022-03-19T12:48:28Z</time><name>PT5705</name></trkpt>
<trkpt lat="53.365742" lon="-1.878203"><ele>562</ele><time>2022-03-19T12:48:30Z</time><name>PT5706</name></trkpt>
<trkpt lat="53.365735" lon="-1.878219"><ele>561</ele><time>2022-03-19T12:48:31Z</time><name>PT5707</name></trkpt>
<trkpt lat="53.365727" lon="-1.878238"><ele>562</ele><time>2022-03-19T12:48:31Z</time><name>PT5708</name></trkpt>
<trkpt lat="53.365719" lon="-1.878254"><ele>561</ele><time>2022-03-19T12:48:33Z</time><name>PT5709</name></trkpt>
<trkpt lat="53.365711" lon="-1.878271"><ele>561</ele><time>2022-03-19T12:48:34Z</time><name>PT5710</name></trkpt>
<trkpt lat="53.365701" lon="-1.878287"><ele>561</ele><time>2022-03-19T12:48:34Z</time><name>PT5711</name></trkpt>
<trkpt lat="53.365688" lon="-1.878302"><ele>561</ele><time>2022-03-19T12:48:36Z</time><name>PT5712</name></trkpt>
<trkpt lat="53.365678" lon="-1.878314"><ele>561</ele><time>2022-03-19T12:48:37Z</time><name>PT5713</name></trkpt>
<trkpt lat="53.365667" lon="-1.878324"><ele>561</ele><time>2022-03-19T12:48:37Z</time><name>PT5714</name></trkpt>
<trkpt lat="53.365657" lon="-1.878332"><ele>561</ele><time>2022-03-19T12:48:39Z</time><name>PT5715</name></trkpt>
<trkpt lat="53.365646" lon="-1.878332"><ele>560</ele><time>2022-03-19T12:48:40Z</time><name>PT5716</name></trkpt>
<trkpt lat="53.365635" lon="-1.878341"><ele>560</ele><time>2022-03-19T12:48:41Z</time><name>PT5717</name></trkpt>
<trkpt lat="53.365623" lon="-1.878349"><ele>560</ele><time>2022-03-19T12:48:42Z</time><name>PT5718</name></trkpt>
<trkpt lat="53.365610" lon="-1.878353"><ele>560</ele><time>2022-03-19T12:48:43Z</time><name>PT5719</name></trkpt>
<trkpt lat="53.365598" lon="-1.878356"><ele>560</ele><time>2022-03-19T12:48:43Z</time><name>PT5720</name></trkpt>
<trkpt lat="53.365588" lon="-1.878361"><ele>560</ele><time>2022-03-19T12:48:45Z</time><name>PT5721</name></trkpt>
<trkpt lat="53.365578" lon="-1.878366"><ele>560</ele><time>2022-03-19T12:48:46Z</time><name>PT5722</name></trkpt>
<trkpt lat="53.365565" lon="-1.878374"><ele>560</ele><time>2022-03-19T12:48:46Z</time><name>PT5723</name></trkpt>
<trkpt lat="53.365551" lon="-1.878379"><ele>560</ele><time>2022-03-19T12:48:48Z</time><name>PT5724</name></trkpt>
<trkpt lat="53.365539" lon="-1.878383"><ele>556</ele><time>2022-03-19T12:48:49Z</time><name>PT5725</name></trkpt>
<trkpt lat="53.365529" lon="-1.878402"><ele>557</ele><time>2022-03-19T12:48:49Z</time><name>PT5726</name></trkpt>
<trkpt lat="53.365518" lon="-1.878412"><ele>558</ele><time>2022-03-19T12:48:51Z</time><name>PT5727</name></trkpt>
<trkpt lat="53.365507" lon="-1.878426"><ele>559</ele><time>2022-03-19T12:48:52Z</time><name>PT5728</name></trkpt>
<trkpt lat="53.365495" lon="-1.878437"><ele>559</ele><time>2022-03-19T12:48:52Z</time><name>PT5729</name></trkpt>
<trkpt lat="53.365483" lon="-1.878448"><ele>559</ele><time>2022-03-19T12:48:54Z</time><name>PT5730</name></trkpt>
<trkpt lat="53.365471" lon="-1.878461"><ele>559</ele><time>2022-03-19T12:48:55Z</time><name>PT5731</name></trkpt>
<trkpt lat="53.365461" lon="-1.878475"><ele>559</ele><time>2022-03-19T12:48:55Z</time><name>PT5732</name></trkpt>
<trkpt lat="53.365452" lon="-1.878489"><ele>560</ele><time>2022-03-19T12:48:57Z</time><name>PT5733</name></trkpt>
<trkpt lat="53.365443" lon="-1.878502"><ele>560</ele><time>2022-03-19T12:48:58Z</time><name>PT5734</name></trkpt>
<trkpt lat="53.365435" lon="-1.878515"><ele>560</ele><time>2022-03-19T12:48:58Z</time><name>PT5735</name></trkpt>
<trkpt lat="53.365426" lon="-1.878528"><ele>560</ele><time>2022-03-19T12:49:00Z</time><name>PT5736</name></trkpt>
<trkpt lat="53.365416" lon="-1.878541"><ele>560</ele><time>2022-03-19T12:49:01Z</time><name>PT5737</name></trkpt>
<trkpt lat="53.365406" lon="-1.878554"><ele>560</ele><time>2022-03-19T12:49:01Z</time><name>PT5738</name></trkpt>
<trkpt lat="53.365395" lon="-1.878567"><ele>560</ele><time>2022-03-19T12:49:03Z</time><name>PT5739</name></trkpt>
<trkpt lat="53.365386" lon="-1.878581"><ele>560</ele><time>2022-03-19T12:49:04Z</time><name>PT5740</name></trkpt>
<trkpt lat="53.365380" lon="-1.878594"><ele>560</ele><time>2022-03-19T12:49:04Z</time><name>PT5741</name></trkpt>
<trkpt lat="53.365374" lon="-1.878606"><ele>560</ele><time>2022-03-19T12:49:06Z</time><name>PT5742</name></trkpt>
<trkpt lat="53.365363" lon="-1.878619"><ele>560</ele><time>2022-03-19T12:49:07Z</time><name>PT5743</name></trkpt>
<trkpt lat="53.365351" lon="-1.878632"><ele>559</ele><time>2022-03-19T12:49:08Z</time><name>PT5744</name></trkpt>
<trkpt lat="53.365340" lon="-1.878642"><ele>559</ele><time>2022-03-19T12:49:09Z</time><name>PT5745</name></trkpt>
<trkpt lat="53.365329" lon="-1.878654"><ele>560</ele><time>2022-03-19T12:49:10Z</time><name>PT5746</name></trkpt>
<trkpt lat="53.365318" lon="-1.878672"><ele>559</ele><time>2022-03-19T12:49:10Z</time><name>PT5747</name></trkpt>
<trkpt lat="53.365310" lon="-1.878687"><ele>559</ele><time>2022-03-19T12:49:12Z</time><name>PT5748</name></trkpt>
<trkpt lat="53.365304" lon="-1.878701"><ele>559</ele><time>2022-03-19T12:49:13Z</time><name>PT5749</name></trkpt>
<trkpt lat="53.365296" lon="-1.878710"><ele>559</ele><time>2022-03-19T12:49:13Z</time><name>PT5750</name></trkpt>
<trkpt lat="53.365285" lon="-1.878720"><ele>559</ele><time>2022-03-19T12:49:15Z</time><name>PT5751</name></trkpt>
<trkpt lat="53.365274" lon="-1.878732"><ele>559</ele><time>2022-03-19T12:49:16Z</time><name>PT5752</name></trkpt>
<trkpt lat="53.365263" lon="-1.878743"><ele>559</ele><time>2022-03-19T12:49:16Z</time><name>PT5753</name></trkpt>
<trkpt lat="53.365252" lon="-1.878754"><ele>559</ele><time>2022-03-19T12:49:18Z</time><name>PT5754</name></trkpt>
<trkpt lat="53.365244" lon="-1.878763"><ele>559</ele><time>2022-03-19T12:49:19Z</time><name>PT5755</name></trkpt>
<trkpt lat="53.365235" lon="-1.878774"><ele>559</ele><time>2022-03-19T12:49:19Z</time><name>PT5756</name></trkpt>
<trkpt lat="53.365223" lon="-1.878783"><ele>559</ele><time>2022-03-19T12:49:21Z</time><name>PT5757</name></trkpt>
<trkpt lat="53.365213" lon="-1.878791"><ele>558</ele><time>2022-03-19T12:49:22Z</time><name>PT5758</name></trkpt>
<trkpt lat="53.365202" lon="-1.878799"><ele>558</ele><time>2022-03-19T12:49:22Z</time><name>PT5759</name></trkpt>
<trkpt lat="53.365192" lon="-1.878804"><ele>558</ele><time>2022-03-19T12:49:24Z</time><name>PT5760</name></trkpt>
<trkpt lat="53.365181" lon="-1.878811"><ele>558</ele><time>2022-03-19T12:49:25Z</time><name>PT5761</name></trkpt>
<trkpt lat="53.365169" lon="-1.878818"><ele>558</ele><time>2022-03-19T12:49:25Z</time><name>PT5762</name></trkpt>
<trkpt lat="53.365157" lon="-1.878826"><ele>557</ele><time>2022-03-19T12:49:27Z</time><name>PT5763</name></trkpt>
<trkpt lat="53.365149" lon="-1.878831"><ele>557</ele><time>2022-03-19T12:49:28Z</time><name>PT5764</name></trkpt>
<trkpt lat="53.365139" lon="-1.878838"><ele>558</ele><time>2022-03-19T12:49:28Z</time><name>PT5765</name></trkpt>
<trkpt lat="53.365128" lon="-1.878850"><ele>558</ele><time>2022-03-19T12:49:30Z</time><name>PT5766</name></trkpt>
<trkpt lat="53.365120" lon="-1.878864"><ele>558</ele><time>2022-03-19T12:49:31Z</time><name>PT5767</name></trkpt>
<trkpt lat="53.365111" lon="-1.878878"><ele>558</ele><time>2022-03-19T12:49:31Z</time><name>PT5768</name></trkpt>
<trkpt lat="53.365101" lon="-1.878888"><ele>558</ele><time>2022-03-19T12:49:33Z</time><name>PT5769</name></trkpt>
<trkpt lat="53.365092" lon="-1.878902"><ele>558</ele><time>2022-03-19T12:49:34Z</time><name>PT5770</name></trkpt>
<trkpt lat="53.365086" lon="-1.878917"><ele>558</ele><time>2022-03-19T12:49:34Z</time><name>PT5771</name></trkpt>
<trkpt lat="53.365078" lon="-1.878931"><ele>558</ele><time>2022-03-19T12:49:36Z</time><name>PT5772</name></trkpt>
<trkpt lat="53.365071" lon="-1.878948"><ele>558</ele><time>2022-03-19T12:49:37Z</time><name>PT5773</name></trkpt>
<trkpt lat="53.365065" lon="-1.878960"><ele>558</ele><time>2022-03-19T12:49:37Z</time><name>PT5774</name></trkpt>
<trkpt lat="53.365060" lon="-1.878973"><ele>557</ele><time>2022-03-19T12:49:39Z</time><name>PT5775</name></trkpt>
<trkpt lat="53.365054" lon="-1.878983"><ele>557</ele><time>2022-03-19T12:49:40Z</time><name>PT5776</name></trkpt>
<trkpt lat="53.365047" lon="-1.878992"><ele>557</ele><time>2022-03-19T12:49:40Z</time><name>PT5777</name></trkpt>
<trkpt lat="53.365037" lon="-1.878997"><ele>558</ele><time>2022-03-19T12:49:42Z</time><name>PT5778</name></trkpt>
<trkpt lat="53.365029" lon="-1.879012"><ele>559</ele><time>2022-03-19T12:49:43Z</time><name>PT5779</name></trkpt>
<trkpt lat="53.365023" lon="-1.879012"><ele>560</ele><time>2022-03-19T12:49:43Z</time><name>PT5780</name></trkpt>
<trkpt lat="53.365018" lon="-1.879007"><ele>560</ele><time>2022-03-19T12:49:45Z</time><name>PT5781</name></trkpt>
<trkpt lat="53.365011" lon="-1.878996"><ele>561</ele><time>2022-03-19T12:49:46Z</time><name>PT5782</name></trkpt>
<trkpt lat="53.365010" lon="-1.878984"><ele>561</ele><time>2022-03-19T12:49:46Z</time><name>PT5783</name></trkpt>
<trkpt lat="53.365006" lon="-1.878974"><ele>562</ele><time>2022-03-19T12:49:48Z</time><name>PT5784</name></trkpt>
<trkpt lat="53.365002" lon="-1.878962"><ele>562</ele><time>2022-03-19T12:49:49Z</time><name>PT5785</name></trkpt>
<trkpt lat="53.365000" lon="-1.878948"><ele>562</ele><time>2022-03-19T12:49:49Z</time><name>PT5786</name></trkpt>
<trkpt lat="53.365001" lon="-1.878930"><ele>562</ele><time>2022-03-19T12:49:51Z</time><name>PT5787</name></trkpt>
<trkpt lat="53.365001" lon="-1.878914"><ele>562</ele><time>2022-03-19T12:49:52Z</time><name>PT5788</name></trkpt>
<trkpt lat="53.365002" lon="-1.878897"><ele>563</ele><time>2022-03-19T12:49:52Z</time><name>PT5789</name></trkpt>
<trkpt lat="53.365006" lon="-1.878886"><ele>560</ele><time>2022-03-19T12:49:54Z</time><name>PT5790</name></trkpt>
<trkpt lat="53.365007" lon="-1.878877"><ele>561</ele><time>2022-03-19T12:49:55Z</time><name>PT5791</name></trkpt>
<trkpt lat="53.365006" lon="-1.878870"><ele>560</ele><time>2022-03-19T12:49:55Z</time><name>PT5792</name></trkpt>
<trkpt lat="53.365004" lon="-1.878868"><ele>560</ele><time>2022-03-19T12:49:57Z</time><name>PT5793</name></trkpt>
<trkpt lat="53.365006" lon="-1.878865"><ele>560</ele><time>2022-03-19T12:49:58Z</time><name>PT5794</name></trkpt>
<trkpt lat="53.365004" lon="-1.878860"><ele>559</ele><time>2022-03-19T12:49:58Z</time><name>PT5795</name></trkpt>
<trkpt lat="53.365006" lon="-1.878857"><ele>559</ele><time>2022-03-19T12:50:00Z</time><name>PT5796</name></trkpt>
<trkpt lat="53.365008" lon="-1.878855"><ele>559</ele><time>2022-03-19T12:50:01Z</time><name>PT5797</name></trkpt>
<trkpt lat="53.365007" lon="-1.878852"><ele>559</ele><time>2022-03-19T12:50:01Z</time><name>PT5798</name></trkpt>
<trkpt lat="53.365009" lon="-1.878847"><ele>559</ele><time>2022-03-19T12:50:07Z</time><name>PT5799</name></trkpt>
<trkpt lat="53.365004" lon="-1.878838"><ele>559</ele><time>2022-03-19T12:50:09Z</time><name>PT5800</name></trkpt>
<trkpt lat="53.365000" lon="-1.878829"><ele>559</ele><time>2022-03-19T12:50:10Z</time><name>PT5801</name></trkpt>
<trkpt lat="53.364996" lon="-1.878819"><ele>559</ele><time>2022-03-19T12:50:10Z</time><name>PT5802</name></trkpt>
<trkpt lat="53.364989" lon="-1.878802"><ele>559</ele><time>2022-03-19T12:50:12Z</time><name>PT5803</name></trkpt>
<trkpt lat="53.364983" lon="-1.878789"><ele>560</ele><time>2022-03-19T12:50:13Z</time><name>PT5804</name></trkpt>
<trkpt lat="53.364972" lon="-1.878774"><ele>559</ele><time>2022-03-19T12:50:13Z</time><name>PT5805</name></trkpt>
<trkpt lat="53.364946" lon="-1.878743"><ele>559</ele><time>2022-03-19T12:50:16Z</time><name>PT5806</name></trkpt>
<trkpt lat="53.364916" lon="-1.878712"><ele>558</ele><time>2022-03-19T12:50:21Z</time><name>PT5807</name></trkpt>
<trkpt lat="53.364879" lon="-1.878671"><ele>559</ele><time>2022-03-19T12:50:25Z</time><name>PT5808</name></trkpt>
<trkpt lat="53.364852" lon="-1.878638"><ele>560</ele><time>2022-03-19T12:50:28Z</time><name>PT5809</name></trkpt>
<trkpt lat="53.364832" lon="-1.878610"><ele>560</ele><time>2022-03-19T12:50:31Z</time><name>PT5810</name></trkpt>
<trkpt lat="53.364819" lon="-1.878542"><ele>561</ele><time>2022-03-19T12:50:34Z</time><name>PT5811</name></trkpt>
<trkpt lat="53.364803" lon="-1.878496"><ele>559</ele><time>2022-03-19T12:50:37Z</time><name>PT5812</name></trkpt>
<trkpt lat="53.364775" lon="-1.878438"><ele>560</ele><time>2022-03-19T12:50:42Z</time><name>PT5813</name></trkpt>
<trkpt lat="53.364740" lon="-1.878409"><ele>561</ele><time>2022-03-19T12:50:45Z</time><name>PT5814</name></trkpt>
<trkpt lat="53.364703" lon="-1.878395"><ele>556</ele><time>2022-03-19T12:50:49Z</time><name>PT5815</name></trkpt>
<trkpt lat="53.364664" lon="-1.878381"><ele>557</ele><time>2022-03-19T12:50:52Z</time><name>PT5816</name></trkpt>
<trkpt lat="53.364632" lon="-1.878346"><ele>558</ele><time>2022-03-19T12:50:55Z</time><name>PT5817</name></trkpt>
<trkpt lat="53.364618" lon="-1.878279"><ele>560</ele><time>2022-03-19T12:51:00Z</time><name>PT5818</name></trkpt>
<trkpt lat="53.364599" lon="-1.878234"><ele>560</ele><time>2022-03-19T12:51:03Z</time><name>PT5819</name></trkpt>
<trkpt lat="53.364569" lon="-1.878171"><ele>560</ele><time>2022-03-19T12:51:07Z</time><name>PT5820</name></trkpt>
<trkpt lat="53.364539" lon="-1.878133"><ele>560</ele><time>2022-03-19T12:51:10Z</time><name>PT5821</name></trkpt>
<trkpt lat="53.364501" lon="-1.878071"><ele>562</ele><time>2022-03-19T12:51:13Z</time><name>PT5822</name></trkpt>
<trkpt lat="53.364470" lon="-1.878025"><ele>562</ele><time>2022-03-19T12:51:18Z</time><name>PT5823</name></trkpt>
<trkpt lat="53.364439" lon="-1.877990"><ele>562</ele><time>2022-03-19T12:51:21Z</time><name>PT5824</name></trkpt>
<trkpt lat="53.364401" lon="-1.877930"><ele>562</ele><time>2022-03-19T12:51:25Z</time><name>PT5825</name></trkpt>
<trkpt lat="53.364380" lon="-1.877879"><ele>562</ele><time>2022-03-19T12:51:28Z</time><name>PT5826</name></trkpt>
<trkpt lat="53.364354" lon="-1.877814"><ele>562</ele><time>2022-03-19T12:51:31Z</time><name>PT5827</name></trkpt>
<trkpt lat="53.364338" lon="-1.877764"><ele>563</ele><time>2022-03-19T12:51:34Z</time><name>PT5828</name></trkpt>
<trkpt lat="53.364325" lon="-1.877725"><ele>563</ele><time>2022-03-19T12:51:37Z</time><name>PT5829</name></trkpt>
<trkpt lat="53.364301" lon="-1.877659"><ele>563</ele><time>2022-03-19T12:51:42Z</time><name>PT5830</name></trkpt>
<trkpt lat="53.364272" lon="-1.877600"><ele>565</ele><time>2022-03-19T12:51:46Z</time><name>PT5831</name></trkpt>
<trkpt lat="53.364250" lon="-1.877558"><ele>566</ele><time>2022-03-19T12:51:49Z</time><name>PT5832</name></trkpt>
<trkpt lat="53.364213" lon="-1.877502"><ele>566</ele><time>2022-03-19T12:51:52Z</time><name>PT5833</name></trkpt>
<trkpt lat="53.364181" lon="-1.877476"><ele>565</ele><time>2022-03-19T12:51:55Z</time><name>PT5834</name></trkpt>
<trkpt lat="53.364146" lon="-1.877440"><ele>565</ele><time>2022-03-19T12:52:00Z</time><name>PT5835</name></trkpt>
<trkpt lat="53.364120" lon="-1.877402"><ele>566</ele><time>2022-03-19T12:52:03Z</time><name>PT5836</name></trkpt>
<trkpt lat="53.364103" lon="-1.877372"><ele>566</ele><time>2022-03-19T12:52:06Z</time><name>PT5837</name></trkpt>
<trkpt lat="53.364084" lon="-1.877326"><ele>568</ele><time>2022-03-19T12:52:09Z</time><name>PT5838</name></trkpt>
<trkpt lat="53.364075" lon="-1.877284"><ele>568</ele><time>2022-03-19T12:52:12Z</time><name>PT5839</name></trkpt>
<trkpt lat="53.364058" lon="-1.877222"><ele>569</ele><time>2022-03-19T12:52:15Z</time><name>PT5840</name></trkpt>
<trkpt lat="53.364042" lon="-1.877173"><ele>569</ele><time>2022-03-19T12:52:18Z</time><name>PT5841</name></trkpt>
<trkpt lat="53.364018" lon="-1.877114"><ele>570</ele><time>2022-03-19T12:52:23Z</time><name>PT5842</name></trkpt>
<trkpt lat="53.363999" lon="-1.877071"><ele>571</ele><time>2022-03-19T12:52:26Z</time><name>PT5843</name></trkpt>
<trkpt lat="53.363968" lon="-1.877012"><ele>570</ele><time>2022-03-19T12:52:30Z</time><name>PT5844</name></trkpt>
<trkpt lat="53.363930" lon="-1.876954"><ele>571</ele><time>2022-03-19T12:52:33Z</time><name>PT5845</name></trkpt>
<trkpt lat="53.363890" lon="-1.876909"><ele>571</ele><time>2022-03-19T12:52:38Z</time><name>PT5846</name></trkpt>
<trkpt lat="53.363856" lon="-1.876862"><ele>571</ele><time>2022-03-19T12:52:42Z</time><name>PT5847</name></trkpt>
<trkpt lat="53.363826" lon="-1.876804"><ele>571</ele><time>2022-03-19T12:52:45Z</time><name>PT5848</name></trkpt>
<trkpt lat="53.363805" lon="-1.876764"><ele>570</ele><time>2022-03-19T12:52:48Z</time><name>PT5849</name></trkpt>
<trkpt lat="53.363785" lon="-1.876721"><ele>570</ele><time>2022-03-19T12:52:51Z</time><name>PT5850</name></trkpt>
<trkpt lat="53.363754" lon="-1.876659"><ele>570</ele><time>2022-03-19T12:52:56Z</time><name>PT5851</name></trkpt>
<trkpt lat="53.363731" lon="-1.876617"><ele>571</ele><time>2022-03-19T12:52:59Z</time><name>PT5852</name></trkpt>
<trkpt lat="53.363695" lon="-1.876568"><ele>571</ele><time>2022-03-19T12:53:03Z</time><name>PT5853</name></trkpt>
<trkpt lat="53.363651" lon="-1.876516"><ele>572</ele><time>2022-03-19T12:53:06Z</time><name>PT5854</name></trkpt>
<trkpt lat="53.363614" lon="-1.876477"><ele>571</ele><time>2022-03-19T12:53:11Z</time><name>PT5855</name></trkpt>
<trkpt lat="53.363571" lon="-1.876436"><ele>572</ele><time>2022-03-19T12:53:15Z</time><name>PT5856</name></trkpt>
<trkpt lat="53.363524" lon="-1.876387"><ele>571</ele><time>2022-03-19T12:53:18Z</time><name>PT5857</name></trkpt>
<trkpt lat="53.363501" lon="-1.876361"><ele>572</ele><time>2022-03-19T12:53:23Z</time><name>PT5858</name></trkpt>
<trkpt lat="53.363494" lon="-1.876354"><ele>572</ele><time>2022-03-19T12:53:27Z</time><name>PT5859</name></trkpt>
<trkpt lat="53.363471" lon="-1.876317"><ele>572</ele><time>2022-03-19T12:53:30Z</time><name>PT5860</name></trkpt>
<trkpt lat="53.363434" lon="-1.876273"><ele>572</ele><time>2022-03-19T12:53:33Z</time><name>PT5861</name></trkpt>
<trkpt lat="53.363398" lon="-1.876230"><ele>572</ele><time>2022-03-19T12:53:38Z</time><name>PT5862</name></trkpt>
<trkpt lat="53.363363" lon="-1.876195"><ele>573</ele><time>2022-03-19T12:53:41Z</time><name>PT5863</name></trkpt>
<trkpt lat="53.363316" lon="-1.876151"><ele>572</ele><time>2022-03-19T12:53:45Z</time><name>PT5864</name></trkpt>
<trkpt lat="53.363268" lon="-1.876123"><ele>573</ele><time>2022-03-19T12:53:48Z</time><name>PT5865</name></trkpt>
<trkpt lat="53.363215" lon="-1.876115"><ele>573</ele><time>2022-03-19T12:53:53Z</time><name>PT5866</name></trkpt>
<trkpt lat="53.363170" lon="-1.876084"><ele>574</ele><time>2022-03-19T12:53:57Z</time><name>PT5867</name></trkpt>
<trkpt lat="53.363148" lon="-1.876061"><ele>574</ele><time>2022-03-19T12:54:00Z</time><name>PT5868</name></trkpt>
<trkpt lat="53.363138" lon="-1.876042"><ele>574</ele><time>2022-03-19T12:54:00Z</time><name>PT5869</name></trkpt>
<trkpt lat="53.363131" lon="-1.876026"><ele>573</ele><time>2022-03-19T12:54:02Z</time><name>PT5870</name></trkpt>
<trkpt lat="53.363123" lon="-1.876013"><ele>573</ele><time>2022-03-19T12:54:03Z</time><name>PT5871</name></trkpt>
<trkpt lat="53.363116" lon="-1.875999"><ele>573</ele><time>2022-03-19T12:54:03Z</time><name>PT5872</name></trkpt>
<trkpt lat="53.363111" lon="-1.875985"><ele>572</ele><time>2022-03-19T12:54:05Z</time><name>PT5873</name></trkpt>
<trkpt lat="53.363105" lon="-1.875974"><ele>573</ele><time>2022-03-19T12:54:06Z</time><name>PT5874</name></trkpt>
<trkpt lat="53.363099" lon="-1.875960"><ele>572</ele><time>2022-03-19T12:54:06Z</time><name>PT5875</name></trkpt>
<trkpt lat="53.363091" lon="-1.875945"><ele>572</ele><time>2022-03-19T12:54:08Z</time><name>PT5876</name></trkpt>
<trkpt lat="53.363084" lon="-1.875927"><ele>572</ele><time>2022-03-19T12:54:09Z</time><name>PT5877</name></trkpt>
<trkpt lat="53.363080" lon="-1.875913"><ele>572</ele><time>2022-03-19T12:54:09Z</time><name>PT5878</name></trkpt>
<trkpt lat="53.363078" lon="-1.875896"><ele>572</ele><time>2022-03-19T12:54:11Z</time><name>PT5879</name></trkpt>
<trkpt lat="53.363074" lon="-1.875882"><ele>572</ele><time>2022-03-19T12:54:12Z</time><name>PT5880</name></trkpt>
<trkpt lat="53.363068" lon="-1.875869"><ele>572</ele><time>2022-03-19T12:54:12Z</time><name>PT5881</name></trkpt>
<trkpt lat="53.363061" lon="-1.875859"><ele>572</ele><time>2022-03-19T12:54:14Z</time><name>PT5882</name></trkpt>
<trkpt lat="53.363051" lon="-1.875848"><ele>572</ele><time>2022-03-19T12:54:15Z</time><name>PT5883</name></trkpt>
<trkpt lat="53.363037" lon="-1.875837"><ele>573</ele><time>2022-03-19T12:54:15Z</time><name>PT5884</name></trkpt>
<trkpt lat="53.363031" lon="-1.875820"><ele>573</ele><time>2022-03-19T12:54:17Z</time><name>PT5885</name></trkpt>
<trkpt lat="53.363024" lon="-1.875806"><ele>573</ele><time>2022-03-19T12:54:18Z</time><name>PT5886</name></trkpt>
<trkpt lat="53.363019" lon="-1.875797"><ele>573</ele><time>2022-03-19T12:54:19Z</time><name>PT5887</name></trkpt>
<trkpt lat="53.363015" lon="-1.875784"><ele>573</ele><time>2022-03-19T12:54:20Z</time><name>PT5888</name></trkpt>
<trkpt lat="53.363013" lon="-1.875775"><ele>573</ele><time>2022-03-19T12:54:21Z</time><name>PT5889</name></trkpt>
<trkpt lat="53.363014" lon="-1.875776"><ele>573</ele><time>2022-03-19T12:54:21Z</time><name>PT5890</name></trkpt>
<trkpt lat="53.363015" lon="-1.875777"><ele>573</ele><time>2022-03-19T12:54:23Z</time><name>PT5891</name></trkpt>
<trkpt lat="53.363019" lon="-1.875777"><ele>572</ele><time>2022-03-19T12:54:29Z</time><name>PT5892</name></trkpt>
<trkpt lat="53.363010" lon="-1.875773"><ele>572</ele><time>2022-03-19T12:54:30Z</time><name>PT5893</name></trkpt>
<trkpt lat="53.363010" lon="-1.875753"><ele>572</ele><time>2022-03-19T12:54:30Z</time><name>PT5894</name></trkpt>
<trkpt lat="53.363010" lon="-1.875745"><ele>572</ele><time>2022-03-19T12:54:32Z</time><name>PT5895</name></trkpt>
<trkpt lat="53.363008" lon="-1.875737"><ele>572</ele><time>2022-03-19T12:54:33Z</time><name>PT5896</name></trkpt>
<trkpt lat="53.363008" lon="-1.875729"><ele>572</ele><time>2022-03-19T12:54:33Z</time><name>PT5897</name></trkpt>
<trkpt lat="53.363002" lon="-1.875727"><ele>572</ele><time>2022-03-19T12:54:35Z</time><name>PT5898</name></trkpt>
<trkpt lat="53.362999" lon="-1.875725"><ele>572</ele><time>2022-03-19T12:54:36Z</time><name>PT5899</name></trkpt>
<trkpt lat="53.363005" lon="-1.875714"><ele>573</ele><time>2022-03-19T12:54:36Z</time><name>PT5900</name></trkpt>
<trkpt lat="53.363002" lon="-1.875718"><ele>573</ele><time>2022-03-19T12:54:38Z</time><name>PT5901</name></trkpt>
<trkpt lat="53.363003" lon="-1.875721"><ele>573</ele><time>2022-03-19T12:54:39Z</time><name>PT5902</name></trkpt>
<trkpt lat="53.363008" lon="-1.875722"><ele>573</ele><time>2022-03-19T12:54:39Z</time><name>PT5903</name></trkpt>
<trkpt lat="53.363010" lon="-1.875727"><ele>573</ele><time>2022-03-19T12:54:41Z</time><name>PT5904</name></trkpt>
<trkpt lat="53.363008" lon="-1.875727"><ele>572</ele><time>2022-03-19T12:54:42Z</time><name>PT5905</name></trkpt>
<trkpt lat="53.363005" lon="-1.875725"><ele>572</ele><time>2022-03-19T12:54:42Z</time><name>PT5906</name></trkpt>
<trkpt lat="53.363004" lon="-1.875720"><ele>572</ele><time>2022-03-19T12:54:44Z</time><name>PT5907</name></trkpt>
<trkpt lat="53.363003" lon="-1.875718"><ele>572</ele><time>2022-03-19T12:54:45Z</time><name>PT5908</name></trkpt>
<trkpt lat="53.363003" lon="-1.875717"><ele>573</ele><time>2022-03-19T12:54:45Z</time><name>PT5909</name></trkpt>
<trkpt lat="53.363002" lon="-1.875712"><ele>573</ele><time>2022-03-19T12:54:47Z</time><name>PT5910</name></trkpt>
<trkpt lat="53.363001" lon="-1.875712"><ele>572</ele><time>2022-03-19T12:54:48Z</time><name>PT5911</name></trkpt>
<trkpt lat="53.363000" lon="-1.875717"><ele>573</ele><time>2022-03-19T12:54:48Z</time><name>PT5912</name></trkpt>
<trkpt lat="53.362996" lon="-1.875720"><ele>572</ele><time>2022-03-19T12:54:50Z</time><name>PT5913</name></trkpt>
<trkpt lat="53.362997" lon="-1.875719"><ele>572</ele><time>2022-03-19T12:54:51Z</time><name>PT5914</name></trkpt>
<trkpt lat="53.362998" lon="-1.875715"><ele>572</ele><time>2022-03-19T12:54:51Z</time><name>PT5915</name></trkpt>
<trkpt lat="53.363001" lon="-1.875711"><ele>572</ele><time>2022-03-19T12:54:53Z</time><name>PT5916</name></trkpt>
<trkpt lat="53.363002" lon="-1.875707"><ele>571</ele><time>2022-03-19T12:54:54Z</time><name>PT5917</name></trkpt>
<trkpt lat="53.363002" lon="-1.875707"><ele>571</ele><time>2022-03-19T12:54:54Z</time><name>PT5918</name></trkpt>
<trkpt lat="53.363001" lon="-1.875707"><ele>571</ele><time>2022-03-19T12:54:59Z</time><name>PT5919</name></trkpt>
<trkpt lat="53.362999" lon="-1.875703"><ele>571</ele><time>2022-03-19T12:55:00Z</time><name>PT5920</name></trkpt>
<trkpt lat="53.362998" lon="-1.875707"><ele>570</ele><time>2022-03-19T12:55:00Z</time><name>PT5921</name></trkpt>
<trkpt lat="53.363000" lon="-1.875701"><ele>570</ele><time>2022-03-19T12:55:11Z</time><name>PT5922</name></trkpt>
<trkpt lat="53.363001" lon="-1.875699"><ele>570</ele><time>2022-03-19T12:55:12Z</time><name>PT5923</name></trkpt>
<trkpt lat="53.363000" lon="-1.875697"><ele>570</ele><time>2022-03-19T12:55:12Z</time><name>PT5924</name></trkpt>
<trkpt lat="53.362997" lon="-1.875691"><ele>570</ele><time>2022-03-19T12:55:18Z</time><name>PT5925</name></trkpt>
<trkpt lat="53.362997" lon="-1.875685"><ele>570</ele><time>2022-03-19T12:55:20Z</time><name>PT5926</name></trkpt>
<trkpt lat="53.362998" lon="-1.875685"><ele>569</ele><time>2022-03-19T12:55:21Z</time><name>PT5927</name></trkpt>
<trkpt lat="53.362995" lon="-1.875685"><ele>570</ele><time>2022-03-19T12:55:21Z</time><name>PT5928</name></trkpt>
<trkpt lat="53.362994" lon="-1.875684"><ele>570</ele><time>2022-03-19T12:55:23Z</time><name>PT5929</name></trkpt>
<trkpt lat="53.362996" lon="-1.875688"><ele>570</ele><time>2022-03-19T12:55:30Z</time><name>PT5930</name></trkpt>
<trkpt lat="53.362997" lon="-1.875697"><ele>570</ele><time>2022-03-19T12:55:32Z</time><name>PT5931</name></trkpt>
<trkpt lat="53.362997" lon="-1.875691"><ele>570</ele><time>2022-03-19T12:55:33Z</time><name>PT5932</name></trkpt>
<trkpt lat="53.362996" lon="-1.875687"><ele>570</ele><time>2022-03-19T12:55:33Z</time><name>PT5933</name></trkpt>
<trkpt lat="53.362995" lon="-1.875688"><ele>570</ele><time>2022-03-19T12:55:35Z</time><name>PT5934</name></trkpt>
<trkpt lat="53.362995" lon="-1.875689"><ele>571</ele><time>2022-03-19T12:55:36Z</time><name>PT5935</name></trkpt>
<trkpt lat="53.362995" lon="-1.875688"><ele>571</ele><time>2022-03-19T12:55:36Z</time><name>PT5936</name></trkpt>
<trkpt lat="53.362997" lon="-1.875686"><ele>570</ele><time>2022-03-19T12:55:38Z</time><name>PT5937</name></trkpt>
<trkpt lat="53.362998" lon="-1.875684"><ele>570</ele><time>2022-03-19T12:55:39Z</time><name>PT5938</name></trkpt>
<trkpt lat="53.362997" lon="-1.875683"><ele>570</ele><time>2022-03-19T12:55:39Z</time><name>PT5939</name></trkpt>
<trkpt lat="53.362996" lon="-1.875683"><ele>569</ele><time>2022-03-19T12:55:41Z</time><name>PT5940</name></trkpt>
<trkpt lat="53.362993" lon="-1.875688"><ele>569</ele><time>2022-03-19T12:55:42Z</time><name>PT5941</name></trkpt>
<trkpt lat="53.362992" lon="-1.875690"><ele>569</ele><time>2022-03-19T12:55:42Z</time><name>PT5942</name></trkpt>
<trkpt lat="53.362991" lon="-1.875692"><ele>569</ele><time>2022-03-19T12:55:44Z</time><name>PT5943</name></trkpt>
<trkpt lat="53.362992" lon="-1.875689"><ele>569</ele><time>2022-03-19T12:55:45Z</time><name>PT5944</name></trkpt>
<trkpt lat="53.362995" lon="-1.875690"><ele>569</ele><time>2022-03-19T12:55:51Z</time><name>PT5945</name></trkpt>
<trkpt lat="53.362996" lon="-1.875695"><ele>569</ele><time>2022-03-19T12:55:53Z</time><name>PT5946</name></trkpt>
<trkpt lat="53.362998" lon="-1.875696"><ele>569</ele><time>2022-03-19T12:55:54Z</time><name>PT5947</name></trkpt>
<trkpt lat="53.362995" lon="-1.875694"><ele>570</ele><time>2022-03-19T12:55:54Z</time><name>PT5948</name></trkpt>
<trkpt lat="53.362996" lon="-1.875697"><ele>570</ele><time>2022-03-19T12:55:56Z</time><name>PT5949</name></trkpt>
<trkpt lat="53.362995" lon="-1.875699"><ele>570</ele><time>2022-03-19T12:55:57Z</time><name>PT5950</name></trkpt>
<trkpt lat="53.362994" lon="-1.875701"><ele>570</ele><time>2022-03-19T12:55:57Z</time><name>PT5951</name></trkpt>
<trkpt lat="53.362991" lon="-1.875703"><ele>571</ele><time>2022-03-19T12:55:59Z</time><name>PT5952</name></trkpt>
<trkpt lat="53.362990" lon="-1.875703"><ele>571</ele><time>2022-03-19T12:56:00Z</time><name>PT5953</name></trkpt>
<trkpt lat="53.362962" lon="-1.875689"><ele>572</ele><time>2022-03-19T12:56:03Z</time><name>PT5954</name></trkpt>
<trkpt lat="53.362928" lon="-1.875675"><ele>572</ele><time>2022-03-19T12:56:06Z</time><name>PT5955</name></trkpt>
<trkpt lat="53.362885" lon="-1.875654"><ele>573</ele><time>2022-03-19T12:56:11Z</time><name>PT5956</name></trkpt>
<trkpt lat="53.362874" lon="-1.875647"><ele>572</ele><time>2022-03-19T12:56:15Z</time><name>PT5957</name></trkpt>
<trkpt lat="53.362858" lon="-1.875643"><ele>572</ele><time>2022-03-19T12:56:18Z</time><name>PT5958</name></trkpt>
<trkpt lat="53.362814" lon="-1.875600"><ele>570</ele><time>2022-03-19T12:56:21Z</time><name>PT5959</name></trkpt>
<trkpt lat="53.362792" lon="-1.875552"><ele>569</ele><time>2022-03-19T12:56:24Z</time><name>PT5960</name></trkpt>
<trkpt lat="53.362763" lon="-1.875497"><ele>569</ele><time>2022-03-19T12:56:29Z</time><name>PT5961</name></trkpt>
<trkpt lat="53.362723" lon="-1.875442"><ele>570</ele><time>2022-03-19T12:56:33Z</time><name>PT5962</name></trkpt>
<trkpt lat="53.362689" lon="-1.875410"><ele>570</ele><time>2022-03-19T12:56:36Z</time><name>PT5963</name></trkpt>
<trkpt lat="53.362659" lon="-1.875375"><ele>570</ele><time>2022-03-19T12:56:39Z</time><name>PT5964</name></trkpt>
<trkpt lat="53.362651" lon="-1.875356"><ele>569</ele><time>2022-03-19T12:56:42Z</time><name>PT5965</name></trkpt>
<trkpt lat="53.362630" lon="-1.875338"><ele>569</ele><time>2022-03-19T12:56:45Z</time><name>PT5966</name></trkpt>
<trkpt lat="53.362587" lon="-1.875287"><ele>569</ele><time>2022-03-19T12:56:50Z</time><name>PT5967</name></trkpt>
<trkpt lat="53.362552" lon="-1.875232"><ele>570</ele><time>2022-03-19T12:56:54Z</time><name>PT5968</name></trkpt>
<trkpt lat="53.362527" lon="-1.875185"><ele>569</ele><time>2022-03-19T12:56:57Z</time><name>PT5969</name></trkpt>
<trkpt lat="53.362503" lon="-1.875110"><ele>570</ele><time>2022-03-19T12:57:00Z</time><name>PT5970</name></trkpt>
<trkpt lat="53.362473" lon="-1.875036"><ele>569</ele><time>2022-03-19T12:57:05Z</time><name>PT5971</name></trkpt>
<trkpt lat="53.362449" lon="-1.874978"><ele>570</ele><time>2022-03-19T12:57:08Z</time><name>PT5972</name></trkpt>
<trkpt lat="53.362422" lon="-1.874919"><ele>569</ele><time>2022-03-19T12:57:12Z</time><name>PT5973</name></trkpt>
<trkpt lat="53.362392" lon="-1.874868"><ele>570</ele><time>2022-03-19T12:57:15Z</time><name>PT5974</name></trkpt>
<trkpt lat="53.362365" lon="-1.874789"><ele>571</ele><time>2022-03-19T12:57:18Z</time><name>PT5975</name></trkpt>
<trkpt lat="53.362335" lon="-1.874725"><ele>570</ele><time>2022-03-19T12:57:23Z</time><name>PT5976</name></trkpt>
<trkpt lat="53.362296" lon="-1.874689"><ele>570</ele><time>2022-03-19T12:57:27Z</time><name>PT5977</name></trkpt>
<trkpt lat="53.362257" lon="-1.874674"><ele>570</ele><time>2022-03-19T12:57:30Z</time><name>PT5978</name></trkpt>
<trkpt lat="53.362212" lon="-1.874646"><ele>570</ele><time>2022-03-19T12:57:35Z</time><name>PT5979</name></trkpt>
<trkpt lat="53.362187" lon="-1.874606"><ele>569</ele><time>2022-03-19T12:57:38Z</time><name>PT5980</name></trkpt>
<trkpt lat="53.362150" lon="-1.874555"><ele>568</ele><time>2022-03-19T12:57:42Z</time><name>PT5981</name></trkpt>
<trkpt lat="53.362119" lon="-1.874521"><ele>568</ele><time>2022-03-19T12:57:45Z</time><name>PT5982</name></trkpt>
<trkpt lat="53.362090" lon="-1.874490"><ele>567</ele><time>2022-03-19T12:57:48Z</time><name>PT5983</name></trkpt>
<trkpt lat="53.362057" lon="-1.874439"><ele>566</ele><time>2022-03-19T12:57:51Z</time><name>PT5984</name></trkpt>
<trkpt lat="53.362035" lon="-1.874390"><ele>566</ele><time>2022-03-19T12:57:54Z</time><name>PT5985</name></trkpt>
<trkpt lat="53.362003" lon="-1.874327"><ele>564</ele><time>2022-03-19T12:57:59Z</time><name>PT5986</name></trkpt>
<trkpt lat="53.361975" lon="-1.874283"><ele>564</ele><time>2022-03-19T12:58:02Z</time><name>PT5987</name></trkpt>
<trkpt lat="53.361944" lon="-1.874240"><ele>564</ele><time>2022-03-19T12:58:05Z</time><name>PT5988</name></trkpt>
<trkpt lat="53.361904" lon="-1.874189"><ele>564</ele><time>2022-03-19T12:58:09Z</time><name>PT5989</name></trkpt>
<trkpt lat="53.361880" lon="-1.874141"><ele>562</ele><time>2022-03-19T12:58:12Z</time><name>PT5990</name></trkpt>
<trkpt lat="53.361848" lon="-1.874065"><ele>563</ele><time>2022-03-19T12:58:15Z</time><name>PT5991</name></trkpt>
<trkpt lat="53.361813" lon="-1.874010"><ele>563</ele><time>2022-03-19T12:58:20Z</time><name>PT5992</name></trkpt>
<trkpt lat="53.361784" lon="-1.873931"><ele>562</ele><time>2022-03-19T12:58:24Z</time><name>PT5993</name></trkpt>
<trkpt lat="53.361765" lon="-1.873872"><ele>561</ele><time>2022-03-19T12:58:27Z</time><name>PT5994</name></trkpt>
<trkpt lat="53.361746" lon="-1.873825"><ele>561</ele><time>2022-03-19T12:58:30Z</time><name>PT5995</name></trkpt>
<trkpt lat="53.361720" lon="-1.873754"><ele>560</ele><time>2022-03-19T12:58:33Z</time><name>PT5996</name></trkpt>
<trkpt lat="53.361702" lon="-1.873695"><ele>561</ele><time>2022-03-19T12:58:36Z</time><name>PT5997</name></trkpt>
<trkpt lat="53.361684" lon="-1.873646"><ele>561</ele><time>2022-03-19T12:58:39Z</time><name>PT5998</name></trkpt>
<trkpt lat="53.361653" lon="-1.873568"><ele>560</ele><time>2022-03-19T12:58:44Z</time><name>PT5999</name></trkpt>
<trkpt lat="53.361617" lon="-1.873497"><ele>561</ele><time>2022-03-19T12:58:48Z</time><name>PT6000</name></trkpt>
<trkpt lat="53.361591" lon="-1.873417"><ele>560</ele><time>2022-03-19T12:58:51Z</time><name>PT6001</name></trkpt>
<trkpt lat="53.361577" lon="-1.873334"><ele>560</ele><time>2022-03-19T12:58:56Z</time><name>PT6002</name></trkpt>
<trkpt lat="53.361561" lon="-1.873257"><ele>559</ele><time>2022-03-19T12:59:00Z</time><name>PT6003</name></trkpt>
<trkpt lat="53.361543" lon="-1.873194"><ele>558</ele><time>2022-03-19T12:59:03Z</time><name>PT6004</name></trkpt>
<trkpt lat="53.361524" lon="-1.873137"><ele>557</ele><time>2022-03-19T12:59:06Z</time><name>PT6005</name></trkpt>
<trkpt lat="53.361504" lon="-1.873080"><ele>555</ele><time>2022-03-19T12:59:09Z</time><name>PT6006</name></trkpt>
<trkpt lat="53.361475" lon="-1.873010"><ele>553</ele><time>2022-03-19T12:59:12Z</time><name>PT6007</name></trkpt>
<trkpt lat="53.361452" lon="-1.872956"><ele>554</ele><time>2022-03-19T12:59:15Z</time><name>PT6008</name></trkpt>
<trkpt lat="53.361415" lon="-1.872878"><ele>554</ele><time>2022-03-19T12:59:20Z</time><name>PT6009</name></trkpt>
<trkpt lat="53.361375" lon="-1.872820"><ele>553</ele><time>2022-03-19T12:59:24Z</time><name>PT6010</name></trkpt>
<trkpt lat="53.361354" lon="-1.872771"><ele>551</ele><time>2022-03-19T12:59:27Z</time><name>PT6011</name></trkpt>
<trkpt lat="53.361341" lon="-1.872709"><ele>552</ele><time>2022-03-19T12:59:30Z</time><name>PT6012</name></trkpt>
<trkpt lat="53.361359" lon="-1.872656"><ele>551</ele><time>2022-03-19T12:59:33Z</time><name>PT6013</name></trkpt>
<trkpt lat="53.361358" lon="-1.872568"><ele>551</ele><time>2022-03-19T12:59:36Z</time><name>PT6014</name></trkpt>
<trkpt lat="53.361352" lon="-1.872514"><ele>552</ele><time>2022-03-19T12:59:39Z</time><name>PT6015</name></trkpt>
<trkpt lat="53.361334" lon="-1.872457"><ele>551</ele><time>2022-03-19T12:59:42Z</time><name>PT6016</name></trkpt>
<trkpt lat="53.361303" lon="-1.872380"><ele>550</ele><time>2022-03-19T12:59:47Z</time><name>PT6017</name></trkpt>
<trkpt lat="53.361281" lon="-1.872346"><ele>550</ele><time>2022-03-19T12:59:50Z</time><name>PT6018</name></trkpt>
<trkpt lat="53.361277" lon="-1.872334"><ele>551</ele><time>2022-03-19T12:59:53Z</time><name>PT6019</name></trkpt>
<trkpt lat="53.361217" lon="-1.872273"><ele>549</ele><time>2022-03-19T12:59:57Z</time><name>PT6020</name></trkpt>
<trkpt lat="53.361180" lon="-1.872261"><ele>550</ele><time>2022-03-19T13:00:00Z</time><name>PT6021</name></trkpt>
<trkpt lat="53.361139" lon="-1.872214"><ele>550</ele><time>2022-03-19T13:00:03Z</time><name>PT6022</name></trkpt>
<trkpt lat="53.361111" lon="-1.872150"><ele>549</ele><time>2022-03-19T13:00:08Z</time><name>PT6023</name></trkpt>
<trkpt lat="53.361105" lon="-1.872095"><ele>548</ele><time>2022-03-19T13:00:11Z</time><name>PT6024</name></trkpt>
<trkpt lat="53.361083" lon="-1.872016"><ele>547</ele><time>2022-03-19T13:00:15Z</time><name>PT6025</name></trkpt>
<trkpt lat="53.361060" lon="-1.871939"><ele>547</ele><time>2022-03-19T13:00:18Z</time><name>PT6026</name></trkpt>
<trkpt lat="53.361034" lon="-1.871864"><ele>545</ele><time>2022-03-19T13:00:23Z</time><name>PT6027</name></trkpt>
<trkpt lat="53.360998" lon="-1.871793"><ele>546</ele><time>2022-03-19T13:00:27Z</time><name>PT6028</name></trkpt>
<trkpt lat="53.360967" lon="-1.871721"><ele>545</ele><time>2022-03-19T13:00:30Z</time><name>PT6029</name></trkpt>
<trkpt lat="53.360940" lon="-1.871649"><ele>546</ele><time>2022-03-19T13:00:35Z</time><name>PT6030</name></trkpt>
<trkpt lat="53.360919" lon="-1.871590"><ele>544</ele><time>2022-03-19T13:00:38Z</time><name>PT6031</name></trkpt>
<trkpt lat="53.360887" lon="-1.871519"><ele>543</ele><time>2022-03-19T13:00:42Z</time><name>PT6032</name></trkpt>
<trkpt lat="53.360862" lon="-1.871473"><ele>543</ele><time>2022-03-19T13:00:45Z</time><name>PT6033</name></trkpt>
<trkpt lat="53.360845" lon="-1.871456"><ele>545</ele><time>2022-03-19T13:00:48Z</time><name>PT6034</name></trkpt>
<trkpt lat="53.360805" lon="-1.871386"><ele>544</ele><time>2022-03-19T13:00:51Z</time><name>PT6035</name></trkpt>
<trkpt lat="53.360781" lon="-1.871334"><ele>544</ele><time>2022-03-19T13:00:54Z</time><name>PT6036</name></trkpt>
<trkpt lat="53.360747" lon="-1.871251"><ele>544</ele><time>2022-03-19T13:00:59Z</time><name>PT6037</name></trkpt>
<trkpt lat="53.360725" lon="-1.871190"><ele>545</ele><time>2022-03-19T13:01:02Z</time><name>PT6038</name></trkpt>
<trkpt lat="53.360693" lon="-1.871109"><ele>546</ele><time>2022-03-19T13:01:06Z</time><name>PT6039</name></trkpt>
<trkpt lat="53.360674" lon="-1.871059"><ele>547</ele><time>2022-03-19T13:01:09Z</time><name>PT6040</name></trkpt>
<trkpt lat="53.360643" lon="-1.870980"><ele>546</ele><time>2022-03-19T13:01:12Z</time><name>PT6041</name></trkpt>
<trkpt lat="53.360605" lon="-1.870909"><ele>545</ele><time>2022-03-19T13:01:17Z</time><name>PT6042</name></trkpt>
<trkpt lat="53.360570" lon="-1.870840"><ele>545</ele><time>2022-03-19T13:01:21Z</time><name>PT6043</name></trkpt>
<trkpt lat="53.360539" lon="-1.870795"><ele>545</ele><time>2022-03-19T13:01:24Z</time><name>PT6044</name></trkpt>
<trkpt lat="53.360515" lon="-1.870770"><ele>545</ele><time>2022-03-19T13:01:27Z</time><name>PT6045</name></trkpt>
<trkpt lat="53.360464" lon="-1.870745"><ele>544</ele><time>2022-03-19T13:01:32Z</time><name>PT6046</name></trkpt>
<trkpt lat="53.360429" lon="-1.870728"><ele>544</ele><time>2022-03-19T13:01:35Z</time><name>PT6047</name></trkpt>
<trkpt lat="53.360385" lon="-1.870680"><ele>544</ele><time>2022-03-19T13:01:39Z</time><name>PT6048</name></trkpt>
<trkpt lat="53.360349" lon="-1.870630"><ele>543</ele><time>2022-03-19T13:01:42Z</time><name>PT6049</name></trkpt>
<trkpt lat="53.360318" lon="-1.870568"><ele>542</ele><time>2022-03-19T13:01:47Z</time><name>PT6050</name></trkpt>
<trkpt lat="53.360277" lon="-1.870504"><ele>541</ele><time>2022-03-19T13:01:51Z</time><name>PT6051</name></trkpt>
<trkpt lat="53.360237" lon="-1.870442"><ele>541</ele><time>2022-03-19T13:01:54Z</time><name>PT6052</name></trkpt>
<trkpt lat="53.360204" lon="-1.870374"><ele>540</ele><time>2022-03-19T13:01:59Z</time><name>PT6053</name></trkpt>
<trkpt lat="53.360167" lon="-1.870313"><ele>540</ele><time>2022-03-19T13:02:03Z</time><name>PT6054</name></trkpt>
<trkpt lat="53.360140" lon="-1.870268"><ele>540</ele><time>2022-03-19T13:02:06Z</time><name>PT6055</name></trkpt>
<trkpt lat="53.360108" lon="-1.870207"><ele>540</ele><time>2022-03-19T13:02:09Z</time><name>PT6056</name></trkpt>
<trkpt lat="53.360080" lon="-1.870158"><ele>540</ele><time>2022-03-19T13:02:12Z</time><name>PT6057</name></trkpt>
<trkpt lat="53.360041" lon="-1.870100"><ele>539</ele><time>2022-03-19T13:02:17Z</time><name>PT6058</name></trkpt>
<trkpt lat="53.360005" lon="-1.870038"><ele>539</ele><time>2022-03-19T13:02:21Z</time><name>PT6059</name></trkpt>
<trkpt lat="53.359976" lon="-1.869990"><ele>539</ele><time>2022-03-19T13:02:24Z</time><name>PT6060</name></trkpt>
<trkpt lat="53.359955" lon="-1.869937"><ele>539</ele><time>2022-03-19T13:02:27Z</time><name>PT6061</name></trkpt>
<trkpt lat="53.359938" lon="-1.869886"><ele>538</ele><time>2022-03-19T13:02:30Z</time><name>PT6062</name></trkpt>
<trkpt lat="53.359914" lon="-1.869813"><ele>537</ele><time>2022-03-19T13:02:33Z</time><name>PT6063</name></trkpt>
<trkpt lat="53.359889" lon="-1.869748"><ele>538</ele><time>2022-03-19T13:02:36Z</time><name>PT6064</name></trkpt>
<trkpt lat="53.359856" lon="-1.869675"><ele>538</ele><time>2022-03-19T13:02:41Z</time><name>PT6065</name></trkpt>
<trkpt lat="53.359832" lon="-1.869626"><ele>538</ele><time>2022-03-19T13:02:44Z</time><name>PT6066</name></trkpt>
<trkpt lat="53.359801" lon="-1.869584"><ele>537</ele><time>2022-03-19T13:02:47Z</time><name>PT6067</name></trkpt>
<trkpt lat="53.359762" lon="-1.869533"><ele>537</ele><time>2022-03-19T13:02:51Z</time><name>PT6068</name></trkpt>
<trkpt lat="53.359711" lon="-1.869481"><ele>537</ele><time>2022-03-19T13:02:54Z</time><name>PT6069</name></trkpt>
<trkpt lat="53.359663" lon="-1.869451"><ele>537</ele><time>2022-03-19T13:02:59Z</time><name>PT6070</name></trkpt>
<trkpt lat="53.359610" lon="-1.869428"><ele>537</ele><time>2022-03-19T13:03:03Z</time><name>PT6071</name></trkpt>
<trkpt lat="53.359576" lon="-1.869409"><ele>537</ele><time>2022-03-19T13:03:06Z</time><name>PT6072</name></trkpt>
<trkpt lat="53.359543" lon="-1.869371"><ele>537</ele><time>2022-03-19T13:03:09Z</time><name>PT6073</name></trkpt>
<trkpt lat="53.359512" lon="-1.869315"><ele>536</ele><time>2022-03-19T13:03:12Z</time><name>PT6074</name></trkpt>
<trkpt lat="53.359488" lon="-1.869267"><ele>536</ele><time>2022-03-19T13:03:15Z</time><name>PT6075</name></trkpt>
<trkpt lat="53.359445" lon="-1.869214"><ele>536</ele><time>2022-03-19T13:03:20Z</time><name>PT6076</name></trkpt>
<trkpt lat="53.359395" lon="-1.869193"><ele>536</ele><time>2022-03-19T13:03:24Z</time><name>PT6077</name></trkpt>
<trkpt lat="53.359345" lon="-1.869147"><ele>537</ele><time>2022-03-19T13:03:27Z</time><name>PT6078</name></trkpt>
<trkpt lat="53.359310" lon="-1.869089"><ele>536</ele><time>2022-03-19T13:03:32Z</time><name>PT6079</name></trkpt>
<trkpt lat="53.359277" lon="-1.869048"><ele>537</ele><time>2022-03-19T13:03:35Z</time><name>PT6080</name></trkpt>
<trkpt lat="53.359233" lon="-1.869028"><ele>537</ele><time>2022-03-19T13:03:38Z</time><name>PT6081</name></trkpt>
<trkpt lat="53.359188" lon="-1.869020"><ele>537</ele><time>2022-03-19T13:03:42Z</time><name>PT6082</name></trkpt>
<trkpt lat="53.359155" lon="-1.869017"><ele>537</ele><time>2022-03-19T13:03:45Z</time><name>PT6083</name></trkpt>
<trkpt lat="53.359112" lon="-1.868998"><ele>537</ele><time>2022-03-19T13:03:48Z</time><name>PT6084</name></trkpt>
<trkpt lat="53.359080" lon="-1.868982"><ele>538</ele><time>2022-03-19T13:03:51Z</time><name>PT6085</name></trkpt>
<trkpt lat="53.359049" lon="-1.868972"><ele>537</ele><time>2022-03-19T13:03:54Z</time><name>PT6086</name></trkpt>
<trkpt lat="53.359006" lon="-1.868945"><ele>538</ele><time>2022-03-19T13:03:59Z</time><name>PT6087</name></trkpt>
<trkpt lat="53.358976" lon="-1.868923"><ele>538</ele><time>2022-03-19T13:04:02Z</time><name>PT6088</name></trkpt>
<trkpt lat="53.358944" lon="-1.868894"><ele>538</ele><time>2022-03-19T13:04:05Z</time><name>PT6089</name></trkpt>
<trkpt lat="53.358905" lon="-1.868850"><ele>537</ele><time>2022-03-19T13:04:09Z</time><name>PT6090</name></trkpt>
<trkpt lat="53.358875" lon="-1.868818"><ele>538</ele><time>2022-03-19T13:04:12Z</time><name>PT6091</name></trkpt>
<trkpt lat="53.358833" lon="-1.868774"><ele>538</ele><time>2022-03-19T13:04:15Z</time><name>PT6092</name></trkpt>
<trkpt lat="53.358804" lon="-1.868743"><ele>538</ele><time>2022-03-19T13:04:18Z</time><name>PT6093</name></trkpt>
<trkpt lat="53.358773" lon="-1.868713"><ele>539</ele><time>2022-03-19T13:04:21Z</time><name>PT6094</name></trkpt>
<trkpt lat="53.358731" lon="-1.868684"><ele>539</ele><time>2022-03-19T13:04:26Z</time><name>PT6095</name></trkpt>
<trkpt lat="53.358697" lon="-1.868641"><ele>539</ele><time>2022-03-19T13:04:30Z</time><name>PT6096</name></trkpt>
<trkpt lat="53.358665" lon="-1.868600"><ele>539</ele><time>2022-03-19T13:04:33Z</time><name>PT6097</name></trkpt>
<trkpt lat="53.358635" lon="-1.868558"><ele>539</ele><time>2022-03-19T13:04:36Z</time><name>PT6098</name></trkpt>
<trkpt lat="53.358594" lon="-1.868507"><ele>539</ele><time>2022-03-19T13:04:39Z</time><name>PT6099</name></trkpt>
<trkpt lat="53.358559" lon="-1.868473"><ele>540</ele><time>2022-03-19T13:04:42Z</time><name>PT6100</name></trkpt>
<trkpt lat="53.358523" lon="-1.868451"><ele>540</ele><time>2022-03-19T13:04:45Z</time><name>PT6101</name></trkpt>
<trkpt lat="53.358489" lon="-1.868433"><ele>540</ele><time>2022-03-19T13:04:48Z</time><name>PT6102</name></trkpt>
<trkpt lat="53.358459" lon="-1.868413"><ele>540</ele><time>2022-03-19T13:04:51Z</time><name>PT6103</name></trkpt>
<trkpt lat="53.358414" lon="-1.868392"><ele>540</ele><time>2022-03-19T13:04:56Z</time><name>PT6104</name></trkpt>
<trkpt lat="53.358363" lon="-1.868373"><ele>541</ele><time>2022-03-19T13:05:00Z</time><name>PT6105</name></trkpt>
<trkpt lat="53.358327" lon="-1.868348"><ele>541</ele><time>2022-03-19T13:05:03Z</time><name>PT6106</name></trkpt>
<trkpt lat="53.358284" lon="-1.868309"><ele>540</ele><time>2022-03-19T13:05:06Z</time><name>PT6107</name></trkpt>
<trkpt lat="53.358240" lon="-1.868267"><ele>540</ele><time>2022-03-19T13:05:11Z</time><name>PT6108</name></trkpt>
<trkpt lat="53.358206" lon="-1.868235"><ele>539</ele><time>2022-03-19T13:05:14Z</time><name>PT6109</name></trkpt>
<trkpt lat="53.358164" lon="-1.868191"><ele>539</ele><time>2022-03-19T13:05:18Z</time><name>PT6110</name></trkpt>
<trkpt lat="53.358120" lon="-1.868144"><ele>539</ele><time>2022-03-19T13:05:21Z</time><name>PT6111</name></trkpt>
<trkpt lat="53.358074" lon="-1.868110"><ele>539</ele><time>2022-03-19T13:05:26Z</time><name>PT6112</name></trkpt>
<trkpt lat="53.358024" lon="-1.868088"><ele>539</ele><time>2022-03-19T13:05:30Z</time><name>PT6113</name></trkpt>
<trkpt lat="53.357988" lon="-1.868079"><ele>539</ele><time>2022-03-19T13:05:33Z</time><name>PT6114</name></trkpt>
<trkpt lat="53.357936" lon="-1.868076"><ele>541</ele><time>2022-03-19T13:05:36Z</time><name>PT6115</name></trkpt>
<trkpt lat="53.357900" lon="-1.868060"><ele>541</ele><time>2022-03-19T13:05:39Z</time><name>PT6116</name></trkpt>
<trkpt lat="53.357859" lon="-1.868024"><ele>541</ele><time>2022-03-19T13:05:44Z</time><name>PT6117</name></trkpt>
<trkpt lat="53.357812" lon="-1.867979"><ele>541</ele><time>2022-03-19T13:05:48Z</time><name>PT6118</name></trkpt>
<trkpt lat="53.357780" lon="-1.867949"><ele>540</ele><time>2022-03-19T13:05:51Z</time><name>PT6119</name></trkpt>
<trkpt lat="53.357735" lon="-1.867905"><ele>540</ele><time>2022-03-19T13:05:54Z</time><name>PT6120</name></trkpt>
<trkpt lat="53.357711" lon="-1.867865"><ele>540</ele><time>2022-03-19T13:05:57Z</time><name>PT6121</name></trkpt>
<trkpt lat="53.357673" lon="-1.867804"><ele>540</ele><time>2022-03-19T13:06:02Z</time><name>PT6122</name></trkpt>
<trkpt lat="53.357643" lon="-1.867774"><ele>540</ele><time>2022-03-19T13:06:05Z</time><name>PT6123</name></trkpt>
<trkpt lat="53.357611" lon="-1.867748"><ele>541</ele><time>2022-03-19T13:06:08Z</time><name>PT6124</name></trkpt>
<trkpt lat="53.357569" lon="-1.867714"><ele>541</ele><time>2022-03-19T13:06:12Z</time><name>PT6125</name></trkpt>
<trkpt lat="53.357530" lon="-1.867671"><ele>540</ele><time>2022-03-19T13:06:15Z</time><name>PT6126</name></trkpt>
<trkpt lat="53.357493" lon="-1.867642"><ele>539</ele><time>2022-03-19T13:06:18Z</time><name>PT6127</name></trkpt>
<trkpt lat="53.357460" lon="-1.867616"><ele>539</ele><time>2022-03-19T13:06:21Z</time><name>PT6128</name></trkpt>
<trkpt lat="53.357424" lon="-1.867601"><ele>539</ele><time>2022-03-19T13:06:24Z</time><name>PT6129</name></trkpt>
<trkpt lat="53.357382" lon="-1.867585"><ele>539</ele><time>2022-03-19T13:06:27Z</time><name>PT6130</name></trkpt>
<trkpt lat="53.357327" lon="-1.867564"><ele>539</ele><time>2022-03-19T13:06:32Z</time><name>PT6131</name></trkpt>
<trkpt lat="53.357292" lon="-1.867553"><ele>539</ele><time>2022-03-19T13:06:35Z</time><name>PT6132</name></trkpt>
<trkpt lat="53.357242" lon="-1.867536"><ele>539</ele><time>2022-03-19T13:06:39Z</time><name>PT6133</name></trkpt>
<trkpt lat="53.357207" lon="-1.867506"><ele>538</ele><time>2022-03-19T13:06:42Z</time><name>PT6134</name></trkpt>
<trkpt lat="53.357161" lon="-1.867462"><ele>538</ele><time>2022-03-19T13:06:45Z</time><name>PT6135</name></trkpt>
<trkpt lat="53.357126" lon="-1.867429"><ele>538</ele><time>2022-03-19T13:06:48Z</time><name>PT6136</name></trkpt>
<trkpt lat="53.357089" lon="-1.867397"><ele>538</ele><time>2022-03-19T13:06:51Z</time><name>PT6137</name></trkpt>
<trkpt lat="53.357037" lon="-1.867346"><ele>537</ele><time>2022-03-19T13:06:56Z</time><name>PT6138</name></trkpt>
<trkpt lat="53.357004" lon="-1.867316"><ele>537</ele><time>2022-03-19T13:06:59Z</time><name>PT6139</name></trkpt>
<trkpt lat="53.356959" lon="-1.867293"><ele>536</ele><time>2022-03-19T13:07:02Z</time><name>PT6140</name></trkpt>
<trkpt lat="53.356907" lon="-1.867279"><ele>536</ele><time>2022-03-19T13:07:06Z</time><name>PT6141</name></trkpt>
<trkpt lat="53.356866" lon="-1.867275"><ele>536</ele><time>2022-03-19T13:07:09Z</time><name>PT6142</name></trkpt>
<trkpt lat="53.356827" lon="-1.867267"><ele>536</ele><time>2022-03-19T13:07:12Z</time><name>PT6143</name></trkpt>
<trkpt lat="53.356776" lon="-1.867253"><ele>535</ele><time>2022-03-19T13:07:15Z</time><name>PT6144</name></trkpt>
<trkpt lat="53.356727" lon="-1.867221"><ele>535</ele><time>2022-03-19T13:07:20Z</time><name>PT6145</name></trkpt>
<trkpt lat="53.356682" lon="-1.867174"><ele>535</ele><time>2022-03-19T13:07:24Z</time><name>PT6146</name></trkpt>
<trkpt lat="53.356653" lon="-1.867136"><ele>535</ele><time>2022-03-19T13:07:27Z</time><name>PT6147</name></trkpt>
<trkpt lat="53.356622" lon="-1.867089"><ele>535</ele><time>2022-03-19T13:07:30Z</time><name>PT6148</name></trkpt>
<trkpt lat="53.356591" lon="-1.867046"><ele>535</ele><time>2022-03-19T13:07:33Z</time><name>PT6149</name></trkpt>
<trkpt lat="53.356559" lon="-1.866994"><ele>536</ele><time>2022-03-19T13:07:36Z</time><name>PT6150</name></trkpt>
<trkpt lat="53.356525" lon="-1.866952"><ele>536</ele><time>2022-03-19T13:07:39Z</time><name>PT6151</name></trkpt>
<trkpt lat="53.356492" lon="-1.866893"><ele>537</ele><time>2022-03-19T13:07:44Z</time><name>PT6152</name></trkpt>
<trkpt lat="53.356454" lon="-1.866850"><ele>536</ele><time>2022-03-19T13:07:47Z</time><name>PT6153</name></trkpt>
<trkpt lat="53.356418" lon="-1.866817"><ele>536</ele><time>2022-03-19T13:07:50Z</time><name>PT6154</name></trkpt>
<trkpt lat="53.356373" lon="-1.866769"><ele>536</ele><time>2022-03-19T13:07:54Z</time><name>PT6155</name></trkpt>
<trkpt lat="53.356340" lon="-1.866738"><ele>535</ele><time>2022-03-19T13:07:57Z</time><name>PT6156</name></trkpt>
<trkpt lat="53.356290" lon="-1.866690"><ele>536</ele><time>2022-03-19T13:08:00Z</time><name>PT6157</name></trkpt>
<trkpt lat="53.356253" lon="-1.866632"><ele>534</ele><time>2022-03-19T13:08:05Z</time><name>PT6158</name></trkpt>
<trkpt lat="53.356218" lon="-1.866589"><ele>535</ele><time>2022-03-19T13:08:08Z</time><name>PT6159</name></trkpt>
<trkpt lat="53.356181" lon="-1.866556"><ele>534</ele><time>2022-03-19T13:08:11Z</time><name>PT6160</name></trkpt>
<trkpt lat="53.356132" lon="-1.866529"><ele>534</ele><time>2022-03-19T13:08:15Z</time><name>PT6161</name></trkpt>
<trkpt lat="53.356089" lon="-1.866511"><ele>533</ele><time>2022-03-19T13:08:18Z</time><name>PT6162</name></trkpt>
<trkpt lat="53.356051" lon="-1.866492"><ele>534</ele><time>2022-03-19T13:08:21Z</time><name>PT6163</name></trkpt>
<trkpt lat="53.356018" lon="-1.866474"><ele>534</ele><time>2022-03-19T13:08:24Z</time><name>PT6164</name></trkpt>
<trkpt lat="53.355966" lon="-1.866446"><ele>534</ele><time>2022-03-19T13:08:27Z</time><name>PT6165</name></trkpt>
<trkpt lat="53.355930" lon="-1.866413"><ele>533</ele><time>2022-03-19T13:08:30Z</time><name>PT6166</name></trkpt>
<trkpt lat="53.355896" lon="-1.866378"><ele>533</ele><time>2022-03-19T13:08:33Z</time><name>PT6167</name></trkpt>
<trkpt lat="53.355853" lon="-1.866337"><ele>532</ele><time>2022-03-19T13:08:38Z</time><name>PT6168</name></trkpt>
<trkpt lat="53.355809" lon="-1.866288"><ele>531</ele><time>2022-03-19T13:08:42Z</time><name>PT6169</name></trkpt>
<trkpt lat="53.355775" lon="-1.866262"><ele>530</ele><time>2022-03-19T13:08:45Z</time><name>PT6170</name></trkpt>
<trkpt lat="53.355737" lon="-1.866240"><ele>530</ele><time>2022-03-19T13:08:48Z</time><name>PT6171</name></trkpt>
<trkpt lat="53.355690" lon="-1.866209"><ele>529</ele><time>2022-03-19T13:08:51Z</time><name>PT6172</name></trkpt>
<trkpt lat="53.355654" lon="-1.866192"><ele>530</ele><time>2022-03-19T13:08:54Z</time><name>PT6173</name></trkpt>
<trkpt lat="53.355616" lon="-1.866169"><ele>529</ele><time>2022-03-19T13:08:57Z</time><name>PT6174</name></trkpt>
<trkpt lat="53.355564" lon="-1.866140"><ele>528</ele><time>2022-03-19T13:09:02Z</time><name>PT6175</name></trkpt>
<trkpt lat="53.355527" lon="-1.866104"><ele>528</ele><time>2022-03-19T13:09:05Z</time><name>PT6176</name></trkpt>
<trkpt lat="53.355494" lon="-1.866070"><ele>528</ele><time>2022-03-19T13:09:08Z</time><name>PT6177</name></trkpt>
<trkpt lat="53.355449" lon="-1.866014"><ele>529</ele><time>2022-03-19T13:09:12Z</time><name>PT6178</name></trkpt>
<trkpt lat="53.355416" lon="-1.865978"><ele>529</ele><time>2022-03-19T13:09:15Z</time><name>PT6179</name></trkpt>
<trkpt lat="53.355371" lon="-1.865935"><ele>529</ele><time>2022-03-19T13:09:18Z</time><name>PT6180</name></trkpt>
<trkpt lat="53.355322" lon="-1.865900"><ele>529</ele><time>2022-03-19T13:09:23Z</time><name>PT6181</name></trkpt>
<trkpt lat="53.355284" lon="-1.865876"><ele>528</ele><time>2022-03-19T13:09:26Z</time><name>PT6182</name></trkpt>
<trkpt lat="53.355239" lon="-1.865838"><ele>528</ele><time>2022-03-19T13:09:30Z</time><name>PT6183</name></trkpt>
<trkpt lat="53.355195" lon="-1.865787"><ele>528</ele><time>2022-03-19T13:09:33Z</time><name>PT6184</name></trkpt>
<trkpt lat="53.355155" lon="-1.865742"><ele>527</ele><time>2022-03-19T13:09:38Z</time><name>PT6185</name></trkpt>
<trkpt lat="53.355112" lon="-1.865702"><ele>526</ele><time>2022-03-19T13:09:42Z</time><name>PT6186</name></trkpt>
<trkpt lat="53.355079" lon="-1.865674"><ele>525</ele><time>2022-03-19T13:09:45Z</time><name>PT6187</name></trkpt>
<trkpt lat="53.355048" lon="-1.865657"><ele>525</ele><time>2022-03-19T13:09:48Z</time><name>PT6188</name></trkpt>
<trkpt lat="53.355012" lon="-1.865634"><ele>524</ele><time>2022-03-19T13:09:51Z</time><name>PT6189</name></trkpt>
<trkpt lat="53.354966" lon="-1.865602"><ele>524</ele><time>2022-03-19T13:09:54Z</time><name>PT6190</name></trkpt>
<trkpt lat="53.354933" lon="-1.865574"><ele>524</ele><time>2022-03-19T13:09:57Z</time><name>PT6191</name></trkpt>
<trkpt lat="53.354895" lon="-1.865544"><ele>524</ele><time>2022-03-19T13:10:02Z</time><name>PT6192</name></trkpt>
<trkpt lat="53.354857" lon="-1.865490"><ele>524</ele><time>2022-03-19T13:10:06Z</time><name>PT6193</name></trkpt>
<trkpt lat="53.354828" lon="-1.865447"><ele>524</ele><time>2022-03-19T13:10:09Z</time><name>PT6194</name></trkpt>
<trkpt lat="53.354792" lon="-1.865402"><ele>524</ele><time>2022-03-19T13:10:12Z</time><name>PT6195</name></trkpt>
<trkpt lat="53.354742" lon="-1.865371"><ele>523</ele><time>2022-03-19T13:10:15Z</time><name>PT6196</name></trkpt>
<trkpt lat="53.354690" lon="-1.865341"><ele>523</ele><time>2022-03-19T13:10:20Z</time><name>PT6197</name></trkpt>
<trkpt lat="53.354654" lon="-1.865309"><ele>523</ele><time>2022-03-19T13:10:23Z</time><name>PT6198</name></trkpt>
<trkpt lat="53.354620" lon="-1.865271"><ele>523</ele><time>2022-03-19T13:10:26Z</time><name>PT6199</name></trkpt>
<trkpt lat="53.354583" lon="-1.865237"><ele>523</ele><time>2022-03-19T13:10:29Z</time><name>PT6200</name></trkpt>
<trkpt lat="53.354541" lon="-1.865188"><ele>523</ele><time>2022-03-19T13:10:33Z</time><name>PT6201</name></trkpt>
<trkpt lat="53.354510" lon="-1.865118"><ele>522</ele><time>2022-03-19T13:10:36Z</time><name>PT6202</name></trkpt>
<trkpt lat="53.354489" lon="-1.865066"><ele>523</ele><time>2022-03-19T13:10:39Z</time><name>PT6203</name></trkpt>
<trkpt lat="53.354467" lon="-1.865003"><ele>523</ele><time>2022-03-19T13:10:44Z</time><name>PT6204</name></trkpt>
<trkpt lat="53.354431" lon="-1.864941"><ele>523</ele><time>2022-03-19T13:10:48Z</time><name>PT6205</name></trkpt>
<trkpt lat="53.354398" lon="-1.864902"><ele>523</ele><time>2022-03-19T13:10:51Z</time><name>PT6206</name></trkpt>
<trkpt lat="53.354363" lon="-1.864877"><ele>523</ele><time>2022-03-19T13:10:54Z</time><name>PT6207</name></trkpt>
<trkpt lat="53.354314" lon="-1.864839"><ele>523</ele><time>2022-03-19T13:10:57Z</time><name>PT6208</name></trkpt>
<trkpt lat="53.354280" lon="-1.864801"><ele>523</ele><time>2022-03-19T13:11:00Z</time><name>PT6209</name></trkpt>
<trkpt lat="53.354250" lon="-1.864764"><ele>523</ele><time>2022-03-19T13:11:03Z</time><name>PT6210</name></trkpt>
<trkpt lat="53.354211" lon="-1.864708"><ele>523</ele><time>2022-03-19T13:11:08Z</time><name>PT6211</name></trkpt>
<trkpt lat="53.354175" lon="-1.864659"><ele>523</ele><time>2022-03-19T13:11:12Z</time><name>PT6212</name></trkpt>
<trkpt lat="53.354145" lon="-1.864617"><ele>523</ele><time>2022-03-19T13:11:15Z</time><name>PT6213</name></trkpt>
<trkpt lat="53.354111" lon="-1.864579"><ele>523</ele><time>2022-03-19T13:11:18Z</time><name>PT6214</name></trkpt>
<trkpt lat="53.354071" lon="-1.864527"><ele>523</ele><time>2022-03-19T13:11:21Z</time><name>PT6215</name></trkpt>
<trkpt lat="53.354023" lon="-1.864488"><ele>523</ele><time>2022-03-19T13:11:26Z</time><name>PT6216</name></trkpt>
<trkpt lat="53.353976" lon="-1.864473"><ele>523</ele><time>2022-03-19T13:11:30Z</time><name>PT6217</name></trkpt>
<trkpt lat="53.353932" lon="-1.864472"><ele>523</ele><time>2022-03-19T13:11:33Z</time><name>PT6218</name></trkpt>
<trkpt lat="53.353881" lon="-1.864456"><ele>523</ele><time>2022-03-19T13:11:36Z</time><name>PT6219</name></trkpt>
<trkpt lat="53.353838" lon="-1.864408"><ele>523</ele><time>2022-03-19T13:11:41Z</time><name>PT6220</name></trkpt>
<trkpt lat="53.353807" lon="-1.864366"><ele>522</ele><time>2022-03-19T13:11:44Z</time><name>PT6221</name></trkpt>
<trkpt lat="53.353769" lon="-1.864319"><ele>522</ele><time>2022-03-19T13:11:48Z</time><name>PT6222</name></trkpt>
<trkpt lat="53.353744" lon="-1.864276"><ele>522</ele><time>2022-03-19T13:11:51Z</time><name>PT6223</name></trkpt>
<trkpt lat="53.353711" lon="-1.864240"><ele>522</ele><time>2022-03-19T13:11:54Z</time><name>PT6224</name></trkpt>
<trkpt lat="53.353680" lon="-1.864216"><ele>522</ele><time>2022-03-19T13:11:57Z</time><name>PT6225</name></trkpt>
<trkpt lat="53.353631" lon="-1.864181"><ele>522</ele><time>2022-03-19T13:12:00Z</time><name>PT6226</name></trkpt>
<trkpt lat="53.353598" lon="-1.864153"><ele>522</ele><time>2022-03-19T13:12:03Z</time><name>PT6227</name></trkpt>
<trkpt lat="53.353562" lon="-1.864129"><ele>522</ele><time>2022-03-19T13:12:06Z</time><name>PT6228</name></trkpt>
<trkpt lat="53.353514" lon="-1.864107"><ele>523</ele><time>2022-03-19T13:12:11Z</time><name>PT6229</name></trkpt>
<trkpt lat="53.353473" lon="-1.864085"><ele>524</ele><time>2022-03-19T13:12:15Z</time><name>PT6230</name></trkpt>
<trkpt lat="53.353443" lon="-1.864060"><ele>524</ele><time>2022-03-19T13:12:18Z</time><name>PT6231</name></trkpt>
<trkpt lat="53.353416" lon="-1.864024"><ele>524</ele><time>2022-03-19T13:12:21Z</time><name>PT6232</name></trkpt>
<trkpt lat="53.353386" lon="-1.863988"><ele>524</ele><time>2022-03-19T13:12:24Z</time><name>PT6233</name></trkpt>
<trkpt lat="53.353357" lon="-1.863948"><ele>523</ele><time>2022-03-19T13:12:27Z</time><name>PT6234</name></trkpt>
<trkpt lat="53.353312" lon="-1.863910"><ele>523</ele><time>2022-03-19T13:12:30Z</time><name>PT6235</name></trkpt>
<trkpt lat="53.353263" lon="-1.863870"><ele>523</ele><time>2022-03-19T13:12:35Z</time><name>PT6236</name></trkpt>
<trkpt lat="53.353224" lon="-1.863830"><ele>523</ele><time>2022-03-19T13:12:39Z</time><name>PT6237</name></trkpt>
<trkpt lat="53.353195" lon="-1.863795"><ele>523</ele><time>2022-03-19T13:12:42Z</time><name>PT6238</name></trkpt>
<trkpt lat="53.353156" lon="-1.863744"><ele>523</ele><time>2022-03-19T13:12:45Z</time><name>PT6239</name></trkpt>
<trkpt lat="53.353132" lon="-1.863705"><ele>523</ele><time>2022-03-19T13:12:48Z</time><name>PT6240</name></trkpt>
<trkpt lat="53.353096" lon="-1.863657"><ele>523</ele><time>2022-03-19T13:12:53Z</time><name>PT6241</name></trkpt>
<trkpt lat="53.353068" lon="-1.863626"><ele>522</ele><time>2022-03-19T13:12:56Z</time><name>PT6242</name></trkpt>
<trkpt lat="53.353036" lon="-1.863611"><ele>522</ele><time>2022-03-19T13:12:59Z</time><name>PT6243</name></trkpt>
<trkpt lat="53.353006" lon="-1.863587"><ele>523</ele><time>2022-03-19T13:13:02Z</time><name>PT6244</name></trkpt>
<trkpt lat="53.352967" lon="-1.863536"><ele>522</ele><time>2022-03-19T13:13:06Z</time><name>PT6245</name></trkpt>
<trkpt lat="53.352931" lon="-1.863475"><ele>522</ele><time>2022-03-19T13:13:09Z</time><name>PT6246</name></trkpt>
<trkpt lat="53.352905" lon="-1.863425"><ele>522</ele><time>2022-03-19T13:13:12Z</time><name>PT6247</name></trkpt>
<trkpt lat="53.352869" lon="-1.863379"><ele>522</ele><time>2022-03-19T13:13:17Z</time><name>PT6248</name></trkpt>
<trkpt lat="53.352832" lon="-1.863342"><ele>523</ele><time>2022-03-19T13:13:21Z</time><name>PT6249</name></trkpt>
<trkpt lat="53.352807" lon="-1.863302"><ele>523</ele><time>2022-03-19T13:13:24Z</time><name>PT6250</name></trkpt>
<trkpt lat="53.352780" lon="-1.863254"><ele>523</ele><time>2022-03-19T13:13:27Z</time><name>PT6251</name></trkpt>
<trkpt lat="53.352749" lon="-1.863210"><ele>523</ele><time>2022-03-19T13:13:30Z</time><name>PT6252</name></trkpt>
<trkpt lat="53.352708" lon="-1.863157"><ele>523</ele><time>2022-03-19T13:13:35Z</time><name>PT6253</name></trkpt>
<trkpt lat="53.352672" lon="-1.863139"><ele>522</ele><time>2022-03-19T13:13:38Z</time><name>PT6254</name></trkpt>
<trkpt lat="53.352623" lon="-1.863135"><ele>522</ele><time>2022-03-19T13:13:42Z</time><name>PT6255</name></trkpt>
<trkpt lat="53.352582" lon="-1.863127"><ele>522</ele><time>2022-03-19T13:13:45Z</time><name>PT6256</name></trkpt>
<trkpt lat="53.352553" lon="-1.863112"><ele>521</ele><time>2022-03-19T13:13:48Z</time><name>PT6257</name></trkpt>
<trkpt lat="53.352521" lon="-1.863080"><ele>521</ele><time>2022-03-19T13:13:51Z</time><name>PT6258</name></trkpt>
<trkpt lat="53.352482" lon="-1.863019"><ele>521</ele><time>2022-03-19T13:13:54Z</time><name>PT6259</name></trkpt>
<trkpt lat="53.352456" lon="-1.862966"><ele>521</ele><time>2022-03-19T13:13:57Z</time><name>PT6260</name></trkpt>
<trkpt lat="53.352427" lon="-1.862897"><ele>520</ele><time>2022-03-19T13:14:02Z</time><name>PT6261</name></trkpt>
<trkpt lat="53.352400" lon="-1.862845"><ele>520</ele><time>2022-03-19T13:14:05Z</time><name>PT6262</name></trkpt>
<trkpt lat="53.352370" lon="-1.862798"><ele>519</ele><time>2022-03-19T13:14:08Z</time><name>PT6263</name></trkpt>
<trkpt lat="53.352340" lon="-1.862753"><ele>519</ele><time>2022-03-19T13:14:11Z</time><name>PT6264</name></trkpt>
<trkpt lat="53.352313" lon="-1.862673"><ele>518</ele><time>2022-03-19T13:14:15Z</time><name>PT6265</name></trkpt>
<trkpt lat="53.352285" lon="-1.862598"><ele>517</ele><time>2022-03-19T13:14:18Z</time><name>PT6266</name></trkpt>
<trkpt lat="53.352249" lon="-1.862572"><ele>516</ele><time>2022-03-19T13:14:21Z</time><name>PT6267</name></trkpt>
<trkpt lat="53.352201" lon="-1.862542"><ele>516</ele><time>2022-03-19T13:14:26Z</time><name>PT6268</name></trkpt>
<trkpt lat="53.352167" lon="-1.862501"><ele>516</ele><time>2022-03-19T13:14:29Z</time><name>PT6269</name></trkpt>
<trkpt lat="53.352155" lon="-1.862486"><ele>516</ele><time>2022-03-19T13:14:30Z</time><name>PT6270</name></trkpt>
<trkpt lat="53.352143" lon="-1.862470"><ele>516</ele><time>2022-03-19T13:14:30Z</time><name>PT6271</name></trkpt>
<trkpt lat="53.352133" lon="-1.862457"><ele>516</ele><time>2022-03-19T13:14:32Z</time><name>PT6272</name></trkpt>
<trkpt lat="53.352123" lon="-1.862444"><ele>516</ele><time>2022-03-19T13:14:33Z</time><name>PT6273</name></trkpt>
<trkpt lat="53.352111" lon="-1.862432"><ele>516</ele><time>2022-03-19T13:14:33Z</time><name>PT6274</name></trkpt>
<trkpt lat="53.352098" lon="-1.862421"><ele>516</ele><time>2022-03-19T13:14:35Z</time><name>PT6275</name></trkpt>
<trkpt lat="53.352086" lon="-1.862411"><ele>516</ele><time>2022-03-19T13:14:36Z</time><name>PT6276</name></trkpt>
<trkpt lat="53.352074" lon="-1.862402"><ele>516</ele><time>2022-03-19T13:14:36Z</time><name>PT6277</name></trkpt>
<trkpt lat="53.352061" lon="-1.862391"><ele>516</ele><time>2022-03-19T13:14:38Z</time><name>PT6278</name></trkpt>
<trkpt lat="53.352050" lon="-1.862380"><ele>516</ele><time>2022-03-19T13:14:39Z</time><name>PT6279</name></trkpt>
<trkpt lat="53.352038" lon="-1.862369"><ele>516</ele><time>2022-03-19T13:14:39Z</time><name>PT6280</name></trkpt>
<trkpt lat="53.352027" lon="-1.862357"><ele>515</ele><time>2022-03-19T13:14:41Z</time><name>PT6281</name></trkpt>
<trkpt lat="53.352017" lon="-1.862343"><ele>515</ele><time>2022-03-19T13:14:42Z</time><name>PT6282</name></trkpt>
<trkpt lat="53.352007" lon="-1.862331"><ele>515</ele><time>2022-03-19T13:14:42Z</time><name>PT6283</name></trkpt>
<trkpt lat="53.351996" lon="-1.862315"><ele>515</ele><time>2022-03-19T13:14:44Z</time><name>PT6284</name></trkpt>
<trkpt lat="53.351985" lon="-1.862300"><ele>515</ele><time>2022-03-19T13:14:45Z</time><name>PT6285</name></trkpt>
<trkpt lat="53.351975" lon="-1.862286"><ele>515</ele><time>2022-03-19T13:14:45Z</time><name>PT6286</name></trkpt>
<trkpt lat="53.351965" lon="-1.862271"><ele>515</ele><time>2022-03-19T13:14:47Z</time><name>PT6287</name></trkpt>
<trkpt lat="53.351954" lon="-1.862257"><ele>515</ele><time>2022-03-19T13:14:48Z</time><name>PT6288</name></trkpt>
<trkpt lat="53.351945" lon="-1.862247"><ele>515</ele><time>2022-03-19T13:14:48Z</time><name>PT6289</name></trkpt>
<trkpt lat="53.351937" lon="-1.862233"><ele>515</ele><time>2022-03-19T13:14:50Z</time><name>PT6290</name></trkpt>
<trkpt lat="53.351927" lon="-1.862216"><ele>515</ele><time>2022-03-19T13:14:51Z</time><name>PT6291</name></trkpt>
<trkpt lat="53.351916" lon="-1.862201"><ele>515</ele><time>2022-03-19T13:14:51Z</time><name>PT6292</name></trkpt>
<trkpt lat="53.351904" lon="-1.862187"><ele>515</ele><time>2022-03-19T13:14:53Z</time><name>PT6293</name></trkpt>
<trkpt lat="53.351894" lon="-1.862175"><ele>515</ele><time>2022-03-19T13:14:54Z</time><name>PT6294</name></trkpt>
<trkpt lat="53.351882" lon="-1.862163"><ele>515</ele><time>2022-03-19T13:14:54Z</time><name>PT6295</name></trkpt>
<trkpt lat="53.351871" lon="-1.862150"><ele>515</ele><time>2022-03-19T13:14:56Z</time><name>PT6296</name></trkpt>
<trkpt lat="53.351858" lon="-1.862138"><ele>515</ele><time>2022-03-19T13:14:57Z</time><name>PT6297</name></trkpt>
<trkpt lat="53.351847" lon="-1.862126"><ele>515</ele><time>2022-03-19T13:14:57Z</time><name>PT6298</name></trkpt>
<trkpt lat="53.351835" lon="-1.862111"><ele>515</ele><time>2022-03-19T13:14:59Z</time><name>PT6299</name></trkpt>
<trkpt lat="53.351824" lon="-1.862096"><ele>515</ele><time>2022-03-19T13:15:00Z</time><name>PT6300</name></trkpt>
<trkpt lat="53.351810" lon="-1.862083"><ele>515</ele><time>2022-03-19T13:15:00Z</time><name>PT6301</name></trkpt>
<trkpt lat="53.351797" lon="-1.862068"><ele>515</ele><time>2022-03-19T13:15:02Z</time><name>PT6302</name></trkpt>
<trkpt lat="53.351784" lon="-1.862057"><ele>515</ele><time>2022-03-19T13:15:03Z</time><name>PT6303</name></trkpt>
<trkpt lat="53.351772" lon="-1.862049"><ele>515</ele><time>2022-03-19T13:15:03Z</time><name>PT6304</name></trkpt>
<trkpt lat="53.351760" lon="-1.862039"><ele>515</ele><time>2022-03-19T13:15:05Z</time><name>PT6305</name></trkpt>
<trkpt lat="53.351747" lon="-1.862029"><ele>515</ele><time>2022-03-19T13:15:06Z</time><name>PT6306</name></trkpt>
<trkpt lat="53.351736" lon="-1.862020"><ele>515</ele><time>2022-03-19T13:15:07Z</time><name>PT6307</name></trkpt>
<trkpt lat="53.351724" lon="-1.862009"><ele>515</ele><time>2022-03-19T13:15:08Z</time><name>PT6308</name></trkpt>
<trkpt lat="53.351713" lon="-1.861996"><ele>515</ele><time>2022-03-19T13:15:09Z</time><name>PT6309</name></trkpt>
<trkpt lat="53.351701" lon="-1.861982"><ele>515</ele><time>2022-03-19T13:15:09Z</time><name>PT6310</name></trkpt>
<trkpt lat="53.351691" lon="-1.861967"><ele>515</ele><time>2022-03-19T13:15:11Z</time><name>PT6311</name></trkpt>
<trkpt lat="53.351681" lon="-1.861956"><ele>515</ele><time>2022-03-19T13:15:12Z</time><name>PT6312</name></trkpt>
<trkpt lat="53.351671" lon="-1.861942"><ele>515</ele><time>2022-03-19T13:15:12Z</time><name>PT6313</name></trkpt>
<trkpt lat="53.351660" lon="-1.861925"><ele>515</ele><time>2022-03-19T13:15:14Z</time><name>PT6314</name></trkpt>
<trkpt lat="53.351650" lon="-1.861911"><ele>515</ele><time>2022-03-19T13:15:15Z</time><name>PT6315</name></trkpt>
<trkpt lat="53.351640" lon="-1.861897"><ele>515</ele><time>2022-03-19T13:15:15Z</time><name>PT6316</name></trkpt>
<trkpt lat="53.351629" lon="-1.861880"><ele>515</ele><time>2022-03-19T13:15:17Z</time><name>PT6317</name></trkpt>
<trkpt lat="53.351618" lon="-1.861863"><ele>515</ele><time>2022-03-19T13:15:18Z</time><name>PT6318</name></trkpt>
<trkpt lat="53.351608" lon="-1.861846"><ele>515</ele><time>2022-03-19T13:15:18Z</time><name>PT6319</name></trkpt>
<trkpt lat="53.351595" lon="-1.861829"><ele>514</ele><time>2022-03-19T13:15:20Z</time><name>PT6320</name></trkpt>
<trkpt lat="53.351584" lon="-1.861816"><ele>514</ele><time>2022-03-19T13:15:21Z</time><name>PT6321</name></trkpt>
<trkpt lat="53.351572" lon="-1.861803"><ele>514</ele><time>2022-03-19T13:15:21Z</time><name>PT6322</name></trkpt>
<trkpt lat="53.351561" lon="-1.861792"><ele>514</ele><time>2022-03-19T13:15:23Z</time><name>PT6323</name></trkpt>
<trkpt lat="53.351549" lon="-1.861783"><ele>514</ele><time>2022-03-19T13:15:24Z</time><name>PT6324</name></trkpt>
<trkpt lat="53.351537" lon="-1.861774"><ele>514</ele><time>2022-03-19T13:15:24Z</time><name>PT6325</name></trkpt>
<trkpt lat="53.351526" lon="-1.861765"><ele>514</ele><time>2022-03-19T13:15:26Z</time><name>PT6326</name></trkpt>
<trkpt lat="53.351518" lon="-1.861759"><ele>514</ele><time>2022-03-19T13:15:27Z</time><name>PT6327</name></trkpt>
<trkpt lat="53.351513" lon="-1.861758"><ele>514</ele><time>2022-03-19T13:15:27Z</time><name>PT6328</name></trkpt>
<trkpt lat="53.351502" lon="-1.861754"><ele>514</ele><time>2022-03-19T13:15:29Z</time><name>PT6329</name></trkpt>
<trkpt lat="53.351488" lon="-1.861742"><ele>514</ele><time>2022-03-19T13:15:30Z</time><name>PT6330</name></trkpt>
<trkpt lat="53.351476" lon="-1.861732"><ele>513</ele><time>2022-03-19T13:15:30Z</time><name>PT6331</name></trkpt>
<trkpt lat="53.351465" lon="-1.861724"><ele>513</ele><time>2022-03-19T13:15:32Z</time><name>PT6332</name></trkpt>
<trkpt lat="53.351453" lon="-1.861715"><ele>513</ele><time>2022-03-19T13:15:33Z</time><name>PT6333</name></trkpt>
<trkpt lat="53.351441" lon="-1.861702"><ele>514</ele><time>2022-03-19T13:15:33Z</time><name>PT6334</name></trkpt>
<trkpt lat="53.351428" lon="-1.861687"><ele>513</ele><time>2022-03-19T13:15:35Z</time><name>PT6335</name></trkpt>
<trkpt lat="53.351416" lon="-1.861674"><ele>513</ele><time>2022-03-19T13:15:36Z</time><name>PT6336</name></trkpt>
<trkpt lat="53.351406" lon="-1.861660"><ele>513</ele><time>2022-03-19T13:15:36Z</time><name>PT6337</name></trkpt>
<trkpt lat="53.351396" lon="-1.861642"><ele>513</ele><time>2022-03-19T13:15:38Z</time><name>PT6338</name></trkpt>
<trkpt lat="53.351388" lon="-1.861622"><ele>512</ele><time>2022-03-19T13:15:39Z</time><name>PT6339</name></trkpt>
<trkpt lat="53.351378" lon="-1.861605"><ele>512</ele><time>2022-03-19T13:15:39Z</time><name>PT6340</name></trkpt>
<trkpt lat="53.351371" lon="-1.861590"><ele>512</ele><time>2022-03-19T13:15:41Z</time><name>PT6341</name></trkpt>
<trkpt lat="53.351364" lon="-1.861576"><ele>512</ele><time>2022-03-19T13:15:42Z</time><name>PT6342</name></trkpt>
<trkpt lat="53.351359" lon="-1.861560"><ele>512</ele><time>2022-03-19T13:15:42Z</time><name>PT6343</name></trkpt>
<trkpt lat="53.351351" lon="-1.861544"><ele>512</ele><time>2022-03-19T13:15:44Z</time><name>PT6344</name></trkpt>
<trkpt lat="53.351344" lon="-1.861533"><ele>512</ele><time>2022-03-19T13:15:45Z</time><name>PT6345</name></trkpt>
<trkpt lat="53.351337" lon="-1.861522"><ele>512</ele><time>2022-03-19T13:15:45Z</time><name>PT6346</name></trkpt>
<trkpt lat="53.351330" lon="-1.861511"><ele>512</ele><time>2022-03-19T13:15:47Z</time><name>PT6347</name></trkpt>
<trkpt lat="53.351319" lon="-1.861499"><ele>512</ele><time>2022-03-19T13:15:48Z</time><name>PT6348</name></trkpt>
<trkpt lat="53.351308" lon="-1.861485"><ele>512</ele><time>2022-03-19T13:15:48Z</time><name>PT6349</name></trkpt>
<trkpt lat="53.351299" lon="-1.861475"><ele>512</ele><time>2022-03-19T13:15:50Z</time><name>PT6350</name></trkpt>
<trkpt lat="53.351288" lon="-1.861462"><ele>512</ele><time>2022-03-19T13:15:51Z</time><name>PT6351</name></trkpt>
<trkpt lat="53.351276" lon="-1.861450"><ele>512</ele><time>2022-03-19T13:15:51Z</time><name>PT6352</name></trkpt>
<trkpt lat="53.351265" lon="-1.861438"><ele>512</ele><time>2022-03-19T13:15:53Z</time><name>PT6353</name></trkpt>
<trkpt lat="53.351256" lon="-1.861428"><ele>512</ele><time>2022-03-19T13:15:54Z</time><name>PT6354</name></trkpt>
<trkpt lat="53.351246" lon="-1.861415"><ele>512</ele><time>2022-03-19T13:15:54Z</time><name>PT6355</name></trkpt>
<trkpt lat="53.351234" lon="-1.861400"><ele>512</ele><time>2022-03-19T13:15:56Z</time><name>PT6356</name></trkpt>
<trkpt lat="53.351223" lon="-1.861383"><ele>512</ele><time>2022-03-19T13:15:57Z</time><name>PT6357</name></trkpt>
<trkpt lat="53.351213" lon="-1.861364"><ele>512</ele><time>2022-03-19T13:15:57Z</time><name>PT6358</name></trkpt>
<trkpt lat="53.351204" lon="-1.861353"><ele>512</ele><time>2022-03-19T13:15:59Z</time><name>PT6359</name></trkpt>
<trkpt lat="53.351194" lon="-1.861339"><ele>512</ele><time>2022-03-19T13:16:00Z</time><name>PT6360</name></trkpt>
<trkpt lat="53.351185" lon="-1.861325"><ele>512</ele><time>2022-03-19T13:16:00Z</time><name>PT6361</name></trkpt>
<trkpt lat="53.351175" lon="-1.861311"><ele>512</ele><time>2022-03-19T13:16:02Z</time><name>PT6362</name></trkpt>
<trkpt lat="53.351166" lon="-1.861297"><ele>512</ele><time>2022-03-19T13:16:03Z</time><name>PT6363</name></trkpt>
<trkpt lat="53.351156" lon="-1.861283"><ele>512</ele><time>2022-03-19T13:16:03Z</time><name>PT6364</name></trkpt>
<trkpt lat="53.351145" lon="-1.861268"><ele>512</ele><time>2022-03-19T13:16:05Z</time><name>PT6365</name></trkpt>
<trkpt lat="53.351134" lon="-1.861254"><ele>512</ele><time>2022-03-19T13:16:06Z</time><name>PT6366</name></trkpt>
<trkpt lat="53.351121" lon="-1.861242"><ele>512</ele><time>2022-03-19T13:16:06Z</time><name>PT6367</name></trkpt>
<trkpt lat="53.351110" lon="-1.861230"><ele>512</ele><time>2022-03-19T13:16:08Z</time><name>PT6368</name></trkpt>
<trkpt lat="53.351099" lon="-1.861220"><ele>512</ele><time>2022-03-19T13:16:09Z</time><name>PT6369</name></trkpt>
<trkpt lat="53.351084" lon="-1.861213"><ele>513</ele><time>2022-03-19T13:16:09Z</time><name>PT6370</name></trkpt>
<trkpt lat="53.351071" lon="-1.861201"><ele>513</ele><time>2022-03-19T13:16:11Z</time><name>PT6371</name></trkpt>
<trkpt lat="53.351060" lon="-1.861193"><ele>513</ele><time>2022-03-19T13:16:12Z</time><name>PT6372</name></trkpt>
<trkpt lat="53.351048" lon="-1.861181"><ele>513</ele><time>2022-03-19T13:16:12Z</time><name>PT6373</name></trkpt>
<trkpt lat="53.351034" lon="-1.861167"><ele>513</ele><time>2022-03-19T13:16:14Z</time><name>PT6374</name></trkpt>
<trkpt lat="53.351019" lon="-1.861155"><ele>513</ele><time>2022-03-19T13:16:15Z</time><name>PT6375</name></trkpt>
<trkpt lat="53.351007" lon="-1.861146"><ele>513</ele><time>2022-03-19T13:16:15Z</time><name>PT6376</name></trkpt>
<trkpt lat="53.350995" lon="-1.861137"><ele>512</ele><time>2022-03-19T13:16:17Z</time><name>PT6377</name></trkpt>
<trkpt lat="53.350981" lon="-1.861130"><ele>513</ele><time>2022-03-19T13:16:18Z</time><name>PT6378</name></trkpt>
<trkpt lat="53.350969" lon="-1.861118"><ele>512</ele><time>2022-03-19T13:16:18Z</time><name>PT6379</name></trkpt>
<trkpt lat="53.350956" lon="-1.861110"><ele>512</ele><time>2022-03-19T13:16:20Z</time><name>PT6380</name></trkpt>
<trkpt lat="53.350942" lon="-1.861099"><ele>512</ele><time>2022-03-19T13:16:21Z</time><name>PT6381</name></trkpt>
<trkpt lat="53.350928" lon="-1.861087"><ele>512</ele><time>2022-03-19T13:16:21Z</time><name>PT6382</name></trkpt>
<trkpt lat="53.350917" lon="-1.861076"><ele>512</ele><time>2022-03-19T13:16:23Z</time><name>PT6383</name></trkpt>
<trkpt lat="53.350904" lon="-1.861062"><ele>513</ele><time>2022-03-19T13:16:24Z</time><name>PT6384</name></trkpt>
<trkpt lat="53.350892" lon="-1.861046"><ele>512</ele><time>2022-03-19T13:16:24Z</time><name>PT6385</name></trkpt>
<trkpt lat="53.350877" lon="-1.861031"><ele>512</ele><time>2022-03-19T13:16:26Z</time><name>PT6386</name></trkpt>
<trkpt lat="53.350867" lon="-1.861018"><ele>512</ele><time>2022-03-19T13:16:27Z</time><name>PT6387</name></trkpt>
<trkpt lat="53.350857" lon="-1.861009"><ele>513</ele><time>2022-03-19T13:16:27Z</time><name>PT6388</name></trkpt>
<trkpt lat="53.350846" lon="-1.861000"><ele>513</ele><time>2022-03-19T13:16:29Z</time><name>PT6389</name></trkpt>
<trkpt lat="53.350835" lon="-1.860989"><ele>513</ele><time>2022-03-19T13:16:30Z</time><name>PT6390</name></trkpt>
<trkpt lat="53.350802" lon="-1.860946"><ele>513</ele><time>2022-03-19T13:16:33Z</time><name>PT6391</name></trkpt>
<trkpt lat="53.350765" lon="-1.860898"><ele>512</ele><time>2022-03-19T13:16:36Z</time><name>PT6392</name></trkpt>
<trkpt lat="53.350730" lon="-1.860863"><ele>511</ele><time>2022-03-19T13:16:39Z</time><name>PT6393</name></trkpt>
<trkpt lat="53.350686" lon="-1.860810"><ele>511</ele><time>2022-03-19T13:16:42Z</time><name>PT6394</name></trkpt>
<trkpt lat="53.350655" lon="-1.860771"><ele>511</ele><time>2022-03-19T13:16:45Z</time><name>PT6395</name></trkpt>
<trkpt lat="53.350623" lon="-1.860736"><ele>511</ele><time>2022-03-19T13:16:48Z</time><name>PT6396</name></trkpt>
<trkpt lat="53.350587" lon="-1.860680"><ele>511</ele><time>2022-03-19T13:16:53Z</time><name>PT6397</name></trkpt>
<trkpt lat="53.350556" lon="-1.860636"><ele>510</ele><time>2022-03-19T13:16:56Z</time><name>PT6398</name></trkpt>
<trkpt lat="53.350520" lon="-1.860606"><ele>510</ele><time>2022-03-19T13:16:59Z</time><name>PT6399</name></trkpt>
<trkpt lat="53.350465" lon="-1.860585"><ele>509</ele><time>2022-03-19T13:17:03Z</time><name>PT6400</name></trkpt>
<trkpt lat="53.350421" lon="-1.860529"><ele>509</ele><time>2022-03-19T13:17:06Z</time><name>PT6401</name></trkpt>
<trkpt lat="53.350394" lon="-1.860490"><ele>509</ele><time>2022-03-19T13:17:09Z</time><name>PT6402</name></trkpt>
<trkpt lat="53.350354" lon="-1.860417"><ele>507</ele><time>2022-03-19T13:17:14Z</time><name>PT6403</name></trkpt>
<trkpt lat="53.350326" lon="-1.860359"><ele>507</ele><time>2022-03-19T13:17:17Z</time><name>PT6404</name></trkpt>
<trkpt lat="53.350283" lon="-1.860298"><ele>507</ele><time>2022-03-19T13:17:21Z</time><name>PT6405</name></trkpt>
<trkpt lat="53.350254" lon="-1.860249"><ele>507</ele><time>2022-03-19T13:17:24Z</time><name>PT6406</name></trkpt>
<trkpt lat="53.350222" lon="-1.860190"><ele>506</ele><time>2022-03-19T13:17:27Z</time><name>PT6407</name></trkpt>
<trkpt lat="53.350193" lon="-1.860145"><ele>506</ele><time>2022-03-19T13:17:30Z</time><name>PT6408</name></trkpt>
<trkpt lat="53.350155" lon="-1.860085"><ele>505</ele><time>2022-03-19T13:17:35Z</time><name>PT6409</name></trkpt>
<trkpt lat="53.350110" lon="-1.860033"><ele>505</ele><time>2022-03-19T13:17:39Z</time><name>PT6410</name></trkpt>
<trkpt lat="53.350081" lon="-1.859993"><ele>505</ele><time>2022-03-19T13:17:42Z</time><name>PT6411</name></trkpt>
<trkpt lat="53.350047" lon="-1.859958"><ele>505</ele><time>2022-03-19T13:17:45Z</time><name>PT6412</name></trkpt>
<trkpt lat="53.349998" lon="-1.859910"><ele>505</ele><time>2022-03-19T13:17:48Z</time><name>PT6413</name></trkpt>
<trkpt lat="53.349960" lon="-1.859882"><ele>505</ele><time>2022-03-19T13:17:51Z</time><name>PT6414</name></trkpt>
<trkpt lat="53.349915" lon="-1.859830"><ele>505</ele><time>2022-03-19T13:17:56Z</time><name>PT6415</name></trkpt>
<trkpt lat="53.349886" lon="-1.859787"><ele>505</ele><time>2022-03-19T13:17:59Z</time><name>PT6416</name></trkpt>
<trkpt lat="53.349854" lon="-1.859748"><ele>506</ele><time>2022-03-19T13:18:02Z</time><name>PT6417</name></trkpt>
<trkpt lat="53.349815" lon="-1.859689"><ele>506</ele><time>2022-03-19T13:18:06Z</time><name>PT6418</name></trkpt>
<trkpt lat="53.349779" lon="-1.859644"><ele>506</ele><time>2022-03-19T13:18:09Z</time><name>PT6419</name></trkpt>
<trkpt lat="53.349753" lon="-1.859602"><ele>505</ele><time>2022-03-19T13:18:12Z</time><name>PT6420</name></trkpt>
<trkpt lat="53.349721" lon="-1.859554"><ele>505</ele><time>2022-03-19T13:18:17Z</time><name>PT6421</name></trkpt>
<trkpt lat="53.349688" lon="-1.859515"><ele>505</ele><time>2022-03-19T13:18:20Z</time><name>PT6422</name></trkpt>
<trkpt lat="53.349648" lon="-1.859468"><ele>504</ele><time>2022-03-19T13:18:23Z</time><name>PT6423</name></trkpt>
<trkpt lat="53.349618" lon="-1.859443"><ele>504</ele><time>2022-03-19T13:18:26Z</time><name>PT6424</name></trkpt>
<trkpt lat="53.349585" lon="-1.859414"><ele>504</ele><time>2022-03-19T13:18:29Z</time><name>PT6425</name></trkpt>
<trkpt lat="53.349544" lon="-1.859343"><ele>504</ele><time>2022-03-19T13:18:33Z</time><name>PT6426</name></trkpt>
<trkpt lat="53.349505" lon="-1.859295"><ele>504</ele><time>2022-03-19T13:18:36Z</time><name>PT6427</name></trkpt>
<trkpt lat="53.349462" lon="-1.859239"><ele>504</ele><time>2022-03-19T13:18:41Z</time><name>PT6428</name></trkpt>
<trkpt lat="53.349432" lon="-1.859188"><ele>503</ele><time>2022-03-19T13:18:44Z</time><name>PT6429</name></trkpt>
<trkpt lat="53.349403" lon="-1.859144"><ele>503</ele><time>2022-03-19T13:18:47Z</time><name>PT6430</name></trkpt>
<trkpt lat="53.349371" lon="-1.859098"><ele>503</ele><time>2022-03-19T13:18:50Z</time><name>PT6431</name></trkpt>
<trkpt lat="53.349336" lon="-1.859066"><ele>503</ele><time>2022-03-19T13:18:53Z</time><name>PT6432</name></trkpt>
<trkpt lat="53.349291" lon="-1.859028"><ele>503</ele><time>2022-03-19T13:18:57Z</time><name>PT6433</name></trkpt>
<trkpt lat="53.349245" lon="-1.858978"><ele>502</ele><time>2022-03-19T13:19:00Z</time><name>PT6434</name></trkpt>
<trkpt lat="53.349197" lon="-1.858927"><ele>502</ele><time>2022-03-19T13:19:05Z</time><name>PT6435</name></trkpt>
<trkpt lat="53.349152" lon="-1.858872"><ele>502</ele><time>2022-03-19T13:19:09Z</time><name>PT6436</name></trkpt>
<trkpt lat="53.349108" lon="-1.858826"><ele>501</ele><time>2022-03-19T13:19:12Z</time><name>PT6437</name></trkpt>
<trkpt lat="53.349067" lon="-1.858776"><ele>500</ele><time>2022-03-19T13:19:17Z</time><name>PT6438</name></trkpt>
<trkpt lat="53.349032" lon="-1.858740"><ele>500</ele><time>2022-03-19T13:19:20Z</time><name>PT6439</name></trkpt>
<trkpt lat="53.348988" lon="-1.858700"><ele>499</ele><time>2022-03-19T13:19:24Z</time><name>PT6440</name></trkpt>
<trkpt lat="53.348954" lon="-1.858671"><ele>499</ele><time>2022-03-19T13:19:27Z</time><name>PT6441</name></trkpt>
<trkpt lat="53.348923" lon="-1.858629"><ele>499</ele><time>2022-03-19T13:19:30Z</time><name>PT6442</name></trkpt>
<trkpt lat="53.348896" lon="-1.858564"><ele>498</ele><time>2022-03-19T13:19:33Z</time><name>PT6443</name></trkpt>
<trkpt lat="53.348860" lon="-1.858500"><ele>498</ele><time>2022-03-19T13:19:38Z</time><name>PT6444</name></trkpt>
<trkpt lat="53.348829" lon="-1.858463"><ele>499</ele><time>2022-03-19T13:19:41Z</time><name>PT6445</name></trkpt>
<trkpt lat="53.348786" lon="-1.858416"><ele>498</ele><time>2022-03-19T13:19:45Z</time><name>PT6446</name></trkpt>
<trkpt lat="53.348736" lon="-1.858362"><ele>498</ele><time>2022-03-19T13:19:48Z</time><name>PT6447</name></trkpt>
<trkpt lat="53.348702" lon="-1.858321"><ele>498</ele><time>2022-03-19T13:19:51Z</time><name>PT6448</name></trkpt>
<trkpt lat="53.348670" lon="-1.858278"><ele>498</ele><time>2022-03-19T13:19:54Z</time><name>PT6449</name></trkpt>
<trkpt lat="53.348630" lon="-1.858212"><ele>498</ele><time>2022-03-19T13:19:59Z</time><name>PT6450</name></trkpt>
<trkpt lat="53.348594" lon="-1.858175"><ele>497</ele><time>2022-03-19T13:20:02Z</time><name>PT6451</name></trkpt>
<trkpt lat="53.348542" lon="-1.858134"><ele>497</ele><time>2022-03-19T13:20:06Z</time><name>PT6452</name></trkpt>
<trkpt lat="53.348502" lon="-1.858099"><ele>496</ele><time>2022-03-19T13:20:09Z</time><name>PT6453</name></trkpt>
<trkpt lat="53.348448" lon="-1.858057"><ele>495</ele><time>2022-03-19T13:20:12Z</time><name>PT6454</name></trkpt>
<trkpt lat="53.348413" lon="-1.858027"><ele>496</ele><time>2022-03-19T13:20:15Z</time><name>PT6455</name></trkpt>
<trkpt lat="53.348366" lon="-1.857973"><ele>496</ele><time>2022-03-19T13:20:20Z</time><name>PT6456</name></trkpt>
<trkpt lat="53.348324" lon="-1.857921"><ele>496</ele><time>2022-03-19T13:20:24Z</time><name>PT6457</name></trkpt>
<trkpt lat="53.348296" lon="-1.857873"><ele>496</ele><time>2022-03-19T13:20:27Z</time><name>PT6458</name></trkpt>
<trkpt lat="53.348257" lon="-1.857818"><ele>495</ele><time>2022-03-19T13:20:30Z</time><name>PT6459</name></trkpt>
<trkpt lat="53.348213" lon="-1.857776"><ele>495</ele><time>2022-03-19T13:20:35Z</time><name>PT6460</name></trkpt>
<trkpt lat="53.348180" lon="-1.857744"><ele>495</ele><time>2022-03-19T13:20:38Z</time><name>PT6461</name></trkpt>
<trkpt lat="53.348138" lon="-1.857695"><ele>495</ele><time>2022-03-19T13:20:42Z</time><name>PT6462</name></trkpt>
<trkpt lat="53.348108" lon="-1.857654"><ele>495</ele><time>2022-03-19T13:20:45Z</time><name>PT6463</name></trkpt>
<trkpt lat="53.348076" lon="-1.857598"><ele>494</ele><time>2022-03-19T13:20:48Z</time><name>PT6464</name></trkpt>
<trkpt lat="53.348052" lon="-1.857525"><ele>494</ele><time>2022-03-19T13:20:53Z</time><name>PT6465</name></trkpt>
<trkpt lat="53.348021" lon="-1.857459"><ele>494</ele><time>2022-03-19T13:20:57Z</time><name>PT6466</name></trkpt>
<trkpt lat="53.347995" lon="-1.857401"><ele>494</ele><time>2022-03-19T13:21:00Z</time><name>PT6467</name></trkpt>
<trkpt lat="53.347957" lon="-1.857346"><ele>494</ele><time>2022-03-19T13:21:03Z</time><name>PT6468</name></trkpt>
<trkpt lat="53.347930" lon="-1.857306"><ele>494</ele><time>2022-03-19T13:21:06Z</time><name>PT6469</name></trkpt>
<trkpt lat="53.347883" lon="-1.857249"><ele>494</ele><time>2022-03-19T13:21:11Z</time><name>PT6470</name></trkpt>
<trkpt lat="53.347839" lon="-1.857199"><ele>494</ele><time>2022-03-19T13:21:15Z</time><name>PT6471</name></trkpt>
<trkpt lat="53.347787" lon="-1.857136"><ele>495</ele><time>2022-03-19T13:21:18Z</time><name>PT6472</name></trkpt>
<trkpt lat="53.347736" lon="-1.857097"><ele>495</ele><time>2022-03-19T13:21:23Z</time><name>PT6473</name></trkpt>
<trkpt lat="53.347699" lon="-1.857068"><ele>495</ele><time>2022-03-19T13:21:26Z</time><name>PT6474</name></trkpt>
<trkpt lat="53.347656" lon="-1.857007"><ele>495</ele><time>2022-03-19T13:21:30Z</time><name>PT6475</name></trkpt>
<trkpt lat="53.347633" lon="-1.856959"><ele>494</ele><time>2022-03-19T13:21:33Z</time><name>PT6476</name></trkpt>
<trkpt lat="53.347607" lon="-1.856888"><ele>494</ele><time>2022-03-19T13:21:36Z</time><name>PT6477</name></trkpt>
<trkpt lat="53.347574" lon="-1.856822"><ele>494</ele><time>2022-03-19T13:21:41Z</time><name>PT6478</name></trkpt>
<trkpt lat="53.347545" lon="-1.856783"><ele>494</ele><time>2022-03-19T13:21:44Z</time><name>PT6479</name></trkpt>
<trkpt lat="53.347502" lon="-1.856733"><ele>494</ele><time>2022-03-19T13:21:48Z</time><name>PT6480</name></trkpt>
<trkpt lat="53.347463" lon="-1.856706"><ele>493</ele><time>2022-03-19T13:21:51Z</time><name>PT6481</name></trkpt>
<trkpt lat="53.347406" lon="-1.856668"><ele>494</ele><time>2022-03-19T13:21:54Z</time><name>PT6482</name></trkpt>
<trkpt lat="53.347370" lon="-1.856639"><ele>494</ele><time>2022-03-19T13:21:57Z</time><name>PT6483</name></trkpt>
<trkpt lat="53.347323" lon="-1.856592"><ele>494</ele><time>2022-03-19T13:22:02Z</time><name>PT6484</name></trkpt>
<trkpt lat="53.347279" lon="-1.856541"><ele>493</ele><time>2022-03-19T13:22:06Z</time><name>PT6485</name></trkpt>
<trkpt lat="53.347256" lon="-1.856499"><ele>493</ele><time>2022-03-19T13:22:09Z</time><name>PT6486</name></trkpt>
<trkpt lat="53.347233" lon="-1.856452"><ele>493</ele><time>2022-03-19T13:22:12Z</time><name>PT6487</name></trkpt>
<trkpt lat="53.347212" lon="-1.856398"><ele>493</ele><time>2022-03-19T13:22:15Z</time><name>PT6488</name></trkpt>
<trkpt lat="53.347174" lon="-1.856322"><ele>493</ele><time>2022-03-19T13:22:18Z</time><name>PT6489</name></trkpt>
<trkpt lat="53.347143" lon="-1.856277"><ele>493</ele><time>2022-03-19T13:22:21Z</time><name>PT6490</name></trkpt>
<trkpt lat="53.347100" lon="-1.856216"><ele>493</ele><time>2022-03-19T13:22:26Z</time><name>PT6491</name></trkpt>
<trkpt lat="53.347070" lon="-1.856185"><ele>492</ele><time>2022-03-19T13:22:29Z</time><name>PT6492</name></trkpt>
<trkpt lat="53.347040" lon="-1.856147"><ele>493</ele><time>2022-03-19T13:22:32Z</time><name>PT6493</name></trkpt>
<trkpt lat="53.347008" lon="-1.856097"><ele>492</ele><time>2022-03-19T13:22:35Z</time><name>PT6494</name></trkpt>
<trkpt lat="53.346979" lon="-1.856063"><ele>493</ele><time>2022-03-19T13:22:38Z</time><name>PT6495</name></trkpt>
<trkpt lat="53.346930" lon="-1.856029"><ele>493</ele><time>2022-03-19T13:22:42Z</time><name>PT6496</name></trkpt>
<trkpt lat="53.346891" lon="-1.855995"><ele>493</ele><time>2022-03-19T13:22:45Z</time><name>PT6497</name></trkpt>
<trkpt lat="53.346856" lon="-1.855975"><ele>493</ele><time>2022-03-19T13:22:48Z</time><name>PT6498</name></trkpt>
<trkpt lat="53.346816" lon="-1.855950"><ele>493</ele><time>2022-03-19T13:22:51Z</time><name>PT6499</name></trkpt>
<trkpt lat="53.346769" lon="-1.855902"><ele>492</ele><time>2022-03-19T13:22:54Z</time><name>PT6500</name></trkpt>
<trkpt lat="53.346742" lon="-1.855857"><ele>493</ele><time>2022-03-19T13:22:57Z</time><name>PT6501</name></trkpt>
<trkpt lat="53.346715" lon="-1.855810"><ele>492</ele><time>2022-03-19T13:23:00Z</time><name>PT6502</name></trkpt>
<trkpt lat="53.346691" lon="-1.855757"><ele>493</ele><time>2022-03-19T13:23:03Z</time><name>PT6503</name></trkpt>
<trkpt lat="53.346656" lon="-1.855702"><ele>492</ele><time>2022-03-19T13:23:08Z</time><name>PT6504</name></trkpt>
<trkpt lat="53.346632" lon="-1.855648"><ele>492</ele><time>2022-03-19T13:23:11Z</time><name>PT6505</name></trkpt>
<trkpt lat="53.346608" lon="-1.855605"><ele>492</ele><time>2022-03-19T13:23:14Z</time><name>PT6506</name></trkpt>
<trkpt lat="53.346579" lon="-1.855540"><ele>492</ele><time>2022-03-19T13:23:18Z</time><name>PT6507</name></trkpt>
<trkpt lat="53.346544" lon="-1.855481"><ele>491</ele><time>2022-03-19T13:23:21Z</time><name>PT6508</name></trkpt>
<trkpt lat="53.346512" lon="-1.855409"><ele>492</ele><time>2022-03-19T13:23:26Z</time><name>PT6509</name></trkpt>
<trkpt lat="53.346481" lon="-1.855347"><ele>492</ele><time>2022-03-19T13:23:30Z</time><name>PT6510</name></trkpt>
<trkpt lat="53.346439" lon="-1.855282"><ele>492</ele><time>2022-03-19T13:23:33Z</time><name>PT6511</name></trkpt>
<trkpt lat="53.346409" lon="-1.855240"><ele>492</ele><time>2022-03-19T13:23:36Z</time><name>PT6512</name></trkpt>
<trkpt lat="53.346374" lon="-1.855172"><ele>493</ele><time>2022-03-19T13:23:41Z</time><name>PT6513</name></trkpt>
<trkpt lat="53.346356" lon="-1.855127"><ele>492</ele><time>2022-03-19T13:23:44Z</time><name>PT6514</name></trkpt>
<trkpt lat="53.346329" lon="-1.855054"><ele>493</ele><time>2022-03-19T13:23:48Z</time><name>PT6515</name></trkpt>
<trkpt lat="53.346306" lon="-1.855005"><ele>492</ele><time>2022-03-19T13:23:51Z</time><name>PT6516</name></trkpt>
<trkpt lat="53.346275" lon="-1.854969"><ele>492</ele><time>2022-03-19T13:23:54Z</time><name>PT6517</name></trkpt>
<trkpt lat="53.346234" lon="-1.854916"><ele>492</ele><time>2022-03-19T13:23:57Z</time><name>PT6518</name></trkpt>
<trkpt lat="53.346203" lon="-1.854877"><ele>492</ele><time>2022-03-19T13:24:00Z</time><name>PT6519</name></trkpt>
<trkpt lat="53.346171" lon="-1.854798"><ele>492</ele><time>2022-03-19T13:24:05Z</time><name>PT6520</name></trkpt>
<trkpt lat="53.346152" lon="-1.854747"><ele>492</ele><time>2022-03-19T13:24:08Z</time><name>PT6521</name></trkpt>
<trkpt lat="53.346128" lon="-1.854675"><ele>492</ele><time>2022-03-19T13:24:12Z</time><name>PT6522</name></trkpt>
<trkpt lat="53.346100" lon="-1.854622"><ele>492</ele><time>2022-03-19T13:24:15Z</time><name>PT6523</name></trkpt>
<trkpt lat="53.346061" lon="-1.854555"><ele>492</ele><time>2022-03-19T13:24:18Z</time><name>PT6524</name></trkpt>
<trkpt lat="53.346016" lon="-1.854500"><ele>492</ele><time>2022-03-19T13:24:23Z</time><name>PT6525</name></trkpt>
<trkpt lat="53.345990" lon="-1.854453"><ele>492</ele><time>2022-03-19T13:24:26Z</time><name>PT6526</name></trkpt>
<trkpt lat="53.345960" lon="-1.854391"><ele>491</ele><time>2022-03-19T13:24:30Z</time><name>PT6527</name></trkpt>
<trkpt lat="53.345947" lon="-1.854327"><ele>492</ele><time>2022-03-19T13:24:33Z</time><name>PT6528</name></trkpt>
<trkpt lat="53.345921" lon="-1.854254"><ele>491</ele><time>2022-03-19T13:24:36Z</time><name>PT6529</name></trkpt>
<trkpt lat="53.345890" lon="-1.854219"><ele>491</ele><time>2022-03-19T13:24:39Z</time><name>PT6530</name></trkpt>
<trkpt lat="53.345844" lon="-1.854160"><ele>491</ele><time>2022-03-19T13:24:44Z</time><name>PT6531</name></trkpt>
<trkpt lat="53.345804" lon="-1.854125"><ele>490</ele><time>2022-03-19T13:24:48Z</time><name>PT6532</name></trkpt>
<trkpt lat="53.345770" lon="-1.854083"><ele>490</ele><time>2022-03-19T13:24:51Z</time><name>PT6533</name></trkpt>
<trkpt lat="53.345736" lon="-1.854015"><ele>490</ele><time>2022-03-19T13:24:54Z</time><name>PT6534</name></trkpt>
<trkpt lat="53.345722" lon="-1.853978"><ele>489</ele><time>2022-03-19T13:24:57Z</time><name>PT6535</name></trkpt>
<trkpt lat="53.345698" lon="-1.853902"><ele>489</ele><time>2022-03-19T13:25:02Z</time><name>PT6536</name></trkpt>
<trkpt lat="53.345673" lon="-1.853833"><ele>489</ele><time>2022-03-19T13:25:06Z</time><name>PT6537</name></trkpt>
<trkpt lat="53.345644" lon="-1.853779"><ele>489</ele><time>2022-03-19T13:25:09Z</time><name>PT6538</name></trkpt>
<trkpt lat="53.345611" lon="-1.853729"><ele>490</ele><time>2022-03-19T13:25:12Z</time><name>PT6539</name></trkpt>
<trkpt lat="53.345576" lon="-1.853674"><ele>490</ele><time>2022-03-19T13:25:15Z</time><name>PT6540</name></trkpt>
<trkpt lat="53.345549" lon="-1.853626"><ele>491</ele><time>2022-03-19T13:25:18Z</time><name>PT6541</name></trkpt>
<trkpt lat="53.345517" lon="-1.853568"><ele>491</ele><time>2022-03-19T13:25:23Z</time><name>PT6542</name></trkpt>
<trkpt lat="53.345475" lon="-1.853517"><ele>491</ele><time>2022-03-19T13:25:27Z</time><name>PT6543</name></trkpt>
<trkpt lat="53.345440" lon="-1.853478"><ele>492</ele><time>2022-03-19T13:25:30Z</time><name>PT6544</name></trkpt>
<trkpt lat="53.345411" lon="-1.853446"><ele>492</ele><time>2022-03-19T13:25:35Z</time><name>PT6545</name></trkpt>
<trkpt lat="53.345403" lon="-1.853436"><ele>492</ele><time>2022-03-19T13:25:39Z</time><name>PT6546</name></trkpt>
<trkpt lat="53.345401" lon="-1.853434"><ele>491</ele><time>2022-03-19T13:25:42Z</time><name>PT6547</name></trkpt>
<trkpt lat="53.345392" lon="-1.853432"><ele>492</ele><time>2022-03-19T13:25:45Z</time><name>PT6548</name></trkpt>
<trkpt lat="53.345392" lon="-1.853438"><ele>492</ele><time>2022-03-19T13:25:51Z</time><name>PT6549</name></trkpt>
<trkpt lat="53.345393" lon="-1.853427"><ele>492</ele><time>2022-03-19T13:25:54Z</time><name>PT6550</name></trkpt>
<trkpt lat="53.345393" lon="-1.853424"><ele>492</ele><time>2022-03-19T13:26:14Z</time><name>PT6551</name></trkpt>
<trkpt lat="53.345395" lon="-1.853422"><ele>492</ele><time>2022-03-19T13:26:18Z</time><name>PT6552</name></trkpt>
<trkpt lat="53.345396" lon="-1.853426"><ele>491</ele><time>2022-03-19T13:26:42Z</time><name>PT6553</name></trkpt>
<trkpt lat="53.345395" lon="-1.853441"><ele>491</ele><time>2022-03-19T13:26:45Z</time><name>PT6554</name></trkpt>
<trkpt lat="53.345392" lon="-1.853446"><ele>491</ele><time>2022-03-19T13:26:53Z</time><name>PT6555</name></trkpt>
<trkpt lat="53.345391" lon="-1.853445"><ele>491</ele><time>2022-03-19T13:26:54Z</time><name>PT6556</name></trkpt>
<trkpt lat="53.345389" lon="-1.853445"><ele>491</ele><time>2022-03-19T13:26:54Z</time><name>PT6557</name></trkpt>
<trkpt lat="53.345383" lon="-1.853452"><ele>491</ele><time>2022-03-19T13:27:00Z</time><name>PT6558</name></trkpt>
<trkpt lat="53.345379" lon="-1.853453"><ele>491</ele><time>2022-03-19T13:27:00Z</time><name>PT6559</name></trkpt>
<trkpt lat="53.345380" lon="-1.853458"><ele>491</ele><time>2022-03-19T13:27:02Z</time><name>PT6560</name></trkpt>
<trkpt lat="53.345375" lon="-1.853458"><ele>491</ele><time>2022-03-19T13:27:06Z</time><name>PT6561</name></trkpt>
<trkpt lat="53.345371" lon="-1.853462"><ele>491</ele><time>2022-03-19T13:27:08Z</time><name>PT6562</name></trkpt>
<trkpt lat="53.345370" lon="-1.853461"><ele>491</ele><time>2022-03-19T13:27:09Z</time><name>PT6563</name></trkpt>
<trkpt lat="53.345369" lon="-1.853464"><ele>491</ele><time>2022-03-19T13:27:09Z</time><name>PT6564</name></trkpt>
<trkpt lat="53.345370" lon="-1.853468"><ele>491</ele><time>2022-03-19T13:27:11Z</time><name>PT6565</name></trkpt>
<trkpt lat="53.345366" lon="-1.853469"><ele>491</ele><time>2022-03-19T13:28:26Z</time><name>PT6566</name></trkpt>
<trkpt lat="53.345367" lon="-1.853464"><ele>491</ele><time>2022-03-19T13:28:27Z</time><name>PT6567</name></trkpt>
<trkpt lat="53.345366" lon="-1.853464"><ele>491</ele><time>2022-03-19T13:28:27Z</time><name>PT6568</name></trkpt>
<trkpt lat="53.345366" lon="-1.853463"><ele>491</ele><time>2022-03-19T13:28:29Z</time><name>PT6569</name></trkpt>
<trkpt lat="53.345366" lon="-1.853463"><ele>490</ele><time>2022-03-19T13:28:30Z</time><name>PT6570</name></trkpt>
<trkpt lat="53.345361" lon="-1.853464"><ele>490</ele><time>2022-03-19T13:29:48Z</time><name>PT6571</name></trkpt>
<trkpt lat="53.345359" lon="-1.853467"><ele>490</ele><time>2022-03-19T13:29:51Z</time><name>PT6572</name></trkpt>
<trkpt lat="53.345297" lon="-1.853477"><ele>490</ele><time>2022-03-19T13:29:59Z</time><name>PT6573</name></trkpt>
<trkpt lat="53.345252" lon="-1.853482"><ele>490</ele><time>2022-03-19T13:30:02Z</time><name>PT6574</name></trkpt>
<trkpt lat="53.345213" lon="-1.853473"><ele>490</ele><time>2022-03-19T13:30:05Z</time><name>PT6575</name></trkpt>
<trkpt lat="53.345156" lon="-1.853470"><ele>491</ele><time>2022-03-19T13:30:09Z</time><name>PT6576</name></trkpt>
<trkpt lat="53.345112" lon="-1.853467"><ele>491</ele><time>2022-03-19T13:30:12Z</time><name>PT6577</name></trkpt>
<trkpt lat="53.345056" lon="-1.853450"><ele>491</ele><time>2022-03-19T13:30:15Z</time><name>PT6578</name></trkpt>
<trkpt lat="53.344999" lon="-1.853440"><ele>491</ele><time>2022-03-19T13:30:20Z</time><name>PT6579</name></trkpt>
<trkpt lat="53.344948" lon="-1.853413"><ele>491</ele><time>2022-03-19T13:30:24Z</time><name>PT6580</name></trkpt>
<trkpt lat="53.344911" lon="-1.853406"><ele>491</ele><time>2022-03-19T13:30:27Z</time><name>PT6581</name></trkpt>
<trkpt lat="53.344860" lon="-1.853394"><ele>492</ele><time>2022-03-19T13:30:30Z</time><name>PT6582</name></trkpt>
<trkpt lat="53.344820" lon="-1.853381"><ele>492</ele><time>2022-03-19T13:30:33Z</time><name>PT6583</name></trkpt>
<trkpt lat="53.344781" lon="-1.853370"><ele>491</ele><time>2022-03-19T13:30:36Z</time><name>PT6584</name></trkpt>
<trkpt lat="53.344729" lon="-1.853362"><ele>492</ele><time>2022-03-19T13:30:41Z</time><name>PT6585</name></trkpt>
<trkpt lat="53.344688" lon="-1.853351"><ele>492</ele><time>2022-03-19T13:30:44Z</time><name>PT6586</name></trkpt>
<trkpt lat="53.344653" lon="-1.853338"><ele>492</ele><time>2022-03-19T13:30:47Z</time><name>PT6587</name></trkpt>
<trkpt lat="53.344614" lon="-1.853331"><ele>492</ele><time>2022-03-19T13:30:50Z</time><name>PT6588</name></trkpt>
<trkpt lat="53.344563" lon="-1.853314"><ele>491</ele><time>2022-03-19T13:30:54Z</time><name>PT6589</name></trkpt>
<trkpt lat="53.344515" lon="-1.853301"><ele>492</ele><time>2022-03-19T13:30:57Z</time><name>PT6590</name></trkpt>
<trkpt lat="53.344463" lon="-1.853279"><ele>492</ele><time>2022-03-19T13:31:02Z</time><name>PT6591</name></trkpt>
<trkpt lat="53.344426" lon="-1.853262"><ele>492</ele><time>2022-03-19T13:31:05Z</time><name>PT6592</name></trkpt>
<trkpt lat="53.344385" lon="-1.853245"><ele>492</ele><time>2022-03-19T13:31:08Z</time><name>PT6593</name></trkpt>
<trkpt lat="53.344343" lon="-1.853231"><ele>492</ele><time>2022-03-19T13:31:11Z</time><name>PT6594</name></trkpt>
<trkpt lat="53.344293" lon="-1.853206"><ele>492</ele><time>2022-03-19T13:31:15Z</time><name>PT6595</name></trkpt>
<trkpt lat="53.344245" lon="-1.853178"><ele>492</ele><time>2022-03-19T13:31:18Z</time><name>PT6596</name></trkpt>
<trkpt lat="53.344201" lon="-1.853142"><ele>492</ele><time>2022-03-19T13:31:23Z</time><name>PT6597</name></trkpt>
<trkpt lat="53.344152" lon="-1.853105"><ele>492</ele><time>2022-03-19T13:31:27Z</time><name>PT6598</name></trkpt>
<trkpt lat="53.344113" lon="-1.853072"><ele>492</ele><time>2022-03-19T13:31:30Z</time><name>PT6599</name></trkpt>
<trkpt lat="53.344061" lon="-1.853048"><ele>492</ele><time>2022-03-19T13:31:33Z</time><name>PT6600</name></trkpt>
<trkpt lat="53.344009" lon="-1.853024"><ele>492</ele><time>2022-03-19T13:31:38Z</time><name>PT6601</name></trkpt>
<trkpt lat="53.343969" lon="-1.853006"><ele>493</ele><time>2022-03-19T13:31:41Z</time><name>PT6602</name></trkpt>
<trkpt lat="53.343904" lon="-1.853000"><ele>495</ele><time>2022-03-19T13:31:45Z</time><name>PT6603</name></trkpt>
<trkpt lat="53.343866" lon="-1.852984"><ele>495</ele><time>2022-03-19T13:31:48Z</time><name>PT6604</name></trkpt>
<trkpt lat="53.343816" lon="-1.852960"><ele>494</ele><time>2022-03-19T13:31:51Z</time><name>PT6605</name></trkpt>
<trkpt lat="53.343779" lon="-1.852940"><ele>495</ele><time>2022-03-19T13:31:54Z</time><name>PT6606</name></trkpt>
<trkpt lat="53.343726" lon="-1.852919"><ele>495</ele><time>2022-03-19T13:31:59Z</time><name>PT6607</name></trkpt>
<trkpt lat="53.343677" lon="-1.852912"><ele>494</ele><time>2022-03-19T13:32:03Z</time><name>PT6608</name></trkpt>
<trkpt lat="53.343638" lon="-1.852890"><ele>494</ele><time>2022-03-19T13:32:06Z</time><name>PT6609</name></trkpt>
<trkpt lat="53.343588" lon="-1.852866"><ele>495</ele><time>2022-03-19T13:32:09Z</time><name>PT6610</name></trkpt>
<trkpt lat="53.343534" lon="-1.852840"><ele>494</ele><time>2022-03-19T13:32:14Z</time><name>PT6611</name></trkpt>
<trkpt lat="53.343488" lon="-1.852786"><ele>494</ele><time>2022-03-19T13:32:18Z</time><name>PT6612</name></trkpt>
<trkpt lat="53.343459" lon="-1.852744"><ele>494</ele><time>2022-03-19T13:32:21Z</time><name>PT6613</name></trkpt>
<trkpt lat="53.343421" lon="-1.852675"><ele>493</ele><time>2022-03-19T13:32:24Z</time><name>PT6614</name></trkpt>
<trkpt lat="53.343395" lon="-1.852639"><ele>493</ele><time>2022-03-19T13:32:27Z</time><name>PT6615</name></trkpt>
<trkpt lat="53.343347" lon="-1.852590"><ele>493</ele><time>2022-03-19T13:32:32Z</time><name>PT6616</name></trkpt>
<trkpt lat="53.343303" lon="-1.852536"><ele>493</ele><time>2022-03-19T13:32:36Z</time><name>PT6617</name></trkpt>
<trkpt lat="53.343254" lon="-1.852505"><ele>493</ele><time>2022-03-19T13:32:39Z</time><name>PT6618</name></trkpt>
<trkpt lat="53.343205" lon="-1.852460"><ele>493</ele><time>2022-03-19T13:32:44Z</time><name>PT6619</name></trkpt>
<trkpt lat="53.343175" lon="-1.852428"><ele>494</ele><time>2022-03-19T13:32:48Z</time><name>PT6620</name></trkpt>
<trkpt lat="53.343159" lon="-1.852364"><ele>493</ele><time>2022-03-19T13:32:51Z</time><name>PT6621</name></trkpt>
<trkpt lat="53.343156" lon="-1.852317"><ele>493</ele><time>2022-03-19T13:32:54Z</time><name>PT6622</name></trkpt>
<trkpt lat="53.343159" lon="-1.852232"><ele>494</ele><time>2022-03-19T13:32:59Z</time><name>PT6623</name></trkpt>
<trkpt lat="53.343159" lon="-1.852182"><ele>494</ele><time>2022-03-19T13:33:02Z</time><name>PT6624</name></trkpt>
<trkpt lat="53.343157" lon="-1.852123"><ele>494</ele><time>2022-03-19T13:33:06Z</time><name>PT6625</name></trkpt>
<trkpt lat="53.343161" lon="-1.852069"><ele>494</ele><time>2022-03-19T13:33:09Z</time><name>PT6626</name></trkpt>
<trkpt lat="53.343172" lon="-1.852008"><ele>493</ele><time>2022-03-19T13:33:12Z</time><name>PT6627</name></trkpt>
<trkpt lat="53.343179" lon="-1.851931"><ele>494</ele><time>2022-03-19T13:33:17Z</time><name>PT6628</name></trkpt>
<trkpt lat="53.343180" lon="-1.851879"><ele>494</ele><time>2022-03-19T13:33:20Z</time><name>PT6629</name></trkpt>
<trkpt lat="53.343153" lon="-1.851811"><ele>495</ele><time>2022-03-19T13:33:24Z</time><name>PT6630</name></trkpt>
<trkpt lat="53.343142" lon="-1.851758"><ele>495</ele><time>2022-03-19T13:33:27Z</time><name>PT6631</name></trkpt>
<trkpt lat="53.343136" lon="-1.851680"><ele>495</ele><time>2022-03-19T13:33:30Z</time><name>PT6632</name></trkpt>
<trkpt lat="53.343134" lon="-1.851614"><ele>495</ele><time>2022-03-19T13:33:33Z</time><name>PT6633</name></trkpt>
<trkpt lat="53.343136" lon="-1.851542"><ele>495</ele><time>2022-03-19T13:33:38Z</time><name>PT6634</name></trkpt>
<trkpt lat="53.343139" lon="-1.851460"><ele>495</ele><time>2022-03-19T13:33:42Z</time><name>PT6635</name></trkpt>
<trkpt lat="53.343136" lon="-1.851403"><ele>495</ele><time>2022-03-19T13:33:45Z</time><name>PT6636</name></trkpt>
<trkpt lat="53.343145" lon="-1.851338"><ele>496</ele><time>2022-03-19T13:33:48Z</time><name>PT6637</name></trkpt>
<trkpt lat="53.343147" lon="-1.851260"><ele>496</ele><time>2022-03-19T13:33:51Z</time><name>PT6638</name></trkpt>
<trkpt lat="53.343149" lon="-1.851184"><ele>496</ele><time>2022-03-19T13:33:56Z</time><name>PT6639</name></trkpt>
<trkpt lat="53.343145" lon="-1.851114"><ele>496</ele><time>2022-03-19T13:34:00Z</time><name>PT6640</name></trkpt>
<trkpt lat="53.343139" lon="-1.851030"><ele>496</ele><time>2022-03-19T13:34:03Z</time><name>PT6641</name></trkpt>
<trkpt lat="53.343143" lon="-1.850969"><ele>497</ele><time>2022-03-19T13:34:06Z</time><name>PT6642</name></trkpt>
<trkpt lat="53.343138" lon="-1.850900"><ele>498</ele><time>2022-03-19T13:34:09Z</time><name>PT6643</name></trkpt>
<trkpt lat="53.343136" lon="-1.850830"><ele>498</ele><time>2022-03-19T13:34:14Z</time><name>PT6644</name></trkpt>
<trkpt lat="53.343138" lon="-1.850747"><ele>498</ele><time>2022-03-19T13:34:18Z</time><name>PT6645</name></trkpt>
<trkpt lat="53.343142" lon="-1.850686"><ele>499</ele><time>2022-03-19T13:34:21Z</time><name>PT6646</name></trkpt>
<trkpt lat="53.343143" lon="-1.850629"><ele>499</ele><time>2022-03-19T13:34:24Z</time><name>PT6647</name></trkpt>
<trkpt lat="53.343147" lon="-1.850567"><ele>500</ele><time>2022-03-19T13:34:27Z</time><name>PT6648</name></trkpt>
<trkpt lat="53.343155" lon="-1.850491"><ele>500</ele><time>2022-03-19T13:34:30Z</time><name>PT6649</name></trkpt>
<trkpt lat="53.343162" lon="-1.850407"><ele>501</ele><time>2022-03-19T13:34:35Z</time><name>PT6650</name></trkpt>
<trkpt lat="53.343170" lon="-1.850359"><ele>502</ele><time>2022-03-19T13:34:38Z</time><name>PT6651</name></trkpt>
<trkpt lat="53.343181" lon="-1.850292"><ele>502</ele><time>2022-03-19T13:34:42Z</time><name>PT6652</name></trkpt>
<trkpt lat="53.343193" lon="-1.850240"><ele>502</ele><time>2022-03-19T13:34:45Z</time><name>PT6653</name></trkpt>
<trkpt lat="53.343196" lon="-1.850160"><ele>502</ele><time>2022-03-19T13:34:48Z</time><name>PT6654</name></trkpt>
<trkpt lat="53.343201" lon="-1.850098"><ele>503</ele><time>2022-03-19T13:34:51Z</time><name>PT6655</name></trkpt>
<trkpt lat="53.343208" lon="-1.850038"><ele>503</ele><time>2022-03-19T13:34:54Z</time><name>PT6656</name></trkpt>
<trkpt lat="53.343210" lon="-1.849993"><ele>502</ele><time>2022-03-19T13:34:57Z</time><name>PT6657</name></trkpt>
<trkpt lat="53.343216" lon="-1.849913"><ele>502</ele><time>2022-03-19T13:35:02Z</time><name>PT6658</name></trkpt>
<trkpt lat="53.343225" lon="-1.849844"><ele>503</ele><time>2022-03-19T13:35:06Z</time><name>PT6659</name></trkpt>
<trkpt lat="53.343225" lon="-1.849795"><ele>504</ele><time>2022-03-19T13:35:09Z</time><name>PT6660</name></trkpt>
<trkpt lat="53.343221" lon="-1.849740"><ele>503</ele><time>2022-03-19T13:35:12Z</time><name>PT6661</name></trkpt>
<trkpt lat="53.343223" lon="-1.849675"><ele>505</ele><time>2022-03-19T13:35:15Z</time><name>PT6662</name></trkpt>
<trkpt lat="53.343224" lon="-1.849610"><ele>504</ele><time>2022-03-19T13:35:18Z</time><name>PT6663</name></trkpt>
<trkpt lat="53.343224" lon="-1.849548"><ele>505</ele><time>2022-03-19T13:35:21Z</time><name>PT6664</name></trkpt>
<trkpt lat="53.343225" lon="-1.849478"><ele>506</ele><time>2022-03-19T13:35:26Z</time><name>PT6665</name></trkpt>
<trkpt lat="53.343225" lon="-1.849416"><ele>506</ele><time>2022-03-19T13:35:29Z</time><name>PT6666</name></trkpt>
<trkpt lat="53.343224" lon="-1.849361"><ele>507</ele><time>2022-03-19T13:35:32Z</time><name>PT6667</name></trkpt>
<trkpt lat="53.343224" lon="-1.849287"><ele>507</ele><time>2022-03-19T13:35:36Z</time><name>PT6668</name></trkpt>
<trkpt lat="53.343228" lon="-1.849226"><ele>506</ele><time>2022-03-19T13:35:39Z</time><name>PT6669</name></trkpt>
<trkpt lat="53.343230" lon="-1.849152"><ele>507</ele><time>2022-03-19T13:35:44Z</time><name>PT6670</name></trkpt>
<trkpt lat="53.343239" lon="-1.849077"><ele>507</ele><time>2022-03-19T13:35:48Z</time><name>PT6671</name></trkpt>
<trkpt lat="53.343250" lon="-1.849023"><ele>508</ele><time>2022-03-19T13:35:51Z</time><name>PT6672</name></trkpt>
<trkpt lat="53.343257" lon="-1.848976"><ele>508</ele><time>2022-03-19T13:35:54Z</time><name>PT6673</name></trkpt>
<trkpt lat="53.343268" lon="-1.848900"><ele>509</ele><time>2022-03-19T13:35:57Z</time><name>PT6674</name></trkpt>
<trkpt lat="53.343281" lon="-1.848850"><ele>509</ele><time>2022-03-19T13:36:00Z</time><name>PT6675</name></trkpt>
<trkpt lat="53.343298" lon="-1.848786"><ele>509</ele><time>2022-03-19T13:36:05Z</time><name>PT6676</name></trkpt>
<trkpt lat="53.343315" lon="-1.848737"><ele>509</ele><time>2022-03-19T13:36:08Z</time><name>PT6677</name></trkpt>
<trkpt lat="53.343339" lon="-1.848681"><ele>509</ele><time>2022-03-19T13:36:12Z</time><name>PT6678</name></trkpt>
<trkpt lat="53.343354" lon="-1.848634"><ele>510</ele><time>2022-03-19T13:36:15Z</time><name>PT6679</name></trkpt>
<trkpt lat="53.343375" lon="-1.848581"><ele>511</ele><time>2022-03-19T13:36:18Z</time><name>PT6680</name></trkpt>
<trkpt lat="53.343395" lon="-1.848513"><ele>510</ele><time>2022-03-19T13:36:21Z</time><name>PT6681</name></trkpt>
<trkpt lat="53.343414" lon="-1.848458"><ele>511</ele><time>2022-03-19T13:36:24Z</time><name>PT6682</name></trkpt>
<trkpt lat="53.343446" lon="-1.848386"><ele>511</ele><time>2022-03-19T13:36:29Z</time><name>PT6683</name></trkpt>
<trkpt lat="53.343472" lon="-1.848320"><ele>511</ele><time>2022-03-19T13:36:33Z</time><name>PT6684</name></trkpt>
<trkpt lat="53.343497" lon="-1.848245"><ele>512</ele><time>2022-03-19T13:36:36Z</time><name>PT6685</name></trkpt>
<trkpt lat="53.343509" lon="-1.848190"><ele>512</ele><time>2022-03-19T13:36:39Z</time><name>PT6686</name></trkpt>
<trkpt lat="53.343530" lon="-1.848138"><ele>513</ele><time>2022-03-19T13:36:42Z</time><name>PT6687</name></trkpt>
<trkpt lat="53.343550" lon="-1.848089"><ele>513</ele><time>2022-03-19T13:36:45Z</time><name>PT6688</name></trkpt>
<trkpt lat="53.343567" lon="-1.848036"><ele>513</ele><time>2022-03-19T13:36:48Z</time><name>PT6689</name></trkpt>
<trkpt lat="53.343581" lon="-1.847990"><ele>513</ele><time>2022-03-19T13:36:51Z</time><name>PT6690</name></trkpt>
<trkpt lat="53.343602" lon="-1.847914"><ele>513</ele><time>2022-03-19T13:36:56Z</time><name>PT6691</name></trkpt>
<trkpt lat="53.343629" lon="-1.847857"><ele>514</ele><time>2022-03-19T13:37:00Z</time><name>PT6692</name></trkpt>
<trkpt lat="53.343664" lon="-1.847793"><ele>513</ele><time>2022-03-19T13:37:03Z</time><name>PT6693</name></trkpt>
<trkpt lat="53.343697" lon="-1.847730"><ele>514</ele><time>2022-03-19T13:37:08Z</time><name>PT6694</name></trkpt>
<trkpt lat="53.343729" lon="-1.847694"><ele>515</ele><time>2022-03-19T13:37:11Z</time><name>PT6695</name></trkpt>
<trkpt lat="53.343751" lon="-1.847648"><ele>515</ele><time>2022-03-19T13:37:14Z</time><name>PT6696</name></trkpt>
<trkpt lat="53.343784" lon="-1.847592"><ele>516</ele><time>2022-03-19T13:37:18Z</time><name>PT6697</name></trkpt>
<trkpt lat="53.343804" lon="-1.847550"><ele>517</ele><time>2022-03-19T13:37:21Z</time><name>PT6698</name></trkpt>
<trkpt lat="53.343830" lon="-1.847495"><ele>518</ele><time>2022-03-19T13:37:24Z</time><name>PT6699</name></trkpt>
<trkpt lat="53.343849" lon="-1.847428"><ele>516</ele><time>2022-03-19T13:37:29Z</time><name>PT6700</name></trkpt>
<trkpt lat="53.343871" lon="-1.847366"><ele>517</ele><time>2022-03-19T13:37:33Z</time><name>PT6701</name></trkpt>
<trkpt lat="53.343903" lon="-1.847296"><ele>518</ele><time>2022-03-19T13:37:36Z</time><name>PT6702</name></trkpt>
<trkpt lat="53.343937" lon="-1.847236"><ele>519</ele><time>2022-03-19T13:37:41Z</time><name>PT6703</name></trkpt>
<trkpt lat="53.343959" lon="-1.847172"><ele>519</ele><time>2022-03-19T13:37:45Z</time><name>PT6704</name></trkpt>
<trkpt lat="53.343968" lon="-1.847120"><ele>519</ele><time>2022-03-19T13:37:48Z</time><name>PT6705</name></trkpt>
<trkpt lat="53.343987" lon="-1.847053"><ele>518</ele><time>2022-03-19T13:37:51Z</time><name>PT6706</name></trkpt>
<trkpt lat="53.344007" lon="-1.846987"><ele>520</ele><time>2022-03-19T13:37:56Z</time><name>PT6707</name></trkpt>
<trkpt lat="53.344025" lon="-1.846930"><ele>520</ele><time>2022-03-19T13:37:59Z</time><name>PT6708</name></trkpt>
<trkpt lat="53.344040" lon="-1.846867"><ele>520</ele><time>2022-03-19T13:38:03Z</time><name>PT6709</name></trkpt>
<trkpt lat="53.344059" lon="-1.846802"><ele>520</ele><time>2022-03-19T13:38:06Z</time><name>PT6710</name></trkpt>
<trkpt lat="53.344072" lon="-1.846748"><ele>520</ele><time>2022-03-19T13:38:09Z</time><name>PT6711</name></trkpt>
<trkpt lat="53.344095" lon="-1.846673"><ele>519</ele><time>2022-03-19T13:38:14Z</time><name>PT6712</name></trkpt>
<trkpt lat="53.344113" lon="-1.846589"><ele>520</ele><time>2022-03-19T13:38:18Z</time><name>PT6713</name></trkpt>
<trkpt lat="53.344127" lon="-1.846538"><ele>520</ele><time>2022-03-19T13:38:21Z</time><name>PT6714</name></trkpt>
<trkpt lat="53.344139" lon="-1.846491"><ele>520</ele><time>2022-03-19T13:38:24Z</time><name>PT6715</name></trkpt>
<trkpt lat="53.344155" lon="-1.846408"><ele>521</ele><time>2022-03-19T13:38:27Z</time><name>PT6716</name></trkpt>
<trkpt lat="53.344167" lon="-1.846350"><ele>521</ele><time>2022-03-19T13:38:30Z</time><name>PT6717</name></trkpt>
<trkpt lat="53.344186" lon="-1.846283"><ele>521</ele><time>2022-03-19T13:38:35Z</time><name>PT6718</name></trkpt>
<trkpt lat="53.344202" lon="-1.846215"><ele>521</ele><time>2022-03-19T13:38:39Z</time><name>PT6719</name></trkpt>
<trkpt lat="53.344222" lon="-1.846141"><ele>521</ele><time>2022-03-19T13:38:42Z</time><name>PT6720</name></trkpt>
<trkpt lat="53.344237" lon="-1.846085"><ele>521</ele><time>2022-03-19T13:38:45Z</time><name>PT6721</name></trkpt>
<trkpt lat="53.344257" lon="-1.846010"><ele>521</ele><time>2022-03-19T13:38:50Z</time><name>PT6722</name></trkpt>
<trkpt lat="53.344273" lon="-1.845938"><ele>521</ele><time>2022-03-19T13:38:54Z</time><name>PT6723</name></trkpt>
<trkpt lat="53.344289" lon="-1.845893"><ele>521</ele><time>2022-03-19T13:38:57Z</time><name>PT6724</name></trkpt>
<trkpt lat="53.344308" lon="-1.845826"><ele>521</ele><time>2022-03-19T13:39:00Z</time><name>PT6725</name></trkpt>
<trkpt lat="53.344320" lon="-1.845774"><ele>521</ele><time>2022-03-19T13:39:03Z</time><name>PT6726</name></trkpt>
<trkpt lat="53.344340" lon="-1.845725"><ele>522</ele><time>2022-03-19T13:39:06Z</time><name>PT6727</name></trkpt>
<trkpt lat="53.344362" lon="-1.845652"><ele>522</ele><time>2022-03-19T13:39:11Z</time><name>PT6728</name></trkpt>
<trkpt lat="53.344383" lon="-1.845600"><ele>522</ele><time>2022-03-19T13:39:14Z</time><name>PT6729</name></trkpt>
<trkpt lat="53.344404" lon="-1.845540"><ele>524</ele><time>2022-03-19T13:39:17Z</time><name>PT6730</name></trkpt>
<trkpt lat="53.344428" lon="-1.845483"><ele>524</ele><time>2022-03-19T13:39:20Z</time><name>PT6731</name></trkpt>
<trkpt lat="53.344443" lon="-1.845432"><ele>524</ele><time>2022-03-19T13:39:23Z</time><name>PT6732</name></trkpt>
<trkpt lat="53.344465" lon="-1.845368"><ele>525</ele><time>2022-03-19T13:39:27Z</time><name>PT6733</name></trkpt>
<trkpt lat="53.344489" lon="-1.845300"><ele>525</ele><time>2022-03-19T13:39:30Z</time><name>PT6734</name></trkpt>
<trkpt lat="53.344517" lon="-1.845238"><ele>525</ele><time>2022-03-19T13:39:35Z</time><name>PT6735</name></trkpt>
<trkpt lat="53.344544" lon="-1.845172"><ele>524</ele><time>2022-03-19T13:39:39Z</time><name>PT6736</name></trkpt>
<trkpt lat="53.344568" lon="-1.845128"><ele>525</ele><time>2022-03-19T13:39:42Z</time><name>PT6737</name></trkpt>
<trkpt lat="53.344590" lon="-1.845081"><ele>525</ele><time>2022-03-19T13:39:45Z</time><name>PT6738</name></trkpt>
<trkpt lat="53.344616" lon="-1.845023"><ele>525</ele><time>2022-03-19T13:39:48Z</time><name>PT6739</name></trkpt>
<trkpt lat="53.344637" lon="-1.844960"><ele>525</ele><time>2022-03-19T13:39:53Z</time><name>PT6740</name></trkpt>
<trkpt lat="53.344663" lon="-1.844880"><ele>525</ele><time>2022-03-19T13:39:57Z</time><name>PT6741</name></trkpt>
<trkpt lat="53.344684" lon="-1.844807"><ele>524</ele><time>2022-03-19T13:40:00Z</time><name>PT6742</name></trkpt>
<trkpt lat="53.344709" lon="-1.844731"><ele>523</ele><time>2022-03-19T13:40:05Z</time><name>PT6743</name></trkpt>
<trkpt lat="53.344727" lon="-1.844654"><ele>524</ele><time>2022-03-19T13:40:09Z</time><name>PT6744</name></trkpt>
<trkpt lat="53.344749" lon="-1.844604"><ele>524</ele><time>2022-03-19T13:40:12Z</time><name>PT6745</name></trkpt>
<trkpt lat="53.344773" lon="-1.844532"><ele>525</ele><time>2022-03-19T13:40:15Z</time><name>PT6746</name></trkpt>
<trkpt lat="53.344796" lon="-1.844479"><ele>525</ele><time>2022-03-19T13:40:18Z</time><name>PT6747</name></trkpt>
<trkpt lat="53.344812" lon="-1.844431"><ele>525</ele><time>2022-03-19T13:40:21Z</time><name>PT6748</name></trkpt>
<trkpt lat="53.344825" lon="-1.844374"><ele>525</ele><time>2022-03-19T13:40:24Z</time><name>PT6749</name></trkpt>
<trkpt lat="53.344848" lon="-1.844303"><ele>525</ele><time>2022-03-19T13:40:29Z</time><name>PT6750</name></trkpt>
<trkpt lat="53.344873" lon="-1.844238"><ele>525</ele><time>2022-03-19T13:40:33Z</time><name>PT6751</name></trkpt>
<trkpt lat="53.344889" lon="-1.844189"><ele>525</ele><time>2022-03-19T13:40:36Z</time><name>PT6752</name></trkpt>
<trkpt lat="53.344909" lon="-1.844131"><ele>525</ele><time>2022-03-19T13:40:39Z</time><name>PT6753</name></trkpt>
<trkpt lat="53.344931" lon="-1.844085"><ele>526</ele><time>2022-03-19T13:40:42Z</time><name>PT6754</name></trkpt>
<trkpt lat="53.344953" lon="-1.844018"><ele>526</ele><time>2022-03-19T13:40:45Z</time><name>PT6755</name></trkpt>
<trkpt lat="53.344974" lon="-1.843967"><ele>527</ele><time>2022-03-19T13:40:48Z</time><name>PT6756</name></trkpt>
<trkpt lat="53.344986" lon="-1.843897"><ele>527</ele><time>2022-03-19T13:40:53Z</time><name>PT6757</name></trkpt>
<trkpt lat="53.345002" lon="-1.843846"><ele>528</ele><time>2022-03-19T13:40:56Z</time><name>PT6758</name></trkpt>
<trkpt lat="53.345019" lon="-1.843775"><ele>527</ele><time>2022-03-19T13:41:00Z</time><name>PT6759</name></trkpt>
<trkpt lat="53.345038" lon="-1.843729"><ele>528</ele><time>2022-03-19T13:41:03Z</time><name>PT6760</name></trkpt>
<trkpt lat="53.345052" lon="-1.843689"><ele>528</ele><time>2022-03-19T13:41:06Z</time><name>PT6761</name></trkpt>
<trkpt lat="53.345061" lon="-1.843649"><ele>528</ele><time>2022-03-19T13:41:09Z</time><name>PT6762</name></trkpt>
<trkpt lat="53.345070" lon="-1.843623"><ele>527</ele><time>2022-03-19T13:41:12Z</time><name>PT6763</name></trkpt>
<trkpt lat="53.345070" lon="-1.843614"><ele>527</ele><time>2022-03-19T13:41:15Z</time><name>PT6764</name></trkpt>
<trkpt lat="53.345092" lon="-1.843557"><ele>527</ele><time>2022-03-19T13:41:20Z</time><name>PT6765</name></trkpt>
<trkpt lat="53.345102" lon="-1.843495"><ele>527</ele><time>2022-03-19T13:41:24Z</time><name>PT6766</name></trkpt>
<trkpt lat="53.345103" lon="-1.843472"><ele>527</ele><time>2022-03-19T13:41:27Z</time><name>PT6767</name></trkpt>
<trkpt lat="53.345113" lon="-1.843429"><ele>527</ele><time>2022-03-19T13:41:30Z</time><name>PT6768</name></trkpt>
<trkpt lat="53.345145" lon="-1.843372"><ele>527</ele><time>2022-03-19T13:41:35Z</time><name>PT6769</name></trkpt>
<trkpt lat="53.345174" lon="-1.843325"><ele>528</ele><time>2022-03-19T13:41:38Z</time><name>PT6770</name></trkpt>
<trkpt lat="53.345195" lon="-1.843264"><ele>527</ele><time>2022-03-19T13:41:42Z</time><name>PT6771</name></trkpt>
<trkpt lat="53.345215" lon="-1.843217"><ele>527</ele><time>2022-03-19T13:41:45Z</time><name>PT6772</name></trkpt>
<trkpt lat="53.345232" lon="-1.843168"><ele>527</ele><time>2022-03-19T13:41:48Z</time><name>PT6773</name></trkpt>
<trkpt lat="53.345254" lon="-1.843093"><ele>528</ele><time>2022-03-19T13:41:51Z</time><name>PT6774</name></trkpt>
<trkpt lat="53.345275" lon="-1.843020"><ele>528</ele><time>2022-03-19T13:41:56Z</time><name>PT6775</name></trkpt>
<trkpt lat="53.345291" lon="-1.842966"><ele>529</ele><time>2022-03-19T13:41:59Z</time><name>PT6776</name></trkpt>
<trkpt lat="53.345309" lon="-1.842893"><ele>529</ele><time>2022-03-19T13:42:03Z</time><name>PT6777</name></trkpt>
<trkpt lat="53.345320" lon="-1.842839"><ele>529</ele><time>2022-03-19T13:42:06Z</time><name>PT6778</name></trkpt>
<trkpt lat="53.345336" lon="-1.842759"><ele>530</ele><time>2022-03-19T13:42:09Z</time><name>PT6779</name></trkpt>
<trkpt lat="53.345353" lon="-1.842704"><ele>531</ele><time>2022-03-19T13:42:12Z</time><name>PT6780</name></trkpt>
<trkpt lat="53.345384" lon="-1.842630"><ele>531</ele><time>2022-03-19T13:42:17Z</time><name>PT6781</name></trkpt>
<trkpt lat="53.345398" lon="-1.842574"><ele>531</ele><time>2022-03-19T13:42:20Z</time><name>PT6782</name></trkpt>
<trkpt lat="53.345416" lon="-1.842499"><ele>531</ele><time>2022-03-19T13:42:24Z</time><name>PT6783</name></trkpt>
<trkpt lat="53.345434" lon="-1.842418"><ele>531</ele><time>2022-03-19T13:42:27Z</time><name>PT6784</name></trkpt>
<trkpt lat="53.345464" lon="-1.842345"><ele>532</ele><time>2022-03-19T13:42:32Z</time><name>PT6785</name></trkpt>
<trkpt lat="53.345488" lon="-1.842267"><ele>531</ele><time>2022-03-19T13:42:36Z</time><name>PT6786</name></trkpt>
<trkpt lat="53.345502" lon="-1.842190"><ele>531</ele><time>2022-03-19T13:42:39Z</time><name>PT6787</name></trkpt>
<trkpt lat="53.345518" lon="-1.842117"><ele>531</ele><time>2022-03-19T13:42:44Z</time><name>PT6788</name></trkpt>
<trkpt lat="53.345529" lon="-1.842077"><ele>530</ele><time>2022-03-19T13:42:47Z</time><name>PT6789</name></trkpt>
<trkpt lat="53.345539" lon="-1.842039"><ele>530</ele><time>2022-03-19T13:42:51Z</time><name>PT6790</name></trkpt>
<trkpt lat="53.345542" lon="-1.842002"><ele>531</ele><time>2022-03-19T13:42:54Z</time><name>PT6791</name></trkpt>
<trkpt lat="53.345549" lon="-1.841946"><ele>530</ele><time>2022-03-19T13:43:02Z</time><name>PT6792</name></trkpt>
<trkpt lat="53.345562" lon="-1.841892"><ele>528</ele><time>2022-03-19T13:43:06Z</time><name>PT6793</name></trkpt>
<trkpt lat="53.345582" lon="-1.841841"><ele>527</ele><time>2022-03-19T13:43:09Z</time><name>PT6794</name></trkpt>
<trkpt lat="53.345607" lon="-1.841772"><ele>529</ele><time>2022-03-19T13:43:12Z</time><name>PT6795</name></trkpt>
<trkpt lat="53.345621" lon="-1.841727"><ele>529</ele><time>2022-03-19T13:43:15Z</time><name>PT6796</name></trkpt>
<trkpt lat="53.345635" lon="-1.841671"><ele>530</ele><time>2022-03-19T13:43:18Z</time><name>PT6797</name></trkpt>
<trkpt lat="53.345656" lon="-1.841604"><ele>531</ele><time>2022-03-19T13:43:23Z</time><name>PT6798</name></trkpt>
<trkpt lat="53.345678" lon="-1.841532"><ele>531</ele><time>2022-03-19T13:43:27Z</time><name>PT6799</name></trkpt>
<trkpt lat="53.345707" lon="-1.841464"><ele>532</ele><time>2022-03-19T13:43:30Z</time><name>PT6800</name></trkpt>
<trkpt lat="53.345732" lon="-1.841385"><ele>532</ele><time>2022-03-19T13:43:35Z</time><name>PT6801</name></trkpt>
<trkpt lat="53.345757" lon="-1.841328"><ele>533</ele><time>2022-03-19T13:43:38Z</time><name>PT6802</name></trkpt>
<trkpt lat="53.345771" lon="-1.841277"><ele>533</ele><time>2022-03-19T13:43:41Z</time><name>PT6803</name></trkpt>
<trkpt lat="53.345798" lon="-1.841204"><ele>534</ele><time>2022-03-19T13:43:45Z</time><name>PT6804</name></trkpt>
<trkpt lat="53.345823" lon="-1.841128"><ele>534</ele><time>2022-03-19T13:43:48Z</time><name>PT6805</name></trkpt>
<trkpt lat="53.345849" lon="-1.841063"><ele>535</ele><time>2022-03-19T13:43:51Z</time><name>PT6806</name></trkpt>
<trkpt lat="53.345879" lon="-1.840992"><ele>535</ele><time>2022-03-19T13:43:56Z</time><name>PT6807</name></trkpt>
<trkpt lat="53.345903" lon="-1.840911"><ele>536</ele><time>2022-03-19T13:44:00Z</time><name>PT6808</name></trkpt>
<trkpt lat="53.345921" lon="-1.840834"><ele>536</ele><time>2022-03-19T13:44:03Z</time><name>PT6809</name></trkpt>
<trkpt lat="53.345947" lon="-1.840754"><ele>536</ele><time>2022-03-19T13:44:08Z</time><name>PT6810</name></trkpt>
<trkpt lat="53.345959" lon="-1.840692"><ele>536</ele><time>2022-03-19T13:44:11Z</time><name>PT6811</name></trkpt>
<trkpt lat="53.345973" lon="-1.840635"><ele>536</ele><time>2022-03-19T13:44:14Z</time><name>PT6812</name></trkpt>
<trkpt lat="53.345993" lon="-1.840581"><ele>537</ele><time>2022-03-19T13:44:17Z</time><name>PT6813</name></trkpt>
<trkpt lat="53.346014" lon="-1.840508"><ele>538</ele><time>2022-03-19T13:44:21Z</time><name>PT6814</name></trkpt>
<trkpt lat="53.346027" lon="-1.840457"><ele>538</ele><time>2022-03-19T13:44:24Z</time><name>PT6815</name></trkpt>
<trkpt lat="53.346047" lon="-1.840402"><ele>539</ele><time>2022-03-19T13:44:27Z</time><name>PT6816</name></trkpt>
<trkpt lat="53.346071" lon="-1.840345"><ele>539</ele><time>2022-03-19T13:44:30Z</time><name>PT6817</name></trkpt>
<trkpt lat="53.346095" lon="-1.840270"><ele>540</ele><time>2022-03-19T13:44:33Z</time><name>PT6818</name></trkpt>
<trkpt lat="53.346118" lon="-1.840211"><ele>541</ele><time>2022-03-19T13:44:36Z</time><name>PT6819</name></trkpt>
<trkpt lat="53.346144" lon="-1.840147"><ele>541</ele><time>2022-03-19T13:44:41Z</time><name>PT6820</name></trkpt>
<trkpt lat="53.346150" lon="-1.840097"><ele>541</ele><time>2022-03-19T13:44:44Z</time><name>PT6821</name></trkpt>
<trkpt lat="53.346162" lon="-1.840037"><ele>540</ele><time>2022-03-19T13:44:47Z</time><name>PT6822</name></trkpt>
<trkpt lat="53.346173" lon="-1.839981"><ele>540</ele><time>2022-03-19T13:44:50Z</time><name>PT6823</name></trkpt>
<trkpt lat="53.346202" lon="-1.839905"><ele>541</ele><time>2022-03-19T13:44:54Z</time><name>PT6824</name></trkpt>
<trkpt lat="53.346224" lon="-1.839854"><ele>541</ele><time>2022-03-19T13:44:57Z</time><name>PT6825</name></trkpt>
<trkpt lat="53.346246" lon="-1.839780"><ele>542</ele><time>2022-03-19T13:45:00Z</time><name>PT6826</name></trkpt>
<trkpt lat="53.346264" lon="-1.839730"><ele>542</ele><time>2022-03-19T13:45:03Z</time><name>PT6827</name></trkpt>
<trkpt lat="53.346277" lon="-1.839671"><ele>541</ele><time>2022-03-19T13:45:06Z</time><name>PT6828</name></trkpt>
<trkpt lat="53.346294" lon="-1.839597"><ele>542</ele><time>2022-03-19T13:45:11Z</time><name>PT6829</name></trkpt>
<trkpt lat="53.346308" lon="-1.839545"><ele>541</ele><time>2022-03-19T13:45:14Z</time><name>PT6830</name></trkpt>
<trkpt lat="53.346334" lon="-1.839468"><ele>542</ele><time>2022-03-19T13:45:18Z</time><name>PT6831</name></trkpt>
<trkpt lat="53.346355" lon="-1.839419"><ele>541</ele><time>2022-03-19T13:45:21Z</time><name>PT6832</name></trkpt>
<trkpt lat="53.346378" lon="-1.839343"><ele>541</ele><time>2022-03-19T13:45:24Z</time><name>PT6833</name></trkpt>
<trkpt lat="53.346404" lon="-1.839262"><ele>543</ele><time>2022-03-19T13:45:29Z</time><name>PT6834</name></trkpt>
<trkpt lat="53.346421" lon="-1.839199"><ele>543</ele><time>2022-03-19T13:45:32Z</time><name>PT6835</name></trkpt>
<trkpt lat="53.346438" lon="-1.839141"><ele>543</ele><time>2022-03-19T13:45:35Z</time><name>PT6836</name></trkpt>
<trkpt lat="53.346446" lon="-1.839091"><ele>542</ele><time>2022-03-19T13:45:38Z</time><name>PT6837</name></trkpt>
<trkpt lat="53.346467" lon="-1.839046"><ele>542</ele><time>2022-03-19T13:45:41Z</time><name>PT6838</name></trkpt>
<trkpt lat="53.346490" lon="-1.839024"><ele>543</ele><time>2022-03-19T13:45:45Z</time><name>PT6839</name></trkpt>
<trkpt lat="53.346498" lon="-1.838950"><ele>543</ele><time>2022-03-19T13:45:48Z</time><name>PT6840</name></trkpt>
<trkpt lat="53.346513" lon="-1.838871"><ele>543</ele><time>2022-03-19T13:45:53Z</time><name>PT6841</name></trkpt>
<trkpt lat="53.346531" lon="-1.838787"><ele>543</ele><time>2022-03-19T13:45:57Z</time><name>PT6842</name></trkpt>
<trkpt lat="53.346542" lon="-1.838727"><ele>543</ele><time>2022-03-19T13:46:00Z</time><name>PT6843</name></trkpt>
<trkpt lat="53.346560" lon="-1.838643"><ele>544</ele><time>2022-03-19T13:46:03Z</time><name>PT6844</name></trkpt>
<trkpt lat="53.346568" lon="-1.838583"><ele>544</ele><time>2022-03-19T13:46:06Z</time><name>PT6845</name></trkpt>
<trkpt lat="53.346583" lon="-1.838526"><ele>544</ele><time>2022-03-19T13:46:09Z</time><name>PT6846</name></trkpt>
<trkpt lat="53.346597" lon="-1.838467"><ele>544</ele><time>2022-03-19T13:46:12Z</time><name>PT6847</name></trkpt>
<trkpt lat="53.346617" lon="-1.838382"><ele>544</ele><time>2022-03-19T13:46:17Z</time><name>PT6848</name></trkpt>
<trkpt lat="53.346627" lon="-1.838326"><ele>544</ele><time>2022-03-19T13:46:20Z</time><name>PT6849</name></trkpt>
<trkpt lat="53.346636" lon="-1.838266"><ele>543</ele><time>2022-03-19T13:46:23Z</time><name>PT6850</name></trkpt>
<trkpt lat="53.346656" lon="-1.838188"><ele>544</ele><time>2022-03-19T13:46:27Z</time><name>PT6851</name></trkpt>
<trkpt lat="53.346676" lon="-1.838110"><ele>544</ele><time>2022-03-19T13:46:30Z</time><name>PT6852</name></trkpt>
<trkpt lat="53.346697" lon="-1.838056"><ele>545</ele><time>2022-03-19T13:46:33Z</time><name>PT6853</name></trkpt>
<trkpt lat="53.346713" lon="-1.837997"><ele>545</ele><time>2022-03-19T13:46:36Z</time><name>PT6854</name></trkpt>
<trkpt lat="53.346733" lon="-1.837936"><ele>545</ele><time>2022-03-19T13:46:39Z</time><name>PT6855</name></trkpt>
<trkpt lat="53.346746" lon="-1.837860"><ele>545</ele><time>2022-03-19T13:46:44Z</time><name>PT6856</name></trkpt>
<trkpt lat="53.346766" lon="-1.837807"><ele>545</ele><time>2022-03-19T13:46:47Z</time><name>PT6857</name></trkpt>
<trkpt lat="53.346782" lon="-1.837755"><ele>545</ele><time>2022-03-19T13:46:50Z</time><name>PT6858</name></trkpt>
<trkpt lat="53.346795" lon="-1.837689"><ele>545</ele><time>2022-03-19T13:46:53Z</time><name>PT6859</name></trkpt>
<trkpt lat="53.346812" lon="-1.837629"><ele>545</ele><time>2022-03-19T13:46:56Z</time><name>PT6860</name></trkpt>
<trkpt lat="53.346830" lon="-1.837569"><ele>545</ele><time>2022-03-19T13:46:59Z</time><name>PT6861</name></trkpt>
<trkpt lat="53.346853" lon="-1.837488"><ele>545</ele><time>2022-03-19T13:47:03Z</time><name>PT6862</name></trkpt>
<trkpt lat="53.346873" lon="-1.837411"><ele>546</ele><time>2022-03-19T13:47:06Z</time><name>PT6863</name></trkpt>
<trkpt lat="53.346888" lon="-1.837361"><ele>546</ele><time>2022-03-19T13:47:09Z</time><name>PT6864</name></trkpt>
<trkpt lat="53.346902" lon="-1.837291"><ele>546</ele><time>2022-03-19T13:47:14Z</time><name>PT6865</name></trkpt>
<trkpt lat="53.346927" lon="-1.837211"><ele>546</ele><time>2022-03-19T13:47:18Z</time><name>PT6866</name></trkpt>
<trkpt lat="53.346947" lon="-1.837126"><ele>547</ele><time>2022-03-19T13:47:21Z</time><name>PT6867</name></trkpt>
<trkpt lat="53.346963" lon="-1.837066"><ele>547</ele><time>2022-03-19T13:47:24Z</time><name>PT6868</name></trkpt>
<trkpt lat="53.346972" lon="-1.836999"><ele>547</ele><time>2022-03-19T13:47:29Z</time><name>PT6869</name></trkpt>
<trkpt lat="53.346980" lon="-1.836945"><ele>546</ele><time>2022-03-19T13:47:32Z</time><name>PT6870</name></trkpt>
<trkpt lat="53.346998" lon="-1.836900"><ele>546</ele><time>2022-03-19T13:47:35Z</time><name>PT6871</name></trkpt>
<trkpt lat="53.347019" lon="-1.836854"><ele>547</ele><time>2022-03-19T13:47:38Z</time><name>PT6872</name></trkpt>
<trkpt lat="53.347040" lon="-1.836796"><ele>547</ele><time>2022-03-19T13:47:41Z</time><name>PT6873</name></trkpt>
<trkpt lat="53.347068" lon="-1.836712"><ele>548</ele><time>2022-03-19T13:47:45Z</time><name>PT6874</name></trkpt>
<trkpt lat="53.347090" lon="-1.836640"><ele>548</ele><time>2022-03-19T13:47:48Z</time><name>PT6875</name></trkpt>
<trkpt lat="53.347109" lon="-1.836556"><ele>548</ele><time>2022-03-19T13:47:53Z</time><name>PT6876</name></trkpt>
<trkpt lat="53.347128" lon="-1.836495"><ele>548</ele><time>2022-03-19T13:47:56Z</time><name>PT6877</name></trkpt>
<trkpt lat="53.347143" lon="-1.836422"><ele>548</ele><time>2022-03-19T13:48:00Z</time><name>PT6878</name></trkpt>
<trkpt lat="53.347156" lon="-1.836367"><ele>548</ele><time>2022-03-19T13:48:03Z</time><name>PT6879</name></trkpt>
<trkpt lat="53.347178" lon="-1.836288"><ele>548</ele><time>2022-03-19T13:48:06Z</time><name>PT6880</name></trkpt>
<trkpt lat="53.347198" lon="-1.836209"><ele>548</ele><time>2022-03-19T13:48:11Z</time><name>PT6881</name></trkpt>
<trkpt lat="53.347221" lon="-1.836133"><ele>549</ele><time>2022-03-19T13:48:15Z</time><name>PT6882</name></trkpt>
<trkpt lat="53.347232" lon="-1.836067"><ele>549</ele><time>2022-03-19T13:48:18Z</time><name>PT6883</name></trkpt>
<trkpt lat="53.347242" lon="-1.835992"><ele>549</ele><time>2022-03-19T13:48:21Z</time><name>PT6884</name></trkpt>
<trkpt lat="53.347253" lon="-1.835929"><ele>548</ele><time>2022-03-19T13:48:24Z</time><name>PT6885</name></trkpt>
<trkpt lat="53.347262" lon="-1.835847"><ele>547</ele><time>2022-03-19T13:48:29Z</time><name>PT6886</name></trkpt>
<trkpt lat="53.347285" lon="-1.835758"><ele>548</ele><time>2022-03-19T13:48:33Z</time><name>PT6887</name></trkpt>
<trkpt lat="53.347295" lon="-1.835698"><ele>548</ele><time>2022-03-19T13:48:36Z</time><name>PT6888</name></trkpt>
<trkpt lat="53.347328" lon="-1.835623"><ele>548</ele><time>2022-03-19T13:48:39Z</time><name>PT6889</name></trkpt>
<trkpt lat="53.347336" lon="-1.835563"><ele>549</ele><time>2022-03-19T13:48:42Z</time><name>PT6890</name></trkpt>
<trkpt lat="53.347354" lon="-1.835478"><ele>549</ele><time>2022-03-19T13:48:47Z</time><name>PT6891</name></trkpt>
<trkpt lat="53.347366" lon="-1.835400"><ele>549</ele><time>2022-03-19T13:48:51Z</time><name>PT6892</name></trkpt>
<trkpt lat="53.347387" lon="-1.835350"><ele>549</ele><time>2022-03-19T13:48:54Z</time><name>PT6893</name></trkpt>
<trkpt lat="53.347400" lon="-1.835274"><ele>548</ele><time>2022-03-19T13:48:57Z</time><name>PT6894</name></trkpt>
<trkpt lat="53.347431" lon="-1.835205"><ele>549</ele><time>2022-03-19T13:49:02Z</time><name>PT6895</name></trkpt>
<trkpt lat="53.347446" lon="-1.835149"><ele>549</ele><time>2022-03-19T13:49:05Z</time><name>PT6896</name></trkpt>
<trkpt lat="53.347469" lon="-1.835061"><ele>550</ele><time>2022-03-19T13:49:09Z</time><name>PT6897</name></trkpt>
<trkpt lat="53.347484" lon="-1.834976"><ele>550</ele><time>2022-03-19T13:49:12Z</time><name>PT6898</name></trkpt>
<trkpt lat="53.347500" lon="-1.834901"><ele>550</ele><time>2022-03-19T13:49:17Z</time><name>PT6899</name></trkpt>
<trkpt lat="53.347510" lon="-1.834842"><ele>550</ele><time>2022-03-19T13:49:20Z</time><name>PT6900</name></trkpt>
<trkpt lat="53.347529" lon="-1.834760"><ele>551</ele><time>2022-03-19T13:49:24Z</time><name>PT6901</name></trkpt>
<trkpt lat="53.347544" lon="-1.834677"><ele>551</ele><time>2022-03-19T13:49:27Z</time><name>PT6902</name></trkpt>
<trkpt lat="53.347561" lon="-1.834611"><ele>552</ele><time>2022-03-19T13:49:30Z</time><name>PT6903</name></trkpt>
<trkpt lat="53.347571" lon="-1.834555"><ele>551</ele><time>2022-03-19T13:49:33Z</time><name>PT6904</name></trkpt>
<trkpt lat="53.347584" lon="-1.834489"><ele>551</ele><time>2022-03-19T13:49:36Z</time><name>PT6905</name></trkpt>
<trkpt lat="53.347603" lon="-1.834407"><ele>552</ele><time>2022-03-19T13:49:41Z</time><name>PT6906</name></trkpt>
<trkpt lat="53.347610" lon="-1.834349"><ele>552</ele><time>2022-03-19T13:49:44Z</time><name>PT6907</name></trkpt>
<trkpt lat="53.347627" lon="-1.834266"><ele>552</ele><time>2022-03-19T13:49:48Z</time><name>PT6908</name></trkpt>
<trkpt lat="53.347630" lon="-1.834203"><ele>552</ele><time>2022-03-19T13:49:51Z</time><name>PT6909</name></trkpt>
<trkpt lat="53.347638" lon="-1.834118"><ele>552</ele><time>2022-03-19T13:49:54Z</time><name>PT6910</name></trkpt>
<trkpt lat="53.347644" lon="-1.834027"><ele>552</ele><time>2022-03-19T13:49:59Z</time><name>PT6911</name></trkpt>
<trkpt lat="53.347648" lon="-1.833962"><ele>551</ele><time>2022-03-19T13:50:02Z</time><name>PT6912</name></trkpt>
<trkpt lat="53.347655" lon="-1.833872"><ele>551</ele><time>2022-03-19T13:50:06Z</time><name>PT6913</name></trkpt>
<trkpt lat="53.347667" lon="-1.833809"><ele>551</ele><time>2022-03-19T13:50:09Z</time><name>PT6914</name></trkpt>
<trkpt lat="53.347684" lon="-1.833756"><ele>551</ele><time>2022-03-19T13:50:12Z</time><name>PT6915</name></trkpt>
<trkpt lat="53.347701" lon="-1.833666"><ele>552</ele><time>2022-03-19T13:50:15Z</time><name>PT6916</name></trkpt>
<trkpt lat="53.347707" lon="-1.833590"><ele>551</ele><time>2022-03-19T13:50:20Z</time><name>PT6917</name></trkpt>
<trkpt lat="53.347710" lon="-1.833541"><ele>550</ele><time>2022-03-19T13:50:23Z</time><name>PT6918</name></trkpt>
<trkpt lat="53.347721" lon="-1.833455"><ele>550</ele><time>2022-03-19T13:50:27Z</time><name>PT6919</name></trkpt>
<trkpt lat="53.347735" lon="-1.833383"><ele>550</ele><time>2022-03-19T13:50:30Z</time><name>PT6920</name></trkpt>
<trkpt lat="53.347739" lon="-1.833310"><ele>550</ele><time>2022-03-19T13:50:33Z</time><name>PT6921</name></trkpt>
<trkpt lat="53.347746" lon="-1.833245"><ele>550</ele><time>2022-03-19T13:50:36Z</time><name>PT6922</name></trkpt>
<trkpt lat="53.347748" lon="-1.833157"><ele>549</ele><time>2022-03-19T13:50:39Z</time><name>PT6923</name></trkpt>
<trkpt lat="53.347754" lon="-1.833097"><ele>549</ele><time>2022-03-19T13:50:42Z</time><name>PT6924</name></trkpt>
<trkpt lat="53.347769" lon="-1.833007"><ele>549</ele><time>2022-03-19T13:50:47Z</time><name>PT6925</name></trkpt>
<trkpt lat="53.347787" lon="-1.832911"><ele>550</ele><time>2022-03-19T13:50:51Z</time><name>PT6926</name></trkpt>
<trkpt lat="53.347801" lon="-1.832831"><ele>550</ele><time>2022-03-19T13:50:54Z</time><name>PT6927</name></trkpt>
<trkpt lat="53.347809" lon="-1.832744"><ele>551</ele><time>2022-03-19T13:50:59Z</time><name>PT6928</name></trkpt>
<trkpt lat="53.347822" lon="-1.832685"><ele>550</ele><time>2022-03-19T13:51:02Z</time><name>PT6929</name></trkpt>
<trkpt lat="53.347832" lon="-1.832599"><ele>550</ele><time>2022-03-19T13:51:06Z</time><name>PT6930</name></trkpt>
<trkpt lat="53.347834" lon="-1.832519"><ele>549</ele><time>2022-03-19T13:51:09Z</time><name>PT6931</name></trkpt>
<trkpt lat="53.347838" lon="-1.832431"><ele>549</ele><time>2022-03-19T13:51:14Z</time><name>PT6932</name></trkpt>
<trkpt lat="53.347853" lon="-1.832367"><ele>549</ele><time>2022-03-19T13:51:18Z</time><name>PT6933</name></trkpt>
<trkpt lat="53.347865" lon="-1.832326"><ele>548</ele><time>2022-03-19T13:51:21Z</time><name>PT6934</name></trkpt>
<trkpt lat="53.347868" lon="-1.832307"><ele>548</ele><time>2022-03-19T13:51:21Z</time><name>PT6935</name></trkpt>
<trkpt lat="53.347870" lon="-1.832295"><ele>548</ele><time>2022-03-19T13:51:23Z</time><name>PT6936</name></trkpt>
<trkpt lat="53.347871" lon="-1.832283"><ele>548</ele><time>2022-03-19T13:51:24Z</time><name>PT6937</name></trkpt>
<trkpt lat="53.347873" lon="-1.832268"><ele>548</ele><time>2022-03-19T13:51:24Z</time><name>PT6938</name></trkpt>
<trkpt lat="53.347876" lon="-1.832251"><ele>548</ele><time>2022-03-19T13:51:26Z</time><name>PT6939</name></trkpt>
<trkpt lat="53.347877" lon="-1.832235"><ele>548</ele><time>2022-03-19T13:51:27Z</time><name>PT6940</name></trkpt>
<trkpt lat="53.347878" lon="-1.832221"><ele>548</ele><time>2022-03-19T13:51:27Z</time><name>PT6941</name></trkpt>
<trkpt lat="53.347879" lon="-1.832201"><ele>548</ele><time>2022-03-19T13:51:29Z</time><name>PT6942</name></trkpt>
<trkpt lat="53.347881" lon="-1.832191"><ele>548</ele><time>2022-03-19T13:51:30Z</time><name>PT6943</name></trkpt>
<trkpt lat="53.347881" lon="-1.832185"><ele>549</ele><time>2022-03-19T13:51:31Z</time><name>PT6944</name></trkpt>
<trkpt lat="53.347882" lon="-1.832181"><ele>549</ele><time>2022-03-19T13:51:32Z</time><name>PT6945</name></trkpt>
<trkpt lat="53.347882" lon="-1.832160"><ele>549</ele><time>2022-03-19T13:51:42Z</time><name>PT6946</name></trkpt>
<trkpt lat="53.347886" lon="-1.832150"><ele>549</ele><time>2022-03-19T13:51:44Z</time><name>PT6947</name></trkpt>
<trkpt lat="53.347888" lon="-1.832143"><ele>549</ele><time>2022-03-19T13:51:45Z</time><name>PT6948</name></trkpt>
<trkpt lat="53.347890" lon="-1.832145"><ele>549</ele><time>2022-03-19T13:52:02Z</time><name>PT6949</name></trkpt>
<trkpt lat="53.347889" lon="-1.832147"><ele>549</ele><time>2022-03-19T13:52:03Z</time><name>PT6950</name></trkpt>
<trkpt lat="53.347890" lon="-1.832149"><ele>549</ele><time>2022-03-19T13:52:29Z</time><name>PT6951</name></trkpt>
<trkpt lat="53.347890" lon="-1.832147"><ele>549</ele><time>2022-03-19T13:52:30Z</time><name>PT6952</name></trkpt>
<trkpt lat="53.347891" lon="-1.832146"><ele>549</ele><time>2022-03-19T13:52:30Z</time><name>PT6953</name></trkpt>
<trkpt lat="53.347891" lon="-1.832148"><ele>549</ele><time>2022-03-19T13:52:39Z</time><name>PT6954</name></trkpt>
<trkpt lat="53.347888" lon="-1.832143"><ele>549</ele><time>2022-03-19T13:52:39Z</time><name>PT6955</name></trkpt>
<trkpt lat="53.347888" lon="-1.832143"><ele>549</ele><time>2022-03-19T13:52:41Z</time><name>PT6956</name></trkpt>
<trkpt lat="53.347890" lon="-1.832138"><ele>549</ele><time>2022-03-19T13:53:17Z</time><name>PT6957</name></trkpt>
<trkpt lat="53.347891" lon="-1.832135"><ele>549</ele><time>2022-03-19T13:53:18Z</time><name>PT6958</name></trkpt>
<trkpt lat="53.347892" lon="-1.832132"><ele>549</ele><time>2022-03-19T13:53:18Z</time><name>PT6959</name></trkpt>
<trkpt lat="53.347892" lon="-1.832131"><ele>549</ele><time>2022-03-19T13:53:20Z</time><name>PT6960</name></trkpt>
<trkpt lat="53.347892" lon="-1.832126"><ele>549</ele><time>2022-03-19T13:54:35Z</time><name>PT6961</name></trkpt>
<trkpt lat="53.347893" lon="-1.832122"><ele>549</ele><time>2022-03-19T13:54:39Z</time><name>PT6962</name></trkpt>
<trkpt lat="53.347900" lon="-1.832105"><ele>550</ele><time>2022-03-19T13:55:00Z</time><name>PT6963</name></trkpt>
<trkpt lat="53.347904" lon="-1.832071"><ele>548</ele><time>2022-03-19T13:55:03Z</time><name>PT6964</name></trkpt>
<trkpt lat="53.347908" lon="-1.832063"><ele>548</ele><time>2022-03-19T13:55:06Z</time><name>PT6965</name></trkpt>
<trkpt lat="53.347912" lon="-1.832048"><ele>548</ele><time>2022-03-19T13:55:11Z</time><name>PT6966</name></trkpt>
<trkpt lat="53.347910" lon="-1.832035"><ele>548</ele><time>2022-03-19T13:55:14Z</time><name>PT6967</name></trkpt>
<trkpt lat="53.347915" lon="-1.832027"><ele>548</ele><time>2022-03-19T13:55:18Z</time><name>PT6968</name></trkpt>
<trkpt lat="53.347917" lon="-1.831965"><ele>547</ele><time>2022-03-19T13:55:21Z</time><name>PT6969</name></trkpt>
<trkpt lat="53.347910" lon="-1.831893"><ele>547</ele><time>2022-03-19T13:55:24Z</time><name>PT6970</name></trkpt>
<trkpt lat="53.347906" lon="-1.831837"><ele>546</ele><time>2022-03-19T13:55:27Z</time><name>PT6971</name></trkpt>
<trkpt lat="53.347891" lon="-1.831762"><ele>545</ele><time>2022-03-19T13:55:32Z</time><name>PT6972</name></trkpt>
<trkpt lat="53.347885" lon="-1.831688"><ele>544</ele><time>2022-03-19T13:55:36Z</time><name>PT6973</name></trkpt>
<trkpt lat="53.347887" lon="-1.831636"><ele>544</ele><time>2022-03-19T13:55:39Z</time><name>PT6974</name></trkpt>
<trkpt lat="53.347885" lon="-1.831552"><ele>544</ele><time>2022-03-19T13:55:42Z</time><name>PT6975</name></trkpt>
<trkpt lat="53.347874" lon="-1.831480"><ele>542</ele><time>2022-03-19T13:55:45Z</time><name>PT6976</name></trkpt>
<trkpt lat="53.347869" lon="-1.831420"><ele>542</ele><time>2022-03-19T13:55:48Z</time><name>PT6977</name></trkpt>
<trkpt lat="53.347872" lon="-1.831358"><ele>542</ele><time>2022-03-19T13:55:51Z</time><name>PT6978</name></trkpt>
<trkpt lat="53.347876" lon="-1.831302"><ele>542</ele><time>2022-03-19T13:55:54Z</time><name>PT6979</name></trkpt>
<trkpt lat="53.347878" lon="-1.831227"><ele>541</ele><time>2022-03-19T13:55:59Z</time><name>PT6980</name></trkpt>
<trkpt lat="53.347876" lon="-1.831166"><ele>542</ele><time>2022-03-19T13:56:02Z</time><name>PT6981</name></trkpt>
<trkpt lat="53.347869" lon="-1.831087"><ele>541</ele><time>2022-03-19T13:56:06Z</time><name>PT6982</name></trkpt>
<trkpt lat="53.347861" lon="-1.831027"><ele>540</ele><time>2022-03-19T13:56:09Z</time><name>PT6983</name></trkpt>
<trkpt lat="53.347851" lon="-1.830949"><ele>540</ele><time>2022-03-19T13:56:12Z</time><name>PT6984</name></trkpt>
<trkpt lat="53.347848" lon="-1.830876"><ele>539</ele><time>2022-03-19T13:56:17Z</time><name>PT6985</name></trkpt>
<trkpt lat="53.347840" lon="-1.830825"><ele>539</ele><time>2022-03-19T13:56:20Z</time><name>PT6986</name></trkpt>
<trkpt lat="53.347834" lon="-1.830765"><ele>538</ele><time>2022-03-19T13:56:23Z</time><name>PT6987</name></trkpt>
<trkpt lat="53.347833" lon="-1.830699"><ele>538</ele><time>2022-03-19T13:56:26Z</time><name>PT6988</name></trkpt>
<trkpt lat="53.347820" lon="-1.830649"><ele>538</ele><time>2022-03-19T13:56:29Z</time><name>PT6989</name></trkpt>
<trkpt lat="53.347810" lon="-1.830561"><ele>538</ele><time>2022-03-19T13:56:33Z</time><name>PT6990</name></trkpt>
<trkpt lat="53.347803" lon="-1.830471"><ele>538</ele><time>2022-03-19T13:56:36Z</time><name>PT6991</name></trkpt>
<trkpt lat="53.347798" lon="-1.830391"><ele>537</ele><time>2022-03-19T13:56:41Z</time><name>PT6992</name></trkpt>
<trkpt lat="53.347791" lon="-1.830313"><ele>537</ele><time>2022-03-19T13:56:45Z</time><name>PT6993</name></trkpt>
<trkpt lat="53.347793" lon="-1.830231"><ele>537</ele><time>2022-03-19T13:56:48Z</time><name>PT6994</name></trkpt>
<trkpt lat="53.347784" lon="-1.830144"><ele>537</ele><time>2022-03-19T13:56:53Z</time><name>PT6995</name></trkpt>
<trkpt lat="53.347779" lon="-1.830070"><ele>536</ele><time>2022-03-19T13:56:57Z</time><name>PT6996</name></trkpt>
<trkpt lat="53.347770" lon="-1.829997"><ele>535</ele><time>2022-03-19T13:57:00Z</time><name>PT6997</name></trkpt>
<trkpt lat="53.347756" lon="-1.829925"><ele>534</ele><time>2022-03-19T13:57:05Z</time><name>PT6998</name></trkpt>
<trkpt lat="53.347753" lon="-1.829848"><ele>534</ele><time>2022-03-19T13:57:09Z</time><name>PT6999</name></trkpt>
<trkpt lat="53.347742" lon="-1.829768"><ele>534</ele><time>2022-03-19T13:57:12Z</time><name>PT7000</name></trkpt>
<trkpt lat="53.347736" lon="-1.829717"><ele>533</ele><time>2022-03-19T13:57:15Z</time><name>PT7001</name></trkpt>
<trkpt lat="53.347729" lon="-1.829654"><ele>533</ele><time>2022-03-19T13:57:18Z</time><name>PT7002</name></trkpt>
<trkpt lat="53.347718" lon="-1.829605"><ele>532</ele><time>2022-03-19T13:57:21Z</time><name>PT7003</name></trkpt>
<trkpt lat="53.347714" lon="-1.829558"><ele>532</ele><time>2022-03-19T13:57:24Z</time><name>PT7004</name></trkpt>
<trkpt lat="53.347704" lon="-1.829506"><ele>531</ele><time>2022-03-19T13:57:29Z</time><name>PT7005</name></trkpt>
<trkpt lat="53.347700" lon="-1.829496"><ele>531</ele><time>2022-03-19T13:57:32Z</time><name>PT7006</name></trkpt>
<trkpt lat="53.347695" lon="-1.829476"><ele>531</ele><time>2022-03-19T13:57:36Z</time><name>PT7007</name></trkpt>
<trkpt lat="53.347695" lon="-1.829470"><ele>532</ele><time>2022-03-19T13:57:39Z</time><name>PT7008</name></trkpt>
<trkpt lat="53.347689" lon="-1.829464"><ele>531</ele><time>2022-03-19T13:57:42Z</time><name>PT7009</name></trkpt>
<trkpt lat="53.347700" lon="-1.829411"><ele>530</ele><time>2022-03-19T13:57:45Z</time><name>PT7010</name></trkpt>
<trkpt lat="53.347710" lon="-1.829359"><ele>529</ele><time>2022-03-19T13:57:48Z</time><name>PT7011</name></trkpt>
<trkpt lat="53.347705" lon="-1.829291"><ele>529</ele><time>2022-03-19T13:57:53Z</time><name>PT7012</name></trkpt>
<trkpt lat="53.347707" lon="-1.829228"><ele>529</ele><time>2022-03-19T13:57:56Z</time><name>PT7013</name></trkpt>
<trkpt lat="53.347715" lon="-1.829137"><ele>528</ele><time>2022-03-19T13:58:00Z</time><name>PT7014</name></trkpt>
<trkpt lat="53.347716" lon="-1.829071"><ele>527</ele><time>2022-03-19T13:58:03Z</time><name>PT7015</name></trkpt>
<trkpt lat="53.347713" lon="-1.828997"><ele>526</ele><time>2022-03-19T13:58:06Z</time><name>PT7016</name></trkpt>
<trkpt lat="53.347713" lon="-1.828960"><ele>526</ele><time>2022-03-19T13:58:09Z</time><name>PT7017</name></trkpt>
<trkpt lat="53.347707" lon="-1.828905"><ele>526</ele><time>2022-03-19T13:58:14Z</time><name>PT7018</name></trkpt>
<trkpt lat="53.347706" lon="-1.828811"><ele>526</ele><time>2022-03-19T13:58:18Z</time><name>PT7019</name></trkpt>
<trkpt lat="53.347696" lon="-1.828756"><ele>526</ele><time>2022-03-19T13:58:21Z</time><name>PT7020</name></trkpt>
<trkpt lat="53.347689" lon="-1.828686"><ele>525</ele><time>2022-03-19T13:58:24Z</time><name>PT7021</name></trkpt>
<trkpt lat="53.347683" lon="-1.828626"><ele>524</ele><time>2022-03-19T13:58:27Z</time><name>PT7022</name></trkpt>
<trkpt lat="53.347677" lon="-1.828572"><ele>522</ele><time>2022-03-19T13:58:30Z</time><name>PT7023</name></trkpt>
<trkpt lat="53.347672" lon="-1.828504"><ele>521</ele><time>2022-03-19T13:58:35Z</time><name>PT7024</name></trkpt>
<trkpt lat="53.347670" lon="-1.828453"><ele>520</ele><time>2022-03-19T13:58:38Z</time><name>PT7025</name></trkpt>
<trkpt lat="53.347679" lon="-1.828392"><ele>519</ele><time>2022-03-19T13:58:42Z</time><name>PT7026</name></trkpt>
<trkpt lat="53.347679" lon="-1.828334"><ele>519</ele><time>2022-03-19T13:58:45Z</time><name>PT7027</name></trkpt>
<trkpt lat="53.347683" lon="-1.828276"><ele>519</ele><time>2022-03-19T13:58:48Z</time><name>PT7028</name></trkpt>
<trkpt lat="53.347683" lon="-1.828198"><ele>518</ele><time>2022-03-19T13:58:51Z</time><name>PT7029</name></trkpt>
<trkpt lat="53.347688" lon="-1.828131"><ele>517</ele><time>2022-03-19T13:58:54Z</time><name>PT7030</name></trkpt>
<trkpt lat="53.347678" lon="-1.828041"><ele>517</ele><time>2022-03-19T13:58:59Z</time><name>PT7031</name></trkpt>
<trkpt lat="53.347681" lon="-1.827953"><ele>517</ele><time>2022-03-19T13:59:03Z</time><name>PT7032</name></trkpt>
<trkpt lat="53.347678" lon="-1.827891"><ele>517</ele><time>2022-03-19T13:59:06Z</time><name>PT7033</name></trkpt>
<trkpt lat="53.347677" lon="-1.827819"><ele>517</ele><time>2022-03-19T13:59:09Z</time><name>PT7034</name></trkpt>
<trkpt lat="53.347683" lon="-1.827745"><ele>517</ele><time>2022-03-19T13:59:12Z</time><name>PT7035</name></trkpt>
<trkpt lat="53.347683" lon="-1.827656"><ele>517</ele><time>2022-03-19T13:59:15Z</time><name>PT7036</name></trkpt>
<trkpt lat="53.347678" lon="-1.827584"><ele>517</ele><time>2022-03-19T13:59:18Z</time><name>PT7037</name></trkpt>
<trkpt lat="53.347680" lon="-1.827511"><ele>518</ele><time>2022-03-19T13:59:21Z</time><name>PT7038</name></trkpt>
<trkpt lat="53.347672" lon="-1.827429"><ele>517</ele><time>2022-03-19T13:59:26Z</time><name>PT7039</name></trkpt>
<trkpt lat="53.347673" lon="-1.827371"><ele>516</ele><time>2022-03-19T13:59:29Z</time><name>PT7040</name></trkpt>
<trkpt lat="53.347671" lon="-1.827317"><ele>515</ele><time>2022-03-19T13:59:32Z</time><name>PT7041</name></trkpt>
<trkpt lat="53.347669" lon="-1.827234"><ele>516</ele><time>2022-03-19T13:59:36Z</time><name>PT7042</name></trkpt>
<trkpt lat="53.347669" lon="-1.827166"><ele>516</ele><time>2022-03-19T13:59:39Z</time><name>PT7043</name></trkpt>
<trkpt lat="53.347674" lon="-1.827105"><ele>516</ele><time>2022-03-19T13:59:42Z</time><name>PT7044</name></trkpt>
<trkpt lat="53.347670" lon="-1.827025"><ele>515</ele><time>2022-03-19T13:59:45Z</time><name>PT7045</name></trkpt>
<trkpt lat="53.347656" lon="-1.826934"><ele>514</ele><time>2022-03-19T13:59:50Z</time><name>PT7046</name></trkpt>
<trkpt lat="53.347653" lon="-1.826843"><ele>515</ele><time>2022-03-19T13:59:54Z</time><name>PT7047</name></trkpt>
<trkpt lat="53.347652" lon="-1.826780"><ele>515</ele><time>2022-03-19T13:59:57Z</time><name>PT7048</name></trkpt>
<trkpt lat="53.347653" lon="-1.826709"><ele>515</ele><time>2022-03-19T14:00:00Z</time><name>PT7049</name></trkpt>
<trkpt lat="53.347648" lon="-1.826630"><ele>514</ele><time>2022-03-19T14:00:05Z</time><name>PT7050</name></trkpt>
<trkpt lat="53.347647" lon="-1.826552"><ele>514</ele><time>2022-03-19T14:00:09Z</time><name>PT7051</name></trkpt>
<trkpt lat="53.347647" lon="-1.826494"><ele>514</ele><time>2022-03-19T14:00:12Z</time><name>PT7052</name></trkpt>
<trkpt lat="53.347640" lon="-1.826452"><ele>513</ele><time>2022-03-19T14:00:15Z</time><name>PT7053</name></trkpt>
<trkpt lat="53.347624" lon="-1.826414"><ele>513</ele><time>2022-03-19T14:00:18Z</time><name>PT7054</name></trkpt>
<trkpt lat="53.347622" lon="-1.826393"><ele>512</ele><time>2022-03-19T14:00:23Z</time><name>PT7055</name></trkpt>
<trkpt lat="53.347619" lon="-1.826358"><ele>513</ele><time>2022-03-19T14:00:26Z</time><name>PT7056</name></trkpt>
<trkpt lat="53.347622" lon="-1.826299"><ele>513</ele><time>2022-03-19T14:00:30Z</time><name>PT7057</name></trkpt>
<trkpt lat="53.347621" lon="-1.826251"><ele>512</ele><time>2022-03-19T14:00:33Z</time><name>PT7058</name></trkpt>
<trkpt lat="53.347629" lon="-1.826183"><ele>513</ele><time>2022-03-19T14:00:36Z</time><name>PT7059</name></trkpt>
<trkpt lat="53.347630" lon="-1.826158"><ele>512</ele><time>2022-03-19T14:00:36Z</time><name>PT7060</name></trkpt>
<trkpt lat="53.347631" lon="-1.826130"><ele>512</ele><time>2022-03-19T14:00:38Z</time><name>PT7061</name></trkpt>
<trkpt lat="53.347631" lon="-1.826106"><ele>512</ele><time>2022-03-19T14:00:39Z</time><name>PT7062</name></trkpt>
<trkpt lat="53.347632" lon="-1.826085"><ele>512</ele><time>2022-03-19T14:00:39Z</time><name>PT7063</name></trkpt>
<trkpt lat="53.347631" lon="-1.826060"><ele>512</ele><time>2022-03-19T14:00:41Z</time><name>PT7064</name></trkpt>
<trkpt lat="53.347634" lon="-1.826039"><ele>512</ele><time>2022-03-19T14:00:42Z</time><name>PT7065</name></trkpt>
<trkpt lat="53.347635" lon="-1.826023"><ele>511</ele><time>2022-03-19T14:00:42Z</time><name>PT7066</name></trkpt>
<trkpt lat="53.347634" lon="-1.826001"><ele>511</ele><time>2022-03-19T14:00:44Z</time><name>PT7067</name></trkpt>
<trkpt lat="53.347633" lon="-1.825973"><ele>511</ele><time>2022-03-19T14:00:45Z</time><name>PT7068</name></trkpt>
<trkpt lat="53.347636" lon="-1.825947"><ele>511</ele><time>2022-03-19T14:00:45Z</time><name>PT7069</name></trkpt>
<trkpt lat="53.347638" lon="-1.825925"><ele>512</ele><time>2022-03-19T14:00:47Z</time><name>PT7070</name></trkpt>
<trkpt lat="53.347637" lon="-1.825905"><ele>512</ele><time>2022-03-19T14:00:48Z</time><name>PT7071</name></trkpt>
<trkpt lat="53.347632" lon="-1.825880"><ele>512</ele><time>2022-03-19T14:00:48Z</time><name>PT7072</name></trkpt>
<trkpt lat="53.347635" lon="-1.825855"><ele>512</ele><time>2022-03-19T14:00:50Z</time><name>PT7073</name></trkpt>
<trkpt lat="53.347634" lon="-1.825834"><ele>512</ele><time>2022-03-19T14:00:51Z</time><name>PT7074</name></trkpt>
<trkpt lat="53.347633" lon="-1.825811"><ele>512</ele><time>2022-03-19T14:00:52Z</time><name>PT7075</name></trkpt>
<trkpt lat="53.347630" lon="-1.825791"><ele>511</ele><time>2022-03-19T14:00:53Z</time><name>PT7076</name></trkpt>
<trkpt lat="53.347630" lon="-1.825769"><ele>511</ele><time>2022-03-19T14:00:54Z</time><name>PT7077</name></trkpt>
<trkpt lat="53.347630" lon="-1.825750"><ele>511</ele><time>2022-03-19T14:00:55Z</time><name>PT7078</name></trkpt>
<trkpt lat="53.347632" lon="-1.825728"><ele>511</ele><time>2022-03-19T14:00:56Z</time><name>PT7079</name></trkpt>
<trkpt lat="53.347633" lon="-1.825697"><ele>513</ele><time>2022-03-19T14:00:57Z</time><name>PT7080</name></trkpt>
<trkpt lat="53.347632" lon="-1.825678"><ele>513</ele><time>2022-03-19T14:00:57Z</time><name>PT7081</name></trkpt>
<trkpt lat="53.347634" lon="-1.825659"><ele>513</ele><time>2022-03-19T14:00:59Z</time><name>PT7082</name></trkpt>
<trkpt lat="53.347636" lon="-1.825634"><ele>513</ele><time>2022-03-19T14:01:00Z</time><name>PT7083</name></trkpt>
<trkpt lat="53.347637" lon="-1.825613"><ele>513</ele><time>2022-03-19T14:01:00Z</time><name>PT7084</name></trkpt>
<trkpt lat="53.347638" lon="-1.825592"><ele>513</ele><time>2022-03-19T14:01:02Z</time><name>PT7085</name></trkpt>
<trkpt lat="53.347638" lon="-1.825568"><ele>513</ele><time>2022-03-19T14:01:03Z</time><name>PT7086</name></trkpt>
<trkpt lat="53.347637" lon="-1.825554"><ele>513</ele><time>2022-03-19T14:01:03Z</time><name>PT7087</name></trkpt>
<trkpt lat="53.347639" lon="-1.825536"><ele>513</ele><time>2022-03-19T14:01:05Z</time><name>PT7088</name></trkpt>
<trkpt lat="53.347640" lon="-1.825521"><ele>512</ele><time>2022-03-19T14:01:06Z</time><name>PT7089</name></trkpt>
<trkpt lat="53.347644" lon="-1.825502"><ele>513</ele><time>2022-03-19T14:01:06Z</time><name>PT7090</name></trkpt>
<trkpt lat="53.347646" lon="-1.825483"><ele>512</ele><time>2022-03-19T14:01:08Z</time><name>PT7091</name></trkpt>
<trkpt lat="53.347649" lon="-1.825458"><ele>513</ele><time>2022-03-19T14:01:09Z</time><name>PT7092</name></trkpt>
<trkpt lat="53.347648" lon="-1.825437"><ele>513</ele><time>2022-03-19T14:01:09Z</time><name>PT7093</name></trkpt>
<trkpt lat="53.347648" lon="-1.825417"><ele>513</ele><time>2022-03-19T14:01:11Z</time><name>PT7094</name></trkpt>
<trkpt lat="53.347647" lon="-1.825395"><ele>513</ele><time>2022-03-19T14:01:12Z</time><name>PT7095</name></trkpt>
<trkpt lat="53.347648" lon="-1.825374"><ele>513</ele><time>2022-03-19T14:01:12Z</time><name>PT7096</name></trkpt>
<trkpt lat="53.347650" lon="-1.825353"><ele>513</ele><time>2022-03-19T14:01:14Z</time><name>PT7097</name></trkpt>
<trkpt lat="53.347652" lon="-1.825328"><ele>512</ele><time>2022-03-19T14:01:15Z</time><name>PT7098</name></trkpt>
<trkpt lat="53.347656" lon="-1.825305"><ele>512</ele><time>2022-03-19T14:01:15Z</time><name>PT7099</name></trkpt>
<trkpt lat="53.347657" lon="-1.825288"><ele>512</ele><time>2022-03-19T14:01:17Z</time><name>PT7100</name></trkpt>
<trkpt lat="53.347660" lon="-1.825266"><ele>512</ele><time>2022-03-19T14:01:18Z</time><name>PT7101</name></trkpt>
<trkpt lat="53.347662" lon="-1.825239"><ele>512</ele><time>2022-03-19T14:01:18Z</time><name>PT7102</name></trkpt>
<trkpt lat="53.347662" lon="-1.825216"><ele>511</ele><time>2022-03-19T14:01:20Z</time><name>PT7103</name></trkpt>
<trkpt lat="53.347662" lon="-1.825196"><ele>511</ele><time>2022-03-19T14:01:21Z</time><name>PT7104</name></trkpt>
<trkpt lat="53.347665" lon="-1.825174"><ele>511</ele><time>2022-03-19T14:01:21Z</time><name>PT7105</name></trkpt>
<trkpt lat="53.347666" lon="-1.825151"><ele>511</ele><time>2022-03-19T14:01:23Z</time><name>PT7106</name></trkpt>
<trkpt lat="53.347666" lon="-1.825131"><ele>511</ele><time>2022-03-19T14:01:24Z</time><name>PT7107</name></trkpt>
<trkpt lat="53.347665" lon="-1.825115"><ele>510</ele><time>2022-03-19T14:01:24Z</time><name>PT7108</name></trkpt>
<trkpt lat="53.347665" lon="-1.825093"><ele>511</ele><time>2022-03-19T14:01:26Z</time><name>PT7109</name></trkpt>
<trkpt lat="53.347667" lon="-1.825068"><ele>511</ele><time>2022-03-19T14:01:27Z</time><name>PT7110</name></trkpt>
<trkpt lat="53.347666" lon="-1.825034"><ele>511</ele><time>2022-03-19T14:01:27Z</time><name>PT7111</name></trkpt>
<trkpt lat="53.347667" lon="-1.825013"><ele>511</ele><time>2022-03-19T14:01:29Z</time><name>PT7112</name></trkpt>
<trkpt lat="53.347670" lon="-1.824986"><ele>511</ele><time>2022-03-19T14:01:30Z</time><name>PT7113</name></trkpt>
<trkpt lat="53.347672" lon="-1.824964"><ele>511</ele><time>2022-03-19T14:01:30Z</time><name>PT7114</name></trkpt>
<trkpt lat="53.347674" lon="-1.824946"><ele>511</ele><time>2022-03-19T14:01:32Z</time><name>PT7115</name></trkpt>
<trkpt lat="53.347678" lon="-1.824922"><ele>511</ele><time>2022-03-19T14:01:33Z</time><name>PT7116</name></trkpt>
<trkpt lat="53.347677" lon="-1.824900"><ele>511</ele><time>2022-03-19T14:01:33Z</time><name>PT7117</name></trkpt>
<trkpt lat="53.347677" lon="-1.824879"><ele>511</ele><time>2022-03-19T14:01:35Z</time><name>PT7118</name></trkpt>
<trkpt lat="53.347680" lon="-1.824852"><ele>511</ele><time>2022-03-19T14:01:36Z</time><name>PT7119</name></trkpt>
<trkpt lat="53.347681" lon="-1.824830"><ele>510</ele><time>2022-03-19T14:01:36Z</time><name>PT7120</name></trkpt>
<trkpt lat="53.347682" lon="-1.824809"><ele>510</ele><time>2022-03-19T14:01:38Z</time><name>PT7121</name></trkpt>
<trkpt lat="53.347683" lon="-1.824785"><ele>511</ele><time>2022-03-19T14:01:39Z</time><name>PT7122</name></trkpt>
<trkpt lat="53.347684" lon="-1.824760"><ele>511</ele><time>2022-03-19T14:01:39Z</time><name>PT7123</name></trkpt>
<trkpt lat="53.347686" lon="-1.824742"><ele>511</ele><time>2022-03-19T14:01:41Z</time><name>PT7124</name></trkpt>
<trkpt lat="53.347687" lon="-1.824722"><ele>511</ele><time>2022-03-19T14:01:42Z</time><name>PT7125</name></trkpt>
<trkpt lat="53.347686" lon="-1.824704"><ele>511</ele><time>2022-03-19T14:01:42Z</time><name>PT7126</name></trkpt>
<trkpt lat="53.347685" lon="-1.824679"><ele>511</ele><time>2022-03-19T14:01:44Z</time><name>PT7127</name></trkpt>
<trkpt lat="53.347683" lon="-1.824655"><ele>511</ele><time>2022-03-19T14:01:45Z</time><name>PT7128</name></trkpt>
<trkpt lat="53.347682" lon="-1.824633"><ele>511</ele><time>2022-03-19T14:01:45Z</time><name>PT7129</name></trkpt>
<trkpt lat="53.347682" lon="-1.824612"><ele>511</ele><time>2022-03-19T14:01:47Z</time><name>PT7130</name></trkpt>
<trkpt lat="53.347683" lon="-1.824592"><ele>511</ele><time>2022-03-19T14:01:48Z</time><name>PT7131</name></trkpt>
<trkpt lat="53.347685" lon="-1.824571"><ele>511</ele><time>2022-03-19T14:01:48Z</time><name>PT7132</name></trkpt>
<trkpt lat="53.347688" lon="-1.824549"><ele>511</ele><time>2022-03-19T14:01:50Z</time><name>PT7133</name></trkpt>
<trkpt lat="53.347687" lon="-1.824526"><ele>511</ele><time>2022-03-19T14:01:51Z</time><name>PT7134</name></trkpt>
<trkpt lat="53.347685" lon="-1.824506"><ele>511</ele><time>2022-03-19T14:01:51Z</time><name>PT7135</name></trkpt>
<trkpt lat="53.347684" lon="-1.824486"><ele>510</ele><time>2022-03-19T14:01:53Z</time><name>PT7136</name></trkpt>
<trkpt lat="53.347683" lon="-1.824464"><ele>511</ele><time>2022-03-19T14:01:54Z</time><name>PT7137</name></trkpt>
<trkpt lat="53.347682" lon="-1.824440"><ele>511</ele><time>2022-03-19T14:01:54Z</time><name>PT7138</name></trkpt>
<trkpt lat="53.347681" lon="-1.824419"><ele>511</ele><time>2022-03-19T14:01:56Z</time><name>PT7139</name></trkpt>
<trkpt lat="53.347683" lon="-1.824402"><ele>511</ele><time>2022-03-19T14:01:57Z</time><name>PT7140</name></trkpt>
<trkpt lat="53.347682" lon="-1.824384"><ele>510</ele><time>2022-03-19T14:01:57Z</time><name>PT7141</name></trkpt>
<trkpt lat="53.347682" lon="-1.824365"><ele>510</ele><time>2022-03-19T14:01:59Z</time><name>PT7142</name></trkpt>
<trkpt lat="53.347682" lon="-1.824342"><ele>510</ele><time>2022-03-19T14:02:00Z</time><name>PT7143</name></trkpt>
<trkpt lat="53.347682" lon="-1.824320"><ele>510</ele><time>2022-03-19T14:02:00Z</time><name>PT7144</name></trkpt>
<trkpt lat="53.347681" lon="-1.824296"><ele>510</ele><time>2022-03-19T14:02:02Z</time><name>PT7145</name></trkpt>
<trkpt lat="53.347683" lon="-1.824276"><ele>509</ele><time>2022-03-19T14:02:03Z</time><name>PT7146</name></trkpt>
<trkpt lat="53.347686" lon="-1.824250"><ele>509</ele><time>2022-03-19T14:02:03Z</time><name>PT7147</name></trkpt>
<trkpt lat="53.347689" lon="-1.824228"><ele>509</ele><time>2022-03-19T14:02:05Z</time><name>PT7148</name></trkpt>
<trkpt lat="53.347690" lon="-1.824209"><ele>509</ele><time>2022-03-19T14:02:06Z</time><name>PT7149</name></trkpt>
<trkpt lat="53.347691" lon="-1.824187"><ele>509</ele><time>2022-03-19T14:02:06Z</time><name>PT7150</name></trkpt>
<trkpt lat="53.347692" lon="-1.824162"><ele>509</ele><time>2022-03-19T14:02:08Z</time><name>PT7151</name></trkpt>
<trkpt lat="53.347693" lon="-1.824139"><ele>509</ele><time>2022-03-19T14:02:09Z</time><name>PT7152</name></trkpt>
<trkpt lat="53.347693" lon="-1.824117"><ele>509</ele><time>2022-03-19T14:02:09Z</time><name>PT7153</name></trkpt>
<trkpt lat="53.347690" lon="-1.824097"><ele>509</ele><time>2022-03-19T14:02:11Z</time><name>PT7154</name></trkpt>
<trkpt lat="53.347686" lon="-1.824074"><ele>509</ele><time>2022-03-19T14:02:12Z</time><name>PT7155</name></trkpt>
<trkpt lat="53.347684" lon="-1.824051"><ele>509</ele><time>2022-03-19T14:02:12Z</time><name>PT7156</name></trkpt>
<trkpt lat="53.347683" lon="-1.824030"><ele>509</ele><time>2022-03-19T14:02:14Z</time><name>PT7157</name></trkpt>
<trkpt lat="53.347681" lon="-1.824011"><ele>508</ele><time>2022-03-19T14:02:15Z</time><name>PT7158</name></trkpt>
<trkpt lat="53.347679" lon="-1.823995"><ele>508</ele><time>2022-03-19T14:02:15Z</time><name>PT7159</name></trkpt>
<trkpt lat="53.347677" lon="-1.823968"><ele>508</ele><time>2022-03-19T14:02:17Z</time><name>PT7160</name></trkpt>
<trkpt lat="53.347675" lon="-1.823944"><ele>508</ele><time>2022-03-19T14:02:18Z</time><name>PT7161</name></trkpt>
<trkpt lat="53.347674" lon="-1.823922"><ele>508</ele><time>2022-03-19T14:02:18Z</time><name>PT7162</name></trkpt>
<trkpt lat="53.347672" lon="-1.823899"><ele>508</ele><time>2022-03-19T14:02:20Z</time><name>PT7163</name></trkpt>
<trkpt lat="53.347668" lon="-1.823870"><ele>509</ele><time>2022-03-19T14:02:21Z</time><name>PT7164</name></trkpt>
<trkpt lat="53.347666" lon="-1.823851"><ele>508</ele><time>2022-03-19T14:02:21Z</time><name>PT7165</name></trkpt>
<trkpt lat="53.347663" lon="-1.823832"><ele>508</ele><time>2022-03-19T14:02:23Z</time><name>PT7166</name></trkpt>
<trkpt lat="53.347662" lon="-1.823807"><ele>508</ele><time>2022-03-19T14:02:24Z</time><name>PT7167</name></trkpt>
<trkpt lat="53.347662" lon="-1.823779"><ele>509</ele><time>2022-03-19T14:02:24Z</time><name>PT7168</name></trkpt>
<trkpt lat="53.347664" lon="-1.823758"><ele>508</ele><time>2022-03-19T14:02:26Z</time><name>PT7169</name></trkpt>
<trkpt lat="53.347666" lon="-1.823738"><ele>508</ele><time>2022-03-19T14:02:27Z</time><name>PT7170</name></trkpt>
<trkpt lat="53.347666" lon="-1.823714"><ele>508</ele><time>2022-03-19T14:02:27Z</time><name>PT7171</name></trkpt>
<trkpt lat="53.347665" lon="-1.823684"><ele>508</ele><time>2022-03-19T14:02:29Z</time><name>PT7172</name></trkpt>
<trkpt lat="53.347666" lon="-1.823659"><ele>508</ele><time>2022-03-19T14:02:30Z</time><name>PT7173</name></trkpt>
<trkpt lat="53.347669" lon="-1.823640"><ele>508</ele><time>2022-03-19T14:02:30Z</time><name>PT7174</name></trkpt>
<trkpt lat="53.347672" lon="-1.823623"><ele>508</ele><time>2022-03-19T14:02:32Z</time><name>PT7175</name></trkpt>
<trkpt lat="53.347675" lon="-1.823602"><ele>508</ele><time>2022-03-19T14:02:33Z</time><name>PT7176</name></trkpt>
<trkpt lat="53.347677" lon="-1.823573"><ele>508</ele><time>2022-03-19T14:02:33Z</time><name>PT7177</name></trkpt>
<trkpt lat="53.347677" lon="-1.823548"><ele>508</ele><time>2022-03-19T14:02:35Z</time><name>PT7178</name></trkpt>
<trkpt lat="53.347674" lon="-1.823480"><ele>508</ele><time>2022-03-19T14:02:38Z</time><name>PT7179</name></trkpt>
<trkpt lat="53.347675" lon="-1.823410"><ele>507</ele><time>2022-03-19T14:02:41Z</time><name>PT7180</name></trkpt>
<trkpt lat="53.347679" lon="-1.823324"><ele>507</ele><time>2022-03-19T14:02:44Z</time><name>PT7181</name></trkpt>
<trkpt lat="53.347680" lon="-1.823266"><ele>506</ele><time>2022-03-19T14:02:47Z</time><name>PT7182</name></trkpt>
<trkpt lat="53.347681" lon="-1.823183"><ele>506</ele><time>2022-03-19T14:02:52Z</time><name>PT7183</name></trkpt>
<trkpt lat="53.347683" lon="-1.823110"><ele>506</ele><time>2022-03-19T14:02:55Z</time><name>PT7184</name></trkpt>
<trkpt lat="53.347686" lon="-1.823044"><ele>506</ele><time>2022-03-19T14:02:58Z</time><name>PT7185</name></trkpt>
<trkpt lat="53.347694" lon="-1.822956"><ele>506</ele><time>2022-03-19T14:03:02Z</time><name>PT7186</name></trkpt>
<trkpt lat="53.347701" lon="-1.822891"><ele>506</ele><time>2022-03-19T14:03:05Z</time><name>PT7187</name></trkpt>
<trkpt lat="53.347703" lon="-1.822826"><ele>506</ele><time>2022-03-19T14:03:08Z</time><name>PT7188</name></trkpt>
<trkpt lat="53.347715" lon="-1.822742"><ele>505</ele><time>2022-03-19T14:03:11Z</time><name>PT7189</name></trkpt>
<trkpt lat="53.347714" lon="-1.822654"><ele>505</ele><time>2022-03-19T14:03:16Z</time><name>PT7190</name></trkpt>
<trkpt lat="53.347725" lon="-1.822567"><ele>503</ele><time>2022-03-19T14:03:20Z</time><name>PT7191</name></trkpt>
<trkpt lat="53.347725" lon="-1.822505"><ele>503</ele><time>2022-03-19T14:03:23Z</time><name>PT7192</name></trkpt>
<trkpt lat="53.347722" lon="-1.822407"><ele>503</ele><time>2022-03-19T14:03:26Z</time><name>PT7193</name></trkpt>
<trkpt lat="53.347725" lon="-1.822333"><ele>504</ele><time>2022-03-19T14:03:29Z</time><name>PT7194</name></trkpt>
<trkpt lat="53.347719" lon="-1.822258"><ele>503</ele><time>2022-03-19T14:03:34Z</time><name>PT7195</name></trkpt>
<trkpt lat="53.347718" lon="-1.822191"><ele>502</ele><time>2022-03-19T14:03:37Z</time><name>PT7196</name></trkpt>
<trkpt lat="53.347722" lon="-1.822097"><ele>502</ele><time>2022-03-19T14:03:41Z</time><name>PT7197</name></trkpt>
<trkpt lat="53.347730" lon="-1.822014"><ele>502</ele><time>2022-03-19T14:03:44Z</time><name>PT7198</name></trkpt>
<trkpt lat="53.347739" lon="-1.821938"><ele>501</ele><time>2022-03-19T14:03:47Z</time><name>PT7199</name></trkpt>
<trkpt lat="53.347739" lon="-1.821852"><ele>501</ele><time>2022-03-19T14:03:52Z</time><name>PT7200</name></trkpt>
<trkpt lat="53.347744" lon="-1.821784"><ele>502</ele><time>2022-03-19T14:03:55Z</time><name>PT7201</name></trkpt>
<trkpt lat="53.347746" lon="-1.821723"><ele>502</ele><time>2022-03-19T14:03:58Z</time><name>PT7202</name></trkpt>
<trkpt lat="53.347759" lon="-1.821642"><ele>502</ele><time>2022-03-19T14:04:02Z</time><name>PT7203</name></trkpt>
<trkpt lat="53.347771" lon="-1.821559"><ele>502</ele><time>2022-03-19T14:04:05Z</time><name>PT7204</name></trkpt>
<trkpt lat="53.347775" lon="-1.821502"><ele>502</ele><time>2022-03-19T14:04:08Z</time><name>PT7205</name></trkpt>
<trkpt lat="53.347780" lon="-1.821440"><ele>502</ele><time>2022-03-19T14:04:11Z</time><name>PT7206</name></trkpt>
<trkpt lat="53.347785" lon="-1.821356"><ele>502</ele><time>2022-03-19T14:04:16Z</time><name>PT7207</name></trkpt>
<trkpt lat="53.347790" lon="-1.821294"><ele>501</ele><time>2022-03-19T14:04:19Z</time><name>PT7208</name></trkpt>
<trkpt lat="53.347798" lon="-1.821211"><ele>502</ele><time>2022-03-19T14:04:23Z</time><name>PT7209</name></trkpt>
<trkpt lat="53.347799" lon="-1.821157"><ele>502</ele><time>2022-03-19T14:04:26Z</time><name>PT7210</name></trkpt>
<trkpt lat="53.347800" lon="-1.821070"><ele>502</ele><time>2022-03-19T14:04:29Z</time><name>PT7211</name></trkpt>
<trkpt lat="53.347803" lon="-1.820987"><ele>502</ele><time>2022-03-19T14:04:34Z</time><name>PT7212</name></trkpt>
<trkpt lat="53.347811" lon="-1.820919"><ele>503</ele><time>2022-03-19T14:04:37Z</time><name>PT7213</name></trkpt>
<trkpt lat="53.347817" lon="-1.820858"><ele>503</ele><time>2022-03-19T14:04:40Z</time><name>PT7214</name></trkpt>
<trkpt lat="53.347821" lon="-1.820778"><ele>505</ele><time>2022-03-19T14:04:44Z</time><name>PT7215</name></trkpt>
<trkpt lat="53.347827" lon="-1.820720"><ele>505</ele><time>2022-03-19T14:04:47Z</time><name>PT7216</name></trkpt>
<trkpt lat="53.347837" lon="-1.820638"><ele>506</ele><time>2022-03-19T14:04:50Z</time><name>PT7217</name></trkpt>
<trkpt lat="53.347844" lon="-1.820574"><ele>506</ele><time>2022-03-19T14:04:53Z</time><name>PT7218</name></trkpt>
<trkpt lat="53.347848" lon="-1.820486"><ele>506</ele><time>2022-03-19T14:04:58Z</time><name>PT7219</name></trkpt>
<trkpt lat="53.347843" lon="-1.820430"><ele>505</ele><time>2022-03-19T14:05:01Z</time><name>PT7220</name></trkpt>
<trkpt lat="53.347839" lon="-1.820354"><ele>506</ele><time>2022-03-19T14:05:05Z</time><name>PT7221</name></trkpt>
<trkpt lat="53.347828" lon="-1.820274"><ele>505</ele><time>2022-03-19T14:05:08Z</time><name>PT7222</name></trkpt>
<trkpt lat="53.347833" lon="-1.820195"><ele>504</ele><time>2022-03-19T14:05:13Z</time><name>PT7223</name></trkpt>
<trkpt lat="53.347833" lon="-1.820114"><ele>504</ele><time>2022-03-19T14:05:17Z</time><name>PT7224</name></trkpt>
<trkpt lat="53.347834" lon="-1.820026"><ele>504</ele><time>2022-03-19T14:05:20Z</time><name>PT7225</name></trkpt>
<trkpt lat="53.347836" lon="-1.819943"><ele>504</ele><time>2022-03-19T14:05:25Z</time><name>PT7226</name></trkpt>
<trkpt lat="53.347838" lon="-1.819885"><ele>504</ele><time>2022-03-19T14:05:28Z</time><name>PT7227</name></trkpt>
<trkpt lat="53.347835" lon="-1.819800"><ele>504</ele><time>2022-03-19T14:05:32Z</time><name>PT7228</name></trkpt>
<trkpt lat="53.347835" lon="-1.819744"><ele>504</ele><time>2022-03-19T14:05:35Z</time><name>PT7229</name></trkpt>
<trkpt lat="53.347837" lon="-1.819679"><ele>504</ele><time>2022-03-19T14:05:38Z</time><name>PT7230</name></trkpt>
<trkpt lat="53.347839" lon="-1.819621"><ele>503</ele><time>2022-03-19T14:05:41Z</time><name>PT7231</name></trkpt>
<trkpt lat="53.347845" lon="-1.819555"><ele>504</ele><time>2022-03-19T14:05:44Z</time><name>PT7232</name></trkpt>
<trkpt lat="53.347857" lon="-1.819478"><ele>502</ele><time>2022-03-19T14:05:47Z</time><name>PT7233</name></trkpt>
<trkpt lat="53.347855" lon="-1.819415"><ele>502</ele><time>2022-03-19T14:05:50Z</time><name>PT7234</name></trkpt>
<trkpt lat="53.347852" lon="-1.819328"><ele>501</ele><time>2022-03-19T14:05:55Z</time><name>PT7235</name></trkpt>
<trkpt lat="53.347844" lon="-1.819252"><ele>501</ele><time>2022-03-19T14:05:59Z</time><name>PT7236</name></trkpt>
<trkpt lat="53.347816" lon="-1.819195"><ele>500</ele><time>2022-03-19T14:06:02Z</time><name>PT7237</name></trkpt>
<trkpt lat="53.347803" lon="-1.819145"><ele>499</ele><time>2022-03-19T14:06:05Z</time><name>PT7238</name></trkpt>
<trkpt lat="53.347784" lon="-1.819065"><ele>499</ele><time>2022-03-19T14:06:10Z</time><name>PT7239</name></trkpt>
<trkpt lat="53.347775" lon="-1.819011"><ele>498</ele><time>2022-03-19T14:06:13Z</time><name>PT7240</name></trkpt>
<trkpt lat="53.347763" lon="-1.818959"><ele>498</ele><time>2022-03-19T14:06:16Z</time><name>PT7241</name></trkpt>
<trkpt lat="53.347743" lon="-1.818884"><ele>497</ele><time>2022-03-19T14:06:20Z</time><name>PT7242</name></trkpt>
<trkpt lat="53.347726" lon="-1.818804"><ele>497</ele><time>2022-03-19T14:06:23Z</time><name>PT7243</name></trkpt>
<trkpt lat="53.347717" lon="-1.818748"><ele>497</ele><time>2022-03-19T14:06:26Z</time><name>PT7244</name></trkpt>
<trkpt lat="53.347704" lon="-1.818668"><ele>497</ele><time>2022-03-19T14:06:31Z</time><name>PT7245</name></trkpt>
<trkpt lat="53.347682" lon="-1.818610"><ele>496</ele><time>2022-03-19T14:06:34Z</time><name>PT7246</name></trkpt>
<trkpt lat="53.347661" lon="-1.818552"><ele>495</ele><time>2022-03-19T14:06:38Z</time><name>PT7247</name></trkpt>
<trkpt lat="53.347649" lon="-1.818498"><ele>495</ele><time>2022-03-19T14:06:41Z</time><name>PT7248</name></trkpt>
<trkpt lat="53.347637" lon="-1.818448"><ele>494</ele><time>2022-03-19T14:06:44Z</time><name>PT7249</name></trkpt>
<trkpt lat="53.347622" lon="-1.818375"><ele>494</ele><time>2022-03-19T14:06:47Z</time><name>PT7250</name></trkpt>
<trkpt lat="53.347618" lon="-1.818298"><ele>492</ele><time>2022-03-19T14:06:52Z</time><name>PT7251</name></trkpt>
<trkpt lat="53.347624" lon="-1.818223"><ele>492</ele><time>2022-03-19T14:06:55Z</time><name>PT7252</name></trkpt>
<trkpt lat="53.347617" lon="-1.818162"><ele>492</ele><time>2022-03-19T14:06:58Z</time><name>PT7253</name></trkpt>
<trkpt lat="53.347596" lon="-1.818088"><ele>491</ele><time>2022-03-19T14:07:02Z</time><name>PT7254</name></trkpt>
<trkpt lat="53.347591" lon="-1.818033"><ele>490</ele><time>2022-03-19T14:07:05Z</time><name>PT7255</name></trkpt>
<trkpt lat="53.347584" lon="-1.817974"><ele>489</ele><time>2022-03-19T14:07:08Z</time><name>PT7256</name></trkpt>
<trkpt lat="53.347578" lon="-1.817909"><ele>489</ele><time>2022-03-19T14:07:11Z</time><name>PT7257</name></trkpt>
<trkpt lat="53.347575" lon="-1.817836"><ele>489</ele><time>2022-03-19T14:07:14Z</time><name>PT7258</name></trkpt>
<trkpt lat="53.347565" lon="-1.817788"><ele>489</ele><time>2022-03-19T14:07:17Z</time><name>PT7259</name></trkpt>
<trkpt lat="53.347564" lon="-1.817744"><ele>489</ele><time>2022-03-19T14:07:20Z</time><name>PT7260</name></trkpt>
<trkpt lat="53.347570" lon="-1.817654"><ele>489</ele><time>2022-03-19T14:07:25Z</time><name>PT7261</name></trkpt>
<trkpt lat="53.347563" lon="-1.817563"><ele>489</ele><time>2022-03-19T14:07:29Z</time><name>PT7262</name></trkpt>
<trkpt lat="53.347555" lon="-1.817501"><ele>488</ele><time>2022-03-19T14:07:32Z</time><name>PT7263</name></trkpt>
<trkpt lat="53.347537" lon="-1.817445"><ele>488</ele><time>2022-03-19T14:07:35Z</time><name>PT7264</name></trkpt>
<trkpt lat="53.347524" lon="-1.817366"><ele>487</ele><time>2022-03-19T14:07:38Z</time><name>PT7265</name></trkpt>
<trkpt lat="53.347525" lon="-1.817306"><ele>487</ele><time>2022-03-19T14:07:43Z</time><name>PT7266</name></trkpt>
<trkpt lat="53.347519" lon="-1.817248"><ele>486</ele><time>2022-03-19T14:07:46Z</time><name>PT7267</name></trkpt>
<trkpt lat="53.347510" lon="-1.817192"><ele>485</ele><time>2022-03-19T14:07:49Z</time><name>PT7268</name></trkpt>
<trkpt lat="53.347498" lon="-1.817116"><ele>484</ele><time>2022-03-19T14:07:53Z</time><name>PT7269</name></trkpt>
<trkpt lat="53.347493" lon="-1.817041"><ele>483</ele><time>2022-03-19T14:07:56Z</time><name>PT7270</name></trkpt>
<trkpt lat="53.347488" lon="-1.816962"><ele>482</ele><time>2022-03-19T14:08:01Z</time><name>PT7271</name></trkpt>
<trkpt lat="53.347482" lon="-1.816868"><ele>481</ele><time>2022-03-19T14:08:05Z</time><name>PT7272</name></trkpt>
<trkpt lat="53.347481" lon="-1.816808"><ele>480</ele><time>2022-03-19T14:08:08Z</time><name>PT7273</name></trkpt>
<trkpt lat="53.347474" lon="-1.816715"><ele>480</ele><time>2022-03-19T14:08:11Z</time><name>PT7274</name></trkpt>
<trkpt lat="53.347474" lon="-1.816636"><ele>480</ele><time>2022-03-19T14:08:16Z</time><name>PT7275</name></trkpt>
<trkpt lat="53.347473" lon="-1.816574"><ele>479</ele><time>2022-03-19T14:08:19Z</time><name>PT7276</name></trkpt>
<trkpt lat="53.347467" lon="-1.816488"><ele>478</ele><time>2022-03-19T14:08:23Z</time><name>PT7277</name></trkpt>
<trkpt lat="53.347469" lon="-1.816435"><ele>478</ele><time>2022-03-19T14:08:26Z</time><name>PT7278</name></trkpt>
<trkpt lat="53.347465" lon="-1.816340"><ele>478</ele><time>2022-03-19T14:08:29Z</time><name>PT7279</name></trkpt>
<trkpt lat="53.347457" lon="-1.816249"><ele>477</ele><time>2022-03-19T14:08:34Z</time><name>PT7280</name></trkpt>
<trkpt lat="53.347447" lon="-1.816168"><ele>477</ele><time>2022-03-19T14:08:38Z</time><name>PT7281</name></trkpt>
<trkpt lat="53.347442" lon="-1.816101"><ele>476</ele><time>2022-03-19T14:08:41Z</time><name>PT7282</name></trkpt>
<trkpt lat="53.347432" lon="-1.816023"><ele>475</ele><time>2022-03-19T14:08:44Z</time><name>PT7283</name></trkpt>
<trkpt lat="53.347428" lon="-1.815940"><ele>474</ele><time>2022-03-19T14:08:49Z</time><name>PT7284</name></trkpt>
<trkpt lat="53.347424" lon="-1.815893"><ele>473</ele><time>2022-03-19T14:08:52Z</time><name>PT7285</name></trkpt>
<trkpt lat="53.347418" lon="-1.815817"><ele>472</ele><time>2022-03-19T14:08:56Z</time><name>PT7286</name></trkpt>
<trkpt lat="53.347416" lon="-1.815761"><ele>472</ele><time>2022-03-19T14:08:59Z</time><name>PT7287</name></trkpt>
<trkpt lat="53.347403" lon="-1.815678"><ele>471</ele><time>2022-03-19T14:09:02Z</time><name>PT7288</name></trkpt>
<trkpt lat="53.347393" lon="-1.815598"><ele>471</ele><time>2022-03-19T14:09:07Z</time><name>PT7289</name></trkpt>
<trkpt lat="53.347376" lon="-1.815518"><ele>470</ele><time>2022-03-19T14:09:11Z</time><name>PT7290</name></trkpt>
<trkpt lat="53.347360" lon="-1.815477"><ele>469</ele><time>2022-03-19T14:09:14Z</time><name>PT7291</name></trkpt>
<trkpt lat="53.347345" lon="-1.815421"><ele>468</ele><time>2022-03-19T14:09:17Z</time><name>PT7292</name></trkpt>
<trkpt lat="53.347328" lon="-1.815338"><ele>467</ele><time>2022-03-19T14:09:20Z</time><name>PT7293</name></trkpt>
<trkpt lat="53.347315" lon="-1.815263"><ele>465</ele><time>2022-03-19T14:09:25Z</time><name>PT7294</name></trkpt>
<trkpt lat="53.347307" lon="-1.815211"><ele>464</ele><time>2022-03-19T14:09:28Z</time><name>PT7295</name></trkpt>
<trkpt lat="53.347307" lon="-1.815145"><ele>463</ele><time>2022-03-19T14:09:32Z</time><name>PT7296</name></trkpt>
<trkpt lat="53.347314" lon="-1.815063"><ele>462</ele><time>2022-03-19T14:09:35Z</time><name>PT7297</name></trkpt>
<trkpt lat="53.347313" lon="-1.814991"><ele>463</ele><time>2022-03-19T14:09:38Z</time><name>PT7298</name></trkpt>
<trkpt lat="53.347317" lon="-1.814926"><ele>463</ele><time>2022-03-19T14:09:41Z</time><name>PT7299</name></trkpt>
<trkpt lat="53.347307" lon="-1.814858"><ele>461</ele><time>2022-03-19T14:09:46Z</time><name>PT7300</name></trkpt>
<trkpt lat="53.347278" lon="-1.814801"><ele>460</ele><time>2022-03-19T14:09:50Z</time><name>PT7301</name></trkpt>
<trkpt lat="53.347251" lon="-1.814753"><ele>459</ele><time>2022-03-19T14:09:53Z</time><name>PT7302</name></trkpt>
<trkpt lat="53.347232" lon="-1.814739"><ele>456</ele><time>2022-03-19T14:09:58Z</time><name>PT7303</name></trkpt>
<trkpt lat="53.347222" lon="-1.814710"><ele>454</ele><time>2022-03-19T14:10:01Z</time><name>PT7304</name></trkpt>
<trkpt lat="53.347213" lon="-1.814674"><ele>454</ele><time>2022-03-19T14:10:04Z</time><name>PT7305</name></trkpt>
<trkpt lat="53.347201" lon="-1.814630"><ele>453</ele><time>2022-03-19T14:10:07Z</time><name>PT7306</name></trkpt>
<trkpt lat="53.347187" lon="-1.814584"><ele>452</ele><time>2022-03-19T14:10:11Z</time><name>PT7307</name></trkpt>
<trkpt lat="53.347178" lon="-1.814505"><ele>452</ele><time>2022-03-19T14:10:14Z</time><name>PT7308</name></trkpt>
<trkpt lat="53.347164" lon="-1.814443"><ele>452</ele><time>2022-03-19T14:10:17Z</time><name>PT7309</name></trkpt>
<trkpt lat="53.347148" lon="-1.814374"><ele>453</ele><time>2022-03-19T14:10:22Z</time><name>PT7310</name></trkpt>
<trkpt lat="53.347143" lon="-1.814332"><ele>454</ele><time>2022-03-19T14:10:25Z</time><name>PT7311</name></trkpt>
<trkpt lat="53.347138" lon="-1.814306"><ele>453</ele><time>2022-03-19T14:10:29Z</time><name>PT7312</name></trkpt>
<trkpt lat="53.347130" lon="-1.814247"><ele>451</ele><time>2022-03-19T14:10:32Z</time><name>PT7313</name></trkpt>
<trkpt lat="53.347119" lon="-1.814175"><ele>449</ele><time>2022-03-19T14:10:35Z</time><name>PT7314</name></trkpt>
<trkpt lat="53.347089" lon="-1.814139"><ele>450</ele><time>2022-03-19T14:10:38Z</time><name>PT7315</name></trkpt>
<trkpt lat="53.347064" lon="-1.814110"><ele>449</ele><time>2022-03-19T14:10:43Z</time><name>PT7316</name></trkpt>
<trkpt lat="53.347047" lon="-1.814072"><ele>448</ele><time>2022-03-19T14:10:47Z</time><name>PT7317</name></trkpt>
<trkpt lat="53.347036" lon="-1.814078"><ele>448</ele><time>2022-03-19T14:10:50Z</time><name>PT7318</name></trkpt>
<trkpt lat="53.347034" lon="-1.814084"><ele>448</ele><time>2022-03-19T14:10:53Z</time><name>PT7319</name></trkpt>
<trkpt lat="53.347002" lon="-1.814151"><ele>449</ele><time>2022-03-19T14:11:02Z</time><name>PT7320</name></trkpt>
<trkpt lat="53.346980" lon="-1.814217"><ele>448</ele><time>2022-03-19T14:11:05Z</time><name>PT7321</name></trkpt>
<trkpt lat="53.346964" lon="-1.814255"><ele>448</ele><time>2022-03-19T14:11:10Z</time><name>PT7322</name></trkpt>
<trkpt lat="53.346950" lon="-1.814287"><ele>447</ele><time>2022-03-19T14:11:14Z</time><name>PT7323</name></trkpt>
<trkpt lat="53.346923" lon="-1.814359"><ele>446</ele><time>2022-03-19T14:11:17Z</time><name>PT7324</name></trkpt>
<trkpt lat="53.346912" lon="-1.814437"><ele>444</ele><time>2022-03-19T14:11:22Z</time><name>PT7325</name></trkpt>
<trkpt lat="53.346890" lon="-1.814498"><ele>443</ele><time>2022-03-19T14:11:25Z</time><name>PT7326</name></trkpt>
<trkpt lat="53.346874" lon="-1.814564"><ele>441</ele><time>2022-03-19T14:11:29Z</time><name>PT7327</name></trkpt>
<trkpt lat="53.346873" lon="-1.814594"><ele>441</ele><time>2022-03-19T14:11:32Z</time><name>PT7328</name></trkpt>
<trkpt lat="53.346871" lon="-1.814613"><ele>442</ele><time>2022-03-19T14:11:35Z</time><name>PT7329</name></trkpt>
<trkpt lat="53.346845" lon="-1.814661"><ele>442</ele><time>2022-03-19T14:11:38Z</time><name>PT7330</name></trkpt>
<trkpt lat="53.346834" lon="-1.814735"><ele>441</ele><time>2022-03-19T14:11:43Z</time><name>PT7331</name></trkpt>
<trkpt lat="53.346801" lon="-1.814776"><ele>442</ele><time>2022-03-19T14:11:46Z</time><name>PT7332</name></trkpt>
<trkpt lat="53.346769" lon="-1.814841"><ele>441</ele><time>2022-03-19T14:11:50Z</time><name>PT7333</name></trkpt>
<trkpt lat="53.346765" lon="-1.814901"><ele>444</ele><time>2022-03-19T14:11:53Z</time><name>PT7334</name></trkpt>
<trkpt lat="53.346761" lon="-1.814942"><ele>441</ele><time>2022-03-19T14:11:56Z</time><name>PT7335</name></trkpt>
<trkpt lat="53.346749" lon="-1.814980"><ele>439</ele><time>2022-03-19T14:11:59Z</time><name>PT7336</name></trkpt>
<trkpt lat="53.346697" lon="-1.815075"><ele>436</ele><time>2022-03-19T14:12:02Z</time><name>PT7337</name></trkpt>
<trkpt lat="53.346663" lon="-1.815133"><ele>435</ele><time>2022-03-19T14:12:05Z</time><name>PT7338</name></trkpt>
<trkpt lat="53.346640" lon="-1.815203"><ele>434</ele><time>2022-03-19T14:12:08Z</time><name>PT7339</name></trkpt>
<trkpt lat="53.346591" lon="-1.815275"><ele>434</ele><time>2022-03-19T14:12:13Z</time><name>PT7340</name></trkpt>
<trkpt lat="53.346558" lon="-1.815309"><ele>434</ele><time>2022-03-19T14:12:17Z</time><name>PT7341</name></trkpt>
<trkpt lat="53.346532" lon="-1.815325"><ele>433</ele><time>2022-03-19T14:12:20Z</time><name>PT7342</name></trkpt>
<trkpt lat="53.346503" lon="-1.815363"><ele>430</ele><time>2022-03-19T14:12:23Z</time><name>PT7343</name></trkpt>
<trkpt lat="53.346475" lon="-1.815371"><ele>430</ele><time>2022-03-19T14:12:28Z</time><name>PT7344</name></trkpt>
<trkpt lat="53.346457" lon="-1.815385"><ele>428</ele><time>2022-03-19T14:12:31Z</time><name>PT7345</name></trkpt>
<trkpt lat="53.346452" lon="-1.815388"><ele>427</ele><time>2022-03-19T14:12:35Z</time><name>PT7346</name></trkpt>
<trkpt lat="53.346429" lon="-1.815367"><ele>426</ele><time>2022-03-19T14:12:38Z</time><name>PT7347</name></trkpt>
<trkpt lat="53.346387" lon="-1.815370"><ele>424</ele><time>2022-03-19T14:12:41Z</time><name>PT7348</name></trkpt>
<trkpt lat="53.346345" lon="-1.815383"><ele>424</ele><time>2022-03-19T14:12:44Z</time><name>PT7349</name></trkpt>
<trkpt lat="53.346322" lon="-1.815399"><ele>423</ele><time>2022-03-19T14:12:47Z</time><name>PT7350</name></trkpt>
<trkpt lat="53.346297" lon="-1.815399"><ele>421</ele><time>2022-03-19T14:12:52Z</time><name>PT7351</name></trkpt>
<trkpt lat="53.346264" lon="-1.815422"><ele>419</ele><time>2022-03-19T14:12:56Z</time><name>PT7352</name></trkpt>
<trkpt lat="53.346247" lon="-1.815452"><ele>417</ele><time>2022-03-19T14:12:59Z</time><name>PT7353</name></trkpt>
<trkpt lat="53.346228" lon="-1.815498"><ele>416</ele><time>2022-03-19T14:13:02Z</time><name>PT7354</name></trkpt>
<trkpt lat="53.346201" lon="-1.815540"><ele>413</ele><time>2022-03-19T14:13:07Z</time><name>PT7355</name></trkpt>
<trkpt lat="53.346157" lon="-1.815550"><ele>414</ele><time>2022-03-19T14:13:10Z</time><name>PT7356</name></trkpt>
<trkpt lat="53.346124" lon="-1.815555"><ele>413</ele><time>2022-03-19T14:13:13Z</time><name>PT7357</name></trkpt>
<trkpt lat="53.346114" lon="-1.815557"><ele>413</ele><time>2022-03-19T14:13:14Z</time><name>PT7358</name></trkpt>
<trkpt lat="53.346106" lon="-1.815566"><ele>412</ele><time>2022-03-19T14:13:14Z</time><name>PT7359</name></trkpt>
<trkpt lat="53.346095" lon="-1.815576"><ele>412</ele><time>2022-03-19T14:13:16Z</time><name>PT7360</name></trkpt>
<trkpt lat="53.346080" lon="-1.815585"><ele>412</ele><time>2022-03-19T14:13:17Z</time><name>PT7361</name></trkpt>
<trkpt lat="53.346079" lon="-1.815581"><ele>412</ele><time>2022-03-19T14:13:17Z</time><name>PT7362</name></trkpt>
<trkpt lat="53.346065" lon="-1.815603"><ele>413</ele><time>2022-03-19T14:13:19Z</time><name>PT7363</name></trkpt>
<trkpt lat="53.346048" lon="-1.815630"><ele>412</ele><time>2022-03-19T14:13:20Z</time><name>PT7364</name></trkpt>
<trkpt lat="53.346001" lon="-1.815639"><ele>413</ele><time>2022-03-19T14:13:20Z</time><name>PT7365</name></trkpt>
<trkpt lat="53.345981" lon="-1.815638"><ele>415</ele><time>2022-03-19T14:13:22Z</time><name>PT7366</name></trkpt>
<trkpt lat="53.345964" lon="-1.815644"><ele>415</ele><time>2022-03-19T14:13:23Z</time><name>PT7367</name></trkpt>
<trkpt lat="53.345953" lon="-1.815650"><ele>415</ele><time>2022-03-19T14:13:23Z</time><name>PT7368</name></trkpt>
<trkpt lat="53.345940" lon="-1.815650"><ele>416</ele><time>2022-03-19T14:13:24Z</time><name>PT7369</name></trkpt>
<trkpt lat="53.345928" lon="-1.815658"><ele>416</ele><time>2022-03-19T14:13:26Z</time><name>PT7370</name></trkpt>
<trkpt lat="53.345914" lon="-1.815662"><ele>416</ele><time>2022-03-19T14:13:26Z</time><name>PT7371</name></trkpt>
<trkpt lat="53.345903" lon="-1.815673"><ele>416</ele><time>2022-03-19T14:13:28Z</time><name>PT7372</name></trkpt>
<trkpt lat="53.345891" lon="-1.815682"><ele>416</ele><time>2022-03-19T14:13:29Z</time><name>PT7373</name></trkpt>
<trkpt lat="53.345867" lon="-1.815674"><ele>418</ele><time>2022-03-19T14:13:29Z</time><name>PT7374</name></trkpt>
<trkpt lat="53.345848" lon="-1.815672"><ele>419</ele><time>2022-03-19T14:13:31Z</time><name>PT7375</name></trkpt>
<trkpt lat="53.345832" lon="-1.815678"><ele>418</ele><time>2022-03-19T14:13:32Z</time><name>PT7376</name></trkpt>
<trkpt lat="53.345814" lon="-1.815686"><ele>419</ele><time>2022-03-19T14:13:32Z</time><name>PT7377</name></trkpt>
<trkpt lat="53.345798" lon="-1.815691"><ele>419</ele><time>2022-03-19T14:13:34Z</time><name>PT7378</name></trkpt>
<trkpt lat="53.345785" lon="-1.815699"><ele>419</ele><time>2022-03-19T14:13:35Z</time><name>PT7379</name></trkpt>
<trkpt lat="53.345775" lon="-1.815706"><ele>419</ele><time>2022-03-19T14:13:35Z</time><name>PT7380</name></trkpt>
<trkpt lat="53.345765" lon="-1.815711"><ele>420</ele><time>2022-03-19T14:13:37Z</time><name>PT7381</name></trkpt>
<trkpt lat="53.345753" lon="-1.815717"><ele>419</ele><time>2022-03-19T14:13:38Z</time><name>PT7382</name></trkpt>
<trkpt lat="53.345740" lon="-1.815720"><ele>419</ele><time>2022-03-19T14:13:38Z</time><name>PT7383</name></trkpt>
<trkpt lat="53.345728" lon="-1.815727"><ele>419</ele><time>2022-03-19T14:13:40Z</time><name>PT7384</name></trkpt>
<trkpt lat="53.345720" lon="-1.815734"><ele>418</ele><time>2022-03-19T14:13:41Z</time><name>PT7385</name></trkpt>
<trkpt lat="53.345709" lon="-1.815736"><ele>419</ele><time>2022-03-19T14:13:41Z</time><name>PT7386</name></trkpt>
<trkpt lat="53.345699" lon="-1.815748"><ele>418</ele><time>2022-03-19T14:13:43Z</time><name>PT7387</name></trkpt>
<trkpt lat="53.345689" lon="-1.815758"><ele>418</ele><time>2022-03-19T14:13:44Z</time><name>PT7388</name></trkpt>
<trkpt lat="53.345673" lon="-1.815760"><ele>418</ele><time>2022-03-19T14:13:44Z</time><name>PT7389</name></trkpt>
<trkpt lat="53.345657" lon="-1.815759"><ele>418</ele><time>2022-03-19T14:13:46Z</time><name>PT7390</name></trkpt>
<trkpt lat="53.345646" lon="-1.815764"><ele>418</ele><time>2022-03-19T14:13:47Z</time><name>PT7391</name></trkpt>
<trkpt lat="53.345634" lon="-1.815771"><ele>417</ele><time>2022-03-19T14:13:47Z</time><name>PT7392</name></trkpt>
<trkpt lat="53.345621" lon="-1.815780"><ele>417</ele><time>2022-03-19T14:13:49Z</time><name>PT7393</name></trkpt>
<trkpt lat="53.345612" lon="-1.815794"><ele>416</ele><time>2022-03-19T14:13:50Z</time><name>PT7394</name></trkpt>
<trkpt lat="53.345600" lon="-1.815810"><ele>416</ele><time>2022-03-19T14:13:50Z</time><name>PT7395</name></trkpt>
<trkpt lat="53.345589" lon="-1.815823"><ele>416</ele><time>2022-03-19T14:13:52Z</time><name>PT7396</name></trkpt>
<trkpt lat="53.345578" lon="-1.815833"><ele>416</ele><time>2022-03-19T14:13:53Z</time><name>PT7397</name></trkpt>
<trkpt lat="53.345568" lon="-1.815845"><ele>415</ele><time>2022-03-19T14:13:53Z</time><name>PT7398</name></trkpt>
<trkpt lat="53.345557" lon="-1.815857"><ele>415</ele><time>2022-03-19T14:13:55Z</time><name>PT7399</name></trkpt>
<trkpt lat="53.345553" lon="-1.815872"><ele>415</ele><time>2022-03-19T14:13:56Z</time><name>PT7400</name></trkpt>
<trkpt lat="53.345554" lon="-1.815887"><ele>415</ele><time>2022-03-19T14:13:56Z</time><name>PT7401</name></trkpt>
<trkpt lat="53.345559" lon="-1.815897"><ele>415</ele><time>2022-03-19T14:13:58Z</time><name>PT7402</name></trkpt>
<trkpt lat="53.345562" lon="-1.815910"><ele>415</ele><time>2022-03-19T14:13:59Z</time><name>PT7403</name></trkpt>
<trkpt lat="53.345567" lon="-1.815926"><ele>415</ele><time>2022-03-19T14:13:59Z</time><name>PT7404</name></trkpt>
<trkpt lat="53.345573" lon="-1.815944"><ele>415</ele><time>2022-03-19T14:14:01Z</time><name>PT7405</name></trkpt>
<trkpt lat="53.345581" lon="-1.815955"><ele>415</ele><time>2022-03-19T14:14:02Z</time><name>PT7406</name></trkpt>
<trkpt lat="53.345587" lon="-1.815967"><ele>414</ele><time>2022-03-19T14:14:02Z</time><name>PT7407</name></trkpt>
<trkpt lat="53.345592" lon="-1.815983"><ele>414</ele><time>2022-03-19T14:14:04Z</time><name>PT7408</name></trkpt>
<trkpt lat="53.345593" lon="-1.815999"><ele>414</ele><time>2022-03-19T14:14:05Z</time><name>PT7409</name></trkpt>
<trkpt lat="53.345593" lon="-1.816015"><ele>414</ele><time>2022-03-19T14:14:05Z</time><name>PT7410</name></trkpt>
<trkpt lat="53.345593" lon="-1.816033"><ele>413</ele><time>2022-03-19T14:14:07Z</time><name>PT7411</name></trkpt>
<trkpt lat="53.345591" lon="-1.816054"><ele>413</ele><time>2022-03-19T14:14:08Z</time><name>PT7412</name></trkpt>
<trkpt lat="53.345586" lon="-1.816076"><ele>414</ele><time>2022-03-19T14:14:08Z</time><name>PT7413</name></trkpt>
<trkpt lat="53.345582" lon="-1.816098"><ele>413</ele><time>2022-03-19T14:14:10Z</time><name>PT7414</name></trkpt>
<trkpt lat="53.345576" lon="-1.816116"><ele>414</ele><time>2022-03-19T14:14:11Z</time><name>PT7415</name></trkpt>
<trkpt lat="53.345571" lon="-1.816133"><ele>414</ele><time>2022-03-19T14:14:11Z</time><name>PT7416</name></trkpt>
<trkpt lat="53.345568" lon="-1.816151"><ele>414</ele><time>2022-03-19T14:14:13Z</time><name>PT7417</name></trkpt></trkseg></trk></gpx>